<?xml version='1.0' encoding='UTF-8'?><gpx version="1.1" creator="JPX - https://github.com/jenetics/jpx" xmlns="http://www.topografix.com/GPX/1/1"><trk><trkseg><trkpt lat="39.4397132" lon="8.4932671"><ele>58.0</ele><time>2026-04-22T09:12:58.678Z</time></trkpt><trkpt lat="39.4398059" lon="8.4932374"><ele>58.0</ele><time>2026-04-22T09:13:15.331Z</time></trkpt><trkpt lat="39.439873" lon="8.493176"><ele>58.0</ele><time>2026-04-22T09:15:32.332Z</time></trkpt><trkpt lat="39.4397196" lon="8.4931274"><ele>58.0</ele><time>2026-04-22T09:17:08.33Z</time></trkpt><trkpt lat="39.4396648" lon="8.4932165"><ele>58.0</ele><time>2026-04-22T09:17:10.331Z</time></trkpt><trkpt lat="39.4396058" lon="8.4932934"><ele>57.99999999999999</ele><time>2026-04-22T09:17:12.331Z</time></trkpt><trkpt lat="39.4395731" lon="8.4933769"><ele>58.0</ele><time>2026-04-22T09:17:14.331Z</time></trkpt><trkpt lat="39.4396162" lon="8.4934649"><ele>58.0</ele><time>2026-04-22T09:17:16.331Z</time></trkpt><trkpt lat="39.4397043" lon="8.4935831"><ele>58.0</ele><time>2026-04-22T09:17:18.331Z</time></trkpt><trkpt lat="39.4397516" lon="8.4936641"><ele>57.99999999999999</ele><time>2026-04-22T09:17:19.331Z</time></trkpt><trkpt lat="39.4397973" lon="8.4937481"><ele>58.0</ele><time>2026-04-22T09:17:20.331Z</time></trkpt><trkpt lat="39.4398497" lon="8.4938298"><ele>58.5</ele><time>2026-04-22T09:17:21.331Z</time></trkpt><trkpt lat="39.4399636" lon="8.4939808"><ele>59.0</ele><time>2026-04-22T09:17:23.331Z</time></trkpt><trkpt lat="39.4400939" lon="8.4941311"><ele>59.5</ele><time>2026-04-22T09:17:25.331Z</time></trkpt><trkpt lat="39.4401691" lon="8.4942012"><ele>60.0</ele><time>2026-04-22T09:17:26.33Z</time></trkpt><trkpt lat="39.4402424" lon="8.4942717"><ele>60.0</ele><time>2026-04-22T09:17:27.331Z</time></trkpt><trkpt lat="39.4403175" lon="8.4943265"><ele>60.0</ele><time>2026-04-22T09:17:28.331Z</time></trkpt><trkpt lat="39.4403895" lon="8.4943795"><ele>60.0</ele><time>2026-04-22T09:17:29.33Z</time></trkpt><trkpt lat="39.4404604" lon="8.494443"><ele>60.0</ele><time>2026-04-22T09:17:30.33Z</time></trkpt><trkpt lat="39.4405994" lon="8.4945789"><ele>60.0</ele><time>2026-04-22T09:17:32.33Z</time></trkpt><trkpt lat="39.4406719" lon="8.4946452"><ele>62.66666666666667</ele><time>2026-04-22T09:17:33.331Z</time></trkpt><trkpt lat="39.4407372" lon="8.4947215"><ele>65.33333333333334</ele><time>2026-04-22T09:17:34.33Z</time></trkpt><trkpt lat="39.4409594" lon="8.4949795"><ele>68.0</ele><time>2026-04-22T09:17:37.331Z</time></trkpt><trkpt lat="39.4410324" lon="8.4950703"><ele>68.0</ele><time>2026-04-22T09:17:38.331Z</time></trkpt><trkpt lat="39.4410981" lon="8.4951551"><ele>68.0</ele><time>2026-04-22T09:17:39.331Z</time></trkpt><trkpt lat="39.4412344" lon="8.4952797"><ele>68.0</ele><time>2026-04-22T09:17:41.331Z</time></trkpt><trkpt lat="39.4412828" lon="8.4953326"><ele>68.0</ele><time>2026-04-22T09:17:42.331Z</time></trkpt><trkpt lat="39.441318" lon="8.4955986"><ele>68.6</ele><time>2026-04-22T09:17:47.331Z</time></trkpt><trkpt lat="39.4412251" lon="8.4956819"><ele>69.19999999999999</ele><time>2026-04-22T09:17:49.331Z</time></trkpt><trkpt lat="39.4411166" lon="8.4957774"><ele>69.8</ele><time>2026-04-22T09:17:51.33Z</time></trkpt><trkpt lat="39.4410665" lon="8.4958306"><ele>70.39999999999999</ele><time>2026-04-22T09:17:52.33Z</time></trkpt><trkpt lat="39.4409871" lon="8.4959171"><ele>71.0</ele><time>2026-04-22T09:17:54.331Z</time></trkpt><trkpt lat="39.4409282" lon="8.4959831"><ele>71.0</ele><time>2026-04-22T09:17:56.331Z</time></trkpt><trkpt lat="39.4408837" lon="8.496047"><ele>71.0</ele><time>2026-04-22T09:17:59.33Z</time></trkpt><trkpt lat="39.4408249" lon="8.4961314"><ele>71.0</ele><time>2026-04-22T09:18:13.331Z</time></trkpt><trkpt lat="39.4406999" lon="8.4962811"><ele>71.0</ele><time>2026-04-22T09:18:29.33Z</time></trkpt><trkpt lat="39.4406218" lon="8.4963831"><ele>71.0</ele><time>2026-04-22T09:18:31.331Z</time></trkpt><trkpt lat="39.4405724" lon="8.4964428"><ele>71.6</ele><time>2026-04-22T09:18:32.331Z</time></trkpt><trkpt lat="39.4405226" lon="8.4965064"><ele>72.19999999999999</ele><time>2026-04-22T09:18:33.331Z</time></trkpt><trkpt lat="39.4404359" lon="8.4965957"><ele>72.80000000000001</ele><time>2026-04-22T09:18:35.33Z</time></trkpt><trkpt lat="39.4402941" lon="8.4966177"><ele>73.4</ele><time>2026-04-22T09:18:39.331Z</time></trkpt><trkpt lat="39.4401998" lon="8.4965364"><ele>74.0</ele><time>2026-04-22T09:18:41.331Z</time></trkpt><trkpt lat="39.4401501" lon="8.4964769"><ele>74.0</ele><time>2026-04-22T09:18:42.33Z</time></trkpt><trkpt lat="39.4401065" lon="8.4964159"><ele>74.0</ele><time>2026-04-22T09:18:43.33Z</time></trkpt><trkpt lat="39.4400216" lon="8.4963239"><ele>74.0</ele><time>2026-04-22T09:18:45.331Z</time></trkpt><trkpt lat="39.4399402" lon="8.4962774"><ele>74.0</ele><time>2026-04-22T09:18:47.33Z</time></trkpt><trkpt lat="39.4398591" lon="8.4963194"><ele>74.0</ele><time>2026-04-22T09:18:49.33Z</time></trkpt><trkpt lat="39.4398301" lon="8.4964331"><ele>74.0</ele><time>2026-04-22T09:18:51.331Z</time></trkpt><trkpt lat="39.4398363" lon="8.4965143"><ele>74.0</ele><time>2026-04-22T09:18:52.331Z</time></trkpt><trkpt lat="39.4398471" lon="8.496608"><ele>74.0</ele><time>2026-04-22T09:18:53.331Z</time></trkpt><trkpt lat="39.4398609" lon="8.4967039"><ele>74.0</ele><time>2026-04-22T09:18:54.331Z</time></trkpt><trkpt lat="39.4398717" lon="8.496817"><ele>74.0</ele><time>2026-04-22T09:18:55.331Z</time></trkpt><trkpt lat="39.4398881" lon="8.4969434"><ele>74.0</ele><time>2026-04-22T09:18:56.33Z</time></trkpt><trkpt lat="39.4399311" lon="8.4972312"><ele>76.33333333333334</ele><time>2026-04-22T09:18:58.331Z</time></trkpt><trkpt lat="39.4399649" lon="8.4975396"><ele>78.66666666666667</ele><time>2026-04-22T09:19:00.331Z</time></trkpt><trkpt lat="39.4399767" lon="8.4976836"><ele>81.0</ele><time>2026-04-22T09:19:01.331Z</time></trkpt><trkpt lat="39.4399801" lon="8.4978173"><ele>82.4</ele><time>2026-04-22T09:19:02.331Z</time></trkpt><trkpt lat="39.4399819" lon="8.4979269"><ele>83.8</ele><time>2026-04-22T09:19:03.331Z</time></trkpt><trkpt lat="39.4399768" lon="8.4980396"><ele>85.2</ele><time>2026-04-22T09:19:04.331Z</time></trkpt><trkpt lat="39.4399747" lon="8.4981535"><ele>86.60000000000001</ele><time>2026-04-22T09:19:05.33Z</time></trkpt><trkpt lat="39.4399781" lon="8.4982708"><ele>88.0</ele><time>2026-04-22T09:19:06.331Z</time></trkpt><trkpt lat="39.4399786" lon="8.4985194"><ele>88.0</ele><time>2026-04-22T09:19:08.331Z</time></trkpt><trkpt lat="39.4399706" lon="8.4986493"><ele>88.0</ele><time>2026-04-22T09:19:09.331Z</time></trkpt><trkpt lat="39.4399375" lon="8.4990095"><ele>88.0</ele><time>2026-04-22T09:19:12.33Z</time></trkpt><trkpt lat="39.4399265" lon="8.4991076"><ele>89.80000000000001</ele><time>2026-04-22T09:19:13.331Z</time></trkpt><trkpt lat="39.4399087" lon="8.4991863"><ele>91.6</ele><time>2026-04-22T09:19:14.33Z</time></trkpt><trkpt lat="39.4398769" lon="8.4992616"><ele>93.4</ele><time>2026-04-22T09:19:15.331Z</time></trkpt><trkpt lat="39.4398254" lon="8.4993528"><ele>95.19999999999999</ele><time>2026-04-22T09:19:16.331Z</time></trkpt><trkpt lat="39.4397589" lon="8.4994434"><ele>97.0</ele><time>2026-04-22T09:19:17.33Z</time></trkpt><trkpt lat="39.4396179" lon="8.4996266"><ele>97.0</ele><time>2026-04-22T09:19:19.33Z</time></trkpt><trkpt lat="39.4395582" lon="8.4997148"><ele>97.0</ele><time>2026-04-22T09:19:20.331Z</time></trkpt><trkpt lat="39.4395208" lon="8.4997978"><ele>97.0</ele><time>2026-04-22T09:19:21.331Z</time></trkpt><trkpt lat="39.4395222" lon="8.4999397"><ele>97.0</ele><time>2026-04-22T09:19:24.331Z</time></trkpt><trkpt lat="39.4395267" lon="8.5000283"><ele>97.0</ele><time>2026-04-22T09:19:29.331Z</time></trkpt><trkpt lat="39.439562" lon="8.4998712"><ele>97.00000000000001</ele><time>2026-04-22T09:20:08.331Z</time></trkpt><trkpt lat="39.4395996" lon="8.4996937"><ele>97.0</ele><time>2026-04-22T09:20:10.331Z</time></trkpt><trkpt lat="39.4396279" lon="8.4996117"><ele>97.0</ele><time>2026-04-22T09:20:11.331Z</time></trkpt><trkpt lat="39.4396708" lon="8.4995399"><ele>97.0</ele><time>2026-04-22T09:20:12.331Z</time></trkpt><trkpt lat="39.4397211" lon="8.4994643"><ele>97.00000000000001</ele><time>2026-04-22T09:20:13.331Z</time></trkpt><trkpt lat="39.439774" lon="8.4993901"><ele>97.0</ele><time>2026-04-22T09:20:14.331Z</time></trkpt><trkpt lat="39.4398264" lon="8.4993195"><ele>97.0</ele><time>2026-04-22T09:20:15.33Z</time></trkpt><trkpt lat="39.4399343" lon="8.4992189"><ele>97.0</ele><time>2026-04-22T09:20:17.33Z</time></trkpt><trkpt lat="39.4399735" lon="8.4990928"><ele>97.0</ele><time>2026-04-22T09:20:19.331Z</time></trkpt><trkpt lat="39.4399772" lon="8.498936"><ele>97.0</ele><time>2026-04-22T09:20:21.331Z</time></trkpt><trkpt lat="39.4399871" lon="8.4987922"><ele>94.75</ele><time>2026-04-22T09:20:23.331Z</time></trkpt><trkpt lat="39.4400191" lon="8.498654"><ele>92.5</ele><time>2026-04-22T09:20:26.331Z</time></trkpt><trkpt lat="39.440034" lon="8.4985128"><ele>90.25</ele><time>2026-04-22T09:20:59.331Z</time></trkpt><trkpt lat="39.440034" lon="8.4982768"><ele>88.0</ele><time>2026-04-22T09:21:03.33Z</time></trkpt><trkpt lat="39.4400366" lon="8.4981829"><ele>88.0</ele><time>2026-04-22T09:21:05.331Z</time></trkpt><trkpt lat="39.4399668" lon="8.4981477"><ele>88.0</ele><time>2026-04-22T09:21:18.33Z</time></trkpt><trkpt lat="39.4398681" lon="8.4982241"><ele>88.0</ele><time>2026-04-22T09:21:20.33Z</time></trkpt><trkpt lat="39.4397345" lon="8.4983677"><ele>88.0</ele><time>2026-04-22T09:21:22.33Z</time></trkpt><trkpt lat="39.439674" lon="8.4984635"><ele>88.5</ele><time>2026-04-22T09:21:23.33Z</time></trkpt><trkpt lat="39.4396178" lon="8.4985476"><ele>89.0</ele><time>2026-04-22T09:21:24.33Z</time></trkpt><trkpt lat="39.439566" lon="8.4986327"><ele>89.5</ele><time>2026-04-22T09:21:25.331Z</time></trkpt><trkpt lat="39.4395169" lon="8.4987137"><ele>90.0</ele><time>2026-04-22T09:21:26.331Z</time></trkpt><trkpt lat="39.4394805" lon="8.4987894"><ele>90.5</ele><time>2026-04-22T09:21:27.331Z</time></trkpt><trkpt lat="39.4394224" lon="8.4988871"><ele>91.0</ele><time>2026-04-22T09:21:29.331Z</time></trkpt><trkpt lat="39.4393465" lon="8.4989471"><ele>91.66666666666666</ele><time>2026-04-22T09:21:32.331Z</time></trkpt><trkpt lat="39.4392823" lon="8.4990264"><ele>92.33333333333333</ele><time>2026-04-22T09:21:34.33Z</time></trkpt><trkpt lat="39.4392406" lon="8.4990918"><ele>93.0</ele><time>2026-04-22T09:21:35.331Z</time></trkpt><trkpt lat="39.439197" lon="8.4991821"><ele>93.66666666666667</ele><time>2026-04-22T09:21:36.33Z</time></trkpt><trkpt lat="39.4391466" lon="8.4992702"><ele>94.33333333333334</ele><time>2026-04-22T09:21:37.33Z</time></trkpt><trkpt lat="39.4391009" lon="8.4993671"><ele>95.0</ele><time>2026-04-22T09:21:38.331Z</time></trkpt><trkpt lat="39.4390704" lon="8.4994752"><ele>95.4</ele><time>2026-04-22T09:21:39.33Z</time></trkpt><trkpt lat="39.4390554" lon="8.4995891"><ele>95.8</ele><time>2026-04-22T09:21:40.331Z</time></trkpt><trkpt lat="39.4390528" lon="8.4997177"><ele>96.19999999999999</ele><time>2026-04-22T09:21:41.331Z</time></trkpt><trkpt lat="39.4390597" lon="8.4999342"><ele>96.6</ele><time>2026-04-22T09:21:43.33Z</time></trkpt><trkpt lat="39.4390558" lon="8.5000217"><ele>97.0</ele><time>2026-04-22T09:21:44.331Z</time></trkpt><trkpt lat="39.4390528" lon="8.5001075"><ele>97.0</ele><time>2026-04-22T09:21:45.331Z</time></trkpt><trkpt lat="39.4390423" lon="8.5001892"><ele>97.0</ele><time>2026-04-22T09:21:46.331Z</time></trkpt><trkpt lat="39.4390256" lon="8.500276"><ele>97.0</ele><time>2026-04-22T09:21:47.33Z</time></trkpt><trkpt lat="39.4389983" lon="8.5003759"><ele>97.0</ele><time>2026-04-22T09:21:48.331Z</time></trkpt><trkpt lat="39.4389232" lon="8.5005742"><ele>97.0</ele><time>2026-04-22T09:21:50.331Z</time></trkpt><trkpt lat="39.4388722" lon="8.5006646"><ele>97.19999999999999</ele><time>2026-04-22T09:21:51.33Z</time></trkpt><trkpt lat="39.4388069" lon="8.5007409"><ele>97.4</ele><time>2026-04-22T09:21:52.33Z</time></trkpt><trkpt lat="39.438737" lon="8.500801"><ele>97.6</ele><time>2026-04-22T09:21:53.331Z</time></trkpt><trkpt lat="39.4386724" lon="8.500847"><ele>97.80000000000001</ele><time>2026-04-22T09:21:54.33Z</time></trkpt><trkpt lat="39.4385783" lon="8.5009344"><ele>98.0</ele><time>2026-04-22T09:21:56.331Z</time></trkpt><trkpt lat="39.4384912" lon="8.5010373"><ele>98.0</ele><time>2026-04-22T09:21:58.33Z</time></trkpt><trkpt lat="39.4384365" lon="8.5011081"><ele>98.0</ele><time>2026-04-22T09:21:59.33Z</time></trkpt><trkpt lat="39.438372" lon="8.5011894"><ele>98.0</ele><time>2026-04-22T09:22:00.331Z</time></trkpt><trkpt lat="39.4382882" lon="8.5012574"><ele>98.0</ele><time>2026-04-22T09:22:01.331Z</time></trkpt><trkpt lat="39.4381958" lon="8.5013159"><ele>98.0</ele><time>2026-04-22T09:22:02.33Z</time></trkpt><trkpt lat="39.4380229" lon="8.501412"><ele>95.60000000000001</ele><time>2026-04-22T09:22:04.33Z</time></trkpt><trkpt lat="39.437932" lon="8.5014498"><ele>93.2</ele><time>2026-04-22T09:22:05.33Z</time></trkpt><trkpt lat="39.4378386" lon="8.5014857"><ele>90.8</ele><time>2026-04-22T09:22:06.331Z</time></trkpt><trkpt lat="39.4377457" lon="8.501525"><ele>88.4</ele><time>2026-04-22T09:22:07.331Z</time></trkpt><trkpt lat="39.4376593" lon="8.5015389"><ele>86.0</ele><time>2026-04-22T09:22:08.33Z</time></trkpt><trkpt lat="39.4375689" lon="8.5015578"><ele>86.0</ele><time>2026-04-22T09:22:09.331Z</time></trkpt><trkpt lat="39.437484" lon="8.5015774"><ele>86.0</ele><time>2026-04-22T09:22:10.331Z</time></trkpt><trkpt lat="39.4374019" lon="8.5015896"><ele>86.0</ele><time>2026-04-22T09:22:11.33Z</time></trkpt><trkpt lat="39.4373193" lon="8.5016053"><ele>86.0</ele><time>2026-04-22T09:22:12.33Z</time></trkpt><trkpt lat="39.4372365" lon="8.5016279"><ele>86.0</ele><time>2026-04-22T09:22:13.331Z</time></trkpt><trkpt lat="39.4371612" lon="8.50167"><ele>86.0</ele><time>2026-04-22T09:22:14.33Z</time></trkpt><trkpt lat="39.4370161" lon="8.5017583"><ele>84.42857142857143</ele><time>2026-04-22T09:22:16.33Z</time></trkpt><trkpt lat="39.4369464" lon="8.501803"><ele>82.85714285714286</ele><time>2026-04-22T09:22:17.33Z</time></trkpt><trkpt lat="39.4368827" lon="8.5018476"><ele>81.28571428571428</ele><time>2026-04-22T09:22:18.331Z</time></trkpt><trkpt lat="39.4368242" lon="8.5018941"><ele>79.71428571428572</ele><time>2026-04-22T09:22:19.33Z</time></trkpt><trkpt lat="39.4367654" lon="8.5019441"><ele>78.14285714285714</ele><time>2026-04-22T09:22:20.331Z</time></trkpt><trkpt lat="39.4367061" lon="8.5019825"><ele>76.57142857142857</ele><time>2026-04-22T09:22:21.33Z</time></trkpt><trkpt lat="39.436644" lon="8.5020112"><ele>75.0</ele><time>2026-04-22T09:22:22.33Z</time></trkpt><trkpt lat="39.4365394" lon="8.5020508"><ele>75.0</ele><time>2026-04-22T09:22:24.33Z</time></trkpt><trkpt lat="39.4363785" lon="8.5020341"><ele>75.0</ele><time>2026-04-22T09:22:29.329Z</time></trkpt><trkpt lat="39.4362933" lon="8.5019917"><ele>75.0</ele><time>2026-04-22T09:22:31.329Z</time></trkpt><trkpt lat="39.4362334" lon="8.501936"><ele>75.0</ele><time>2026-04-22T09:22:32.33Z</time></trkpt><trkpt lat="39.4361679" lon="8.5018669"><ele>75.0</ele><time>2026-04-22T09:22:33.33Z</time></trkpt><trkpt lat="39.4360865" lon="8.5017642"><ele>73.2</ele><time>2026-04-22T09:22:34.33Z</time></trkpt><trkpt lat="39.4360081" lon="8.5016569"><ele>71.4</ele><time>2026-04-22T09:22:35.329Z</time></trkpt><trkpt lat="39.4359345" lon="8.5015578"><ele>69.6</ele><time>2026-04-22T09:22:36.33Z</time></trkpt><trkpt lat="39.43587" lon="8.5014689"><ele>67.8</ele><time>2026-04-22T09:22:37.329Z</time></trkpt><trkpt lat="39.435818" lon="8.5013839"><ele>66.0</ele><time>2026-04-22T09:22:38.33Z</time></trkpt><trkpt lat="39.4357724" lon="8.5012968"><ele>66.66666666666667</ele><time>2026-04-22T09:22:39.329Z</time></trkpt><trkpt lat="39.4357346" lon="8.5012191"><ele>67.33333333333333</ele><time>2026-04-22T09:22:40.329Z</time></trkpt><trkpt lat="39.4356816" lon="8.5010777"><ele>68.0</ele><time>2026-04-22T09:22:42.33Z</time></trkpt><trkpt lat="39.4356566" lon="8.5009956"><ele>68.66666666666666</ele><time>2026-04-22T09:22:43.329Z</time></trkpt><trkpt lat="39.4356295" lon="8.5008998"><ele>69.33333333333333</ele><time>2026-04-22T09:22:44.33Z</time></trkpt><trkpt lat="39.4356001" lon="8.5007966"><ele>70.0</ele><time>2026-04-22T09:22:45.33Z</time></trkpt><trkpt lat="39.4355264" lon="8.5005542"><ele>70.0</ele><time>2026-04-22T09:22:47.329Z</time></trkpt><trkpt lat="39.4354834" lon="8.5004277"><ele>70.0</ele><time>2026-04-22T09:22:48.329Z</time></trkpt><trkpt lat="39.4354478" lon="8.5002971"><ele>70.0</ele><time>2026-04-22T09:22:49.329Z</time></trkpt><trkpt lat="39.4353626" lon="8.500041"><ele>70.0</ele><time>2026-04-22T09:22:51.33Z</time></trkpt><trkpt lat="39.4353344" lon="8.4999268"><ele>68.6</ele><time>2026-04-22T09:22:52.33Z</time></trkpt><trkpt lat="39.4353194" lon="8.4998296"><ele>67.2</ele><time>2026-04-22T09:22:53.329Z</time></trkpt><trkpt lat="39.4353095" lon="8.4997461"><ele>65.8</ele><time>2026-04-22T09:22:54.33Z</time></trkpt><trkpt lat="39.4352754" lon="8.4996764"><ele>64.4</ele><time>2026-04-22T09:22:58.329Z</time></trkpt><trkpt lat="39.4351953" lon="8.4997497"><ele>63.0</ele><time>2026-04-22T09:23:00.329Z</time></trkpt><trkpt lat="39.4350714" lon="8.4999003"><ele>63.0</ele><time>2026-04-22T09:23:02.33Z</time></trkpt><trkpt lat="39.4350044" lon="8.4999768"><ele>63.0</ele><time>2026-04-22T09:23:03.329Z</time></trkpt><trkpt lat="39.4349428" lon="8.5000358"><ele>63.0</ele><time>2026-04-22T09:23:04.33Z</time></trkpt><trkpt lat="39.434885" lon="8.5000825"><ele>63.0</ele><time>2026-04-22T09:23:05.33Z</time></trkpt><trkpt lat="39.4348268" lon="8.5001187"><ele>63.0</ele><time>2026-04-22T09:23:06.33Z</time></trkpt><trkpt lat="39.4346526" lon="8.5001556"><ele>63.333333333333336</ele><time>2026-04-22T09:23:09.33Z</time></trkpt><trkpt lat="39.4345784" lon="8.5001408"><ele>63.66666666666667</ele><time>2026-04-22T09:23:10.33Z</time></trkpt><trkpt lat="39.4344948" lon="8.5001175"><ele>64.0</ele><time>2026-04-22T09:23:11.33Z</time></trkpt><trkpt lat="39.4344169" lon="8.5000857"><ele>64.33333333333334</ele><time>2026-04-22T09:23:12.33Z</time></trkpt><trkpt lat="39.4343331" lon="8.5000383"><ele>64.66666666666667</ele><time>2026-04-22T09:23:13.33Z</time></trkpt><trkpt lat="39.4342229" lon="8.5000236"><ele>65.0</ele><time>2026-04-22T09:23:15.33Z</time></trkpt><trkpt lat="39.4341007" lon="8.50002"><ele>65.00000000000001</ele><time>2026-04-22T09:23:17.33Z</time></trkpt><trkpt lat="39.4340312" lon="8.500017"><ele>65.0</ele><time>2026-04-22T09:23:18.33Z</time></trkpt><trkpt lat="39.4339637" lon="8.5000335"><ele>65.0</ele><time>2026-04-22T09:23:19.33Z</time></trkpt><trkpt lat="39.4339022" lon="8.5000636"><ele>65.0</ele><time>2026-04-22T09:23:20.33Z</time></trkpt><trkpt lat="39.4338414" lon="8.5001122"><ele>65.0</ele><time>2026-04-22T09:23:21.33Z</time></trkpt><trkpt lat="39.4337841" lon="8.5001718"><ele>65.00000000000001</ele><time>2026-04-22T09:23:22.33Z</time></trkpt><trkpt lat="39.4337279" lon="8.5002241"><ele>65.0</ele><time>2026-04-22T09:23:23.33Z</time></trkpt><trkpt lat="39.4336708" lon="8.5002756"><ele>65.66666666666667</ele><time>2026-04-22T09:23:24.33Z</time></trkpt><trkpt lat="39.4335598" lon="8.5003987"><ele>66.33333333333333</ele><time>2026-04-22T09:23:26.329Z</time></trkpt><trkpt lat="39.4334394" lon="8.5006647"><ele>67.0</ele><time>2026-04-22T09:23:30.33Z</time></trkpt><trkpt lat="39.4333866" lon="8.5008082"><ele>67.0</ele><time>2026-04-22T09:23:32.33Z</time></trkpt><trkpt lat="39.4333325" lon="8.5009456"><ele>67.0</ele><time>2026-04-22T09:23:34.33Z</time></trkpt><trkpt lat="39.4332346" lon="8.5011105"><ele>67.0</ele><time>2026-04-22T09:23:38.33Z</time></trkpt><trkpt lat="39.4331397" lon="8.5011895"><ele>67.0</ele><time>2026-04-22T09:23:40.329Z</time></trkpt><trkpt lat="39.4330288" lon="8.5012303"><ele>67.0</ele><time>2026-04-22T09:23:42.33Z</time></trkpt><trkpt lat="39.4329672" lon="8.5011931"><ele>67.0</ele><time>2026-04-22T09:23:43.33Z</time></trkpt><trkpt lat="39.4328991" lon="8.5011411"><ele>67.0</ele><time>2026-04-22T09:23:44.33Z</time></trkpt><trkpt lat="39.4328424" lon="8.5010934"><ele>67.0</ele><time>2026-04-22T09:23:45.33Z</time></trkpt><trkpt lat="39.432769" lon="8.5010345"><ele>67.0</ele><time>2026-04-22T09:23:47.329Z</time></trkpt><trkpt lat="39.43281" lon="8.5011182"><ele>67.0</ele><time>2026-04-22T09:23:52.33Z</time></trkpt><trkpt lat="39.4330038" lon="8.5012229"><ele>67.0</ele><time>2026-04-22T09:23:55.33Z</time></trkpt><trkpt lat="39.4330787" lon="8.5012475"><ele>67.0</ele><time>2026-04-22T09:23:56.329Z</time></trkpt><trkpt lat="39.4331632" lon="8.5012427"><ele>67.0</ele><time>2026-04-22T09:23:57.329Z</time></trkpt><trkpt lat="39.4332419" lon="8.5012022"><ele>67.0</ele><time>2026-04-22T09:23:58.33Z</time></trkpt><trkpt lat="39.4333136" lon="8.5011269"><ele>67.0</ele><time>2026-04-22T09:23:59.33Z</time></trkpt><trkpt lat="39.4333722" lon="8.5010333"><ele>67.0</ele><time>2026-04-22T09:24:00.33Z</time></trkpt><trkpt lat="39.4334517" lon="8.5008196"><ele>67.0</ele><time>2026-04-22T09:24:02.33Z</time></trkpt><trkpt lat="39.4334943" lon="8.5007058"><ele>67.0</ele><time>2026-04-22T09:24:03.33Z</time></trkpt><trkpt lat="39.433529" lon="8.5005935"><ele>67.0</ele><time>2026-04-22T09:24:04.33Z</time></trkpt><trkpt lat="39.433569" lon="8.5004985"><ele>67.0</ele><time>2026-04-22T09:24:05.33Z</time></trkpt><trkpt lat="39.4336176" lon="8.5004102"><ele>67.0</ele><time>2026-04-22T09:24:06.33Z</time></trkpt><trkpt lat="39.4336718" lon="8.500348"><ele>67.0</ele><time>2026-04-22T09:24:07.33Z</time></trkpt><trkpt lat="39.4337291" lon="8.5002873"><ele>66.6</ele><time>2026-04-22T09:24:08.33Z</time></trkpt><trkpt lat="39.4337935" lon="8.5002249"><ele>66.2</ele><time>2026-04-22T09:24:09.33Z</time></trkpt><trkpt lat="39.433938" lon="8.5001136"><ele>65.8</ele><time>2026-04-22T09:24:11.33Z</time></trkpt><trkpt lat="39.4340114" lon="8.5000719"><ele>65.4</ele><time>2026-04-22T09:24:12.33Z</time></trkpt><trkpt lat="39.4340825" lon="8.5000501"><ele>65.0</ele><time>2026-04-22T09:24:13.33Z</time></trkpt><trkpt lat="39.4342323" lon="8.5000574"><ele>65.0</ele><time>2026-04-22T09:24:15.329Z</time></trkpt><trkpt lat="39.4343063" lon="8.500072"><ele>65.0</ele><time>2026-04-22T09:24:16.33Z</time></trkpt><trkpt lat="39.4343692" lon="8.5000836"><ele>65.0</ele><time>2026-04-22T09:24:17.33Z</time></trkpt><trkpt lat="39.4344713" lon="8.5001146"><ele>65.0</ele><time>2026-04-22T09:24:19.33Z</time></trkpt><trkpt lat="39.4345766" lon="8.5001741"><ele>65.0</ele><time>2026-04-22T09:24:21.33Z</time></trkpt><trkpt lat="39.4346436" lon="8.5002519"><ele>65.0</ele><time>2026-04-22T09:24:23.33Z</time></trkpt><trkpt lat="39.4347073" lon="8.5003282"><ele>65.0</ele><time>2026-04-22T09:24:25.329Z</time></trkpt><trkpt lat="39.4347449" lon="8.5004222"><ele>65.0</ele><time>2026-04-22T09:24:28.329Z</time></trkpt><trkpt lat="39.4346827" lon="8.5005061"><ele>65.0</ele><time>2026-04-22T09:24:31.33Z</time></trkpt><trkpt lat="39.4346311" lon="8.5005704"><ele>65.0</ele><time>2026-04-22T09:24:33.329Z</time></trkpt><trkpt lat="39.4345726" lon="8.5006437"><ele>65.0</ele><time>2026-04-22T09:24:35.33Z</time></trkpt><trkpt lat="39.434406" lon="8.5008647"><ele>65.0</ele><time>2026-04-22T09:24:39.329Z</time></trkpt><trkpt lat="39.4343566" lon="8.5009714"><ele>65.0</ele><time>2026-04-22T09:24:40.33Z</time></trkpt><trkpt lat="39.4343264" lon="8.5011122"><ele>65.0</ele><time>2026-04-22T09:24:41.329Z</time></trkpt><trkpt lat="39.4343032" lon="8.5012511"><ele>65.0</ele><time>2026-04-22T09:24:42.33Z</time></trkpt><trkpt lat="39.4342819" lon="8.5013697"><ele>65.0</ele><time>2026-04-22T09:24:43.33Z</time></trkpt><trkpt lat="39.4342475" lon="8.5014759"><ele>66.0</ele><time>2026-04-22T09:24:44.33Z</time></trkpt><trkpt lat="39.4342044" lon="8.5015954"><ele>67.0</ele><time>2026-04-22T09:24:45.329Z</time></trkpt><trkpt lat="39.4341472" lon="8.50173"><ele>68.0</ele><time>2026-04-22T09:24:46.329Z</time></trkpt><trkpt lat="39.4340876" lon="8.5018859"><ele>69.0</ele><time>2026-04-22T09:24:47.33Z</time></trkpt><trkpt lat="39.4340419" lon="8.5020419"><ele>68.8</ele><time>2026-04-22T09:24:48.329Z</time></trkpt><trkpt lat="39.4339996" lon="8.5021727"><ele>68.60000000000001</ele><time>2026-04-22T09:24:49.329Z</time></trkpt><trkpt lat="39.4339545" lon="8.5022799"><ele>68.4</ele><time>2026-04-22T09:24:50.329Z</time></trkpt><trkpt lat="39.4339045" lon="8.5023647"><ele>68.2</ele><time>2026-04-22T09:24:51.33Z</time></trkpt><trkpt lat="39.4338411" lon="8.5024269"><ele>68.0</ele><time>2026-04-22T09:24:52.33Z</time></trkpt><trkpt lat="39.4337634" lon="8.5024696"><ele>68.0</ele><time>2026-04-22T09:24:53.329Z</time></trkpt><trkpt lat="39.4336657" lon="8.5024974"><ele>68.0</ele><time>2026-04-22T09:24:54.33Z</time></trkpt><trkpt lat="39.4335554" lon="8.5025274"><ele>68.0</ele><time>2026-04-22T09:24:55.329Z</time></trkpt><trkpt lat="39.4334449" lon="8.5025762"><ele>68.0</ele><time>2026-04-22T09:24:56.33Z</time></trkpt><trkpt lat="39.4332638" lon="8.5027203"><ele>68.0</ele><time>2026-04-22T09:24:58.329Z</time></trkpt><trkpt lat="39.4331829" lon="8.5027818"><ele>68.0</ele><time>2026-04-22T09:24:59.329Z</time></trkpt><trkpt lat="39.4330882" lon="8.5028176"><ele>68.0</ele><time>2026-04-22T09:25:00.33Z</time></trkpt><trkpt lat="39.4329761" lon="8.5028292"><ele>68.0</ele><time>2026-04-22T09:25:01.329Z</time></trkpt><trkpt lat="39.4328604" lon="8.5028264"><ele>68.0</ele><time>2026-04-22T09:25:02.329Z</time></trkpt><trkpt lat="39.4327542" lon="8.5028183"><ele>68.5</ele><time>2026-04-22T09:25:03.33Z</time></trkpt><trkpt lat="39.4326599" lon="8.5028185"><ele>69.0</ele><time>2026-04-22T09:25:04.329Z</time></trkpt><trkpt lat="39.4325779" lon="8.5028393"><ele>69.5</ele><time>2026-04-22T09:25:05.33Z</time></trkpt><trkpt lat="39.4324968" lon="8.5028767"><ele>70.0</ele><time>2026-04-22T09:25:06.33Z</time></trkpt><trkpt lat="39.4324252" lon="8.5029368"><ele>70.5</ele><time>2026-04-22T09:25:07.329Z</time></trkpt><trkpt lat="39.43236" lon="8.5030102"><ele>71.0</ele><time>2026-04-22T09:25:08.33Z</time></trkpt><trkpt lat="39.4323025" lon="8.5030767"><ele>72.0</ele><time>2026-04-22T09:25:09.33Z</time></trkpt><trkpt lat="39.4322022" lon="8.5031403"><ele>73.0</ele><time>2026-04-22T09:25:11.329Z</time></trkpt><trkpt lat="39.4321218" lon="8.5030999"><ele>74.0</ele><time>2026-04-22T09:25:13.33Z</time></trkpt><trkpt lat="39.4320807" lon="8.5029833"><ele>75.0</ele><time>2026-04-22T09:25:15.33Z</time></trkpt><trkpt lat="39.4320784" lon="8.5028984"><ele>76.0</ele><time>2026-04-22T09:25:16.33Z</time></trkpt><trkpt lat="39.4320666" lon="8.5028074"><ele>77.0</ele><time>2026-04-22T09:25:17.33Z</time></trkpt><trkpt lat="39.4320172" lon="8.5026559"><ele>78.28571428571429</ele><time>2026-04-22T09:25:19.329Z</time></trkpt><trkpt lat="39.4319739" lon="8.5025879"><ele>79.57142857142857</ele><time>2026-04-22T09:25:20.33Z</time></trkpt><trkpt lat="39.431919" lon="8.5025225"><ele>80.85714285714286</ele><time>2026-04-22T09:25:21.33Z</time></trkpt><trkpt lat="39.4318657" lon="8.5024593"><ele>82.14285714285714</ele><time>2026-04-22T09:25:22.33Z</time></trkpt><trkpt lat="39.4318213" lon="8.5023961"><ele>83.42857142857143</ele><time>2026-04-22T09:25:23.33Z</time></trkpt><trkpt lat="39.4317852" lon="8.5023172"><ele>84.71428571428572</ele><time>2026-04-22T09:25:24.329Z</time></trkpt><trkpt lat="39.4317666" lon="8.5022234"><ele>86.0</ele><time>2026-04-22T09:25:25.33Z</time></trkpt><trkpt lat="39.4317486" lon="8.5021307"><ele>84.66666666666667</ele><time>2026-04-22T09:25:26.33Z</time></trkpt><trkpt lat="39.4317269" lon="8.5020396"><ele>83.33333333333334</ele><time>2026-04-22T09:25:27.329Z</time></trkpt><trkpt lat="39.4316954" lon="8.5019554"><ele>82.0</ele><time>2026-04-22T09:25:28.33Z</time></trkpt><trkpt lat="39.4316507" lon="8.5018735"><ele>80.66666666666667</ele><time>2026-04-22T09:25:29.33Z</time></trkpt><trkpt lat="39.4315989" lon="8.5017952"><ele>79.33333333333333</ele><time>2026-04-22T09:25:30.33Z</time></trkpt><trkpt lat="39.4315327" lon="8.5017259"><ele>78.0</ele><time>2026-04-22T09:25:31.329Z</time></trkpt><trkpt lat="39.4314685" lon="8.501667"><ele>78.0</ele><time>2026-04-22T09:25:32.33Z</time></trkpt><trkpt lat="39.4314072" lon="8.5016268"><ele>78.0</ele><time>2026-04-22T09:25:33.33Z</time></trkpt><trkpt lat="39.4312815" lon="8.5016094"><ele>78.0</ele><time>2026-04-22T09:25:35.329Z</time></trkpt><trkpt lat="39.4312118" lon="8.5016229"><ele>78.0</ele><time>2026-04-22T09:25:36.329Z</time></trkpt><trkpt lat="39.4311383" lon="8.5016469"><ele>78.0</ele><time>2026-04-22T09:25:37.329Z</time></trkpt><trkpt lat="39.4310591" lon="8.5016767"><ele>78.0</ele><time>2026-04-22T09:25:38.329Z</time></trkpt><trkpt lat="39.4308895" lon="8.5017657"><ele>77.83333333333333</ele><time>2026-04-22T09:25:41.329Z</time></trkpt><trkpt lat="39.430848" lon="8.5018808"><ele>77.66666666666667</ele><time>2026-04-22T09:25:43.33Z</time></trkpt><trkpt lat="39.4308375" lon="8.5019769"><ele>77.5</ele><time>2026-04-22T09:25:44.329Z</time></trkpt><trkpt lat="39.4308247" lon="8.5020846"><ele>77.33333333333334</ele><time>2026-04-22T09:25:45.33Z</time></trkpt><trkpt lat="39.4308075" lon="8.5021805"><ele>77.16666666666667</ele><time>2026-04-22T09:25:46.329Z</time></trkpt><trkpt lat="39.4307787" lon="8.5022659"><ele>77.0</ele><time>2026-04-22T09:25:47.33Z</time></trkpt><trkpt lat="39.4307409" lon="8.5023459"><ele>77.2</ele><time>2026-04-22T09:25:48.329Z</time></trkpt><trkpt lat="39.430697" lon="8.5024195"><ele>77.4</ele><time>2026-04-22T09:25:49.33Z</time></trkpt><trkpt lat="39.4306488" lon="8.5025009"><ele>77.6</ele><time>2026-04-22T09:25:50.329Z</time></trkpt><trkpt lat="39.4306051" lon="8.5025692"><ele>77.8</ele><time>2026-04-22T09:25:51.33Z</time></trkpt><trkpt lat="39.4305112" lon="8.5026684"><ele>78.0</ele><time>2026-04-22T09:25:53.329Z</time></trkpt><trkpt lat="39.4303786" lon="8.5026724"><ele>78.0</ele><time>2026-04-22T09:25:55.33Z</time></trkpt><trkpt lat="39.4302977" lon="8.5026495"><ele>78.0</ele><time>2026-04-22T09:25:56.33Z</time></trkpt><trkpt lat="39.4302098" lon="8.5026081"><ele>78.0</ele><time>2026-04-22T09:25:57.33Z</time></trkpt><trkpt lat="39.4301156" lon="8.5025798"><ele>78.0</ele><time>2026-04-22T09:25:58.33Z</time></trkpt><trkpt lat="39.4300244" lon="8.5025739"><ele>78.0</ele><time>2026-04-22T09:25:59.33Z</time></trkpt><trkpt lat="39.429852" lon="8.5026207"><ele>78.0</ele><time>2026-04-22T09:26:01.33Z</time></trkpt><trkpt lat="39.4297767" lon="8.5026623"><ele>78.0</ele><time>2026-04-22T09:26:02.33Z</time></trkpt><trkpt lat="39.429708" lon="8.5026984"><ele>78.0</ele><time>2026-04-22T09:26:03.33Z</time></trkpt><trkpt lat="39.4296441" lon="8.5027023"><ele>78.0</ele><time>2026-04-22T09:26:04.329Z</time></trkpt><trkpt lat="39.4295221" lon="8.5026302"><ele>78.0</ele><time>2026-04-22T09:26:06.33Z</time></trkpt><trkpt lat="39.42946" lon="8.5025876"><ele>78.0</ele><time>2026-04-22T09:26:07.329Z</time></trkpt><trkpt lat="39.4293929" lon="8.5025675"><ele>77.8</ele><time>2026-04-22T09:26:08.33Z</time></trkpt><trkpt lat="39.4293146" lon="8.5025708"><ele>77.6</ele><time>2026-04-22T09:26:09.33Z</time></trkpt><trkpt lat="39.4292316" lon="8.5026019"><ele>77.4</ele><time>2026-04-22T09:26:10.33Z</time></trkpt><trkpt lat="39.4291464" lon="8.5026564"><ele>77.2</ele><time>2026-04-22T09:26:11.33Z</time></trkpt><trkpt lat="39.4290637" lon="8.5027205"><ele>77.0</ele><time>2026-04-22T09:26:12.33Z</time></trkpt><trkpt lat="39.4289843" lon="8.5027959"><ele>77.0</ele><time>2026-04-22T09:26:13.33Z</time></trkpt><trkpt lat="39.4289084" lon="8.5028711"><ele>77.0</ele><time>2026-04-22T09:26:14.329Z</time></trkpt><trkpt lat="39.4288342" lon="8.5029419"><ele>77.0</ele><time>2026-04-22T09:26:15.33Z</time></trkpt><trkpt lat="39.4287594" lon="8.5030018"><ele>77.0</ele><time>2026-04-22T09:26:16.33Z</time></trkpt><trkpt lat="39.42869" lon="8.5030502"><ele>77.0</ele><time>2026-04-22T09:26:17.33Z</time></trkpt><trkpt lat="39.4286156" lon="8.503098"><ele>77.0</ele><time>2026-04-22T09:26:18.33Z</time></trkpt><trkpt lat="39.4285365" lon="8.5031378"><ele>78.8</ele><time>2026-04-22T09:26:19.33Z</time></trkpt><trkpt lat="39.4284567" lon="8.5031783"><ele>80.6</ele><time>2026-04-22T09:26:20.329Z</time></trkpt><trkpt lat="39.4282979" lon="8.5032716"><ele>82.39999999999999</ele><time>2026-04-22T09:26:22.329Z</time></trkpt><trkpt lat="39.4282186" lon="8.5033161"><ele>84.2</ele><time>2026-04-22T09:26:23.33Z</time></trkpt><trkpt lat="39.4281331" lon="8.5033573"><ele>86.0</ele><time>2026-04-22T09:26:24.329Z</time></trkpt><trkpt lat="39.4280393" lon="8.5033887"><ele>85.19999999999999</ele><time>2026-04-22T09:26:25.33Z</time></trkpt><trkpt lat="39.4279382" lon="8.5034128"><ele>84.39999999999999</ele><time>2026-04-22T09:26:26.329Z</time></trkpt><trkpt lat="39.4278372" lon="8.5034386"><ele>83.6</ele><time>2026-04-22T09:26:27.33Z</time></trkpt><trkpt lat="39.4277401" lon="8.5034683"><ele>82.8</ele><time>2026-04-22T09:26:28.329Z</time></trkpt><trkpt lat="39.4276532" lon="8.5035094"><ele>82.0</ele><time>2026-04-22T09:26:29.33Z</time></trkpt><trkpt lat="39.4275809" lon="8.5035546"><ele>82.0</ele><time>2026-04-22T09:26:30.33Z</time></trkpt><trkpt lat="39.4275231" lon="8.5036046"><ele>82.0</ele><time>2026-04-22T09:26:31.33Z</time></trkpt><trkpt lat="39.4274792" lon="8.5036732"><ele>82.0</ele><time>2026-04-22T09:26:32.33Z</time></trkpt><trkpt lat="39.4274386" lon="8.5037577"><ele>82.0</ele><time>2026-04-22T09:26:33.329Z</time></trkpt><trkpt lat="39.4273933" lon="8.5038525"><ele>82.0</ele><time>2026-04-22T09:26:34.33Z</time></trkpt><trkpt lat="39.4273331" lon="8.5039646"><ele>82.0</ele><time>2026-04-22T09:26:35.33Z</time></trkpt><trkpt lat="39.4272699" lon="8.5040728"><ele>82.19999999999999</ele><time>2026-04-22T09:26:36.329Z</time></trkpt><trkpt lat="39.4272154" lon="8.5041809"><ele>82.4</ele><time>2026-04-22T09:26:37.33Z</time></trkpt><trkpt lat="39.4271606" lon="8.5042908"><ele>82.6</ele><time>2026-04-22T09:26:38.329Z</time></trkpt><trkpt lat="39.4270953" lon="8.5044021"><ele>82.80000000000001</ele><time>2026-04-22T09:26:39.33Z</time></trkpt><trkpt lat="39.4270221" lon="8.50451"><ele>83.0</ele><time>2026-04-22T09:26:40.329Z</time></trkpt><trkpt lat="39.4269498" lon="8.5046076"><ele>84.25</ele><time>2026-04-22T09:26:41.33Z</time></trkpt><trkpt lat="39.426807" lon="8.5047754"><ele>85.5</ele><time>2026-04-22T09:26:43.33Z</time></trkpt><trkpt lat="39.4267357" lon="8.5048508"><ele>86.75</ele><time>2026-04-22T09:26:44.33Z</time></trkpt><trkpt lat="39.4266565" lon="8.5049098"><ele>88.0</ele><time>2026-04-22T09:26:45.33Z</time></trkpt><trkpt lat="39.4265819" lon="8.5049633"><ele>88.0</ele><time>2026-04-22T09:26:46.33Z</time></trkpt><trkpt lat="39.426515" lon="8.5050252"><ele>88.0</ele><time>2026-04-22T09:26:47.33Z</time></trkpt><trkpt lat="39.4264624" lon="8.5050996"><ele>88.0</ele><time>2026-04-22T09:26:48.33Z</time></trkpt><trkpt lat="39.4264303" lon="8.5051844"><ele>88.0</ele><time>2026-04-22T09:26:49.33Z</time></trkpt><trkpt lat="39.4264193" lon="8.5052839"><ele>88.0</ele><time>2026-04-22T09:26:50.33Z</time></trkpt><trkpt lat="39.4264295" lon="8.5053874"><ele>88.0</ele><time>2026-04-22T09:26:51.33Z</time></trkpt><trkpt lat="39.4264564" lon="8.5054851"><ele>89.83333333333333</ele><time>2026-04-22T09:26:52.329Z</time></trkpt><trkpt lat="39.4264781" lon="8.5055771"><ele>91.66666666666666</ele><time>2026-04-22T09:26:53.33Z</time></trkpt><trkpt lat="39.4264887" lon="8.5056676"><ele>93.5</ele><time>2026-04-22T09:26:54.33Z</time></trkpt><trkpt lat="39.4264789" lon="8.5057597"><ele>95.33333333333333</ele><time>2026-04-22T09:26:55.329Z</time></trkpt><trkpt lat="39.4264533" lon="8.5058596"><ele>97.16666666666667</ele><time>2026-04-22T09:26:56.33Z</time></trkpt><trkpt lat="39.4264178" lon="8.5059533"><ele>99.0</ele><time>2026-04-22T09:26:57.33Z</time></trkpt><trkpt lat="39.4263811" lon="8.5060361"><ele>99.0</ele><time>2026-04-22T09:26:58.33Z</time></trkpt><trkpt lat="39.4263414" lon="8.5061132"><ele>99.0</ele><time>2026-04-22T09:26:59.329Z</time></trkpt><trkpt lat="39.4262914" lon="8.5061878"><ele>99.0</ele><time>2026-04-22T09:27:00.329Z</time></trkpt><trkpt lat="39.426227" lon="8.5062581"><ele>99.0</ele><time>2026-04-22T09:27:01.33Z</time></trkpt><trkpt lat="39.4261462" lon="8.5063223"><ele>99.0</ele><time>2026-04-22T09:27:02.329Z</time></trkpt><trkpt lat="39.4259844" lon="8.5064406"><ele>97.4</ele><time>2026-04-22T09:27:04.33Z</time></trkpt><trkpt lat="39.4259004" lon="8.5064848"><ele>95.80000000000001</ele><time>2026-04-22T09:27:05.329Z</time></trkpt><trkpt lat="39.4258096" lon="8.5065277"><ele>94.19999999999999</ele><time>2026-04-22T09:27:06.33Z</time></trkpt><trkpt lat="39.4257105" lon="8.506566"><ele>92.6</ele><time>2026-04-22T09:27:07.33Z</time></trkpt><trkpt lat="39.4256144" lon="8.5066048"><ele>91.0</ele><time>2026-04-22T09:27:08.329Z</time></trkpt><trkpt lat="39.42552" lon="8.5066407"><ele>89.66666666666666</ele><time>2026-04-22T09:27:09.33Z</time></trkpt><trkpt lat="39.4254324" lon="8.5066889"><ele>88.33333333333333</ele><time>2026-04-22T09:27:10.329Z</time></trkpt><trkpt lat="39.4253498" lon="8.5067419"><ele>87.0</ele><time>2026-04-22T09:27:11.329Z</time></trkpt><trkpt lat="39.4252813" lon="8.5067958"><ele>85.66666666666667</ele><time>2026-04-22T09:27:12.329Z</time></trkpt><trkpt lat="39.4252191" lon="8.506862"><ele>84.33333333333334</ele><time>2026-04-22T09:27:13.33Z</time></trkpt><trkpt lat="39.4251578" lon="8.5069162"><ele>83.0</ele><time>2026-04-22T09:27:14.33Z</time></trkpt><trkpt lat="39.4251067" lon="8.5069757"><ele>83.0</ele><time>2026-04-22T09:27:15.33Z</time></trkpt><trkpt lat="39.4250739" lon="8.5070502"><ele>83.0</ele><time>2026-04-22T09:27:16.329Z</time></trkpt><trkpt lat="39.4250548" lon="8.507135"><ele>83.0</ele><time>2026-04-22T09:27:17.33Z</time></trkpt><trkpt lat="39.4250524" lon="8.5072294"><ele>83.0</ele><time>2026-04-22T09:27:18.33Z</time></trkpt><trkpt lat="39.4250707" lon="8.5073301"><ele>83.0</ele><time>2026-04-22T09:27:19.33Z</time></trkpt><trkpt lat="39.4251033" lon="8.5074274"><ele>83.0</ele><time>2026-04-22T09:27:20.33Z</time></trkpt><trkpt lat="39.4251464" lon="8.5075111"><ele>83.0</ele><time>2026-04-22T09:27:21.329Z</time></trkpt><trkpt lat="39.4252049" lon="8.5075943"><ele>84.5</ele><time>2026-04-22T09:27:22.329Z</time></trkpt><trkpt lat="39.4252793" lon="8.5076752"><ele>86.0</ele><time>2026-04-22T09:27:23.33Z</time></trkpt><trkpt lat="39.4254324" lon="8.5078547"><ele>87.5</ele><time>2026-04-22T09:27:25.329Z</time></trkpt><trkpt lat="39.425501" lon="8.5079522"><ele>89.0</ele><time>2026-04-22T09:27:26.329Z</time></trkpt><trkpt lat="39.4255548" lon="8.5080662"><ele>90.33333333333334</ele><time>2026-04-22T09:27:27.33Z</time></trkpt><trkpt lat="39.425601" lon="8.50817"><ele>91.66666666666667</ele><time>2026-04-22T09:27:28.329Z</time></trkpt><trkpt lat="39.4256501" lon="8.5082636"><ele>93.0</ele><time>2026-04-22T09:27:29.33Z</time></trkpt><trkpt lat="39.4257067" lon="8.5083379"><ele>94.33333333333334</ele><time>2026-04-22T09:27:30.329Z</time></trkpt><trkpt lat="39.425762" lon="8.5084152"><ele>95.66666666666667</ele><time>2026-04-22T09:27:31.329Z</time></trkpt><trkpt lat="39.4258015" lon="8.5085072"><ele>97.0</ele><time>2026-04-22T09:27:32.329Z</time></trkpt><trkpt lat="39.425835" lon="8.5086142"><ele>97.00000000000001</ele><time>2026-04-22T09:27:33.33Z</time></trkpt><trkpt lat="39.4258692" lon="8.5087316"><ele>97.0</ele><time>2026-04-22T09:27:34.33Z</time></trkpt><trkpt lat="39.4258971" lon="8.5088447"><ele>97.0</ele><time>2026-04-22T09:27:35.33Z</time></trkpt><trkpt lat="39.4259246" lon="8.5089521"><ele>97.0</ele><time>2026-04-22T09:27:36.33Z</time></trkpt><trkpt lat="39.4259489" lon="8.509046"><ele>97.00000000000001</ele><time>2026-04-22T09:27:37.33Z</time></trkpt><trkpt lat="39.425961" lon="8.5091412"><ele>97.0</ele><time>2026-04-22T09:27:38.329Z</time></trkpt><trkpt lat="39.4259552" lon="8.5092444"><ele>96.39999999999999</ele><time>2026-04-22T09:27:39.329Z</time></trkpt><trkpt lat="39.4259411" lon="8.5093404"><ele>95.8</ele><time>2026-04-22T09:27:40.329Z</time></trkpt><trkpt lat="39.4259066" lon="8.5094483"><ele>95.2</ele><time>2026-04-22T09:27:41.33Z</time></trkpt><trkpt lat="39.4258654" lon="8.509561"><ele>94.6</ele><time>2026-04-22T09:27:42.33Z</time></trkpt><trkpt lat="39.4258182" lon="8.5096686"><ele>94.0</ele><time>2026-04-22T09:27:43.33Z</time></trkpt><trkpt lat="39.4257612" lon="8.5097714"><ele>94.0</ele><time>2026-04-22T09:27:44.329Z</time></trkpt><trkpt lat="39.4256302" lon="8.5099588"><ele>94.0</ele><time>2026-04-22T09:27:46.33Z</time></trkpt><trkpt lat="39.4255534" lon="8.5100277"><ele>94.0</ele><time>2026-04-22T09:27:47.33Z</time></trkpt><trkpt lat="39.4254802" lon="8.5100953"><ele>94.0</ele><time>2026-04-22T09:27:48.329Z</time></trkpt><trkpt lat="39.4254026" lon="8.5101392"><ele>93.0</ele><time>2026-04-22T09:27:49.33Z</time></trkpt><trkpt lat="39.4253217" lon="8.5101563"><ele>92.0</ele><time>2026-04-22T09:27:50.329Z</time></trkpt><trkpt lat="39.4252451" lon="8.5101478"><ele>91.0</ele><time>2026-04-22T09:27:51.33Z</time></trkpt><trkpt lat="39.4251836" lon="8.5101165"><ele>90.0</ele><time>2026-04-22T09:27:52.33Z</time></trkpt><trkpt lat="39.4251217" lon="8.5100868"><ele>89.0</ele><time>2026-04-22T09:27:53.329Z</time></trkpt><trkpt lat="39.4250602" lon="8.5100514"><ele>88.0</ele><time>2026-04-22T09:27:54.33Z</time></trkpt><trkpt lat="39.4249991" lon="8.5100013"><ele>87.0</ele><time>2026-04-22T09:27:55.33Z</time></trkpt><trkpt lat="39.4249483" lon="8.5099338"><ele>87.0</ele><time>2026-04-22T09:27:56.33Z</time></trkpt><trkpt lat="39.424895" lon="8.5098614"><ele>87.0</ele><time>2026-04-22T09:27:57.33Z</time></trkpt><trkpt lat="39.4248348" lon="8.509802"><ele>87.0</ele><time>2026-04-22T09:27:58.33Z</time></trkpt><trkpt lat="39.4247639" lon="8.5097455"><ele>87.0</ele><time>2026-04-22T09:27:59.329Z</time></trkpt><trkpt lat="39.4246816" lon="8.5096986"><ele>87.0</ele><time>2026-04-22T09:28:00.33Z</time></trkpt><trkpt lat="39.4245954" lon="8.5096669"><ele>87.0</ele><time>2026-04-22T09:28:01.329Z</time></trkpt><trkpt lat="39.4245027" lon="8.5096538"><ele>87.25</ele><time>2026-04-22T09:28:02.329Z</time></trkpt><trkpt lat="39.4244192" lon="8.5096576"><ele>87.5</ele><time>2026-04-22T09:28:03.33Z</time></trkpt><trkpt lat="39.4243496" lon="8.5096683"><ele>87.75</ele><time>2026-04-22T09:28:04.329Z</time></trkpt><trkpt lat="39.4242582" lon="8.5097439"><ele>88.0</ele><time>2026-04-22T09:28:06.33Z</time></trkpt><trkpt lat="39.4242596" lon="8.5100017"><ele>88.0</ele><time>2026-04-22T09:28:09.329Z</time></trkpt><trkpt lat="39.4242799" lon="8.5101188"><ele>88.0</ele><time>2026-04-22T09:28:10.33Z</time></trkpt><trkpt lat="39.424301" lon="8.5102471"><ele>88.0</ele><time>2026-04-22T09:28:11.33Z</time></trkpt><trkpt lat="39.4243261" lon="8.5103727"><ele>88.0</ele><time>2026-04-22T09:28:12.33Z</time></trkpt><trkpt lat="39.4243505" lon="8.5105001"><ele>88.0</ele><time>2026-04-22T09:28:13.33Z</time></trkpt><trkpt lat="39.4243769" lon="8.5106287"><ele>88.60000000000001</ele><time>2026-04-22T09:28:14.33Z</time></trkpt><trkpt lat="39.4244034" lon="8.5107504"><ele>89.2</ele><time>2026-04-22T09:28:15.33Z</time></trkpt><trkpt lat="39.4244226" lon="8.5108712"><ele>89.8</ele><time>2026-04-22T09:28:16.33Z</time></trkpt><trkpt lat="39.4244408" lon="8.5109844"><ele>90.4</ele><time>2026-04-22T09:28:17.33Z</time></trkpt><trkpt lat="39.4244549" lon="8.5110985"><ele>91.0</ele><time>2026-04-22T09:28:18.33Z</time></trkpt><trkpt lat="39.4244538" lon="8.5112076"><ele>91.33333333333333</ele><time>2026-04-22T09:28:19.33Z</time></trkpt><trkpt lat="39.4244427" lon="8.5113167"><ele>91.66666666666666</ele><time>2026-04-22T09:28:20.33Z</time></trkpt><trkpt lat="39.4244263" lon="8.5114321"><ele>92.0</ele><time>2026-04-22T09:28:21.33Z</time></trkpt><trkpt lat="39.4244059" lon="8.5115382"><ele>92.33333333333333</ele><time>2026-04-22T09:28:22.33Z</time></trkpt><trkpt lat="39.4243808" lon="8.511634"><ele>92.66666666666667</ele><time>2026-04-22T09:28:23.33Z</time></trkpt><trkpt lat="39.4243517" lon="8.5117304"><ele>93.0</ele><time>2026-04-22T09:28:24.329Z</time></trkpt><trkpt lat="39.4243116" lon="8.5118192"><ele>93.0</ele><time>2026-04-22T09:28:25.329Z</time></trkpt><trkpt lat="39.42426" lon="8.511887"><ele>93.0</ele><time>2026-04-22T09:28:26.328Z</time></trkpt><trkpt lat="39.4241974" lon="8.5119431"><ele>93.0</ele><time>2026-04-22T09:28:27.328Z</time></trkpt><trkpt lat="39.4240527" lon="8.5120091"><ele>93.0</ele><time>2026-04-22T09:28:29.328Z</time></trkpt><trkpt lat="39.4239837" lon="8.5120118"><ele>93.0</ele><time>2026-04-22T09:28:30.329Z</time></trkpt><trkpt lat="39.4239106" lon="8.5119897"><ele>93.0</ele><time>2026-04-22T09:28:31.328Z</time></trkpt><trkpt lat="39.4238365" lon="8.511961"><ele>92.83333333333333</ele><time>2026-04-22T09:28:32.329Z</time></trkpt><trkpt lat="39.4237563" lon="8.5119394"><ele>92.66666666666667</ele><time>2026-04-22T09:28:33.329Z</time></trkpt><trkpt lat="39.4236748" lon="8.5119299"><ele>92.5</ele><time>2026-04-22T09:28:34.329Z</time></trkpt><trkpt lat="39.4236042" lon="8.5119307"><ele>92.33333333333334</ele><time>2026-04-22T09:28:35.328Z</time></trkpt><trkpt lat="39.4235352" lon="8.5119457"><ele>92.16666666666667</ele><time>2026-04-22T09:28:36.329Z</time></trkpt><trkpt lat="39.4234716" lon="8.5119825"><ele>92.0</ele><time>2026-04-22T09:28:37.329Z</time></trkpt><trkpt lat="39.4234135" lon="8.5120502"><ele>93.19999999999999</ele><time>2026-04-22T09:28:38.328Z</time></trkpt><trkpt lat="39.4233635" lon="8.5121389"><ele>94.4</ele><time>2026-04-22T09:28:39.328Z</time></trkpt><trkpt lat="39.423317" lon="8.5122475"><ele>95.6</ele><time>2026-04-22T09:28:40.329Z</time></trkpt><trkpt lat="39.423267" lon="8.5123734"><ele>96.80000000000001</ele><time>2026-04-22T09:28:41.329Z</time></trkpt><trkpt lat="39.4232135" lon="8.5124978"><ele>98.0</ele><time>2026-04-22T09:28:42.329Z</time></trkpt><trkpt lat="39.4231613" lon="8.5126107"><ele>98.0</ele><time>2026-04-22T09:28:43.328Z</time></trkpt><trkpt lat="39.4230984" lon="8.5127187"><ele>98.0</ele><time>2026-04-22T09:28:44.329Z</time></trkpt><trkpt lat="39.4230355" lon="8.5128257"><ele>98.0</ele><time>2026-04-22T09:28:45.329Z</time></trkpt><trkpt lat="39.4229772" lon="8.5129253"><ele>98.0</ele><time>2026-04-22T09:28:46.329Z</time></trkpt><trkpt lat="39.4229313" lon="8.5130248"><ele>98.0</ele><time>2026-04-22T09:28:47.328Z</time></trkpt><trkpt lat="39.4228951" lon="8.5131192"><ele>97.4</ele><time>2026-04-22T09:28:48.329Z</time></trkpt><trkpt lat="39.4228073" lon="8.5132995"><ele>96.80000000000001</ele><time>2026-04-22T09:28:50.328Z</time></trkpt><trkpt lat="39.4227499" lon="8.5133815"><ele>96.2</ele><time>2026-04-22T09:28:51.329Z</time></trkpt><trkpt lat="39.4226788" lon="8.5134567"><ele>95.6</ele><time>2026-04-22T09:28:52.329Z</time></trkpt><trkpt lat="39.4225865" lon="8.5135132"><ele>95.0</ele><time>2026-04-22T09:28:53.329Z</time></trkpt><trkpt lat="39.4224881" lon="8.5135588"><ele>95.0</ele><time>2026-04-22T09:28:54.329Z</time></trkpt><trkpt lat="39.4223892" lon="8.513602"><ele>95.0</ele><time>2026-04-22T09:28:55.329Z</time></trkpt><trkpt lat="39.4222965" lon="8.513638"><ele>95.0</ele><time>2026-04-22T09:28:56.328Z</time></trkpt><trkpt lat="39.4222162" lon="8.5136788"><ele>95.0</ele><time>2026-04-22T09:28:57.329Z</time></trkpt><trkpt lat="39.4221584" lon="8.5137319"><ele>95.0</ele><time>2026-04-22T09:28:58.329Z</time></trkpt><trkpt lat="39.4221176" lon="8.5138567"><ele>97.0</ele><time>2026-04-22T09:29:00.328Z</time></trkpt><trkpt lat="39.4221318" lon="8.5139743"><ele>99.0</ele><time>2026-04-22T09:29:02.328Z</time></trkpt><trkpt lat="39.4221531" lon="8.5141065"><ele>101.0</ele><time>2026-04-22T09:29:04.329Z</time></trkpt><trkpt lat="39.4221829" lon="8.5142431"><ele>103.0</ele><time>2026-04-22T09:29:06.328Z</time></trkpt><trkpt lat="39.422244" lon="8.5144381"><ele>102.83333333333334</ele><time>2026-04-22T09:29:09.328Z</time></trkpt><trkpt lat="39.4223315" lon="8.5146217"><ele>102.66666666666667</ele><time>2026-04-22T09:29:13.329Z</time></trkpt><trkpt lat="39.4223735" lon="8.5146871"><ele>102.5</ele><time>2026-04-22T09:29:15.328Z</time></trkpt><trkpt lat="39.4224127" lon="8.5147536"><ele>102.33333333333334</ele><time>2026-04-22T09:29:17.328Z</time></trkpt><trkpt lat="39.4224743" lon="8.5147849"><ele>102.16666666666667</ele><time>2026-04-22T09:29:21.329Z</time></trkpt><trkpt lat="39.4224209" lon="8.5147143"><ele>102.0</ele><time>2026-04-22T09:29:29.329Z</time></trkpt><trkpt lat="39.4223497" lon="8.5146209"><ele>102.25</ele><time>2026-04-22T09:29:31.329Z</time></trkpt><trkpt lat="39.422236" lon="8.5144169"><ele>102.5</ele><time>2026-04-22T09:29:34.329Z</time></trkpt><trkpt lat="39.4222003" lon="8.514339"><ele>102.75</ele><time>2026-04-22T09:29:35.328Z</time></trkpt><trkpt lat="39.4221623" lon="8.5141963"><ele>103.0</ele><time>2026-04-22T09:29:37.328Z</time></trkpt><trkpt lat="39.4221453" lon="8.5140653"><ele>103.00000000000001</ele><time>2026-04-22T09:29:39.329Z</time></trkpt><trkpt lat="39.4221414" lon="8.5139379"><ele>103.0</ele><time>2026-04-22T09:29:41.328Z</time></trkpt><trkpt lat="39.4221526" lon="8.5138339"><ele>103.0</ele><time>2026-04-22T09:29:43.329Z</time></trkpt><trkpt lat="39.4221789" lon="8.5137313"><ele>103.0</ele><time>2026-04-22T09:29:46.329Z</time></trkpt><trkpt lat="39.4221485" lon="8.5136492"><ele>103.00000000000001</ele><time>2026-04-22T09:29:50.329Z</time></trkpt><trkpt lat="39.4220779" lon="8.513592"><ele>103.0</ele><time>2026-04-22T09:29:53.329Z</time></trkpt><trkpt lat="39.421954" lon="8.5134733"><ele>102.4</ele><time>2026-04-22T09:29:57.329Z</time></trkpt><trkpt lat="39.4219237" lon="8.5133313"><ele>101.80000000000001</ele><time>2026-04-22T09:30:09.329Z</time></trkpt><trkpt lat="39.4218834" lon="8.5131928"><ele>101.2</ele><time>2026-04-22T09:30:11.329Z</time></trkpt><trkpt lat="39.4218556" lon="8.5131176"><ele>100.6</ele><time>2026-04-22T09:30:12.329Z</time></trkpt><trkpt lat="39.421763" lon="8.5130179"><ele>100.0</ele><time>2026-04-22T09:30:14.329Z</time></trkpt><trkpt lat="39.4216287" lon="8.5130068"><ele>100.00000000000001</ele><time>2026-04-22T09:30:16.328Z</time></trkpt><trkpt lat="39.4215558" lon="8.5130516"><ele>100.0</ele><time>2026-04-22T09:30:17.329Z</time></trkpt><trkpt lat="39.4214835" lon="8.5131156"><ele>100.0</ele><time>2026-04-22T09:30:18.328Z</time></trkpt><trkpt lat="39.4214093" lon="8.5131725"><ele>100.0</ele><time>2026-04-22T09:30:19.328Z</time></trkpt><trkpt lat="39.4213285" lon="8.5132106"><ele>100.00000000000001</ele><time>2026-04-22T09:30:20.329Z</time></trkpt><trkpt lat="39.4212472" lon="8.5132442"><ele>100.0</ele><time>2026-04-22T09:30:21.329Z</time></trkpt><trkpt lat="39.4211635" lon="8.513287"><ele>101.16666666666667</ele><time>2026-04-22T09:30:22.329Z</time></trkpt><trkpt lat="39.4210811" lon="8.5133328"><ele>102.33333333333334</ele><time>2026-04-22T09:30:23.329Z</time></trkpt><trkpt lat="39.4210051" lon="8.5133776"><ele>103.5</ele><time>2026-04-22T09:30:24.329Z</time></trkpt><trkpt lat="39.4209346" lon="8.5134103"><ele>104.66666666666666</ele><time>2026-04-22T09:30:25.329Z</time></trkpt><trkpt lat="39.4208619" lon="8.5134382"><ele>105.83333333333333</ele><time>2026-04-22T09:30:26.329Z</time></trkpt><trkpt lat="39.4207797" lon="8.5134716"><ele>107.0</ele><time>2026-04-22T09:30:27.329Z</time></trkpt><trkpt lat="39.4206851" lon="8.5135091"><ele>106.99999999999999</ele><time>2026-04-22T09:30:28.329Z</time></trkpt><trkpt lat="39.4205886" lon="8.5135495"><ele>107.0</ele><time>2026-04-22T09:30:29.329Z</time></trkpt><trkpt lat="39.4205043" lon="8.5135872"><ele>107.0</ele><time>2026-04-22T09:30:30.329Z</time></trkpt><trkpt lat="39.4204317" lon="8.5136205"><ele>107.0</ele><time>2026-04-22T09:30:31.329Z</time></trkpt><trkpt lat="39.4203631" lon="8.5136536"><ele>106.99999999999999</ele><time>2026-04-22T09:30:32.329Z</time></trkpt><trkpt lat="39.4202961" lon="8.5136888"><ele>107.0</ele><time>2026-04-22T09:30:33.329Z</time></trkpt><trkpt lat="39.4202232" lon="8.5137363"><ele>111.0</ele><time>2026-04-22T09:30:34.328Z</time></trkpt><trkpt lat="39.4201508" lon="8.5137879"><ele>114.99999999999999</ele><time>2026-04-22T09:30:35.329Z</time></trkpt><trkpt lat="39.4200207" lon="8.5139023"><ele>118.99999999999999</ele><time>2026-04-22T09:30:37.329Z</time></trkpt><trkpt lat="39.4199698" lon="8.5139602"><ele>123.0</ele><time>2026-04-22T09:30:38.329Z</time></trkpt><trkpt lat="39.4199025" lon="8.5140984"><ele>127.0</ele><time>2026-04-22T09:30:40.329Z</time></trkpt><trkpt lat="39.4198723" lon="8.5141785"><ele>127.0</ele><time>2026-04-22T09:30:41.328Z</time></trkpt><trkpt lat="39.4198348" lon="8.5142483"><ele>127.0</ele><time>2026-04-22T09:30:42.328Z</time></trkpt><trkpt lat="39.4197954" lon="8.514313"><ele>127.0</ele><time>2026-04-22T09:30:43.329Z</time></trkpt><trkpt lat="39.419755" lon="8.5143791"><ele>127.0</ele><time>2026-04-22T09:30:44.329Z</time></trkpt><trkpt lat="39.4197123" lon="8.5144472"><ele>127.0</ele><time>2026-04-22T09:30:45.328Z</time></trkpt><trkpt lat="39.4196713" lon="8.5145232"><ele>127.0</ele><time>2026-04-22T09:30:46.328Z</time></trkpt><trkpt lat="39.4196261" lon="8.5145981"><ele>127.0</ele><time>2026-04-22T09:30:47.329Z</time></trkpt><trkpt lat="39.4195803" lon="8.5146814"><ele>127.14285714285714</ele><time>2026-04-22T09:30:48.328Z</time></trkpt><trkpt lat="39.4195326" lon="8.5147724"><ele>127.28571428571428</ele><time>2026-04-22T09:30:49.328Z</time></trkpt><trkpt lat="39.4194901" lon="8.5148604"><ele>127.42857142857142</ele><time>2026-04-22T09:30:50.328Z</time></trkpt><trkpt lat="39.419444" lon="8.5149419"><ele>127.57142857142857</ele><time>2026-04-22T09:30:51.329Z</time></trkpt><trkpt lat="39.4193991" lon="8.5150087"><ele>127.7142857142857</ele><time>2026-04-22T09:30:52.328Z</time></trkpt><trkpt lat="39.4193556" lon="8.5150693"><ele>127.85714285714285</ele><time>2026-04-22T09:30:53.329Z</time></trkpt><trkpt lat="39.4193146" lon="8.5151366"><ele>128.0</ele><time>2026-04-22T09:30:54.329Z</time></trkpt><trkpt lat="39.4192757" lon="8.5152181"><ele>128.0</ele><time>2026-04-22T09:30:55.328Z</time></trkpt><trkpt lat="39.4192398" lon="8.5152956"><ele>128.0</ele><time>2026-04-22T09:30:56.329Z</time></trkpt><trkpt lat="39.4191807" lon="8.5155548"><ele>128.0</ele><time>2026-04-22T09:31:00.329Z</time></trkpt><trkpt lat="39.4191797" lon="8.515685"><ele>128.0</ele><time>2026-04-22T09:31:02.329Z</time></trkpt><trkpt lat="39.4191835" lon="8.5158037"><ele>129.8</ele><time>2026-04-22T09:31:04.329Z</time></trkpt><trkpt lat="39.4191891" lon="8.515918"><ele>131.60000000000002</ele><time>2026-04-22T09:31:06.328Z</time></trkpt><trkpt lat="39.4191948" lon="8.5160289"><ele>133.39999999999998</ele><time>2026-04-22T09:31:08.329Z</time></trkpt><trkpt lat="39.4191827" lon="8.5161626"><ele>135.2</ele><time>2026-04-22T09:31:10.328Z</time></trkpt><trkpt lat="39.4191549" lon="8.516269"><ele>137.0</ele><time>2026-04-22T09:31:12.329Z</time></trkpt><trkpt lat="39.4190892" lon="8.5163477"><ele>137.5</ele><time>2026-04-22T09:31:14.328Z</time></trkpt><trkpt lat="39.4190233" lon="8.5164419"><ele>138.0</ele><time>2026-04-22T09:31:16.328Z</time></trkpt><trkpt lat="39.4189809" lon="8.5165659"><ele>138.5</ele><time>2026-04-22T09:31:18.328Z</time></trkpt><trkpt lat="39.4189493" lon="8.516788"><ele>139.0</ele><time>2026-04-22T09:31:22.329Z</time></trkpt><trkpt lat="39.4189509" lon="8.516885"><ele>139.0</ele><time>2026-04-22T09:31:24.329Z</time></trkpt><trkpt lat="39.418955" lon="8.5169816"><ele>139.0</ele><time>2026-04-22T09:31:28.329Z</time></trkpt><trkpt lat="39.4189628" lon="8.5170836"><ele>139.0</ele><time>2026-04-22T09:31:31.329Z</time></trkpt><trkpt lat="39.4189428" lon="8.5171663"><ele>139.0</ele><time>2026-04-22T09:31:33.329Z</time></trkpt><trkpt lat="39.4188851" lon="8.5172448"><ele>139.0</ele><time>2026-04-22T09:31:35.329Z</time></trkpt><trkpt lat="39.4187622" lon="8.5172804"><ele>139.0</ele><time>2026-04-22T09:31:37.329Z</time></trkpt><trkpt lat="39.4186953" lon="8.5172966"><ele>138.4</ele><time>2026-04-22T09:31:38.329Z</time></trkpt><trkpt lat="39.4186275" lon="8.5173189"><ele>137.8</ele><time>2026-04-22T09:31:39.329Z</time></trkpt><trkpt lat="39.4185185" lon="8.5174119"><ele>137.2</ele><time>2026-04-22T09:31:41.329Z</time></trkpt><trkpt lat="39.4184565" lon="8.5175452"><ele>136.6</ele><time>2026-04-22T09:31:43.328Z</time></trkpt><trkpt lat="39.4184178" lon="8.5176124"><ele>136.0</ele><time>2026-04-22T09:31:44.328Z</time></trkpt><trkpt lat="39.4183687" lon="8.5176823"><ele>136.0</ele><time>2026-04-22T09:31:45.329Z</time></trkpt><trkpt lat="39.4183285" lon="8.5177544"><ele>136.0</ele><time>2026-04-22T09:31:46.329Z</time></trkpt><trkpt lat="39.4183119" lon="8.517906"><ele>136.0</ele><time>2026-04-22T09:31:48.329Z</time></trkpt><trkpt lat="39.4183418" lon="8.5180584"><ele>136.0</ele><time>2026-04-22T09:31:50.328Z</time></trkpt><trkpt lat="39.4183584" lon="8.518143"><ele>136.0</ele><time>2026-04-22T09:31:51.329Z</time></trkpt><trkpt lat="39.4183746" lon="8.5182321"><ele>136.0</ele><time>2026-04-22T09:31:52.328Z</time></trkpt><trkpt lat="39.4183837" lon="8.5183239"><ele>136.0</ele><time>2026-04-22T09:31:53.329Z</time></trkpt><trkpt lat="39.4183803" lon="8.5184083"><ele>136.0</ele><time>2026-04-22T09:31:54.329Z</time></trkpt><trkpt lat="39.4183701" lon="8.5184907"><ele>136.0</ele><time>2026-04-22T09:31:55.328Z</time></trkpt><trkpt lat="39.418324" lon="8.51863"><ele>136.0</ele><time>2026-04-22T09:31:57.329Z</time></trkpt><trkpt lat="39.4182939" lon="8.51872"><ele>136.0</ele><time>2026-04-22T09:31:59.328Z</time></trkpt><trkpt lat="39.4183055" lon="8.5188333"><ele>136.0</ele><time>2026-04-22T09:32:01.329Z</time></trkpt><trkpt lat="39.4182647" lon="8.519015"><ele>136.16666666666669</ele><time>2026-04-22T09:32:05.328Z</time></trkpt><trkpt lat="39.4181834" lon="8.5190102"><ele>136.33333333333334</ele><time>2026-04-22T09:32:07.329Z</time></trkpt><trkpt lat="39.4180772" lon="8.5189603"><ele>136.5</ele><time>2026-04-22T09:32:09.329Z</time></trkpt><trkpt lat="39.4179933" lon="8.5189267"><ele>136.66666666666666</ele><time>2026-04-22T09:32:11.329Z</time></trkpt><trkpt lat="39.4179478" lon="8.5190265"><ele>136.83333333333331</ele><time>2026-04-22T09:32:14.329Z</time></trkpt><trkpt lat="39.4179673" lon="8.5191167"><ele>137.0</ele><time>2026-04-22T09:32:16.328Z</time></trkpt><trkpt lat="39.4179379" lon="8.5192096"><ele>134.75</ele><time>2026-04-22T09:32:19.329Z</time></trkpt><trkpt lat="39.4178664" lon="8.5191884"><ele>132.5</ele><time>2026-04-22T09:32:22.329Z</time></trkpt><trkpt lat="39.4177218" lon="8.5190585"><ele>130.25</ele><time>2026-04-22T09:32:27.328Z</time></trkpt><trkpt lat="39.4176182" lon="8.519004"><ele>128.0</ele><time>2026-04-22T09:32:29.328Z</time></trkpt><trkpt lat="39.4175156" lon="8.5189635"><ele>127.99999999999999</ele><time>2026-04-22T09:32:31.329Z</time></trkpt><trkpt lat="39.4174202" lon="8.5189452"><ele>128.0</ele><time>2026-04-22T09:32:33.329Z</time></trkpt><trkpt lat="39.4173273" lon="8.5189966"><ele>128.0</ele><time>2026-04-22T09:32:35.328Z</time></trkpt><trkpt lat="39.4172761" lon="8.5190468"><ele>128.0</ele><time>2026-04-22T09:32:36.328Z</time></trkpt><trkpt lat="39.4172165" lon="8.5191062"><ele>127.99999999999999</ele><time>2026-04-22T09:32:37.328Z</time></trkpt><trkpt lat="39.417153" lon="8.5191602"><ele>128.0</ele><time>2026-04-22T09:32:38.329Z</time></trkpt><trkpt lat="39.4170883" lon="8.5192199"><ele>127.83333333333333</ele><time>2026-04-22T09:32:39.329Z</time></trkpt><trkpt lat="39.417026" lon="8.5192772"><ele>127.66666666666666</ele><time>2026-04-22T09:32:40.328Z</time></trkpt><trkpt lat="39.4169682" lon="8.5193362"><ele>127.5</ele><time>2026-04-22T09:32:41.328Z</time></trkpt><trkpt lat="39.4169164" lon="8.5193986"><ele>127.33333333333334</ele><time>2026-04-22T09:32:42.329Z</time></trkpt><trkpt lat="39.4168753" lon="8.5194718"><ele>127.16666666666667</ele><time>2026-04-22T09:32:43.328Z</time></trkpt><trkpt lat="39.4168195" lon="8.5196589"><ele>127.0</ele><time>2026-04-22T09:32:45.328Z</time></trkpt><trkpt lat="39.4167915" lon="8.519771"><ele>127.00000000000001</ele><time>2026-04-22T09:32:46.328Z</time></trkpt><trkpt lat="39.416755" lon="8.5198784"><ele>127.0</ele><time>2026-04-22T09:32:47.328Z</time></trkpt><trkpt lat="39.4167178" lon="8.5199667"><ele>127.0</ele><time>2026-04-22T09:32:48.329Z</time></trkpt><trkpt lat="39.4166565" lon="8.5201057"><ele>127.0</ele><time>2026-04-22T09:32:50.329Z</time></trkpt><trkpt lat="39.4166306" lon="8.5201873"><ele>127.00000000000001</ele><time>2026-04-22T09:32:51.329Z</time></trkpt><trkpt lat="39.4166138" lon="8.5202887"><ele>127.0</ele><time>2026-04-22T09:32:52.329Z</time></trkpt><trkpt lat="39.4166045" lon="8.5203963"><ele>127.16666666666667</ele><time>2026-04-22T09:32:53.329Z</time></trkpt><trkpt lat="39.4165851" lon="8.5204944"><ele>127.33333333333334</ele><time>2026-04-22T09:32:54.328Z</time></trkpt><trkpt lat="39.4165568" lon="8.520581"><ele>127.5</ele><time>2026-04-22T09:32:55.329Z</time></trkpt><trkpt lat="39.4165175" lon="8.5206574"><ele>127.66666666666666</ele><time>2026-04-22T09:32:56.329Z</time></trkpt><trkpt lat="39.4164536" lon="8.5207459"><ele>127.83333333333333</ele><time>2026-04-22T09:32:57.329Z</time></trkpt><trkpt lat="39.4163828" lon="8.5208354"><ele>128.0</ele><time>2026-04-22T09:32:58.329Z</time></trkpt><trkpt lat="39.4163128" lon="8.5209166"><ele>127.99999999999999</ele><time>2026-04-22T09:32:59.328Z</time></trkpt><trkpt lat="39.4162383" lon="8.5209928"><ele>128.0</ele><time>2026-04-22T09:33:00.329Z</time></trkpt><trkpt lat="39.4161669" lon="8.5210493"><ele>128.0</ele><time>2026-04-22T09:33:01.329Z</time></trkpt><trkpt lat="39.4160961" lon="8.5211023"><ele>128.0</ele><time>2026-04-22T09:33:02.329Z</time></trkpt><trkpt lat="39.416027" lon="8.5211514"><ele>127.99999999999999</ele><time>2026-04-22T09:33:03.328Z</time></trkpt><trkpt lat="39.4159558" lon="8.5212076"><ele>128.0</ele><time>2026-04-22T09:33:04.328Z</time></trkpt><trkpt lat="39.4158032" lon="8.5213117"><ele>129.0</ele><time>2026-04-22T09:33:06.328Z</time></trkpt><trkpt lat="39.4157205" lon="8.5213502"><ele>130.0</ele><time>2026-04-22T09:33:07.328Z</time></trkpt><trkpt lat="39.4156444" lon="8.5213859"><ele>131.0</ele><time>2026-04-22T09:33:08.329Z</time></trkpt><trkpt lat="39.4155831" lon="8.5214249"><ele>132.0</ele><time>2026-04-22T09:33:09.328Z</time></trkpt><trkpt lat="39.4154991" lon="8.521527"><ele>133.0</ele><time>2026-04-22T09:33:11.329Z</time></trkpt><trkpt lat="39.4154749" lon="8.5216109"><ele>134.0</ele><time>2026-04-22T09:33:12.329Z</time></trkpt><trkpt lat="39.4154638" lon="8.5217216"><ele>134.0</ele><time>2026-04-22T09:33:13.328Z</time></trkpt><trkpt lat="39.4154544" lon="8.5218462"><ele>134.0</ele><time>2026-04-22T09:33:14.329Z</time></trkpt><trkpt lat="39.4154426" lon="8.5219642"><ele>134.0</ele><time>2026-04-22T09:33:15.329Z</time></trkpt><trkpt lat="39.415422" lon="8.5220669"><ele>134.0</ele><time>2026-04-22T09:33:16.329Z</time></trkpt><trkpt lat="39.4154014" lon="8.5221657"><ele>134.0</ele><time>2026-04-22T09:33:17.328Z</time></trkpt><trkpt lat="39.4153913" lon="8.5222748"><ele>134.0</ele><time>2026-04-22T09:33:18.329Z</time></trkpt><trkpt lat="39.4153922" lon="8.5223945"><ele>135.5</ele><time>2026-04-22T09:33:19.328Z</time></trkpt><trkpt lat="39.4153877" lon="8.5225202"><ele>137.0</ele><time>2026-04-22T09:33:20.328Z</time></trkpt><trkpt lat="39.415382" lon="8.5226411"><ele>138.5</ele><time>2026-04-22T09:33:21.328Z</time></trkpt><trkpt lat="39.4153747" lon="8.5227515"><ele>140.0</ele><time>2026-04-22T09:33:22.329Z</time></trkpt><trkpt lat="39.4153594" lon="8.5228514"><ele>141.5</ele><time>2026-04-22T09:33:23.329Z</time></trkpt><trkpt lat="39.4153397" lon="8.5229504"><ele>143.0</ele><time>2026-04-22T09:33:24.328Z</time></trkpt><trkpt lat="39.41532" lon="8.523042"><ele>143.0</ele><time>2026-04-22T09:33:25.329Z</time></trkpt><trkpt lat="39.4152371" lon="8.5232163"><ele>143.0</ele><time>2026-04-22T09:33:30.328Z</time></trkpt><trkpt lat="39.4151633" lon="8.5231506"><ele>143.0</ele><time>2026-04-22T09:33:32.329Z</time></trkpt><trkpt lat="39.415145" lon="8.5229985"><ele>143.0</ele><time>2026-04-22T09:33:34.329Z</time></trkpt><trkpt lat="39.4151662" lon="8.522901"><ele>143.0</ele><time>2026-04-22T09:33:35.329Z</time></trkpt><trkpt lat="39.4151925" lon="8.5227904"><ele>143.16666666666666</ele><time>2026-04-22T09:33:36.329Z</time></trkpt><trkpt lat="39.4152073" lon="8.5226805"><ele>143.33333333333331</ele><time>2026-04-22T09:33:37.329Z</time></trkpt><trkpt lat="39.4152093" lon="8.5225666"><ele>143.5</ele><time>2026-04-22T09:33:38.329Z</time></trkpt><trkpt lat="39.4152093" lon="8.5224536"><ele>143.66666666666666</ele><time>2026-04-22T09:33:39.329Z</time></trkpt><trkpt lat="39.4152064" lon="8.5223466"><ele>143.83333333333334</ele><time>2026-04-22T09:33:40.329Z</time></trkpt><trkpt lat="39.4151985" lon="8.5222432"><ele>144.0</ele><time>2026-04-22T09:33:41.328Z</time></trkpt><trkpt lat="39.4151855" lon="8.5221388"><ele>141.5</ele><time>2026-04-22T09:33:42.329Z</time></trkpt><trkpt lat="39.4151782" lon="8.5220405"><ele>139.0</ele><time>2026-04-22T09:33:43.329Z</time></trkpt><trkpt lat="39.415186" lon="8.5218908"><ele>136.5</ele><time>2026-04-22T09:33:45.329Z</time></trkpt><trkpt lat="39.4151719" lon="8.5217695"><ele>134.0</ele><time>2026-04-22T09:33:47.328Z</time></trkpt><trkpt lat="39.4149584" lon="8.5217143"><ele>134.0</ele><time>2026-04-22T09:33:51.328Z</time></trkpt><trkpt lat="39.4148754" lon="8.5217349"><ele>134.0</ele><time>2026-04-22T09:33:52.329Z</time></trkpt><trkpt lat="39.4147885" lon="8.5217525"><ele>134.0</ele><time>2026-04-22T09:33:53.329Z</time></trkpt><trkpt lat="39.4147031" lon="8.5217603"><ele>134.0</ele><time>2026-04-22T09:33:54.329Z</time></trkpt><trkpt lat="39.4146268" lon="8.5217649"><ele>134.0</ele><time>2026-04-22T09:33:55.329Z</time></trkpt><trkpt lat="39.4145602" lon="8.521777"><ele>134.0</ele><time>2026-04-22T09:33:56.329Z</time></trkpt><trkpt lat="39.4145023" lon="8.5218102"><ele>136.16666666666666</ele><time>2026-04-22T09:33:57.328Z</time></trkpt><trkpt lat="39.4144476" lon="8.5218617"><ele>138.33333333333331</ele><time>2026-04-22T09:33:58.329Z</time></trkpt><trkpt lat="39.4143907" lon="8.5219278"><ele>140.5</ele><time>2026-04-22T09:33:59.329Z</time></trkpt><trkpt lat="39.4143291" lon="8.5219883"><ele>142.66666666666666</ele><time>2026-04-22T09:34:00.329Z</time></trkpt><trkpt lat="39.4142714" lon="8.5220333"><ele>144.83333333333334</ele><time>2026-04-22T09:34:01.329Z</time></trkpt><trkpt lat="39.4141676" lon="8.5220853"><ele>147.0</ele><time>2026-04-22T09:34:03.328Z</time></trkpt><trkpt lat="39.4141069" lon="8.5220345"><ele>147.0</ele><time>2026-04-22T09:34:05.329Z</time></trkpt><trkpt lat="39.4141089" lon="8.5218799"><ele>147.0</ele><time>2026-04-22T09:34:07.328Z</time></trkpt><trkpt lat="39.4141333" lon="8.521786"><ele>147.0</ele><time>2026-04-22T09:34:08.329Z</time></trkpt><trkpt lat="39.4141815" lon="8.5216111"><ele>147.0</ele><time>2026-04-22T09:34:10.328Z</time></trkpt><trkpt lat="39.4141586" lon="8.5214855"><ele>147.0</ele><time>2026-04-22T09:34:12.329Z</time></trkpt><trkpt lat="39.4140616" lon="8.5213872"><ele>147.0</ele><time>2026-04-22T09:34:14.328Z</time></trkpt><trkpt lat="39.4139972" lon="8.521264"><ele>147.0</ele><time>2026-04-22T09:34:16.329Z</time></trkpt><trkpt lat="39.4139812" lon="8.5211818"><ele>147.0</ele><time>2026-04-22T09:34:17.329Z</time></trkpt><trkpt lat="39.4139778" lon="8.5210875"><ele>147.0</ele><time>2026-04-22T09:34:18.328Z</time></trkpt><trkpt lat="39.4139829" lon="8.5209844"><ele>147.0</ele><time>2026-04-22T09:34:19.329Z</time></trkpt><trkpt lat="39.4139901" lon="8.5208907"><ele>147.0</ele><time>2026-04-22T09:34:20.329Z</time></trkpt><trkpt lat="39.4140014" lon="8.5208078"><ele>146.79999999999998</ele><time>2026-04-22T09:34:21.329Z</time></trkpt><trkpt lat="39.4140143" lon="8.5206635"><ele>146.6</ele><time>2026-04-22T09:34:23.329Z</time></trkpt><trkpt lat="39.4139824" lon="8.5205344"><ele>146.39999999999998</ele><time>2026-04-22T09:34:25.329Z</time></trkpt><trkpt lat="39.4138704" lon="8.5204366"><ele>146.2</ele><time>2026-04-22T09:34:27.329Z</time></trkpt><trkpt lat="39.4138042" lon="8.520396"><ele>146.0</ele><time>2026-04-22T09:34:28.329Z</time></trkpt><trkpt lat="39.4137453" lon="8.5203638"><ele>149.75</ele><time>2026-04-22T09:34:29.329Z</time></trkpt><trkpt lat="39.4135298" lon="8.5204291"><ele>153.5</ele><time>2026-04-22T09:34:33.328Z</time></trkpt><trkpt lat="39.4134742" lon="8.5204972"><ele>157.25</ele><time>2026-04-22T09:34:34.328Z</time></trkpt><trkpt lat="39.413416" lon="8.5205669"><ele>161.0</ele><time>2026-04-22T09:34:35.329Z</time></trkpt><trkpt lat="39.4133556" lon="8.5206308"><ele>161.0</ele><time>2026-04-22T09:34:36.329Z</time></trkpt><trkpt lat="39.4132609" lon="8.5207209"><ele>161.0</ele><time>2026-04-22T09:34:38.329Z</time></trkpt><trkpt lat="39.4132098" lon="8.5207687"><ele>161.0</ele><time>2026-04-22T09:34:39.329Z</time></trkpt><trkpt lat="39.413149" lon="8.5208285"><ele>161.0</ele><time>2026-04-22T09:34:40.329Z</time></trkpt><trkpt lat="39.4130776" lon="8.520893"><ele>161.0</ele><time>2026-04-22T09:34:41.329Z</time></trkpt><trkpt lat="39.4129992" lon="8.5209565"><ele>161.0</ele><time>2026-04-22T09:34:42.329Z</time></trkpt><trkpt lat="39.4129265" lon="8.5210282"><ele>162.60000000000002</ele><time>2026-04-22T09:34:43.328Z</time></trkpt><trkpt lat="39.4128535" lon="8.5211212"><ele>164.2</ele><time>2026-04-22T09:34:44.329Z</time></trkpt><trkpt lat="39.4127766" lon="8.521218"><ele>165.8</ele><time>2026-04-22T09:34:45.329Z</time></trkpt><trkpt lat="39.4126995" lon="8.5213089"><ele>167.39999999999998</ele><time>2026-04-22T09:34:46.329Z</time></trkpt><trkpt lat="39.4126224" lon="8.5213899"><ele>169.0</ele><time>2026-04-22T09:34:47.329Z</time></trkpt><trkpt lat="39.4125523" lon="8.5214642"><ele>169.0</ele><time>2026-04-22T09:34:48.329Z</time></trkpt><trkpt lat="39.4124884" lon="8.521544"><ele>169.0</ele><time>2026-04-22T09:34:49.328Z</time></trkpt><trkpt lat="39.4124284" lon="8.5216261"><ele>169.0</ele><time>2026-04-22T09:34:50.329Z</time></trkpt><trkpt lat="39.4123122" lon="8.5217387"><ele>169.0</ele><time>2026-04-22T09:34:52.329Z</time></trkpt><trkpt lat="39.412249" lon="8.5217681"><ele>169.0</ele><time>2026-04-22T09:34:53.328Z</time></trkpt><trkpt lat="39.4121776" lon="8.5217839"><ele>167.5</ele><time>2026-04-22T09:34:54.328Z</time></trkpt><trkpt lat="39.4121133" lon="8.5217964"><ele>166.0</ele><time>2026-04-22T09:34:55.329Z</time></trkpt><trkpt lat="39.4120515" lon="8.5218121"><ele>164.5</ele><time>2026-04-22T09:34:56.329Z</time></trkpt><trkpt lat="39.4119957" lon="8.5218556"><ele>163.0</ele><time>2026-04-22T09:34:57.328Z</time></trkpt><trkpt lat="39.4119467" lon="8.5219109"><ele>161.5</ele><time>2026-04-22T09:34:58.329Z</time></trkpt><trkpt lat="39.4118522" lon="8.521948"><ele>160.0</ele><time>2026-04-22T09:35:00.328Z</time></trkpt><trkpt lat="39.4117266" lon="8.5218958"><ele>160.0</ele><time>2026-04-22T09:35:02.328Z</time></trkpt><trkpt lat="39.4116559" lon="8.5218886"><ele>160.0</ele><time>2026-04-22T09:35:03.329Z</time></trkpt><trkpt lat="39.4115793" lon="8.5218998"><ele>160.0</ele><time>2026-04-22T09:35:04.329Z</time></trkpt><trkpt lat="39.4115078" lon="8.5219223"><ele>160.0</ele><time>2026-04-22T09:35:05.328Z</time></trkpt><trkpt lat="39.411409" lon="8.5219886"><ele>160.0</ele><time>2026-04-22T09:35:07.329Z</time></trkpt><trkpt lat="39.4113767" lon="8.5221315"><ele>160.0</ele><time>2026-04-22T09:35:09.329Z</time></trkpt><trkpt lat="39.4113841" lon="8.5222213"><ele>162.5</ele><time>2026-04-22T09:35:10.329Z</time></trkpt><trkpt lat="39.4114009" lon="8.5223184"><ele>165.0</ele><time>2026-04-22T09:35:11.329Z</time></trkpt><trkpt lat="39.4114482" lon="8.5225009"><ele>167.5</ele><time>2026-04-22T09:35:13.328Z</time></trkpt><trkpt lat="39.4114539" lon="8.5225903"><ele>170.0</ele><time>2026-04-22T09:35:14.329Z</time></trkpt><trkpt lat="39.4114515" lon="8.5226845"><ele>172.5</ele><time>2026-04-22T09:35:15.328Z</time></trkpt><trkpt lat="39.4114555" lon="8.5227793"><ele>175.0</ele><time>2026-04-22T09:35:16.329Z</time></trkpt><trkpt lat="39.4114695" lon="8.522871"><ele>175.42857142857142</ele><time>2026-04-22T09:35:17.329Z</time></trkpt><trkpt lat="39.4115007" lon="8.5229508"><ele>175.85714285714286</ele><time>2026-04-22T09:35:18.327Z</time></trkpt><trkpt lat="39.4115476" lon="8.5230184"><ele>176.28571428571428</ele><time>2026-04-22T09:35:19.328Z</time></trkpt><trkpt lat="39.4116104" lon="8.5230661"><ele>176.71428571428572</ele><time>2026-04-22T09:35:20.328Z</time></trkpt><trkpt lat="39.4116861" lon="8.5231107"><ele>177.14285714285714</ele><time>2026-04-22T09:35:21.327Z</time></trkpt><trkpt lat="39.4117532" lon="8.523158"><ele>177.57142857142856</ele><time>2026-04-22T09:35:22.328Z</time></trkpt><trkpt lat="39.4118085" lon="8.5232156"><ele>178.0</ele><time>2026-04-22T09:35:23.327Z</time></trkpt><trkpt lat="39.4118484" lon="8.523284"><ele>178.0</ele><time>2026-04-22T09:35:24.328Z</time></trkpt><trkpt lat="39.4118826" lon="8.5234237"><ele>178.0</ele><time>2026-04-22T09:35:26.328Z</time></trkpt><trkpt lat="39.4118834" lon="8.523506"><ele>178.0</ele><time>2026-04-22T09:35:27.328Z</time></trkpt><trkpt lat="39.4118754" lon="8.5235921"><ele>178.0</ele><time>2026-04-22T09:35:28.328Z</time></trkpt><trkpt lat="39.4118651" lon="8.5236836"><ele>178.0</ele><time>2026-04-22T09:35:29.327Z</time></trkpt><trkpt lat="39.4118495" lon="8.5237746"><ele>178.0</ele><time>2026-04-22T09:35:30.328Z</time></trkpt><trkpt lat="39.4118229" lon="8.523855"><ele>179.75</ele><time>2026-04-22T09:35:31.328Z</time></trkpt><trkpt lat="39.4117862" lon="8.523926"><ele>181.5</ele><time>2026-04-22T09:35:32.327Z</time></trkpt><trkpt lat="39.4116137" lon="8.5240531"><ele>183.25</ele><time>2026-04-22T09:35:35.328Z</time></trkpt><trkpt lat="39.4115424" lon="8.5240678"><ele>185.0</ele><time>2026-04-22T09:35:36.328Z</time></trkpt><trkpt lat="39.4114313" lon="8.5241241"><ele>185.0</ele><time>2026-04-22T09:35:38.327Z</time></trkpt><trkpt lat="39.4113849" lon="8.5242358"><ele>185.0</ele><time>2026-04-22T09:35:40.328Z</time></trkpt><trkpt lat="39.4114422" lon="8.5243583"><ele>185.0</ele><time>2026-04-22T09:35:42.327Z</time></trkpt><trkpt lat="39.4114925" lon="8.5244078"><ele>185.0</ele><time>2026-04-22T09:35:43.328Z</time></trkpt><trkpt lat="39.4115634" lon="8.5245337"><ele>185.0</ele><time>2026-04-22T09:35:45.328Z</time></trkpt><trkpt lat="39.4115805" lon="8.5247128"><ele>186.5</ele><time>2026-04-22T09:35:47.327Z</time></trkpt><trkpt lat="39.4115766" lon="8.5248156"><ele>188.0</ele><time>2026-04-22T09:35:48.328Z</time></trkpt><trkpt lat="39.4115636" lon="8.5249122"><ele>189.5</ele><time>2026-04-22T09:35:49.328Z</time></trkpt><trkpt lat="39.4115487" lon="8.5250056"><ele>191.0</ele><time>2026-04-22T09:35:50.328Z</time></trkpt><trkpt lat="39.4115428" lon="8.525145"><ele>192.50000000000003</ele><time>2026-04-22T09:35:52.327Z</time></trkpt><trkpt lat="39.4115267" lon="8.52524"><ele>194.0</ele><time>2026-04-22T09:35:54.328Z</time></trkpt><trkpt lat="39.4113748" lon="8.5252776"><ele>193.50000000000003</ele><time>2026-04-22T09:35:58.328Z</time></trkpt><trkpt lat="39.41132" lon="8.5252365"><ele>193.0</ele><time>2026-04-22T09:35:59.328Z</time></trkpt><trkpt lat="39.411208" lon="8.5252181"><ele>192.5</ele><time>2026-04-22T09:36:01.328Z</time></trkpt><trkpt lat="39.4111485" lon="8.5252571"><ele>192.0</ele><time>2026-04-22T09:36:02.327Z</time></trkpt><trkpt lat="39.4110845" lon="8.5253131"><ele>191.5</ele><time>2026-04-22T09:36:03.327Z</time></trkpt><trkpt lat="39.4110255" lon="8.5253588"><ele>191.0</ele><time>2026-04-22T09:36:04.328Z</time></trkpt><trkpt lat="39.410968" lon="8.525405"><ele>191.0</ele><time>2026-04-22T09:36:05.327Z</time></trkpt><trkpt lat="39.4108769" lon="8.5254893"><ele>191.0</ele><time>2026-04-22T09:36:07.328Z</time></trkpt><trkpt lat="39.4108365" lon="8.5256428"><ele>191.0</ele><time>2026-04-22T09:36:09.327Z</time></trkpt><trkpt lat="39.4108279" lon="8.5257757"><ele>191.0</ele><time>2026-04-22T09:36:11.328Z</time></trkpt><trkpt lat="39.4107935" lon="8.5258769"><ele>191.0</ele><time>2026-04-22T09:36:14.328Z</time></trkpt><trkpt lat="39.4107693" lon="8.5259644"><ele>191.0</ele><time>2026-04-22T09:36:16.328Z</time></trkpt><trkpt lat="39.4107069" lon="8.5261912"><ele>191.0</ele><time>2026-04-22T09:36:20.327Z</time></trkpt><trkpt lat="39.4106655" lon="8.5263124"><ele>191.0</ele><time>2026-04-22T09:36:22.328Z</time></trkpt><trkpt lat="39.4106472" lon="8.5264651"><ele>191.0</ele><time>2026-04-22T09:36:24.327Z</time></trkpt><trkpt lat="39.4106335" lon="8.5266236"><ele>192.8</ele><time>2026-04-22T09:36:26.327Z</time></trkpt><trkpt lat="39.4106089" lon="8.5267635"><ele>194.60000000000002</ele><time>2026-04-22T09:36:28.327Z</time></trkpt><trkpt lat="39.410558" lon="8.526875"><ele>196.4</ele><time>2026-04-22T09:36:30.328Z</time></trkpt><trkpt lat="39.41049" lon="8.5269478"><ele>198.2</ele><time>2026-04-22T09:36:32.327Z</time></trkpt><trkpt lat="39.4104012" lon="8.52698"><ele>200.0</ele><time>2026-04-22T09:36:34.328Z</time></trkpt><trkpt lat="39.4103068" lon="8.5270026"><ele>200.25</ele><time>2026-04-22T09:36:36.328Z</time></trkpt><trkpt lat="39.4102407" lon="8.5270596"><ele>200.5</ele><time>2026-04-22T09:36:38.328Z</time></trkpt><trkpt lat="39.4101793" lon="8.5273336"><ele>200.75</ele><time>2026-04-22T09:36:42.328Z</time></trkpt><trkpt lat="39.410149" lon="8.5274666"><ele>201.0</ele><time>2026-04-22T09:36:44.328Z</time></trkpt><trkpt lat="39.4101082" lon="8.5275721"><ele>201.0</ele><time>2026-04-22T09:36:46.327Z</time></trkpt><trkpt lat="39.4100389" lon="8.5276709"><ele>201.0</ele><time>2026-04-22T09:36:48.327Z</time></trkpt><trkpt lat="39.4099588" lon="8.5277717"><ele>201.0</ele><time>2026-04-22T09:36:50.327Z</time></trkpt><trkpt lat="39.4098679" lon="8.5278644"><ele>201.0</ele><time>2026-04-22T09:36:52.327Z</time></trkpt><trkpt lat="39.4097589" lon="8.5279401"><ele>204.25</ele><time>2026-04-22T09:36:54.328Z</time></trkpt><trkpt lat="39.409641" lon="8.5279909"><ele>207.5</ele><time>2026-04-22T09:36:56.328Z</time></trkpt><trkpt lat="39.4095359" lon="8.5280569"><ele>210.75</ele><time>2026-04-22T09:36:58.328Z</time></trkpt><trkpt lat="39.4094823" lon="8.5281138"><ele>214.0</ele><time>2026-04-22T09:36:59.328Z</time></trkpt><trkpt lat="39.4093726" lon="8.5282887"><ele>213.99999999999997</ele><time>2026-04-22T09:37:01.327Z</time></trkpt><trkpt lat="39.4093217" lon="8.5283848"><ele>214.0</ele><time>2026-04-22T09:37:02.328Z</time></trkpt><trkpt lat="39.4092641" lon="8.5284836"><ele>214.0</ele><time>2026-04-22T09:37:03.328Z</time></trkpt><trkpt lat="39.409207" lon="8.5285764"><ele>214.0</ele><time>2026-04-22T09:37:04.328Z</time></trkpt><trkpt lat="39.4091513" lon="8.5286688"><ele>213.99999999999997</ele><time>2026-04-22T09:37:05.327Z</time></trkpt><trkpt lat="39.4090992" lon="8.5287473"><ele>214.0</ele><time>2026-04-22T09:37:06.327Z</time></trkpt><trkpt lat="39.409049" lon="8.5288095"><ele>214.99999999999997</ele><time>2026-04-22T09:37:07.328Z</time></trkpt><trkpt lat="39.4089978" lon="8.5288722"><ele>216.0</ele><time>2026-04-22T09:37:08.328Z</time></trkpt><trkpt lat="39.4089474" lon="8.5289433"><ele>217.0</ele><time>2026-04-22T09:37:09.328Z</time></trkpt><trkpt lat="39.4089116" lon="8.5290186"><ele>218.0</ele><time>2026-04-22T09:37:10.328Z</time></trkpt><trkpt lat="39.4088869" lon="8.5291058"><ele>218.99999999999997</ele><time>2026-04-22T09:37:11.328Z</time></trkpt><trkpt lat="39.4088745" lon="8.5292083"><ele>220.0</ele><time>2026-04-22T09:37:12.327Z</time></trkpt><trkpt lat="39.408864" lon="8.529322"><ele>219.99999999999997</ele><time>2026-04-22T09:37:13.328Z</time></trkpt><trkpt lat="39.408858" lon="8.5294513"><ele>220.0</ele><time>2026-04-22T09:37:14.328Z</time></trkpt><trkpt lat="39.4088499" lon="8.5295835"><ele>220.0</ele><time>2026-04-22T09:37:15.327Z</time></trkpt><trkpt lat="39.4088319" lon="8.5296946"><ele>220.0</ele><time>2026-04-22T09:37:16.327Z</time></trkpt><trkpt lat="39.4088064" lon="8.5297846"><ele>219.99999999999997</ele><time>2026-04-22T09:37:17.328Z</time></trkpt><trkpt lat="39.4087727" lon="8.5298636"><ele>220.0</ele><time>2026-04-22T09:37:18.328Z</time></trkpt><trkpt lat="39.4087328" lon="8.5299329"><ele>222.8</ele><time>2026-04-22T09:37:19.328Z</time></trkpt><trkpt lat="39.4086808" lon="8.5299936"><ele>225.6</ele><time>2026-04-22T09:37:20.328Z</time></trkpt><trkpt lat="39.4085664" lon="8.5301241"><ele>228.39999999999998</ele><time>2026-04-22T09:37:22.327Z</time></trkpt><trkpt lat="39.4085122" lon="8.5302036"><ele>231.2</ele><time>2026-04-22T09:37:23.328Z</time></trkpt><trkpt lat="39.4084557" lon="8.5302908"><ele>234.0</ele><time>2026-04-22T09:37:24.327Z</time></trkpt><trkpt lat="39.4083957" lon="8.5303918"><ele>235.0</ele><time>2026-04-22T09:37:25.328Z</time></trkpt><trkpt lat="39.4083489" lon="8.5304995"><ele>235.99999999999997</ele><time>2026-04-22T09:37:26.328Z</time></trkpt><trkpt lat="39.4083068" lon="8.5306087"><ele>236.99999999999997</ele><time>2026-04-22T09:37:27.327Z</time></trkpt><trkpt lat="39.4082615" lon="8.5307174"><ele>238.0</ele><time>2026-04-22T09:37:28.328Z</time></trkpt><trkpt lat="39.4082128" lon="8.5308274"><ele>239.0</ele><time>2026-04-22T09:37:29.328Z</time></trkpt><trkpt lat="39.4081744" lon="8.530934"><ele>239.00000000000003</ele><time>2026-04-22T09:37:30.327Z</time></trkpt><trkpt lat="39.4081432" lon="8.5310282"><ele>239.0</ele><time>2026-04-22T09:37:31.328Z</time></trkpt><trkpt lat="39.4081155" lon="8.5311229"><ele>239.0</ele><time>2026-04-22T09:37:32.327Z</time></trkpt><trkpt lat="39.4081006" lon="8.5312186"><ele>239.0</ele><time>2026-04-22T09:37:33.327Z</time></trkpt><trkpt lat="39.4080968" lon="8.5313047"><ele>239.00000000000003</ele><time>2026-04-22T09:37:34.328Z</time></trkpt><trkpt lat="39.4081248" lon="8.5314531"><ele>239.0</ele><time>2026-04-22T09:37:36.327Z</time></trkpt><trkpt lat="39.4081962" lon="8.5315555"><ele>240.39999999999998</ele><time>2026-04-22T09:37:38.328Z</time></trkpt><trkpt lat="39.4082563" lon="8.5315893"><ele>241.79999999999998</ele><time>2026-04-22T09:37:39.328Z</time></trkpt><trkpt lat="39.4083265" lon="8.5316152"><ele>243.20000000000002</ele><time>2026-04-22T09:37:40.327Z</time></trkpt><trkpt lat="39.4083956" lon="8.5316323"><ele>244.60000000000002</ele><time>2026-04-22T09:37:41.328Z</time></trkpt><trkpt lat="39.4085328" lon="8.5317653"><ele>246.0</ele><time>2026-04-22T09:37:44.328Z</time></trkpt><trkpt lat="39.4085475" lon="8.531925"><ele>246.0</ele><time>2026-04-22T09:37:46.328Z</time></trkpt><trkpt lat="39.4085326" lon="8.5320089"><ele>246.0</ele><time>2026-04-22T09:37:47.328Z</time></trkpt><trkpt lat="39.4085006" lon="8.5320957"><ele>246.0</ele><time>2026-04-22T09:37:48.327Z</time></trkpt><trkpt lat="39.4084547" lon="8.5321796"><ele>246.0</ele><time>2026-04-22T09:37:49.327Z</time></trkpt><trkpt lat="39.408401" lon="8.5322638"><ele>246.0</ele><time>2026-04-22T09:37:50.328Z</time></trkpt><trkpt lat="39.4083482" lon="8.5323404"><ele>246.0</ele><time>2026-04-22T09:37:51.327Z</time></trkpt><trkpt lat="39.4082985" lon="8.5324009"><ele>248.0</ele><time>2026-04-22T09:37:52.328Z</time></trkpt><trkpt lat="39.4082086" lon="8.5324442"><ele>250.0</ele><time>2026-04-22T09:37:54.327Z</time></trkpt><trkpt lat="39.4081325" lon="8.532436"><ele>252.0</ele><time>2026-04-22T09:37:57.327Z</time></trkpt><trkpt lat="39.4080542" lon="8.5324277"><ele>254.0</ele><time>2026-04-22T09:38:19.328Z</time></trkpt><trkpt lat="39.4078494" lon="8.5323716"><ele>255.0</ele><time>2026-04-22T09:38:23.327Z</time></trkpt><trkpt lat="39.4077689" lon="8.5323493"><ele>255.99999999999997</ele><time>2026-04-22T09:38:24.328Z</time></trkpt><trkpt lat="39.4076771" lon="8.5323375"><ele>257.0</ele><time>2026-04-22T09:38:25.328Z</time></trkpt><trkpt lat="39.407574" lon="8.532332"><ele>258.0</ele><time>2026-04-22T09:38:26.328Z</time></trkpt><trkpt lat="39.407462" lon="8.5323278"><ele>259.0</ele><time>2026-04-22T09:38:27.328Z</time></trkpt><trkpt lat="39.4073468" lon="8.5323267"><ele>259.0</ele><time>2026-04-22T09:38:28.327Z</time></trkpt><trkpt lat="39.4072322" lon="8.5323352"><ele>259.0</ele><time>2026-04-22T09:38:29.328Z</time></trkpt><trkpt lat="39.4071249" lon="8.5323589"><ele>259.0</ele><time>2026-04-22T09:38:30.328Z</time></trkpt><trkpt lat="39.4070293" lon="8.5323866"><ele>259.0</ele><time>2026-04-22T09:38:31.328Z</time></trkpt><trkpt lat="39.4069445" lon="8.5324111"><ele>259.0</ele><time>2026-04-22T09:38:32.328Z</time></trkpt><trkpt lat="39.4068662" lon="8.5324448"><ele>262.0</ele><time>2026-04-22T09:38:33.328Z</time></trkpt><trkpt lat="39.4067897" lon="8.532499"><ele>265.0</ele><time>2026-04-22T09:38:34.328Z</time></trkpt><trkpt lat="39.4067233" lon="8.5325636"><ele>268.0</ele><time>2026-04-22T09:38:35.327Z</time></trkpt><trkpt lat="39.4066696" lon="8.5326394"><ele>271.0</ele><time>2026-04-22T09:38:36.328Z</time></trkpt><trkpt lat="39.4066321" lon="8.5327286"><ele>274.0</ele><time>2026-04-22T09:38:37.328Z</time></trkpt><trkpt lat="39.406599" lon="8.5328181"><ele>277.0</ele><time>2026-04-22T09:38:38.327Z</time></trkpt><trkpt lat="39.4065582" lon="8.5329034"><ele>277.8</ele><time>2026-04-22T09:38:39.327Z</time></trkpt><trkpt lat="39.4065107" lon="8.5329771"><ele>278.6</ele><time>2026-04-22T09:38:40.328Z</time></trkpt><trkpt lat="39.4063919" lon="8.533115"><ele>279.40000000000003</ele><time>2026-04-22T09:38:42.328Z</time></trkpt><trkpt lat="39.4063274" lon="8.533179"><ele>280.2</ele><time>2026-04-22T09:38:43.328Z</time></trkpt><trkpt lat="39.4062673" lon="8.5332396"><ele>281.0</ele><time>2026-04-22T09:38:44.327Z</time></trkpt><trkpt lat="39.4062094" lon="8.5333004"><ele>283.83333333333337</ele><time>2026-04-22T09:38:45.327Z</time></trkpt><trkpt lat="39.4061627" lon="8.5333697"><ele>286.6666666666667</ele><time>2026-04-22T09:38:46.327Z</time></trkpt><trkpt lat="39.4061113" lon="8.5334536"><ele>289.5</ele><time>2026-04-22T09:38:47.327Z</time></trkpt><trkpt lat="39.4060624" lon="8.5335429"><ele>292.3333333333333</ele><time>2026-04-22T09:38:48.327Z</time></trkpt><trkpt lat="39.4060255" lon="8.5336239"><ele>295.16666666666663</ele><time>2026-04-22T09:38:49.327Z</time></trkpt><trkpt lat="39.4060045" lon="8.5337708"><ele>298.0</ele><time>2026-04-22T09:38:51.328Z</time></trkpt><trkpt lat="39.406024" lon="8.5339249"><ele>298.5</ele><time>2026-04-22T09:38:53.327Z</time></trkpt><trkpt lat="39.406057" lon="8.5340067"><ele>299.0</ele><time>2026-04-22T09:38:54.327Z</time></trkpt><trkpt lat="39.4060984" lon="8.5340999"><ele>299.5</ele><time>2026-04-22T09:38:55.328Z</time></trkpt><trkpt lat="39.4061399" lon="8.5341942"><ele>300.0</ele><time>2026-04-22T09:38:56.328Z</time></trkpt><trkpt lat="39.4061887" lon="8.5342982"><ele>300.5</ele><time>2026-04-22T09:38:57.328Z</time></trkpt><trkpt lat="39.4062387" lon="8.5343982"><ele>301.0</ele><time>2026-04-22T09:38:58.328Z</time></trkpt><trkpt lat="39.4062755" lon="8.5344931"><ele>303.5</ele><time>2026-04-22T09:38:59.327Z</time></trkpt><trkpt lat="39.4062962" lon="8.5346319"><ele>306.0</ele><time>2026-04-22T09:39:01.327Z</time></trkpt><trkpt lat="39.4061705" lon="8.5348085"><ele>308.5</ele><time>2026-04-22T09:39:04.327Z</time></trkpt><trkpt lat="39.4061045" lon="8.5348776"><ele>311.0</ele><time>2026-04-22T09:39:05.327Z</time></trkpt><trkpt lat="39.4060457" lon="8.5349391"><ele>311.0</ele><time>2026-04-22T09:39:06.328Z</time></trkpt><trkpt lat="39.4059952" lon="8.5349933"><ele>311.0</ele><time>2026-04-22T09:39:07.327Z</time></trkpt><trkpt lat="39.4059404" lon="8.5350895"><ele>311.0</ele><time>2026-04-22T09:39:09.327Z</time></trkpt><trkpt lat="39.4059622" lon="8.5352217"><ele>311.0</ele><time>2026-04-22T09:39:11.327Z</time></trkpt><trkpt lat="39.4059772" lon="8.5353068"><ele>311.0</ele><time>2026-04-22T09:39:12.328Z</time></trkpt><trkpt lat="39.4059874" lon="8.5353951"><ele>311.0</ele><time>2026-04-22T09:39:13.328Z</time></trkpt><trkpt lat="39.4059889" lon="8.5354861"><ele>312.6666666666667</ele><time>2026-04-22T09:39:14.328Z</time></trkpt><trkpt lat="39.405978" lon="8.5355861"><ele>314.33333333333337</ele><time>2026-04-22T09:39:15.327Z</time></trkpt><trkpt lat="39.4059629" lon="8.5356873"><ele>316.0</ele><time>2026-04-22T09:39:16.327Z</time></trkpt><trkpt lat="39.4059557" lon="8.5357917"><ele>317.6666666666667</ele><time>2026-04-22T09:39:17.327Z</time></trkpt><trkpt lat="39.4059675" lon="8.535893"><ele>319.3333333333333</ele><time>2026-04-22T09:39:18.328Z</time></trkpt><trkpt lat="39.4059939" lon="8.5359917"><ele>321.0</ele><time>2026-04-22T09:39:19.328Z</time></trkpt><trkpt lat="39.4060265" lon="8.5360728"><ele>321.0</ele><time>2026-04-22T09:39:20.328Z</time></trkpt><trkpt lat="39.4060675" lon="8.5361378"><ele>321.0</ele><time>2026-04-22T09:39:21.328Z</time></trkpt><trkpt lat="39.4061848" lon="8.536206"><ele>321.0</ele><time>2026-04-22T09:39:23.328Z</time></trkpt><trkpt lat="39.4063249" lon="8.5362023"><ele>321.0</ele><time>2026-04-22T09:39:25.327Z</time></trkpt><trkpt lat="39.4063962" lon="8.5361956"><ele>321.0</ele><time>2026-04-22T09:39:26.327Z</time></trkpt><trkpt lat="39.4064594" lon="8.5361928"><ele>322.1666666666667</ele><time>2026-04-22T09:39:27.328Z</time></trkpt><trkpt lat="39.4065608" lon="8.5362358"><ele>323.3333333333333</ele><time>2026-04-22T09:39:29.328Z</time></trkpt><trkpt lat="39.4066099" lon="8.5362902"><ele>324.5</ele><time>2026-04-22T09:39:30.328Z</time></trkpt><trkpt lat="39.4066542" lon="8.5363597"><ele>325.66666666666663</ele><time>2026-04-22T09:39:31.327Z</time></trkpt><trkpt lat="39.4066959" lon="8.5364498"><ele>326.8333333333333</ele><time>2026-04-22T09:39:32.328Z</time></trkpt><trkpt lat="39.4067371" lon="8.5365456"><ele>328.0</ele><time>2026-04-22T09:39:33.328Z</time></trkpt><trkpt lat="39.4067732" lon="8.5366443"><ele>328.0</ele><time>2026-04-22T09:39:34.328Z</time></trkpt><trkpt lat="39.4067984" lon="8.536744"><ele>328.0</ele><time>2026-04-22T09:39:35.327Z</time></trkpt><trkpt lat="39.4068178" lon="8.5368463"><ele>328.0</ele><time>2026-04-22T09:39:36.328Z</time></trkpt><trkpt lat="39.4068308" lon="8.5369462"><ele>328.0</ele><time>2026-04-22T09:39:37.327Z</time></trkpt><trkpt lat="39.4068327" lon="8.5370401"><ele>328.0</ele><time>2026-04-22T09:39:38.327Z</time></trkpt><trkpt lat="39.4068251" lon="8.537126"><ele>328.0</ele><time>2026-04-22T09:39:39.327Z</time></trkpt><trkpt lat="39.4068018" lon="8.5372122"><ele>330.2</ele><time>2026-04-22T09:39:40.328Z</time></trkpt><trkpt lat="39.406774" lon="8.5372999"><ele>332.4</ele><time>2026-04-22T09:39:41.328Z</time></trkpt><trkpt lat="39.4067511" lon="8.5373877"><ele>334.59999999999997</ele><time>2026-04-22T09:39:42.328Z</time></trkpt><trkpt lat="39.4067267" lon="8.5374981"><ele>336.79999999999995</ele><time>2026-04-22T09:39:43.328Z</time></trkpt><trkpt lat="39.4067057" lon="8.537614"><ele>339.0</ele><time>2026-04-22T09:39:44.327Z</time></trkpt><trkpt lat="39.4066687" lon="8.5378402"><ele>341.5</ele><time>2026-04-22T09:39:46.327Z</time></trkpt><trkpt lat="39.4066489" lon="8.5379336"><ele>344.0</ele><time>2026-04-22T09:39:47.328Z</time></trkpt><trkpt lat="39.4066273" lon="8.5380153"><ele>346.5</ele><time>2026-04-22T09:39:48.328Z</time></trkpt><trkpt lat="39.4065572" lon="8.5381369"><ele>349.0</ele><time>2026-04-22T09:39:50.327Z</time></trkpt><trkpt lat="39.4064516" lon="8.5381985"><ele>351.5</ele><time>2026-04-22T09:39:52.328Z</time></trkpt><trkpt lat="39.4063869" lon="8.5381931"><ele>354.0</ele><time>2026-04-22T09:39:53.327Z</time></trkpt><trkpt lat="39.4063197" lon="8.5381789"><ele>354.0</ele><time>2026-04-22T09:39:54.328Z</time></trkpt><trkpt lat="39.4062512" lon="8.5381643"><ele>354.0</ele><time>2026-04-22T09:39:55.327Z</time></trkpt><trkpt lat="39.4061495" lon="8.5381846"><ele>354.0</ele><time>2026-04-22T09:39:57.328Z</time></trkpt><trkpt lat="39.4060726" lon="8.5382356"><ele>354.0</ele><time>2026-04-22T09:39:59.327Z</time></trkpt><trkpt lat="39.4060075" lon="8.5382611"><ele>354.0</ele><time>2026-04-22T09:40:01.328Z</time></trkpt><trkpt lat="39.4059553" lon="8.5383166"><ele>354.0</ele><time>2026-04-22T09:40:06.328Z</time></trkpt><trkpt lat="39.4059027" lon="8.5385432"><ele>354.0</ele><time>2026-04-22T09:40:10.328Z</time></trkpt><trkpt lat="39.4059096" lon="8.5386356"><ele>354.0</ele><time>2026-04-22T09:40:11.328Z</time></trkpt><trkpt lat="39.405925" lon="8.538732"><ele>354.0</ele><time>2026-04-22T09:40:12.327Z</time></trkpt><trkpt lat="39.4059413" lon="8.538825"><ele>354.0</ele><time>2026-04-22T09:40:13.327Z</time></trkpt><trkpt lat="39.405964" lon="8.5389203"><ele>354.0</ele><time>2026-04-22T09:40:14.328Z</time></trkpt><trkpt lat="39.405996" lon="8.5390209"><ele>354.0</ele><time>2026-04-22T09:40:15.327Z</time></trkpt><trkpt lat="39.4060378" lon="8.5391204"><ele>357.3333333333333</ele><time>2026-04-22T09:40:16.327Z</time></trkpt><trkpt lat="39.406085" lon="8.5392204"><ele>360.6666666666667</ele><time>2026-04-22T09:40:17.327Z</time></trkpt><trkpt lat="39.4061353" lon="8.5393156"><ele>364.0</ele><time>2026-04-22T09:40:18.328Z</time></trkpt><trkpt lat="39.4061859" lon="8.5394135"><ele>367.33333333333337</ele><time>2026-04-22T09:40:19.328Z</time></trkpt><trkpt lat="39.4062299" lon="8.5395045"><ele>370.6666666666667</ele><time>2026-04-22T09:40:20.328Z</time></trkpt><trkpt lat="39.4062662" lon="8.5395889"><ele>374.0</ele><time>2026-04-22T09:40:21.328Z</time></trkpt><trkpt lat="39.4062893" lon="8.5396652"><ele>380.75</ele><time>2026-04-22T09:40:22.328Z</time></trkpt><trkpt lat="39.4062921" lon="8.5397894"><ele>387.5</ele><time>2026-04-22T09:40:24.328Z</time></trkpt><trkpt lat="39.4063088" lon="8.5399044"><ele>394.25</ele><time>2026-04-22T09:40:26.327Z</time></trkpt><trkpt lat="39.4063764" lon="8.5400005"><ele>401.0</ele><time>2026-04-22T09:40:28.327Z</time></trkpt><trkpt lat="39.4065351" lon="8.5398714"><ele>400.99999999999994</ele><time>2026-04-22T09:40:32.328Z</time></trkpt><trkpt lat="39.4065489" lon="8.5397756"><ele>401.0</ele><time>2026-04-22T09:40:33.328Z</time></trkpt><trkpt lat="39.4065567" lon="8.5396831"><ele>401.0</ele><time>2026-04-22T09:40:34.327Z</time></trkpt><trkpt lat="39.4065741" lon="8.5395439"><ele>401.0</ele><time>2026-04-22T09:40:36.328Z</time></trkpt><trkpt lat="39.406634" lon="8.53957"><ele>400.99999999999994</ele><time>2026-04-22T09:40:41.327Z</time></trkpt><trkpt lat="39.406622" lon="8.5396607"><ele>401.0</ele><time>2026-04-22T09:40:43.328Z</time></trkpt><trkpt lat="39.4066208" lon="8.5397998"><ele>401.0</ele><time>2026-04-22T09:40:45.327Z</time></trkpt><trkpt lat="39.4066599" lon="8.5399447"><ele>401.0</ele><time>2026-04-22T09:40:47.328Z</time></trkpt><trkpt lat="39.4066843" lon="8.5400603"><ele>401.0</ele><time>2026-04-22T09:40:49.328Z</time></trkpt><trkpt lat="39.4066762" lon="8.5403315"><ele>401.0</ele><time>2026-04-22T09:40:53.327Z</time></trkpt><trkpt lat="39.4066925" lon="8.5404228"><ele>404.16666666666663</ele><time>2026-04-22T09:40:54.327Z</time></trkpt><trkpt lat="39.4067147" lon="8.5405048"><ele>407.3333333333333</ele><time>2026-04-22T09:40:55.327Z</time></trkpt><trkpt lat="39.4067514" lon="8.5405814"><ele>410.5</ele><time>2026-04-22T09:40:56.328Z</time></trkpt><trkpt lat="39.406799" lon="8.540655"><ele>413.66666666666663</ele><time>2026-04-22T09:40:57.328Z</time></trkpt><trkpt lat="39.406853" lon="8.5407242"><ele>416.8333333333333</ele><time>2026-04-22T09:40:58.328Z</time></trkpt><trkpt lat="39.4069094" lon="8.5408083"><ele>420.0</ele><time>2026-04-22T09:40:59.328Z</time></trkpt><trkpt lat="39.4069604" lon="8.5408879"><ele>420.0</ele><time>2026-04-22T09:41:00.328Z</time></trkpt><trkpt lat="39.407004" lon="8.54096"><ele>420.0</ele><time>2026-04-22T09:41:01.327Z</time></trkpt><trkpt lat="39.4070355" lon="8.5411062"><ele>420.0</ele><time>2026-04-22T09:41:03.328Z</time></trkpt><trkpt lat="39.4070392" lon="8.5411952"><ele>420.0</ele><time>2026-04-22T09:41:04.328Z</time></trkpt><trkpt lat="39.4070386" lon="8.5412935"><ele>420.0</ele><time>2026-04-22T09:41:05.328Z</time></trkpt><trkpt lat="39.4070382" lon="8.541389"><ele>420.0</ele><time>2026-04-22T09:41:06.327Z</time></trkpt><trkpt lat="39.4070318" lon="8.5414846"><ele>422.4</ele><time>2026-04-22T09:41:07.328Z</time></trkpt><trkpt lat="39.4070188" lon="8.5415723"><ele>424.8</ele><time>2026-04-22T09:41:08.328Z</time></trkpt><trkpt lat="39.4069968" lon="8.5416581"><ele>427.20000000000005</ele><time>2026-04-22T09:41:09.327Z</time></trkpt><trkpt lat="39.4069738" lon="8.5417457"><ele>429.6</ele><time>2026-04-22T09:41:10.328Z</time></trkpt><trkpt lat="39.4068992" lon="8.5419661"><ele>432.0</ele><time>2026-04-22T09:41:13.328Z</time></trkpt><trkpt lat="39.4068659" lon="8.5420406"><ele>431.8</ele><time>2026-04-22T09:41:14.328Z</time></trkpt><trkpt lat="39.4068318" lon="8.5421169"><ele>431.6</ele><time>2026-04-22T09:41:15.327Z</time></trkpt><trkpt lat="39.4067876" lon="8.542258"><ele>431.40000000000003</ele><time>2026-04-22T09:41:17.328Z</time></trkpt><trkpt lat="39.4068126" lon="8.5423935"><ele>431.20000000000005</ele><time>2026-04-22T09:41:19.328Z</time></trkpt><trkpt lat="39.4068841" lon="8.5425051"><ele>431.0</ele><time>2026-04-22T09:41:21.328Z</time></trkpt><trkpt lat="39.4069263" lon="8.5425954"><ele>430.99999999999994</ele><time>2026-04-22T09:41:23.327Z</time></trkpt><trkpt lat="39.4069084" lon="8.5427079"><ele>431.0</ele><time>2026-04-22T09:41:25.328Z</time></trkpt><trkpt lat="39.406834" lon="8.5428512"><ele>431.0</ele><time>2026-04-22T09:41:27.328Z</time></trkpt><trkpt lat="39.4067879" lon="8.5429263"><ele>431.0</ele><time>2026-04-22T09:41:28.328Z</time></trkpt><trkpt lat="39.4067534" lon="8.5430077"><ele>430.99999999999994</ele><time>2026-04-22T09:41:29.327Z</time></trkpt><trkpt lat="39.4067343" lon="8.5430913"><ele>431.0</ele><time>2026-04-22T09:41:30.328Z</time></trkpt><trkpt lat="39.4067276" lon="8.5432413"><ele>432.66666666666663</ele><time>2026-04-22T09:41:32.328Z</time></trkpt><trkpt lat="39.4068496" lon="8.5433217"><ele>434.3333333333333</ele><time>2026-04-22T09:41:36.327Z</time></trkpt><trkpt lat="39.4069052" lon="8.5432796"><ele>436.0</ele><time>2026-04-22T09:41:37.328Z</time></trkpt><trkpt lat="39.4069644" lon="8.5432176"><ele>437.66666666666663</ele><time>2026-04-22T09:41:38.328Z</time></trkpt><trkpt lat="39.4070242" lon="8.5431653"><ele>439.3333333333333</ele><time>2026-04-22T09:41:39.328Z</time></trkpt><trkpt lat="39.4070809" lon="8.5431238"><ele>441.0</ele><time>2026-04-22T09:41:40.328Z</time></trkpt><trkpt lat="39.4071917" lon="8.5430858"><ele>443.0</ele><time>2026-04-22T09:41:42.327Z</time></trkpt><trkpt lat="39.4073006" lon="8.5430885"><ele>445.0</ele><time>2026-04-22T09:41:44.327Z</time></trkpt><trkpt lat="39.4074103" lon="8.5430757"><ele>447.0</ele><time>2026-04-22T09:42:04.328Z</time></trkpt><trkpt lat="39.4075441" lon="8.5430758"><ele>449.0</ele><time>2026-04-22T09:42:06.328Z</time></trkpt><trkpt lat="39.4076059" lon="8.5430496"><ele>451.0</ele><time>2026-04-22T09:42:07.328Z</time></trkpt><trkpt lat="39.4076707" lon="8.5430098"><ele>451.00000000000006</ele><time>2026-04-22T09:42:08.327Z</time></trkpt><trkpt lat="39.4077377" lon="8.5429665"><ele>451.0</ele><time>2026-04-22T09:42:09.327Z</time></trkpt><trkpt lat="39.4078053" lon="8.542942"><ele>451.0</ele><time>2026-04-22T09:42:10.328Z</time></trkpt><trkpt lat="39.4078841" lon="8.5429327"><ele>451.0</ele><time>2026-04-22T09:42:11.328Z</time></trkpt><trkpt lat="39.4079628" lon="8.5429255"><ele>451.00000000000006</ele><time>2026-04-22T09:42:12.328Z</time></trkpt><trkpt lat="39.4080423" lon="8.5428976"><ele>451.0</ele><time>2026-04-22T09:42:13.328Z</time></trkpt><trkpt lat="39.4081102" lon="8.5428445"><ele>451.33333333333337</ele><time>2026-04-22T09:42:14.328Z</time></trkpt><trkpt lat="39.4081658" lon="8.5427681"><ele>451.6666666666667</ele><time>2026-04-22T09:42:15.328Z</time></trkpt><trkpt lat="39.4082169" lon="8.5426787"><ele>452.0</ele><time>2026-04-22T09:42:16.328Z</time></trkpt><trkpt lat="39.4082611" lon="8.5425852"><ele>452.33333333333337</ele><time>2026-04-22T09:42:17.327Z</time></trkpt><trkpt lat="39.4083042" lon="8.5425019"><ele>452.6666666666667</ele><time>2026-04-22T09:42:18.328Z</time></trkpt><trkpt lat="39.4083419" lon="8.5424295"><ele>453.0</ele><time>2026-04-22T09:42:19.328Z</time></trkpt><trkpt lat="39.4083888" lon="8.5423713"><ele>453.0</ele><time>2026-04-22T09:42:20.328Z</time></trkpt><trkpt lat="39.4084434" lon="8.5423306"><ele>453.0</ele><time>2026-04-22T09:42:21.327Z</time></trkpt><trkpt lat="39.4085077" lon="8.5423177"><ele>453.0</ele><time>2026-04-22T09:42:22.327Z</time></trkpt><trkpt lat="39.4085726" lon="8.5423351"><ele>453.0</ele><time>2026-04-22T09:42:23.328Z</time></trkpt><trkpt lat="39.408634" lon="8.5423747"><ele>453.0</ele><time>2026-04-22T09:42:24.328Z</time></trkpt><trkpt lat="39.4086865" lon="8.5424449"><ele>453.0</ele><time>2026-04-22T09:42:25.328Z</time></trkpt><trkpt lat="39.4087746" lon="8.5426534"><ele>453.0</ele><time>2026-04-22T09:42:27.327Z</time></trkpt><trkpt lat="39.4088148" lon="8.5427759"><ele>453.0</ele><time>2026-04-22T09:42:28.327Z</time></trkpt><trkpt lat="39.4088504" lon="8.542903"><ele>453.0</ele><time>2026-04-22T09:42:29.328Z</time></trkpt><trkpt lat="39.4088779" lon="8.5430129"><ele>453.0</ele><time>2026-04-22T09:42:30.328Z</time></trkpt><trkpt lat="39.4088991" lon="8.5431022"><ele>453.0</ele><time>2026-04-22T09:42:31.328Z</time></trkpt><trkpt lat="39.4089088" lon="8.5431845"><ele>453.0</ele><time>2026-04-22T09:42:32.327Z</time></trkpt><trkpt lat="39.4089221" lon="8.5433294"><ele>453.0</ele><time>2026-04-22T09:42:34.328Z</time></trkpt><trkpt lat="39.408978" lon="8.5434049"><ele>452.99999999999994</ele><time>2026-04-22T09:42:36.327Z</time></trkpt><trkpt lat="39.4090987" lon="8.5433908"><ele>452.99999999999994</ele><time>2026-04-22T09:42:38.328Z</time></trkpt><trkpt lat="39.4091903" lon="8.5433601"><ele>453.0</ele><time>2026-04-22T09:42:39.328Z</time></trkpt><trkpt lat="39.4092925" lon="8.5433281"><ele>453.0</ele><time>2026-04-22T09:42:40.328Z</time></trkpt><trkpt lat="39.4093889" lon="8.5432974"><ele>453.0</ele><time>2026-04-22T09:42:41.328Z</time></trkpt><trkpt lat="39.4094754" lon="8.5432642"><ele>453.0</ele><time>2026-04-22T09:42:42.327Z</time></trkpt><trkpt lat="39.4095582" lon="8.5432291"><ele>453.0</ele><time>2026-04-22T09:42:43.327Z</time></trkpt><trkpt lat="39.4096352" lon="8.5432025"><ele>453.0</ele><time>2026-04-22T09:42:44.328Z</time></trkpt><trkpt lat="39.4097128" lon="8.5431785"><ele>453.0</ele><time>2026-04-22T09:42:45.328Z</time></trkpt><trkpt lat="39.4097969" lon="8.5431721"><ele>453.0</ele><time>2026-04-22T09:42:46.327Z</time></trkpt><trkpt lat="39.4099451" lon="8.5431366"><ele>450.5</ele><time>2026-04-22T09:42:48.327Z</time></trkpt><trkpt lat="39.4100215" lon="8.5430873"><ele>448.0</ele><time>2026-04-22T09:42:49.328Z</time></trkpt><trkpt lat="39.4101077" lon="8.5430389"><ele>445.5</ele><time>2026-04-22T09:42:50.327Z</time></trkpt><trkpt lat="39.4101975" lon="8.5430007"><ele>443.0</ele><time>2026-04-22T09:42:51.328Z</time></trkpt><trkpt lat="39.4102828" lon="8.5429639"><ele>440.5</ele><time>2026-04-22T09:42:52.328Z</time></trkpt><trkpt lat="39.4103604" lon="8.5429242"><ele>438.0</ele><time>2026-04-22T09:42:53.328Z</time></trkpt><trkpt lat="39.4104333" lon="8.5428845"><ele>434.0</ele><time>2026-04-22T09:42:54.328Z</time></trkpt><trkpt lat="39.4105053" lon="8.5428442"><ele>430.0</ele><time>2026-04-22T09:42:55.328Z</time></trkpt><trkpt lat="39.4105687" lon="8.5428155"><ele>426.0</ele><time>2026-04-22T09:42:56.327Z</time></trkpt><trkpt lat="39.4106729" lon="8.5428125"><ele>422.0</ele><time>2026-04-22T09:42:58.328Z</time></trkpt><trkpt lat="39.4107337" lon="8.5428933"><ele>418.0</ele><time>2026-04-22T09:43:00.326Z</time></trkpt><trkpt lat="39.4107316" lon="8.5430072"><ele>414.0</ele><time>2026-04-22T09:43:02.327Z</time></trkpt><trkpt lat="39.4106666" lon="8.5431378"><ele>414.0</ele><time>2026-04-22T09:43:04.327Z</time></trkpt><trkpt lat="39.4106255" lon="8.5432058"><ele>414.0</ele><time>2026-04-22T09:43:05.327Z</time></trkpt><trkpt lat="39.4105972" lon="8.5432908"><ele>414.0</ele><time>2026-04-22T09:43:06.326Z</time></trkpt><trkpt lat="39.4105834" lon="8.5433757"><ele>414.0</ele><time>2026-04-22T09:43:07.326Z</time></trkpt><trkpt lat="39.4104867" lon="8.5435946"><ele>414.0</ele><time>2026-04-22T09:43:11.327Z</time></trkpt><trkpt lat="39.410367" lon="8.5436282"><ele>417.2</ele><time>2026-04-22T09:43:13.327Z</time></trkpt><trkpt lat="39.4102606" lon="8.5436613"><ele>420.4</ele><time>2026-04-22T09:43:15.327Z</time></trkpt><trkpt lat="39.4101661" lon="8.543767"><ele>423.6</ele><time>2026-04-22T09:43:17.326Z</time></trkpt><trkpt lat="39.41014" lon="8.5438494"><ele>426.8</ele><time>2026-04-22T09:43:18.326Z</time></trkpt><trkpt lat="39.4101226" lon="8.5439397"><ele>430.0</ele><time>2026-04-22T09:43:19.326Z</time></trkpt><trkpt lat="39.4101144" lon="8.5440415"><ele>430.0</ele><time>2026-04-22T09:43:20.327Z</time></trkpt><trkpt lat="39.4101272" lon="8.5441315"><ele>430.0</ele><time>2026-04-22T09:43:21.326Z</time></trkpt><trkpt lat="39.4101261" lon="8.5442338"><ele>430.0</ele><time>2026-04-22T09:43:22.327Z</time></trkpt><trkpt lat="39.4101267" lon="8.5443348"><ele>430.0</ele><time>2026-04-22T09:43:23.327Z</time></trkpt><trkpt lat="39.4101176" lon="8.5444184"><ele>430.0</ele><time>2026-04-22T09:43:24.327Z</time></trkpt><trkpt lat="39.4101091" lon="8.5445024"><ele>430.0</ele><time>2026-04-22T09:43:25.327Z</time></trkpt><trkpt lat="39.4100892" lon="8.5445902"><ele>430.0</ele><time>2026-04-22T09:43:26.327Z</time></trkpt><trkpt lat="39.4100617" lon="8.5446732"><ele>426.75</ele><time>2026-04-22T09:43:27.326Z</time></trkpt><trkpt lat="39.4100285" lon="8.5447462"><ele>423.5</ele><time>2026-04-22T09:43:28.327Z</time></trkpt><trkpt lat="39.4098377" lon="8.5449336"><ele>420.25</ele><time>2026-04-22T09:43:32.326Z</time></trkpt><trkpt lat="39.4097708" lon="8.5449872"><ele>417.0</ele><time>2026-04-22T09:43:33.327Z</time></trkpt><trkpt lat="39.4097159" lon="8.5450568"><ele>417.0</ele><time>2026-04-22T09:43:34.326Z</time></trkpt><trkpt lat="39.4096655" lon="8.5451588"><ele>417.0</ele><time>2026-04-22T09:43:35.327Z</time></trkpt><trkpt lat="39.4096371" lon="8.5452737"><ele>417.0</ele><time>2026-04-22T09:43:36.327Z</time></trkpt><trkpt lat="39.4096303" lon="8.5453842"><ele>417.0</ele><time>2026-04-22T09:43:37.327Z</time></trkpt><trkpt lat="39.4096344" lon="8.5454812"><ele>417.0</ele><time>2026-04-22T09:43:38.327Z</time></trkpt><trkpt lat="39.4096282" lon="8.5456058"><ele>417.0</ele><time>2026-04-22T09:43:40.327Z</time></trkpt><trkpt lat="39.4095687" lon="8.5456965"><ele>423.3333333333333</ele><time>2026-04-22T09:43:42.327Z</time></trkpt><trkpt lat="39.4094609" lon="8.5457849"><ele>429.66666666666663</ele><time>2026-04-22T09:43:44.327Z</time></trkpt><trkpt lat="39.4094002" lon="8.5458406"><ele>436.0</ele><time>2026-04-22T09:43:45.327Z</time></trkpt><trkpt lat="39.409344" lon="8.5459074"><ele>442.3333333333333</ele><time>2026-04-22T09:43:46.326Z</time></trkpt><trkpt lat="39.4092883" lon="8.5459706"><ele>448.66666666666663</ele><time>2026-04-22T09:43:47.327Z</time></trkpt><trkpt lat="39.4092436" lon="8.546035"><ele>455.0</ele><time>2026-04-22T09:43:48.327Z</time></trkpt><trkpt lat="39.4092216" lon="8.5461138"><ele>453.8333333333333</ele><time>2026-04-22T09:43:49.326Z</time></trkpt><trkpt lat="39.4092294" lon="8.5462831"><ele>452.66666666666663</ele><time>2026-04-22T09:43:51.327Z</time></trkpt><trkpt lat="39.4092468" lon="8.5463769"><ele>451.5</ele><time>2026-04-22T09:43:52.327Z</time></trkpt><trkpt lat="39.4092717" lon="8.5464656"><ele>450.33333333333337</ele><time>2026-04-22T09:43:53.327Z</time></trkpt><trkpt lat="39.4092861" lon="8.5465554"><ele>449.1666666666667</ele><time>2026-04-22T09:43:54.326Z</time></trkpt><trkpt lat="39.4092792" lon="8.5466379"><ele>448.0</ele><time>2026-04-22T09:43:55.326Z</time></trkpt><trkpt lat="39.4092531" lon="8.5467136"><ele>448.00000000000006</ele><time>2026-04-22T09:43:56.326Z</time></trkpt><trkpt lat="39.4092134" lon="8.5467912"><ele>448.0</ele><time>2026-04-22T09:43:57.327Z</time></trkpt><trkpt lat="39.4091679" lon="8.5468696"><ele>448.0</ele><time>2026-04-22T09:43:58.327Z</time></trkpt><trkpt lat="39.4091111" lon="8.5469465"><ele>448.0</ele><time>2026-04-22T09:43:59.327Z</time></trkpt><trkpt lat="39.4090503" lon="8.5470134"><ele>448.00000000000006</ele><time>2026-04-22T09:44:00.327Z</time></trkpt><trkpt lat="39.4089928" lon="8.5470849"><ele>448.0</ele><time>2026-04-22T09:44:01.327Z</time></trkpt><trkpt lat="39.4089459" lon="8.5471527"><ele>447.7142857142857</ele><time>2026-04-22T09:44:02.326Z</time></trkpt><trkpt lat="39.4089044" lon="8.5472219"><ele>447.42857142857144</ele><time>2026-04-22T09:44:03.326Z</time></trkpt><trkpt lat="39.4088738" lon="8.5472992"><ele>447.1428571428571</ele><time>2026-04-22T09:44:04.327Z</time></trkpt><trkpt lat="39.4088473" lon="8.547384"><ele>446.8571428571429</ele><time>2026-04-22T09:44:05.327Z</time></trkpt><trkpt lat="39.4088268" lon="8.5474699"><ele>446.57142857142856</ele><time>2026-04-22T09:44:06.327Z</time></trkpt><trkpt lat="39.4088103" lon="8.547557"><ele>446.2857142857143</ele><time>2026-04-22T09:44:07.327Z</time></trkpt><trkpt lat="39.4087958" lon="8.5476452"><ele>446.0</ele><time>2026-04-22T09:44:08.327Z</time></trkpt><trkpt lat="39.4087817" lon="8.5477313"><ele>455.20000000000005</ele><time>2026-04-22T09:44:09.326Z</time></trkpt><trkpt lat="39.4087715" lon="8.5478177"><ele>464.40000000000003</ele><time>2026-04-22T09:44:10.327Z</time></trkpt><trkpt lat="39.4087603" lon="8.5479883"><ele>473.6</ele><time>2026-04-22T09:44:12.327Z</time></trkpt><trkpt lat="39.4087659" lon="8.5480754"><ele>482.8</ele><time>2026-04-22T09:44:13.327Z</time></trkpt><trkpt lat="39.4087701" lon="8.5482246"><ele>492.0</ele><time>2026-04-22T09:44:15.327Z</time></trkpt><trkpt lat="39.4087804" lon="8.5483762"><ele>492.0</ele><time>2026-04-22T09:44:17.326Z</time></trkpt><trkpt lat="39.4087839" lon="8.5485222"><ele>492.00000000000006</ele><time>2026-04-22T09:44:19.326Z</time></trkpt><trkpt lat="39.4087505" lon="8.5486365"><ele>492.00000000000006</ele><time>2026-04-22T09:44:21.326Z</time></trkpt><trkpt lat="39.4086989" lon="8.5487399"><ele>492.0</ele><time>2026-04-22T09:44:23.327Z</time></trkpt><trkpt lat="39.4086501" lon="8.5488917"><ele>492.0</ele><time>2026-04-22T09:44:25.327Z</time></trkpt><trkpt lat="39.4086334" lon="8.5489917"><ele>492.0</ele><time>2026-04-22T09:44:26.327Z</time></trkpt><trkpt lat="39.4086201" lon="8.5490941"><ele>492.00000000000006</ele><time>2026-04-22T09:44:27.327Z</time></trkpt><trkpt lat="39.408611" lon="8.5491761"><ele>492.00000000000006</ele><time>2026-04-22T09:44:28.327Z</time></trkpt><trkpt lat="39.4085808" lon="8.5492925"><ele>492.0</ele><time>2026-04-22T09:44:30.327Z</time></trkpt><trkpt lat="39.4084785" lon="8.5493563"><ele>492.0</ele><time>2026-04-22T09:44:32.326Z</time></trkpt><trkpt lat="39.4083486" lon="8.5493733"><ele>492.0</ele><time>2026-04-22T09:44:34.327Z</time></trkpt><trkpt lat="39.4082318" lon="8.5494134"><ele>492.0</ele><time>2026-04-22T09:44:36.327Z</time></trkpt><trkpt lat="39.4081389" lon="8.5495144"><ele>492.0</ele><time>2026-04-22T09:44:38.327Z</time></trkpt><trkpt lat="39.4081029" lon="8.5495848"><ele>492.0</ele><time>2026-04-22T09:44:39.327Z</time></trkpt><trkpt lat="39.4080722" lon="8.5496684"><ele>492.0</ele><time>2026-04-22T09:44:40.326Z</time></trkpt><trkpt lat="39.4080456" lon="8.5497477"><ele>492.0</ele><time>2026-04-22T09:44:41.326Z</time></trkpt><trkpt lat="39.4080043" lon="8.5498856"><ele>496.0</ele><time>2026-04-22T09:44:43.327Z</time></trkpt><trkpt lat="39.4079632" lon="8.550034"><ele>500.0</ele><time>2026-04-22T09:44:45.327Z</time></trkpt><trkpt lat="39.4079302" lon="8.5501156"><ele>504.0</ele><time>2026-04-22T09:44:46.327Z</time></trkpt><trkpt lat="39.4078897" lon="8.5502048"><ele>508.0</ele><time>2026-04-22T09:44:47.327Z</time></trkpt><trkpt lat="39.4078425" lon="8.5502922"><ele>512.0</ele><time>2026-04-22T09:44:48.326Z</time></trkpt><trkpt lat="39.4078057" lon="8.5503811"><ele>516.0</ele><time>2026-04-22T09:44:49.327Z</time></trkpt><trkpt lat="39.4077734" lon="8.5504762"><ele>516.0</ele><time>2026-04-22T09:44:50.326Z</time></trkpt><trkpt lat="39.4077326" lon="8.5505741"><ele>516.0</ele><time>2026-04-22T09:44:51.327Z</time></trkpt><trkpt lat="39.4076885" lon="8.5506613"><ele>516.0</ele><time>2026-04-22T09:44:52.327Z</time></trkpt><trkpt lat="39.4076324" lon="8.5507496"><ele>516.0</ele><time>2026-04-22T09:44:53.327Z</time></trkpt><trkpt lat="39.407482" lon="8.55091"><ele>516.0</ele><time>2026-04-22T09:44:55.327Z</time></trkpt><trkpt lat="39.4074109" lon="8.5510001"><ele>516.0</ele><time>2026-04-22T09:44:56.327Z</time></trkpt><trkpt lat="39.40735" lon="8.5511046"><ele>516.0</ele><time>2026-04-22T09:44:57.327Z</time></trkpt><trkpt lat="39.4072941" lon="8.5512094"><ele>516.0</ele><time>2026-04-22T09:44:58.327Z</time></trkpt><trkpt lat="39.4072416" lon="8.5513084"><ele>516.0</ele><time>2026-04-22T09:44:59.327Z</time></trkpt><trkpt lat="39.4071912" lon="8.5513998"><ele>521.1666666666666</ele><time>2026-04-22T09:45:00.326Z</time></trkpt><trkpt lat="39.407143" lon="8.5514792"><ele>526.3333333333334</ele><time>2026-04-22T09:45:01.327Z</time></trkpt><trkpt lat="39.4070967" lon="8.5515534"><ele>531.5</ele><time>2026-04-22T09:45:02.327Z</time></trkpt><trkpt lat="39.4070479" lon="8.5516208"><ele>536.6666666666667</ele><time>2026-04-22T09:45:03.327Z</time></trkpt><trkpt lat="39.4069968" lon="8.551687"><ele>541.8333333333334</ele><time>2026-04-22T09:45:04.327Z</time></trkpt><trkpt lat="39.4069456" lon="8.5517624"><ele>547.0</ele><time>2026-04-22T09:45:05.327Z</time></trkpt><trkpt lat="39.4068906" lon="8.5518495"><ele>547.0</ele><time>2026-04-22T09:45:06.326Z</time></trkpt><trkpt lat="39.4068381" lon="8.5519349"><ele>547.0</ele><time>2026-04-22T09:45:07.327Z</time></trkpt><trkpt lat="39.406787" lon="8.5520138"><ele>547.0</ele><time>2026-04-22T09:45:08.326Z</time></trkpt><trkpt lat="39.4067301" lon="8.5520884"><ele>547.0</ele><time>2026-04-22T09:45:09.327Z</time></trkpt><trkpt lat="39.4066642" lon="8.5521566"><ele>547.0</ele><time>2026-04-22T09:45:10.326Z</time></trkpt><trkpt lat="39.4065997" lon="8.5522176"><ele>547.0</ele><time>2026-04-22T09:45:11.327Z</time></trkpt><trkpt lat="39.4065369" lon="8.5522674"><ele>543.2</ele><time>2026-04-22T09:45:12.327Z</time></trkpt><trkpt lat="39.4064698" lon="8.5523121"><ele>539.4000000000001</ele><time>2026-04-22T09:45:13.326Z</time></trkpt><trkpt lat="39.4064092" lon="8.5523591"><ele>535.5999999999999</ele><time>2026-04-22T09:45:14.327Z</time></trkpt><trkpt lat="39.40629" lon="8.5525416"><ele>531.8</ele><time>2026-04-22T09:45:17.327Z</time></trkpt><trkpt lat="39.4062414" lon="8.5526066"><ele>528.0</ele><time>2026-04-22T09:45:20.327Z</time></trkpt><trkpt lat="39.4062259" lon="8.5525163"><ele>528.0</ele><time>2026-04-22T09:45:22.327Z</time></trkpt><trkpt lat="39.4062813" lon="8.5523729"><ele>528.0</ele><time>2026-04-22T09:45:24.327Z</time></trkpt><trkpt lat="39.4063291" lon="8.5522357"><ele>528.0</ele><time>2026-04-22T09:45:26.326Z</time></trkpt><trkpt lat="39.4063542" lon="8.5521593"><ele>528.0</ele><time>2026-04-22T09:45:27.327Z</time></trkpt><trkpt lat="39.4063759" lon="8.5520821"><ele>528.0</ele><time>2026-04-22T09:45:28.326Z</time></trkpt><trkpt lat="39.4063981" lon="8.5520048"><ele>528.0</ele><time>2026-04-22T09:45:29.327Z</time></trkpt><trkpt lat="39.4064241" lon="8.5519272"><ele>531.1666666666666</ele><time>2026-04-22T09:45:30.326Z</time></trkpt><trkpt lat="39.4064709" lon="8.5518485"><ele>534.3333333333334</ele><time>2026-04-22T09:45:31.326Z</time></trkpt><trkpt lat="39.4065237" lon="8.5517684"><ele>537.5</ele><time>2026-04-22T09:45:32.327Z</time></trkpt><trkpt lat="39.4065724" lon="8.5516951"><ele>540.6666666666667</ele><time>2026-04-22T09:45:33.326Z</time></trkpt><trkpt lat="39.4066363" lon="8.5515917"><ele>543.8333333333334</ele><time>2026-04-22T09:45:35.326Z</time></trkpt><trkpt lat="39.4066143" lon="8.5515099"><ele>547.0</ele><time>2026-04-22T09:46:16.327Z</time></trkpt><trkpt lat="39.4064728" lon="8.5516955"><ele>547.0</ele><time>2026-04-22T09:46:21.327Z</time></trkpt><trkpt lat="39.4063689" lon="8.551776"><ele>547.0</ele><time>2026-04-22T09:46:23.327Z</time></trkpt><trkpt lat="39.4063051" lon="8.5518123"><ele>547.0</ele><time>2026-04-22T09:46:24.326Z</time></trkpt><trkpt lat="39.4062455" lon="8.5518527"><ele>547.0</ele><time>2026-04-22T09:46:25.327Z</time></trkpt><trkpt lat="39.4061799" lon="8.551894"><ele>547.0</ele><time>2026-04-22T09:46:26.327Z</time></trkpt><trkpt lat="39.4061023" lon="8.5519344"><ele>547.0</ele><time>2026-04-22T09:46:27.327Z</time></trkpt><trkpt lat="39.4060208" lon="8.551986"><ele>551.8000000000001</ele><time>2026-04-22T09:46:28.326Z</time></trkpt><trkpt lat="39.4059472" lon="8.5520626"><ele>556.6</ele><time>2026-04-22T09:46:29.326Z</time></trkpt><trkpt lat="39.4058745" lon="8.5521702"><ele>561.4000000000001</ele><time>2026-04-22T09:46:30.327Z</time></trkpt><trkpt lat="39.4058099" lon="8.5522777"><ele>566.2</ele><time>2026-04-22T09:46:31.327Z</time></trkpt><trkpt lat="39.4057489" lon="8.5523718"><ele>571.0</ele><time>2026-04-22T09:46:32.327Z</time></trkpt><trkpt lat="39.4056939" lon="8.5524503"><ele>571.0</ele><time>2026-04-22T09:46:33.327Z</time></trkpt><trkpt lat="39.4056455" lon="8.5525145"><ele>571.0</ele><time>2026-04-22T09:46:34.327Z</time></trkpt><trkpt lat="39.4055531" lon="8.5526129"><ele>571.0</ele><time>2026-04-22T09:46:36.326Z</time></trkpt><trkpt lat="39.405497" lon="8.5526694"><ele>571.0</ele><time>2026-04-22T09:46:37.327Z</time></trkpt><trkpt lat="39.4053978" lon="8.5527877"><ele>571.0</ele><time>2026-04-22T09:46:39.327Z</time></trkpt><trkpt lat="39.4053432" lon="8.5528556"><ele>573.3333333333334</ele><time>2026-04-22T09:46:40.327Z</time></trkpt><trkpt lat="39.4052844" lon="8.5529217"><ele>575.6666666666667</ele><time>2026-04-22T09:46:41.327Z</time></trkpt><trkpt lat="39.4052212" lon="8.5529836"><ele>578.0</ele><time>2026-04-22T09:46:42.327Z</time></trkpt><trkpt lat="39.4051485" lon="8.5530432"><ele>580.3333333333334</ele><time>2026-04-22T09:46:43.327Z</time></trkpt><trkpt lat="39.4050703" lon="8.5531061"><ele>582.6666666666666</ele><time>2026-04-22T09:46:44.327Z</time></trkpt><trkpt lat="39.4049941" lon="8.5531723"><ele>585.0</ele><time>2026-04-22T09:46:45.327Z</time></trkpt><trkpt lat="39.404919" lon="8.5532444"><ele>585.0</ele><time>2026-04-22T09:46:46.326Z</time></trkpt><trkpt lat="39.404847" lon="8.5533263"><ele>585.0</ele><time>2026-04-22T09:46:47.327Z</time></trkpt><trkpt lat="39.4047861" lon="8.5534162"><ele>585.0</ele><time>2026-04-22T09:46:48.326Z</time></trkpt><trkpt lat="39.4047335" lon="8.553511"><ele>585.0</ele><time>2026-04-22T09:46:49.327Z</time></trkpt><trkpt lat="39.4046838" lon="8.5536009"><ele>585.0</ele><time>2026-04-22T09:46:50.326Z</time></trkpt><trkpt lat="39.4046303" lon="8.5536703"><ele>585.0</ele><time>2026-04-22T09:46:51.326Z</time></trkpt><trkpt lat="39.4045701" lon="8.553729"><ele>588.0</ele><time>2026-04-22T09:46:52.327Z</time></trkpt><trkpt lat="39.404502" lon="8.5537787"><ele>591.0</ele><time>2026-04-22T09:46:53.326Z</time></trkpt><trkpt lat="39.4044358" lon="8.5538268"><ele>594.0</ele><time>2026-04-22T09:46:54.327Z</time></trkpt><trkpt lat="39.4043691" lon="8.5538781"><ele>597.0</ele><time>2026-04-22T09:46:55.327Z</time></trkpt><trkpt lat="39.4043043" lon="8.5539376"><ele>600.0</ele><time>2026-04-22T09:46:56.327Z</time></trkpt><trkpt lat="39.4042466" lon="8.5540151"><ele>603.0</ele><time>2026-04-22T09:46:57.327Z</time></trkpt><trkpt lat="39.4042031" lon="8.5541182"><ele>603.0</ele><time>2026-04-22T09:46:58.327Z</time></trkpt><trkpt lat="39.4041222" lon="8.554329"><ele>603.0</ele><time>2026-04-22T09:47:00.327Z</time></trkpt><trkpt lat="39.4041038" lon="8.5544191"><ele>603.0</ele><time>2026-04-22T09:47:01.327Z</time></trkpt><trkpt lat="39.4041044" lon="8.5545022"><ele>603.0</ele><time>2026-04-22T09:47:02.327Z</time></trkpt><trkpt lat="39.4041505" lon="8.5546347"><ele>603.0</ele><time>2026-04-22T09:47:04.326Z</time></trkpt><trkpt lat="39.4041801" lon="8.554718"><ele>601.5</ele><time>2026-04-22T09:47:05.326Z</time></trkpt><trkpt lat="39.4042044" lon="8.5548149"><ele>600.0</ele><time>2026-04-22T09:47:06.327Z</time></trkpt><trkpt lat="39.4042231" lon="8.5549077"><ele>598.5</ele><time>2026-04-22T09:47:07.326Z</time></trkpt><trkpt lat="39.404241" lon="8.5550395"><ele>597.0</ele><time>2026-04-22T09:47:09.326Z</time></trkpt><trkpt lat="39.4041978" lon="8.5551396"><ele>595.5</ele><time>2026-04-22T09:47:11.327Z</time></trkpt><trkpt lat="39.4041386" lon="8.5551762"><ele>594.0</ele><time>2026-04-22T09:47:13.326Z</time></trkpt><trkpt lat="39.4040786" lon="8.5551124"><ele>594.0</ele><time>2026-04-22T09:47:15.326Z</time></trkpt><trkpt lat="39.4040681" lon="8.5549839"><ele>594.0</ele><time>2026-04-22T09:47:17.326Z</time></trkpt><trkpt lat="39.4040612" lon="8.5548621"><ele>594.0</ele><time>2026-04-22T09:47:19.327Z</time></trkpt><trkpt lat="39.4039248" lon="8.5547681"><ele>594.0</ele><time>2026-04-22T09:47:23.327Z</time></trkpt><trkpt lat="39.403871" lon="8.5548301"><ele>594.0</ele><time>2026-04-22T09:47:25.327Z</time></trkpt><trkpt lat="39.4039148" lon="8.5549077"><ele>594.0</ele><time>2026-04-22T09:47:28.327Z</time></trkpt><trkpt lat="39.4039702" lon="8.5549715"><ele>594.0</ele><time>2026-04-22T09:47:30.326Z</time></trkpt><trkpt lat="39.4040106" lon="8.555042"><ele>594.0</ele><time>2026-04-22T09:47:32.326Z</time></trkpt><trkpt lat="39.4040147" lon="8.5551572"><ele>594.0</ele><time>2026-04-22T09:47:35.327Z</time></trkpt><trkpt lat="39.4039652" lon="8.5552408"><ele>594.0</ele><time>2026-04-22T09:47:37.326Z</time></trkpt><trkpt lat="39.403903" lon="8.5553561"><ele>594.0</ele><time>2026-04-22T09:47:39.327Z</time></trkpt><trkpt lat="39.4038631" lon="8.555433"><ele>594.2</ele><time>2026-04-22T09:47:40.327Z</time></trkpt><trkpt lat="39.4037666" lon="8.5555735"><ele>594.4</ele><time>2026-04-22T09:47:42.327Z</time></trkpt><trkpt lat="39.4037165" lon="8.555629"><ele>594.6</ele><time>2026-04-22T09:47:43.327Z</time></trkpt><trkpt lat="39.4036187" lon="8.5557378"><ele>594.8</ele><time>2026-04-22T09:47:45.327Z</time></trkpt><trkpt lat="39.4035659" lon="8.5557923"><ele>595.0</ele><time>2026-04-22T09:47:46.327Z</time></trkpt><trkpt lat="39.4035108" lon="8.5558499"><ele>595.0</ele><time>2026-04-22T09:47:47.326Z</time></trkpt><trkpt lat="39.4034575" lon="8.5559074"><ele>595.0</ele><time>2026-04-22T09:47:48.326Z</time></trkpt><trkpt lat="39.4034005" lon="8.5559538"><ele>595.0</ele><time>2026-04-22T09:47:49.327Z</time></trkpt><trkpt lat="39.403344" lon="8.55599"><ele>595.0</ele><time>2026-04-22T09:47:50.326Z</time></trkpt><trkpt lat="39.4032552" lon="8.5560488"><ele>595.0</ele><time>2026-04-22T09:47:52.327Z</time></trkpt><trkpt lat="39.4031905" lon="8.5560585"><ele>595.0</ele><time>2026-04-22T09:47:54.326Z</time></trkpt><trkpt lat="39.4031121" lon="8.5559952"><ele>595.0</ele><time>2026-04-22T09:47:57.326Z</time></trkpt><trkpt lat="39.4030717" lon="8.5559083"><ele>595.0</ele><time>2026-04-22T09:47:59.327Z</time></trkpt><trkpt lat="39.4030236" lon="8.5557719"><ele>595.0</ele><time>2026-04-22T09:48:01.327Z</time></trkpt><trkpt lat="39.4029618" lon="8.5556182"><ele>595.0</ele><time>2026-04-22T09:48:03.327Z</time></trkpt><trkpt lat="39.4029243" lon="8.5555364"><ele>595.0</ele><time>2026-04-22T09:48:04.327Z</time></trkpt><trkpt lat="39.4028906" lon="8.5554531"><ele>595.7142857142857</ele><time>2026-04-22T09:48:05.326Z</time></trkpt><trkpt lat="39.402856" lon="8.5553739"><ele>596.4285714285714</ele><time>2026-04-22T09:48:06.326Z</time></trkpt><trkpt lat="39.4028141" lon="8.5553095"><ele>597.1428571428571</ele><time>2026-04-22T09:48:07.327Z</time></trkpt><trkpt lat="39.4027606" lon="8.5552612"><ele>597.8571428571429</ele><time>2026-04-22T09:48:08.327Z</time></trkpt><trkpt lat="39.4027022" lon="8.555219"><ele>598.5714285714286</ele><time>2026-04-22T09:48:09.326Z</time></trkpt><trkpt lat="39.402643" lon="8.5551789"><ele>599.2857142857142</ele><time>2026-04-22T09:48:10.327Z</time></trkpt><trkpt lat="39.4025734" lon="8.5551583"><ele>600.0</ele><time>2026-04-22T09:48:11.326Z</time></trkpt><trkpt lat="39.402496" lon="8.5551559"><ele>602.1666666666666</ele><time>2026-04-22T09:48:12.327Z</time></trkpt><trkpt lat="39.4024142" lon="8.5551598"><ele>604.3333333333334</ele><time>2026-04-22T09:48:13.327Z</time></trkpt><trkpt lat="39.4023279" lon="8.5551691"><ele>606.5</ele><time>2026-04-22T09:48:14.326Z</time></trkpt><trkpt lat="39.4022434" lon="8.5551828"><ele>608.6666666666667</ele><time>2026-04-22T09:48:15.326Z</time></trkpt><trkpt lat="39.4021595" lon="8.555202"><ele>610.8333333333334</ele><time>2026-04-22T09:48:16.327Z</time></trkpt><trkpt lat="39.4020847" lon="8.5552217"><ele>613.0</ele><time>2026-04-22T09:48:17.327Z</time></trkpt><trkpt lat="39.4020157" lon="8.5552443"><ele>611.6</ele><time>2026-04-22T09:48:18.327Z</time></trkpt><trkpt lat="39.4019483" lon="8.5552748"><ele>610.1999999999999</ele><time>2026-04-22T09:48:19.326Z</time></trkpt><trkpt lat="39.4018878" lon="8.5553077"><ele>608.8</ele><time>2026-04-22T09:48:20.326Z</time></trkpt><trkpt lat="39.4017977" lon="8.5553549"><ele>607.4</ele><time>2026-04-22T09:48:22.326Z</time></trkpt><trkpt lat="39.4016398" lon="8.5554225"><ele>606.0</ele><time>2026-04-22T09:48:26.326Z</time></trkpt><trkpt lat="39.4015361" lon="8.5555186"><ele>606.0</ele><time>2026-04-22T09:48:28.327Z</time></trkpt><trkpt lat="39.4014761" lon="8.5555785"><ele>606.0</ele><time>2026-04-22T09:48:29.327Z</time></trkpt><trkpt lat="39.4014153" lon="8.5556372"><ele>606.0</ele><time>2026-04-22T09:48:30.327Z</time></trkpt><trkpt lat="39.4013426" lon="8.5556942"><ele>606.0</ele><time>2026-04-22T09:48:31.327Z</time></trkpt><trkpt lat="39.4012669" lon="8.5557565"><ele>606.0</ele><time>2026-04-22T09:48:32.326Z</time></trkpt><trkpt lat="39.4011919" lon="8.5558164"><ele>606.0</ele><time>2026-04-22T09:48:33.327Z</time></trkpt><trkpt lat="39.4011188" lon="8.555867"><ele>607.8333333333334</ele><time>2026-04-22T09:48:34.327Z</time></trkpt><trkpt lat="39.4010388" lon="8.555921"><ele>609.6666666666666</ele><time>2026-04-22T09:48:35.327Z</time></trkpt><trkpt lat="39.4009545" lon="8.5559768"><ele>611.5</ele><time>2026-04-22T09:48:36.326Z</time></trkpt><trkpt lat="39.4008695" lon="8.5560227"><ele>613.3333333333333</ele><time>2026-04-22T09:48:37.326Z</time></trkpt><trkpt lat="39.4007967" lon="8.5560575"><ele>615.1666666666666</ele><time>2026-04-22T09:48:38.327Z</time></trkpt><trkpt lat="39.4007214" lon="8.556099"><ele>617.0</ele><time>2026-04-22T09:48:39.327Z</time></trkpt><trkpt lat="39.400649" lon="8.5561307"><ele>617.0</ele><time>2026-04-22T09:48:40.327Z</time></trkpt><trkpt lat="39.4005763" lon="8.5561628"><ele>617.0</ele><time>2026-04-22T09:48:41.327Z</time></trkpt><trkpt lat="39.4005019" lon="8.5561842"><ele>617.0</ele><time>2026-04-22T09:48:42.326Z</time></trkpt><trkpt lat="39.4004316" lon="8.556184"><ele>617.0</ele><time>2026-04-22T09:48:43.326Z</time></trkpt><trkpt lat="39.4002914" lon="8.5561527"><ele>617.0</ele><time>2026-04-22T09:48:45.327Z</time></trkpt><trkpt lat="39.4002239" lon="8.5561469"><ele>617.0</ele><time>2026-04-22T09:48:46.327Z</time></trkpt><trkpt lat="39.4001317" lon="8.5562299"><ele>612.1666666666666</ele><time>2026-04-22T09:48:48.326Z</time></trkpt><trkpt lat="39.400118" lon="8.5563152"><ele>607.3333333333333</ele><time>2026-04-22T09:48:49.326Z</time></trkpt><trkpt lat="39.4001232" lon="8.5564102"><ele>602.5</ele><time>2026-04-22T09:48:50.327Z</time></trkpt><trkpt lat="39.4001473" lon="8.5565226"><ele>597.6666666666666</ele><time>2026-04-22T09:48:51.326Z</time></trkpt><trkpt lat="39.4001912" lon="8.5566534"><ele>592.8333333333334</ele><time>2026-04-22T09:48:52.326Z</time></trkpt><trkpt lat="39.4002408" lon="8.5567747"><ele>588.0</ele><time>2026-04-22T09:48:53.327Z</time></trkpt><trkpt lat="39.4002877" lon="8.5568937"><ele>588.0</ele><time>2026-04-22T09:48:54.326Z</time></trkpt><trkpt lat="39.4003361" lon="8.5570141"><ele>588.0</ele><time>2026-04-22T09:48:55.326Z</time></trkpt><trkpt lat="39.4003792" lon="8.5571281"><ele>588.0</ele><time>2026-04-22T09:48:56.326Z</time></trkpt><trkpt lat="39.4004163" lon="8.5572515"><ele>588.0</ele><time>2026-04-22T09:48:57.326Z</time></trkpt><trkpt lat="39.4004469" lon="8.5573736"><ele>588.0</ele><time>2026-04-22T09:48:58.327Z</time></trkpt><trkpt lat="39.400479" lon="8.5574879"><ele>587.0</ele><time>2026-04-22T09:48:59.327Z</time></trkpt><trkpt lat="39.4005067" lon="8.55759"><ele>586.0</ele><time>2026-04-22T09:49:00.327Z</time></trkpt><trkpt lat="39.4005342" lon="8.5576966"><ele>585.0</ele><time>2026-04-22T09:49:01.326Z</time></trkpt><trkpt lat="39.4005669" lon="8.5578192"><ele>584.0</ele><time>2026-04-22T09:49:02.327Z</time></trkpt><trkpt lat="39.400606" lon="8.5579502"><ele>583.0</ele><time>2026-04-22T09:49:03.327Z</time></trkpt><trkpt lat="39.4006461" lon="8.5580833"><ele>583.0</ele><time>2026-04-22T09:49:04.326Z</time></trkpt><trkpt lat="39.4007179" lon="8.5583172"><ele>583.0</ele><time>2026-04-22T09:49:06.327Z</time></trkpt><trkpt lat="39.4007581" lon="8.5584174"><ele>583.0</ele><time>2026-04-22T09:49:07.327Z</time></trkpt><trkpt lat="39.4008015" lon="8.558504"><ele>583.0</ele><time>2026-04-22T09:49:08.326Z</time></trkpt><trkpt lat="39.4008438" lon="8.5585914"><ele>583.0</ele><time>2026-04-22T09:49:09.327Z</time></trkpt><trkpt lat="39.400874" lon="8.5586742"><ele>581.5714285714287</ele><time>2026-04-22T09:49:10.327Z</time></trkpt><trkpt lat="39.4008978" lon="8.558756"><ele>580.1428571428571</ele><time>2026-04-22T09:49:11.327Z</time></trkpt><trkpt lat="39.4009167" lon="8.558839"><ele>578.7142857142858</ele><time>2026-04-22T09:49:12.326Z</time></trkpt><trkpt lat="39.4009377" lon="8.5589286"><ele>577.2857142857143</ele><time>2026-04-22T09:49:13.326Z</time></trkpt><trkpt lat="39.4009654" lon="8.5590123"><ele>575.8571428571429</ele><time>2026-04-22T09:49:14.327Z</time></trkpt><trkpt lat="39.400997" lon="8.5590937"><ele>574.4285714285714</ele><time>2026-04-22T09:49:15.327Z</time></trkpt><trkpt lat="39.401037" lon="8.5591718"><ele>573.0</ele><time>2026-04-22T09:49:16.326Z</time></trkpt><trkpt lat="39.4010855" lon="8.5592393"><ele>573.0</ele><time>2026-04-22T09:49:17.326Z</time></trkpt><trkpt lat="39.4011391" lon="8.5592968"><ele>573.0</ele><time>2026-04-22T09:49:18.326Z</time></trkpt><trkpt lat="39.4012288" lon="8.5593823"><ele>573.0</ele><time>2026-04-22T09:49:20.327Z</time></trkpt><trkpt lat="39.4012619" lon="8.5595054"><ele>573.0</ele><time>2026-04-22T09:49:22.326Z</time></trkpt><trkpt lat="39.4012392" lon="8.5596415"><ele>573.0</ele><time>2026-04-22T09:49:24.327Z</time></trkpt><trkpt lat="39.4012074" lon="8.559776"><ele>573.0</ele><time>2026-04-22T09:49:26.326Z</time></trkpt><trkpt lat="39.4010745" lon="8.5598198"><ele>573.0</ele><time>2026-04-22T09:49:31.327Z</time></trkpt><trkpt lat="39.4010853" lon="8.5597297"><ele>573.0</ele><time>2026-04-22T09:49:33.326Z</time></trkpt><trkpt lat="39.4011295" lon="8.5596389"><ele>573.0</ele><time>2026-04-22T09:49:35.327Z</time></trkpt><trkpt lat="39.4011588" lon="8.55954"><ele>573.0</ele><time>2026-04-22T09:49:37.326Z</time></trkpt><trkpt lat="39.4011359" lon="8.5594523"><ele>573.0</ele><time>2026-04-22T09:49:39.326Z</time></trkpt><trkpt lat="39.4010792" lon="8.5593798"><ele>573.0</ele><time>2026-04-22T09:49:41.327Z</time></trkpt><trkpt lat="39.4010185" lon="8.5593268"><ele>573.0</ele><time>2026-04-22T09:49:43.326Z</time></trkpt><trkpt lat="39.4009063" lon="8.5592333"><ele>573.0</ele><time>2026-04-22T09:49:47.326Z</time></trkpt><trkpt lat="39.4007963" lon="8.5591166"><ele>573.0</ele><time>2026-04-22T09:49:51.327Z</time></trkpt><trkpt lat="39.4007394" lon="8.5590253"><ele>573.0</ele><time>2026-04-22T09:49:53.327Z</time></trkpt><trkpt lat="39.4006764" lon="8.5589805"><ele>573.0</ele><time>2026-04-22T09:49:55.327Z</time></trkpt><trkpt lat="39.4005952" lon="8.5589164"><ele>573.0</ele><time>2026-04-22T09:49:57.327Z</time></trkpt><trkpt lat="39.4005132" lon="8.5588419"><ele>573.0</ele><time>2026-04-22T09:49:59.327Z</time></trkpt><trkpt lat="39.4004366" lon="8.5587829"><ele>573.0</ele><time>2026-04-22T09:50:01.326Z</time></trkpt><trkpt lat="39.4003532" lon="8.5587659"><ele>573.0</ele><time>2026-04-22T09:50:03.327Z</time></trkpt><trkpt lat="39.400281" lon="8.5587759"><ele>573.0</ele><time>2026-04-22T09:50:05.327Z</time></trkpt><trkpt lat="39.4002" lon="8.5587574"><ele>570.6</ele><time>2026-04-22T09:50:08.327Z</time></trkpt><trkpt lat="39.4000451" lon="8.5585827"><ele>568.1999999999999</ele><time>2026-04-22T09:50:12.327Z</time></trkpt><trkpt lat="39.3999828" lon="8.5585444"><ele>565.8</ele><time>2026-04-22T09:50:13.327Z</time></trkpt><trkpt lat="39.3999146" lon="8.5585164"><ele>563.4</ele><time>2026-04-22T09:50:14.327Z</time></trkpt><trkpt lat="39.3998457" lon="8.5584932"><ele>561.0</ele><time>2026-04-22T09:50:15.327Z</time></trkpt><trkpt lat="39.3997771" lon="8.5584715"><ele>561.0</ele><time>2026-04-22T09:50:16.327Z</time></trkpt><trkpt lat="39.399716" lon="8.5584479"><ele>561.0</ele><time>2026-04-22T09:50:17.327Z</time></trkpt><trkpt lat="39.3996534" lon="8.5584179"><ele>561.0</ele><time>2026-04-22T09:50:18.327Z</time></trkpt><trkpt lat="39.399593" lon="8.5583849"><ele>561.0</ele><time>2026-04-22T09:50:19.327Z</time></trkpt><trkpt lat="39.3995365" lon="8.5583478"><ele>561.0</ele><time>2026-04-22T09:50:20.327Z</time></trkpt><trkpt lat="39.3994585" lon="8.5582472"><ele>561.0</ele><time>2026-04-22T09:50:22.327Z</time></trkpt><trkpt lat="39.3994108" lon="8.5581033"><ele>558.6666666666666</ele><time>2026-04-22T09:50:24.326Z</time></trkpt><trkpt lat="39.3993977" lon="8.5580202"><ele>556.3333333333334</ele><time>2026-04-22T09:50:25.327Z</time></trkpt><trkpt lat="39.3993867" lon="8.5579259"><ele>554.0</ele><time>2026-04-22T09:50:26.327Z</time></trkpt><trkpt lat="39.3993726" lon="8.5578299"><ele>551.6666666666667</ele><time>2026-04-22T09:50:27.326Z</time></trkpt><trkpt lat="39.3993502" lon="8.5577414"><ele>549.3333333333334</ele><time>2026-04-22T09:50:28.327Z</time></trkpt><trkpt lat="39.3993137" lon="8.5576615"><ele>547.0</ele><time>2026-04-22T09:50:29.326Z</time></trkpt><trkpt lat="39.3992062" lon="8.5574802"><ele>547.0</ele><time>2026-04-22T09:50:31.327Z</time></trkpt><trkpt lat="39.3991405" lon="8.5573872"><ele>547.0</ele><time>2026-04-22T09:50:32.327Z</time></trkpt><trkpt lat="39.3990703" lon="8.5573034"><ele>547.0</ele><time>2026-04-22T09:50:33.327Z</time></trkpt><trkpt lat="39.3990033" lon="8.5572206"><ele>547.0</ele><time>2026-04-22T09:50:34.326Z</time></trkpt><trkpt lat="39.3989478" lon="8.5571398"><ele>547.0</ele><time>2026-04-22T09:50:35.327Z</time></trkpt><trkpt lat="39.3988981" lon="8.5570586"><ele>547.0</ele><time>2026-04-22T09:50:36.326Z</time></trkpt><trkpt lat="39.3988481" lon="8.5569856"><ele>547.1428571428571</ele><time>2026-04-22T09:50:37.327Z</time></trkpt><trkpt lat="39.398793" lon="8.5569178"><ele>547.2857142857142</ele><time>2026-04-22T09:50:38.327Z</time></trkpt><trkpt lat="39.3987364" lon="8.5568673"><ele>547.4285714285714</ele><time>2026-04-22T09:50:39.326Z</time></trkpt><trkpt lat="39.3986784" lon="8.5568261"><ele>547.5714285714286</ele><time>2026-04-22T09:50:40.327Z</time></trkpt><trkpt lat="39.3986199" lon="8.5567942"><ele>547.7142857142858</ele><time>2026-04-22T09:50:41.327Z</time></trkpt><trkpt lat="39.3985627" lon="8.556758"><ele>547.8571428571429</ele><time>2026-04-22T09:50:42.327Z</time></trkpt><trkpt lat="39.3985052" lon="8.5567143"><ele>548.0</ele><time>2026-04-22T09:50:43.327Z</time></trkpt><trkpt lat="39.3984443" lon="8.5566716"><ele>548.0</ele><time>2026-04-22T09:50:44.327Z</time></trkpt><trkpt lat="39.398384" lon="8.5566165"><ele>548.0</ele><time>2026-04-22T09:50:45.327Z</time></trkpt><trkpt lat="39.3983252" lon="8.55654"><ele>548.0</ele><time>2026-04-22T09:50:46.327Z</time></trkpt><trkpt lat="39.3982729" lon="8.5564436"><ele>548.0</ele><time>2026-04-22T09:50:47.327Z</time></trkpt><trkpt lat="39.3982238" lon="8.5563277"><ele>548.0</ele><time>2026-04-22T09:50:48.327Z</time></trkpt><trkpt lat="39.3981834" lon="8.5561941"><ele>548.5</ele><time>2026-04-22T09:50:49.327Z</time></trkpt><trkpt lat="39.3981393" lon="8.5560651"><ele>549.0</ele><time>2026-04-22T09:50:50.327Z</time></trkpt><trkpt lat="39.3980568" lon="8.555828"><ele>549.5</ele><time>2026-04-22T09:50:52.327Z</time></trkpt><trkpt lat="39.3980194" lon="8.5557267"><ele>550.0</ele><time>2026-04-22T09:50:53.327Z</time></trkpt><trkpt lat="39.3979846" lon="8.5556222"><ele>550.1666666666667</ele><time>2026-04-22T09:50:54.327Z</time></trkpt><trkpt lat="39.3979504" lon="8.5555185"><ele>550.3333333333334</ele><time>2026-04-22T09:50:55.326Z</time></trkpt><trkpt lat="39.3979264" lon="8.5554116"><ele>550.5</ele><time>2026-04-22T09:50:56.327Z</time></trkpt><trkpt lat="39.3979105" lon="8.5553089"><ele>550.6666666666666</ele><time>2026-04-22T09:50:57.326Z</time></trkpt><trkpt lat="39.3978992" lon="8.5552088"><ele>550.8333333333333</ele><time>2026-04-22T09:50:58.326Z</time></trkpt><trkpt lat="39.3978862" lon="8.555118"><ele>551.0</ele><time>2026-04-22T09:50:59.327Z</time></trkpt><trkpt lat="39.3978725" lon="8.5550297"><ele>549.8333333333333</ele><time>2026-04-22T09:51:00.327Z</time></trkpt><trkpt lat="39.3978585" lon="8.5549432"><ele>548.6666666666666</ele><time>2026-04-22T09:51:01.326Z</time></trkpt><trkpt lat="39.3978454" lon="8.5548529"><ele>547.5</ele><time>2026-04-22T09:51:02.327Z</time></trkpt><trkpt lat="39.3978271" lon="8.5547606"><ele>546.3333333333334</ele><time>2026-04-22T09:51:03.327Z</time></trkpt><trkpt lat="39.3978086" lon="8.554665"><ele>545.1666666666667</ele><time>2026-04-22T09:51:04.327Z</time></trkpt><trkpt lat="39.3977901" lon="8.5545605"><ele>544.0</ele><time>2026-04-22T09:51:05.327Z</time></trkpt><trkpt lat="39.3977743" lon="8.5544508"><ele>544.0</ele><time>2026-04-22T09:51:06.326Z</time></trkpt><trkpt lat="39.3977604" lon="8.554344"><ele>544.0</ele><time>2026-04-22T09:51:07.326Z</time></trkpt><trkpt lat="39.3977478" lon="8.5542386"><ele>544.0</ele><time>2026-04-22T09:51:08.327Z</time></trkpt><trkpt lat="39.3977302" lon="8.5541418"><ele>544.0</ele><time>2026-04-22T09:51:09.326Z</time></trkpt><trkpt lat="39.3977027" lon="8.5540525"><ele>544.0</ele><time>2026-04-22T09:51:10.327Z</time></trkpt><trkpt lat="39.3976651" lon="8.5539764"><ele>544.0</ele><time>2026-04-22T09:51:11.326Z</time></trkpt><trkpt lat="39.3975752" lon="8.5538283"><ele>544.0</ele><time>2026-04-22T09:51:13.326Z</time></trkpt><trkpt lat="39.3975233" lon="8.5537535"><ele>544.0</ele><time>2026-04-22T09:51:14.327Z</time></trkpt><trkpt lat="39.3974689" lon="8.5536835"><ele>544.0</ele><time>2026-04-22T09:51:15.327Z</time></trkpt><trkpt lat="39.3974168" lon="8.5536025"><ele>544.0</ele><time>2026-04-22T09:51:16.327Z</time></trkpt><trkpt lat="39.397343" lon="8.5535185"><ele>544.0</ele><time>2026-04-22T09:51:17.326Z</time></trkpt><trkpt lat="39.3972635" lon="8.5534395"><ele>544.0</ele><time>2026-04-22T09:51:18.327Z</time></trkpt><trkpt lat="39.3971892" lon="8.5533744"><ele>543.8</ele><time>2026-04-22T09:51:19.327Z</time></trkpt><trkpt lat="39.3971356" lon="8.5533192"><ele>543.5999999999999</ele><time>2026-04-22T09:51:20.326Z</time></trkpt><trkpt lat="39.3970859" lon="8.5532009"><ele>543.4</ele><time>2026-04-22T09:51:22.327Z</time></trkpt><trkpt lat="39.3971222" lon="8.5530387"><ele>543.1999999999999</ele><time>2026-04-22T09:51:24.326Z</time></trkpt><trkpt lat="39.3971853" lon="8.5529412"><ele>543.0</ele><time>2026-04-22T09:51:25.327Z</time></trkpt><trkpt lat="39.3972706" lon="8.5528414"><ele>539.8333333333334</ele><time>2026-04-22T09:51:26.327Z</time></trkpt><trkpt lat="39.3973501" lon="8.5527399"><ele>536.6666666666666</ele><time>2026-04-22T09:51:27.326Z</time></trkpt><trkpt lat="39.3974137" lon="8.5526514"><ele>533.5</ele><time>2026-04-22T09:51:28.327Z</time></trkpt><trkpt lat="39.397465" lon="8.5525753"><ele>530.3333333333333</ele><time>2026-04-22T09:51:29.326Z</time></trkpt><trkpt lat="39.3974951" lon="8.5524966"><ele>527.1666666666666</ele><time>2026-04-22T09:51:30.327Z</time></trkpt><trkpt lat="39.3975115" lon="8.5524089"><ele>524.0</ele><time>2026-04-22T09:51:31.326Z</time></trkpt><trkpt lat="39.3975086" lon="8.5523095"><ele>524.0</ele><time>2026-04-22T09:51:32.327Z</time></trkpt><trkpt lat="39.3974654" lon="8.5520879"><ele>524.0</ele><time>2026-04-22T09:51:34.327Z</time></trkpt><trkpt lat="39.3974234" lon="8.5519745"><ele>524.0</ele><time>2026-04-22T09:51:35.327Z</time></trkpt><trkpt lat="39.3973746" lon="8.551868"><ele>524.0</ele><time>2026-04-22T09:51:36.327Z</time></trkpt><trkpt lat="39.3973246" lon="8.5517587"><ele>524.0</ele><time>2026-04-22T09:51:37.327Z</time></trkpt><trkpt lat="39.3972848" lon="8.5516487"><ele>524.0</ele><time>2026-04-22T09:51:38.325Z</time></trkpt><trkpt lat="39.3972455" lon="8.5515512"><ele>524.0</ele><time>2026-04-22T09:51:39.325Z</time></trkpt><trkpt lat="39.397201" lon="8.5514691"><ele>524.0</ele><time>2026-04-22T09:51:40.325Z</time></trkpt><trkpt lat="39.3971422" lon="8.5513876"><ele>524.0</ele><time>2026-04-22T09:51:41.325Z</time></trkpt><trkpt lat="39.3970674" lon="8.5513085"><ele>524.0</ele><time>2026-04-22T09:51:42.325Z</time></trkpt><trkpt lat="39.3969867" lon="8.5512267"><ele>519.5</ele><time>2026-04-22T09:51:43.325Z</time></trkpt><trkpt lat="39.3968919" lon="8.5511378"><ele>515.0</ele><time>2026-04-22T09:51:44.325Z</time></trkpt><trkpt lat="39.3968026" lon="8.5510453"><ele>510.5</ele><time>2026-04-22T09:51:45.326Z</time></trkpt><trkpt lat="39.3967156" lon="8.5509463"><ele>506.0</ele><time>2026-04-22T09:51:46.325Z</time></trkpt><trkpt lat="39.3966282" lon="8.550852"><ele>506.0</ele><time>2026-04-22T09:51:47.326Z</time></trkpt><trkpt lat="39.3965397" lon="8.5507498"><ele>506.0</ele><time>2026-04-22T09:51:48.325Z</time></trkpt><trkpt lat="39.3964535" lon="8.5506517"><ele>506.0</ele><time>2026-04-22T09:51:49.325Z</time></trkpt><trkpt lat="39.3963589" lon="8.5505585"><ele>506.0</ele><time>2026-04-22T09:51:50.326Z</time></trkpt><trkpt lat="39.3962635" lon="8.5504582"><ele>502.25</ele><time>2026-04-22T09:51:51.325Z</time></trkpt><trkpt lat="39.3961818" lon="8.5503575"><ele>498.5</ele><time>2026-04-22T09:51:52.326Z</time></trkpt><trkpt lat="39.3960996" lon="8.5502741"><ele>494.75</ele><time>2026-04-22T09:51:53.326Z</time></trkpt><trkpt lat="39.3959597" lon="8.5501177"><ele>491.0</ele><time>2026-04-22T09:51:55.326Z</time></trkpt><trkpt lat="39.3959024" lon="8.5500443"><ele>490.99999999999994</ele><time>2026-04-22T09:51:56.326Z</time></trkpt><trkpt lat="39.3958605" lon="8.5499739"><ele>491.0</ele><time>2026-04-22T09:51:57.326Z</time></trkpt><trkpt lat="39.395806" lon="8.5498418"><ele>491.0</ele><time>2026-04-22T09:51:59.325Z</time></trkpt><trkpt lat="39.3957433" lon="8.5497746"><ele>491.0</ele><time>2026-04-22T09:52:02.326Z</time></trkpt><trkpt lat="39.3956765" lon="8.5498178"><ele>490.99999999999994</ele><time>2026-04-22T09:52:04.325Z</time></trkpt><trkpt lat="39.3956209" lon="8.5499002"><ele>491.0</ele><time>2026-04-22T09:52:06.326Z</time></trkpt><trkpt lat="39.3955846" lon="8.5499912"><ele>491.0</ele><time>2026-04-22T09:52:09.325Z</time></trkpt><trkpt lat="39.3956556" lon="8.5500505"><ele>491.0</ele><time>2026-04-22T10:11:08.325Z</time></trkpt><trkpt lat="39.3956845" lon="8.5498353"><ele>491.0</ele><time>2026-04-22T10:11:13.325Z</time></trkpt><trkpt lat="39.3957228" lon="8.5497289"><ele>491.0</ele><time>2026-04-22T10:11:16.325Z</time></trkpt><trkpt lat="39.3957309" lon="8.5496379"><ele>491.0</ele><time>2026-04-22T10:11:18.325Z</time></trkpt><trkpt lat="39.3956784" lon="8.5494957"><ele>490.71428571428567</ele><time>2026-04-22T10:11:20.325Z</time></trkpt><trkpt lat="39.3956373" lon="8.5494121"><ele>490.4285714285714</ele><time>2026-04-22T10:11:21.324Z</time></trkpt><trkpt lat="39.3955953" lon="8.5493323"><ele>490.1428571428571</ele><time>2026-04-22T10:11:22.324Z</time></trkpt><trkpt lat="39.3955575" lon="8.5492516"><ele>489.8571428571429</ele><time>2026-04-22T10:11:23.324Z</time></trkpt><trkpt lat="39.395517" lon="8.5491768"><ele>489.5714285714286</ele><time>2026-04-22T10:11:24.325Z</time></trkpt><trkpt lat="39.395464" lon="8.5491137"><ele>489.28571428571433</ele><time>2026-04-22T10:11:25.325Z</time></trkpt><trkpt lat="39.3953974" lon="8.5490644"><ele>489.0</ele><time>2026-04-22T10:11:26.325Z</time></trkpt><trkpt lat="39.3953223" lon="8.5490251"><ele>489.0</ele><time>2026-04-22T10:11:27.324Z</time></trkpt><trkpt lat="39.3952372" lon="8.5489874"><ele>489.0</ele><time>2026-04-22T10:11:28.324Z</time></trkpt><trkpt lat="39.3951466" lon="8.5489564"><ele>489.0</ele><time>2026-04-22T10:11:29.325Z</time></trkpt><trkpt lat="39.3949494" lon="8.5488977"><ele>489.0</ele><time>2026-04-22T10:11:31.325Z</time></trkpt><trkpt lat="39.3948496" lon="8.5488605"><ele>489.0</ele><time>2026-04-22T10:11:32.324Z</time></trkpt><trkpt lat="39.3947468" lon="8.5488169"><ele>489.0</ele><time>2026-04-22T10:11:33.325Z</time></trkpt><trkpt lat="39.3946489" lon="8.5487807"><ele>489.0</ele><time>2026-04-22T10:11:34.325Z</time></trkpt><trkpt lat="39.3945614" lon="8.5487473"><ele>489.0</ele><time>2026-04-22T10:11:35.324Z</time></trkpt><trkpt lat="39.3944762" lon="8.548727"><ele>489.0</ele><time>2026-04-22T10:11:36.324Z</time></trkpt><trkpt lat="39.3943788" lon="8.5487197"><ele>490.79999999999995</ele><time>2026-04-22T10:11:37.325Z</time></trkpt><trkpt lat="39.3942745" lon="8.5487229"><ele>492.59999999999997</ele><time>2026-04-22T10:11:38.325Z</time></trkpt><trkpt lat="39.394164" lon="8.5487384"><ele>494.4</ele><time>2026-04-22T10:11:39.325Z</time></trkpt><trkpt lat="39.3940578" lon="8.5487626"><ele>496.2</ele><time>2026-04-22T10:11:40.325Z</time></trkpt><trkpt lat="39.3939627" lon="8.5487806"><ele>498.0</ele><time>2026-04-22T10:11:41.325Z</time></trkpt><trkpt lat="39.3938731" lon="8.5487991"><ele>499.4</ele><time>2026-04-22T10:11:42.324Z</time></trkpt><trkpt lat="39.3937765" lon="8.5488128"><ele>500.79999999999995</ele><time>2026-04-22T10:11:43.324Z</time></trkpt><trkpt lat="39.3936768" lon="8.5488196"><ele>502.2</ele><time>2026-04-22T10:11:44.325Z</time></trkpt><trkpt lat="39.3935754" lon="8.5488324"><ele>503.6</ele><time>2026-04-22T10:11:45.324Z</time></trkpt><trkpt lat="39.3934849" lon="8.5488484"><ele>505.0</ele><time>2026-04-22T10:11:46.325Z</time></trkpt><trkpt lat="39.393413" lon="8.5488614"><ele>505.0</ele><time>2026-04-22T10:11:47.325Z</time></trkpt><trkpt lat="39.3933179" lon="8.5488532"><ele>505.0</ele><time>2026-04-22T10:11:49.324Z</time></trkpt><trkpt lat="39.3932465" lon="8.5487793"><ele>505.0</ele><time>2026-04-22T10:11:51.325Z</time></trkpt><trkpt lat="39.393249" lon="8.5484747"><ele>505.0</ele><time>2026-04-22T10:11:55.325Z</time></trkpt><trkpt lat="39.3932898" lon="8.5484024"><ele>504.57142857142856</ele><time>2026-04-22T10:11:56.325Z</time></trkpt><trkpt lat="39.3933418" lon="8.5483263"><ele>504.1428571428571</ele><time>2026-04-22T10:11:57.325Z</time></trkpt><trkpt lat="39.3933923" lon="8.5482598"><ele>503.71428571428567</ele><time>2026-04-22T10:11:58.325Z</time></trkpt><trkpt lat="39.3934442" lon="8.5482082"><ele>503.2857142857142</ele><time>2026-04-22T10:11:59.325Z</time></trkpt><trkpt lat="39.3935102" lon="8.5481809"><ele>502.85714285714283</ele><time>2026-04-22T10:12:00.324Z</time></trkpt><trkpt lat="39.3935815" lon="8.5481715"><ele>502.42857142857133</ele><time>2026-04-22T10:12:01.325Z</time></trkpt><trkpt lat="39.393644" lon="8.5481558"><ele>501.99999999999994</ele><time>2026-04-22T10:12:02.325Z</time></trkpt><trkpt lat="39.3937266" lon="8.5480583"><ele>502.0</ele><time>2026-04-22T10:12:04.325Z</time></trkpt><trkpt lat="39.3936985" lon="8.5479049"><ele>502.00000000000006</ele><time>2026-04-22T10:12:06.325Z</time></trkpt><trkpt lat="39.3936447" lon="8.547817"><ele>502.00000000000006</ele><time>2026-04-22T10:12:07.325Z</time></trkpt><trkpt lat="39.3935792" lon="8.5477233"><ele>502.0</ele><time>2026-04-22T10:12:08.324Z</time></trkpt><trkpt lat="39.3935081" lon="8.5476355"><ele>502.0</ele><time>2026-04-22T10:12:09.324Z</time></trkpt><trkpt lat="39.3934392" lon="8.5475513"><ele>501.5</ele><time>2026-04-22T10:12:10.325Z</time></trkpt><trkpt lat="39.3933805" lon="8.547466"><ele>501.0</ele><time>2026-04-22T10:12:11.325Z</time></trkpt><trkpt lat="39.3933305" lon="8.5473769"><ele>500.5</ele><time>2026-04-22T10:12:12.325Z</time></trkpt><trkpt lat="39.3932417" lon="8.5471419"><ele>500.0</ele><time>2026-04-22T10:12:14.324Z</time></trkpt><trkpt lat="39.3932019" lon="8.547024"><ele>498.8333333333333</ele><time>2026-04-22T10:12:15.324Z</time></trkpt><trkpt lat="39.3931677" lon="8.5469123"><ele>497.66666666666663</ele><time>2026-04-22T10:12:16.325Z</time></trkpt><trkpt lat="39.3931439" lon="8.5468087"><ele>496.5</ele><time>2026-04-22T10:12:17.324Z</time></trkpt><trkpt lat="39.3931284" lon="8.5467073"><ele>495.33333333333337</ele><time>2026-04-22T10:12:18.324Z</time></trkpt><trkpt lat="39.3931301" lon="8.5466108"><ele>494.1666666666667</ele><time>2026-04-22T10:12:19.324Z</time></trkpt><trkpt lat="39.3931407" lon="8.5465106"><ele>493.0</ele><time>2026-04-22T10:12:20.325Z</time></trkpt><trkpt lat="39.3931649" lon="8.5464107"><ele>493.00000000000006</ele><time>2026-04-22T10:12:21.325Z</time></trkpt><trkpt lat="39.3931971" lon="8.5463099"><ele>493.0</ele><time>2026-04-22T10:12:22.325Z</time></trkpt><trkpt lat="39.3932385" lon="8.5462203"><ele>493.0</ele><time>2026-04-22T10:12:23.325Z</time></trkpt><trkpt lat="39.3932797" lon="8.5461397"><ele>493.0</ele><time>2026-04-22T10:12:24.324Z</time></trkpt><trkpt lat="39.3933148" lon="8.5460675"><ele>493.00000000000006</ele><time>2026-04-22T10:12:25.324Z</time></trkpt><trkpt lat="39.3933176" lon="8.5459089"><ele>493.0</ele><time>2026-04-22T10:12:27.325Z</time></trkpt><trkpt lat="39.3932862" lon="8.5458117"><ele>493.83333333333337</ele><time>2026-04-22T10:12:28.325Z</time></trkpt><trkpt lat="39.3932495" lon="8.5457056"><ele>494.6666666666667</ele><time>2026-04-22T10:12:29.324Z</time></trkpt><trkpt lat="39.3932181" lon="8.545598"><ele>495.5</ele><time>2026-04-22T10:12:30.325Z</time></trkpt><trkpt lat="39.3932021" lon="8.5454923"><ele>496.33333333333337</ele><time>2026-04-22T10:12:31.325Z</time></trkpt><trkpt lat="39.3932034" lon="8.5454042"><ele>497.1666666666667</ele><time>2026-04-22T10:12:32.325Z</time></trkpt><trkpt lat="39.3932533" lon="8.5452795"><ele>498.0</ele><time>2026-04-22T10:12:34.325Z</time></trkpt><trkpt lat="39.39342" lon="8.5451461"><ele>501.1666666666667</ele><time>2026-04-22T10:12:37.325Z</time></trkpt><trkpt lat="39.3934569" lon="8.5450744"><ele>504.33333333333337</ele><time>2026-04-22T10:12:38.324Z</time></trkpt><trkpt lat="39.3934705" lon="8.5449838"><ele>507.5</ele><time>2026-04-22T10:12:39.324Z</time></trkpt><trkpt lat="39.3934717" lon="8.5448808"><ele>510.6666666666667</ele><time>2026-04-22T10:12:40.324Z</time></trkpt><trkpt lat="39.3934839" lon="8.5447673"><ele>513.8333333333334</ele><time>2026-04-22T10:12:41.325Z</time></trkpt><trkpt lat="39.3935012" lon="8.5446525"><ele>517.0</ele><time>2026-04-22T10:12:42.324Z</time></trkpt><trkpt lat="39.3935319" lon="8.5445323"><ele>520.2</ele><time>2026-04-22T10:12:43.324Z</time></trkpt><trkpt lat="39.3935685" lon="8.5444139"><ele>523.4000000000001</ele><time>2026-04-22T10:12:44.325Z</time></trkpt><trkpt lat="39.3936062" lon="8.5442994"><ele>526.5999999999999</ele><time>2026-04-22T10:12:45.325Z</time></trkpt><trkpt lat="39.3936464" lon="8.5441878"><ele>529.8</ele><time>2026-04-22T10:12:46.325Z</time></trkpt><trkpt lat="39.3936879" lon="8.5440777"><ele>533.0</ele><time>2026-04-22T10:12:47.324Z</time></trkpt><trkpt lat="39.3937184" lon="8.5439593"><ele>533.0</ele><time>2026-04-22T10:12:48.325Z</time></trkpt><trkpt lat="39.3937434" lon="8.5438265"><ele>533.0</ele><time>2026-04-22T10:12:49.325Z</time></trkpt><trkpt lat="39.3937606" lon="8.5436898"><ele>533.0</ele><time>2026-04-22T10:12:50.325Z</time></trkpt><trkpt lat="39.3937687" lon="8.5435521"><ele>533.0</ele><time>2026-04-22T10:12:51.325Z</time></trkpt><trkpt lat="39.3937777" lon="8.5434206"><ele>533.0</ele><time>2026-04-22T10:12:52.325Z</time></trkpt><trkpt lat="39.3937953" lon="8.5432982"><ele>531.6</ele><time>2026-04-22T10:12:53.325Z</time></trkpt><trkpt lat="39.3938117" lon="8.5431886"><ele>530.1999999999999</ele><time>2026-04-22T10:12:54.325Z</time></trkpt><trkpt lat="39.3938353" lon="8.5430925"><ele>528.8</ele><time>2026-04-22T10:12:55.325Z</time></trkpt><trkpt lat="39.3939208" lon="8.5429399"><ele>527.4</ele><time>2026-04-22T10:12:57.325Z</time></trkpt><trkpt lat="39.393982" lon="8.5428982"><ele>526.0</ele><time>2026-04-22T10:12:58.325Z</time></trkpt><trkpt lat="39.3940558" lon="8.542871"><ele>526.0</ele><time>2026-04-22T10:12:59.325Z</time></trkpt><trkpt lat="39.3941335" lon="8.54284"><ele>526.0</ele><time>2026-04-22T10:13:00.325Z</time></trkpt><trkpt lat="39.3942033" lon="8.5427935"><ele>526.0</ele><time>2026-04-22T10:13:01.325Z</time></trkpt><trkpt lat="39.3942558" lon="8.5427266"><ele>526.0</ele><time>2026-04-22T10:13:02.325Z</time></trkpt><trkpt lat="39.3942948" lon="8.5426425"><ele>526.0</ele><time>2026-04-22T10:13:03.324Z</time></trkpt><trkpt lat="39.394309" lon="8.5425544"><ele>526.0</ele><time>2026-04-22T10:13:04.324Z</time></trkpt><trkpt lat="39.3943042" lon="8.5424688"><ele>526.0</ele><time>2026-04-22T10:13:05.325Z</time></trkpt><trkpt lat="39.3942792" lon="8.5423845"><ele>526.0</ele><time>2026-04-22T10:13:06.325Z</time></trkpt><trkpt lat="39.394238" lon="8.5422975"><ele>526.0</ele><time>2026-04-22T10:13:07.325Z</time></trkpt><trkpt lat="39.3941978" lon="8.5422026"><ele>526.0</ele><time>2026-04-22T10:13:08.325Z</time></trkpt><trkpt lat="39.3941632" lon="8.5421029"><ele>526.0</ele><time>2026-04-22T10:13:09.325Z</time></trkpt><trkpt lat="39.3941329" lon="8.5419943"><ele>526.0</ele><time>2026-04-22T10:13:10.325Z</time></trkpt><trkpt lat="39.3941013" lon="8.5418765"><ele>526.0</ele><time>2026-04-22T10:13:11.324Z</time></trkpt><trkpt lat="39.3940683" lon="8.5417594"><ele>528.0</ele><time>2026-04-22T10:13:12.324Z</time></trkpt><trkpt lat="39.3940378" lon="8.5416518"><ele>530.0</ele><time>2026-04-22T10:13:13.324Z</time></trkpt><trkpt lat="39.394005" lon="8.5415613"><ele>532.0</ele><time>2026-04-22T10:13:14.324Z</time></trkpt><trkpt lat="39.3939616" lon="8.5414842"><ele>534.0</ele><time>2026-04-22T10:13:15.324Z</time></trkpt><trkpt lat="39.3939135" lon="8.5414241"><ele>536.0</ele><time>2026-04-22T10:13:16.324Z</time></trkpt><trkpt lat="39.3937794" lon="8.5413746"><ele>538.0</ele><time>2026-04-22T10:13:18.324Z</time></trkpt><trkpt lat="39.3936893" lon="8.5413972"><ele>538.1999999999999</ele><time>2026-04-22T10:13:19.325Z</time></trkpt><trkpt lat="39.3935882" lon="8.5414402"><ele>538.4</ele><time>2026-04-22T10:13:20.324Z</time></trkpt><trkpt lat="39.3934781" lon="8.5414871"><ele>538.5999999999999</ele><time>2026-04-22T10:13:21.325Z</time></trkpt><trkpt lat="39.3933702" lon="8.5415345"><ele>538.8</ele><time>2026-04-22T10:13:22.325Z</time></trkpt><trkpt lat="39.3932704" lon="8.541565"><ele>539.0</ele><time>2026-04-22T10:13:23.325Z</time></trkpt><trkpt lat="39.3931817" lon="8.5415787"><ele>539.0</ele><time>2026-04-22T10:13:24.324Z</time></trkpt><trkpt lat="39.393096" lon="8.541572"><ele>539.0</ele><time>2026-04-22T10:13:25.324Z</time></trkpt><trkpt lat="39.3930133" lon="8.5415486"><ele>539.0</ele><time>2026-04-22T10:13:26.325Z</time></trkpt><trkpt lat="39.3929273" lon="8.5415004"><ele>539.0</ele><time>2026-04-22T10:13:27.324Z</time></trkpt><trkpt lat="39.3928309" lon="8.5414414"><ele>539.0</ele><time>2026-04-22T10:13:28.325Z</time></trkpt><trkpt lat="39.3927292" lon="8.5413714"><ele>540.6</ele><time>2026-04-22T10:13:29.325Z</time></trkpt><trkpt lat="39.3926228" lon="8.5412993"><ele>542.2</ele><time>2026-04-22T10:13:30.325Z</time></trkpt><trkpt lat="39.3925172" lon="8.541226"><ele>543.8000000000001</ele><time>2026-04-22T10:13:31.325Z</time></trkpt><trkpt lat="39.3924262" lon="8.5411642"><ele>545.4</ele><time>2026-04-22T10:13:32.325Z</time></trkpt><trkpt lat="39.3923424" lon="8.5411059"><ele>547.0</ele><time>2026-04-22T10:13:33.325Z</time></trkpt><trkpt lat="39.3922653" lon="8.5410421"><ele>544.5</ele><time>2026-04-22T10:13:34.324Z</time></trkpt><trkpt lat="39.3921881" lon="8.5409766"><ele>542.0</ele><time>2026-04-22T10:13:35.324Z</time></trkpt><trkpt lat="39.3921064" lon="8.5409263"><ele>539.5</ele><time>2026-04-22T10:13:36.324Z</time></trkpt><trkpt lat="39.3920229" lon="8.5408994"><ele>537.0</ele><time>2026-04-22T10:13:37.324Z</time></trkpt><trkpt lat="39.3918422" lon="8.5408953"><ele>537.0</ele><time>2026-04-22T10:13:39.324Z</time></trkpt><trkpt lat="39.391757" lon="8.5409081"><ele>537.0</ele><time>2026-04-22T10:13:40.324Z</time></trkpt><trkpt lat="39.3916711" lon="8.5409081"><ele>537.0</ele><time>2026-04-22T10:13:41.324Z</time></trkpt><trkpt lat="39.3915883" lon="8.5408933"><ele>537.0</ele><time>2026-04-22T10:13:42.324Z</time></trkpt><trkpt lat="39.3914996" lon="8.5408678"><ele>537.0</ele><time>2026-04-22T10:13:43.324Z</time></trkpt><trkpt lat="39.3914052" lon="8.5408314"><ele>537.0</ele><time>2026-04-22T10:13:44.324Z</time></trkpt><trkpt lat="39.3913083" lon="8.5407822"><ele>540.2</ele><time>2026-04-22T10:13:45.323Z</time></trkpt><trkpt lat="39.3912139" lon="8.5407322"><ele>543.4000000000001</ele><time>2026-04-22T10:13:46.323Z</time></trkpt><trkpt lat="39.3911244" lon="8.5406912"><ele>546.5999999999999</ele><time>2026-04-22T10:13:47.323Z</time></trkpt><trkpt lat="39.3910453" lon="8.5406556"><ele>549.8</ele><time>2026-04-22T10:13:48.324Z</time></trkpt><trkpt lat="39.3909745" lon="8.5406273"><ele>553.0</ele><time>2026-04-22T10:13:49.323Z</time></trkpt><trkpt lat="39.3908736" lon="8.5405623"><ele>553.0</ele><time>2026-04-22T10:13:51.323Z</time></trkpt><trkpt lat="39.3908205" lon="8.5404632"><ele>553.0</ele><time>2026-04-22T10:13:53.324Z</time></trkpt><trkpt lat="39.3908168" lon="8.5403004"><ele>553.0</ele><time>2026-04-22T10:13:55.324Z</time></trkpt><trkpt lat="39.3908317" lon="8.5402072"><ele>553.0</ele><time>2026-04-22T10:13:56.324Z</time></trkpt><trkpt lat="39.3908427" lon="8.5401168"><ele>553.0</ele><time>2026-04-22T10:13:57.324Z</time></trkpt><trkpt lat="39.3908364" lon="8.5400298"><ele>553.0</ele><time>2026-04-22T10:13:58.323Z</time></trkpt><trkpt lat="39.390757" lon="8.5399013"><ele>552.1999999999999</ele><time>2026-04-22T10:14:00.324Z</time></trkpt><trkpt lat="39.3906846" lon="8.5398756"><ele>551.4</ele><time>2026-04-22T10:14:01.324Z</time></trkpt><trkpt lat="39.3905945" lon="8.5398723"><ele>550.5999999999999</ele><time>2026-04-22T10:14:02.324Z</time></trkpt><trkpt lat="39.390494" lon="8.5398825"><ele>549.8</ele><time>2026-04-22T10:14:03.324Z</time></trkpt><trkpt lat="39.3903876" lon="8.5398974"><ele>549.0</ele><time>2026-04-22T10:14:04.324Z</time></trkpt><trkpt lat="39.3902763" lon="8.5399225"><ele>549.0</ele><time>2026-04-22T10:14:05.323Z</time></trkpt><trkpt lat="39.3901627" lon="8.5399645"><ele>549.0</ele><time>2026-04-22T10:14:06.324Z</time></trkpt><trkpt lat="39.3900452" lon="8.5400166"><ele>549.0</ele><time>2026-04-22T10:14:07.324Z</time></trkpt><trkpt lat="39.3899261" lon="8.5400672"><ele>549.0</ele><time>2026-04-22T10:14:08.323Z</time></trkpt><trkpt lat="39.389818" lon="8.5401067"><ele>549.0</ele><time>2026-04-22T10:14:09.323Z</time></trkpt><trkpt lat="39.389722" lon="8.5401385"><ele>549.0</ele><time>2026-04-22T10:14:10.324Z</time></trkpt><trkpt lat="39.3896412" lon="8.5401644"><ele>549.0</ele><time>2026-04-22T10:14:11.323Z</time></trkpt><trkpt lat="39.389557" lon="8.5401896"><ele>549.0</ele><time>2026-04-22T10:14:12.323Z</time></trkpt><trkpt lat="39.3894722" lon="8.5402104"><ele>549.0</ele><time>2026-04-22T10:14:13.324Z</time></trkpt><trkpt lat="39.389385" lon="8.5402259"><ele>549.0</ele><time>2026-04-22T10:14:14.324Z</time></trkpt><trkpt lat="39.3892946" lon="8.5402397"><ele>548.8</ele><time>2026-04-22T10:14:15.324Z</time></trkpt><trkpt lat="39.3892058" lon="8.5402523"><ele>548.5999999999999</ele><time>2026-04-22T10:14:16.324Z</time></trkpt><trkpt lat="39.3891175" lon="8.5402689"><ele>548.4</ele><time>2026-04-22T10:14:17.324Z</time></trkpt><trkpt lat="39.3890317" lon="8.5402849"><ele>548.1999999999999</ele><time>2026-04-22T10:14:18.324Z</time></trkpt><trkpt lat="39.3889479" lon="8.5403049"><ele>548.0</ele><time>2026-04-22T10:14:19.324Z</time></trkpt><trkpt lat="39.3888082" lon="8.5403207"><ele>547.0</ele><time>2026-04-22T10:14:21.324Z</time></trkpt><trkpt lat="39.3887386" lon="8.5402935"><ele>546.0</ele><time>2026-04-22T10:14:22.324Z</time></trkpt><trkpt lat="39.3886682" lon="8.5402359"><ele>545.0</ele><time>2026-04-22T10:14:23.323Z</time></trkpt><trkpt lat="39.388601" lon="8.5401511"><ele>544.0</ele><time>2026-04-22T10:14:24.324Z</time></trkpt><trkpt lat="39.3885292" lon="8.5400444"><ele>543.0</ele><time>2026-04-22T10:14:25.323Z</time></trkpt><trkpt lat="39.3884583" lon="8.5399287"><ele>543.0</ele><time>2026-04-22T10:14:26.324Z</time></trkpt><trkpt lat="39.3883843" lon="8.5398186"><ele>543.0</ele><time>2026-04-22T10:14:27.324Z</time></trkpt><trkpt lat="39.3883094" lon="8.5397239"><ele>543.0</ele><time>2026-04-22T10:14:28.324Z</time></trkpt><trkpt lat="39.3882337" lon="8.5396396"><ele>543.0</ele><time>2026-04-22T10:14:29.323Z</time></trkpt><trkpt lat="39.3881526" lon="8.5395653"><ele>543.0</ele><time>2026-04-22T10:14:30.323Z</time></trkpt><trkpt lat="39.3880539" lon="8.5395011"><ele>540.5</ele><time>2026-04-22T10:14:31.324Z</time></trkpt><trkpt lat="39.3879454" lon="8.5394446"><ele>538.0</ele><time>2026-04-22T10:14:32.323Z</time></trkpt><trkpt lat="39.3878299" lon="8.5393897"><ele>535.5</ele><time>2026-04-22T10:14:33.323Z</time></trkpt><trkpt lat="39.3877195" lon="8.5393371"><ele>533.0</ele><time>2026-04-22T10:14:34.324Z</time></trkpt><trkpt lat="39.3876192" lon="8.5392909"><ele>533.0</ele><time>2026-04-22T10:14:35.323Z</time></trkpt><trkpt lat="39.3875223" lon="8.5392544"><ele>533.0</ele><time>2026-04-22T10:14:36.324Z</time></trkpt><trkpt lat="39.3874241" lon="8.5392148"><ele>533.0</ele><time>2026-04-22T10:14:37.323Z</time></trkpt><trkpt lat="39.3873221" lon="8.5391757"><ele>533.0</ele><time>2026-04-22T10:14:38.324Z</time></trkpt><trkpt lat="39.3872135" lon="8.5391357"><ele>533.0</ele><time>2026-04-22T10:14:39.323Z</time></trkpt><trkpt lat="39.3871064" lon="8.5390919"><ele>534.0</ele><time>2026-04-22T10:14:40.323Z</time></trkpt><trkpt lat="39.3868912" lon="8.5390231"><ele>535.0</ele><time>2026-04-22T10:14:42.323Z</time></trkpt><trkpt lat="39.3867933" lon="8.5389979"><ele>536.0</ele><time>2026-04-22T10:14:43.324Z</time></trkpt><trkpt lat="39.3866988" lon="8.5389764"><ele>537.0</ele><time>2026-04-22T10:14:44.323Z</time></trkpt><trkpt lat="39.3866072" lon="8.5389443"><ele>537.0</ele><time>2026-04-22T10:14:45.323Z</time></trkpt><trkpt lat="39.3865174" lon="8.5388941"><ele>537.0</ele><time>2026-04-22T10:14:46.324Z</time></trkpt><trkpt lat="39.3864243" lon="8.5388285"><ele>537.0</ele><time>2026-04-22T10:14:47.323Z</time></trkpt><trkpt lat="39.3863299" lon="8.5387564"><ele>537.0</ele><time>2026-04-22T10:14:48.324Z</time></trkpt><trkpt lat="39.3862337" lon="8.5386851"><ele>537.0</ele><time>2026-04-22T10:14:49.324Z</time></trkpt><trkpt lat="39.3861431" lon="8.5386176"><ele>534.0</ele><time>2026-04-22T10:14:50.323Z</time></trkpt><trkpt lat="39.386053" lon="8.5385458"><ele>531.0</ele><time>2026-04-22T10:14:51.324Z</time></trkpt><trkpt lat="39.3859645" lon="8.5384736"><ele>528.0</ele><time>2026-04-22T10:14:52.323Z</time></trkpt><trkpt lat="39.3858748" lon="8.5384064"><ele>525.0</ele><time>2026-04-22T10:14:53.323Z</time></trkpt><trkpt lat="39.3857787" lon="8.5383394"><ele>522.0</ele><time>2026-04-22T10:14:54.324Z</time></trkpt><trkpt lat="39.3856769" lon="8.5382682"><ele>522.0</ele><time>2026-04-22T10:14:55.324Z</time></trkpt><trkpt lat="39.385569" lon="8.5381901"><ele>522.0</ele><time>2026-04-22T10:14:56.324Z</time></trkpt><trkpt lat="39.3854616" lon="8.5381158"><ele>522.0</ele><time>2026-04-22T10:14:57.324Z</time></trkpt><trkpt lat="39.3853536" lon="8.5380502"><ele>522.0</ele><time>2026-04-22T10:14:58.324Z</time></trkpt><trkpt lat="39.3852492" lon="8.5379891"><ele>521.25</ele><time>2026-04-22T10:14:59.324Z</time></trkpt><trkpt lat="39.3851411" lon="8.5379393"><ele>520.5</ele><time>2026-04-22T10:15:00.324Z</time></trkpt><trkpt lat="39.3850392" lon="8.5378906"><ele>519.75</ele><time>2026-04-22T10:15:01.323Z</time></trkpt><trkpt lat="39.3848569" lon="8.5377621"><ele>519.0</ele><time>2026-04-22T10:15:03.324Z</time></trkpt><trkpt lat="39.3847896" lon="8.5376726"><ele>518.0</ele><time>2026-04-22T10:15:04.324Z</time></trkpt><trkpt lat="39.3847266" lon="8.5375658"><ele>517.0</ele><time>2026-04-22T10:15:05.323Z</time></trkpt><trkpt lat="39.3846631" lon="8.5374433"><ele>516.0</ele><time>2026-04-22T10:15:06.323Z</time></trkpt><trkpt lat="39.3846036" lon="8.5373281"><ele>515.0</ele><time>2026-04-22T10:15:07.323Z</time></trkpt><trkpt lat="39.3845498" lon="8.5372289"><ele>514.0</ele><time>2026-04-22T10:15:08.324Z</time></trkpt><trkpt lat="39.3845021" lon="8.5371413"><ele>514.0</ele><time>2026-04-22T10:15:09.323Z</time></trkpt><trkpt lat="39.3844601" lon="8.5370614"><ele>514.0</ele><time>2026-04-22T10:15:10.324Z</time></trkpt><trkpt lat="39.3844086" lon="8.5369438"><ele>514.0</ele><time>2026-04-22T10:15:12.324Z</time></trkpt><trkpt lat="39.3844341" lon="8.5368531"><ele>514.0</ele><time>2026-04-22T10:15:14.324Z</time></trkpt><trkpt lat="39.384554" lon="8.5368264"><ele>514.0</ele><time>2026-04-22T10:15:16.323Z</time></trkpt><trkpt lat="39.3846426" lon="8.5368286"><ele>513.8</ele><time>2026-04-22T10:15:17.324Z</time></trkpt><trkpt lat="39.3847297" lon="8.5368176"><ele>513.5999999999999</ele><time>2026-04-22T10:15:18.324Z</time></trkpt><trkpt lat="39.384817" lon="8.5367941"><ele>513.4</ele><time>2026-04-22T10:15:19.323Z</time></trkpt><trkpt lat="39.3849089" lon="8.536751"><ele>513.1999999999999</ele><time>2026-04-22T10:15:20.323Z</time></trkpt><trkpt lat="39.3850087" lon="8.536687"><ele>513.0</ele><time>2026-04-22T10:15:21.324Z</time></trkpt><trkpt lat="39.3851129" lon="8.5366224"><ele>513.0</ele><time>2026-04-22T10:15:22.324Z</time></trkpt><trkpt lat="39.3853323" lon="8.5364978"><ele>513.0</ele><time>2026-04-22T10:15:24.324Z</time></trkpt><trkpt lat="39.3854475" lon="8.5364437"><ele>513.0</ele><time>2026-04-22T10:15:25.324Z</time></trkpt><trkpt lat="39.3855614" lon="8.5363945"><ele>512.4</ele><time>2026-04-22T10:15:26.324Z</time></trkpt><trkpt lat="39.3856642" lon="8.536347"><ele>511.79999999999995</ele><time>2026-04-22T10:15:27.323Z</time></trkpt><trkpt lat="39.385765" lon="8.5362969"><ele>511.2</ele><time>2026-04-22T10:15:28.324Z</time></trkpt><trkpt lat="39.3858676" lon="8.5362495"><ele>510.6</ele><time>2026-04-22T10:15:29.324Z</time></trkpt><trkpt lat="39.3859662" lon="8.5362087"><ele>510.0</ele><time>2026-04-22T10:15:30.323Z</time></trkpt><trkpt lat="39.3860721" lon="8.5361834"><ele>510.6</ele><time>2026-04-22T10:15:31.324Z</time></trkpt><trkpt lat="39.3861762" lon="8.5361778"><ele>511.2</ele><time>2026-04-22T10:15:32.323Z</time></trkpt><trkpt lat="39.3862725" lon="8.5361815"><ele>511.79999999999995</ele><time>2026-04-22T10:15:33.324Z</time></trkpt><trkpt lat="39.3863599" lon="8.5361794"><ele>512.4</ele><time>2026-04-22T10:15:34.324Z</time></trkpt><trkpt lat="39.3864392" lon="8.5361577"><ele>513.0</ele><time>2026-04-22T10:15:35.324Z</time></trkpt><trkpt lat="39.3865162" lon="8.5361184"><ele>513.0</ele><time>2026-04-22T10:15:36.323Z</time></trkpt><trkpt lat="39.3865867" lon="8.5360559"><ele>513.0</ele><time>2026-04-22T10:15:37.324Z</time></trkpt><trkpt lat="39.3866545" lon="8.5359707"><ele>513.0</ele><time>2026-04-22T10:15:38.324Z</time></trkpt><trkpt lat="39.3867193" lon="8.5358728"><ele>513.0</ele><time>2026-04-22T10:15:39.324Z</time></trkpt><trkpt lat="39.3867811" lon="8.5357733"><ele>513.0</ele><time>2026-04-22T10:15:40.324Z</time></trkpt><trkpt lat="39.3868384" lon="8.5356718"><ele>513.0</ele><time>2026-04-22T10:15:41.323Z</time></trkpt><trkpt lat="39.3868914" lon="8.5355664"><ele>513.0</ele><time>2026-04-22T10:15:42.323Z</time></trkpt><trkpt lat="39.3869352" lon="8.5354562"><ele>513.0</ele><time>2026-04-22T10:15:43.324Z</time></trkpt><trkpt lat="39.3869758" lon="8.5351934"><ele>513.0</ele><time>2026-04-22T10:15:45.324Z</time></trkpt><trkpt lat="39.3869676" lon="8.5350516"><ele>513.0</ele><time>2026-04-22T10:15:46.324Z</time></trkpt><trkpt lat="39.3869641" lon="8.5349041"><ele>513.0</ele><time>2026-04-22T10:15:47.323Z</time></trkpt><trkpt lat="39.386963" lon="8.5347563"><ele>513.0</ele><time>2026-04-22T10:15:48.323Z</time></trkpt><trkpt lat="39.386959" lon="8.5346277"><ele>513.0</ele><time>2026-04-22T10:15:49.323Z</time></trkpt><trkpt lat="39.3869567" lon="8.5345179"><ele>513.0</ele><time>2026-04-22T10:15:50.323Z</time></trkpt><trkpt lat="39.3869554" lon="8.534424"><ele>512.1999999999999</ele><time>2026-04-22T10:15:51.324Z</time></trkpt><trkpt lat="39.3869798" lon="8.5342905"><ele>511.4</ele><time>2026-04-22T10:15:53.324Z</time></trkpt><trkpt lat="39.3870353" lon="8.5341645"><ele>510.59999999999997</ele><time>2026-04-22T10:15:55.324Z</time></trkpt><trkpt lat="39.3870835" lon="8.5340824"><ele>509.79999999999995</ele><time>2026-04-22T10:15:56.323Z</time></trkpt><trkpt lat="39.387141" lon="8.533984"><ele>509.0</ele><time>2026-04-22T10:15:57.324Z</time></trkpt><trkpt lat="39.3871997" lon="8.5338825"><ele>510.99999999999994</ele><time>2026-04-22T10:15:58.324Z</time></trkpt><trkpt lat="39.3872511" lon="8.533793"><ele>513.0</ele><time>2026-04-22T10:15:59.323Z</time></trkpt><trkpt lat="39.3873108" lon="8.5337211"><ele>515.0</ele><time>2026-04-22T10:16:00.324Z</time></trkpt><trkpt lat="39.3873779" lon="8.5336812"><ele>517.0</ele><time>2026-04-22T10:16:01.324Z</time></trkpt><trkpt lat="39.3874546" lon="8.5336633"><ele>519.0</ele><time>2026-04-22T10:16:02.324Z</time></trkpt><trkpt lat="39.3875406" lon="8.5336704"><ele>521.0</ele><time>2026-04-22T10:16:03.324Z</time></trkpt><trkpt lat="39.3876305" lon="8.5336902"><ele>521.75</ele><time>2026-04-22T10:16:04.324Z</time></trkpt><trkpt lat="39.3878171" lon="8.5337497"><ele>522.5</ele><time>2026-04-22T10:16:06.323Z</time></trkpt><trkpt lat="39.3879165" lon="8.5337771"><ele>523.25</ele><time>2026-04-22T10:16:07.324Z</time></trkpt><trkpt lat="39.3880132" lon="8.5337996"><ele>524.0</ele><time>2026-04-22T10:16:08.323Z</time></trkpt><trkpt lat="39.3881078" lon="8.5338097"><ele>527.1666666666666</ele><time>2026-04-22T10:16:09.324Z</time></trkpt><trkpt lat="39.3881857" lon="8.5338067"><ele>530.3333333333333</ele><time>2026-04-22T10:16:10.324Z</time></trkpt><trkpt lat="39.3882471" lon="8.5337745"><ele>533.5</ele><time>2026-04-22T10:16:11.324Z</time></trkpt><trkpt lat="39.388305" lon="8.533643"><ele>536.6666666666666</ele><time>2026-04-22T10:16:13.324Z</time></trkpt><trkpt lat="39.3882919" lon="8.5335566"><ele>539.8333333333334</ele><time>2026-04-22T10:16:14.323Z</time></trkpt><trkpt lat="39.3882556" lon="8.533479"><ele>543.0</ele><time>2026-04-22T10:16:15.323Z</time></trkpt><trkpt lat="39.3881941" lon="8.5334049"><ele>543.0</ele><time>2026-04-22T10:16:16.324Z</time></trkpt><trkpt lat="39.3881101" lon="8.5333387"><ele>543.0</ele><time>2026-04-22T10:16:17.323Z</time></trkpt><trkpt lat="39.3880219" lon="8.5332847"><ele>543.0</ele><time>2026-04-22T10:16:18.324Z</time></trkpt><trkpt lat="39.3879471" lon="8.5332474"><ele>543.0</ele><time>2026-04-22T10:16:19.323Z</time></trkpt><trkpt lat="39.3878809" lon="8.5332077"><ele>543.0</ele><time>2026-04-22T10:16:20.323Z</time></trkpt><trkpt lat="39.3877997" lon="8.533096"><ele>539.0</ele><time>2026-04-22T10:16:22.324Z</time></trkpt><trkpt lat="39.3877832" lon="8.5330121"><ele>535.0</ele><time>2026-04-22T10:16:23.324Z</time></trkpt><trkpt lat="39.3877968" lon="8.5329103"><ele>531.0</ele><time>2026-04-22T10:16:24.324Z</time></trkpt><trkpt lat="39.3878256" lon="8.5327906"><ele>527.0</ele><time>2026-04-22T10:16:25.324Z</time></trkpt><trkpt lat="39.3878477" lon="8.5325462"><ele>523.0</ele><time>2026-04-22T10:16:27.324Z</time></trkpt><trkpt lat="39.3878421" lon="8.5324348"><ele>523.0</ele><time>2026-04-22T10:16:28.324Z</time></trkpt><trkpt lat="39.3878459" lon="8.5323305"><ele>523.0</ele><time>2026-04-22T10:16:29.323Z</time></trkpt><trkpt lat="39.3878587" lon="8.5322276"><ele>523.0</ele><time>2026-04-22T10:16:30.324Z</time></trkpt><trkpt lat="39.3878759" lon="8.532129"><ele>523.0</ele><time>2026-04-22T10:16:31.324Z</time></trkpt><trkpt lat="39.3878836" lon="8.5320392"><ele>523.0</ele><time>2026-04-22T10:16:32.324Z</time></trkpt><trkpt lat="39.3878724" lon="8.5319501"><ele>523.0</ele><time>2026-04-22T10:16:33.323Z</time></trkpt><trkpt lat="39.3878446" lon="8.5318653"><ele>525.3333333333334</ele><time>2026-04-22T10:16:34.324Z</time></trkpt><trkpt lat="39.3877977" lon="8.5318003"><ele>527.6666666666667</ele><time>2026-04-22T10:16:35.323Z</time></trkpt><trkpt lat="39.3877289" lon="8.5317595"><ele>530.0</ele><time>2026-04-22T10:16:36.323Z</time></trkpt><trkpt lat="39.3876436" lon="8.53173"><ele>532.3333333333334</ele><time>2026-04-22T10:16:37.324Z</time></trkpt><trkpt lat="39.3875514" lon="8.5317048"><ele>534.6666666666666</ele><time>2026-04-22T10:16:38.323Z</time></trkpt><trkpt lat="39.3874658" lon="8.5316829"><ele>537.0</ele><time>2026-04-22T10:16:39.324Z</time></trkpt><trkpt lat="39.3873779" lon="8.5316503"><ele>537.0</ele><time>2026-04-22T10:16:40.323Z</time></trkpt><trkpt lat="39.3873109" lon="8.5316261"><ele>537.0</ele><time>2026-04-22T10:16:41.323Z</time></trkpt><trkpt lat="39.3872224" lon="8.5315605"><ele>537.0</ele><time>2026-04-22T10:16:43.324Z</time></trkpt><trkpt lat="39.387198" lon="8.5314344"><ele>537.0</ele><time>2026-04-22T10:16:45.323Z</time></trkpt><trkpt lat="39.3872152" lon="8.5313408"><ele>537.0</ele><time>2026-04-22T10:16:46.324Z</time></trkpt><trkpt lat="39.3872948" lon="8.5310813"><ele>537.1666666666666</ele><time>2026-04-22T10:16:48.324Z</time></trkpt><trkpt lat="39.3873332" lon="8.5309413"><ele>537.3333333333334</ele><time>2026-04-22T10:16:49.323Z</time></trkpt><trkpt lat="39.387357" lon="8.5308125"><ele>537.5</ele><time>2026-04-22T10:16:50.323Z</time></trkpt><trkpt lat="39.3873687" lon="8.5307071"><ele>537.6666666666667</ele><time>2026-04-22T10:16:51.324Z</time></trkpt><trkpt lat="39.3873878" lon="8.5306164"><ele>537.8333333333334</ele><time>2026-04-22T10:16:52.324Z</time></trkpt><trkpt lat="39.3874123" lon="8.5305357"><ele>538.0</ele><time>2026-04-22T10:16:53.323Z</time></trkpt><trkpt lat="39.3875001" lon="8.5304253"><ele>536.8333333333334</ele><time>2026-04-22T10:16:55.324Z</time></trkpt><trkpt lat="39.3875615" lon="8.5303839"><ele>535.6666666666667</ele><time>2026-04-22T10:16:56.323Z</time></trkpt><trkpt lat="39.387614" lon="8.5303242"><ele>534.5</ele><time>2026-04-22T10:16:57.323Z</time></trkpt><trkpt lat="39.3876489" lon="8.5302485"><ele>533.3333333333334</ele><time>2026-04-22T10:16:58.323Z</time></trkpt><trkpt lat="39.3876682" lon="8.5301575"><ele>532.1666666666666</ele><time>2026-04-22T10:16:59.323Z</time></trkpt><trkpt lat="39.3876716" lon="8.5300519"><ele>531.0</ele><time>2026-04-22T10:17:00.324Z</time></trkpt><trkpt lat="39.3876695" lon="8.5299316"><ele>531.0</ele><time>2026-04-22T10:17:01.323Z</time></trkpt><trkpt lat="39.3876624" lon="8.5298017"><ele>531.0</ele><time>2026-04-22T10:17:02.324Z</time></trkpt><trkpt lat="39.3876513" lon="8.529661"><ele>531.0</ele><time>2026-04-22T10:17:03.323Z</time></trkpt><trkpt lat="39.387637" lon="8.5295309"><ele>531.0</ele><time>2026-04-22T10:17:04.323Z</time></trkpt><trkpt lat="39.3876255" lon="8.5294039"><ele>531.0</ele><time>2026-04-22T10:17:05.324Z</time></trkpt><trkpt lat="39.3876146" lon="8.5292948"><ele>530.4</ele><time>2026-04-22T10:17:06.324Z</time></trkpt><trkpt lat="39.3876117" lon="8.5291986"><ele>529.8</ele><time>2026-04-22T10:17:07.324Z</time></trkpt><trkpt lat="39.3876986" lon="8.5290214"><ele>529.1999999999999</ele><time>2026-04-22T10:17:10.324Z</time></trkpt><trkpt lat="39.3877627" lon="8.5290168"><ele>528.6</ele><time>2026-04-22T10:17:11.324Z</time></trkpt><trkpt lat="39.3878406" lon="8.5290308"><ele>528.0</ele><time>2026-04-22T10:17:12.324Z</time></trkpt><trkpt lat="39.387926" lon="8.5290345"><ele>529.6666666666666</ele><time>2026-04-22T10:17:13.324Z</time></trkpt><trkpt lat="39.3880111" lon="8.5290245"><ele>531.3333333333334</ele><time>2026-04-22T10:17:14.324Z</time></trkpt><trkpt lat="39.3880919" lon="8.5290163"><ele>533.0</ele><time>2026-04-22T10:17:15.323Z</time></trkpt><trkpt lat="39.3881639" lon="8.5290142"><ele>534.6666666666667</ele><time>2026-04-22T10:17:16.323Z</time></trkpt><trkpt lat="39.3882257" lon="8.5290345"><ele>536.3333333333334</ele><time>2026-04-22T10:17:17.324Z</time></trkpt><trkpt lat="39.388283" lon="8.5290774"><ele>538.0</ele><time>2026-04-22T10:17:18.324Z</time></trkpt><trkpt lat="39.388357" lon="8.5291547"><ele>538.0</ele><time>2026-04-22T10:17:20.324Z</time></trkpt><trkpt lat="39.3884318" lon="8.5292404"><ele>538.0</ele><time>2026-04-22T10:17:22.324Z</time></trkpt><trkpt lat="39.3884901" lon="8.5292996"><ele>538.0</ele><time>2026-04-22T10:17:23.323Z</time></trkpt><trkpt lat="39.3885546" lon="8.5293607"><ele>538.0</ele><time>2026-04-22T10:17:24.323Z</time></trkpt><trkpt lat="39.388619" lon="8.5294153"><ele>538.0</ele><time>2026-04-22T10:17:25.323Z</time></trkpt><trkpt lat="39.3886785" lon="8.5294791"><ele>538.0</ele><time>2026-04-22T10:17:26.324Z</time></trkpt><trkpt lat="39.3887287" lon="8.5295437"><ele>537.8333333333334</ele><time>2026-04-22T10:17:27.324Z</time></trkpt><trkpt lat="39.388778" lon="8.5296172"><ele>537.6666666666667</ele><time>2026-04-22T10:17:28.324Z</time></trkpt><trkpt lat="39.3888711" lon="8.5297813"><ele>537.5</ele><time>2026-04-22T10:17:30.324Z</time></trkpt><trkpt lat="39.3889071" lon="8.5298626"><ele>537.3333333333334</ele><time>2026-04-22T10:17:31.323Z</time></trkpt><trkpt lat="39.3889417" lon="8.5299393"><ele>537.1666666666666</ele><time>2026-04-22T10:17:32.324Z</time></trkpt><trkpt lat="39.388985" lon="8.5300065"><ele>537.0</ele><time>2026-04-22T10:17:33.324Z</time></trkpt><trkpt lat="39.3890434" lon="8.5300601"><ele>537.0</ele><time>2026-04-22T10:17:34.324Z</time></trkpt><trkpt lat="39.3891152" lon="8.5300986"><ele>537.0</ele><time>2026-04-22T10:17:35.324Z</time></trkpt><trkpt lat="39.389195" lon="8.5301089"><ele>537.0</ele><time>2026-04-22T10:17:36.324Z</time></trkpt><trkpt lat="39.3892755" lon="8.5300967"><ele>537.0</ele><time>2026-04-22T10:17:37.324Z</time></trkpt><trkpt lat="39.389352" lon="8.5300605"><ele>537.0</ele><time>2026-04-22T10:17:38.324Z</time></trkpt><trkpt lat="39.3894128" lon="8.5299872"><ele>537.0</ele><time>2026-04-22T10:17:39.324Z</time></trkpt><trkpt lat="39.3894593" lon="8.5298851"><ele>537.0</ele><time>2026-04-22T10:17:40.324Z</time></trkpt><trkpt lat="39.3894821" lon="8.5297621"><ele>537.0</ele><time>2026-04-22T10:17:41.324Z</time></trkpt><trkpt lat="39.3894932" lon="8.529627"><ele>537.0</ele><time>2026-04-22T10:17:42.324Z</time></trkpt><trkpt lat="39.389509" lon="8.5294908"><ele>537.0</ele><time>2026-04-22T10:17:43.323Z</time></trkpt><trkpt lat="39.3895327" lon="8.5293609"><ele>537.0</ele><time>2026-04-22T10:17:44.323Z</time></trkpt><trkpt lat="39.3895652" lon="8.5292334"><ele>537.2</ele><time>2026-04-22T10:17:45.323Z</time></trkpt><trkpt lat="39.3896013" lon="8.5291013"><ele>537.4000000000001</ele><time>2026-04-22T10:17:46.324Z</time></trkpt><trkpt lat="39.3896419" lon="8.5289798"><ele>537.5999999999999</ele><time>2026-04-22T10:17:47.324Z</time></trkpt><trkpt lat="39.3896842" lon="8.528868"><ele>537.8</ele><time>2026-04-22T10:17:48.324Z</time></trkpt><trkpt lat="39.389723" lon="8.5287588"><ele>538.0</ele><time>2026-04-22T10:17:49.324Z</time></trkpt><trkpt lat="39.3897906" lon="8.5285711"><ele>534.5</ele><time>2026-04-22T10:17:51.323Z</time></trkpt><trkpt lat="39.3898354" lon="8.5285015"><ele>531.0</ele><time>2026-04-22T10:17:52.324Z</time></trkpt><trkpt lat="39.3898902" lon="8.5284531"><ele>527.5</ele><time>2026-04-22T10:17:53.323Z</time></trkpt><trkpt lat="39.3899546" lon="8.528423"><ele>524.0</ele><time>2026-04-22T10:17:54.324Z</time></trkpt><trkpt lat="39.3900351" lon="8.5284124"><ele>520.5</ele><time>2026-04-22T10:17:55.324Z</time></trkpt><trkpt lat="39.3901284" lon="8.5284136"><ele>517.0</ele><time>2026-04-22T10:17:56.324Z</time></trkpt><trkpt lat="39.3902227" lon="8.5284191"><ele>517.0</ele><time>2026-04-22T10:17:57.324Z</time></trkpt><trkpt lat="39.3903122" lon="8.5284164"><ele>517.0</ele><time>2026-04-22T10:17:58.324Z</time></trkpt><trkpt lat="39.3903859" lon="8.5284172"><ele>517.0</ele><time>2026-04-22T10:17:59.323Z</time></trkpt><trkpt lat="39.3904522" lon="8.5284094"><ele>517.0</ele><time>2026-04-22T10:18:00.324Z</time></trkpt><trkpt lat="39.3905546" lon="8.5283062"><ele>517.0</ele><time>2026-04-22T10:18:02.324Z</time></trkpt><trkpt lat="39.3905922" lon="8.5282165"><ele>517.0</ele><time>2026-04-22T10:18:03.324Z</time></trkpt><trkpt lat="39.390631" lon="8.5281165"><ele>518.0</ele><time>2026-04-22T10:18:04.324Z</time></trkpt><trkpt lat="39.390669" lon="8.528003"><ele>519.0</ele><time>2026-04-22T10:18:05.324Z</time></trkpt><trkpt lat="39.3907008" lon="8.5278851"><ele>520.0</ele><time>2026-04-22T10:18:06.324Z</time></trkpt><trkpt lat="39.3907248" lon="8.5277626"><ele>521.0</ele><time>2026-04-22T10:18:07.323Z</time></trkpt><trkpt lat="39.3907402" lon="8.5276356"><ele>522.0</ele><time>2026-04-22T10:18:08.323Z</time></trkpt><trkpt lat="39.390743" lon="8.5275155"><ele>522.0</ele><time>2026-04-22T10:18:09.324Z</time></trkpt><trkpt lat="39.3907314" lon="8.5274026"><ele>522.0</ele><time>2026-04-22T10:18:10.323Z</time></trkpt><trkpt lat="39.3906805" lon="8.5271721"><ele>522.0</ele><time>2026-04-22T10:18:12.323Z</time></trkpt><trkpt lat="39.3906615" lon="8.5270709"><ele>522.0</ele><time>2026-04-22T10:18:13.323Z</time></trkpt><trkpt lat="39.390646" lon="8.5269823"><ele>522.0</ele><time>2026-04-22T10:18:14.324Z</time></trkpt><trkpt lat="39.3905973" lon="8.5268891"><ele>522.0</ele><time>2026-04-22T10:18:16.324Z</time></trkpt><trkpt lat="39.3905327" lon="8.5269548"><ele>522.0</ele><time>2026-04-22T10:18:18.324Z</time></trkpt><trkpt lat="39.3905218" lon="8.5270403"><ele>522.0</ele><time>2026-04-22T10:18:19.323Z</time></trkpt><trkpt lat="39.3905207" lon="8.5271627"><ele>522.0</ele><time>2026-04-22T10:18:20.324Z</time></trkpt><trkpt lat="39.3905157" lon="8.527281"><ele>522.0</ele><time>2026-04-22T10:18:21.324Z</time></trkpt><trkpt lat="39.3904966" lon="8.5273908"><ele>522.0</ele><time>2026-04-22T10:18:22.324Z</time></trkpt><trkpt lat="39.3904609" lon="8.5274846"><ele>518.1666666666666</ele><time>2026-04-22T10:18:23.323Z</time></trkpt><trkpt lat="39.3904087" lon="8.5275588"><ele>514.3333333333334</ele><time>2026-04-22T10:18:24.324Z</time></trkpt><trkpt lat="39.3903511" lon="8.5276119"><ele>510.5</ele><time>2026-04-22T10:18:25.324Z</time></trkpt><trkpt lat="39.3902366" lon="8.5276455"><ele>506.6666666666667</ele><time>2026-04-22T10:18:27.324Z</time></trkpt><trkpt lat="39.3901746" lon="8.5276092"><ele>502.83333333333337</ele><time>2026-04-22T10:18:28.323Z</time></trkpt><trkpt lat="39.390111" lon="8.5275417"><ele>499.0</ele><time>2026-04-22T10:18:29.324Z</time></trkpt><trkpt lat="39.3900509" lon="8.5274825"><ele>499.0</ele><time>2026-04-22T10:18:30.324Z</time></trkpt><trkpt lat="39.3899843" lon="8.5274453"><ele>499.0</ele><time>2026-04-22T10:18:31.323Z</time></trkpt><trkpt lat="39.3898525" lon="8.527466"><ele>499.0</ele><time>2026-04-22T10:18:33.323Z</time></trkpt><trkpt lat="39.3897904" lon="8.5275085"><ele>499.0</ele><time>2026-04-22T10:18:34.323Z</time></trkpt><trkpt lat="39.3896884" lon="8.5275583"><ele>499.0</ele><time>2026-04-22T10:18:36.324Z</time></trkpt><trkpt lat="39.3896111" lon="8.5274972"><ele>499.0</ele><time>2026-04-22T10:18:38.324Z</time></trkpt><trkpt lat="39.3896335" lon="8.5273519"><ele>499.0</ele><time>2026-04-22T10:18:40.324Z</time></trkpt><trkpt lat="39.3896949" lon="8.5272557"><ele>499.0</ele><time>2026-04-22T10:18:41.324Z</time></trkpt><trkpt lat="39.3897622" lon="8.5271545"><ele>499.0</ele><time>2026-04-22T10:18:42.324Z</time></trkpt><trkpt lat="39.3898156" lon="8.5270623"><ele>499.0</ele><time>2026-04-22T10:18:43.324Z</time></trkpt><trkpt lat="39.3898475" lon="8.5269731"><ele>497.6666666666667</ele><time>2026-04-22T10:18:44.323Z</time></trkpt><trkpt lat="39.3898529" lon="8.5268772"><ele>496.33333333333337</ele><time>2026-04-22T10:18:45.324Z</time></trkpt><trkpt lat="39.3898344" lon="8.5267742"><ele>495.0</ele><time>2026-04-22T10:18:46.324Z</time></trkpt><trkpt lat="39.389809" lon="8.526673"><ele>493.66666666666663</ele><time>2026-04-22T10:18:47.324Z</time></trkpt><trkpt lat="39.3897868" lon="8.5265732"><ele>492.3333333333333</ele><time>2026-04-22T10:18:48.324Z</time></trkpt><trkpt lat="39.3897808" lon="8.5264666"><ele>491.0</ele><time>2026-04-22T10:18:49.324Z</time></trkpt><trkpt lat="39.389797" lon="8.5263544"><ele>491.0</ele><time>2026-04-22T10:18:50.323Z</time></trkpt><trkpt lat="39.389824" lon="8.5262499"><ele>491.0</ele><time>2026-04-22T10:18:51.324Z</time></trkpt><trkpt lat="39.3898528" lon="8.5261535"><ele>491.0</ele><time>2026-04-22T10:18:52.324Z</time></trkpt><trkpt lat="39.389901" lon="8.5259773"><ele>491.0</ele><time>2026-04-22T10:18:54.324Z</time></trkpt><trkpt lat="39.3899019" lon="8.5258772"><ele>491.0</ele><time>2026-04-22T10:18:55.324Z</time></trkpt><trkpt lat="39.3898856" lon="8.5257665"><ele>489.4</ele><time>2026-04-22T10:18:56.324Z</time></trkpt><trkpt lat="39.3898572" lon="8.5256465"><ele>487.8</ele><time>2026-04-22T10:18:57.324Z</time></trkpt><trkpt lat="39.3898233" lon="8.5255237"><ele>486.19999999999993</ele><time>2026-04-22T10:18:58.324Z</time></trkpt><trkpt lat="39.3897959" lon="8.5254073"><ele>484.59999999999997</ele><time>2026-04-22T10:18:59.324Z</time></trkpt><trkpt lat="39.3897687" lon="8.5252925"><ele>483.0</ele><time>2026-04-22T10:19:00.323Z</time></trkpt><trkpt lat="39.3897455" lon="8.5251735"><ele>482.2</ele><time>2026-04-22T10:19:01.324Z</time></trkpt><trkpt lat="39.3897211" lon="8.525055"><ele>481.4</ele><time>2026-04-22T10:19:02.323Z</time></trkpt><trkpt lat="39.3896973" lon="8.524934"><ele>480.59999999999997</ele><time>2026-04-22T10:19:03.324Z</time></trkpt><trkpt lat="39.3896697" lon="8.5248108"><ele>479.79999999999995</ele><time>2026-04-22T10:19:04.324Z</time></trkpt><trkpt lat="39.3896434" lon="8.5246889"><ele>479.0</ele><time>2026-04-22T10:19:05.324Z</time></trkpt><trkpt lat="39.3896153" lon="8.5245804"><ele>479.49999999999994</ele><time>2026-04-22T10:19:06.323Z</time></trkpt><trkpt lat="39.389592" lon="8.5244757"><ele>480.0</ele><time>2026-04-22T10:19:07.324Z</time></trkpt><trkpt lat="39.3895707" lon="8.5243771"><ele>480.5</ele><time>2026-04-22T10:19:08.323Z</time></trkpt><trkpt lat="39.3895529" lon="8.5242796"><ele>481.0</ele><time>2026-04-22T10:19:09.324Z</time></trkpt><trkpt lat="39.3895477" lon="8.5241725"><ele>481.49999999999994</ele><time>2026-04-22T10:19:10.323Z</time></trkpt><trkpt lat="39.3895461" lon="8.5240552"><ele>482.0</ele><time>2026-04-22T10:19:11.324Z</time></trkpt><trkpt lat="39.3895421" lon="8.5239394"><ele>482.0</ele><time>2026-04-22T10:19:12.323Z</time></trkpt><trkpt lat="39.3895337" lon="8.5238219"><ele>482.0</ele><time>2026-04-22T10:19:13.324Z</time></trkpt><trkpt lat="39.3895073" lon="8.523576"><ele>482.0</ele><time>2026-04-22T10:19:15.324Z</time></trkpt><trkpt lat="39.3894901" lon="8.5234493"><ele>482.0</ele><time>2026-04-22T10:19:16.324Z</time></trkpt><trkpt lat="39.3894729" lon="8.5233386"><ele>479.99999999999994</ele><time>2026-04-22T10:19:17.323Z</time></trkpt><trkpt lat="39.3894588" lon="8.5232323"><ele>478.0</ele><time>2026-04-22T10:19:18.324Z</time></trkpt><trkpt lat="39.3894507" lon="8.5231316"><ele>476.0</ele><time>2026-04-22T10:19:19.323Z</time></trkpt><trkpt lat="39.3894455" lon="8.5230373"><ele>474.0</ele><time>2026-04-22T10:19:20.324Z</time></trkpt><trkpt lat="39.3894437" lon="8.5229417"><ele>471.99999999999994</ele><time>2026-04-22T10:19:21.323Z</time></trkpt><trkpt lat="39.3894455" lon="8.5228444"><ele>470.0</ele><time>2026-04-22T10:19:22.324Z</time></trkpt><trkpt lat="39.3894576" lon="8.5227489"><ele>468.8</ele><time>2026-04-22T10:19:23.323Z</time></trkpt><trkpt lat="39.3894788" lon="8.5226436"><ele>467.6</ele><time>2026-04-22T10:19:24.324Z</time></trkpt><trkpt lat="39.3895018" lon="8.5225336"><ele>466.4</ele><time>2026-04-22T10:19:25.324Z</time></trkpt><trkpt lat="39.3895208" lon="8.5224148"><ele>465.2</ele><time>2026-04-22T10:19:26.324Z</time></trkpt><trkpt lat="39.3895387" lon="8.5222957"><ele>464.0</ele><time>2026-04-22T10:19:27.324Z</time></trkpt><trkpt lat="39.3895608" lon="8.5221763"><ele>463.99999999999994</ele><time>2026-04-22T10:19:28.323Z</time></trkpt><trkpt lat="39.3895837" lon="8.5220658"><ele>464.0</ele><time>2026-04-22T10:19:29.324Z</time></trkpt><trkpt lat="39.3896044" lon="8.5219639"><ele>464.0</ele><time>2026-04-22T10:19:30.324Z</time></trkpt><trkpt lat="39.3896192" lon="8.5218591"><ele>464.0</ele><time>2026-04-22T10:19:31.324Z</time></trkpt><trkpt lat="39.3896237" lon="8.5217569"><ele>463.99999999999994</ele><time>2026-04-22T10:19:32.324Z</time></trkpt><trkpt lat="39.3896034" lon="8.5216499"><ele>464.0</ele><time>2026-04-22T10:19:33.324Z</time></trkpt><trkpt lat="39.3895597" lon="8.5215412"><ele>464.0</ele><time>2026-04-22T10:19:34.324Z</time></trkpt><trkpt lat="39.3894371" lon="8.5213161"><ele>464.0</ele><time>2026-04-22T10:19:36.323Z</time></trkpt><trkpt lat="39.3893825" lon="8.5212109"><ele>464.0</ele><time>2026-04-22T10:19:37.323Z</time></trkpt><trkpt lat="39.389334" lon="8.5211185"><ele>464.0</ele><time>2026-04-22T10:19:38.324Z</time></trkpt><trkpt lat="39.3892944" lon="8.5210267"><ele>462.49999999999994</ele><time>2026-04-22T10:19:39.323Z</time></trkpt><trkpt lat="39.3892624" lon="8.5209366"><ele>461.0</ele><time>2026-04-22T10:19:40.324Z</time></trkpt><trkpt lat="39.3892293" lon="8.5208479"><ele>459.5</ele><time>2026-04-22T10:19:41.323Z</time></trkpt><trkpt lat="39.3891922" lon="8.5207546"><ele>458.0</ele><time>2026-04-22T10:19:42.323Z</time></trkpt><trkpt lat="39.3891606" lon="8.5206571"><ele>456.49999999999994</ele><time>2026-04-22T10:19:43.324Z</time></trkpt><trkpt lat="39.389132" lon="8.5205497"><ele>455.0</ele><time>2026-04-22T10:19:44.323Z</time></trkpt><trkpt lat="39.3891044" lon="8.5204367"><ele>452.6</ele><time>2026-04-22T10:19:45.324Z</time></trkpt><trkpt lat="39.3890798" lon="8.520315"><ele>450.2</ele><time>2026-04-22T10:19:46.324Z</time></trkpt><trkpt lat="39.3890605" lon="8.5201899"><ele>447.79999999999995</ele><time>2026-04-22T10:19:47.324Z</time></trkpt><trkpt lat="39.3890503" lon="8.5200638"><ele>445.4</ele><time>2026-04-22T10:19:48.324Z</time></trkpt><trkpt lat="39.3890414" lon="8.5199415"><ele>443.0</ele><time>2026-04-22T10:19:49.323Z</time></trkpt><trkpt lat="39.3890377" lon="8.5198271"><ele>443.0</ele><time>2026-04-22T10:19:50.324Z</time></trkpt><trkpt lat="39.3890294" lon="8.5197121"><ele>442.99999999999994</ele><time>2026-04-22T10:19:51.323Z</time></trkpt><trkpt lat="39.389012" lon="8.5195882"><ele>442.99999999999994</ele><time>2026-04-22T10:19:52.324Z</time></trkpt><trkpt lat="39.3889783" lon="8.5194642"><ele>443.0</ele><time>2026-04-22T10:19:53.324Z</time></trkpt><trkpt lat="39.3889463" lon="8.519339"><ele>443.0</ele><time>2026-04-22T10:19:54.324Z</time></trkpt><trkpt lat="39.3889218" lon="8.5192032"><ele>442.0</ele><time>2026-04-22T10:19:55.324Z</time></trkpt><trkpt lat="39.3889003" lon="8.5189112"><ele>441.0</ele><time>2026-04-22T10:19:57.324Z</time></trkpt><trkpt lat="39.3888998" lon="8.5187716"><ele>440.0</ele><time>2026-04-22T10:19:58.324Z</time></trkpt><trkpt lat="39.3888964" lon="8.5186371"><ele>439.0</ele><time>2026-04-22T10:19:59.324Z</time></trkpt><trkpt lat="39.3888938" lon="8.5184962"><ele>438.0</ele><time>2026-04-22T10:20:00.324Z</time></trkpt><trkpt lat="39.3888994" lon="8.5183595"><ele>437.0</ele><time>2026-04-22T10:20:01.324Z</time></trkpt><trkpt lat="39.388913" lon="8.5182191"><ele>436.0</ele><time>2026-04-22T10:20:02.324Z</time></trkpt><trkpt lat="39.3889224" lon="8.5180842"><ele>435.0</ele><time>2026-04-22T10:20:03.324Z</time></trkpt><trkpt lat="39.388927" lon="8.5179549"><ele>434.0</ele><time>2026-04-22T10:20:04.323Z</time></trkpt><trkpt lat="39.3889156" lon="8.5178272"><ele>434.0</ele><time>2026-04-22T10:20:05.324Z</time></trkpt><trkpt lat="39.3888896" lon="8.5177033"><ele>434.0</ele><time>2026-04-22T10:20:06.324Z</time></trkpt><trkpt lat="39.3888497" lon="8.5175826"><ele>434.0</ele><time>2026-04-22T10:20:07.323Z</time></trkpt><trkpt lat="39.3888012" lon="8.5174524"><ele>434.0</ele><time>2026-04-22T10:20:08.324Z</time></trkpt><trkpt lat="39.3887569" lon="8.5173209"><ele>434.0</ele><time>2026-04-22T10:20:09.323Z</time></trkpt><trkpt lat="39.3887159" lon="8.517196"><ele>435.4</ele><time>2026-04-22T10:20:10.323Z</time></trkpt><trkpt lat="39.3886846" lon="8.517074"><ele>436.79999999999995</ele><time>2026-04-22T10:20:11.324Z</time></trkpt><trkpt lat="39.3886551" lon="8.5169498"><ele>438.20000000000005</ele><time>2026-04-22T10:20:12.324Z</time></trkpt><trkpt lat="39.3886259" lon="8.5168264"><ele>439.6</ele><time>2026-04-22T10:20:13.324Z</time></trkpt><trkpt lat="39.3885983" lon="8.5167059"><ele>441.0</ele><time>2026-04-22T10:20:14.324Z</time></trkpt><trkpt lat="39.3885812" lon="8.5165848"><ele>441.0</ele><time>2026-04-22T10:20:15.324Z</time></trkpt><trkpt lat="39.3885807" lon="8.5164526"><ele>441.0</ele><time>2026-04-22T10:20:16.324Z</time></trkpt><trkpt lat="39.3885994" lon="8.5161789"><ele>441.0</ele><time>2026-04-22T10:20:18.323Z</time></trkpt><trkpt lat="39.3886096" lon="8.5160505"><ele>441.0</ele><time>2026-04-22T10:20:19.323Z</time></trkpt><trkpt lat="39.3886131" lon="8.5159332"><ele>439.20000000000005</ele><time>2026-04-22T10:20:20.324Z</time></trkpt><trkpt lat="39.3886036" lon="8.5158161"><ele>437.40000000000003</ele><time>2026-04-22T10:20:21.324Z</time></trkpt><trkpt lat="39.3885783" lon="8.5156937"><ele>435.6</ele><time>2026-04-22T10:20:22.324Z</time></trkpt><trkpt lat="39.3885388" lon="8.5155707"><ele>433.8</ele><time>2026-04-22T10:20:23.324Z</time></trkpt><trkpt lat="39.3884926" lon="8.5154447"><ele>432.0</ele><time>2026-04-22T10:20:24.324Z</time></trkpt><trkpt lat="39.3884362" lon="8.5153202"><ele>430.6</ele><time>2026-04-22T10:20:25.323Z</time></trkpt><trkpt lat="39.3883802" lon="8.5152051"><ele>429.20000000000005</ele><time>2026-04-22T10:20:26.323Z</time></trkpt><trkpt lat="39.3883327" lon="8.5150843"><ele>427.8</ele><time>2026-04-22T10:20:27.324Z</time></trkpt><trkpt lat="39.3882992" lon="8.5149553"><ele>426.4</ele><time>2026-04-22T10:20:28.324Z</time></trkpt><trkpt lat="39.3882708" lon="8.5148292"><ele>425.0</ele><time>2026-04-22T10:20:29.324Z</time></trkpt><trkpt lat="39.3882456" lon="8.5147072"><ele>424.99999999999994</ele><time>2026-04-22T10:20:30.324Z</time></trkpt><trkpt lat="39.3882186" lon="8.5145914"><ele>425.0</ele><time>2026-04-22T10:20:31.323Z</time></trkpt><trkpt lat="39.388198" lon="8.5144844"><ele>425.0</ele><time>2026-04-22T10:20:32.324Z</time></trkpt><trkpt lat="39.388187" lon="8.5143772"><ele>425.0</ele><time>2026-04-22T10:20:33.323Z</time></trkpt><trkpt lat="39.3881887" lon="8.5142748"><ele>424.99999999999994</ele><time>2026-04-22T10:20:34.323Z</time></trkpt><trkpt lat="39.388205" lon="8.5141718"><ele>425.0</ele><time>2026-04-22T10:20:35.324Z</time></trkpt><trkpt lat="39.3882311" lon="8.5140572"><ele>423.0</ele><time>2026-04-22T10:20:36.323Z</time></trkpt><trkpt lat="39.388262" lon="8.5139364"><ele>421.0</ele><time>2026-04-22T10:20:37.324Z</time></trkpt><trkpt lat="39.3882871" lon="8.5136885"><ele>419.0</ele><time>2026-04-22T10:20:39.323Z</time></trkpt><trkpt lat="39.3882837" lon="8.5135791"><ele>417.0</ele><time>2026-04-22T10:20:40.324Z</time></trkpt><trkpt lat="39.3882859" lon="8.513481"><ele>415.8333333333333</ele><time>2026-04-22T10:20:41.323Z</time></trkpt><trkpt lat="39.3882944" lon="8.5133918"><ele>414.66666666666663</ele><time>2026-04-22T10:20:42.324Z</time></trkpt><trkpt lat="39.3883255" lon="8.513307"><ele>413.5</ele><time>2026-04-22T10:20:43.324Z</time></trkpt><trkpt lat="39.3883791" lon="8.5132251"><ele>412.3333333333333</ele><time>2026-04-22T10:20:44.324Z</time></trkpt><trkpt lat="39.3884483" lon="8.5131394"><ele>411.16666666666663</ele><time>2026-04-22T10:20:45.324Z</time></trkpt><trkpt lat="39.3885207" lon="8.5130416"><ele>410.0</ele><time>2026-04-22T10:20:46.323Z</time></trkpt><trkpt lat="39.388589" lon="8.5129304"><ele>411.6</ele><time>2026-04-22T10:20:47.324Z</time></trkpt><trkpt lat="39.3886465" lon="8.5128153"><ele>413.2</ele><time>2026-04-22T10:20:48.324Z</time></trkpt><trkpt lat="39.3886961" lon="8.5127009"><ele>414.79999999999995</ele><time>2026-04-22T10:20:49.323Z</time></trkpt><trkpt lat="39.3887375" lon="8.512579"><ele>416.4</ele><time>2026-04-22T10:20:50.323Z</time></trkpt><trkpt lat="39.3887785" lon="8.5124562"><ele>418.0</ele><time>2026-04-22T10:20:51.323Z</time></trkpt><trkpt lat="39.3888225" lon="8.5123286"><ele>418.0</ele><time>2026-04-22T10:20:52.324Z</time></trkpt><trkpt lat="39.3888674" lon="8.5121984"><ele>418.0</ele><time>2026-04-22T10:20:53.324Z</time></trkpt><trkpt lat="39.3889166" lon="8.5120692"><ele>418.0</ele><time>2026-04-22T10:20:54.324Z</time></trkpt><trkpt lat="39.3889669" lon="8.5119441"><ele>418.0</ele><time>2026-04-22T10:20:55.324Z</time></trkpt><trkpt lat="39.3890138" lon="8.511822"><ele>418.0</ele><time>2026-04-22T10:20:56.323Z</time></trkpt><trkpt lat="39.3890627" lon="8.5117049"><ele>418.0</ele><time>2026-04-22T10:20:57.324Z</time></trkpt><trkpt lat="39.3891119" lon="8.5115883"><ele>418.0</ele><time>2026-04-22T10:20:58.323Z</time></trkpt><trkpt lat="39.3892296" lon="8.5113428"><ele>418.0</ele><time>2026-04-22T10:21:00.324Z</time></trkpt><trkpt lat="39.3892954" lon="8.5112218"><ele>418.0</ele><time>2026-04-22T10:21:01.323Z</time></trkpt><trkpt lat="39.3893612" lon="8.5111008"><ele>418.0</ele><time>2026-04-22T10:21:02.324Z</time></trkpt><trkpt lat="39.3894278" lon="8.5109768"><ele>418.0</ele><time>2026-04-22T10:21:03.324Z</time></trkpt><trkpt lat="39.3894921" lon="8.510864"><ele>418.0</ele><time>2026-04-22T10:21:04.324Z</time></trkpt><trkpt lat="39.389561" lon="8.5107567"><ele>418.0</ele><time>2026-04-22T10:21:05.324Z</time></trkpt><trkpt lat="39.3896308" lon="8.5106439"><ele>418.0</ele><time>2026-04-22T10:21:06.324Z</time></trkpt><trkpt lat="39.3897013" lon="8.5105213"><ele>415.4</ele><time>2026-04-22T10:21:07.324Z</time></trkpt><trkpt lat="39.3897671" lon="8.5103983"><ele>412.79999999999995</ele><time>2026-04-22T10:21:08.323Z</time></trkpt><trkpt lat="39.3898267" lon="8.5102827"><ele>410.2</ele><time>2026-04-22T10:21:09.324Z</time></trkpt><trkpt lat="39.3898783" lon="8.5101692"><ele>407.6</ele><time>2026-04-22T10:21:10.324Z</time></trkpt><trkpt lat="39.3899251" lon="8.5100514"><ele>405.0</ele><time>2026-04-22T10:21:11.323Z</time></trkpt><trkpt lat="39.3899717" lon="8.5099316"><ele>405.0</ele><time>2026-04-22T10:21:12.323Z</time></trkpt><trkpt lat="39.3900164" lon="8.5098033"><ele>405.0</ele><time>2026-04-22T10:21:13.324Z</time></trkpt><trkpt lat="39.3900635" lon="8.5096705"><ele>405.0</ele><time>2026-04-22T10:21:14.323Z</time></trkpt><trkpt lat="39.3901187" lon="8.5095432"><ele>405.0</ele><time>2026-04-22T10:21:15.324Z</time></trkpt><trkpt lat="39.3901701" lon="8.509416"><ele>405.0</ele><time>2026-04-22T10:21:16.324Z</time></trkpt><trkpt lat="39.390227" lon="8.5092866"><ele>405.75</ele><time>2026-04-22T10:21:17.324Z</time></trkpt><trkpt lat="39.3902831" lon="8.5091541"><ele>406.5</ele><time>2026-04-22T10:21:18.324Z</time></trkpt><trkpt lat="39.3903275" lon="8.5090234"><ele>407.25</ele><time>2026-04-22T10:21:19.324Z</time></trkpt><trkpt lat="39.3904089" lon="8.5087768"><ele>408.0</ele><time>2026-04-22T10:21:21.323Z</time></trkpt><trkpt lat="39.3904615" lon="8.508657"><ele>404.0</ele><time>2026-04-22T10:21:22.324Z</time></trkpt><trkpt lat="39.3905184" lon="8.5085466"><ele>400.0</ele><time>2026-04-22T10:21:23.323Z</time></trkpt><trkpt lat="39.3905823" lon="8.5084452"><ele>396.0</ele><time>2026-04-22T10:21:24.324Z</time></trkpt><trkpt lat="39.3906391" lon="8.5083491"><ele>392.0</ele><time>2026-04-22T10:21:25.323Z</time></trkpt><trkpt lat="39.3906982" lon="8.5082694"><ele>388.0</ele><time>2026-04-22T10:21:26.324Z</time></trkpt><trkpt lat="39.3907703" lon="8.5082097"><ele>388.00000000000006</ele><time>2026-04-22T10:21:27.323Z</time></trkpt><trkpt lat="39.3908502" lon="8.5081692"><ele>388.0</ele><time>2026-04-22T10:21:28.324Z</time></trkpt><trkpt lat="39.3909337" lon="8.5081464"><ele>388.0</ele><time>2026-04-22T10:21:29.324Z</time></trkpt><trkpt lat="39.3910214" lon="8.5081288"><ele>388.0</ele><time>2026-04-22T10:21:30.323Z</time></trkpt><trkpt lat="39.3911007" lon="8.5080964"><ele>388.00000000000006</ele><time>2026-04-22T10:21:31.323Z</time></trkpt><trkpt lat="39.3911672" lon="8.5080359"><ele>388.0</ele><time>2026-04-22T10:21:32.324Z</time></trkpt><trkpt lat="39.3912239" lon="8.507949"><ele>388.6666666666667</ele><time>2026-04-22T10:21:33.324Z</time></trkpt><trkpt lat="39.3912716" lon="8.5078406"><ele>389.33333333333337</ele><time>2026-04-22T10:21:34.324Z</time></trkpt><trkpt lat="39.3913162" lon="8.5077358"><ele>390.0</ele><time>2026-04-22T10:21:35.324Z</time></trkpt><trkpt lat="39.3913576" lon="8.5076462"><ele>390.66666666666663</ele><time>2026-04-22T10:21:36.324Z</time></trkpt><trkpt lat="39.3913863" lon="8.5075587"><ele>391.3333333333333</ele><time>2026-04-22T10:21:37.324Z</time></trkpt><trkpt lat="39.3913968" lon="8.5074639"><ele>392.0</ele><time>2026-04-22T10:21:38.324Z</time></trkpt><trkpt lat="39.3913939" lon="8.5073556"><ele>389.5</ele><time>2026-04-22T10:21:39.324Z</time></trkpt><trkpt lat="39.3913846" lon="8.5072351"><ele>387.0</ele><time>2026-04-22T10:21:40.324Z</time></trkpt><trkpt lat="39.3914102" lon="8.5069919"><ele>384.5</ele><time>2026-04-22T10:21:42.323Z</time></trkpt><trkpt lat="39.3914457" lon="8.5068755"><ele>382.0</ele><time>2026-04-22T10:21:43.324Z</time></trkpt><trkpt lat="39.3914921" lon="8.5067701"><ele>380.20000000000005</ele><time>2026-04-22T10:21:44.323Z</time></trkpt><trkpt lat="39.3915459" lon="8.5066755"><ele>378.4</ele><time>2026-04-22T10:21:45.323Z</time></trkpt><trkpt lat="39.3916117" lon="8.5065788"><ele>376.6</ele><time>2026-04-22T10:21:46.324Z</time></trkpt><trkpt lat="39.3916792" lon="8.5064828"><ele>374.79999999999995</ele><time>2026-04-22T10:21:47.324Z</time></trkpt><trkpt lat="39.3917373" lon="8.5063769"><ele>373.0</ele><time>2026-04-22T10:21:48.323Z</time></trkpt><trkpt lat="39.3917784" lon="8.5062518"><ele>373.2</ele><time>2026-04-22T10:21:49.324Z</time></trkpt><trkpt lat="39.3918056" lon="8.5061129"><ele>373.4</ele><time>2026-04-22T10:21:50.324Z</time></trkpt><trkpt lat="39.3918295" lon="8.5059712"><ele>373.59999999999997</ele><time>2026-04-22T10:21:51.324Z</time></trkpt><trkpt lat="39.391857" lon="8.5058376"><ele>373.79999999999995</ele><time>2026-04-22T10:21:52.324Z</time></trkpt><trkpt lat="39.3918861" lon="8.5057102"><ele>374.0</ele><time>2026-04-22T10:21:53.324Z</time></trkpt><trkpt lat="39.391911" lon="8.5055862"><ele>374.0</ele><time>2026-04-22T10:21:54.324Z</time></trkpt><trkpt lat="39.3919379" lon="8.5054661"><ele>374.0</ele><time>2026-04-22T10:21:55.323Z</time></trkpt><trkpt lat="39.3919781" lon="8.505347"><ele>374.0</ele><time>2026-04-22T10:21:56.323Z</time></trkpt><trkpt lat="39.3920296" lon="8.5052341"><ele>374.0</ele><time>2026-04-22T10:21:57.324Z</time></trkpt><trkpt lat="39.3920918" lon="8.5051282"><ele>374.0</ele><time>2026-04-22T10:21:58.324Z</time></trkpt><trkpt lat="39.3921593" lon="8.5050284"><ele>372.25</ele><time>2026-04-22T10:21:59.324Z</time></trkpt><trkpt lat="39.3922236" lon="8.5049291"><ele>370.5</ele><time>2026-04-22T10:22:00.323Z</time></trkpt><trkpt lat="39.392283" lon="8.5048216"><ele>368.75</ele><time>2026-04-22T10:22:01.323Z</time></trkpt><trkpt lat="39.3923643" lon="8.5045868"><ele>367.0</ele><time>2026-04-22T10:22:03.323Z</time></trkpt><trkpt lat="39.3923884" lon="8.5044701"><ele>366.16666666666663</ele><time>2026-04-22T10:22:04.323Z</time></trkpt><trkpt lat="39.3924027" lon="8.5043636"><ele>365.3333333333333</ele><time>2026-04-22T10:22:05.323Z</time></trkpt><trkpt lat="39.3924022" lon="8.5042663"><ele>364.5</ele><time>2026-04-22T10:22:06.323Z</time></trkpt><trkpt lat="39.3923838" lon="8.5041709"><ele>363.6666666666667</ele><time>2026-04-22T10:22:07.323Z</time></trkpt><trkpt lat="39.3923474" lon="8.5040783"><ele>362.83333333333337</ele><time>2026-04-22T10:22:08.322Z</time></trkpt><trkpt lat="39.3922899" lon="8.5039967"><ele>362.0</ele><time>2026-04-22T10:22:09.323Z</time></trkpt><trkpt lat="39.3922162" lon="8.5039193"><ele>362.40000000000003</ele><time>2026-04-22T10:22:10.322Z</time></trkpt><trkpt lat="39.3921373" lon="8.5038497"><ele>362.8</ele><time>2026-04-22T10:22:11.323Z</time></trkpt><trkpt lat="39.3920596" lon="8.5037766"><ele>363.2</ele><time>2026-04-22T10:22:12.323Z</time></trkpt><trkpt lat="39.3919861" lon="8.5037005"><ele>363.6</ele><time>2026-04-22T10:22:13.323Z</time></trkpt><trkpt lat="39.3919219" lon="8.5036191"><ele>364.0</ele><time>2026-04-22T10:22:14.322Z</time></trkpt><trkpt lat="39.3918661" lon="8.5035252"><ele>364.0</ele><time>2026-04-22T10:22:15.322Z</time></trkpt><trkpt lat="39.3918176" lon="8.5034225"><ele>364.0</ele><time>2026-04-22T10:22:16.323Z</time></trkpt><trkpt lat="39.3917802" lon="8.5033055"><ele>364.0</ele><time>2026-04-22T10:22:17.323Z</time></trkpt><trkpt lat="39.3917584" lon="8.503177"><ele>364.0</ele><time>2026-04-22T10:22:18.322Z</time></trkpt><trkpt lat="39.3917356" lon="8.5030425"><ele>364.0</ele><time>2026-04-22T10:22:19.322Z</time></trkpt><trkpt lat="39.391709" lon="8.5029058"><ele>363.0</ele><time>2026-04-22T10:22:20.322Z</time></trkpt><trkpt lat="39.3916787" lon="8.5027766"><ele>362.0</ele><time>2026-04-22T10:22:21.323Z</time></trkpt><trkpt lat="39.3916483" lon="8.5026304"><ele>361.0</ele><time>2026-04-22T10:22:22.323Z</time></trkpt><trkpt lat="39.3915833" lon="8.5023643"><ele>360.0</ele><time>2026-04-22T10:22:24.323Z</time></trkpt><trkpt lat="39.3915532" lon="8.5022417"><ele>360.0</ele><time>2026-04-22T10:22:25.322Z</time></trkpt><trkpt lat="39.3915322" lon="8.5021173"><ele>360.0</ele><time>2026-04-22T10:22:26.322Z</time></trkpt><trkpt lat="39.3915236" lon="8.5019949"><ele>360.0</ele><time>2026-04-22T10:22:27.323Z</time></trkpt><trkpt lat="39.391519" lon="8.5018722"><ele>360.0</ele><time>2026-04-22T10:22:28.323Z</time></trkpt><trkpt lat="39.3915187" lon="8.5017496"><ele>360.0</ele><time>2026-04-22T10:22:29.322Z</time></trkpt><trkpt lat="39.3915182" lon="8.5016295"><ele>359.4</ele><time>2026-04-22T10:22:30.323Z</time></trkpt><trkpt lat="39.3915242" lon="8.5015078"><ele>358.8</ele><time>2026-04-22T10:22:31.323Z</time></trkpt><trkpt lat="39.391541" lon="8.5013913"><ele>358.20000000000005</ele><time>2026-04-22T10:22:32.322Z</time></trkpt><trkpt lat="39.3915594" lon="8.5012717"><ele>357.6</ele><time>2026-04-22T10:22:33.323Z</time></trkpt><trkpt lat="39.3915773" lon="8.5011501"><ele>357.0</ele><time>2026-04-22T10:22:34.322Z</time></trkpt><trkpt lat="39.3915938" lon="8.5010281"><ele>355.20000000000005</ele><time>2026-04-22T10:22:35.323Z</time></trkpt><trkpt lat="39.3915969" lon="8.5009035"><ele>353.4</ele><time>2026-04-22T10:22:36.322Z</time></trkpt><trkpt lat="39.3915913" lon="8.5007808"><ele>351.6</ele><time>2026-04-22T10:22:37.323Z</time></trkpt><trkpt lat="39.3915823" lon="8.5006635"><ele>349.79999999999995</ele><time>2026-04-22T10:22:38.323Z</time></trkpt><trkpt lat="39.3915683" lon="8.5005505"><ele>348.0</ele><time>2026-04-22T10:22:39.322Z</time></trkpt><trkpt lat="39.3915456" lon="8.5004406"><ele>346.79999999999995</ele><time>2026-04-22T10:22:40.323Z</time></trkpt><trkpt lat="39.3915184" lon="8.5003366"><ele>345.6</ele><time>2026-04-22T10:22:41.323Z</time></trkpt><trkpt lat="39.3914886" lon="8.5002409"><ele>344.4</ele><time>2026-04-22T10:22:42.323Z</time></trkpt><trkpt lat="39.3914622" lon="8.5001484"><ele>343.20000000000005</ele><time>2026-04-22T10:22:43.322Z</time></trkpt><trkpt lat="39.3914351" lon="8.4999715"><ele>342.0</ele><time>2026-04-22T10:22:45.323Z</time></trkpt><trkpt lat="39.3914477" lon="8.4998816"><ele>342.0</ele><time>2026-04-22T10:22:46.322Z</time></trkpt><trkpt lat="39.3915123" lon="8.4997494"><ele>342.0</ele><time>2026-04-22T10:22:48.323Z</time></trkpt><trkpt lat="39.3915954" lon="8.4996688"><ele>342.0</ele><time>2026-04-22T10:22:50.323Z</time></trkpt><trkpt lat="39.3916781" lon="8.4996371"><ele>342.0</ele><time>2026-04-22T10:22:52.322Z</time></trkpt><trkpt lat="39.3917602" lon="8.4996797"><ele>342.0</ele><time>2026-04-22T10:22:54.322Z</time></trkpt><trkpt lat="39.3918253" lon="8.4997284"><ele>342.0</ele><time>2026-04-22T10:22:57.323Z</time></trkpt><trkpt lat="39.3917858" lon="8.4996354"><ele>342.0</ele><time>2026-04-22T10:23:12.323Z</time></trkpt><trkpt lat="39.3917152" lon="8.4994768"><ele>342.0</ele><time>2026-04-22T10:23:16.323Z</time></trkpt><trkpt lat="39.3916415" lon="8.4993985"><ele>342.0</ele><time>2026-04-22T10:23:18.322Z</time></trkpt><trkpt lat="39.3915454" lon="8.4992938"><ele>342.0</ele><time>2026-04-22T10:23:20.323Z</time></trkpt><trkpt lat="39.3914921" lon="8.4992266"><ele>342.0</ele><time>2026-04-22T10:23:21.322Z</time></trkpt><trkpt lat="39.3914432" lon="8.4991612"><ele>342.0</ele><time>2026-04-22T10:23:22.323Z</time></trkpt><trkpt lat="39.3913921" lon="8.499101"><ele>342.0</ele><time>2026-04-22T10:23:23.323Z</time></trkpt><trkpt lat="39.3913406" lon="8.499048"><ele>342.0</ele><time>2026-04-22T10:23:24.323Z</time></trkpt><trkpt lat="39.3912483" lon="8.4989502"><ele>342.0</ele><time>2026-04-22T10:23:26.322Z</time></trkpt><trkpt lat="39.3912004" lon="8.4988965"><ele>342.0</ele><time>2026-04-22T10:23:27.323Z</time></trkpt><trkpt lat="39.3911502" lon="8.4988412"><ele>343.3333333333333</ele><time>2026-04-22T10:23:28.323Z</time></trkpt><trkpt lat="39.3910986" lon="8.4987817"><ele>344.6666666666667</ele><time>2026-04-22T10:23:29.323Z</time></trkpt><trkpt lat="39.3910471" lon="8.498718"><ele>346.0</ele><time>2026-04-22T10:23:30.323Z</time></trkpt><trkpt lat="39.3910037" lon="8.4986501"><ele>347.33333333333337</ele><time>2026-04-22T10:23:31.323Z</time></trkpt><trkpt lat="39.3909776" lon="8.4985614"><ele>348.6666666666667</ele><time>2026-04-22T10:23:32.322Z</time></trkpt><trkpt lat="39.3909725" lon="8.4984578"><ele>350.0</ele><time>2026-04-22T10:23:33.322Z</time></trkpt><trkpt lat="39.3909398" lon="8.4982507"><ele>346.8</ele><time>2026-04-22T10:23:35.323Z</time></trkpt><trkpt lat="39.3908904" lon="8.4981652"><ele>343.6</ele><time>2026-04-22T10:23:36.322Z</time></trkpt><trkpt lat="39.3908167" lon="8.4981048"><ele>340.4</ele><time>2026-04-22T10:23:37.323Z</time></trkpt><trkpt lat="39.39072" lon="8.4980764"><ele>337.2</ele><time>2026-04-22T10:23:38.323Z</time></trkpt><trkpt lat="39.3906185" lon="8.4980671"><ele>334.0</ele><time>2026-04-22T10:23:39.323Z</time></trkpt><trkpt lat="39.3905282" lon="8.4980359"><ele>333.0</ele><time>2026-04-22T10:23:40.322Z</time></trkpt><trkpt lat="39.3904632" lon="8.4979776"><ele>332.0</ele><time>2026-04-22T10:23:41.323Z</time></trkpt><trkpt lat="39.3904232" lon="8.4978909"><ele>331.0</ele><time>2026-04-22T10:23:42.323Z</time></trkpt><trkpt lat="39.3904084" lon="8.4977849"><ele>330.0</ele><time>2026-04-22T10:23:43.323Z</time></trkpt><trkpt lat="39.3904421" lon="8.4976498"><ele>329.0</ele><time>2026-04-22T10:23:44.322Z</time></trkpt><trkpt lat="39.3905051" lon="8.4974887"><ele>329.75</ele><time>2026-04-22T10:23:45.323Z</time></trkpt><trkpt lat="39.3905439" lon="8.4973192"><ele>330.5</ele><time>2026-04-22T10:23:46.323Z</time></trkpt><trkpt lat="39.3905627" lon="8.4971518"><ele>331.25</ele><time>2026-04-22T10:23:47.323Z</time></trkpt><trkpt lat="39.3905673" lon="8.4969978"><ele>332.0</ele><time>2026-04-22T10:23:48.323Z</time></trkpt><trkpt lat="39.390585" lon="8.4968522"><ele>332.20000000000005</ele><time>2026-04-22T10:23:49.322Z</time></trkpt><trkpt lat="39.3906181" lon="8.4967156"><ele>332.4</ele><time>2026-04-22T10:23:50.323Z</time></trkpt><trkpt lat="39.390659" lon="8.4965934"><ele>332.6</ele><time>2026-04-22T10:23:51.323Z</time></trkpt><trkpt lat="39.3906932" lon="8.4964814"><ele>332.79999999999995</ele><time>2026-04-22T10:23:52.322Z</time></trkpt><trkpt lat="39.3907094" lon="8.49638"><ele>333.0</ele><time>2026-04-22T10:23:53.323Z</time></trkpt><trkpt lat="39.390691" lon="8.4962814"><ele>332.79999999999995</ele><time>2026-04-22T10:23:54.323Z</time></trkpt><trkpt lat="39.3905639" lon="8.496159"><ele>332.6</ele><time>2026-04-22T10:23:56.322Z</time></trkpt><trkpt lat="39.3904838" lon="8.4961272"><ele>332.4</ele><time>2026-04-22T10:23:57.322Z</time></trkpt><trkpt lat="39.3904125" lon="8.4960877"><ele>332.20000000000005</ele><time>2026-04-22T10:23:58.323Z</time></trkpt><trkpt lat="39.3903475" lon="8.4960346"><ele>332.0</ele><time>2026-04-22T10:23:59.323Z</time></trkpt><trkpt lat="39.3902973" lon="8.4959586"><ele>332.6</ele><time>2026-04-22T10:24:00.323Z</time></trkpt><trkpt lat="39.390282" lon="8.4958601"><ele>333.20000000000005</ele><time>2026-04-22T10:24:01.323Z</time></trkpt><trkpt lat="39.3902979" lon="8.4957515"><ele>333.8</ele><time>2026-04-22T10:24:02.322Z</time></trkpt><trkpt lat="39.3903463" lon="8.4956284"><ele>334.4</ele><time>2026-04-22T10:24:03.323Z</time></trkpt><trkpt lat="39.3904084" lon="8.4954941"><ele>335.0</ele><time>2026-04-22T10:24:04.322Z</time></trkpt><trkpt lat="39.3904484" lon="8.4953668"><ele>333.4</ele><time>2026-04-22T10:24:05.323Z</time></trkpt><trkpt lat="39.3904544" lon="8.4952342"><ele>331.8</ele><time>2026-04-22T10:24:06.323Z</time></trkpt><trkpt lat="39.3904334" lon="8.4950981"><ele>330.20000000000005</ele><time>2026-04-22T10:24:07.323Z</time></trkpt><trkpt lat="39.3903865" lon="8.4949643"><ele>328.6</ele><time>2026-04-22T10:24:08.322Z</time></trkpt><trkpt lat="39.3903272" lon="8.4948372"><ele>327.0</ele><time>2026-04-22T10:24:09.323Z</time></trkpt><trkpt lat="39.3902613" lon="8.4947127"><ele>327.0</ele><time>2026-04-22T10:24:10.323Z</time></trkpt><trkpt lat="39.3901959" lon="8.4946011"><ele>327.0</ele><time>2026-04-22T10:24:11.323Z</time></trkpt><trkpt lat="39.3901381" lon="8.4945025"><ele>327.0</ele><time>2026-04-22T10:24:12.323Z</time></trkpt><trkpt lat="39.3900981" lon="8.4944033"><ele>327.0</ele><time>2026-04-22T10:24:13.322Z</time></trkpt><trkpt lat="39.3900877" lon="8.4942925"><ele>327.0</ele><time>2026-04-22T10:24:14.322Z</time></trkpt><trkpt lat="39.390104" lon="8.4941663"><ele>323.6666666666667</ele><time>2026-04-22T10:24:15.323Z</time></trkpt><trkpt lat="39.3901985" lon="8.4938474"><ele>320.33333333333337</ele><time>2026-04-22T10:24:17.323Z</time></trkpt><trkpt lat="39.3902557" lon="8.4936624"><ele>317.0</ele><time>2026-04-22T10:24:18.322Z</time></trkpt><trkpt lat="39.3903158" lon="8.4934642"><ele>315.33333333333337</ele><time>2026-04-22T10:24:19.323Z</time></trkpt><trkpt lat="39.3903711" lon="8.4932567"><ele>313.6666666666667</ele><time>2026-04-22T10:24:20.322Z</time></trkpt><trkpt lat="39.3904298" lon="8.493027"><ele>312.0</ele><time>2026-04-22T10:24:21.323Z</time></trkpt><trkpt lat="39.3904841" lon="8.4927873"><ele>317.6666666666667</ele><time>2026-04-22T10:24:22.322Z</time></trkpt><trkpt lat="39.3905325" lon="8.4925388"><ele>323.33333333333337</ele><time>2026-04-22T10:24:23.322Z</time></trkpt><trkpt lat="39.3905706" lon="8.4922742"><ele>329.0</ele><time>2026-04-22T10:24:24.322Z</time></trkpt><trkpt lat="39.390608" lon="8.4920084"><ele>329.0</ele><time>2026-04-22T10:24:25.322Z</time></trkpt><trkpt lat="39.390646" lon="8.4917429"><ele>329.0</ele><time>2026-04-22T10:24:26.323Z</time></trkpt><trkpt lat="39.3906832" lon="8.4914699"><ele>329.0</ele><time>2026-04-22T10:24:27.323Z</time></trkpt><trkpt lat="39.3907213" lon="8.491196"><ele>325.6666666666667</ele><time>2026-04-22T10:24:28.322Z</time></trkpt><trkpt lat="39.3907595" lon="8.4909289"><ele>322.3333333333333</ele><time>2026-04-22T10:24:29.323Z</time></trkpt><trkpt lat="39.3907953" lon="8.4906626"><ele>319.0</ele><time>2026-04-22T10:24:30.323Z</time></trkpt><trkpt lat="39.3908288" lon="8.4904009"><ele>317.0</ele><time>2026-04-22T10:24:31.323Z</time></trkpt><trkpt lat="39.3908653" lon="8.4901547"><ele>315.0</ele><time>2026-04-22T10:24:32.322Z</time></trkpt><trkpt lat="39.3908996" lon="8.4899108"><ele>313.0</ele><time>2026-04-22T10:24:33.322Z</time></trkpt><trkpt lat="39.3909316" lon="8.4896666"><ele>312.3333333333333</ele><time>2026-04-22T10:24:34.322Z</time></trkpt><trkpt lat="39.3909569" lon="8.4894207"><ele>311.6666666666667</ele><time>2026-04-22T10:24:35.322Z</time></trkpt><trkpt lat="39.3909673" lon="8.4891674"><ele>311.0</ele><time>2026-04-22T10:24:36.322Z</time></trkpt><trkpt lat="39.3909388" lon="8.4886608"><ele>309.6666666666667</ele><time>2026-04-22T10:24:38.323Z</time></trkpt><trkpt lat="39.3909032" lon="8.4884068"><ele>308.3333333333333</ele><time>2026-04-22T10:24:39.322Z</time></trkpt><trkpt lat="39.390864" lon="8.4881562"><ele>307.0</ele><time>2026-04-22T10:24:40.322Z</time></trkpt><trkpt lat="39.3908161" lon="8.4879037"><ele>307.0</ele><time>2026-04-22T10:24:41.323Z</time></trkpt><trkpt lat="39.3907653" lon="8.4876494"><ele>307.0</ele><time>2026-04-22T10:24:42.323Z</time></trkpt><trkpt lat="39.3907179" lon="8.4873981"><ele>307.0</ele><time>2026-04-22T10:24:43.323Z</time></trkpt><trkpt lat="39.3906691" lon="8.487155"><ele>309.0</ele><time>2026-04-22T10:24:44.322Z</time></trkpt><trkpt lat="39.3906255" lon="8.4869207"><ele>311.0</ele><time>2026-04-22T10:24:45.323Z</time></trkpt><trkpt lat="39.3905847" lon="8.4866975"><ele>313.0</ele><time>2026-04-22T10:24:46.322Z</time></trkpt><trkpt lat="39.3905547" lon="8.486477"><ele>313.0</ele><time>2026-04-22T10:24:47.322Z</time></trkpt><trkpt lat="39.3905415" lon="8.486269"><ele>313.0</ele><time>2026-04-22T10:24:48.323Z</time></trkpt><trkpt lat="39.3905617" lon="8.4860701"><ele>313.0</ele><time>2026-04-22T10:24:49.322Z</time></trkpt><trkpt lat="39.3906086" lon="8.4858692"><ele>311.66666666666663</ele><time>2026-04-22T10:24:50.323Z</time></trkpt><trkpt lat="39.3906842" lon="8.4856664"><ele>310.3333333333333</ele><time>2026-04-22T10:24:51.322Z</time></trkpt><trkpt lat="39.3907769" lon="8.4854752"><ele>309.0</ele><time>2026-04-22T10:24:52.323Z</time></trkpt><trkpt lat="39.3908836" lon="8.4852773"><ele>305.3333333333333</ele><time>2026-04-22T10:24:53.323Z</time></trkpt><trkpt lat="39.3909964" lon="8.485068"><ele>301.66666666666663</ele><time>2026-04-22T10:24:54.322Z</time></trkpt><trkpt lat="39.3911124" lon="8.4848558"><ele>298.0</ele><time>2026-04-22T10:24:55.323Z</time></trkpt><trkpt lat="39.3912189" lon="8.4846387"><ele>299.5</ele><time>2026-04-22T10:24:56.322Z</time></trkpt><trkpt lat="39.3913186" lon="8.484431"><ele>301.0</ele><time>2026-04-22T10:24:57.323Z</time></trkpt><trkpt lat="39.3914944" lon="8.4840473"><ele>302.0</ele><time>2026-04-22T10:24:59.323Z</time></trkpt><trkpt lat="39.391566" lon="8.4838662"><ele>303.0</ele><time>2026-04-22T10:25:00.323Z</time></trkpt><trkpt lat="39.3916144" lon="8.4836635"><ele>304.0</ele><time>2026-04-22T10:25:01.323Z</time></trkpt><trkpt lat="39.391649" lon="8.4834601"><ele>303.25</ele><time>2026-04-22T10:25:02.322Z</time></trkpt><trkpt lat="39.391678" lon="8.4832667"><ele>302.5</ele><time>2026-04-22T10:25:03.323Z</time></trkpt><trkpt lat="39.3917146" lon="8.4830843"><ele>301.75</ele><time>2026-04-22T10:25:04.323Z</time></trkpt><trkpt lat="39.3917766" lon="8.4829163"><ele>301.0</ele><time>2026-04-22T10:25:05.323Z</time></trkpt><trkpt lat="39.3918587" lon="8.4827649"><ele>301.0</ele><time>2026-04-22T10:25:06.323Z</time></trkpt><trkpt lat="39.3919684" lon="8.4826246"><ele>301.0</ele><time>2026-04-22T10:25:07.323Z</time></trkpt><trkpt lat="39.3920947" lon="8.4824885"><ele>301.0</ele><time>2026-04-22T10:25:08.323Z</time></trkpt><trkpt lat="39.3922207" lon="8.4823592"><ele>300.75</ele><time>2026-04-22T10:25:09.323Z</time></trkpt><trkpt lat="39.3923288" lon="8.4822573"><ele>300.5</ele><time>2026-04-22T10:25:10.323Z</time></trkpt><trkpt lat="39.3924133" lon="8.4821576"><ele>300.25</ele><time>2026-04-22T10:25:11.322Z</time></trkpt><trkpt lat="39.3924766" lon="8.4820498"><ele>300.0</ele><time>2026-04-22T10:25:12.322Z</time></trkpt><trkpt lat="39.3925134" lon="8.4819212"><ele>299.75</ele><time>2026-04-22T10:25:13.322Z</time></trkpt><trkpt lat="39.3925105" lon="8.4817765"><ele>299.5</ele><time>2026-04-22T10:25:14.323Z</time></trkpt><trkpt lat="39.3924613" lon="8.4816339"><ele>299.25</ele><time>2026-04-22T10:25:15.323Z</time></trkpt><trkpt lat="39.392374" lon="8.4815032"><ele>299.0</ele><time>2026-04-22T10:25:16.322Z</time></trkpt><trkpt lat="39.3922578" lon="8.4813868"><ele>298.0</ele><time>2026-04-22T10:25:17.323Z</time></trkpt><trkpt lat="39.3921336" lon="8.4812835"><ele>297.0</ele><time>2026-04-22T10:25:18.323Z</time></trkpt><trkpt lat="39.391852" lon="8.4811968"><ele>296.0</ele><time>2026-04-22T10:25:20.323Z</time></trkpt><trkpt lat="39.3916835" lon="8.4812257"><ele>296.0</ele><time>2026-04-22T10:25:21.323Z</time></trkpt><trkpt lat="39.3914986" lon="8.4812799"><ele>296.0</ele><time>2026-04-22T10:25:22.322Z</time></trkpt><trkpt lat="39.3913141" lon="8.4813304"><ele>296.0</ele><time>2026-04-22T10:25:23.322Z</time></trkpt><trkpt lat="39.3911277" lon="8.4813729"><ele>298.6666666666667</ele><time>2026-04-22T10:25:24.323Z</time></trkpt><trkpt lat="39.3909359" lon="8.4814133"><ele>301.3333333333333</ele><time>2026-04-22T10:25:25.322Z</time></trkpt><trkpt lat="39.3907452" lon="8.4814505"><ele>304.0</ele><time>2026-04-22T10:25:26.323Z</time></trkpt><trkpt lat="39.3905681" lon="8.4814839"><ele>305.3333333333333</ele><time>2026-04-22T10:25:27.323Z</time></trkpt><trkpt lat="39.3904091" lon="8.4815131"><ele>306.6666666666667</ele><time>2026-04-22T10:25:28.323Z</time></trkpt><trkpt lat="39.3902593" lon="8.4815442"><ele>308.0</ele><time>2026-04-22T10:25:29.322Z</time></trkpt><trkpt lat="39.3901081" lon="8.4815644"><ele>308.0</ele><time>2026-04-22T10:25:30.323Z</time></trkpt><trkpt lat="39.3899667" lon="8.4815634"><ele>308.0</ele><time>2026-04-22T10:25:31.323Z</time></trkpt><trkpt lat="39.3898309" lon="8.4815364"><ele>308.0</ele><time>2026-04-22T10:25:32.323Z</time></trkpt><trkpt lat="39.3897081" lon="8.4814781"><ele>308.0</ele><time>2026-04-22T10:25:33.323Z</time></trkpt><trkpt lat="39.3895866" lon="8.4813938"><ele>309.75</ele><time>2026-04-22T10:25:34.323Z</time></trkpt><trkpt lat="39.3894734" lon="8.4812992"><ele>311.5</ele><time>2026-04-22T10:25:35.322Z</time></trkpt><trkpt lat="39.3893587" lon="8.4811981"><ele>313.25</ele><time>2026-04-22T10:25:36.322Z</time></trkpt><trkpt lat="39.3892525" lon="8.4810972"><ele>315.0</ele><time>2026-04-22T10:25:37.323Z</time></trkpt><trkpt lat="39.3891545" lon="8.4809875"><ele>315.0</ele><time>2026-04-22T10:25:38.323Z</time></trkpt><trkpt lat="39.3890673" lon="8.4808829"><ele>315.0</ele><time>2026-04-22T10:25:39.323Z</time></trkpt><trkpt lat="39.3889413" lon="8.4807054"><ele>315.0</ele><time>2026-04-22T10:25:41.323Z</time></trkpt><trkpt lat="39.3888746" lon="8.4806099"><ele>315.0</ele><time>2026-04-22T10:25:43.323Z</time></trkpt><trkpt lat="39.3887929" lon="8.4805618"><ele>317.8</ele><time>2026-04-22T10:25:47.323Z</time></trkpt><trkpt lat="39.3886736" lon="8.4806298"><ele>320.6</ele><time>2026-04-22T10:25:49.323Z</time></trkpt><trkpt lat="39.3885969" lon="8.4807026"><ele>323.4</ele><time>2026-04-22T10:25:50.323Z</time></trkpt><trkpt lat="39.3885354" lon="8.4807981"><ele>326.2</ele><time>2026-04-22T10:25:51.323Z</time></trkpt><trkpt lat="39.3884999" lon="8.4809029"><ele>329.0</ele><time>2026-04-22T10:25:52.323Z</time></trkpt><trkpt lat="39.3884973" lon="8.4810206"><ele>329.0</ele><time>2026-04-22T10:25:53.323Z</time></trkpt><trkpt lat="39.3885322" lon="8.4811377"><ele>329.0</ele><time>2026-04-22T10:25:54.322Z</time></trkpt><trkpt lat="39.3885891" lon="8.481247"><ele>329.0</ele><time>2026-04-22T10:25:55.322Z</time></trkpt><trkpt lat="39.388674" lon="8.4813597"><ele>329.0</ele><time>2026-04-22T10:25:56.323Z</time></trkpt><trkpt lat="39.3887719" lon="8.481488"><ele>330.75</ele><time>2026-04-22T10:25:57.323Z</time></trkpt><trkpt lat="39.388861" lon="8.4816328"><ele>332.5</ele><time>2026-04-22T10:25:58.322Z</time></trkpt><trkpt lat="39.388942" lon="8.4817956"><ele>334.25</ele><time>2026-04-22T10:25:59.322Z</time></trkpt><trkpt lat="39.3890143" lon="8.4819583"><ele>336.0</ele><time>2026-04-22T10:26:00.322Z</time></trkpt><trkpt lat="39.3891843" lon="8.4821945"><ele>336.0</ele><time>2026-04-22T10:26:02.323Z</time></trkpt><trkpt lat="39.3893051" lon="8.482246"><ele>336.0</ele><time>2026-04-22T10:26:03.322Z</time></trkpt><trkpt lat="39.3894576" lon="8.4822646"><ele>336.0</ele><time>2026-04-22T10:26:04.322Z</time></trkpt><trkpt lat="39.3896234" lon="8.4823002"><ele>336.0</ele><time>2026-04-22T10:26:05.323Z</time></trkpt><trkpt lat="39.389786" lon="8.4823636"><ele>332.0</ele><time>2026-04-22T10:26:06.322Z</time></trkpt><trkpt lat="39.3899514" lon="8.4824436"><ele>328.0</ele><time>2026-04-22T10:26:07.322Z</time></trkpt><trkpt lat="39.3901123" lon="8.482524"><ele>324.0</ele><time>2026-04-22T10:26:08.323Z</time></trkpt><trkpt lat="39.3902562" lon="8.4825913"><ele>324.0</ele><time>2026-04-22T10:26:09.323Z</time></trkpt><trkpt lat="39.3903932" lon="8.4826214"><ele>324.0</ele><time>2026-04-22T10:26:10.323Z</time></trkpt><trkpt lat="39.3905148" lon="8.4826088"><ele>324.0</ele><time>2026-04-22T10:26:11.323Z</time></trkpt><trkpt lat="39.3906185" lon="8.4825884"><ele>324.0</ele><time>2026-04-22T10:26:12.323Z</time></trkpt><trkpt lat="39.3907149" lon="8.4826015"><ele>323.0</ele><time>2026-04-22T10:26:13.323Z</time></trkpt><trkpt lat="39.39078" lon="8.4826629"><ele>322.0</ele><time>2026-04-22T10:26:14.323Z</time></trkpt><trkpt lat="39.3908188" lon="8.4827477"><ele>321.0</ele><time>2026-04-22T10:26:15.323Z</time></trkpt><trkpt lat="39.390821" lon="8.4828386"><ele>320.0</ele><time>2026-04-22T10:26:16.323Z</time></trkpt><trkpt lat="39.3907754" lon="8.4829346"><ele>319.0</ele><time>2026-04-22T10:26:17.323Z</time></trkpt><trkpt lat="39.3906887" lon="8.4830405"><ele>318.0</ele><time>2026-04-22T10:26:18.322Z</time></trkpt><trkpt lat="39.3905664" lon="8.4831456"><ele>323.3333333333333</ele><time>2026-04-22T10:26:19.323Z</time></trkpt><trkpt lat="39.3904002" lon="8.4832411"><ele>328.66666666666663</ele><time>2026-04-22T10:26:20.322Z</time></trkpt><trkpt lat="39.3902292" lon="8.4833054"><ele>334.0</ele><time>2026-04-22T10:26:21.322Z</time></trkpt><trkpt lat="39.3899279" lon="8.4834741"><ele>334.0</ele><time>2026-04-22T10:26:23.323Z</time></trkpt><trkpt lat="39.3897888" lon="8.4835848"><ele>334.0</ele><time>2026-04-22T10:26:24.323Z</time></trkpt><trkpt lat="39.3896509" lon="8.4837073"><ele>334.0</ele><time>2026-04-22T10:26:25.323Z</time></trkpt><trkpt lat="39.3895062" lon="8.4838275"><ele>337.0</ele><time>2026-04-22T10:26:26.323Z</time></trkpt><trkpt lat="39.3893573" lon="8.4839269"><ele>340.0</ele><time>2026-04-22T10:26:27.323Z</time></trkpt><trkpt lat="39.3892066" lon="8.4840107"><ele>343.0</ele><time>2026-04-22T10:26:28.322Z</time></trkpt><trkpt lat="39.3890624" lon="8.4840945"><ele>343.0</ele><time>2026-04-22T10:26:29.323Z</time></trkpt><trkpt lat="39.3889283" lon="8.4842041"><ele>343.0</ele><time>2026-04-22T10:26:30.322Z</time></trkpt><trkpt lat="39.3888045" lon="8.4843501"><ele>343.0</ele><time>2026-04-22T10:26:31.323Z</time></trkpt><trkpt lat="39.3886827" lon="8.4845109"><ele>346.0</ele><time>2026-04-22T10:26:32.322Z</time></trkpt><trkpt lat="39.388549" lon="8.4846631"><ele>349.0</ele><time>2026-04-22T10:26:33.323Z</time></trkpt><trkpt lat="39.3884118" lon="8.4847872"><ele>352.0</ele><time>2026-04-22T10:26:34.323Z</time></trkpt><trkpt lat="39.3882841" lon="8.4848796"><ele>352.0</ele><time>2026-04-22T10:26:35.323Z</time></trkpt><trkpt lat="39.3881687" lon="8.4849659"><ele>352.0</ele><time>2026-04-22T10:26:36.322Z</time></trkpt><trkpt lat="39.3880636" lon="8.485056"><ele>352.0</ele><time>2026-04-22T10:26:37.323Z</time></trkpt><trkpt lat="39.3879624" lon="8.4851258"><ele>352.0</ele><time>2026-04-22T10:26:38.323Z</time></trkpt><trkpt lat="39.3878927" lon="8.4852008"><ele>352.75</ele><time>2026-04-22T10:26:39.322Z</time></trkpt><trkpt lat="39.3878533" lon="8.4852863"><ele>353.5</ele><time>2026-04-22T10:26:40.323Z</time></trkpt><trkpt lat="39.387859" lon="8.4853938"><ele>354.25</ele><time>2026-04-22T10:26:41.322Z</time></trkpt><trkpt lat="39.3879001" lon="8.4855024"><ele>355.0</ele><time>2026-04-22T10:26:42.322Z</time></trkpt><trkpt lat="39.3880917" lon="8.4857194"><ele>355.0</ele><time>2026-04-22T10:26:44.322Z</time></trkpt><trkpt lat="39.3882198" lon="8.4858549"><ele>355.0</ele><time>2026-04-22T10:26:45.322Z</time></trkpt><trkpt lat="39.3883204" lon="8.4860196"><ele>355.0</ele><time>2026-04-22T10:26:46.322Z</time></trkpt><trkpt lat="39.3883864" lon="8.4862002"><ele>357.5</ele><time>2026-04-22T10:26:47.323Z</time></trkpt><trkpt lat="39.3884198" lon="8.4863906"><ele>360.0</ele><time>2026-04-22T10:26:48.323Z</time></trkpt><trkpt lat="39.3884079" lon="8.4865768"><ele>362.5</ele><time>2026-04-22T10:26:49.323Z</time></trkpt><trkpt lat="39.3883671" lon="8.4867518"><ele>365.0</ele><time>2026-04-22T10:26:50.323Z</time></trkpt><trkpt lat="39.3883048" lon="8.4869061"><ele>365.0</ele><time>2026-04-22T10:26:51.323Z</time></trkpt><trkpt lat="39.3882135" lon="8.4870413"><ele>365.0</ele><time>2026-04-22T10:26:52.323Z</time></trkpt><trkpt lat="39.3881428" lon="8.4871762"><ele>365.0</ele><time>2026-04-22T10:26:53.323Z</time></trkpt><trkpt lat="39.3881281" lon="8.4873426"><ele>365.0</ele><time>2026-04-22T10:26:54.323Z</time></trkpt><trkpt lat="39.3881517" lon="8.4875076"><ele>364.6</ele><time>2026-04-22T10:26:55.323Z</time></trkpt><trkpt lat="39.3881895" lon="8.4876503"><ele>364.2</ele><time>2026-04-22T10:26:56.322Z</time></trkpt><trkpt lat="39.3882077" lon="8.4877775"><ele>363.79999999999995</ele><time>2026-04-22T10:26:57.323Z</time></trkpt><trkpt lat="39.388193" lon="8.4878909"><ele>363.4</ele><time>2026-04-22T10:26:58.323Z</time></trkpt><trkpt lat="39.3881477" lon="8.4879827"><ele>363.0</ele><time>2026-04-22T10:26:59.323Z</time></trkpt><trkpt lat="39.3880803" lon="8.4880373"><ele>364.25</ele><time>2026-04-22T10:27:00.323Z</time></trkpt><trkpt lat="39.3879971" lon="8.4880529"><ele>365.5</ele><time>2026-04-22T10:27:01.322Z</time></trkpt><trkpt lat="39.387906" lon="8.4880292"><ele>366.75</ele><time>2026-04-22T10:27:02.322Z</time></trkpt><trkpt lat="39.3878116" lon="8.487985"><ele>368.0</ele><time>2026-04-22T10:27:03.323Z</time></trkpt><trkpt lat="39.3876529" lon="8.4877711"><ele>370.75</ele><time>2026-04-22T10:27:05.323Z</time></trkpt><trkpt lat="39.3875968" lon="8.4875843"><ele>373.5</ele><time>2026-04-22T10:27:06.322Z</time></trkpt><trkpt lat="39.3875313" lon="8.4873834"><ele>376.25</ele><time>2026-04-22T10:27:07.323Z</time></trkpt><trkpt lat="39.3874618" lon="8.4872626"><ele>379.0</ele><time>2026-04-22T10:27:08.323Z</time></trkpt><trkpt lat="39.3873806" lon="8.4872396"><ele>379.0</ele><time>2026-04-22T10:27:09.322Z</time></trkpt><trkpt lat="39.3873" lon="8.4872873"><ele>379.0</ele><time>2026-04-22T10:27:10.322Z</time></trkpt><trkpt lat="39.3872333" lon="8.4873875"><ele>379.0</ele><time>2026-04-22T10:27:11.323Z</time></trkpt><trkpt lat="39.3871884" lon="8.4875483"><ele>379.0</ele><time>2026-04-22T10:27:12.323Z</time></trkpt><trkpt lat="39.3871697" lon="8.4877643"><ele>382.75</ele><time>2026-04-22T10:27:13.323Z</time></trkpt><trkpt lat="39.3871734" lon="8.487978"><ele>386.5</ele><time>2026-04-22T10:27:14.322Z</time></trkpt><trkpt lat="39.3871707" lon="8.4881492"><ele>390.25</ele><time>2026-04-22T10:27:15.322Z</time></trkpt><trkpt lat="39.3871477" lon="8.4882846"><ele>394.0</ele><time>2026-04-22T10:27:16.323Z</time></trkpt><trkpt lat="39.3871004" lon="8.4883838"><ele>394.0</ele><time>2026-04-22T10:27:17.323Z</time></trkpt><trkpt lat="39.3870215" lon="8.4884567"><ele>394.0</ele><time>2026-04-22T10:27:18.322Z</time></trkpt><trkpt lat="39.3869041" lon="8.488509"><ele>394.0</ele><time>2026-04-22T10:27:19.323Z</time></trkpt><trkpt lat="39.386756" lon="8.4885764"><ele>394.0</ele><time>2026-04-22T10:27:20.323Z</time></trkpt><trkpt lat="39.3865972" lon="8.4886696"><ele>394.33333333333337</ele><time>2026-04-22T10:27:21.323Z</time></trkpt><trkpt lat="39.3864405" lon="8.4887829"><ele>394.66666666666663</ele><time>2026-04-22T10:27:22.323Z</time></trkpt><trkpt lat="39.3862912" lon="8.4888791"><ele>395.0</ele><time>2026-04-22T10:27:23.323Z</time></trkpt><trkpt lat="39.3861482" lon="8.4889535"><ele>395.0</ele><time>2026-04-22T10:27:24.323Z</time></trkpt><trkpt lat="39.3858585" lon="8.4889808"><ele>395.0</ele><time>2026-04-22T10:27:26.323Z</time></trkpt><trkpt lat="39.3857226" lon="8.4889333"><ele>395.0</ele><time>2026-04-22T10:27:27.322Z</time></trkpt><trkpt lat="39.3856013" lon="8.4888809"><ele>399.6</ele><time>2026-04-22T10:27:28.323Z</time></trkpt><trkpt lat="39.3855079" lon="8.488847"><ele>404.2</ele><time>2026-04-22T10:27:29.323Z</time></trkpt><trkpt lat="39.3854241" lon="8.4888659"><ele>408.79999999999995</ele><time>2026-04-22T10:27:30.323Z</time></trkpt><trkpt lat="39.3853475" lon="8.4889468"><ele>413.4</ele><time>2026-04-22T10:27:31.323Z</time></trkpt><trkpt lat="39.3852994" lon="8.4890701"><ele>418.0</ele><time>2026-04-22T10:27:32.323Z</time></trkpt><trkpt lat="39.3852819" lon="8.489221"><ele>418.0</ele><time>2026-04-22T10:27:33.322Z</time></trkpt><trkpt lat="39.3852896" lon="8.4893907"><ele>418.0</ele><time>2026-04-22T10:27:34.323Z</time></trkpt><trkpt lat="39.3853009" lon="8.489552"><ele>418.0</ele><time>2026-04-22T10:27:35.322Z</time></trkpt><trkpt lat="39.3853297" lon="8.4896935"><ele>418.0</ele><time>2026-04-22T10:27:36.323Z</time></trkpt><trkpt lat="39.3853937" lon="8.4898207"><ele>419.25</ele><time>2026-04-22T10:27:37.323Z</time></trkpt><trkpt lat="39.3854866" lon="8.4899211"><ele>420.5</ele><time>2026-04-22T10:27:38.322Z</time></trkpt><trkpt lat="39.3856183" lon="8.4899818"><ele>421.75</ele><time>2026-04-22T10:27:39.323Z</time></trkpt><trkpt lat="39.3857815" lon="8.4900052"><ele>423.0</ele><time>2026-04-22T10:27:40.323Z</time></trkpt><trkpt lat="39.3859679" lon="8.4900163"><ele>417.0</ele><time>2026-04-22T10:27:41.322Z</time></trkpt><trkpt lat="39.3861492" lon="8.4900504"><ele>411.0</ele><time>2026-04-22T10:27:42.323Z</time></trkpt><trkpt lat="39.3863117" lon="8.4900869"><ele>405.0</ele><time>2026-04-22T10:27:43.322Z</time></trkpt><trkpt lat="39.3864538" lon="8.4901537"><ele>406.33333333333337</ele><time>2026-04-22T10:27:44.322Z</time></trkpt><trkpt lat="39.3865722" lon="8.4902463"><ele>407.6666666666667</ele><time>2026-04-22T10:27:45.322Z</time></trkpt><trkpt lat="39.3867079" lon="8.4905079"><ele>409.0</ele><time>2026-04-22T10:27:47.323Z</time></trkpt><trkpt lat="39.38672" lon="8.4906497"><ele>409.0</ele><time>2026-04-22T10:27:48.323Z</time></trkpt><trkpt lat="39.3866798" lon="8.4907874"><ele>409.0</ele><time>2026-04-22T10:27:49.322Z</time></trkpt><trkpt lat="39.3865995" lon="8.4909255"><ele>409.0</ele><time>2026-04-22T10:27:50.323Z</time></trkpt><trkpt lat="39.3865039" lon="8.4910625"><ele>409.0</ele><time>2026-04-22T10:27:51.322Z</time></trkpt><trkpt lat="39.3864227" lon="8.4912053"><ele>407.79999999999995</ele><time>2026-04-22T10:27:52.323Z</time></trkpt><trkpt lat="39.3863688" lon="8.4913477"><ele>406.59999999999997</ele><time>2026-04-22T10:27:53.322Z</time></trkpt><trkpt lat="39.3863285" lon="8.4914749"><ele>405.4</ele><time>2026-04-22T10:27:54.323Z</time></trkpt><trkpt lat="39.3862851" lon="8.4915861"><ele>404.2</ele><time>2026-04-22T10:27:55.323Z</time></trkpt><trkpt lat="39.386224" lon="8.4916559"><ele>403.0</ele><time>2026-04-22T10:27:56.323Z</time></trkpt><trkpt lat="39.3861357" lon="8.4916708"><ele>407.75</ele><time>2026-04-22T10:27:57.323Z</time></trkpt><trkpt lat="39.3860242" lon="8.4916443"><ele>412.5</ele><time>2026-04-22T10:27:58.322Z</time></trkpt><trkpt lat="39.3858921" lon="8.491612"><ele>417.25</ele><time>2026-04-22T10:27:59.323Z</time></trkpt><trkpt lat="39.3857711" lon="8.4916016"><ele>422.0</ele><time>2026-04-22T10:28:00.322Z</time></trkpt><trkpt lat="39.3856682" lon="8.4916606"><ele>422.0</ele><time>2026-04-22T10:28:01.323Z</time></trkpt><trkpt lat="39.3855911" lon="8.4917869"><ele>422.0</ele><time>2026-04-22T10:28:02.323Z</time></trkpt><trkpt lat="39.3855396" lon="8.4919536"><ele>422.0</ele><time>2026-04-22T10:28:03.323Z</time></trkpt><trkpt lat="39.3854837" lon="8.4921294"><ele>422.0</ele><time>2026-04-22T10:28:04.323Z</time></trkpt><trkpt lat="39.385405" lon="8.4922907"><ele>427.66666666666663</ele><time>2026-04-22T10:28:05.323Z</time></trkpt><trkpt lat="39.3852961" lon="8.4924338"><ele>433.33333333333337</ele><time>2026-04-22T10:28:06.322Z</time></trkpt><trkpt lat="39.3851177" lon="8.4926943"><ele>439.0</ele><time>2026-04-22T10:28:08.323Z</time></trkpt><trkpt lat="39.3850554" lon="8.4928214"><ele>436.6</ele><time>2026-04-22T10:28:09.323Z</time></trkpt><trkpt lat="39.3849908" lon="8.4929319"><ele>434.2</ele><time>2026-04-22T10:28:10.323Z</time></trkpt><trkpt lat="39.3849061" lon="8.4930052"><ele>431.80000000000007</ele><time>2026-04-22T10:28:11.323Z</time></trkpt><trkpt lat="39.3847905" lon="8.4930369"><ele>429.40000000000003</ele><time>2026-04-22T10:28:12.322Z</time></trkpt><trkpt lat="39.3846807" lon="8.493084"><ele>427.0</ele><time>2026-04-22T10:28:13.322Z</time></trkpt><trkpt lat="39.3845853" lon="8.4931767"><ele>432.0</ele><time>2026-04-22T10:28:14.323Z</time></trkpt><trkpt lat="39.384512" lon="8.4933106"><ele>437.0</ele><time>2026-04-22T10:28:15.323Z</time></trkpt><trkpt lat="39.3844579" lon="8.4934832"><ele>442.0</ele><time>2026-04-22T10:28:16.323Z</time></trkpt><trkpt lat="39.384414" lon="8.4936741"><ele>447.0</ele><time>2026-04-22T10:28:17.323Z</time></trkpt><trkpt lat="39.3843711" lon="8.4938676"><ele>447.0</ele><time>2026-04-22T10:28:18.323Z</time></trkpt><trkpt lat="39.3843429" lon="8.4940587"><ele>447.0</ele><time>2026-04-22T10:28:19.323Z</time></trkpt><trkpt lat="39.3843389" lon="8.494252"><ele>447.0</ele><time>2026-04-22T10:28:20.323Z</time></trkpt><trkpt lat="39.3843637" lon="8.4944349"><ele>447.0</ele><time>2026-04-22T10:28:21.323Z</time></trkpt><trkpt lat="39.3843995" lon="8.4946069"><ele>446.75</ele><time>2026-04-22T10:28:22.323Z</time></trkpt><trkpt lat="39.3844137" lon="8.4947751"><ele>446.5</ele><time>2026-04-22T10:28:23.322Z</time></trkpt><trkpt lat="39.384392" lon="8.4949566"><ele>446.25</ele><time>2026-04-22T10:28:24.323Z</time></trkpt><trkpt lat="39.3843512" lon="8.4951266"><ele>446.0</ele><time>2026-04-22T10:28:25.323Z</time></trkpt><trkpt lat="39.3843015" lon="8.4952807"><ele>445.3333333333333</ele><time>2026-04-22T10:28:26.322Z</time></trkpt><trkpt lat="39.3842425" lon="8.4954207"><ele>444.66666666666663</ele><time>2026-04-22T10:28:27.323Z</time></trkpt><trkpt lat="39.3840833" lon="8.4956172"><ele>444.0</ele><time>2026-04-22T10:28:29.322Z</time></trkpt><trkpt lat="39.3839735" lon="8.4956311"><ele>444.0</ele><time>2026-04-22T10:28:30.322Z</time></trkpt><trkpt lat="39.3838557" lon="8.4956002"><ele>444.0</ele><time>2026-04-22T10:28:31.322Z</time></trkpt><trkpt lat="39.3837374" lon="8.4955212"><ele>444.0</ele><time>2026-04-22T10:28:32.323Z</time></trkpt><trkpt lat="39.3836286" lon="8.4954035"><ele>444.0</ele><time>2026-04-22T10:28:33.322Z</time></trkpt><trkpt lat="39.3835371" lon="8.4952499"><ele>443.66666666666663</ele><time>2026-04-22T10:28:34.322Z</time></trkpt><trkpt lat="39.3834557" lon="8.49506"><ele>443.3333333333333</ele><time>2026-04-22T10:28:35.323Z</time></trkpt><trkpt lat="39.3833867" lon="8.4948476"><ele>443.0</ele><time>2026-04-22T10:28:36.323Z</time></trkpt><trkpt lat="39.3833371" lon="8.4945987"><ele>445.66666666666663</ele><time>2026-04-22T10:28:37.323Z</time></trkpt><trkpt lat="39.3832826" lon="8.4943459"><ele>448.33333333333337</ele><time>2026-04-22T10:28:38.322Z</time></trkpt><trkpt lat="39.3832246" lon="8.4941024"><ele>451.0</ele><time>2026-04-22T10:28:39.323Z</time></trkpt><trkpt lat="39.3831703" lon="8.4938523"><ele>451.33333333333337</ele><time>2026-04-22T10:28:40.323Z</time></trkpt><trkpt lat="39.3831164" lon="8.493598"><ele>451.66666666666663</ele><time>2026-04-22T10:28:41.322Z</time></trkpt><trkpt lat="39.3830577" lon="8.4933402"><ele>452.0</ele><time>2026-04-22T10:28:42.323Z</time></trkpt><trkpt lat="39.3829989" lon="8.4930827"><ele>454.66666666666663</ele><time>2026-04-22T10:28:43.323Z</time></trkpt><trkpt lat="39.3829384" lon="8.4928322"><ele>457.33333333333337</ele><time>2026-04-22T10:28:44.323Z</time></trkpt><trkpt lat="39.3828853" lon="8.4925995"><ele>460.0</ele><time>2026-04-22T10:28:45.323Z</time></trkpt><trkpt lat="39.3828293" lon="8.492396"><ele>460.0</ele><time>2026-04-22T10:28:46.323Z</time></trkpt><trkpt lat="39.38278" lon="8.4921997"><ele>460.0</ele><time>2026-04-22T10:28:47.323Z</time></trkpt><trkpt lat="39.3827425" lon="8.491996"><ele>460.0</ele><time>2026-04-22T10:28:48.322Z</time></trkpt><trkpt lat="39.3826691" lon="8.4916224"><ele>462.5</ele><time>2026-04-22T10:28:50.323Z</time></trkpt><trkpt lat="39.382611" lon="8.4914735"><ele>465.0</ele><time>2026-04-22T10:28:51.323Z</time></trkpt><trkpt lat="39.3825237" lon="8.4913808"><ele>467.5</ele><time>2026-04-22T10:28:52.323Z</time></trkpt><trkpt lat="39.3824028" lon="8.4913411"><ele>470.0</ele><time>2026-04-22T10:28:53.323Z</time></trkpt><trkpt lat="39.3822709" lon="8.4913562"><ele>473.25</ele><time>2026-04-22T10:28:54.323Z</time></trkpt><trkpt lat="39.3821257" lon="8.4914335"><ele>476.5</ele><time>2026-04-22T10:28:55.323Z</time></trkpt><trkpt lat="39.3819914" lon="8.4915168"><ele>479.75</ele><time>2026-04-22T10:28:56.323Z</time></trkpt><trkpt lat="39.3818833" lon="8.4915962"><ele>483.0</ele><time>2026-04-22T10:28:57.322Z</time></trkpt><trkpt lat="39.3818093" lon="8.4916929"><ele>483.0</ele><time>2026-04-22T10:28:58.323Z</time></trkpt><trkpt lat="39.3817668" lon="8.4918185"><ele>483.0</ele><time>2026-04-22T10:28:59.323Z</time></trkpt><trkpt lat="39.3817529" lon="8.4919635"><ele>483.0</ele><time>2026-04-22T10:29:00.323Z</time></trkpt><trkpt lat="39.3817668" lon="8.4921272"><ele>483.0</ele><time>2026-04-22T10:29:01.323Z</time></trkpt><trkpt lat="39.3818019" lon="8.4923128"><ele>483.33333333333337</ele><time>2026-04-22T10:29:02.323Z</time></trkpt><trkpt lat="39.3818231" lon="8.4925268"><ele>483.6666666666667</ele><time>2026-04-22T10:29:03.323Z</time></trkpt><trkpt lat="39.3818344" lon="8.4927349"><ele>484.0</ele><time>2026-04-22T10:29:04.323Z</time></trkpt><trkpt lat="39.3818303" lon="8.4929569"><ele>484.0</ele><time>2026-04-22T10:29:05.323Z</time></trkpt><trkpt lat="39.3818144" lon="8.4931608"><ele>484.0</ele><time>2026-04-22T10:29:06.323Z</time></trkpt><trkpt lat="39.3818" lon="8.4933416"><ele>484.0</ele><time>2026-04-22T10:29:07.322Z</time></trkpt><trkpt lat="39.3817779" lon="8.4934962"><ele>484.0</ele><time>2026-04-22T10:29:08.323Z</time></trkpt><trkpt lat="39.3817295" lon="8.4936409"><ele>482.0</ele><time>2026-04-22T10:29:09.323Z</time></trkpt><trkpt lat="39.3815541" lon="8.4938604"><ele>480.0</ele><time>2026-04-22T10:29:11.322Z</time></trkpt><trkpt lat="39.3814462" lon="8.4939292"><ele>478.0</ele><time>2026-04-22T10:29:12.322Z</time></trkpt><trkpt lat="39.3813329" lon="8.4939596"><ele>478.0</ele><time>2026-04-22T10:29:13.323Z</time></trkpt><trkpt lat="39.381199" lon="8.4939508"><ele>478.0</ele><time>2026-04-22T10:29:14.322Z</time></trkpt><trkpt lat="39.3810635" lon="8.4939114"><ele>478.0</ele><time>2026-04-22T10:29:15.323Z</time></trkpt><trkpt lat="39.380952" lon="8.4938508"><ele>478.0</ele><time>2026-04-22T10:29:16.323Z</time></trkpt><trkpt lat="39.3808545" lon="8.4937579"><ele>482.75</ele><time>2026-04-22T10:29:17.323Z</time></trkpt><trkpt lat="39.3807617" lon="8.4936403"><ele>487.5</ele><time>2026-04-22T10:29:18.323Z</time></trkpt><trkpt lat="39.3806578" lon="8.4935326"><ele>492.25</ele><time>2026-04-22T10:29:19.323Z</time></trkpt><trkpt lat="39.3805408" lon="8.4934636"><ele>497.0</ele><time>2026-04-22T10:29:20.322Z</time></trkpt><trkpt lat="39.3804234" lon="8.4934366"><ele>497.6</ele><time>2026-04-22T10:29:21.323Z</time></trkpt><trkpt lat="39.3803089" lon="8.4934499"><ele>498.20000000000005</ele><time>2026-04-22T10:29:22.322Z</time></trkpt><trkpt lat="39.3802121" lon="8.4935051"><ele>498.8</ele><time>2026-04-22T10:29:23.323Z</time></trkpt><trkpt lat="39.380122" lon="8.4935704"><ele>499.4</ele><time>2026-04-22T10:29:24.323Z</time></trkpt><trkpt lat="39.3800456" lon="8.4936615"><ele>500.0</ele><time>2026-04-22T10:29:25.323Z</time></trkpt><trkpt lat="39.3799911" lon="8.4937639"><ele>497.0</ele><time>2026-04-22T10:29:26.323Z</time></trkpt><trkpt lat="39.3799463" lon="8.4938693"><ele>494.0</ele><time>2026-04-22T10:29:27.322Z</time></trkpt><trkpt lat="39.3799035" lon="8.4939839"><ele>491.0</ele><time>2026-04-22T10:29:28.323Z</time></trkpt><trkpt lat="39.3798043" lon="8.4941542"><ele>488.0</ele><time>2026-04-22T10:29:30.322Z</time></trkpt><trkpt lat="39.3796621" lon="8.494228"><ele>488.0</ele><time>2026-04-22T10:29:32.323Z</time></trkpt><trkpt lat="39.379575" lon="8.4942106"><ele>487.99999999999994</ele><time>2026-04-22T10:29:33.323Z</time></trkpt><trkpt lat="39.3794891" lon="8.494148"><ele>487.99999999999994</ele><time>2026-04-22T10:29:34.322Z</time></trkpt><trkpt lat="39.3793974" lon="8.4940607"><ele>488.0</ele><time>2026-04-22T10:29:35.323Z</time></trkpt><trkpt lat="39.3793105" lon="8.4939455"><ele>488.0</ele><time>2026-04-22T10:29:36.323Z</time></trkpt><trkpt lat="39.3792298" lon="8.4938509"><ele>487.99999999999994</ele><time>2026-04-22T10:29:37.323Z</time></trkpt><trkpt lat="39.3791598" lon="8.493775"><ele>488.0</ele><time>2026-04-22T10:29:38.322Z</time></trkpt><trkpt lat="39.3790979" lon="8.4937063"><ele>488.0</ele><time>2026-04-22T10:29:39.322Z</time></trkpt><trkpt lat="39.3790515" lon="8.4936457"><ele>488.0</ele><time>2026-04-22T10:29:40.323Z</time></trkpt><trkpt lat="39.3789905" lon="8.4935686"><ele>487.99999999999994</ele><time>2026-04-22T10:29:42.323Z</time></trkpt><trkpt lat="39.3790164" lon="8.4936464"><ele>488.0</ele><time>2026-04-22T10:29:46.323Z</time></trkpt><trkpt lat="39.3791094" lon="8.4937526"><ele>488.0</ele><time>2026-04-22T10:29:48.323Z</time></trkpt><trkpt lat="39.3791687" lon="8.4938165"><ele>488.0</ele><time>2026-04-22T10:29:49.323Z</time></trkpt><trkpt lat="39.3792375" lon="8.493888"><ele>488.0</ele><time>2026-04-22T10:29:50.323Z</time></trkpt><trkpt lat="39.3793117" lon="8.4939526"><ele>488.0</ele><time>2026-04-22T10:29:51.322Z</time></trkpt><trkpt lat="39.3795072" lon="8.4941044"><ele>488.0</ele><time>2026-04-22T10:29:54.323Z</time></trkpt><trkpt lat="39.3795784" lon="8.4941437"><ele>488.0</ele><time>2026-04-22T10:29:55.323Z</time></trkpt><trkpt lat="39.3797961" lon="8.494244"><ele>488.0</ele><time>2026-04-22T10:29:58.323Z</time></trkpt><trkpt lat="39.3798679" lon="8.4942266"><ele>488.0</ele><time>2026-04-22T10:29:59.323Z</time></trkpt><trkpt lat="39.379933" lon="8.4941647"><ele>487.79999999999995</ele><time>2026-04-22T10:30:00.323Z</time></trkpt><trkpt lat="39.379988" lon="8.4940644"><ele>487.59999999999997</ele><time>2026-04-22T10:30:01.323Z</time></trkpt><trkpt lat="39.380036" lon="8.4939338"><ele>487.40000000000003</ele><time>2026-04-22T10:30:02.323Z</time></trkpt><trkpt lat="39.3800781" lon="8.4938175"><ele>487.20000000000005</ele><time>2026-04-22T10:30:03.323Z</time></trkpt><trkpt lat="39.3801218" lon="8.4937276"><ele>487.0</ele><time>2026-04-22T10:30:04.323Z</time></trkpt><trkpt lat="39.3801686" lon="8.4936544"><ele>489.1666666666667</ele><time>2026-04-22T10:30:05.323Z</time></trkpt><trkpt lat="39.3802245" lon="8.4935969"><ele>491.33333333333337</ele><time>2026-04-22T10:30:06.322Z</time></trkpt><trkpt lat="39.3802804" lon="8.4935511"><ele>493.5</ele><time>2026-04-22T10:30:07.323Z</time></trkpt><trkpt lat="39.3803525" lon="8.4934226"><ele>495.66666666666663</ele><time>2026-04-22T10:30:09.323Z</time></trkpt><trkpt lat="39.3803816" lon="8.493347"><ele>497.8333333333333</ele><time>2026-04-22T10:30:10.323Z</time></trkpt><trkpt lat="39.3804504" lon="8.4932363"><ele>500.0</ele><time>2026-04-22T10:30:12.323Z</time></trkpt><trkpt lat="39.3804104" lon="8.4931031"><ele>500.0</ele><time>2026-04-22T10:30:16.323Z</time></trkpt><trkpt lat="39.3803098" lon="8.4931082"><ele>500.0</ele><time>2026-04-22T10:30:25.322Z</time></trkpt><trkpt lat="39.3802284" lon="8.4931799"><ele>500.0</ele><time>2026-04-22T10:30:27.322Z</time></trkpt><trkpt lat="39.380157" lon="8.4932565"><ele>500.0</ele><time>2026-04-22T10:30:29.322Z</time></trkpt><trkpt lat="39.3800697" lon="8.4933183"><ele>500.0</ele><time>2026-04-22T10:30:31.323Z</time></trkpt><trkpt lat="39.3799469" lon="8.4933708"><ele>500.0</ele><time>2026-04-22T10:30:33.323Z</time></trkpt><trkpt lat="39.3797832" lon="8.4934284"><ele>500.0</ele><time>2026-04-22T10:30:35.323Z</time></trkpt><trkpt lat="39.3797138" lon="8.4934533"><ele>500.0</ele><time>2026-04-22T10:30:36.323Z</time></trkpt><trkpt lat="39.3796523" lon="8.493475"><ele>500.0</ele><time>2026-04-22T10:30:37.323Z</time></trkpt><trkpt lat="39.3795458" lon="8.4935043"><ele>500.0</ele><time>2026-04-22T10:30:39.323Z</time></trkpt><trkpt lat="39.3794477" lon="8.4935476"><ele>500.49999999999994</ele><time>2026-04-22T10:30:41.323Z</time></trkpt><trkpt lat="39.3793572" lon="8.4935941"><ele>501.0</ele><time>2026-04-22T10:30:43.323Z</time></trkpt><trkpt lat="39.3792587" lon="8.4935953"><ele>501.5</ele><time>2026-04-22T10:30:45.323Z</time></trkpt><trkpt lat="39.3791662" lon="8.493582"><ele>502.0</ele><time>2026-04-22T10:30:47.323Z</time></trkpt><trkpt lat="39.3790795" lon="8.4935723"><ele>502.49999999999994</ele><time>2026-04-22T10:30:49.321Z</time></trkpt><trkpt lat="39.3790101" lon="8.4935609"><ele>503.0</ele><time>2026-04-22T10:30:51.321Z</time></trkpt><trkpt lat="39.3789533" lon="8.4935039"><ele>503.0</ele><time>2026-04-22T10:30:53.322Z</time></trkpt><trkpt lat="39.3788694" lon="8.4933629"><ele>503.0</ele><time>2026-04-22T10:30:55.322Z</time></trkpt><trkpt lat="39.3787647" lon="8.4931281"><ele>503.0</ele><time>2026-04-22T10:30:57.322Z</time></trkpt><trkpt lat="39.378695" lon="8.4929739"><ele>505.0</ele><time>2026-04-22T10:30:58.321Z</time></trkpt><trkpt lat="39.3786194" lon="8.4928222"><ele>507.0</ele><time>2026-04-22T10:30:59.322Z</time></trkpt><trkpt lat="39.3785378" lon="8.4926585"><ele>509.0</ele><time>2026-04-22T10:31:00.322Z</time></trkpt><trkpt lat="39.3784528" lon="8.4924952"><ele>511.0</ele><time>2026-04-22T10:31:01.322Z</time></trkpt><trkpt lat="39.3783724" lon="8.4923453"><ele>511.0</ele><time>2026-04-22T10:31:02.321Z</time></trkpt><trkpt lat="39.3783009" lon="8.4921996"><ele>511.0</ele><time>2026-04-22T10:31:03.321Z</time></trkpt><trkpt lat="39.3782231" lon="8.4920812"><ele>511.0</ele><time>2026-04-22T10:31:04.322Z</time></trkpt><trkpt lat="39.3781242" lon="8.492007"><ele>511.0</ele><time>2026-04-22T10:31:05.321Z</time></trkpt><trkpt lat="39.3780079" lon="8.4919712"><ele>519.0</ele><time>2026-04-22T10:31:06.322Z</time></trkpt><trkpt lat="39.3778549" lon="8.4919775"><ele>527.0</ele><time>2026-04-22T10:31:07.321Z</time></trkpt><trkpt lat="39.3776955" lon="8.4919955"><ele>535.0</ele><time>2026-04-22T10:31:08.322Z</time></trkpt><trkpt lat="39.3775525" lon="8.4920157"><ele>535.0</ele><time>2026-04-22T10:31:09.322Z</time></trkpt><trkpt lat="39.3774421" lon="8.4920421"><ele>535.0</ele><time>2026-04-22T10:31:10.322Z</time></trkpt><trkpt lat="39.3773539" lon="8.4920998"><ele>535.0</ele><time>2026-04-22T10:31:11.321Z</time></trkpt><trkpt lat="39.3773042" lon="8.4922003"><ele>535.0</ele><time>2026-04-22T10:31:12.321Z</time></trkpt><trkpt lat="39.3772946" lon="8.492331"><ele>535.0</ele><time>2026-04-22T10:31:13.322Z</time></trkpt><trkpt lat="39.3773219" lon="8.4924607"><ele>529.75</ele><time>2026-04-22T10:31:14.321Z</time></trkpt><trkpt lat="39.3773441" lon="8.4925784"><ele>524.5</ele><time>2026-04-22T10:31:15.321Z</time></trkpt><trkpt lat="39.3773435" lon="8.492689"><ele>519.25</ele><time>2026-04-22T10:31:16.322Z</time></trkpt><trkpt lat="39.37725" lon="8.4928908"><ele>514.0</ele><time>2026-04-22T10:31:18.322Z</time></trkpt><trkpt lat="39.3771449" lon="8.4929779"><ele>513.6666666666667</ele><time>2026-04-22T10:31:19.321Z</time></trkpt><trkpt lat="39.3769933" lon="8.4930521"><ele>513.3333333333334</ele><time>2026-04-22T10:31:20.322Z</time></trkpt><trkpt lat="39.3768399" lon="8.4931125"><ele>513.0</ele><time>2026-04-22T10:31:21.322Z</time></trkpt><trkpt lat="39.3767034" lon="8.4931505"><ele>513.0</ele><time>2026-04-22T10:31:22.322Z</time></trkpt><trkpt lat="39.3765825" lon="8.4931462"><ele>513.0</ele><time>2026-04-22T10:31:23.322Z</time></trkpt><trkpt lat="39.3764765" lon="8.4931139"><ele>513.0</ele><time>2026-04-22T10:31:24.322Z</time></trkpt><trkpt lat="39.3763835" lon="8.4930466"><ele>513.0</ele><time>2026-04-22T10:31:25.321Z</time></trkpt><trkpt lat="39.3763031" lon="8.4929531"><ele>513.0</ele><time>2026-04-22T10:31:26.322Z</time></trkpt><trkpt lat="39.3762233" lon="8.4928756"><ele>515.4</ele><time>2026-04-22T10:31:27.322Z</time></trkpt><trkpt lat="39.3761374" lon="8.492824"><ele>517.8</ele><time>2026-04-22T10:31:28.322Z</time></trkpt><trkpt lat="39.376035" lon="8.4928165"><ele>520.2</ele><time>2026-04-22T10:31:29.322Z</time></trkpt><trkpt lat="39.3759333" lon="8.4928509"><ele>522.6</ele><time>2026-04-22T10:31:30.322Z</time></trkpt><trkpt lat="39.3758392" lon="8.4929184"><ele>525.0</ele><time>2026-04-22T10:31:31.322Z</time></trkpt><trkpt lat="39.3757373" lon="8.4930329"><ele>525.0</ele><time>2026-04-22T10:31:32.322Z</time></trkpt><trkpt lat="39.3756193" lon="8.4931512"><ele>525.0</ele><time>2026-04-22T10:31:33.322Z</time></trkpt><trkpt lat="39.3754933" lon="8.493264"><ele>525.0</ele><time>2026-04-22T10:31:34.322Z</time></trkpt><trkpt lat="39.3753681" lon="8.4933767"><ele>530.6666666666666</ele><time>2026-04-22T10:31:35.322Z</time></trkpt><trkpt lat="39.3752619" lon="8.4934969"><ele>536.3333333333333</ele><time>2026-04-22T10:31:36.321Z</time></trkpt><trkpt lat="39.3751741" lon="8.4936224"><ele>542.0</ele><time>2026-04-22T10:31:37.322Z</time></trkpt><trkpt lat="39.3750995" lon="8.4939195"><ele>542.0</ele><time>2026-04-22T10:31:39.321Z</time></trkpt><trkpt lat="39.3751369" lon="8.4940672"><ele>542.0</ele><time>2026-04-22T10:31:40.322Z</time></trkpt><trkpt lat="39.3751817" lon="8.4942074"><ele>542.0</ele><time>2026-04-22T10:31:41.322Z</time></trkpt><trkpt lat="39.3752144" lon="8.4943402"><ele>542.0</ele><time>2026-04-22T10:31:42.322Z</time></trkpt><trkpt lat="39.3752139" lon="8.4944698"><ele>542.0</ele><time>2026-04-22T10:31:43.322Z</time></trkpt><trkpt lat="39.3751804" lon="8.4946007"><ele>540.0</ele><time>2026-04-22T10:31:44.322Z</time></trkpt><trkpt lat="39.3751203" lon="8.4947255"><ele>538.0</ele><time>2026-04-22T10:31:45.322Z</time></trkpt><trkpt lat="39.375034" lon="8.4948407"><ele>536.0</ele><time>2026-04-22T10:31:46.322Z</time></trkpt><trkpt lat="39.3749349" lon="8.4949338"><ele>534.0</ele><time>2026-04-22T10:31:47.322Z</time></trkpt><trkpt lat="39.374826" lon="8.495004"><ele>534.0</ele><time>2026-04-22T10:31:48.321Z</time></trkpt><trkpt lat="39.3747105" lon="8.4950683"><ele>534.0</ele><time>2026-04-22T10:31:49.322Z</time></trkpt><trkpt lat="39.3746133" lon="8.4951517"><ele>534.0</ele><time>2026-04-22T10:31:50.322Z</time></trkpt><trkpt lat="39.3745422" lon="8.4952588"><ele>534.0</ele><time>2026-04-22T10:31:51.322Z</time></trkpt><trkpt lat="39.3745161" lon="8.4953907"><ele>537.4</ele><time>2026-04-22T10:31:52.321Z</time></trkpt><trkpt lat="39.3745284" lon="8.4955297"><ele>540.8</ele><time>2026-04-22T10:31:53.322Z</time></trkpt><trkpt lat="39.3745419" lon="8.4956662"><ele>544.2</ele><time>2026-04-22T10:31:54.322Z</time></trkpt><trkpt lat="39.3745348" lon="8.4957976"><ele>547.6</ele><time>2026-04-22T10:31:55.322Z</time></trkpt><trkpt lat="39.3745001" lon="8.4959283"><ele>551.0</ele><time>2026-04-22T10:31:56.322Z</time></trkpt><trkpt lat="39.3744447" lon="8.4960572"><ele>551.0</ele><time>2026-04-22T10:31:57.321Z</time></trkpt><trkpt lat="39.3743812" lon="8.4961777"><ele>551.0</ele><time>2026-04-22T10:31:58.321Z</time></trkpt><trkpt lat="39.3742465" lon="8.4963899"><ele>551.0</ele><time>2026-04-22T10:32:00.322Z</time></trkpt><trkpt lat="39.374184" lon="8.4964835"><ele>551.0</ele><time>2026-04-22T10:32:01.322Z</time></trkpt><trkpt lat="39.3741182" lon="8.4965683"><ele>550.3333333333333</ele><time>2026-04-22T10:32:02.322Z</time></trkpt><trkpt lat="39.374055" lon="8.4966522"><ele>549.6666666666666</ele><time>2026-04-22T10:32:03.321Z</time></trkpt><trkpt lat="39.3739951" lon="8.49674"><ele>549.0</ele><time>2026-04-22T10:32:04.322Z</time></trkpt><trkpt lat="39.3739327" lon="8.4968293"><ele>548.3333333333334</ele><time>2026-04-22T10:32:05.321Z</time></trkpt><trkpt lat="39.373871" lon="8.4969135"><ele>547.6666666666667</ele><time>2026-04-22T10:32:06.322Z</time></trkpt><trkpt lat="39.3738188" lon="8.4969945"><ele>547.0</ele><time>2026-04-22T10:32:07.321Z</time></trkpt><trkpt lat="39.3737713" lon="8.4970707"><ele>547.0</ele><time>2026-04-22T10:32:08.322Z</time></trkpt><trkpt lat="39.3736977" lon="8.4971726"><ele>547.0</ele><time>2026-04-22T10:32:10.321Z</time></trkpt><trkpt lat="39.3736328" lon="8.4971603"><ele>547.0</ele><time>2026-04-22T10:32:14.322Z</time></trkpt><trkpt lat="39.3736826" lon="8.4970918"><ele>547.0</ele><time>2026-04-22T10:32:18.322Z</time></trkpt><trkpt lat="39.3737492" lon="8.4970259"><ele>547.0</ele><time>2026-04-22T10:32:29.321Z</time></trkpt><trkpt lat="39.3739022" lon="8.496801"><ele>546.8333333333334</ele><time>2026-04-22T10:32:32.322Z</time></trkpt><trkpt lat="39.3739587" lon="8.4967094"><ele>546.6666666666667</ele><time>2026-04-22T10:32:33.322Z</time></trkpt><trkpt lat="39.3740125" lon="8.4966263"><ele>546.5</ele><time>2026-04-22T10:32:34.321Z</time></trkpt><trkpt lat="39.3740502" lon="8.4965517"><ele>546.3333333333334</ele><time>2026-04-22T10:32:35.321Z</time></trkpt><trkpt lat="39.3740867" lon="8.4964176"><ele>546.1666666666666</ele><time>2026-04-22T10:32:37.322Z</time></trkpt><trkpt lat="39.3741036" lon="8.496339"><ele>546.0</ele><time>2026-04-22T10:32:38.321Z</time></trkpt><trkpt lat="39.3741236" lon="8.4962615"><ele>546.8333333333334</ele><time>2026-04-22T10:32:39.321Z</time></trkpt><trkpt lat="39.3741484" lon="8.4961831"><ele>547.6666666666666</ele><time>2026-04-22T10:32:40.322Z</time></trkpt><trkpt lat="39.3741736" lon="8.4960966"><ele>548.5</ele><time>2026-04-22T10:32:41.322Z</time></trkpt><trkpt lat="39.3742053" lon="8.4960091"><ele>549.3333333333333</ele><time>2026-04-22T10:32:42.322Z</time></trkpt><trkpt lat="39.374245" lon="8.4959206"><ele>550.1666666666666</ele><time>2026-04-22T10:32:43.321Z</time></trkpt><trkpt lat="39.3742875" lon="8.4958442"><ele>551.0</ele><time>2026-04-22T10:32:44.322Z</time></trkpt><trkpt lat="39.374329" lon="8.4957212"><ele>551.0</ele><time>2026-04-22T10:32:46.322Z</time></trkpt><trkpt lat="39.3743289" lon="8.4956083"><ele>551.0</ele><time>2026-04-22T10:32:48.321Z</time></trkpt><trkpt lat="39.3742781" lon="8.4954673"><ele>551.0</ele><time>2026-04-22T10:32:50.322Z</time></trkpt><trkpt lat="39.3742419" lon="8.4952847"><ele>551.0</ele><time>2026-04-22T10:32:52.322Z</time></trkpt><trkpt lat="39.3742453" lon="8.4951969"><ele>551.0</ele><time>2026-04-22T10:32:53.322Z</time></trkpt><trkpt lat="39.3742639" lon="8.4951134"><ele>552.4285714285713</ele><time>2026-04-22T10:32:54.322Z</time></trkpt><trkpt lat="39.3742946" lon="8.4950329"><ele>553.8571428571429</ele><time>2026-04-22T10:32:55.322Z</time></trkpt><trkpt lat="39.3743379" lon="8.4949633"><ele>555.2857142857142</ele><time>2026-04-22T10:32:56.321Z</time></trkpt><trkpt lat="39.3743863" lon="8.4949109"><ele>556.7142857142857</ele><time>2026-04-22T10:32:57.322Z</time></trkpt><trkpt lat="39.3744457" lon="8.4948712"><ele>558.1428571428571</ele><time>2026-04-22T10:32:58.321Z</time></trkpt><trkpt lat="39.3745039" lon="8.4948371"><ele>559.5714285714286</ele><time>2026-04-22T10:32:59.321Z</time></trkpt><trkpt lat="39.3745609" lon="8.4947961"><ele>561.0</ele><time>2026-04-22T10:33:00.322Z</time></trkpt><trkpt lat="39.3746169" lon="8.4947267"><ele>561.0</ele><time>2026-04-22T10:33:01.321Z</time></trkpt><trkpt lat="39.3746658" lon="8.4946393"><ele>561.0</ele><time>2026-04-22T10:33:02.322Z</time></trkpt><trkpt lat="39.3747113" lon="8.4945413"><ele>561.0</ele><time>2026-04-22T10:33:03.321Z</time></trkpt><trkpt lat="39.3747467" lon="8.4944443"><ele>561.0</ele><time>2026-04-22T10:33:04.322Z</time></trkpt><trkpt lat="39.3747664" lon="8.4943548"><ele>561.0</ele><time>2026-04-22T10:33:05.322Z</time></trkpt><trkpt lat="39.3747735" lon="8.4942677"><ele>561.0</ele><time>2026-04-22T10:33:06.322Z</time></trkpt><trkpt lat="39.3747488" lon="8.4941088"><ele>559.5</ele><time>2026-04-22T10:33:08.321Z</time></trkpt><trkpt lat="39.3747186" lon="8.4940366"><ele>558.0</ele><time>2026-04-22T10:33:09.322Z</time></trkpt><trkpt lat="39.374685" lon="8.4939528"><ele>556.5</ele><time>2026-04-22T10:33:10.322Z</time></trkpt><trkpt lat="39.3746565" lon="8.4938619"><ele>555.0</ele><time>2026-04-22T10:33:11.322Z</time></trkpt><trkpt lat="39.3746602" lon="8.4936801"><ele>553.5</ele><time>2026-04-22T10:33:13.321Z</time></trkpt><trkpt lat="39.3746945" lon="8.4935969"><ele>552.0</ele><time>2026-04-22T10:33:14.321Z</time></trkpt><trkpt lat="39.3747537" lon="8.493523"><ele>552.0</ele><time>2026-04-22T10:33:15.322Z</time></trkpt><trkpt lat="39.3748036" lon="8.4934556"><ele>552.0</ele><time>2026-04-22T10:33:16.321Z</time></trkpt><trkpt lat="39.374835" lon="8.4933826"><ele>552.0</ele><time>2026-04-22T10:33:17.322Z</time></trkpt><trkpt lat="39.3748515" lon="8.4933012"><ele>552.0</ele><time>2026-04-22T10:33:18.321Z</time></trkpt><trkpt lat="39.3748729" lon="8.4931561"><ele>552.0</ele><time>2026-04-22T10:33:20.322Z</time></trkpt><trkpt lat="39.3749293" lon="8.493048"><ele>552.0</ele><time>2026-04-22T10:33:22.321Z</time></trkpt><trkpt lat="39.3749895" lon="8.4930234"><ele>552.0</ele><time>2026-04-22T10:33:23.322Z</time></trkpt><trkpt lat="39.3750627" lon="8.4930174"><ele>552.0</ele><time>2026-04-22T10:33:24.322Z</time></trkpt><trkpt lat="39.375135" lon="8.4930269"><ele>552.0</ele><time>2026-04-22T10:33:25.321Z</time></trkpt><trkpt lat="39.3752484" lon="8.4930146"><ele>552.0</ele><time>2026-04-22T10:33:27.322Z</time></trkpt><trkpt lat="39.375349" lon="8.4929284"><ele>552.0</ele><time>2026-04-22T10:33:29.321Z</time></trkpt><trkpt lat="39.3753894" lon="8.4928644"><ele>552.0</ele><time>2026-04-22T10:33:30.321Z</time></trkpt><trkpt lat="39.3754248" lon="8.4927895"><ele>552.0</ele><time>2026-04-22T10:33:31.322Z</time></trkpt><trkpt lat="39.3754568" lon="8.4927106"><ele>552.0</ele><time>2026-04-22T10:33:32.322Z</time></trkpt><trkpt lat="39.3755174" lon="8.4925347"><ele>552.0</ele><time>2026-04-22T10:33:34.322Z</time></trkpt><trkpt lat="39.3755537" lon="8.4924613"><ele>552.0</ele><time>2026-04-22T10:33:35.322Z</time></trkpt><trkpt lat="39.3756605" lon="8.4923637"><ele>552.0</ele><time>2026-04-22T10:33:37.321Z</time></trkpt><trkpt lat="39.3757352" lon="8.4923368"><ele>552.0</ele><time>2026-04-22T10:33:38.321Z</time></trkpt><trkpt lat="39.3758242" lon="8.4923174"><ele>552.0</ele><time>2026-04-22T10:33:39.322Z</time></trkpt><trkpt lat="39.3759175" lon="8.492306"><ele>552.0</ele><time>2026-04-22T10:33:40.321Z</time></trkpt><trkpt lat="39.376007" lon="8.4923023"><ele>552.0</ele><time>2026-04-22T10:33:41.322Z</time></trkpt><trkpt lat="39.3760897" lon="8.4922956"><ele>552.0</ele><time>2026-04-22T10:33:42.321Z</time></trkpt><trkpt lat="39.3761673" lon="8.4922603"><ele>552.0</ele><time>2026-04-22T10:33:43.322Z</time></trkpt><trkpt lat="39.3762286" lon="8.4921911"><ele>552.0</ele><time>2026-04-22T10:33:44.322Z</time></trkpt><trkpt lat="39.3762825" lon="8.4920931"><ele>552.0</ele><time>2026-04-22T10:33:45.321Z</time></trkpt><trkpt lat="39.3763191" lon="8.4919705"><ele>552.0</ele><time>2026-04-22T10:33:46.322Z</time></trkpt><trkpt lat="39.3763431" lon="8.4918447"><ele>552.0</ele><time>2026-04-22T10:33:47.322Z</time></trkpt><trkpt lat="39.3763617" lon="8.4917162"><ele>552.0</ele><time>2026-04-22T10:33:48.322Z</time></trkpt><trkpt lat="39.3763786" lon="8.4915994"><ele>551.8000000000001</ele><time>2026-04-22T10:33:49.321Z</time></trkpt><trkpt lat="39.3763944" lon="8.4914884"><ele>551.6</ele><time>2026-04-22T10:33:50.322Z</time></trkpt><trkpt lat="39.3764008" lon="8.4913966"><ele>551.4000000000001</ele><time>2026-04-22T10:33:51.321Z</time></trkpt><trkpt lat="39.3763958" lon="8.4913072"><ele>551.2</ele><time>2026-04-22T10:33:52.321Z</time></trkpt><trkpt lat="39.3763857" lon="8.491226"><ele>551.0</ele><time>2026-04-22T10:33:53.322Z</time></trkpt><trkpt lat="39.3764097" lon="8.4909149"><ele>551.0</ele><time>2026-04-22T10:33:57.322Z</time></trkpt><trkpt lat="39.3764239" lon="8.4908314"><ele>551.0</ele><time>2026-04-22T10:33:58.321Z</time></trkpt><trkpt lat="39.3764282" lon="8.4907427"><ele>551.0</ele><time>2026-04-22T10:33:59.322Z</time></trkpt><trkpt lat="39.3764233" lon="8.4906499"><ele>551.0</ele><time>2026-04-22T10:34:00.322Z</time></trkpt><trkpt lat="39.3764138" lon="8.4905442"><ele>551.0</ele><time>2026-04-22T10:34:01.322Z</time></trkpt><trkpt lat="39.3763995" lon="8.4904342"><ele>551.0</ele><time>2026-04-22T10:34:02.322Z</time></trkpt><trkpt lat="39.3763857" lon="8.4903321"><ele>555.0</ele><time>2026-04-22T10:34:03.322Z</time></trkpt><trkpt lat="39.3763913" lon="8.4902471"><ele>559.0</ele><time>2026-04-22T10:34:04.321Z</time></trkpt><trkpt lat="39.3764585" lon="8.4901441"><ele>563.0</ele><time>2026-04-22T10:34:06.322Z</time></trkpt><trkpt lat="39.3765674" lon="8.4901575"><ele>567.0</ele><time>2026-04-22T10:34:08.322Z</time></trkpt><trkpt lat="39.3766326" lon="8.4902169"><ele>571.0</ele><time>2026-04-22T10:34:09.322Z</time></trkpt><trkpt lat="39.3767035" lon="8.490297"><ele>571.0</ele><time>2026-04-22T10:34:10.322Z</time></trkpt><trkpt lat="39.3767777" lon="8.4903802"><ele>571.0</ele><time>2026-04-22T10:34:11.322Z</time></trkpt><trkpt lat="39.3768564" lon="8.4904601"><ele>571.0</ele><time>2026-04-22T10:34:12.321Z</time></trkpt><trkpt lat="39.3769341" lon="8.4905378"><ele>571.0</ele><time>2026-04-22T10:34:13.321Z</time></trkpt><trkpt lat="39.3770033" lon="8.4906023"><ele>571.0</ele><time>2026-04-22T10:34:14.321Z</time></trkpt><trkpt lat="39.3770997" lon="8.4907613"><ele>568.3333333333334</ele><time>2026-04-22T10:34:16.321Z</time></trkpt><trkpt lat="39.3771431" lon="8.4908509"><ele>565.6666666666667</ele><time>2026-04-22T10:34:17.321Z</time></trkpt><trkpt lat="39.3771832" lon="8.4909403"><ele>563.0</ele><time>2026-04-22T10:34:18.321Z</time></trkpt><trkpt lat="39.3772208" lon="8.491031"><ele>560.3333333333334</ele><time>2026-04-22T10:34:19.321Z</time></trkpt><trkpt lat="39.3772522" lon="8.4911146"><ele>557.6666666666666</ele><time>2026-04-22T10:34:20.322Z</time></trkpt><trkpt lat="39.3772977" lon="8.4912492"><ele>555.0</ele><time>2026-04-22T10:34:22.322Z</time></trkpt><trkpt lat="39.377363" lon="8.4913244"><ele>555.0</ele><time>2026-04-22T10:34:24.322Z</time></trkpt><trkpt lat="39.37744" lon="8.4913298"><ele>555.0</ele><time>2026-04-22T10:34:26.321Z</time></trkpt><trkpt lat="39.3775471" lon="8.4912675"><ele>555.0</ele><time>2026-04-22T10:34:28.322Z</time></trkpt><trkpt lat="39.3776128" lon="8.4912186"><ele>555.0</ele><time>2026-04-22T10:34:29.322Z</time></trkpt><trkpt lat="39.377684" lon="8.4911596"><ele>555.0</ele><time>2026-04-22T10:34:30.322Z</time></trkpt><trkpt lat="39.3777498" lon="8.4910934"><ele>555.0</ele><time>2026-04-22T10:34:31.322Z</time></trkpt><trkpt lat="39.3778059" lon="8.4910186"><ele>555.0</ele><time>2026-04-22T10:34:32.322Z</time></trkpt><trkpt lat="39.3778461" lon="8.4909342"><ele>555.0</ele><time>2026-04-22T10:34:33.322Z</time></trkpt><trkpt lat="39.3778804" lon="8.4908375"><ele>555.0</ele><time>2026-04-22T10:34:34.322Z</time></trkpt><trkpt lat="39.3779084" lon="8.4907354"><ele>555.0</ele><time>2026-04-22T10:34:35.322Z</time></trkpt><trkpt lat="39.3779474" lon="8.4905406"><ele>555.0</ele><time>2026-04-22T10:34:37.322Z</time></trkpt><trkpt lat="39.3779748" lon="8.4904463"><ele>555.3333333333334</ele><time>2026-04-22T10:34:38.322Z</time></trkpt><trkpt lat="39.3780022" lon="8.4903568"><ele>555.6666666666666</ele><time>2026-04-22T10:34:39.322Z</time></trkpt><trkpt lat="39.3780323" lon="8.4902656"><ele>556.0</ele><time>2026-04-22T10:34:40.322Z</time></trkpt><trkpt lat="39.3780618" lon="8.4901705"><ele>556.3333333333333</ele><time>2026-04-22T10:34:41.322Z</time></trkpt><trkpt lat="39.3781063" lon="8.4900741"><ele>556.6666666666666</ele><time>2026-04-22T10:34:42.321Z</time></trkpt><trkpt lat="39.378156" lon="8.4899858"><ele>557.0</ele><time>2026-04-22T10:34:43.321Z</time></trkpt><trkpt lat="39.3782553" lon="8.4899013"><ele>557.0</ele><time>2026-04-22T10:34:45.322Z</time></trkpt><trkpt lat="39.3783209" lon="8.4899015"><ele>557.0</ele><time>2026-04-22T10:34:46.322Z</time></trkpt><trkpt lat="39.3783821" lon="8.4899296"><ele>557.0</ele><time>2026-04-22T10:34:47.321Z</time></trkpt><trkpt lat="39.3784307" lon="8.4899978"><ele>557.0</ele><time>2026-04-22T10:34:48.321Z</time></trkpt><trkpt lat="39.3784741" lon="8.490105"><ele>557.0</ele><time>2026-04-22T10:34:49.321Z</time></trkpt><trkpt lat="39.3785044" lon="8.4902203"><ele>557.0</ele><time>2026-04-22T10:34:50.321Z</time></trkpt><trkpt lat="39.378535" lon="8.4903428"><ele>554.0</ele><time>2026-04-22T10:34:51.322Z</time></trkpt><trkpt lat="39.3785749" lon="8.490454"><ele>551.0</ele><time>2026-04-22T10:34:52.322Z</time></trkpt><trkpt lat="39.3786185" lon="8.4905475"><ele>548.0</ele><time>2026-04-22T10:34:53.321Z</time></trkpt><trkpt lat="39.378669" lon="8.4906127"><ele>545.0</ele><time>2026-04-22T10:34:54.322Z</time></trkpt><trkpt lat="39.378761" lon="8.4906457"><ele>542.0</ele><time>2026-04-22T10:34:56.322Z</time></trkpt><trkpt lat="39.3789504" lon="8.4905149"><ele>541.6666666666666</ele><time>2026-04-22T10:35:00.322Z</time></trkpt><trkpt lat="39.3789886" lon="8.4904382"><ele>541.3333333333333</ele><time>2026-04-22T10:35:01.322Z</time></trkpt><trkpt lat="39.3790084" lon="8.4903479"><ele>541.0</ele><time>2026-04-22T10:35:02.322Z</time></trkpt><trkpt lat="39.3790159" lon="8.490249"><ele>540.6666666666666</ele><time>2026-04-22T10:35:03.321Z</time></trkpt><trkpt lat="39.3790198" lon="8.4901497"><ele>540.3333333333334</ele><time>2026-04-22T10:35:04.322Z</time></trkpt><trkpt lat="39.3790241" lon="8.4900548"><ele>540.0</ele><time>2026-04-22T10:35:05.321Z</time></trkpt><trkpt lat="39.3790777" lon="8.4899215"><ele>543.2</ele><time>2026-04-22T10:35:07.322Z</time></trkpt><trkpt lat="39.3792014" lon="8.4898948"><ele>546.4</ele><time>2026-04-22T10:35:09.321Z</time></trkpt><trkpt lat="39.3792666" lon="8.4899213"><ele>549.6</ele><time>2026-04-22T10:35:10.322Z</time></trkpt><trkpt lat="39.3793393" lon="8.4899586"><ele>552.8</ele><time>2026-04-22T10:35:11.322Z</time></trkpt><trkpt lat="39.3794052" lon="8.4899906"><ele>556.0</ele><time>2026-04-22T10:35:12.322Z</time></trkpt><trkpt lat="39.3795266" lon="8.4899995"><ele>556.0</ele><time>2026-04-22T10:35:14.321Z</time></trkpt><trkpt lat="39.3795913" lon="8.4899705"><ele>556.0</ele><time>2026-04-22T10:35:15.322Z</time></trkpt><trkpt lat="39.3796593" lon="8.4899444"><ele>556.0</ele><time>2026-04-22T10:35:16.322Z</time></trkpt><trkpt lat="39.3797338" lon="8.4899334"><ele>556.0</ele><time>2026-04-22T10:35:17.322Z</time></trkpt><trkpt lat="39.3798853" lon="8.4899588"><ele>556.0</ele><time>2026-04-22T10:35:19.321Z</time></trkpt><trkpt lat="39.3799587" lon="8.4899496"><ele>556.0</ele><time>2026-04-22T10:35:20.322Z</time></trkpt><trkpt lat="39.3800316" lon="8.489934"><ele>555.6666666666667</ele><time>2026-04-22T10:35:21.322Z</time></trkpt><trkpt lat="39.3801128" lon="8.4899201"><ele>555.3333333333334</ele><time>2026-04-22T10:35:22.321Z</time></trkpt><trkpt lat="39.3801898" lon="8.4899236"><ele>555.0</ele><time>2026-04-22T10:35:23.321Z</time></trkpt><trkpt lat="39.3802646" lon="8.4899327"><ele>554.6666666666666</ele><time>2026-04-22T10:35:24.322Z</time></trkpt><trkpt lat="39.3803327" lon="8.4899558"><ele>554.3333333333333</ele><time>2026-04-22T10:35:25.322Z</time></trkpt><trkpt lat="39.3804006" lon="8.4899956"><ele>554.0</ele><time>2026-04-22T10:35:26.322Z</time></trkpt><trkpt lat="39.380462" lon="8.4900475"><ele>552.3333333333333</ele><time>2026-04-22T10:35:27.322Z</time></trkpt><trkpt lat="39.3805225" lon="8.4900946"><ele>550.6666666666666</ele><time>2026-04-22T10:35:28.321Z</time></trkpt><trkpt lat="39.3805932" lon="8.4901308"><ele>549.0</ele><time>2026-04-22T10:35:29.321Z</time></trkpt><trkpt lat="39.380669" lon="8.4901387"><ele>547.3333333333334</ele><time>2026-04-22T10:35:30.321Z</time></trkpt><trkpt lat="39.3807431" lon="8.4901247"><ele>545.6666666666667</ele><time>2026-04-22T10:35:31.322Z</time></trkpt><trkpt lat="39.3808173" lon="8.4900878"><ele>544.0</ele><time>2026-04-22T10:35:32.322Z</time></trkpt><trkpt lat="39.3808828" lon="8.4900253"><ele>544.0</ele><time>2026-04-22T10:35:33.321Z</time></trkpt><trkpt lat="39.3809419" lon="8.4899563"><ele>544.0</ele><time>2026-04-22T10:35:34.322Z</time></trkpt><trkpt lat="39.3809973" lon="8.4898782"><ele>544.0</ele><time>2026-04-22T10:35:35.321Z</time></trkpt><trkpt lat="39.3810571" lon="8.4897901"><ele>544.0</ele><time>2026-04-22T10:35:36.322Z</time></trkpt><trkpt lat="39.3811195" lon="8.4897062"><ele>544.0</ele><time>2026-04-22T10:35:37.321Z</time></trkpt><trkpt lat="39.3811827" lon="8.4896278"><ele>544.0</ele><time>2026-04-22T10:35:38.322Z</time></trkpt><trkpt lat="39.3813088" lon="8.4894512"><ele>543.5</ele><time>2026-04-22T10:35:40.321Z</time></trkpt><trkpt lat="39.3813643" lon="8.4893672"><ele>543.0</ele><time>2026-04-22T10:35:41.322Z</time></trkpt><trkpt lat="39.3814201" lon="8.4892861"><ele>542.5</ele><time>2026-04-22T10:35:42.321Z</time></trkpt><trkpt lat="39.3814698" lon="8.4891943"><ele>542.0</ele><time>2026-04-22T10:35:43.321Z</time></trkpt><trkpt lat="39.3815204" lon="8.4891052"><ele>541.5</ele><time>2026-04-22T10:35:44.322Z</time></trkpt><trkpt lat="39.3815714" lon="8.4890185"><ele>541.0</ele><time>2026-04-22T10:35:45.322Z</time></trkpt><trkpt lat="39.3816213" lon="8.4889315"><ele>541.0</ele><time>2026-04-22T10:35:46.321Z</time></trkpt><trkpt lat="39.3816656" lon="8.4888429"><ele>541.0</ele><time>2026-04-22T10:35:47.322Z</time></trkpt><trkpt lat="39.3817056" lon="8.4887496"><ele>541.0</ele><time>2026-04-22T10:35:48.322Z</time></trkpt><trkpt lat="39.3817357" lon="8.4886498"><ele>541.0</ele><time>2026-04-22T10:35:49.321Z</time></trkpt><trkpt lat="39.3817647" lon="8.488544"><ele>541.0</ele><time>2026-04-22T10:35:50.321Z</time></trkpt><trkpt lat="39.3817938" lon="8.4884391"><ele>541.0</ele><time>2026-04-22T10:35:51.322Z</time></trkpt><trkpt lat="39.3818169" lon="8.4883411"><ele>541.6666666666667</ele><time>2026-04-22T10:35:52.322Z</time></trkpt><trkpt lat="39.3818393" lon="8.4882439"><ele>542.3333333333334</ele><time>2026-04-22T10:35:53.322Z</time></trkpt><trkpt lat="39.3818595" lon="8.4881507"><ele>543.0</ele><time>2026-04-22T10:35:54.322Z</time></trkpt><trkpt lat="39.3818561" lon="8.4880497"><ele>543.6666666666666</ele><time>2026-04-22T10:35:55.322Z</time></trkpt><trkpt lat="39.3818283" lon="8.487956"><ele>544.3333333333333</ele><time>2026-04-22T10:35:56.321Z</time></trkpt><trkpt lat="39.3817881" lon="8.4878685"><ele>545.0</ele><time>2026-04-22T10:35:57.321Z</time></trkpt><trkpt lat="39.3817432" lon="8.4877838"><ele>545.0</ele><time>2026-04-22T10:35:58.321Z</time></trkpt><trkpt lat="39.3816965" lon="8.4876988"><ele>545.0</ele><time>2026-04-22T10:35:59.321Z</time></trkpt><trkpt lat="39.381576" lon="8.4875209"><ele>545.0</ele><time>2026-04-22T10:36:01.322Z</time></trkpt><trkpt lat="39.3815131" lon="8.4874441"><ele>545.0</ele><time>2026-04-22T10:36:02.321Z</time></trkpt><trkpt lat="39.3814467" lon="8.4873765"><ele>545.0</ele><time>2026-04-22T10:36:03.321Z</time></trkpt><trkpt lat="39.3813778" lon="8.487311"><ele>548.1666666666666</ele><time>2026-04-22T10:36:04.321Z</time></trkpt><trkpt lat="39.3813079" lon="8.4872543"><ele>551.3333333333333</ele><time>2026-04-22T10:36:05.322Z</time></trkpt><trkpt lat="39.3812375" lon="8.4871973"><ele>554.5</ele><time>2026-04-22T10:36:06.322Z</time></trkpt><trkpt lat="39.3811718" lon="8.487144"><ele>557.6666666666666</ele><time>2026-04-22T10:36:07.322Z</time></trkpt><trkpt lat="39.3810992" lon="8.4871025"><ele>560.8333333333334</ele><time>2026-04-22T10:36:08.321Z</time></trkpt><trkpt lat="39.381029" lon="8.4870699"><ele>564.0</ele><time>2026-04-22T10:36:09.322Z</time></trkpt><trkpt lat="39.3809389" lon="8.486995"><ele>564.0</ele><time>2026-04-22T10:36:11.322Z</time></trkpt><trkpt lat="39.3809269" lon="8.4868883"><ele>564.0</ele><time>2026-04-22T10:36:13.321Z</time></trkpt><trkpt lat="39.3809724" lon="8.4867804"><ele>564.0</ele><time>2026-04-22T10:36:15.322Z</time></trkpt><trkpt lat="39.3810725" lon="8.4866676"><ele>564.0</ele><time>2026-04-22T10:36:17.321Z</time></trkpt><trkpt lat="39.3811301" lon="8.4865886"><ele>564.0</ele><time>2026-04-22T10:36:18.322Z</time></trkpt><trkpt lat="39.3811873" lon="8.4865093"><ele>564.0</ele><time>2026-04-22T10:36:19.321Z</time></trkpt><trkpt lat="39.3812389" lon="8.4864436"><ele>564.0</ele><time>2026-04-22T10:36:20.322Z</time></trkpt><trkpt lat="39.3814091" lon="8.4863661"><ele>564.0</ele><time>2026-04-22T10:36:23.322Z</time></trkpt><trkpt lat="39.3814762" lon="8.4863799"><ele>564.0</ele><time>2026-04-22T10:36:24.321Z</time></trkpt><trkpt lat="39.3815523" lon="8.4863946"><ele>564.0</ele><time>2026-04-22T10:36:25.322Z</time></trkpt><trkpt lat="39.3816317" lon="8.4864063"><ele>561.3333333333334</ele><time>2026-04-22T10:36:26.322Z</time></trkpt><trkpt lat="39.381713" lon="8.4864225"><ele>558.6666666666666</ele><time>2026-04-22T10:36:27.321Z</time></trkpt><trkpt lat="39.3818043" lon="8.4864318"><ele>556.0</ele><time>2026-04-22T10:36:28.321Z</time></trkpt><trkpt lat="39.3818967" lon="8.4864393"><ele>553.3333333333333</ele><time>2026-04-22T10:36:29.321Z</time></trkpt><trkpt lat="39.3819843" lon="8.4864512"><ele>550.6666666666666</ele><time>2026-04-22T10:36:30.322Z</time></trkpt><trkpt lat="39.382073" lon="8.486462"><ele>548.0</ele><time>2026-04-22T10:36:31.322Z</time></trkpt><trkpt lat="39.3821561" lon="8.4864686"><ele>546.0</ele><time>2026-04-22T10:36:32.321Z</time></trkpt><trkpt lat="39.3822334" lon="8.4864687"><ele>544.0</ele><time>2026-04-22T10:36:33.322Z</time></trkpt><trkpt lat="39.3823118" lon="8.4864626"><ele>542.0</ele><time>2026-04-22T10:36:34.322Z</time></trkpt><trkpt lat="39.3823948" lon="8.4864453"><ele>540.0</ele><time>2026-04-22T10:36:35.322Z</time></trkpt><trkpt lat="39.3824762" lon="8.4864188"><ele>538.0</ele><time>2026-04-22T10:36:36.322Z</time></trkpt><trkpt lat="39.3825516" lon="8.4863949"><ele>536.0</ele><time>2026-04-22T10:36:37.322Z</time></trkpt><trkpt lat="39.3826206" lon="8.4863777"><ele>536.0</ele><time>2026-04-22T10:36:38.322Z</time></trkpt><trkpt lat="39.3826867" lon="8.4863577"><ele>536.0</ele><time>2026-04-22T10:36:39.322Z</time></trkpt><trkpt lat="39.3827942" lon="8.4862954"><ele>536.0</ele><time>2026-04-22T10:36:41.322Z</time></trkpt><trkpt lat="39.3828823" lon="8.4860696"><ele>536.0</ele><time>2026-04-22T10:36:44.321Z</time></trkpt><trkpt lat="39.382884" lon="8.4859766"><ele>539.5</ele><time>2026-04-22T10:36:45.321Z</time></trkpt><trkpt lat="39.3828855" lon="8.4858811"><ele>543.0</ele><time>2026-04-22T10:36:46.322Z</time></trkpt><trkpt lat="39.3828906" lon="8.4857853"><ele>546.5</ele><time>2026-04-22T10:36:47.322Z</time></trkpt><trkpt lat="39.3828884" lon="8.485686"><ele>550.0</ele><time>2026-04-22T10:36:48.322Z</time></trkpt><trkpt lat="39.3828811" lon="8.4855854"><ele>553.5</ele><time>2026-04-22T10:36:49.322Z</time></trkpt><trkpt lat="39.3828693" lon="8.4854839"><ele>557.0</ele><time>2026-04-22T10:36:50.322Z</time></trkpt><trkpt lat="39.3828513" lon="8.4853853"><ele>557.2857142857143</ele><time>2026-04-22T10:36:51.321Z</time></trkpt><trkpt lat="39.3828248" lon="8.4852956"><ele>557.5714285714286</ele><time>2026-04-22T10:36:52.321Z</time></trkpt><trkpt lat="39.3828034" lon="8.485216"><ele>557.8571428571429</ele><time>2026-04-22T10:36:53.322Z</time></trkpt><trkpt lat="39.382785" lon="8.4851332"><ele>558.1428571428571</ele><time>2026-04-22T10:36:54.322Z</time></trkpt><trkpt lat="39.3827551" lon="8.4850431"><ele>558.4285714285714</ele><time>2026-04-22T10:36:55.322Z</time></trkpt><trkpt lat="39.3827207" lon="8.4849437"><ele>558.7142857142858</ele><time>2026-04-22T10:36:56.321Z</time></trkpt><trkpt lat="39.3826865" lon="8.4848561"><ele>559.0</ele><time>2026-04-22T10:36:57.322Z</time></trkpt><trkpt lat="39.3826547" lon="8.4847728"><ele>559.0</ele><time>2026-04-22T10:36:58.321Z</time></trkpt><trkpt lat="39.3826264" lon="8.4846954"><ele>559.0</ele><time>2026-04-22T10:36:59.322Z</time></trkpt><trkpt lat="39.3825982" lon="8.4845429"><ele>559.0</ele><time>2026-04-22T10:37:01.321Z</time></trkpt><trkpt lat="39.3826222" lon="8.4844043"><ele>559.0</ele><time>2026-04-22T10:37:03.321Z</time></trkpt><trkpt lat="39.3826838" lon="8.4842493"><ele>559.0</ele><time>2026-04-22T10:37:05.322Z</time></trkpt><trkpt lat="39.3827188" lon="8.4841649"><ele>558.7142857142858</ele><time>2026-04-22T10:37:06.322Z</time></trkpt><trkpt lat="39.3827568" lon="8.4840834"><ele>558.4285714285714</ele><time>2026-04-22T10:37:07.322Z</time></trkpt><trkpt lat="39.3828047" lon="8.483995"><ele>558.1428571428571</ele><time>2026-04-22T10:37:08.322Z</time></trkpt><trkpt lat="39.382855" lon="8.4839052"><ele>557.8571428571429</ele><time>2026-04-22T10:37:09.322Z</time></trkpt><trkpt lat="39.3828999" lon="8.4838376"><ele>557.5714285714286</ele><time>2026-04-22T10:37:10.321Z</time></trkpt><trkpt lat="39.3829501" lon="8.4837794"><ele>557.2857142857143</ele><time>2026-04-22T10:37:11.321Z</time></trkpt><trkpt lat="39.3829991" lon="8.4837246"><ele>557.0</ele><time>2026-04-22T10:37:12.321Z</time></trkpt><trkpt lat="39.3830965" lon="8.4836534"><ele>557.0</ele><time>2026-04-22T10:37:14.322Z</time></trkpt><trkpt lat="39.383156" lon="8.4836244"><ele>557.0</ele><time>2026-04-22T10:37:15.322Z</time></trkpt><trkpt lat="39.3832246" lon="8.4835929"><ele>557.0</ele><time>2026-04-22T10:37:16.321Z</time></trkpt><trkpt lat="39.3833005" lon="8.4835654"><ele>557.0</ele><time>2026-04-22T10:37:17.322Z</time></trkpt><trkpt lat="39.3833704" lon="8.4835346"><ele>557.0</ele><time>2026-04-22T10:37:18.322Z</time></trkpt><trkpt lat="39.38344" lon="8.4835143"><ele>557.0</ele><time>2026-04-22T10:37:19.322Z</time></trkpt><trkpt lat="39.3835058" lon="8.4834965"><ele>557.0</ele><time>2026-04-22T10:37:20.322Z</time></trkpt><trkpt lat="39.3835784" lon="8.4834852"><ele>557.0</ele><time>2026-04-22T10:37:21.321Z</time></trkpt><trkpt lat="39.3836514" lon="8.4834727"><ele>557.0</ele><time>2026-04-22T10:37:22.322Z</time></trkpt><trkpt lat="39.3837243" lon="8.4834605"><ele>557.0</ele><time>2026-04-22T10:37:23.322Z</time></trkpt><trkpt lat="39.3837964" lon="8.4834475"><ele>557.0</ele><time>2026-04-22T10:37:24.322Z</time></trkpt><trkpt lat="39.3839608" lon="8.4834388"><ele>557.0</ele><time>2026-04-22T10:37:26.322Z</time></trkpt><trkpt lat="39.384046" lon="8.4834542"><ele>555.7142857142858</ele><time>2026-04-22T10:37:27.322Z</time></trkpt><trkpt lat="39.3841171" lon="8.4834739"><ele>554.4285714285714</ele><time>2026-04-22T10:37:28.322Z</time></trkpt><trkpt lat="39.3841819" lon="8.4834815"><ele>553.1428571428571</ele><time>2026-04-22T10:37:29.321Z</time></trkpt><trkpt lat="39.3842486" lon="8.4834625"><ele>551.8571428571429</ele><time>2026-04-22T10:37:30.322Z</time></trkpt><trkpt lat="39.3843137" lon="8.4834266"><ele>550.5714285714286</ele><time>2026-04-22T10:37:31.322Z</time></trkpt><trkpt lat="39.3843823" lon="8.4833726"><ele>549.2857142857143</ele><time>2026-04-22T10:37:32.322Z</time></trkpt><trkpt lat="39.3844503" lon="8.4833054"><ele>548.0</ele><time>2026-04-22T10:37:33.322Z</time></trkpt><trkpt lat="39.3845123" lon="8.4832332"><ele>548.0000000000001</ele><time>2026-04-22T10:37:34.322Z</time></trkpt><trkpt lat="39.3845587" lon="8.4831608"><ele>548.0</ele><time>2026-04-22T10:37:35.321Z</time></trkpt><trkpt lat="39.3845906" lon="8.4830815"><ele>548.0</ele><time>2026-04-22T10:37:36.321Z</time></trkpt><trkpt lat="39.3846114" lon="8.4829903"><ele>548.0</ele><time>2026-04-22T10:37:37.321Z</time></trkpt><trkpt lat="39.3846164" lon="8.4829026"><ele>548.0</ele><time>2026-04-22T10:37:38.322Z</time></trkpt><trkpt lat="39.384604" lon="8.4828194"><ele>548.0000000000001</ele><time>2026-04-22T10:37:39.322Z</time></trkpt><trkpt lat="39.3845819" lon="8.4827365"><ele>548.0</ele><time>2026-04-22T10:37:40.321Z</time></trkpt><trkpt lat="39.3845587" lon="8.4826467"><ele>549.0</ele><time>2026-04-22T10:37:41.321Z</time></trkpt><trkpt lat="39.3845316" lon="8.482554"><ele>550.0</ele><time>2026-04-22T10:37:42.322Z</time></trkpt><trkpt lat="39.3844998" lon="8.4824643"><ele>551.0</ele><time>2026-04-22T10:37:43.321Z</time></trkpt><trkpt lat="39.3844656" lon="8.4823829"><ele>552.0</ele><time>2026-04-22T10:37:44.322Z</time></trkpt><trkpt lat="39.3844258" lon="8.4823114"><ele>553.0</ele><time>2026-04-22T10:37:45.322Z</time></trkpt><trkpt lat="39.3843209" lon="8.4821976"><ele>554.0</ele><time>2026-04-22T10:37:47.322Z</time></trkpt><trkpt lat="39.3842663" lon="8.4821383"><ele>550.6666666666666</ele><time>2026-04-22T10:37:48.322Z</time></trkpt><trkpt lat="39.3841626" lon="8.4820472"><ele>547.3333333333333</ele><time>2026-04-22T10:37:50.322Z</time></trkpt><trkpt lat="39.3840963" lon="8.4820249"><ele>544.0</ele><time>2026-04-22T10:37:51.322Z</time></trkpt><trkpt lat="39.384023" lon="8.4820172"><ele>540.6666666666666</ele><time>2026-04-22T10:37:52.322Z</time></trkpt><trkpt lat="39.3839428" lon="8.4820205"><ele>537.3333333333334</ele><time>2026-04-22T10:37:53.322Z</time></trkpt><trkpt lat="39.3838606" lon="8.4820221"><ele>534.0</ele><time>2026-04-22T10:37:54.322Z</time></trkpt><trkpt lat="39.3837794" lon="8.4820179"><ele>534.0</ele><time>2026-04-22T10:37:55.322Z</time></trkpt><trkpt lat="39.3836949" lon="8.4820012"><ele>534.0</ele><time>2026-04-22T10:37:56.322Z</time></trkpt><trkpt lat="39.3836122" lon="8.4819769"><ele>534.0</ele><time>2026-04-22T10:37:57.321Z</time></trkpt><trkpt lat="39.3835271" lon="8.481948"><ele>534.0</ele><time>2026-04-22T10:37:58.322Z</time></trkpt><trkpt lat="39.3834402" lon="8.4819262"><ele>534.0</ele><time>2026-04-22T10:37:59.322Z</time></trkpt><trkpt lat="39.383354" lon="8.4819095"><ele>534.0</ele><time>2026-04-22T10:38:00.322Z</time></trkpt><trkpt lat="39.3832718" lon="8.4818903"><ele>534.0</ele><time>2026-04-22T10:38:01.322Z</time></trkpt><trkpt lat="39.383199" lon="8.4818745"><ele>534.0</ele><time>2026-04-22T10:38:02.322Z</time></trkpt><trkpt lat="39.3831248" lon="8.4818693"><ele>534.0</ele><time>2026-04-22T10:38:03.321Z</time></trkpt><trkpt lat="39.3830396" lon="8.4818842"><ele>534.0</ele><time>2026-04-22T10:38:04.322Z</time></trkpt><trkpt lat="39.3829567" lon="8.4819193"><ele>534.0</ele><time>2026-04-22T10:38:05.322Z</time></trkpt><trkpt lat="39.3828706" lon="8.4819758"><ele>534.0</ele><time>2026-04-22T10:38:06.322Z</time></trkpt><trkpt lat="39.3826925" lon="8.4820865"><ele>538.1666666666666</ele><time>2026-04-22T10:38:08.321Z</time></trkpt><trkpt lat="39.3826102" lon="8.4821126"><ele>542.3333333333334</ele><time>2026-04-22T10:38:09.321Z</time></trkpt><trkpt lat="39.3825307" lon="8.4821476"><ele>546.5</ele><time>2026-04-22T10:38:10.322Z</time></trkpt><trkpt lat="39.3824506" lon="8.4821958"><ele>550.6666666666667</ele><time>2026-04-22T10:38:11.322Z</time></trkpt><trkpt lat="39.3823724" lon="8.482248"><ele>554.8333333333334</ele><time>2026-04-22T10:38:12.322Z</time></trkpt><trkpt lat="39.3822979" lon="8.4823028"><ele>559.0</ele><time>2026-04-22T10:38:13.321Z</time></trkpt><trkpt lat="39.3822275" lon="8.4823419"><ele>556.0</ele><time>2026-04-22T10:38:14.322Z</time></trkpt><trkpt lat="39.3821533" lon="8.4823707"><ele>553.0</ele><time>2026-04-22T10:38:15.322Z</time></trkpt><trkpt lat="39.3820765" lon="8.4823938"><ele>550.0</ele><time>2026-04-22T10:38:16.321Z</time></trkpt><trkpt lat="39.3819984" lon="8.4824231"><ele>547.0</ele><time>2026-04-22T10:38:17.322Z</time></trkpt><trkpt lat="39.3819205" lon="8.482456"><ele>544.0</ele><time>2026-04-22T10:38:18.322Z</time></trkpt><trkpt lat="39.3818433" lon="8.4825003"><ele>541.0</ele><time>2026-04-22T10:38:19.321Z</time></trkpt><trkpt lat="39.381763" lon="8.4825491"><ele>541.0</ele><time>2026-04-22T10:38:20.322Z</time></trkpt><trkpt lat="39.381684" lon="8.4825873"><ele>541.0</ele><time>2026-04-22T10:38:21.322Z</time></trkpt><trkpt lat="39.3815987" lon="8.4826218"><ele>541.0</ele><time>2026-04-22T10:38:22.322Z</time></trkpt><trkpt lat="39.3815134" lon="8.4826414"><ele>541.0</ele><time>2026-04-22T10:38:23.321Z</time></trkpt><trkpt lat="39.3814331" lon="8.4826457"><ele>541.0</ele><time>2026-04-22T10:38:24.322Z</time></trkpt><trkpt lat="39.3813525" lon="8.4826567"><ele>541.0</ele><time>2026-04-22T10:38:25.321Z</time></trkpt><trkpt lat="39.3812779" lon="8.4826822"><ele>538.0</ele><time>2026-04-22T10:38:26.322Z</time></trkpt><trkpt lat="39.3812073" lon="8.4827261"><ele>535.0</ele><time>2026-04-22T10:38:27.322Z</time></trkpt><trkpt lat="39.3810659" lon="8.482857"><ele>532.0</ele><time>2026-04-22T10:38:29.322Z</time></trkpt><trkpt lat="39.3810008" lon="8.4829346"><ele>529.0</ele><time>2026-04-22T10:38:30.322Z</time></trkpt><trkpt lat="39.3809387" lon="8.4829922"><ele>526.0</ele><time>2026-04-22T10:38:31.322Z</time></trkpt><trkpt lat="39.3808666" lon="8.4830348"><ele>531.5</ele><time>2026-04-22T10:38:32.322Z</time></trkpt><trkpt lat="39.3807849" lon="8.4830574"><ele>537.0</ele><time>2026-04-22T10:38:33.322Z</time></trkpt><trkpt lat="39.3807071" lon="8.4830841"><ele>542.5</ele><time>2026-04-22T10:38:34.322Z</time></trkpt><trkpt lat="39.3806314" lon="8.4831183"><ele>548.0</ele><time>2026-04-22T10:38:35.322Z</time></trkpt><trkpt lat="39.380558" lon="8.483158"><ele>553.5</ele><time>2026-04-22T10:38:36.322Z</time></trkpt><trkpt lat="39.3804828" lon="8.4831875"><ele>559.0</ele><time>2026-04-22T10:38:37.321Z</time></trkpt><trkpt lat="39.3804102" lon="8.4832041"><ele>559.0</ele><time>2026-04-22T10:38:38.322Z</time></trkpt><trkpt lat="39.380333" lon="8.4832005"><ele>559.0</ele><time>2026-04-22T10:38:39.321Z</time></trkpt><trkpt lat="39.3802541" lon="8.4831768"><ele>559.0</ele><time>2026-04-22T10:38:40.322Z</time></trkpt><trkpt lat="39.3801706" lon="8.4831425"><ele>559.0</ele><time>2026-04-22T10:38:41.322Z</time></trkpt><trkpt lat="39.3800922" lon="8.4831175"><ele>559.0</ele><time>2026-04-22T10:38:42.321Z</time></trkpt><trkpt lat="39.3800187" lon="8.4831004"><ele>559.0</ele><time>2026-04-22T10:38:43.322Z</time></trkpt><trkpt lat="39.3799477" lon="8.4830862"><ele>559.0</ele><time>2026-04-22T10:38:44.321Z</time></trkpt><trkpt lat="39.3798778" lon="8.4830655"><ele>559.0</ele><time>2026-04-22T10:38:45.321Z</time></trkpt><trkpt lat="39.3798038" lon="8.4830388"><ele>559.0</ele><time>2026-04-22T10:38:46.321Z</time></trkpt><trkpt lat="39.3797274" lon="8.4830026"><ele>559.0</ele><time>2026-04-22T10:38:47.321Z</time></trkpt><trkpt lat="39.3796551" lon="8.4829664"><ele>559.0</ele><time>2026-04-22T10:38:48.322Z</time></trkpt><trkpt lat="39.3795139" lon="8.4828915"><ele>559.0</ele><time>2026-04-22T10:38:50.321Z</time></trkpt><trkpt lat="39.3794504" lon="8.4828437"><ele>559.0</ele><time>2026-04-22T10:38:51.322Z</time></trkpt><trkpt lat="39.3794062" lon="8.4827853"><ele>559.0</ele><time>2026-04-22T10:38:52.322Z</time></trkpt><trkpt lat="39.3793749" lon="8.4826423"><ele>559.0</ele><time>2026-04-22T10:38:54.322Z</time></trkpt><trkpt lat="39.3793963" lon="8.482489"><ele>559.0</ele><time>2026-04-22T10:38:56.322Z</time></trkpt><trkpt lat="39.3794145" lon="8.4824028"><ele>559.0</ele><time>2026-04-22T10:38:57.322Z</time></trkpt><trkpt lat="39.3794357" lon="8.4823074"><ele>559.0</ele><time>2026-04-22T10:38:58.321Z</time></trkpt><trkpt lat="39.3794592" lon="8.4822113"><ele>559.0</ele><time>2026-04-22T10:38:59.322Z</time></trkpt><trkpt lat="39.3794861" lon="8.4821013"><ele>559.0</ele><time>2026-04-22T10:39:00.321Z</time></trkpt><trkpt lat="39.3795152" lon="8.4819895"><ele>559.0</ele><time>2026-04-22T10:39:01.321Z</time></trkpt><trkpt lat="39.3795413" lon="8.4818785"><ele>559.0</ele><time>2026-04-22T10:39:02.322Z</time></trkpt><trkpt lat="39.3795609" lon="8.4817699"><ele>559.0</ele><time>2026-04-22T10:39:03.321Z</time></trkpt><trkpt lat="39.3795746" lon="8.4816756"><ele>558.25</ele><time>2026-04-22T10:39:04.321Z</time></trkpt><trkpt lat="39.379579" lon="8.4815319"><ele>557.5</ele><time>2026-04-22T10:39:06.322Z</time></trkpt><trkpt lat="39.3795596" lon="8.4814101"><ele>556.75</ele><time>2026-04-22T10:39:08.322Z</time></trkpt><trkpt lat="39.3795088" lon="8.4812902"><ele>556.0</ele><time>2026-04-22T10:39:10.322Z</time></trkpt><trkpt lat="39.3793383" lon="8.481131"><ele>553.8</ele><time>2026-04-22T10:39:14.322Z</time></trkpt><trkpt lat="39.379223" lon="8.4810799"><ele>551.6</ele><time>2026-04-22T10:39:16.322Z</time></trkpt><trkpt lat="39.3791582" lon="8.4810597"><ele>549.4</ele><time>2026-04-22T10:39:17.321Z</time></trkpt><trkpt lat="39.3790428" lon="8.4810511"><ele>547.2</ele><time>2026-04-22T10:39:19.322Z</time></trkpt><trkpt lat="39.3789413" lon="8.481027"><ele>545.0</ele><time>2026-04-22T10:39:21.322Z</time></trkpt><trkpt lat="39.3789035" lon="8.4809285"><ele>545.0</ele><time>2026-04-22T10:39:23.322Z</time></trkpt><trkpt lat="39.3789226" lon="8.4808491"><ele>545.0</ele><time>2026-04-22T10:39:24.322Z</time></trkpt><trkpt lat="39.3789574" lon="8.4807536"><ele>545.0</ele><time>2026-04-22T10:39:25.322Z</time></trkpt><trkpt lat="39.3789939" lon="8.4806511"><ele>545.0</ele><time>2026-04-22T10:39:26.322Z</time></trkpt><trkpt lat="39.3790299" lon="8.4805556"><ele>545.0</ele><time>2026-04-22T10:39:27.321Z</time></trkpt><trkpt lat="39.3790637" lon="8.4804781"><ele>545.0</ele><time>2026-04-22T10:39:28.321Z</time></trkpt><trkpt lat="39.3791577" lon="8.4803723"><ele>546.4</ele><time>2026-04-22T10:39:30.322Z</time></trkpt><trkpt lat="39.3792142" lon="8.4803288"><ele>547.8</ele><time>2026-04-22T10:39:31.322Z</time></trkpt><trkpt lat="39.3793627" lon="8.4801703"><ele>549.2</ele><time>2026-04-22T10:39:34.322Z</time></trkpt><trkpt lat="39.3794082" lon="8.4801081"><ele>550.6</ele><time>2026-04-22T10:39:35.322Z</time></trkpt><trkpt lat="39.3794485" lon="8.4800374"><ele>552.0</ele><time>2026-04-22T10:39:36.321Z</time></trkpt><trkpt lat="39.3794832" lon="8.4799573"><ele>552.0</ele><time>2026-04-22T10:39:37.322Z</time></trkpt><trkpt lat="39.3795172" lon="8.4798763"><ele>552.0</ele><time>2026-04-22T10:39:38.322Z</time></trkpt><trkpt lat="39.3795691" lon="8.4797467"><ele>552.0</ele><time>2026-04-22T10:39:40.322Z</time></trkpt><trkpt lat="39.3796153" lon="8.4796149"><ele>552.0</ele><time>2026-04-22T10:39:42.321Z</time></trkpt><trkpt lat="39.3796417" lon="8.4795313"><ele>552.0</ele><time>2026-04-22T10:39:43.322Z</time></trkpt><trkpt lat="39.3796703" lon="8.4794421"><ele>552.0</ele><time>2026-04-22T10:39:44.321Z</time></trkpt><trkpt lat="39.3796919" lon="8.4793469"><ele>550.8000000000001</ele><time>2026-04-22T10:39:45.322Z</time></trkpt><trkpt lat="39.3797052" lon="8.4792578"><ele>549.6</ele><time>2026-04-22T10:39:46.321Z</time></trkpt><trkpt lat="39.3796928" lon="8.4791234"><ele>548.4000000000001</ele><time>2026-04-22T10:39:48.322Z</time></trkpt><trkpt lat="39.3796431" lon="8.4790458"><ele>547.2</ele><time>2026-04-22T10:39:50.322Z</time></trkpt><trkpt lat="39.3795926" lon="8.4789938"><ele>546.0</ele><time>2026-04-22T10:39:52.322Z</time></trkpt><trkpt lat="39.379445" lon="8.4789039"><ele>546.0</ele><time>2026-04-22T10:39:58.321Z</time></trkpt><trkpt lat="39.3793591" lon="8.4788919"><ele>546.0</ele><time>2026-04-22T10:41:57.321Z</time></trkpt><trkpt lat="39.3792184" lon="8.4788591"><ele>546.0</ele><time>2026-04-22T10:41:59.32Z</time></trkpt><trkpt lat="39.3791507" lon="8.4788488"><ele>546.0</ele><time>2026-04-22T10:42:00.321Z</time></trkpt><trkpt lat="39.3790398" lon="8.4788379"><ele>546.0</ele><time>2026-04-22T10:42:02.321Z</time></trkpt><trkpt lat="39.3789215" lon="8.4788212"><ele>546.0</ele><time>2026-04-22T10:42:04.321Z</time></trkpt><trkpt lat="39.3788559" lon="8.4788022"><ele>546.0</ele><time>2026-04-22T10:42:05.321Z</time></trkpt><trkpt lat="39.3787849" lon="8.4787895"><ele>546.0</ele><time>2026-04-22T10:42:06.321Z</time></trkpt><trkpt lat="39.3787143" lon="8.4787808"><ele>546.0</ele><time>2026-04-22T10:42:07.321Z</time></trkpt><trkpt lat="39.3786429" lon="8.4787824"><ele>546.0</ele><time>2026-04-22T10:42:08.32Z</time></trkpt><trkpt lat="39.3785684" lon="8.4787889"><ele>546.0</ele><time>2026-04-22T10:42:09.321Z</time></trkpt><trkpt lat="39.3784915" lon="8.4787952"><ele>546.0</ele><time>2026-04-22T10:42:10.32Z</time></trkpt><trkpt lat="39.3784147" lon="8.4788069"><ele>546.2857142857143</ele><time>2026-04-22T10:42:11.321Z</time></trkpt><trkpt lat="39.3783433" lon="8.4788203"><ele>546.5714285714286</ele><time>2026-04-22T10:42:12.321Z</time></trkpt><trkpt lat="39.3782786" lon="8.4788244"><ele>546.8571428571429</ele><time>2026-04-22T10:42:13.321Z</time></trkpt><trkpt lat="39.3782144" lon="8.4788345"><ele>547.1428571428571</ele><time>2026-04-22T10:42:14.32Z</time></trkpt><trkpt lat="39.3781511" lon="8.4788546"><ele>547.4285714285714</ele><time>2026-04-22T10:42:15.321Z</time></trkpt><trkpt lat="39.3780827" lon="8.4788878"><ele>547.7142857142858</ele><time>2026-04-22T10:42:16.321Z</time></trkpt><trkpt lat="39.3780103" lon="8.4789279"><ele>548.0</ele><time>2026-04-22T10:42:17.321Z</time></trkpt><trkpt lat="39.3779412" lon="8.4789665"><ele>548.0</ele><time>2026-04-22T10:42:18.321Z</time></trkpt><trkpt lat="39.3777936" lon="8.4790271"><ele>548.0</ele><time>2026-04-22T10:42:20.321Z</time></trkpt><trkpt lat="39.3777116" lon="8.4790511"><ele>548.0</ele><time>2026-04-22T10:42:21.321Z</time></trkpt><trkpt lat="39.3776292" lon="8.4790765"><ele>548.0</ele><time>2026-04-22T10:42:22.321Z</time></trkpt><trkpt lat="39.377554" lon="8.4790959"><ele>548.0</ele><time>2026-04-22T10:42:23.32Z</time></trkpt><trkpt lat="39.377487" lon="8.4790955"><ele>548.0</ele><time>2026-04-22T10:42:24.321Z</time></trkpt><trkpt lat="39.3774239" lon="8.4790821"><ele>548.0</ele><time>2026-04-22T10:42:25.321Z</time></trkpt><trkpt lat="39.3773046" lon="8.4790775"><ele>548.0</ele><time>2026-04-22T10:42:27.321Z</time></trkpt><trkpt lat="39.3771797" lon="8.4791208"><ele>548.0</ele><time>2026-04-22T10:42:29.32Z</time></trkpt><trkpt lat="39.3771141" lon="8.4791498"><ele>548.0</ele><time>2026-04-22T10:42:30.321Z</time></trkpt><trkpt lat="39.3770071" lon="8.4791543"><ele>549.5</ele><time>2026-04-22T10:42:32.32Z</time></trkpt><trkpt lat="39.3769308" lon="8.4790567"><ele>551.0</ele><time>2026-04-22T10:42:34.32Z</time></trkpt><trkpt lat="39.3768999" lon="8.4789806"><ele>552.5</ele><time>2026-04-22T10:42:35.32Z</time></trkpt><trkpt lat="39.3768664" lon="8.4788947"><ele>554.0</ele><time>2026-04-22T10:42:36.321Z</time></trkpt><trkpt lat="39.3768265" lon="8.4788077"><ele>555.5</ele><time>2026-04-22T10:42:37.321Z</time></trkpt><trkpt lat="39.3767858" lon="8.4787228"><ele>557.0</ele><time>2026-04-22T10:42:38.321Z</time></trkpt><trkpt lat="39.3767415" lon="8.4786537"><ele>561.0</ele><time>2026-04-22T10:42:39.32Z</time></trkpt><trkpt lat="39.3765523" lon="8.4784925"><ele>565.0</ele><time>2026-04-22T10:42:43.321Z</time></trkpt><trkpt lat="39.3764331" lon="8.4784803"><ele>569.0</ele><time>2026-04-22T10:42:45.321Z</time></trkpt><trkpt lat="39.3763178" lon="8.4784973"><ele>569.0</ele><time>2026-04-22T10:42:47.321Z</time></trkpt><trkpt lat="39.3762498" lon="8.4784667"><ele>569.0</ele><time>2026-04-22T10:42:49.321Z</time></trkpt><trkpt lat="39.3762445" lon="8.4783199"><ele>569.0</ele><time>2026-04-22T10:42:51.321Z</time></trkpt><trkpt lat="39.376268" lon="8.478218"><ele>569.0</ele><time>2026-04-22T10:42:52.321Z</time></trkpt><trkpt lat="39.3763078" lon="8.4781218"><ele>569.0</ele><time>2026-04-22T10:42:53.321Z</time></trkpt><trkpt lat="39.376355" lon="8.4780336"><ele>569.0</ele><time>2026-04-22T10:42:54.321Z</time></trkpt><trkpt lat="39.3764116" lon="8.4779458"><ele>564.8</ele><time>2026-04-22T10:42:55.321Z</time></trkpt><trkpt lat="39.3764798" lon="8.4778518"><ele>560.5999999999999</ele><time>2026-04-22T10:42:56.321Z</time></trkpt><trkpt lat="39.3765569" lon="8.4777576"><ele>556.4</ele><time>2026-04-22T10:42:57.32Z</time></trkpt><trkpt lat="39.3766361" lon="8.4776736"><ele>552.1999999999999</ele><time>2026-04-22T10:42:58.32Z</time></trkpt><trkpt lat="39.3767104" lon="8.477601"><ele>548.0</ele><time>2026-04-22T10:42:59.321Z</time></trkpt><trkpt lat="39.376781" lon="8.4775402"><ele>548.0</ele><time>2026-04-22T10:43:00.32Z</time></trkpt><trkpt lat="39.3769292" lon="8.4774246"><ele>548.0</ele><time>2026-04-22T10:43:02.321Z</time></trkpt><trkpt lat="39.3770044" lon="8.4773688"><ele>548.0</ele><time>2026-04-22T10:43:03.321Z</time></trkpt><trkpt lat="39.377078" lon="8.4773056"><ele>548.0</ele><time>2026-04-22T10:43:04.321Z</time></trkpt><trkpt lat="39.3771578" lon="8.4772356"><ele>548.0</ele><time>2026-04-22T10:43:05.321Z</time></trkpt><trkpt lat="39.3772413" lon="8.4771658"><ele>546.1666666666666</ele><time>2026-04-22T10:43:06.321Z</time></trkpt><trkpt lat="39.3773208" lon="8.477103"><ele>544.3333333333333</ele><time>2026-04-22T10:43:07.321Z</time></trkpt><trkpt lat="39.3773881" lon="8.4770496"><ele>542.5</ele><time>2026-04-22T10:43:08.321Z</time></trkpt><trkpt lat="39.377452" lon="8.4769931"><ele>540.6666666666666</ele><time>2026-04-22T10:43:09.32Z</time></trkpt><trkpt lat="39.377513" lon="8.4769166"><ele>538.8333333333334</ele><time>2026-04-22T10:43:10.321Z</time></trkpt><trkpt lat="39.3775693" lon="8.4768185"><ele>537.0</ele><time>2026-04-22T10:43:11.321Z</time></trkpt><trkpt lat="39.3776068" lon="8.4767138"><ele>537.0</ele><time>2026-04-22T10:43:12.32Z</time></trkpt><trkpt lat="39.3776221" lon="8.4766131"><ele>537.0</ele><time>2026-04-22T10:43:13.321Z</time></trkpt><trkpt lat="39.3776159" lon="8.4765076"><ele>537.0</ele><time>2026-04-22T10:43:14.321Z</time></trkpt><trkpt lat="39.3775947" lon="8.4763946"><ele>537.0</ele><time>2026-04-22T10:43:15.321Z</time></trkpt><trkpt lat="39.3775683" lon="8.4762766"><ele>537.0</ele><time>2026-04-22T10:43:16.321Z</time></trkpt><trkpt lat="39.3775337" lon="8.4761689"><ele>537.0</ele><time>2026-04-22T10:43:17.32Z</time></trkpt><trkpt lat="39.377504" lon="8.4760801"><ele>541.25</ele><time>2026-04-22T10:43:18.321Z</time></trkpt><trkpt lat="39.3774794" lon="8.4759447"><ele>545.5</ele><time>2026-04-22T10:43:20.321Z</time></trkpt><trkpt lat="39.3775502" lon="8.4758674"><ele>549.75</ele><time>2026-04-22T10:43:22.321Z</time></trkpt><trkpt lat="39.3777309" lon="8.4758836"><ele>554.0</ele><time>2026-04-22T10:43:24.321Z</time></trkpt><trkpt lat="39.3778346" lon="8.47591"><ele>554.0</ele><time>2026-04-22T10:43:25.321Z</time></trkpt><trkpt lat="39.3779262" lon="8.4759225"><ele>554.0</ele><time>2026-04-22T10:43:26.32Z</time></trkpt><trkpt lat="39.3780135" lon="8.4759178"><ele>554.0</ele><time>2026-04-22T10:43:27.321Z</time></trkpt><trkpt lat="39.378104" lon="8.4758961"><ele>554.0</ele><time>2026-04-22T10:43:28.321Z</time></trkpt><trkpt lat="39.3781974" lon="8.4758628"><ele>554.0</ele><time>2026-04-22T10:43:29.32Z</time></trkpt><trkpt lat="39.3782872" lon="8.4758181"><ele>551.0</ele><time>2026-04-22T10:43:30.32Z</time></trkpt><trkpt lat="39.3783675" lon="8.4757665"><ele>548.0</ele><time>2026-04-22T10:43:31.321Z</time></trkpt><trkpt lat="39.3784491" lon="8.4757218"><ele>545.0</ele><time>2026-04-22T10:43:32.321Z</time></trkpt><trkpt lat="39.3785343" lon="8.4756914"><ele>542.0</ele><time>2026-04-22T10:43:33.321Z</time></trkpt><trkpt lat="39.3786165" lon="8.4756699"><ele>539.0</ele><time>2026-04-22T10:43:34.321Z</time></trkpt><trkpt lat="39.3786899" lon="8.4756594"><ele>536.0</ele><time>2026-04-22T10:43:35.321Z</time></trkpt><trkpt lat="39.3787544" lon="8.4756655"><ele>534.6</ele><time>2026-04-22T10:43:36.321Z</time></trkpt><trkpt lat="39.3788648" lon="8.4756626"><ele>533.2</ele><time>2026-04-22T10:43:38.32Z</time></trkpt><trkpt lat="39.3789813" lon="8.475576"><ele>531.8</ele><time>2026-04-22T10:43:40.321Z</time></trkpt><trkpt lat="39.3790483" lon="8.4755179"><ele>530.4</ele><time>2026-04-22T10:43:41.321Z</time></trkpt><trkpt lat="39.3791132" lon="8.4754661"><ele>529.0</ele><time>2026-04-22T10:43:42.321Z</time></trkpt><trkpt lat="39.37917" lon="8.4754148"><ele>529.0</ele><time>2026-04-22T10:43:43.321Z</time></trkpt><trkpt lat="39.3792619" lon="8.4752083"><ele>529.0</ele><time>2026-04-22T10:43:46.321Z</time></trkpt><trkpt lat="39.3792511" lon="8.4751174"><ele>529.0</ele><time>2026-04-22T10:43:47.321Z</time></trkpt><trkpt lat="39.3792117" lon="8.4750331"><ele>529.0</ele><time>2026-04-22T10:43:48.321Z</time></trkpt><trkpt lat="39.3791547" lon="8.4749674"><ele>529.0</ele><time>2026-04-22T10:43:49.32Z</time></trkpt><trkpt lat="39.379089" lon="8.4749116"><ele>529.0</ele><time>2026-04-22T10:43:50.321Z</time></trkpt><trkpt lat="39.379023" lon="8.474863"><ele>529.0</ele><time>2026-04-22T10:43:51.321Z</time></trkpt><trkpt lat="39.3789636" lon="8.4748156"><ele>529.0</ele><time>2026-04-22T10:43:52.321Z</time></trkpt><trkpt lat="39.3789119" lon="8.4747557"><ele>529.0</ele><time>2026-04-22T10:43:53.321Z</time></trkpt><trkpt lat="39.3788581" lon="8.4746941"><ele>529.0</ele><time>2026-04-22T10:43:54.321Z</time></trkpt><trkpt lat="39.3788104" lon="8.4746344"><ele>529.0</ele><time>2026-04-22T10:43:55.321Z</time></trkpt><trkpt lat="39.3787408" lon="8.4745091"><ele>534.6</ele><time>2026-04-22T10:43:57.32Z</time></trkpt><trkpt lat="39.3786875" lon="8.4743857"><ele>540.2</ele><time>2026-04-22T10:43:59.32Z</time></trkpt><trkpt lat="39.3786441" lon="8.4742541"><ele>545.8000000000001</ele><time>2026-04-22T10:44:01.321Z</time></trkpt><trkpt lat="39.3785997" lon="8.4741023"><ele>551.4</ele><time>2026-04-22T10:44:03.321Z</time></trkpt><trkpt lat="39.3785818" lon="8.4740083"><ele>557.0</ele><time>2026-04-22T10:44:04.321Z</time></trkpt><trkpt lat="39.3785664" lon="8.4738304"><ele>557.4</ele><time>2026-04-22T10:44:06.32Z</time></trkpt><trkpt lat="39.3785827" lon="8.473684"><ele>557.8000000000001</ele><time>2026-04-22T10:44:08.321Z</time></trkpt><trkpt lat="39.3786772" lon="8.4735988"><ele>558.2</ele><time>2026-04-22T10:44:10.321Z</time></trkpt><trkpt lat="39.3787501" lon="8.4735889"><ele>558.6</ele><time>2026-04-22T10:44:11.321Z</time></trkpt><trkpt lat="39.3788272" lon="8.4736016"><ele>559.0</ele><time>2026-04-22T10:44:12.321Z</time></trkpt><trkpt lat="39.3789027" lon="8.4736309"><ele>556.8</ele><time>2026-04-22T10:44:13.321Z</time></trkpt><trkpt lat="39.378979" lon="8.4736581"><ele>554.5999999999999</ele><time>2026-04-22T10:44:14.321Z</time></trkpt><trkpt lat="39.3790475" lon="8.4736765"><ele>552.4</ele><time>2026-04-22T10:44:15.32Z</time></trkpt><trkpt lat="39.3791701" lon="8.4736798"><ele>550.1999999999999</ele><time>2026-04-22T10:44:17.32Z</time></trkpt><trkpt lat="39.3792821" lon="8.4736355"><ele>548.0</ele><time>2026-04-22T10:44:19.321Z</time></trkpt><trkpt lat="39.3793409" lon="8.4735832"><ele>548.0</ele><time>2026-04-22T10:44:20.321Z</time></trkpt><trkpt lat="39.379403" lon="8.4735231"><ele>548.0</ele><time>2026-04-22T10:44:21.321Z</time></trkpt><trkpt lat="39.3794625" lon="8.4734631"><ele>548.0</ele><time>2026-04-22T10:44:22.321Z</time></trkpt><trkpt lat="39.3795216" lon="8.4734108"><ele>548.0</ele><time>2026-04-22T10:44:23.321Z</time></trkpt><trkpt lat="39.3795844" lon="8.473365"><ele>548.0</ele><time>2026-04-22T10:44:24.321Z</time></trkpt><trkpt lat="39.3796532" lon="8.4733184"><ele>548.0</ele><time>2026-04-22T10:44:25.321Z</time></trkpt><trkpt lat="39.3797907" lon="8.4732602"><ele>546.1666666666666</ele><time>2026-04-22T10:44:27.321Z</time></trkpt><trkpt lat="39.3798657" lon="8.4732531"><ele>544.3333333333333</ele><time>2026-04-22T10:44:28.321Z</time></trkpt><trkpt lat="39.3799485" lon="8.4732528"><ele>542.5</ele><time>2026-04-22T10:44:29.321Z</time></trkpt><trkpt lat="39.3800354" lon="8.4732492"><ele>540.6666666666666</ele><time>2026-04-22T10:44:30.32Z</time></trkpt><trkpt lat="39.3801245" lon="8.4732336"><ele>538.8333333333334</ele><time>2026-04-22T10:44:31.32Z</time></trkpt><trkpt lat="39.380208" lon="8.4732092"><ele>537.0</ele><time>2026-04-22T10:44:32.321Z</time></trkpt><trkpt lat="39.3802805" lon="8.4731808"><ele>537.0</ele><time>2026-04-22T10:44:33.321Z</time></trkpt><trkpt lat="39.3803477" lon="8.4731575"><ele>537.0</ele><time>2026-04-22T10:44:34.321Z</time></trkpt><trkpt lat="39.3804128" lon="8.4731405"><ele>537.0</ele><time>2026-04-22T10:44:35.32Z</time></trkpt><trkpt lat="39.3804808" lon="8.4731288"><ele>537.0</ele><time>2026-04-22T10:44:36.321Z</time></trkpt><trkpt lat="39.3806012" lon="8.4731128"><ele>537.0</ele><time>2026-04-22T10:44:38.321Z</time></trkpt><trkpt lat="39.380715" lon="8.4730445"><ele>535.4285714285713</ele><time>2026-04-22T10:44:40.32Z</time></trkpt><trkpt lat="39.3807707" lon="8.4729817"><ele>533.8571428571429</ele><time>2026-04-22T10:44:41.321Z</time></trkpt><trkpt lat="39.3808278" lon="8.4729082"><ele>532.2857142857142</ele><time>2026-04-22T10:44:42.321Z</time></trkpt><trkpt lat="39.3808833" lon="8.4728412"><ele>530.7142857142857</ele><time>2026-04-22T10:44:43.32Z</time></trkpt><trkpt lat="39.38094" lon="8.4727863"><ele>529.1428571428571</ele><time>2026-04-22T10:44:44.321Z</time></trkpt><trkpt lat="39.3810022" lon="8.4727575"><ele>527.5714285714286</ele><time>2026-04-22T10:44:45.32Z</time></trkpt><trkpt lat="39.3810702" lon="8.4727463"><ele>526.0</ele><time>2026-04-22T10:44:46.321Z</time></trkpt><trkpt lat="39.3812202" lon="8.4727331"><ele>528.1666666666667</ele><time>2026-04-22T10:44:48.321Z</time></trkpt><trkpt lat="39.3813256" lon="8.4726639"><ele>530.3333333333334</ele><time>2026-04-22T10:44:50.32Z</time></trkpt><trkpt lat="39.3813641" lon="8.4725971"><ele>532.5</ele><time>2026-04-22T10:44:51.321Z</time></trkpt><trkpt lat="39.3813924" lon="8.4725107"><ele>534.6666666666666</ele><time>2026-04-22T10:44:52.321Z</time></trkpt><trkpt lat="39.3814236" lon="8.4724283"><ele>536.8333333333333</ele><time>2026-04-22T10:44:53.32Z</time></trkpt><trkpt lat="39.3814621" lon="8.4723558"><ele>539.0</ele><time>2026-04-22T10:44:54.321Z</time></trkpt><trkpt lat="39.3815105" lon="8.4722907"><ele>539.0</ele><time>2026-04-22T10:44:55.321Z</time></trkpt><trkpt lat="39.3815636" lon="8.472231"><ele>539.0</ele><time>2026-04-22T10:44:56.321Z</time></trkpt><trkpt lat="39.3816198" lon="8.47218"><ele>539.0</ele><time>2026-04-22T10:44:57.321Z</time></trkpt><trkpt lat="39.3816862" lon="8.4721342"><ele>539.0</ele><time>2026-04-22T10:44:58.321Z</time></trkpt><trkpt lat="39.3817552" lon="8.4720938"><ele>539.0</ele><time>2026-04-22T10:44:59.321Z</time></trkpt><trkpt lat="39.3818246" lon="8.4720485"><ele>539.0</ele><time>2026-04-22T10:45:00.32Z</time></trkpt><trkpt lat="39.3818911" lon="8.4720033"><ele>539.0</ele><time>2026-04-22T10:45:01.321Z</time></trkpt><trkpt lat="39.3819564" lon="8.4719632"><ele>543.1666666666666</ele><time>2026-04-22T10:45:02.321Z</time></trkpt><trkpt lat="39.3820202" lon="8.4719378"><ele>547.3333333333333</ele><time>2026-04-22T10:45:03.321Z</time></trkpt><trkpt lat="39.382087" lon="8.4719304"><ele>551.5</ele><time>2026-04-22T10:45:04.321Z</time></trkpt><trkpt lat="39.3821516" lon="8.4719409"><ele>555.6666666666666</ele><time>2026-04-22T10:45:05.321Z</time></trkpt><trkpt lat="39.382217" lon="8.4719588"><ele>559.8333333333334</ele><time>2026-04-22T10:45:06.321Z</time></trkpt><trkpt lat="39.3822931" lon="8.4719813"><ele>564.0</ele><time>2026-04-22T10:45:07.321Z</time></trkpt><trkpt lat="39.3824584" lon="8.4720234"><ele>564.0</ele><time>2026-04-22T10:45:09.321Z</time></trkpt><trkpt lat="39.3825369" lon="8.472044"><ele>564.0</ele><time>2026-04-22T10:45:10.32Z</time></trkpt><trkpt lat="39.3826095" lon="8.4720711"><ele>564.0</ele><time>2026-04-22T10:45:11.32Z</time></trkpt><trkpt lat="39.3826807" lon="8.4720943"><ele>564.0</ele><time>2026-04-22T10:45:12.321Z</time></trkpt><trkpt lat="39.3827546" lon="8.4721061"><ele>564.0</ele><time>2026-04-22T10:45:13.32Z</time></trkpt><trkpt lat="39.3828283" lon="8.47211"><ele>564.0</ele><time>2026-04-22T10:45:14.32Z</time></trkpt><trkpt lat="39.3828994" lon="8.4721104"><ele>564.0</ele><time>2026-04-22T10:45:15.321Z</time></trkpt><trkpt lat="39.382971" lon="8.4721163"><ele>563.1428571428571</ele><time>2026-04-22T10:45:16.32Z</time></trkpt><trkpt lat="39.3830388" lon="8.4721254"><ele>562.2857142857142</ele><time>2026-04-22T10:45:17.32Z</time></trkpt><trkpt lat="39.3831038" lon="8.4721253"><ele>561.4285714285713</ele><time>2026-04-22T10:45:18.321Z</time></trkpt><trkpt lat="39.3831681" lon="8.4721013"><ele>560.5714285714286</ele><time>2026-04-22T10:45:19.321Z</time></trkpt><trkpt lat="39.3832285" lon="8.4720532"><ele>559.7142857142857</ele><time>2026-04-22T10:45:20.321Z</time></trkpt><trkpt lat="39.3832802" lon="8.4719942"><ele>558.8571428571428</ele><time>2026-04-22T10:45:21.321Z</time></trkpt><trkpt lat="39.3833556" lon="8.4718952"><ele>558.0</ele><time>2026-04-22T10:45:23.32Z</time></trkpt><trkpt lat="39.3834239" lon="8.4718394"><ele>558.0</ele><time>2026-04-22T10:45:25.321Z</time></trkpt><trkpt lat="39.3835065" lon="8.4718545"><ele>558.0</ele><time>2026-04-22T10:45:27.32Z</time></trkpt><trkpt lat="39.3835701" lon="8.4719158"><ele>558.0</ele><time>2026-04-22T10:45:29.32Z</time></trkpt><trkpt lat="39.3836849" lon="8.4720915"><ele>558.0</ele><time>2026-04-22T10:45:32.321Z</time></trkpt><trkpt lat="39.3837394" lon="8.4721782"><ele>558.0</ele><time>2026-04-22T10:45:33.321Z</time></trkpt><trkpt lat="39.3837876" lon="8.4722657"><ele>554.0</ele><time>2026-04-22T10:45:34.32Z</time></trkpt><trkpt lat="39.3838362" lon="8.4723426"><ele>550.0</ele><time>2026-04-22T10:45:35.321Z</time></trkpt><trkpt lat="39.3838798" lon="8.4724046"><ele>546.0</ele><time>2026-04-22T10:45:36.321Z</time></trkpt><trkpt lat="39.3839583" lon="8.472489"><ele>542.0</ele><time>2026-04-22T10:45:38.321Z</time></trkpt><trkpt lat="39.3840814" lon="8.4724939"><ele>538.0</ele><time>2026-04-22T10:45:40.321Z</time></trkpt><trkpt lat="39.3841571" lon="8.4724549"><ele>534.0</ele><time>2026-04-22T10:45:41.32Z</time></trkpt><trkpt lat="39.3842345" lon="8.4723924"><ele>533.5</ele><time>2026-04-22T10:45:42.321Z</time></trkpt><trkpt lat="39.3843047" lon="8.4723238"><ele>533.0</ele><time>2026-04-22T10:45:43.321Z</time></trkpt><trkpt lat="39.3843649" lon="8.4722422"><ele>532.5</ele><time>2026-04-22T10:45:44.32Z</time></trkpt><trkpt lat="39.3844226" lon="8.4721567"><ele>532.0</ele><time>2026-04-22T10:45:45.321Z</time></trkpt><trkpt lat="39.3844727" lon="8.472075"><ele>531.5</ele><time>2026-04-22T10:45:46.32Z</time></trkpt><trkpt lat="39.3845218" lon="8.4720039"><ele>531.0</ele><time>2026-04-22T10:45:47.321Z</time></trkpt><trkpt lat="39.3846257" lon="8.4719201"><ele>529.8</ele><time>2026-04-22T10:45:49.321Z</time></trkpt><trkpt lat="39.384699" lon="8.4719099"><ele>528.6</ele><time>2026-04-22T10:45:50.321Z</time></trkpt><trkpt lat="39.3848811" lon="8.4719509"><ele>527.4</ele><time>2026-04-22T10:45:52.321Z</time></trkpt><trkpt lat="39.3849595" lon="8.4719952"><ele>526.2</ele><time>2026-04-22T10:45:53.321Z</time></trkpt><trkpt lat="39.3850192" lon="8.4720361"><ele>525.0</ele><time>2026-04-22T10:45:54.32Z</time></trkpt><trkpt lat="39.3851049" lon="8.472159"><ele>525.0</ele><time>2026-04-22T10:45:56.32Z</time></trkpt><trkpt lat="39.3851879" lon="8.4722743"><ele>525.0</ele><time>2026-04-22T10:45:58.321Z</time></trkpt><trkpt lat="39.3852848" lon="8.4723133"><ele>525.0</ele><time>2026-04-22T10:46:00.32Z</time></trkpt><trkpt lat="39.3853714" lon="8.4722514"><ele>525.0</ele><time>2026-04-22T10:46:02.32Z</time></trkpt><trkpt lat="39.3854155" lon="8.4721855"><ele>525.0</ele><time>2026-04-22T10:46:03.321Z</time></trkpt><trkpt lat="39.3854595" lon="8.4721236"><ele>528.0</ele><time>2026-04-22T10:46:04.32Z</time></trkpt><trkpt lat="39.3855597" lon="8.4720502"><ele>531.0</ele><time>2026-04-22T10:46:06.32Z</time></trkpt><trkpt lat="39.3856662" lon="8.4720094"><ele>534.0</ele><time>2026-04-22T10:46:08.321Z</time></trkpt><trkpt lat="39.3857313" lon="8.471908"><ele>537.0</ele><time>2026-04-22T10:46:10.32Z</time></trkpt><trkpt lat="39.3857449" lon="8.4717564"><ele>540.0</ele><time>2026-04-22T10:46:12.32Z</time></trkpt><trkpt lat="39.3859088" lon="8.4716062"><ele>540.0</ele><time>2026-04-22T10:46:16.321Z</time></trkpt><trkpt lat="39.3859843" lon="8.4716028"><ele>540.0</ele><time>2026-04-22T10:46:17.321Z</time></trkpt><trkpt lat="39.3860607" lon="8.4715922"><ele>540.0</ele><time>2026-04-22T10:46:18.321Z</time></trkpt><trkpt lat="39.3861347" lon="8.4715704"><ele>540.0</ele><time>2026-04-22T10:46:19.321Z</time></trkpt><trkpt lat="39.3862023" lon="8.4715483"><ele>540.0</ele><time>2026-04-22T10:46:20.321Z</time></trkpt><trkpt lat="39.3862664" lon="8.4715438"><ele>540.0</ele><time>2026-04-22T10:46:21.321Z</time></trkpt><trkpt lat="39.3863886" lon="8.4715987"><ele>539.1666666666666</ele><time>2026-04-22T10:46:23.32Z</time></trkpt><trkpt lat="39.3864607" lon="8.4716404"><ele>538.3333333333334</ele><time>2026-04-22T10:46:24.321Z</time></trkpt><trkpt lat="39.3865403" lon="8.4716726"><ele>537.5</ele><time>2026-04-22T10:46:25.32Z</time></trkpt><trkpt lat="39.3866222" lon="8.4716946"><ele>536.6666666666667</ele><time>2026-04-22T10:46:26.321Z</time></trkpt><trkpt lat="39.3867098" lon="8.47172"><ele>535.8333333333334</ele><time>2026-04-22T10:46:27.321Z</time></trkpt><trkpt lat="39.3867885" lon="8.4717525"><ele>535.0</ele><time>2026-04-22T10:46:28.32Z</time></trkpt><trkpt lat="39.3868607" lon="8.4717738"><ele>535.0</ele><time>2026-04-22T10:46:29.321Z</time></trkpt><trkpt lat="39.3869325" lon="8.4717755"><ele>535.0</ele><time>2026-04-22T10:46:30.321Z</time></trkpt><trkpt lat="39.3870022" lon="8.4717439"><ele>535.0</ele><time>2026-04-22T10:46:31.321Z</time></trkpt><trkpt lat="39.3870731" lon="8.4716815"><ele>535.0</ele><time>2026-04-22T10:46:32.321Z</time></trkpt><trkpt lat="39.3871527" lon="8.4716094"><ele>535.0</ele><time>2026-04-22T10:46:33.321Z</time></trkpt><trkpt lat="39.3873334" lon="8.4714697"><ele>535.5</ele><time>2026-04-22T10:46:35.321Z</time></trkpt><trkpt lat="39.3874142" lon="8.4714099"><ele>536.0</ele><time>2026-04-22T10:46:36.321Z</time></trkpt><trkpt lat="39.3874937" lon="8.4713439"><ele>536.5</ele><time>2026-04-22T10:46:37.321Z</time></trkpt><trkpt lat="39.3875618" lon="8.4712767"><ele>537.0</ele><time>2026-04-22T10:46:38.32Z</time></trkpt><trkpt lat="39.3876193" lon="8.4712098"><ele>537.5</ele><time>2026-04-22T10:46:39.321Z</time></trkpt><trkpt lat="39.3876647" lon="8.4711359"><ele>538.0</ele><time>2026-04-22T10:46:40.321Z</time></trkpt><trkpt lat="39.3876967" lon="8.4710531"><ele>538.0</ele><time>2026-04-22T10:46:41.32Z</time></trkpt><trkpt lat="39.3877149" lon="8.4709602"><ele>538.0</ele><time>2026-04-22T10:46:42.32Z</time></trkpt><trkpt lat="39.3877241" lon="8.4708508"><ele>538.0</ele><time>2026-04-22T10:46:43.321Z</time></trkpt><trkpt lat="39.387721" lon="8.4707432"><ele>538.0</ele><time>2026-04-22T10:46:44.321Z</time></trkpt><trkpt lat="39.3877108" lon="8.4706432"><ele>538.0</ele><time>2026-04-22T10:46:45.321Z</time></trkpt><trkpt lat="39.3876887" lon="8.4705425"><ele>538.0</ele><time>2026-04-22T10:46:46.321Z</time></trkpt><trkpt lat="39.3876469" lon="8.470437"><ele>538.8333333333334</ele><time>2026-04-22T10:46:47.321Z</time></trkpt><trkpt lat="39.3875919" lon="8.4703442"><ele>539.6666666666667</ele><time>2026-04-22T10:46:48.321Z</time></trkpt><trkpt lat="39.38754" lon="8.4702668"><ele>540.5</ele><time>2026-04-22T10:46:49.321Z</time></trkpt><trkpt lat="39.3875053" lon="8.4701968"><ele>541.3333333333334</ele><time>2026-04-22T10:46:50.321Z</time></trkpt><trkpt lat="39.3874714" lon="8.4700652"><ele>542.1666666666666</ele><time>2026-04-22T10:46:52.321Z</time></trkpt><trkpt lat="39.3875043" lon="8.4699417"><ele>543.0</ele><time>2026-04-22T10:46:54.32Z</time></trkpt><trkpt lat="39.3876844" lon="8.4697965"><ele>543.0</ele><time>2026-04-22T10:46:57.321Z</time></trkpt><trkpt lat="39.3877768" lon="8.4697431"><ele>543.0</ele><time>2026-04-22T10:46:58.321Z</time></trkpt><trkpt lat="39.3878683" lon="8.4696837"><ele>543.0</ele><time>2026-04-22T10:46:59.32Z</time></trkpt><trkpt lat="39.3879632" lon="8.469629"><ele>543.0</ele><time>2026-04-22T10:47:00.32Z</time></trkpt><trkpt lat="39.3880541" lon="8.4695721"><ele>543.0</ele><time>2026-04-22T10:47:01.321Z</time></trkpt><trkpt lat="39.3881331" lon="8.4695234"><ele>543.5</ele><time>2026-04-22T10:47:02.321Z</time></trkpt><trkpt lat="39.3882055" lon="8.4694858"><ele>544.0</ele><time>2026-04-22T10:47:03.321Z</time></trkpt><trkpt lat="39.3882732" lon="8.4694624"><ele>544.5</ele><time>2026-04-22T10:47:04.32Z</time></trkpt><trkpt lat="39.3883492" lon="8.4694529"><ele>545.0</ele><time>2026-04-22T10:47:05.32Z</time></trkpt><trkpt lat="39.3884254" lon="8.4694598"><ele>545.5</ele><time>2026-04-22T10:47:06.321Z</time></trkpt><trkpt lat="39.3885025" lon="8.4694782"><ele>546.0</ele><time>2026-04-22T10:47:07.321Z</time></trkpt><trkpt lat="39.3885796" lon="8.469517"><ele>546.0</ele><time>2026-04-22T10:47:08.321Z</time></trkpt><trkpt lat="39.3886607" lon="8.4695691"><ele>546.0</ele><time>2026-04-22T10:47:09.321Z</time></trkpt><trkpt lat="39.3887453" lon="8.469628"><ele>546.0</ele><time>2026-04-22T10:47:10.321Z</time></trkpt><trkpt lat="39.3888226" lon="8.4696904"><ele>546.0</ele><time>2026-04-22T10:47:11.321Z</time></trkpt><trkpt lat="39.3888895" lon="8.4697607"><ele>546.0</ele><time>2026-04-22T10:47:12.321Z</time></trkpt><trkpt lat="39.3889469" lon="8.469828"><ele>546.0</ele><time>2026-04-22T10:47:13.321Z</time></trkpt><trkpt lat="39.389001" lon="8.4698815"><ele>541.2</ele><time>2026-04-22T10:47:14.32Z</time></trkpt><trkpt lat="39.3891253" lon="8.4699282"><ele>536.4000000000001</ele><time>2026-04-22T10:47:16.321Z</time></trkpt><trkpt lat="39.389271" lon="8.469905"><ele>531.6</ele><time>2026-04-22T10:47:18.321Z</time></trkpt><trkpt lat="39.3893419" lon="8.4698727"><ele>526.8000000000001</ele><time>2026-04-22T10:47:19.321Z</time></trkpt><trkpt lat="39.3894036" lon="8.4698114"><ele>522.0</ele><time>2026-04-22T10:47:20.321Z</time></trkpt><trkpt lat="39.3894523" lon="8.469735"><ele>522.0</ele><time>2026-04-22T10:47:21.321Z</time></trkpt><trkpt lat="39.3894849" lon="8.4696487"><ele>522.0</ele><time>2026-04-22T10:47:22.321Z</time></trkpt><trkpt lat="39.3895073" lon="8.4695411"><ele>522.0</ele><time>2026-04-22T10:47:23.32Z</time></trkpt><trkpt lat="39.3895334" lon="8.4694158"><ele>522.0</ele><time>2026-04-22T10:47:24.321Z</time></trkpt><trkpt lat="39.3895685" lon="8.4692878"><ele>522.0</ele><time>2026-04-22T10:47:25.321Z</time></trkpt><trkpt lat="39.3896039" lon="8.4691723"><ele>522.3333333333334</ele><time>2026-04-22T10:47:26.32Z</time></trkpt><trkpt lat="39.389639" lon="8.4690666"><ele>522.6666666666666</ele><time>2026-04-22T10:47:27.321Z</time></trkpt><trkpt lat="39.3896728" lon="8.4689672"><ele>523.0</ele><time>2026-04-22T10:47:28.321Z</time></trkpt><trkpt lat="39.3897167" lon="8.4688741"><ele>523.3333333333333</ele><time>2026-04-22T10:47:29.321Z</time></trkpt><trkpt lat="39.3897647" lon="8.4687834"><ele>523.6666666666666</ele><time>2026-04-22T10:47:30.321Z</time></trkpt><trkpt lat="39.389797" lon="8.4686994"><ele>524.0</ele><time>2026-04-22T10:47:31.32Z</time></trkpt><trkpt lat="39.3898269" lon="8.468624"><ele>526.25</ele><time>2026-04-22T10:47:32.321Z</time></trkpt><trkpt lat="39.3898848" lon="8.4685263"><ele>528.5</ele><time>2026-04-22T10:47:34.321Z</time></trkpt><trkpt lat="39.3899774" lon="8.4684879"><ele>530.75</ele><time>2026-04-22T10:47:36.321Z</time></trkpt><trkpt lat="39.3900884" lon="8.4684385"><ele>533.0</ele><time>2026-04-22T10:47:38.321Z</time></trkpt><trkpt lat="39.3901099" lon="8.4682453"><ele>533.0</ele><time>2026-04-22T10:47:42.32Z</time></trkpt><trkpt lat="39.3900025" lon="8.4682097"><ele>533.0</ele><time>2026-04-22T10:47:44.319Z</time></trkpt><trkpt lat="39.389937" lon="8.468203"><ele>533.0</ele><time>2026-04-22T10:47:45.319Z</time></trkpt><trkpt lat="39.3898266" lon="8.4681949"><ele>533.0</ele><time>2026-04-22T10:47:47.32Z</time></trkpt><trkpt lat="39.3897333" lon="8.4681702"><ele>533.0</ele><time>2026-04-22T10:47:49.32Z</time></trkpt><trkpt lat="39.3896241" lon="8.4681027"><ele>534.3333333333333</ele><time>2026-04-22T10:47:51.319Z</time></trkpt><trkpt lat="39.3895468" lon="8.4680529"><ele>535.6666666666666</ele><time>2026-04-22T10:47:52.32Z</time></trkpt><trkpt lat="39.3894659" lon="8.4680015"><ele>537.0</ele><time>2026-04-22T10:47:53.319Z</time></trkpt><trkpt lat="39.3893902" lon="8.4679508"><ele>538.3333333333334</ele><time>2026-04-22T10:47:54.32Z</time></trkpt><trkpt lat="39.3893196" lon="8.4678962"><ele>539.6666666666667</ele><time>2026-04-22T10:47:55.32Z</time></trkpt><trkpt lat="39.3892572" lon="8.467838"><ele>541.0</ele><time>2026-04-22T10:47:56.319Z</time></trkpt><trkpt lat="39.3891782" lon="8.4677415"><ele>536.0</ele><time>2026-04-22T10:47:58.32Z</time></trkpt><trkpt lat="39.3891866" lon="8.4676603"><ele>531.0</ele><time>2026-04-22T10:48:00.32Z</time></trkpt><trkpt lat="39.3893912" lon="8.4677163"><ele>526.0</ele><time>2026-04-22T10:48:04.32Z</time></trkpt><trkpt lat="39.3893951" lon="8.467623"><ele>521.0</ele><time>2026-04-22T10:48:07.32Z</time></trkpt><trkpt lat="39.3892896" lon="8.467546"><ele>521.0</ele><time>2026-04-22T10:48:09.319Z</time></trkpt><trkpt lat="39.3892305" lon="8.4675068"><ele>521.0</ele><time>2026-04-22T10:48:10.319Z</time></trkpt><trkpt lat="39.3891628" lon="8.4674639"><ele>521.0</ele><time>2026-04-22T10:48:11.32Z</time></trkpt><trkpt lat="39.3890886" lon="8.4674191"><ele>521.0</ele><time>2026-04-22T10:48:12.319Z</time></trkpt><trkpt lat="39.3890088" lon="8.4673841"><ele>521.0</ele><time>2026-04-22T10:48:13.319Z</time></trkpt><trkpt lat="39.3889317" lon="8.4673683"><ele>521.0</ele><time>2026-04-22T10:48:14.319Z</time></trkpt><trkpt lat="39.3888525" lon="8.4673718"><ele>521.0</ele><time>2026-04-22T10:48:15.32Z</time></trkpt><trkpt lat="39.3887883" lon="8.4673894"><ele>521.0</ele><time>2026-04-22T10:48:16.32Z</time></trkpt><trkpt lat="39.3886991" lon="8.4674434"><ele>521.0</ele><time>2026-04-22T10:48:18.32Z</time></trkpt><trkpt lat="39.3887489" lon="8.4673397"><ele>521.0</ele><time>2026-04-22T10:48:24.32Z</time></trkpt><trkpt lat="39.3889185" lon="8.4673015"><ele>521.0</ele><time>2026-04-22T10:48:26.32Z</time></trkpt><trkpt lat="39.3890163" lon="8.4672833"><ele>521.0</ele><time>2026-04-22T10:48:27.32Z</time></trkpt><trkpt lat="39.3891166" lon="8.4672719"><ele>521.0</ele><time>2026-04-22T10:48:28.32Z</time></trkpt><trkpt lat="39.389212" lon="8.4672677"><ele>521.0</ele><time>2026-04-22T10:48:29.32Z</time></trkpt><trkpt lat="39.3892843" lon="8.4672703"><ele>521.0</ele><time>2026-04-22T10:48:30.32Z</time></trkpt><trkpt lat="39.38937" lon="8.4672416"><ele>521.0</ele><time>2026-04-22T10:48:32.32Z</time></trkpt><trkpt lat="39.3893749" lon="8.4671462"><ele>521.0</ele><time>2026-04-22T10:48:34.32Z</time></trkpt><trkpt lat="39.3892795" lon="8.4670862"><ele>519.0</ele><time>2026-04-22T10:48:36.32Z</time></trkpt><trkpt lat="39.3892068" lon="8.4670834"><ele>517.0</ele><time>2026-04-22T10:48:37.32Z</time></trkpt><trkpt lat="39.3891262" lon="8.4670932"><ele>515.0</ele><time>2026-04-22T10:48:38.319Z</time></trkpt><trkpt lat="39.3890409" lon="8.4670983"><ele>513.0</ele><time>2026-04-22T10:48:39.319Z</time></trkpt><trkpt lat="39.3889555" lon="8.467083"><ele>510.99999999999994</ele><time>2026-04-22T10:48:40.32Z</time></trkpt><trkpt lat="39.3888758" lon="8.4670661"><ele>509.0</ele><time>2026-04-22T10:48:41.319Z</time></trkpt><trkpt lat="39.3887912" lon="8.4670668"><ele>506.79999999999995</ele><time>2026-04-22T10:48:42.319Z</time></trkpt><trkpt lat="39.3887056" lon="8.4670757"><ele>504.59999999999997</ele><time>2026-04-22T10:48:43.319Z</time></trkpt><trkpt lat="39.38863" lon="8.4670858"><ele>502.4</ele><time>2026-04-22T10:48:44.32Z</time></trkpt><trkpt lat="39.3885611" lon="8.4670954"><ele>500.2</ele><time>2026-04-22T10:48:45.319Z</time></trkpt><trkpt lat="39.3883779" lon="8.4670802"><ele>498.0</ele><time>2026-04-22T10:48:48.32Z</time></trkpt><trkpt lat="39.3882671" lon="8.4669721"><ele>498.0</ele><time>2026-04-22T10:48:50.319Z</time></trkpt><trkpt lat="39.3881913" lon="8.466891"><ele>497.99999999999994</ele><time>2026-04-22T10:48:51.319Z</time></trkpt><trkpt lat="39.3881013" lon="8.4668029"><ele>497.99999999999994</ele><time>2026-04-22T10:48:52.32Z</time></trkpt><trkpt lat="39.3880044" lon="8.4667213"><ele>498.0</ele><time>2026-04-22T10:48:53.32Z</time></trkpt><trkpt lat="39.3879118" lon="8.4666446"><ele>498.0</ele><time>2026-04-22T10:48:54.32Z</time></trkpt><trkpt lat="39.387825" lon="8.4665714"><ele>501.0</ele><time>2026-04-22T10:48:55.319Z</time></trkpt><trkpt lat="39.3877504" lon="8.4665032"><ele>503.99999999999994</ele><time>2026-04-22T10:48:56.319Z</time></trkpt><trkpt lat="39.3876801" lon="8.4664418"><ele>506.99999999999994</ele><time>2026-04-22T10:48:57.32Z</time></trkpt><trkpt lat="39.3875961" lon="8.4663806"><ele>510.0</ele><time>2026-04-22T10:48:58.319Z</time></trkpt><trkpt lat="39.387508" lon="8.4663204"><ele>513.0</ele><time>2026-04-22T10:48:59.32Z</time></trkpt><trkpt lat="39.3874189" lon="8.4662696"><ele>508.0</ele><time>2026-04-22T10:49:00.319Z</time></trkpt><trkpt lat="39.3873323" lon="8.4662183"><ele>503.0</ele><time>2026-04-22T10:49:01.319Z</time></trkpt><trkpt lat="39.3872482" lon="8.4661736"><ele>498.0</ele><time>2026-04-22T10:49:02.32Z</time></trkpt><trkpt lat="39.3871647" lon="8.4661368"><ele>493.0</ele><time>2026-04-22T10:49:03.32Z</time></trkpt><trkpt lat="39.3870764" lon="8.466098"><ele>488.0</ele><time>2026-04-22T10:49:04.32Z</time></trkpt><trkpt lat="39.3869958" lon="8.4660823"><ele>483.0</ele><time>2026-04-22T10:49:05.32Z</time></trkpt><trkpt lat="39.3869197" lon="8.4660743"><ele>482.5</ele><time>2026-04-22T10:49:06.32Z</time></trkpt><trkpt lat="39.3867761" lon="8.4660882"><ele>482.0</ele><time>2026-04-22T10:49:08.32Z</time></trkpt><trkpt lat="39.386711" lon="8.4661006"><ele>481.5</ele><time>2026-04-22T10:49:09.32Z</time></trkpt><trkpt lat="39.3866451" lon="8.4661362"><ele>481.0</ele><time>2026-04-22T10:49:10.32Z</time></trkpt><trkpt lat="39.386575" lon="8.4661841"><ele>480.5</ele><time>2026-04-22T10:49:11.319Z</time></trkpt><trkpt lat="39.3865064" lon="8.4662542"><ele>480.0</ele><time>2026-04-22T10:49:12.32Z</time></trkpt><trkpt lat="39.3864341" lon="8.4663291"><ele>482.3333333333333</ele><time>2026-04-22T10:49:13.32Z</time></trkpt><trkpt lat="39.3863704" lon="8.4664062"><ele>484.66666666666663</ele><time>2026-04-22T10:49:14.319Z</time></trkpt><trkpt lat="39.3863137" lon="8.4664895"><ele>487.0</ele><time>2026-04-22T10:49:15.32Z</time></trkpt><trkpt lat="39.3862562" lon="8.4665669"><ele>489.3333333333333</ele><time>2026-04-22T10:49:16.32Z</time></trkpt><trkpt lat="39.3862031" lon="8.4666423"><ele>491.66666666666663</ele><time>2026-04-22T10:49:17.32Z</time></trkpt><trkpt lat="39.3861586" lon="8.4667224"><ele>494.0</ele><time>2026-04-22T10:49:18.32Z</time></trkpt><trkpt lat="39.3861255" lon="8.4667971"><ele>494.0</ele><time>2026-04-22T10:49:19.32Z</time></trkpt><trkpt lat="39.3860486" lon="8.4668972"><ele>494.0</ele><time>2026-04-22T10:49:21.32Z</time></trkpt><trkpt lat="39.3859738" lon="8.4668818"><ele>494.0</ele><time>2026-04-22T10:49:23.319Z</time></trkpt><trkpt lat="39.3859232" lon="8.4668121"><ele>494.0</ele><time>2026-04-22T10:49:24.32Z</time></trkpt><trkpt lat="39.3858614" lon="8.466697"><ele>494.0</ele><time>2026-04-22T10:49:25.319Z</time></trkpt><trkpt lat="39.3857825" lon="8.4665751"><ele>494.0</ele><time>2026-04-22T10:49:26.32Z</time></trkpt><trkpt lat="39.3857142" lon="8.4664572"><ele>494.0</ele><time>2026-04-22T10:49:27.32Z</time></trkpt><trkpt lat="39.3855907" lon="8.4663246"><ele>494.0</ele><time>2026-04-22T10:49:29.319Z</time></trkpt><trkpt lat="39.3855058" lon="8.4662868"><ele>494.0</ele><time>2026-04-22T10:49:31.319Z</time></trkpt><trkpt lat="39.385586" lon="8.4662227"><ele>494.0</ele><time>2026-04-22T10:49:35.32Z</time></trkpt><trkpt lat="39.3857104" lon="8.4662938"><ele>494.0</ele><time>2026-04-22T10:49:37.32Z</time></trkpt><trkpt lat="39.3857912" lon="8.4663655"><ele>494.0</ele><time>2026-04-22T10:49:38.319Z</time></trkpt><trkpt lat="39.3858612" lon="8.4664393"><ele>494.0</ele><time>2026-04-22T10:49:39.319Z</time></trkpt><trkpt lat="39.3859106" lon="8.4665011"><ele>494.0</ele><time>2026-04-22T10:49:40.319Z</time></trkpt><trkpt lat="39.3859782" lon="8.4665822"><ele>494.0</ele><time>2026-04-22T10:49:42.319Z</time></trkpt><trkpt lat="39.3860489" lon="8.4665551"><ele>494.0</ele><time>2026-04-22T10:49:44.319Z</time></trkpt><trkpt lat="39.386111" lon="8.4664173"><ele>494.0</ele><time>2026-04-22T10:49:46.319Z</time></trkpt><trkpt lat="39.3861441" lon="8.4663224"><ele>494.0</ele><time>2026-04-22T10:49:47.319Z</time></trkpt><trkpt lat="39.3861789" lon="8.4662109"><ele>494.0</ele><time>2026-04-22T10:49:48.32Z</time></trkpt><trkpt lat="39.3862661" lon="8.4660012"><ele>491.66666666666663</ele><time>2026-04-22T10:49:50.32Z</time></trkpt><trkpt lat="39.3863068" lon="8.4659044"><ele>489.3333333333333</ele><time>2026-04-22T10:49:51.32Z</time></trkpt><trkpt lat="39.3863412" lon="8.4658026"><ele>487.0</ele><time>2026-04-22T10:49:52.32Z</time></trkpt><trkpt lat="39.3863812" lon="8.4657163"><ele>484.66666666666663</ele><time>2026-04-22T10:49:53.32Z</time></trkpt><trkpt lat="39.3864279" lon="8.4656397"><ele>482.3333333333333</ele><time>2026-04-22T10:49:54.32Z</time></trkpt><trkpt lat="39.3864809" lon="8.4655787"><ele>480.0</ele><time>2026-04-22T10:49:55.319Z</time></trkpt><trkpt lat="39.3865494" lon="8.4655291"><ele>480.0</ele><time>2026-04-22T10:49:56.32Z</time></trkpt><trkpt lat="39.386623" lon="8.4654833"><ele>480.0</ele><time>2026-04-22T10:49:57.319Z</time></trkpt><trkpt lat="39.3867002" lon="8.4654415"><ele>480.0</ele><time>2026-04-22T10:49:58.32Z</time></trkpt><trkpt lat="39.3867763" lon="8.4654175"><ele>480.0</ele><time>2026-04-22T10:49:59.32Z</time></trkpt><trkpt lat="39.386851" lon="8.4654091"><ele>480.0</ele><time>2026-04-22T10:50:00.32Z</time></trkpt><trkpt lat="39.3869329" lon="8.4654126"><ele>480.0</ele><time>2026-04-22T10:50:01.32Z</time></trkpt><trkpt lat="39.3870141" lon="8.4654208"><ele>480.5</ele><time>2026-04-22T10:50:02.319Z</time></trkpt><trkpt lat="39.387095" lon="8.4654345"><ele>481.0</ele><time>2026-04-22T10:50:03.32Z</time></trkpt><trkpt lat="39.3871782" lon="8.4654494"><ele>481.5</ele><time>2026-04-22T10:50:04.319Z</time></trkpt><trkpt lat="39.3872617" lon="8.4654664"><ele>482.0</ele><time>2026-04-22T10:50:05.32Z</time></trkpt><trkpt lat="39.3873427" lon="8.4654744"><ele>482.5</ele><time>2026-04-22T10:50:06.32Z</time></trkpt><trkpt lat="39.3874178" lon="8.4654747"><ele>483.0</ele><time>2026-04-22T10:50:07.32Z</time></trkpt><trkpt lat="39.3874857" lon="8.4654757"><ele>483.0</ele><time>2026-04-22T10:50:08.32Z</time></trkpt><trkpt lat="39.3876046" lon="8.4654965"><ele>483.0</ele><time>2026-04-22T10:50:10.32Z</time></trkpt><trkpt lat="39.3877693" lon="8.4654291"><ele>483.0</ele><time>2026-04-22T10:50:14.32Z</time></trkpt><trkpt lat="39.3877076" lon="8.4652982"><ele>483.0</ele><time>2026-04-22T10:50:16.32Z</time></trkpt><trkpt lat="39.3876439" lon="8.4652553"><ele>477.79999999999995</ele><time>2026-04-22T10:50:17.32Z</time></trkpt><trkpt lat="39.3875634" lon="8.465224"><ele>472.59999999999997</ele><time>2026-04-22T10:50:18.32Z</time></trkpt><trkpt lat="39.3874729" lon="8.4652133"><ele>467.40000000000003</ele><time>2026-04-22T10:50:19.319Z</time></trkpt><trkpt lat="39.3873718" lon="8.465204"><ele>462.20000000000005</ele><time>2026-04-22T10:50:20.32Z</time></trkpt><trkpt lat="39.3872661" lon="8.4651848"><ele>457.0</ele><time>2026-04-22T10:50:21.32Z</time></trkpt><trkpt lat="39.3871642" lon="8.4651704"><ele>456.0</ele><time>2026-04-22T10:50:22.32Z</time></trkpt><trkpt lat="39.3870603" lon="8.4651462"><ele>455.00000000000006</ele><time>2026-04-22T10:50:23.32Z</time></trkpt><trkpt lat="39.386964" lon="8.4651317"><ele>454.00000000000006</ele><time>2026-04-22T10:50:24.319Z</time></trkpt><trkpt lat="39.3868658" lon="8.4651138"><ele>453.0</ele><time>2026-04-22T10:50:25.319Z</time></trkpt><trkpt lat="39.3867741" lon="8.4650925"><ele>452.0</ele><time>2026-04-22T10:50:26.32Z</time></trkpt><trkpt lat="39.3866853" lon="8.4650849"><ele>452.0</ele><time>2026-04-22T10:50:27.319Z</time></trkpt><trkpt lat="39.3865968" lon="8.4650858"><ele>452.00000000000006</ele><time>2026-04-22T10:50:28.319Z</time></trkpt><trkpt lat="39.3865104" lon="8.4650849"><ele>452.00000000000006</ele><time>2026-04-22T10:50:29.32Z</time></trkpt><trkpt lat="39.3864221" lon="8.4650917"><ele>452.0</ele><time>2026-04-22T10:50:30.32Z</time></trkpt><trkpt lat="39.3863298" lon="8.4650996"><ele>452.0</ele><time>2026-04-22T10:50:31.319Z</time></trkpt><trkpt lat="39.3861487" lon="8.4651186"><ele>450.40000000000003</ele><time>2026-04-22T10:50:33.32Z</time></trkpt><trkpt lat="39.3860545" lon="8.46514"><ele>448.80000000000007</ele><time>2026-04-22T10:50:34.32Z</time></trkpt><trkpt lat="39.3859582" lon="8.4651718"><ele>447.2</ele><time>2026-04-22T10:50:35.32Z</time></trkpt><trkpt lat="39.3858704" lon="8.4652096"><ele>445.6</ele><time>2026-04-22T10:50:36.32Z</time></trkpt><trkpt lat="39.3857879" lon="8.4652495"><ele>444.0</ele><time>2026-04-22T10:50:37.319Z</time></trkpt><trkpt lat="39.3857082" lon="8.4652846"><ele>444.0</ele><time>2026-04-22T10:50:38.32Z</time></trkpt><trkpt lat="39.3856279" lon="8.4653122"><ele>444.0</ele><time>2026-04-22T10:50:39.32Z</time></trkpt><trkpt lat="39.3855486" lon="8.465327"><ele>444.0</ele><time>2026-04-22T10:50:40.32Z</time></trkpt><trkpt lat="39.3854802" lon="8.4653222"><ele>444.0</ele><time>2026-04-22T10:50:41.32Z</time></trkpt><trkpt lat="39.3853546" lon="8.4653414"><ele>444.0</ele><time>2026-04-22T10:50:43.32Z</time></trkpt><trkpt lat="39.385285" lon="8.4653845"><ele>444.0</ele><time>2026-04-22T10:50:44.319Z</time></trkpt><trkpt lat="39.3852154" lon="8.4654505"><ele>446.1666666666667</ele><time>2026-04-22T10:50:45.319Z</time></trkpt><trkpt lat="39.3851451" lon="8.46552"><ele>448.33333333333337</ele><time>2026-04-22T10:50:46.319Z</time></trkpt><trkpt lat="39.3850792" lon="8.4655783"><ele>450.5</ele><time>2026-04-22T10:50:47.319Z</time></trkpt><trkpt lat="39.3850167" lon="8.4656357"><ele>452.6666666666667</ele><time>2026-04-22T10:50:48.32Z</time></trkpt><trkpt lat="39.3849634" lon="8.4656814"><ele>454.83333333333337</ele><time>2026-04-22T10:50:49.319Z</time></trkpt><trkpt lat="39.384864" lon="8.4657032"><ele>457.0</ele><time>2026-04-22T10:50:51.32Z</time></trkpt><trkpt lat="39.3847969" lon="8.4656131"><ele>454.33333333333337</ele><time>2026-04-22T10:50:53.32Z</time></trkpt><trkpt lat="39.3847857" lon="8.4654379"><ele>451.6666666666667</ele><time>2026-04-22T10:50:55.32Z</time></trkpt><trkpt lat="39.3848017" lon="8.465355"><ele>449.0</ele><time>2026-04-22T10:50:56.319Z</time></trkpt><trkpt lat="39.3848178" lon="8.4652665"><ele>446.33333333333337</ele><time>2026-04-22T10:50:57.32Z</time></trkpt><trkpt lat="39.3848305" lon="8.4651608"><ele>443.6666666666667</ele><time>2026-04-22T10:50:58.32Z</time></trkpt><trkpt lat="39.3848394" lon="8.465048"><ele>441.0</ele><time>2026-04-22T10:50:59.32Z</time></trkpt><trkpt lat="39.3848458" lon="8.4649436"><ele>441.0</ele><time>2026-04-22T10:51:00.32Z</time></trkpt><trkpt lat="39.3848554" lon="8.4648436"><ele>441.0</ele><time>2026-04-22T10:51:01.319Z</time></trkpt><trkpt lat="39.3848687" lon="8.464745"><ele>441.0</ele><time>2026-04-22T10:51:02.32Z</time></trkpt><trkpt lat="39.3848885" lon="8.4646477"><ele>441.0</ele><time>2026-04-22T10:51:03.319Z</time></trkpt><trkpt lat="39.3849079" lon="8.4645441"><ele>441.0</ele><time>2026-04-22T10:51:04.32Z</time></trkpt><trkpt lat="39.3849198" lon="8.4644349"><ele>441.0</ele><time>2026-04-22T10:51:05.32Z</time></trkpt><trkpt lat="39.384927" lon="8.4643228"><ele>439.20000000000005</ele><time>2026-04-22T10:51:06.32Z</time></trkpt><trkpt lat="39.3849277" lon="8.4642101"><ele>437.40000000000003</ele><time>2026-04-22T10:51:07.319Z</time></trkpt><trkpt lat="39.3849151" lon="8.464095"><ele>435.6</ele><time>2026-04-22T10:51:08.319Z</time></trkpt><trkpt lat="39.3849086" lon="8.4639757"><ele>433.8</ele><time>2026-04-22T10:51:09.319Z</time></trkpt><trkpt lat="39.3849022" lon="8.4638533"><ele>432.0</ele><time>2026-04-22T10:51:10.32Z</time></trkpt><trkpt lat="39.3849006" lon="8.4637375"><ele>430.25</ele><time>2026-04-22T10:51:11.32Z</time></trkpt><trkpt lat="39.3848956" lon="8.4636157"><ele>428.5</ele><time>2026-04-22T10:51:12.32Z</time></trkpt><trkpt lat="39.3848868" lon="8.4634895"><ele>426.75</ele><time>2026-04-22T10:51:13.32Z</time></trkpt><trkpt lat="39.384873" lon="8.4633658"><ele>425.0</ele><time>2026-04-22T10:51:14.32Z</time></trkpt><trkpt lat="39.3848483" lon="8.463123"><ele>425.0</ele><time>2026-04-22T10:51:16.32Z</time></trkpt><trkpt lat="39.3848441" lon="8.4630101"><ele>425.0</ele><time>2026-04-22T10:51:17.32Z</time></trkpt><trkpt lat="39.3848426" lon="8.4628879"><ele>425.0</ele><time>2026-04-22T10:51:18.319Z</time></trkpt><trkpt lat="39.3848414" lon="8.4627632"><ele>425.0</ele><time>2026-04-22T10:51:19.319Z</time></trkpt><trkpt lat="39.3848385" lon="8.4626415"><ele>425.0</ele><time>2026-04-22T10:51:20.32Z</time></trkpt><trkpt lat="39.3848345" lon="8.4625248"><ele>423.3333333333333</ele><time>2026-04-22T10:51:21.32Z</time></trkpt><trkpt lat="39.3848263" lon="8.4624101"><ele>421.66666666666663</ele><time>2026-04-22T10:51:22.32Z</time></trkpt><trkpt lat="39.3848165" lon="8.4622978"><ele>420.0</ele><time>2026-04-22T10:51:23.32Z</time></trkpt><trkpt lat="39.3848119" lon="8.4621873"><ele>418.33333333333337</ele><time>2026-04-22T10:51:24.32Z</time></trkpt><trkpt lat="39.3848047" lon="8.4620768"><ele>416.6666666666667</ele><time>2026-04-22T10:51:25.32Z</time></trkpt><trkpt lat="39.3847863" lon="8.4619733"><ele>415.0</ele><time>2026-04-22T10:51:26.319Z</time></trkpt><trkpt lat="39.3847514" lon="8.4618635"><ele>415.6</ele><time>2026-04-22T10:51:27.32Z</time></trkpt><trkpt lat="39.3847004" lon="8.4617492"><ele>416.2</ele><time>2026-04-22T10:51:28.319Z</time></trkpt><trkpt lat="39.3846438" lon="8.4616352"><ele>416.79999999999995</ele><time>2026-04-22T10:51:29.319Z</time></trkpt><trkpt lat="39.3845816" lon="8.4615202"><ele>417.4</ele><time>2026-04-22T10:51:30.32Z</time></trkpt><trkpt lat="39.384526" lon="8.46141"><ele>418.0</ele><time>2026-04-22T10:51:31.32Z</time></trkpt><trkpt lat="39.3844759" lon="8.4613074"><ele>414.0</ele><time>2026-04-22T10:51:32.32Z</time></trkpt><trkpt lat="39.3844244" lon="8.4612062"><ele>410.0</ele><time>2026-04-22T10:51:33.32Z</time></trkpt><trkpt lat="39.3843675" lon="8.4611033"><ele>406.0</ele><time>2026-04-22T10:51:34.319Z</time></trkpt><trkpt lat="39.3843093" lon="8.461003"><ele>402.0</ele><time>2026-04-22T10:51:35.32Z</time></trkpt><trkpt lat="39.3842077" lon="8.4608295"><ele>402.0</ele><time>2026-04-22T10:51:37.32Z</time></trkpt><trkpt lat="39.3841484" lon="8.4607502"><ele>402.0</ele><time>2026-04-22T10:51:38.32Z</time></trkpt><trkpt lat="39.3840818" lon="8.4606625"><ele>402.0</ele><time>2026-04-22T10:51:39.32Z</time></trkpt><trkpt lat="39.3840117" lon="8.4605681"><ele>402.0</ele><time>2026-04-22T10:51:40.32Z</time></trkpt><trkpt lat="39.3839464" lon="8.4604726"><ele>402.0</ele><time>2026-04-22T10:51:41.32Z</time></trkpt><trkpt lat="39.383884" lon="8.460378"><ele>401.5</ele><time>2026-04-22T10:51:42.32Z</time></trkpt><trkpt lat="39.3838158" lon="8.460278"><ele>401.0</ele><time>2026-04-22T10:51:43.32Z</time></trkpt><trkpt lat="39.3837471" lon="8.4601648"><ele>400.5</ele><time>2026-04-22T10:51:44.32Z</time></trkpt><trkpt lat="39.383673" lon="8.4600454"><ele>400.0</ele><time>2026-04-22T10:51:45.32Z</time></trkpt><trkpt lat="39.3835919" lon="8.4599276"><ele>400.0</ele><time>2026-04-22T10:51:46.32Z</time></trkpt><trkpt lat="39.3835094" lon="8.4598053"><ele>400.0</ele><time>2026-04-22T10:51:47.32Z</time></trkpt><trkpt lat="39.3834211" lon="8.4596816"><ele>400.0</ele><time>2026-04-22T10:51:48.319Z</time></trkpt><trkpt lat="39.3833344" lon="8.4595681"><ele>400.0</ele><time>2026-04-22T10:51:49.32Z</time></trkpt><trkpt lat="39.3832595" lon="8.4594625"><ele>399.6</ele><time>2026-04-22T10:51:50.319Z</time></trkpt><trkpt lat="39.3831912" lon="8.4593601"><ele>399.2</ele><time>2026-04-22T10:51:51.32Z</time></trkpt><trkpt lat="39.3831365" lon="8.4592585"><ele>398.79999999999995</ele><time>2026-04-22T10:51:52.319Z</time></trkpt><trkpt lat="39.3830894" lon="8.4591529"><ele>398.4</ele><time>2026-04-22T10:51:53.319Z</time></trkpt><trkpt lat="39.3830323" lon="8.4590415"><ele>398.0</ele><time>2026-04-22T10:51:54.319Z</time></trkpt><trkpt lat="39.3829653" lon="8.4589235"><ele>398.0</ele><time>2026-04-22T10:51:55.32Z</time></trkpt><trkpt lat="39.3828841" lon="8.4587901"><ele>398.0</ele><time>2026-04-22T10:51:56.319Z</time></trkpt><trkpt lat="39.3827064" lon="8.4584874"><ele>398.0</ele><time>2026-04-22T10:51:58.32Z</time></trkpt><trkpt lat="39.3826278" lon="8.4583421"><ele>396.2</ele><time>2026-04-22T10:51:59.319Z</time></trkpt><trkpt lat="39.3825569" lon="8.4582179"><ele>394.4</ele><time>2026-04-22T10:52:00.32Z</time></trkpt><trkpt lat="39.3824986" lon="8.4581105"><ele>392.59999999999997</ele><time>2026-04-22T10:52:01.32Z</time></trkpt><trkpt lat="39.3824471" lon="8.458022"><ele>390.79999999999995</ele><time>2026-04-22T10:52:02.319Z</time></trkpt><trkpt lat="39.3823977" lon="8.4579487"><ele>389.0</ele><time>2026-04-22T10:52:03.32Z</time></trkpt><trkpt lat="39.3823569" lon="8.4578784"><ele>389.79999999999995</ele><time>2026-04-22T10:52:04.319Z</time></trkpt><trkpt lat="39.3823005" lon="8.4577527"><ele>390.59999999999997</ele><time>2026-04-22T10:52:06.319Z</time></trkpt><trkpt lat="39.3822581" lon="8.4576275"><ele>391.4</ele><time>2026-04-22T10:52:08.32Z</time></trkpt><trkpt lat="39.3822052" lon="8.4575224"><ele>392.2</ele><time>2026-04-22T10:52:10.319Z</time></trkpt><trkpt lat="39.3821587" lon="8.4574176"><ele>393.0</ele><time>2026-04-22T10:52:12.32Z</time></trkpt><trkpt lat="39.3821259" lon="8.4573154"><ele>393.0</ele><time>2026-04-22T10:52:14.319Z</time></trkpt><trkpt lat="39.3820821" lon="8.4571985"><ele>393.0</ele><time>2026-04-22T10:52:16.32Z</time></trkpt><trkpt lat="39.3820341" lon="8.457092"><ele>393.0</ele><time>2026-04-22T10:52:18.32Z</time></trkpt><trkpt lat="39.3819428" lon="8.4569368"><ele>393.0</ele><time>2026-04-22T10:52:22.32Z</time></trkpt><trkpt lat="39.3818575" lon="8.4569165"><ele>393.0</ele><time>2026-04-22T10:52:24.32Z</time></trkpt><trkpt lat="39.3817413" lon="8.4569096"><ele>392.00000000000006</ele><time>2026-04-22T10:52:26.32Z</time></trkpt><trkpt lat="39.3816752" lon="8.4569012"><ele>391.0</ele><time>2026-04-22T10:52:27.319Z</time></trkpt><trkpt lat="39.3816036" lon="8.4568946"><ele>390.0</ele><time>2026-04-22T10:52:28.32Z</time></trkpt><trkpt lat="39.381527" lon="8.4568817"><ele>389.0</ele><time>2026-04-22T10:52:29.32Z</time></trkpt><trkpt lat="39.3814537" lon="8.4568717"><ele>388.0</ele><time>2026-04-22T10:52:30.32Z</time></trkpt><trkpt lat="39.3813823" lon="8.4568696"><ele>387.00000000000006</ele><time>2026-04-22T10:52:31.32Z</time></trkpt><trkpt lat="39.3813153" lon="8.4568604"><ele>386.0</ele><time>2026-04-22T10:52:32.32Z</time></trkpt><trkpt lat="39.3812434" lon="8.4568487"><ele>385.16666666666663</ele><time>2026-04-22T10:52:33.32Z</time></trkpt><trkpt lat="39.3811756" lon="8.4568337"><ele>384.3333333333333</ele><time>2026-04-22T10:52:34.32Z</time></trkpt><trkpt lat="39.3811042" lon="8.4568398"><ele>383.5</ele><time>2026-04-22T10:52:35.319Z</time></trkpt><trkpt lat="39.3810275" lon="8.4568599"><ele>382.66666666666663</ele><time>2026-04-22T10:52:36.319Z</time></trkpt><trkpt lat="39.3809461" lon="8.4568845"><ele>381.8333333333333</ele><time>2026-04-22T10:52:37.32Z</time></trkpt><trkpt lat="39.38086" lon="8.4569079"><ele>381.0</ele><time>2026-04-22T10:52:38.32Z</time></trkpt><trkpt lat="39.3807837" lon="8.4569315"><ele>381.0</ele><time>2026-04-22T10:52:39.32Z</time></trkpt><trkpt lat="39.3805989" lon="8.4569913"><ele>381.0</ele><time>2026-04-22T10:52:42.319Z</time></trkpt><trkpt lat="39.3804835" lon="8.457048"><ele>381.0</ele><time>2026-04-22T10:52:44.319Z</time></trkpt><trkpt lat="39.3803686" lon="8.4570711"><ele>381.0</ele><time>2026-04-22T10:52:46.32Z</time></trkpt><trkpt lat="39.3802366" lon="8.4570796"><ele>380.0</ele><time>2026-04-22T10:52:48.319Z</time></trkpt><trkpt lat="39.3801451" lon="8.4570704"><ele>379.0</ele><time>2026-04-22T10:52:49.32Z</time></trkpt><trkpt lat="39.3800533" lon="8.4570565"><ele>378.0</ele><time>2026-04-22T10:52:50.32Z</time></trkpt><trkpt lat="39.3799687" lon="8.4570354"><ele>377.0</ele><time>2026-04-22T10:52:51.32Z</time></trkpt><trkpt lat="39.3798858" lon="8.4570093"><ele>376.0</ele><time>2026-04-22T10:52:52.319Z</time></trkpt><trkpt lat="39.3797934" lon="8.4569756"><ele>376.0</ele><time>2026-04-22T10:52:53.319Z</time></trkpt><trkpt lat="39.3797011" lon="8.45695"><ele>376.0</ele><time>2026-04-22T10:52:54.32Z</time></trkpt><trkpt lat="39.3796194" lon="8.4569138"><ele>376.0</ele><time>2026-04-22T10:52:55.32Z</time></trkpt><trkpt lat="39.3795406" lon="8.4568694"><ele>376.0</ele><time>2026-04-22T10:52:56.32Z</time></trkpt><trkpt lat="39.379456" lon="8.4568165"><ele>376.0</ele><time>2026-04-22T10:52:57.32Z</time></trkpt><trkpt lat="39.3793708" lon="8.4567646"><ele>376.5</ele><time>2026-04-22T10:52:58.319Z</time></trkpt><trkpt lat="39.3792909" lon="8.4567054"><ele>377.0</ele><time>2026-04-22T10:52:59.319Z</time></trkpt><trkpt lat="39.3792064" lon="8.4566392"><ele>377.5</ele><time>2026-04-22T10:53:00.319Z</time></trkpt><trkpt lat="39.3790517" lon="8.4564971"><ele>378.0</ele><time>2026-04-22T10:53:02.319Z</time></trkpt><trkpt lat="39.3789733" lon="8.4564272"><ele>378.0</ele><time>2026-04-22T10:53:03.32Z</time></trkpt><trkpt lat="39.3788938" lon="8.4563628"><ele>378.0</ele><time>2026-04-22T10:53:04.319Z</time></trkpt><trkpt lat="39.3788114" lon="8.456316"><ele>378.0</ele><time>2026-04-22T10:53:05.32Z</time></trkpt><trkpt lat="39.3787317" lon="8.4562762"><ele>378.0</ele><time>2026-04-22T10:53:06.32Z</time></trkpt><trkpt lat="39.3786477" lon="8.4562367"><ele>378.0</ele><time>2026-04-22T10:53:07.319Z</time></trkpt><trkpt lat="39.3785626" lon="8.4561904"><ele>378.0</ele><time>2026-04-22T10:53:08.319Z</time></trkpt><trkpt lat="39.3784774" lon="8.456122"><ele>378.0</ele><time>2026-04-22T10:53:09.32Z</time></trkpt><trkpt lat="39.3783909" lon="8.4560333"><ele>378.0</ele><time>2026-04-22T10:53:10.319Z</time></trkpt><trkpt lat="39.3783042" lon="8.4559316"><ele>378.0</ele><time>2026-04-22T10:53:11.32Z</time></trkpt><trkpt lat="39.3782253" lon="8.4558406"><ele>378.0</ele><time>2026-04-22T10:53:12.319Z</time></trkpt><trkpt lat="39.3781462" lon="8.4557412"><ele>378.0</ele><time>2026-04-22T10:53:13.32Z</time></trkpt><trkpt lat="39.3780733" lon="8.4556574"><ele>378.0</ele><time>2026-04-22T10:53:14.319Z</time></trkpt><trkpt lat="39.3780095" lon="8.4555834"><ele>378.0</ele><time>2026-04-22T10:53:15.32Z</time></trkpt><trkpt lat="39.3779458" lon="8.4555041"><ele>378.0</ele><time>2026-04-22T10:53:16.319Z</time></trkpt><trkpt lat="39.3778821" lon="8.4554098"><ele>378.0</ele><time>2026-04-22T10:53:17.32Z</time></trkpt><trkpt lat="39.3778235" lon="8.4553177"><ele>376.59999999999997</ele><time>2026-04-22T10:53:18.32Z</time></trkpt><trkpt lat="39.3777697" lon="8.4552423"><ele>375.2</ele><time>2026-04-22T10:53:19.32Z</time></trkpt><trkpt lat="39.3777156" lon="8.4551693"><ele>373.8</ele><time>2026-04-22T10:53:20.32Z</time></trkpt><trkpt lat="39.3776633" lon="8.4551091"><ele>372.4</ele><time>2026-04-22T10:53:21.319Z</time></trkpt><trkpt lat="39.3774602" lon="8.4549963"><ele>371.0</ele><time>2026-04-22T10:53:24.319Z</time></trkpt><trkpt lat="39.3773907" lon="8.4549602"><ele>371.0</ele><time>2026-04-22T10:53:25.319Z</time></trkpt><trkpt lat="39.3773214" lon="8.4549238"><ele>371.0</ele><time>2026-04-22T10:53:26.32Z</time></trkpt><trkpt lat="39.3772468" lon="8.4548953"><ele>371.0</ele><time>2026-04-22T10:53:27.319Z</time></trkpt><trkpt lat="39.3771654" lon="8.4548837"><ele>371.0</ele><time>2026-04-22T10:53:28.319Z</time></trkpt><trkpt lat="39.3770815" lon="8.4548709"><ele>371.0</ele><time>2026-04-22T10:53:29.32Z</time></trkpt><trkpt lat="39.3769989" lon="8.4548393"><ele>371.0</ele><time>2026-04-22T10:53:30.32Z</time></trkpt><trkpt lat="39.3769158" lon="8.4547918"><ele>371.33333333333337</ele><time>2026-04-22T10:53:31.319Z</time></trkpt><trkpt lat="39.3768341" lon="8.454739"><ele>371.6666666666667</ele><time>2026-04-22T10:53:32.32Z</time></trkpt><trkpt lat="39.3767486" lon="8.4546993"><ele>372.0</ele><time>2026-04-22T10:53:33.319Z</time></trkpt><trkpt lat="39.3766715" lon="8.4546646"><ele>372.3333333333333</ele><time>2026-04-22T10:53:34.32Z</time></trkpt><trkpt lat="39.3765997" lon="8.4546208"><ele>372.66666666666663</ele><time>2026-04-22T10:53:35.32Z</time></trkpt><trkpt lat="39.3765355" lon="8.4545722"><ele>373.0</ele><time>2026-04-22T10:53:36.32Z</time></trkpt><trkpt lat="39.376473" lon="8.4545009"><ele>374.0</ele><time>2026-04-22T10:53:37.32Z</time></trkpt><trkpt lat="39.3764062" lon="8.4544052"><ele>375.0</ele><time>2026-04-22T10:53:38.32Z</time></trkpt><trkpt lat="39.3763344" lon="8.4543014"><ele>376.0</ele><time>2026-04-22T10:53:39.32Z</time></trkpt><trkpt lat="39.376266" lon="8.4542071"><ele>377.0</ele><time>2026-04-22T10:53:40.319Z</time></trkpt><trkpt lat="39.376205" lon="8.4541329"><ele>378.0</ele><time>2026-04-22T10:53:41.319Z</time></trkpt><trkpt lat="39.3761551" lon="8.4540759"><ele>378.0</ele><time>2026-04-22T10:53:42.32Z</time></trkpt><trkpt lat="39.3759923" lon="8.4538432"><ele>378.0</ele><time>2026-04-22T10:53:46.32Z</time></trkpt><trkpt lat="39.3759335" lon="8.4537907"><ele>378.0</ele><time>2026-04-22T10:53:47.32Z</time></trkpt><trkpt lat="39.3758803" lon="8.4537305"><ele>378.0</ele><time>2026-04-22T10:53:48.32Z</time></trkpt><trkpt lat="39.3758325" lon="8.4536672"><ele>377.8333333333333</ele><time>2026-04-22T10:53:49.319Z</time></trkpt><trkpt lat="39.3757832" lon="8.4536032"><ele>377.6666666666667</ele><time>2026-04-22T10:53:50.319Z</time></trkpt><trkpt lat="39.3757309" lon="8.4535393"><ele>377.5</ele><time>2026-04-22T10:53:51.32Z</time></trkpt><trkpt lat="39.3756718" lon="8.453476"><ele>377.33333333333337</ele><time>2026-04-22T10:53:52.32Z</time></trkpt><trkpt lat="39.3756152" lon="8.453427"><ele>377.1666666666667</ele><time>2026-04-22T10:53:53.319Z</time></trkpt><trkpt lat="39.3755119" lon="8.4533453"><ele>377.0</ele><time>2026-04-22T10:53:55.32Z</time></trkpt><trkpt lat="39.3754171" lon="8.4532519"><ele>379.6</ele><time>2026-04-22T10:53:57.32Z</time></trkpt><trkpt lat="39.3753676" lon="8.4532004"><ele>382.20000000000005</ele><time>2026-04-22T10:53:58.32Z</time></trkpt><trkpt lat="39.3752879" lon="8.4530757"><ele>384.8</ele><time>2026-04-22T10:54:00.319Z</time></trkpt><trkpt lat="39.3752458" lon="8.453014"><ele>387.4</ele><time>2026-04-22T10:54:01.32Z</time></trkpt><trkpt lat="39.3751266" lon="8.4529527"><ele>390.0</ele><time>2026-04-22T10:54:03.32Z</time></trkpt><trkpt lat="39.3749355" lon="8.4529519"><ele>390.0</ele><time>2026-04-22T10:54:06.32Z</time></trkpt><trkpt lat="39.3748656" lon="8.4529692"><ele>390.0</ele><time>2026-04-22T10:54:07.32Z</time></trkpt><trkpt lat="39.374795" lon="8.4529787"><ele>390.0</ele><time>2026-04-22T10:54:08.32Z</time></trkpt><trkpt lat="39.3747246" lon="8.4529697"><ele>390.0</ele><time>2026-04-22T10:54:09.32Z</time></trkpt><trkpt lat="39.3746559" lon="8.4529445"><ele>390.0</ele><time>2026-04-22T10:54:10.32Z</time></trkpt><trkpt lat="39.3745901" lon="8.4529268"><ele>390.0</ele><time>2026-04-22T10:54:11.32Z</time></trkpt><trkpt lat="39.3745238" lon="8.452921"><ele>390.0</ele><time>2026-04-22T10:54:12.32Z</time></trkpt><trkpt lat="39.3744571" lon="8.4529241"><ele>389.2857142857143</ele><time>2026-04-22T10:54:13.319Z</time></trkpt><trkpt lat="39.374387" lon="8.4529242"><ele>388.57142857142856</ele><time>2026-04-22T10:54:14.319Z</time></trkpt><trkpt lat="39.3743077" lon="8.4529187"><ele>387.8571428571429</ele><time>2026-04-22T10:54:15.319Z</time></trkpt><trkpt lat="39.3742302" lon="8.452916"><ele>387.1428571428571</ele><time>2026-04-22T10:54:16.319Z</time></trkpt><trkpt lat="39.3741607" lon="8.4529134"><ele>386.42857142857144</ele><time>2026-04-22T10:54:17.319Z</time></trkpt><trkpt lat="39.3740966" lon="8.4529093"><ele>385.7142857142857</ele><time>2026-04-22T10:54:18.32Z</time></trkpt><trkpt lat="39.3740307" lon="8.4529165"><ele>385.0</ele><time>2026-04-22T10:54:19.319Z</time></trkpt><trkpt lat="39.3739667" lon="8.4529411"><ele>384.75</ele><time>2026-04-22T10:54:20.319Z</time></trkpt><trkpt lat="39.3739032" lon="8.4529782"><ele>384.5</ele><time>2026-04-22T10:54:21.319Z</time></trkpt><trkpt lat="39.3738456" lon="8.4530205"><ele>384.25</ele><time>2026-04-22T10:54:22.32Z</time></trkpt><trkpt lat="39.3737366" lon="8.4530963"><ele>384.0</ele><time>2026-04-22T10:54:24.32Z</time></trkpt><trkpt lat="39.3735036" lon="8.4531609"><ele>384.0</ele><time>2026-04-22T10:54:28.319Z</time></trkpt><trkpt lat="39.3733939" lon="8.453184"><ele>384.0</ele><time>2026-04-22T10:54:30.319Z</time></trkpt><trkpt lat="39.3732981" lon="8.4531685"><ele>384.0</ele><time>2026-04-22T10:54:32.319Z</time></trkpt><trkpt lat="39.3732336" lon="8.4531185"><ele>384.0</ele><time>2026-04-22T10:54:34.319Z</time></trkpt><trkpt lat="39.3731698" lon="8.4530509"><ele>384.0</ele><time>2026-04-22T10:54:36.319Z</time></trkpt><trkpt lat="39.3731005" lon="8.452985"><ele>382.2</ele><time>2026-04-22T10:54:38.32Z</time></trkpt><trkpt lat="39.3730477" lon="8.4528754"><ele>380.4</ele><time>2026-04-22T10:54:40.32Z</time></trkpt><trkpt lat="39.3729925" lon="8.4527677"><ele>378.6</ele><time>2026-04-22T10:54:42.319Z</time></trkpt><trkpt lat="39.3729227" lon="8.4526662"><ele>376.8</ele><time>2026-04-22T10:54:44.32Z</time></trkpt><trkpt lat="39.3728553" lon="8.4525416"><ele>375.0</ele><time>2026-04-22T10:54:46.319Z</time></trkpt><trkpt lat="39.3727517" lon="8.4523495"><ele>375.0</ele><time>2026-04-22T10:54:49.32Z</time></trkpt><trkpt lat="39.3726828" lon="8.4522333"><ele>375.0</ele><time>2026-04-22T10:54:51.32Z</time></trkpt><trkpt lat="39.3725904" lon="8.4521291"><ele>375.0</ele><time>2026-04-22T10:54:53.319Z</time></trkpt><trkpt lat="39.3725249" lon="8.4520844"><ele>375.0</ele><time>2026-04-22T10:54:54.32Z</time></trkpt><trkpt lat="39.3724635" lon="8.4520494"><ele>375.0</ele><time>2026-04-22T10:54:55.32Z</time></trkpt><trkpt lat="39.3724032" lon="8.4520128"><ele>375.0</ele><time>2026-04-22T10:54:56.32Z</time></trkpt><trkpt lat="39.3723477" lon="8.4519741"><ele>373.4</ele><time>2026-04-22T10:54:57.32Z</time></trkpt><trkpt lat="39.3722437" lon="8.4519009"><ele>371.8</ele><time>2026-04-22T10:54:59.319Z</time></trkpt><trkpt lat="39.3721502" lon="8.4519007"><ele>370.20000000000005</ele><time>2026-04-22T10:55:01.32Z</time></trkpt><trkpt lat="39.3720745" lon="8.4519696"><ele>368.6</ele><time>2026-04-22T10:55:03.32Z</time></trkpt><trkpt lat="39.371994" lon="8.4520274"><ele>367.0</ele><time>2026-04-22T10:55:05.319Z</time></trkpt><trkpt lat="39.3719207" lon="8.4519709"><ele>366.6</ele><time>2026-04-22T10:55:07.32Z</time></trkpt><trkpt lat="39.3718356" lon="8.4518106"><ele>366.20000000000005</ele><time>2026-04-22T10:55:09.32Z</time></trkpt><trkpt lat="39.3717898" lon="8.4517286"><ele>365.8</ele><time>2026-04-22T10:55:10.319Z</time></trkpt><trkpt lat="39.3717468" lon="8.4516521"><ele>365.4</ele><time>2026-04-22T10:55:11.319Z</time></trkpt><trkpt lat="39.3716993" lon="8.4515772"><ele>365.0</ele><time>2026-04-22T10:55:12.32Z</time></trkpt><trkpt lat="39.3716375" lon="8.4515122"><ele>365.0</ele><time>2026-04-22T10:55:13.319Z</time></trkpt><trkpt lat="39.3715639" lon="8.451454"><ele>365.0</ele><time>2026-04-22T10:55:14.319Z</time></trkpt><trkpt lat="39.3714841" lon="8.4514087"><ele>365.0</ele><time>2026-04-22T10:55:15.319Z</time></trkpt><trkpt lat="39.3714044" lon="8.45137"><ele>365.0</ele><time>2026-04-22T10:55:16.32Z</time></trkpt><trkpt lat="39.3713359" lon="8.4513181"><ele>365.0</ele><time>2026-04-22T10:55:17.319Z</time></trkpt><trkpt lat="39.3712717" lon="8.4512618"><ele>365.0</ele><time>2026-04-22T10:55:18.32Z</time></trkpt><trkpt lat="39.3712092" lon="8.4512138"><ele>364.6666666666667</ele><time>2026-04-22T10:55:19.32Z</time></trkpt><trkpt lat="39.3711394" lon="8.4511865"><ele>364.33333333333337</ele><time>2026-04-22T10:55:20.319Z</time></trkpt><trkpt lat="39.3710664" lon="8.4511684"><ele>364.0</ele><time>2026-04-22T10:55:21.319Z</time></trkpt><trkpt lat="39.3709956" lon="8.4511452"><ele>363.6666666666667</ele><time>2026-04-22T10:55:22.32Z</time></trkpt><trkpt lat="39.3709269" lon="8.4511174"><ele>363.3333333333333</ele><time>2026-04-22T10:55:23.32Z</time></trkpt><trkpt lat="39.3708224" lon="8.451092"><ele>363.0</ele><time>2026-04-22T10:55:25.319Z</time></trkpt><trkpt lat="39.3707298" lon="8.4510405"><ele>363.0</ele><time>2026-04-22T10:55:27.32Z</time></trkpt><trkpt lat="39.3706707" lon="8.4509995"><ele>363.0</ele><time>2026-04-22T10:55:28.32Z</time></trkpt><trkpt lat="39.3704896" lon="8.4509635"><ele>363.0</ele><time>2026-04-22T10:55:31.32Z</time></trkpt><trkpt lat="39.3703872" lon="8.4509672"><ele>363.0</ele><time>2026-04-22T10:55:33.32Z</time></trkpt><trkpt lat="39.3703224" lon="8.450975"><ele>363.0</ele><time>2026-04-22T10:55:35.319Z</time></trkpt><trkpt lat="39.3702358" lon="8.4509564"><ele>363.75</ele><time>2026-04-22T10:56:24.318Z</time></trkpt><trkpt lat="39.3700032" lon="8.4509979"><ele>364.5</ele><time>2026-04-22T10:56:28.319Z</time></trkpt><trkpt lat="39.3698996" lon="8.4510337"><ele>365.25</ele><time>2026-04-22T10:56:30.318Z</time></trkpt><trkpt lat="39.369797" lon="8.4510579"><ele>366.0</ele><time>2026-04-22T10:56:32.319Z</time></trkpt><trkpt lat="39.3696899" lon="8.4510836"><ele>367.8333333333333</ele><time>2026-04-22T10:56:34.319Z</time></trkpt><trkpt lat="39.3695696" lon="8.4511057"><ele>369.6666666666667</ele><time>2026-04-22T10:56:36.319Z</time></trkpt><trkpt lat="39.3695056" lon="8.4511144"><ele>371.5</ele><time>2026-04-22T10:56:37.319Z</time></trkpt><trkpt lat="39.3694416" lon="8.4511241"><ele>373.33333333333337</ele><time>2026-04-22T10:56:38.319Z</time></trkpt><trkpt lat="39.3693738" lon="8.4511327"><ele>375.1666666666667</ele><time>2026-04-22T10:56:39.319Z</time></trkpt><trkpt lat="39.3693049" lon="8.4511361"><ele>377.0</ele><time>2026-04-22T10:56:40.319Z</time></trkpt><trkpt lat="39.3692386" lon="8.4511381"><ele>377.0</ele><time>2026-04-22T10:56:41.319Z</time></trkpt><trkpt lat="39.3691347" lon="8.4511454"><ele>377.0</ele><time>2026-04-22T10:56:43.319Z</time></trkpt><trkpt lat="39.3690372" lon="8.4511647"><ele>377.0</ele><time>2026-04-22T10:56:45.319Z</time></trkpt><trkpt lat="39.3688164" lon="8.451184"><ele>377.0</ele><time>2026-04-22T10:56:49.319Z</time></trkpt><trkpt lat="39.3687314" lon="8.4511501"><ele>377.25</ele><time>2026-04-22T10:56:51.318Z</time></trkpt><trkpt lat="39.3686597" lon="8.4511202"><ele>377.5</ele><time>2026-04-22T10:56:54.319Z</time></trkpt><trkpt lat="39.3685983" lon="8.4511017"><ele>377.75</ele><time>2026-04-22T10:57:24.319Z</time></trkpt><trkpt lat="39.3684488" lon="8.4511208"><ele>378.0</ele><time>2026-04-22T11:14:29.319Z</time></trkpt><trkpt lat="39.3682701" lon="8.4510542"><ele>378.0</ele><time>2026-04-22T11:14:33.318Z</time></trkpt><trkpt lat="39.3681444" lon="8.451025"><ele>378.0</ele><time>2026-04-22T11:14:35.318Z</time></trkpt><trkpt lat="39.3680806" lon="8.4510148"><ele>378.0</ele><time>2026-04-22T11:14:36.318Z</time></trkpt><trkpt lat="39.3680073" lon="8.451001"><ele>378.0</ele><time>2026-04-22T11:14:37.319Z</time></trkpt><trkpt lat="39.3679302" lon="8.4509843"><ele>378.0</ele><time>2026-04-22T11:14:38.319Z</time></trkpt><trkpt lat="39.3678536" lon="8.4509561"><ele>378.0</ele><time>2026-04-22T11:14:39.318Z</time></trkpt><trkpt lat="39.367781" lon="8.4509389"><ele>378.2</ele><time>2026-04-22T11:14:40.319Z</time></trkpt><trkpt lat="39.367715" lon="8.4509342"><ele>378.4</ele><time>2026-04-22T11:14:41.318Z</time></trkpt><trkpt lat="39.3675956" lon="8.4509475"><ele>378.59999999999997</ele><time>2026-04-22T11:14:43.318Z</time></trkpt><trkpt lat="39.3674875" lon="8.450953"><ele>378.79999999999995</ele><time>2026-04-22T11:14:45.319Z</time></trkpt><trkpt lat="39.3673933" lon="8.4509454"><ele>379.0</ele><time>2026-04-22T11:14:47.319Z</time></trkpt><trkpt lat="39.367285" lon="8.4508932"><ele>379.0</ele><time>2026-04-22T11:14:49.319Z</time></trkpt><trkpt lat="39.3672157" lon="8.4508559"><ele>379.0</ele><time>2026-04-22T11:14:50.318Z</time></trkpt><trkpt lat="39.3670816" lon="8.4507765"><ele>379.0</ele><time>2026-04-22T11:14:52.319Z</time></trkpt><trkpt lat="39.3670132" lon="8.4507468"><ele>379.0</ele><time>2026-04-22T11:14:53.318Z</time></trkpt><trkpt lat="39.3669339" lon="8.4507204"><ele>379.0</ele><time>2026-04-22T11:14:54.318Z</time></trkpt><trkpt lat="39.3668564" lon="8.4507074"><ele>379.8333333333333</ele><time>2026-04-22T11:14:55.318Z</time></trkpt><trkpt lat="39.3667775" lon="8.4507099"><ele>380.66666666666663</ele><time>2026-04-22T11:14:56.318Z</time></trkpt><trkpt lat="39.3667024" lon="8.4507217"><ele>381.5</ele><time>2026-04-22T11:14:57.319Z</time></trkpt><trkpt lat="39.3666295" lon="8.4507403"><ele>382.3333333333333</ele><time>2026-04-22T11:14:58.319Z</time></trkpt><trkpt lat="39.3665561" lon="8.4507548"><ele>383.1666666666667</ele><time>2026-04-22T11:14:59.318Z</time></trkpt><trkpt lat="39.3664792" lon="8.4507645"><ele>384.0</ele><time>2026-04-22T11:15:00.319Z</time></trkpt><trkpt lat="39.3664008" lon="8.4507646"><ele>384.5</ele><time>2026-04-22T11:15:01.319Z</time></trkpt><trkpt lat="39.3663167" lon="8.4507726"><ele>385.0</ele><time>2026-04-22T11:15:02.319Z</time></trkpt><trkpt lat="39.3662221" lon="8.4507802"><ele>385.5</ele><time>2026-04-22T11:15:03.319Z</time></trkpt><trkpt lat="39.3661292" lon="8.450786"><ele>386.0</ele><time>2026-04-22T11:15:04.319Z</time></trkpt><trkpt lat="39.3660409" lon="8.4507904"><ele>386.5</ele><time>2026-04-22T11:15:05.318Z</time></trkpt><trkpt lat="39.3659581" lon="8.4508022"><ele>387.0</ele><time>2026-04-22T11:15:06.318Z</time></trkpt><trkpt lat="39.365878" lon="8.4508199"><ele>387.0</ele><time>2026-04-22T11:15:07.319Z</time></trkpt><trkpt lat="39.365797" lon="8.4508484"><ele>387.0</ele><time>2026-04-22T11:15:08.318Z</time></trkpt><trkpt lat="39.3657178" lon="8.4508934"><ele>387.0</ele><time>2026-04-22T11:15:09.319Z</time></trkpt><trkpt lat="39.3656345" lon="8.4509375"><ele>387.0</ele><time>2026-04-22T11:15:10.319Z</time></trkpt><trkpt lat="39.3655538" lon="8.4509776"><ele>387.0</ele><time>2026-04-22T11:15:11.319Z</time></trkpt><trkpt lat="39.3654089" lon="8.4510273"><ele>388.1666666666667</ele><time>2026-04-22T11:15:13.319Z</time></trkpt><trkpt lat="39.3653437" lon="8.4510362"><ele>389.33333333333337</ele><time>2026-04-22T11:15:14.319Z</time></trkpt><trkpt lat="39.3652674" lon="8.4510413"><ele>390.5</ele><time>2026-04-22T11:15:15.318Z</time></trkpt><trkpt lat="39.3651811" lon="8.4510583"><ele>391.6666666666667</ele><time>2026-04-22T11:15:16.319Z</time></trkpt><trkpt lat="39.3650962" lon="8.4510868"><ele>392.83333333333337</ele><time>2026-04-22T11:15:17.318Z</time></trkpt><trkpt lat="39.3650109" lon="8.4511211"><ele>394.0</ele><time>2026-04-22T11:15:18.319Z</time></trkpt><trkpt lat="39.3649233" lon="8.4511661"><ele>394.0</ele><time>2026-04-22T11:15:19.318Z</time></trkpt><trkpt lat="39.3648314" lon="8.4511985"><ele>394.0</ele><time>2026-04-22T11:15:20.318Z</time></trkpt><trkpt lat="39.3647379" lon="8.4512196"><ele>394.0</ele><time>2026-04-22T11:15:21.319Z</time></trkpt><trkpt lat="39.3646441" lon="8.4512276"><ele>394.0</ele><time>2026-04-22T11:15:22.319Z</time></trkpt><trkpt lat="39.3645525" lon="8.4512182"><ele>394.0</ele><time>2026-04-22T11:15:23.319Z</time></trkpt><trkpt lat="39.3644551" lon="8.4512097"><ele>394.4</ele><time>2026-04-22T11:15:24.319Z</time></trkpt><trkpt lat="39.36435" lon="8.4512092"><ele>394.79999999999995</ele><time>2026-04-22T11:15:25.319Z</time></trkpt><trkpt lat="39.3642452" lon="8.4512205"><ele>395.20000000000005</ele><time>2026-04-22T11:15:26.319Z</time></trkpt><trkpt lat="39.3641348" lon="8.4512282"><ele>395.6</ele><time>2026-04-22T11:15:27.319Z</time></trkpt><trkpt lat="39.3640253" lon="8.4512377"><ele>396.0</ele><time>2026-04-22T11:15:28.319Z</time></trkpt><trkpt lat="39.3639187" lon="8.4512591"><ele>395.0</ele><time>2026-04-22T11:15:29.319Z</time></trkpt><trkpt lat="39.3638089" lon="8.4512841"><ele>394.0</ele><time>2026-04-22T11:15:30.318Z</time></trkpt><trkpt lat="39.3636957" lon="8.4513118"><ele>393.0</ele><time>2026-04-22T11:15:31.319Z</time></trkpt><trkpt lat="39.3635874" lon="8.451341"><ele>392.0</ele><time>2026-04-22T11:15:32.319Z</time></trkpt><trkpt lat="39.3633847" lon="8.4513889"><ele>392.0</ele><time>2026-04-22T11:15:34.319Z</time></trkpt><trkpt lat="39.3632819" lon="8.4514116"><ele>392.0</ele><time>2026-04-22T11:15:35.319Z</time></trkpt><trkpt lat="39.3631798" lon="8.4514342"><ele>392.0</ele><time>2026-04-22T11:15:36.319Z</time></trkpt><trkpt lat="39.36308" lon="8.4514588"><ele>392.0</ele><time>2026-04-22T11:15:37.319Z</time></trkpt><trkpt lat="39.3629881" lon="8.4514798"><ele>392.0</ele><time>2026-04-22T11:15:38.319Z</time></trkpt><trkpt lat="39.3628965" lon="8.4514956"><ele>393.0</ele><time>2026-04-22T11:15:39.318Z</time></trkpt><trkpt lat="39.3628117" lon="8.4515035"><ele>394.0</ele><time>2026-04-22T11:15:40.319Z</time></trkpt><trkpt lat="39.3627245" lon="8.451503"><ele>395.0</ele><time>2026-04-22T11:15:41.319Z</time></trkpt><trkpt lat="39.3626317" lon="8.4514975"><ele>396.0</ele><time>2026-04-22T11:15:42.318Z</time></trkpt><trkpt lat="39.3625368" lon="8.4514908"><ele>397.0</ele><time>2026-04-22T11:15:43.318Z</time></trkpt><trkpt lat="39.362442" lon="8.4514719"><ele>397.0</ele><time>2026-04-22T11:15:44.318Z</time></trkpt><trkpt lat="39.3623566" lon="8.4514484"><ele>397.0</ele><time>2026-04-22T11:15:45.318Z</time></trkpt><trkpt lat="39.3622831" lon="8.4514244"><ele>397.0</ele><time>2026-04-22T11:15:46.319Z</time></trkpt><trkpt lat="39.3621836" lon="8.4513915"><ele>397.0</ele><time>2026-04-22T11:15:48.318Z</time></trkpt><trkpt lat="39.3620781" lon="8.4513543"><ele>397.0</ele><time>2026-04-22T11:15:50.319Z</time></trkpt><trkpt lat="39.3619557" lon="8.4512865"><ele>399.6</ele><time>2026-04-22T11:15:52.319Z</time></trkpt><trkpt lat="39.3618874" lon="8.4512387"><ele>402.20000000000005</ele><time>2026-04-22T11:15:53.318Z</time></trkpt><trkpt lat="39.361737" lon="8.4511627"><ele>404.8</ele><time>2026-04-22T11:15:55.319Z</time></trkpt><trkpt lat="39.3616513" lon="8.4511408"><ele>407.4</ele><time>2026-04-22T11:15:56.318Z</time></trkpt><trkpt lat="39.36156" lon="8.4511225"><ele>410.0</ele><time>2026-04-22T11:15:57.319Z</time></trkpt><trkpt lat="39.3614731" lon="8.4511022"><ele>409.99999999999994</ele><time>2026-04-22T11:15:58.319Z</time></trkpt><trkpt lat="39.3613866" lon="8.4510776"><ele>410.0</ele><time>2026-04-22T11:15:59.319Z</time></trkpt><trkpt lat="39.3613072" lon="8.4510559"><ele>410.0</ele><time>2026-04-22T11:16:00.319Z</time></trkpt><trkpt lat="39.3612269" lon="8.4510516"><ele>410.0</ele><time>2026-04-22T11:16:01.319Z</time></trkpt><trkpt lat="39.3611456" lon="8.4510706"><ele>409.99999999999994</ele><time>2026-04-22T11:16:02.319Z</time></trkpt><trkpt lat="39.3610645" lon="8.4510937"><ele>410.0</ele><time>2026-04-22T11:16:03.318Z</time></trkpt><trkpt lat="39.3609799" lon="8.4511106"><ele>411.16666666666663</ele><time>2026-04-22T11:16:04.319Z</time></trkpt><trkpt lat="39.3608977" lon="8.4511147"><ele>412.3333333333333</ele><time>2026-04-22T11:16:05.318Z</time></trkpt><trkpt lat="39.3608229" lon="8.4511142"><ele>413.5</ele><time>2026-04-22T11:16:06.319Z</time></trkpt><trkpt lat="39.3607514" lon="8.4510978"><ele>414.66666666666663</ele><time>2026-04-22T11:16:07.319Z</time></trkpt><trkpt lat="39.3606745" lon="8.4510757"><ele>415.8333333333333</ele><time>2026-04-22T11:16:08.318Z</time></trkpt><trkpt lat="39.3605943" lon="8.4510427"><ele>417.0</ele><time>2026-04-22T11:16:09.319Z</time></trkpt><trkpt lat="39.3605056" lon="8.4510068"><ele>418.8</ele><time>2026-04-22T11:16:10.319Z</time></trkpt><trkpt lat="39.3604191" lon="8.4509773"><ele>420.6</ele><time>2026-04-22T11:16:11.318Z</time></trkpt><trkpt lat="39.3603326" lon="8.4509429"><ele>422.40000000000003</ele><time>2026-04-22T11:16:12.319Z</time></trkpt><trkpt lat="39.36024" lon="8.4508999"><ele>424.20000000000005</ele><time>2026-04-22T11:16:13.318Z</time></trkpt><trkpt lat="39.3601528" lon="8.450861"><ele>426.0</ele><time>2026-04-22T11:16:14.318Z</time></trkpt><trkpt lat="39.3599786" lon="8.4507855"><ele>426.0</ele><time>2026-04-22T11:16:16.318Z</time></trkpt><trkpt lat="39.3598906" lon="8.4507348"><ele>426.0</ele><time>2026-04-22T11:16:17.318Z</time></trkpt><trkpt lat="39.3597983" lon="8.450695"><ele>426.0</ele><time>2026-04-22T11:16:18.318Z</time></trkpt><trkpt lat="39.359705" lon="8.4506497"><ele>426.0</ele><time>2026-04-22T11:16:19.318Z</time></trkpt><trkpt lat="39.3596166" lon="8.4506104"><ele>426.0</ele><time>2026-04-22T11:16:20.319Z</time></trkpt><trkpt lat="39.3595284" lon="8.4505702"><ele>426.6666666666667</ele><time>2026-04-22T11:16:21.318Z</time></trkpt><trkpt lat="39.3594442" lon="8.4505436"><ele>427.33333333333337</ele><time>2026-04-22T11:16:22.319Z</time></trkpt><trkpt lat="39.3593611" lon="8.4505347"><ele>428.0</ele><time>2026-04-22T11:16:23.319Z</time></trkpt><trkpt lat="39.3592807" lon="8.4505418"><ele>428.6666666666667</ele><time>2026-04-22T11:16:24.319Z</time></trkpt><trkpt lat="39.3592021" lon="8.450571"><ele>429.33333333333337</ele><time>2026-04-22T11:16:25.318Z</time></trkpt><trkpt lat="39.3591214" lon="8.450623"><ele>430.0</ele><time>2026-04-22T11:16:26.319Z</time></trkpt><trkpt lat="39.3590356" lon="8.4506711"><ele>430.0</ele><time>2026-04-22T11:16:27.318Z</time></trkpt><trkpt lat="39.3589493" lon="8.450719"><ele>430.0</ele><time>2026-04-22T11:16:28.318Z</time></trkpt><trkpt lat="39.3588666" lon="8.4507715"><ele>430.0</ele><time>2026-04-22T11:16:29.319Z</time></trkpt><trkpt lat="39.3587811" lon="8.4508419"><ele>430.0</ele><time>2026-04-22T11:16:30.319Z</time></trkpt><trkpt lat="39.3587014" lon="8.4509186"><ele>430.0</ele><time>2026-04-22T11:16:31.318Z</time></trkpt><trkpt lat="39.3586312" lon="8.4510077"><ele>431.0</ele><time>2026-04-22T11:16:32.319Z</time></trkpt><trkpt lat="39.3585721" lon="8.4510959"><ele>432.0</ele><time>2026-04-22T11:16:33.318Z</time></trkpt><trkpt lat="39.35852" lon="8.451176"><ele>433.0</ele><time>2026-04-22T11:16:34.318Z</time></trkpt><trkpt lat="39.3584713" lon="8.451243"><ele>434.0</ele><time>2026-04-22T11:16:35.319Z</time></trkpt><trkpt lat="39.3583304" lon="8.4513561"><ele>435.0</ele><time>2026-04-22T11:17:28.319Z</time></trkpt><trkpt lat="39.3581873" lon="8.4515178"><ele>435.0</ele><time>2026-04-22T11:17:31.318Z</time></trkpt><trkpt lat="39.3581323" lon="8.4515823"><ele>435.0</ele><time>2026-04-22T11:17:32.318Z</time></trkpt><trkpt lat="39.35807" lon="8.4516535"><ele>435.0</ele><time>2026-04-22T11:17:33.319Z</time></trkpt><trkpt lat="39.3580101" lon="8.4517207"><ele>435.0</ele><time>2026-04-22T11:17:34.318Z</time></trkpt><trkpt lat="39.3579545" lon="8.4517793"><ele>435.0</ele><time>2026-04-22T11:17:35.319Z</time></trkpt><trkpt lat="39.3579041" lon="8.4518357"><ele>435.0</ele><time>2026-04-22T11:17:36.319Z</time></trkpt><trkpt lat="39.3578159" lon="8.4519504"><ele>435.0</ele><time>2026-04-22T11:17:38.318Z</time></trkpt><trkpt lat="39.357755" lon="8.4520148"><ele>435.0</ele><time>2026-04-22T11:17:39.319Z</time></trkpt><trkpt lat="39.3576852" lon="8.4520757"><ele>435.0</ele><time>2026-04-22T11:17:40.319Z</time></trkpt><trkpt lat="39.3576007" lon="8.4521431"><ele>435.0</ele><time>2026-04-22T11:17:41.319Z</time></trkpt><trkpt lat="39.35751" lon="8.4522198"><ele>435.0</ele><time>2026-04-22T11:17:42.318Z</time></trkpt><trkpt lat="39.3574165" lon="8.4523021"><ele>435.0</ele><time>2026-04-22T11:17:43.319Z</time></trkpt><trkpt lat="39.3573337" lon="8.4523839"><ele>435.0</ele><time>2026-04-22T11:17:44.319Z</time></trkpt><trkpt lat="39.3572564" lon="8.452463"><ele>435.0</ele><time>2026-04-22T11:17:45.319Z</time></trkpt><trkpt lat="39.3571838" lon="8.4525352"><ele>435.0</ele><time>2026-04-22T11:17:46.319Z</time></trkpt><trkpt lat="39.3571063" lon="8.4526082"><ele>435.0</ele><time>2026-04-22T11:17:47.319Z</time></trkpt><trkpt lat="39.3570344" lon="8.4526877"><ele>435.0</ele><time>2026-04-22T11:17:48.319Z</time></trkpt><trkpt lat="39.3569605" lon="8.4527656"><ele>435.0</ele><time>2026-04-22T11:17:49.318Z</time></trkpt><trkpt lat="39.3568113" lon="8.452921"><ele>435.0</ele><time>2026-04-22T11:17:51.318Z</time></trkpt><trkpt lat="39.3567469" lon="8.4530068"><ele>435.0</ele><time>2026-04-22T11:17:52.319Z</time></trkpt><trkpt lat="39.3566833" lon="8.4530912"><ele>435.0</ele><time>2026-04-22T11:17:53.318Z</time></trkpt><trkpt lat="39.3566164" lon="8.4531623"><ele>435.0</ele><time>2026-04-22T11:17:54.319Z</time></trkpt><trkpt lat="39.3565537" lon="8.4532239"><ele>435.0</ele><time>2026-04-22T11:17:55.319Z</time></trkpt><trkpt lat="39.3564888" lon="8.4532928"><ele>435.0</ele><time>2026-04-22T11:17:56.318Z</time></trkpt><trkpt lat="39.3564297" lon="8.4533684"><ele>435.0</ele><time>2026-04-22T11:17:57.318Z</time></trkpt><trkpt lat="39.3563771" lon="8.4534442"><ele>435.0</ele><time>2026-04-22T11:17:58.319Z</time></trkpt><trkpt lat="39.3563274" lon="8.4535142"><ele>435.0</ele><time>2026-04-22T11:17:59.319Z</time></trkpt><trkpt lat="39.3562796" lon="8.4535805"><ele>435.0</ele><time>2026-04-22T11:18:00.319Z</time></trkpt><trkpt lat="39.3562363" lon="8.4536465"><ele>435.0</ele><time>2026-04-22T11:18:01.319Z</time></trkpt><trkpt lat="39.3561746" lon="8.4537548"><ele>435.0</ele><time>2026-04-22T11:18:03.318Z</time></trkpt><trkpt lat="39.3560986" lon="8.4538454"><ele>435.0</ele><time>2026-04-22T11:18:05.318Z</time></trkpt><trkpt lat="39.3559879" lon="8.4539417"><ele>435.0</ele><time>2026-04-22T11:18:07.319Z</time></trkpt><trkpt lat="39.3559242" lon="8.4539905"><ele>435.0</ele><time>2026-04-22T11:18:08.319Z</time></trkpt><trkpt lat="39.3558636" lon="8.4540528"><ele>435.0</ele><time>2026-04-22T11:18:09.319Z</time></trkpt><trkpt lat="39.3557994" lon="8.4541237"><ele>435.0</ele><time>2026-04-22T11:18:10.319Z</time></trkpt><trkpt lat="39.3556594" lon="8.4542714"><ele>435.0</ele><time>2026-04-22T11:18:12.319Z</time></trkpt><trkpt lat="39.3555873" lon="8.4543455"><ele>434.8333333333333</ele><time>2026-04-22T11:18:13.318Z</time></trkpt><trkpt lat="39.3555219" lon="8.4544154"><ele>434.66666666666663</ele><time>2026-04-22T11:18:14.319Z</time></trkpt><trkpt lat="39.3554582" lon="8.4544822"><ele>434.5</ele><time>2026-04-22T11:18:15.319Z</time></trkpt><trkpt lat="39.3553906" lon="8.4545522"><ele>434.3333333333333</ele><time>2026-04-22T11:18:16.319Z</time></trkpt><trkpt lat="39.3553192" lon="8.4546166"><ele>434.16666666666663</ele><time>2026-04-22T11:18:17.319Z</time></trkpt><trkpt lat="39.3552397" lon="8.4546655"><ele>434.0</ele><time>2026-04-22T11:18:18.319Z</time></trkpt><trkpt lat="39.3551615" lon="8.45471"><ele>436.0</ele><time>2026-04-22T11:18:19.319Z</time></trkpt><trkpt lat="39.3550837" lon="8.4547573"><ele>438.0</ele><time>2026-04-22T11:18:20.319Z</time></trkpt><trkpt lat="39.3550041" lon="8.4548021"><ele>440.0</ele><time>2026-04-22T11:18:21.319Z</time></trkpt><trkpt lat="39.3549202" lon="8.4548439"><ele>442.0</ele><time>2026-04-22T11:18:22.319Z</time></trkpt><trkpt lat="39.3548376" lon="8.4548943"><ele>444.0</ele><time>2026-04-22T11:18:23.318Z</time></trkpt><trkpt lat="39.354749" lon="8.4549449"><ele>444.6</ele><time>2026-04-22T11:18:24.319Z</time></trkpt><trkpt lat="39.3546565" lon="8.4550024"><ele>445.2</ele><time>2026-04-22T11:18:25.319Z</time></trkpt><trkpt lat="39.3545671" lon="8.4550494"><ele>445.80000000000007</ele><time>2026-04-22T11:18:26.319Z</time></trkpt><trkpt lat="39.3544868" lon="8.4551031"><ele>446.40000000000003</ele><time>2026-04-22T11:18:27.319Z</time></trkpt><trkpt lat="39.3544102" lon="8.4551504"><ele>447.0</ele><time>2026-04-22T11:18:28.319Z</time></trkpt><trkpt lat="39.354345" lon="8.4552028"><ele>447.0</ele><time>2026-04-22T11:18:29.318Z</time></trkpt><trkpt lat="39.3542889" lon="8.4552643"><ele>447.00000000000006</ele><time>2026-04-22T11:18:30.318Z</time></trkpt><trkpt lat="39.3542387" lon="8.4553396"><ele>447.00000000000006</ele><time>2026-04-22T11:18:31.319Z</time></trkpt><trkpt lat="39.3541534" lon="8.4554977"><ele>447.0</ele><time>2026-04-22T11:18:33.318Z</time></trkpt><trkpt lat="39.3540822" lon="8.4555783"><ele>447.0</ele><time>2026-04-22T11:18:35.319Z</time></trkpt><trkpt lat="39.354007" lon="8.4556469"><ele>448.8333333333333</ele><time>2026-04-22T11:18:37.318Z</time></trkpt><trkpt lat="39.3539716" lon="8.455758"><ele>450.66666666666663</ele><time>2026-04-22T11:18:39.319Z</time></trkpt><trkpt lat="39.3539562" lon="8.4559181"><ele>452.5</ele><time>2026-04-22T11:18:41.319Z</time></trkpt><trkpt lat="39.353964" lon="8.4560096"><ele>454.3333333333333</ele><time>2026-04-22T11:18:42.318Z</time></trkpt><trkpt lat="39.3539778" lon="8.4560962"><ele>456.16666666666663</ele><time>2026-04-22T11:18:43.319Z</time></trkpt><trkpt lat="39.3539926" lon="8.4561957"><ele>458.0</ele><time>2026-04-22T11:18:44.318Z</time></trkpt><trkpt lat="39.3540167" lon="8.4563009"><ele>460.16666666666663</ele><time>2026-04-22T11:18:45.319Z</time></trkpt><trkpt lat="39.3540482" lon="8.4563999"><ele>462.3333333333333</ele><time>2026-04-22T11:18:46.319Z</time></trkpt><trkpt lat="39.3540793" lon="8.4564905"><ele>464.5</ele><time>2026-04-22T11:18:47.319Z</time></trkpt><trkpt lat="39.3541085" lon="8.4565693"><ele>466.66666666666663</ele><time>2026-04-22T11:18:48.318Z</time></trkpt><trkpt lat="39.3541658" lon="8.4566772"><ele>468.8333333333333</ele><time>2026-04-22T11:18:50.319Z</time></trkpt><trkpt lat="39.3542269" lon="8.4567489"><ele>471.0</ele><time>2026-04-22T11:18:52.319Z</time></trkpt><trkpt lat="39.3543221" lon="8.4570089"><ele>471.00000000000006</ele><time>2026-04-22T11:18:56.318Z</time></trkpt><trkpt lat="39.3543398" lon="8.4570918"><ele>471.0</ele><time>2026-04-22T11:18:57.318Z</time></trkpt><trkpt lat="39.3543441" lon="8.4571775"><ele>471.00000000000006</ele><time>2026-04-22T11:18:58.319Z</time></trkpt><trkpt lat="39.3543414" lon="8.457275"><ele>471.00000000000006</ele><time>2026-04-22T11:18:59.319Z</time></trkpt><trkpt lat="39.3543332" lon="8.4573807"><ele>471.0</ele><time>2026-04-22T11:19:00.319Z</time></trkpt><trkpt lat="39.3543254" lon="8.4574754"><ele>471.00000000000006</ele><time>2026-04-22T11:19:01.319Z</time></trkpt><trkpt lat="39.3543087" lon="8.4575662"><ele>471.00000000000006</ele><time>2026-04-22T11:19:02.318Z</time></trkpt><trkpt lat="39.3542865" lon="8.4576582"><ele>473.1666666666667</ele><time>2026-04-22T11:19:03.319Z</time></trkpt><trkpt lat="39.3542663" lon="8.4577614"><ele>475.33333333333337</ele><time>2026-04-22T11:19:04.318Z</time></trkpt><trkpt lat="39.3542527" lon="8.4578805"><ele>477.5</ele><time>2026-04-22T11:19:05.319Z</time></trkpt><trkpt lat="39.3542421" lon="8.4579995"><ele>479.6666666666667</ele><time>2026-04-22T11:19:06.319Z</time></trkpt><trkpt lat="39.3542228" lon="8.4581055"><ele>481.83333333333337</ele><time>2026-04-22T11:19:07.319Z</time></trkpt><trkpt lat="39.354202" lon="8.4582141"><ele>484.0</ele><time>2026-04-22T11:19:08.319Z</time></trkpt><trkpt lat="39.3541647" lon="8.4583155"><ele>485.1666666666667</ele><time>2026-04-22T11:19:09.319Z</time></trkpt><trkpt lat="39.3541278" lon="8.4584083"><ele>486.33333333333337</ele><time>2026-04-22T11:19:10.318Z</time></trkpt><trkpt lat="39.3540963" lon="8.4584823"><ele>487.5</ele><time>2026-04-22T11:19:11.318Z</time></trkpt><trkpt lat="39.3540714" lon="8.4585789"><ele>488.66666666666663</ele><time>2026-04-22T11:19:13.319Z</time></trkpt><trkpt lat="39.3539642" lon="8.4587101"><ele>489.8333333333333</ele><time>2026-04-22T11:19:19.319Z</time></trkpt><trkpt lat="39.3539146" lon="8.4587605"><ele>491.0</ele><time>2026-04-22T11:19:21.319Z</time></trkpt><trkpt lat="39.3538583" lon="8.458807"><ele>495.0</ele><time>2026-04-22T11:19:23.318Z</time></trkpt><trkpt lat="39.3537818" lon="8.4588764"><ele>499.0</ele><time>2026-04-22T11:19:25.319Z</time></trkpt><trkpt lat="39.3537145" lon="8.4589859"><ele>503.0</ele><time>2026-04-22T11:19:27.319Z</time></trkpt><trkpt lat="39.3536736" lon="8.4591299"><ele>507.0</ele><time>2026-04-22T11:19:29.318Z</time></trkpt><trkpt lat="39.3536462" lon="8.4592818"><ele>511.0</ele><time>2026-04-22T11:19:31.318Z</time></trkpt><trkpt lat="39.353657" lon="8.4593665"><ele>511.0</ele><time>2026-04-22T11:19:32.318Z</time></trkpt><trkpt lat="39.353688" lon="8.4594658"><ele>511.0</ele><time>2026-04-22T11:19:33.319Z</time></trkpt><trkpt lat="39.3537289" lon="8.4595816"><ele>511.0</ele><time>2026-04-22T11:19:34.319Z</time></trkpt><trkpt lat="39.3537777" lon="8.4598354"><ele>511.0</ele><time>2026-04-22T11:19:36.319Z</time></trkpt><trkpt lat="39.3537976" lon="8.4599525"><ele>511.00000000000006</ele><time>2026-04-22T11:19:37.319Z</time></trkpt><trkpt lat="39.353837" lon="8.4600649"><ele>511.0</ele><time>2026-04-22T11:19:38.318Z</time></trkpt><trkpt lat="39.3538764" lon="8.4601558"><ele>511.0</ele><time>2026-04-22T11:19:39.319Z</time></trkpt><trkpt lat="39.3539053" lon="8.4602401"><ele>511.0</ele><time>2026-04-22T11:19:40.318Z</time></trkpt><trkpt lat="39.3539165" lon="8.4603305"><ele>511.00000000000006</ele><time>2026-04-22T11:19:41.318Z</time></trkpt><trkpt lat="39.3539148" lon="8.4604309"><ele>511.0</ele><time>2026-04-22T11:19:42.319Z</time></trkpt><trkpt lat="39.3539065" lon="8.4605425"><ele>512.3333333333334</ele><time>2026-04-22T11:19:43.319Z</time></trkpt><trkpt lat="39.3539035" lon="8.4606538"><ele>513.6666666666667</ele><time>2026-04-22T11:19:44.318Z</time></trkpt><trkpt lat="39.3539125" lon="8.460767"><ele>515.0</ele><time>2026-04-22T11:19:45.319Z</time></trkpt><trkpt lat="39.3539265" lon="8.4608704"><ele>516.3333333333334</ele><time>2026-04-22T11:19:46.318Z</time></trkpt><trkpt lat="39.3539446" lon="8.4609761"><ele>517.6666666666666</ele><time>2026-04-22T11:19:47.318Z</time></trkpt><trkpt lat="39.3539635" lon="8.4610852"><ele>519.0</ele><time>2026-04-22T11:19:48.318Z</time></trkpt><trkpt lat="39.3539769" lon="8.4611931"><ele>519.8333333333334</ele><time>2026-04-22T11:19:49.319Z</time></trkpt><trkpt lat="39.3539813" lon="8.4613107"><ele>520.6666666666666</ele><time>2026-04-22T11:19:50.319Z</time></trkpt><trkpt lat="39.3539824" lon="8.4614303"><ele>521.5</ele><time>2026-04-22T11:19:51.319Z</time></trkpt><trkpt lat="39.3539794" lon="8.4615463"><ele>522.3333333333333</ele><time>2026-04-22T11:19:52.318Z</time></trkpt><trkpt lat="39.3539807" lon="8.4616598"><ele>523.1666666666666</ele><time>2026-04-22T11:19:53.319Z</time></trkpt><trkpt lat="39.3539747" lon="8.4617655"><ele>524.0</ele><time>2026-04-22T11:19:54.319Z</time></trkpt><trkpt lat="39.3539621" lon="8.4618773"><ele>525.5</ele><time>2026-04-22T11:19:55.318Z</time></trkpt><trkpt lat="39.3539303" lon="8.4621229"><ele>527.0</ele><time>2026-04-22T11:19:57.319Z</time></trkpt><trkpt lat="39.3539121" lon="8.4622415"><ele>528.5</ele><time>2026-04-22T11:19:58.319Z</time></trkpt><trkpt lat="39.3538906" lon="8.4623547"><ele>530.0</ele><time>2026-04-22T11:19:59.319Z</time></trkpt><trkpt lat="39.3538706" lon="8.4624719"><ele>531.8333333333333</ele><time>2026-04-22T11:20:00.318Z</time></trkpt><trkpt lat="39.3538437" lon="8.4625861"><ele>533.6666666666666</ele><time>2026-04-22T11:20:01.319Z</time></trkpt><trkpt lat="39.3538222" lon="8.4626945"><ele>535.5</ele><time>2026-04-22T11:20:02.319Z</time></trkpt><trkpt lat="39.3538052" lon="8.4627919"><ele>537.3333333333334</ele><time>2026-04-22T11:20:03.319Z</time></trkpt><trkpt lat="39.3537957" lon="8.4628809"><ele>539.1666666666667</ele><time>2026-04-22T11:20:04.318Z</time></trkpt><trkpt lat="39.3537897" lon="8.4629665"><ele>541.0</ele><time>2026-04-22T11:20:05.319Z</time></trkpt><trkpt lat="39.3537812" lon="8.46306"><ele>541.0</ele><time>2026-04-22T11:20:06.319Z</time></trkpt><trkpt lat="39.3537613" lon="8.463148"><ele>541.0</ele><time>2026-04-22T11:20:07.319Z</time></trkpt><trkpt lat="39.3537382" lon="8.4632284"><ele>541.0</ele><time>2026-04-22T11:20:08.319Z</time></trkpt><trkpt lat="39.3537033" lon="8.4633412"><ele>541.0</ele><time>2026-04-22T11:20:10.319Z</time></trkpt><trkpt lat="39.3536487" lon="8.463457"><ele>541.0</ele><time>2026-04-22T11:20:20.318Z</time></trkpt><trkpt lat="39.3535766" lon="8.4636857"><ele>541.0</ele><time>2026-04-22T11:20:24.319Z</time></trkpt><trkpt lat="39.3534952" lon="8.4637542"><ele>541.0</ele><time>2026-04-22T11:20:26.319Z</time></trkpt><trkpt lat="39.3534167" lon="8.4638051"><ele>541.0</ele><time>2026-04-22T11:20:28.318Z</time></trkpt><trkpt lat="39.3533279" lon="8.4638705"><ele>541.0</ele><time>2026-04-22T11:20:30.319Z</time></trkpt><trkpt lat="39.3532192" lon="8.463944"><ele>541.0</ele><time>2026-04-22T11:20:32.319Z</time></trkpt><trkpt lat="39.3530984" lon="8.4639826"><ele>544.0</ele><time>2026-04-22T11:20:34.319Z</time></trkpt><trkpt lat="39.3529923" lon="8.4639982"><ele>547.0</ele><time>2026-04-22T11:20:36.318Z</time></trkpt><trkpt lat="39.3528778" lon="8.4639844"><ele>550.0</ele><time>2026-04-22T11:20:38.319Z</time></trkpt><trkpt lat="39.3528045" lon="8.4639853"><ele>553.0</ele><time>2026-04-22T11:20:39.318Z</time></trkpt><trkpt lat="39.3527241" lon="8.4639936"><ele>556.0</ele><time>2026-04-22T11:20:40.319Z</time></trkpt><trkpt lat="39.352549" lon="8.4640045"><ele>556.0</ele><time>2026-04-22T11:20:42.319Z</time></trkpt><trkpt lat="39.3524587" lon="8.4640116"><ele>556.0</ele><time>2026-04-22T11:20:43.318Z</time></trkpt><trkpt lat="39.3523689" lon="8.4640099"><ele>556.0</ele><time>2026-04-22T11:20:44.319Z</time></trkpt><trkpt lat="39.352281" lon="8.4640114"><ele>556.0</ele><time>2026-04-22T11:20:45.318Z</time></trkpt><trkpt lat="39.3521899" lon="8.4640151"><ele>556.0</ele><time>2026-04-22T11:20:46.318Z</time></trkpt><trkpt lat="39.3520925" lon="8.4640197"><ele>557.2</ele><time>2026-04-22T11:20:47.318Z</time></trkpt><trkpt lat="39.3519941" lon="8.4640284"><ele>558.4000000000001</ele><time>2026-04-22T11:20:48.319Z</time></trkpt><trkpt lat="39.3519119" lon="8.4640391"><ele>559.6</ele><time>2026-04-22T11:20:49.319Z</time></trkpt><trkpt lat="39.35184" lon="8.4640473"><ele>560.8000000000001</ele><time>2026-04-22T11:20:50.319Z</time></trkpt><trkpt lat="39.3517245" lon="8.4640267"><ele>562.0</ele><time>2026-04-22T11:20:52.319Z</time></trkpt><trkpt lat="39.351624" lon="8.4639774"><ele>562.0</ele><time>2026-04-22T11:20:54.319Z</time></trkpt><trkpt lat="39.3515423" lon="8.4639478"><ele>562.0</ele><time>2026-04-22T11:20:56.319Z</time></trkpt><trkpt lat="39.3514413" lon="8.4639504"><ele>562.0</ele><time>2026-04-22T11:20:58.318Z</time></trkpt><trkpt lat="39.3513708" lon="8.4639631"><ele>562.0</ele><time>2026-04-22T11:20:59.318Z</time></trkpt><trkpt lat="39.3513005" lon="8.4639632"><ele>562.0</ele><time>2026-04-22T11:21:00.319Z</time></trkpt><trkpt lat="39.3512216" lon="8.4639584"><ele>562.0</ele><time>2026-04-22T11:21:01.318Z</time></trkpt><trkpt lat="39.3510418" lon="8.4639413"><ele>563.4</ele><time>2026-04-22T11:21:03.319Z</time></trkpt><trkpt lat="39.3509532" lon="8.4639232"><ele>564.8000000000001</ele><time>2026-04-22T11:21:04.318Z</time></trkpt><trkpt lat="39.3508683" lon="8.4639052"><ele>566.2</ele><time>2026-04-22T11:21:05.319Z</time></trkpt><trkpt lat="39.3507781" lon="8.4639095"><ele>567.6</ele><time>2026-04-22T11:21:06.319Z</time></trkpt><trkpt lat="39.3506792" lon="8.4639173"><ele>569.0</ele><time>2026-04-22T11:21:07.319Z</time></trkpt><trkpt lat="39.3505794" lon="8.4639143"><ele>570.0</ele><time>2026-04-22T11:21:08.318Z</time></trkpt><trkpt lat="39.3504754" lon="8.4639073"><ele>571.0</ele><time>2026-04-22T11:21:09.319Z</time></trkpt><trkpt lat="39.3503796" lon="8.4639017"><ele>572.0</ele><time>2026-04-22T11:21:10.319Z</time></trkpt><trkpt lat="39.3502907" lon="8.4638935"><ele>573.0</ele><time>2026-04-22T11:21:11.319Z</time></trkpt><trkpt lat="39.3502074" lon="8.4638757"><ele>574.0</ele><time>2026-04-22T11:21:12.319Z</time></trkpt><trkpt lat="39.3501308" lon="8.4638581"><ele>574.0</ele><time>2026-04-22T11:21:13.319Z</time></trkpt><trkpt lat="39.350056" lon="8.4638386"><ele>574.0</ele><time>2026-04-22T11:21:14.318Z</time></trkpt><trkpt lat="39.349981" lon="8.4638091"><ele>574.0</ele><time>2026-04-22T11:21:15.319Z</time></trkpt><trkpt lat="39.3499034" lon="8.4637724"><ele>574.0</ele><time>2026-04-22T11:21:16.318Z</time></trkpt><trkpt lat="39.3498274" lon="8.4637414"><ele>574.0</ele><time>2026-04-22T11:21:17.319Z</time></trkpt><trkpt lat="39.3497583" lon="8.4637095"><ele>574.0</ele><time>2026-04-22T11:21:18.319Z</time></trkpt><trkpt lat="39.3496642" lon="8.4636612"><ele>576.3333333333334</ele><time>2026-04-22T11:21:20.319Z</time></trkpt><trkpt lat="39.3496075" lon="8.4636012"><ele>578.6666666666666</ele><time>2026-04-22T11:21:23.318Z</time></trkpt><trkpt lat="39.3493834" lon="8.4634894"><ele>581.0</ele><time>2026-04-22T11:23:04.319Z</time></trkpt><trkpt lat="39.3492678" lon="8.4636616"><ele>581.0</ele><time>2026-04-22T11:23:08.319Z</time></trkpt><trkpt lat="39.349223" lon="8.463721"><ele>581.0</ele><time>2026-04-22T11:23:09.319Z</time></trkpt><trkpt lat="39.3491447" lon="8.463839"><ele>581.0</ele><time>2026-04-22T11:23:11.319Z</time></trkpt><trkpt lat="39.3491098" lon="8.4639127"><ele>581.0</ele><time>2026-04-22T11:23:13.319Z</time></trkpt><trkpt lat="39.3491884" lon="8.463808"><ele>581.0</ele><time>2026-04-22T11:23:50.319Z</time></trkpt><trkpt lat="39.3492799" lon="8.463684"><ele>581.0</ele><time>2026-04-22T11:23:52.318Z</time></trkpt><trkpt lat="39.3493533" lon="8.4635712"><ele>581.0</ele><time>2026-04-22T11:23:54.319Z</time></trkpt><trkpt lat="39.3493893" lon="8.4634825"><ele>581.0</ele><time>2026-04-22T11:23:56.318Z</time></trkpt><trkpt lat="39.3493789" lon="8.4633834"><ele>581.0</ele><time>2026-04-22T11:24:00.319Z</time></trkpt><trkpt lat="39.3493182" lon="8.4632847"><ele>581.0</ele><time>2026-04-22T11:24:28.319Z</time></trkpt><trkpt lat="39.3491304" lon="8.4631452"><ele>581.0</ele><time>2026-04-22T11:24:32.319Z</time></trkpt><trkpt lat="39.3490278" lon="8.46307"><ele>581.0</ele><time>2026-04-22T11:24:34.318Z</time></trkpt><trkpt lat="39.3489727" lon="8.4630181"><ele>581.0</ele><time>2026-04-22T11:24:35.318Z</time></trkpt><trkpt lat="39.3489171" lon="8.4629681"><ele>581.0</ele><time>2026-04-22T11:24:36.319Z</time></trkpt><trkpt lat="39.3488592" lon="8.4629243"><ele>581.0</ele><time>2026-04-22T11:24:37.319Z</time></trkpt><trkpt lat="39.3488021" lon="8.4628789"><ele>581.0</ele><time>2026-04-22T11:24:38.318Z</time></trkpt><trkpt lat="39.348696" lon="8.4628253"><ele>580.3333333333333</ele><time>2026-04-22T11:24:40.318Z</time></trkpt><trkpt lat="39.348593" lon="8.4628209"><ele>579.6666666666666</ele><time>2026-04-22T11:24:42.318Z</time></trkpt><trkpt lat="39.348478" lon="8.4628413"><ele>579.0</ele><time>2026-04-22T11:24:44.319Z</time></trkpt><trkpt lat="39.3484141" lon="8.4628533"><ele>578.3333333333334</ele><time>2026-04-22T11:24:45.319Z</time></trkpt><trkpt lat="39.3483444" lon="8.4628685"><ele>577.6666666666667</ele><time>2026-04-22T11:24:46.319Z</time></trkpt><trkpt lat="39.3482773" lon="8.4628881"><ele>577.0</ele><time>2026-04-22T11:24:47.319Z</time></trkpt><trkpt lat="39.3482131" lon="8.4629101"><ele>577.0</ele><time>2026-04-22T11:24:48.319Z</time></trkpt><trkpt lat="39.3481511" lon="8.462934"><ele>577.0</ele><time>2026-04-22T11:24:49.319Z</time></trkpt><trkpt lat="39.3479437" lon="8.4630646"><ele>577.0</ele><time>2026-04-22T11:24:53.318Z</time></trkpt><trkpt lat="39.3478376" lon="8.4630741"><ele>577.0</ele><time>2026-04-22T11:24:55.318Z</time></trkpt><trkpt lat="39.3477281" lon="8.4630645"><ele>576.1428571428571</ele><time>2026-04-22T11:24:57.319Z</time></trkpt><trkpt lat="39.3476191" lon="8.463027"><ele>575.2857142857143</ele><time>2026-04-22T11:24:59.318Z</time></trkpt><trkpt lat="39.3475593" lon="8.4629968"><ele>574.4285714285714</ele><time>2026-04-22T11:25:00.318Z</time></trkpt><trkpt lat="39.3474974" lon="8.4629675"><ele>573.5714285714286</ele><time>2026-04-22T11:25:01.319Z</time></trkpt><trkpt lat="39.3474361" lon="8.462947"><ele>572.7142857142857</ele><time>2026-04-22T11:25:02.318Z</time></trkpt><trkpt lat="39.3473676" lon="8.4629302"><ele>571.8571428571429</ele><time>2026-04-22T11:25:03.319Z</time></trkpt><trkpt lat="39.3472997" lon="8.4629125"><ele>571.0</ele><time>2026-04-22T11:25:04.319Z</time></trkpt><trkpt lat="39.3472311" lon="8.4628904"><ele>568.5</ele><time>2026-04-22T11:25:05.319Z</time></trkpt><trkpt lat="39.3471604" lon="8.4628688"><ele>566.0</ele><time>2026-04-22T11:25:06.319Z</time></trkpt><trkpt lat="39.3470916" lon="8.4628542"><ele>563.5</ele><time>2026-04-22T11:25:07.318Z</time></trkpt><trkpt lat="39.3470175" lon="8.4628468"><ele>561.0</ele><time>2026-04-22T11:25:08.318Z</time></trkpt><trkpt lat="39.3469483" lon="8.4628448"><ele>558.5</ele><time>2026-04-22T11:25:09.319Z</time></trkpt><trkpt lat="39.3468775" lon="8.4628391"><ele>556.0</ele><time>2026-04-22T11:25:10.319Z</time></trkpt><trkpt lat="39.3467186" lon="8.4628001"><ele>556.0</ele><time>2026-04-22T11:25:12.319Z</time></trkpt><trkpt lat="39.3466398" lon="8.4627782"><ele>556.0</ele><time>2026-04-22T11:25:13.318Z</time></trkpt><trkpt lat="39.3465687" lon="8.4627661"><ele>556.0</ele><time>2026-04-22T11:25:14.318Z</time></trkpt><trkpt lat="39.3464967" lon="8.4627593"><ele>556.0</ele><time>2026-04-22T11:25:15.318Z</time></trkpt><trkpt lat="39.3464245" lon="8.4627653"><ele>556.0</ele><time>2026-04-22T11:25:16.319Z</time></trkpt><trkpt lat="39.3463523" lon="8.4627722"><ele>556.0</ele><time>2026-04-22T11:25:17.319Z</time></trkpt><trkpt lat="39.3462854" lon="8.4627727"><ele>556.0</ele><time>2026-04-22T11:25:18.319Z</time></trkpt><trkpt lat="39.3462185" lon="8.4627639"><ele>553.0</ele><time>2026-04-22T11:25:19.319Z</time></trkpt><trkpt lat="39.346144" lon="8.4627378"><ele>550.0</ele><time>2026-04-22T11:25:20.319Z</time></trkpt><trkpt lat="39.3460646" lon="8.4627051"><ele>547.0</ele><time>2026-04-22T11:25:21.318Z</time></trkpt><trkpt lat="39.3459847" lon="8.4626735"><ele>544.0</ele><time>2026-04-22T11:25:22.319Z</time></trkpt><trkpt lat="39.3459098" lon="8.462638"><ele>541.0</ele><time>2026-04-22T11:25:23.319Z</time></trkpt><trkpt lat="39.3458312" lon="8.4625982"><ele>538.0</ele><time>2026-04-22T11:25:24.318Z</time></trkpt><trkpt lat="39.3457511" lon="8.4625578"><ele>538.0</ele><time>2026-04-22T11:25:25.319Z</time></trkpt><trkpt lat="39.3456695" lon="8.4625212"><ele>538.0</ele><time>2026-04-22T11:25:26.319Z</time></trkpt><trkpt lat="39.3455931" lon="8.4624922"><ele>538.0</ele><time>2026-04-22T11:25:27.318Z</time></trkpt><trkpt lat="39.3455211" lon="8.4624691"><ele>538.0</ele><time>2026-04-22T11:25:28.319Z</time></trkpt><trkpt lat="39.3454578" lon="8.4624536"><ele>538.0</ele><time>2026-04-22T11:25:29.319Z</time></trkpt><trkpt lat="39.3453421" lon="8.462417"><ele>538.0</ele><time>2026-04-22T11:25:31.319Z</time></trkpt><trkpt lat="39.3451452" lon="8.4624131"><ele>535.8333333333334</ele><time>2026-04-22T11:25:35.318Z</time></trkpt><trkpt lat="39.3450288" lon="8.4624674"><ele>533.6666666666667</ele><time>2026-04-22T11:25:37.319Z</time></trkpt><trkpt lat="39.3449609" lon="8.4624795"><ele>531.5</ele><time>2026-04-22T11:25:38.319Z</time></trkpt><trkpt lat="39.3448811" lon="8.4624876"><ele>529.3333333333334</ele><time>2026-04-22T11:25:39.319Z</time></trkpt><trkpt lat="39.3447974" lon="8.4624909"><ele>527.1666666666666</ele><time>2026-04-22T11:25:40.319Z</time></trkpt><trkpt lat="39.3447084" lon="8.4624895"><ele>525.0</ele><time>2026-04-22T11:25:41.319Z</time></trkpt><trkpt lat="39.3446192" lon="8.4624878"><ele>524.6666666666666</ele><time>2026-04-22T11:25:42.319Z</time></trkpt><trkpt lat="39.3445345" lon="8.4624856"><ele>524.3333333333334</ele><time>2026-04-22T11:25:43.318Z</time></trkpt><trkpt lat="39.3444578" lon="8.4624846"><ele>524.0</ele><time>2026-04-22T11:25:44.319Z</time></trkpt><trkpt lat="39.3443871" lon="8.4624897"><ele>523.6666666666667</ele><time>2026-04-22T11:25:45.319Z</time></trkpt><trkpt lat="39.3443177" lon="8.4625031"><ele>523.3333333333334</ele><time>2026-04-22T11:25:46.319Z</time></trkpt><trkpt lat="39.3442452" lon="8.4625215"><ele>523.0</ele><time>2026-04-22T11:25:47.319Z</time></trkpt><trkpt lat="39.3441706" lon="8.4625409"><ele>523.0</ele><time>2026-04-22T11:25:48.318Z</time></trkpt><trkpt lat="39.3440932" lon="8.462557"><ele>523.0</ele><time>2026-04-22T11:25:49.319Z</time></trkpt><trkpt lat="39.3440107" lon="8.462571"><ele>523.0</ele><time>2026-04-22T11:25:50.318Z</time></trkpt><trkpt lat="39.3439294" lon="8.462587"><ele>523.0</ele><time>2026-04-22T11:25:51.318Z</time></trkpt><trkpt lat="39.3438381" lon="8.4626067"><ele>523.0</ele><time>2026-04-22T11:25:52.318Z</time></trkpt><trkpt lat="39.3436546" lon="8.4626398"><ele>523.0</ele><time>2026-04-22T11:25:54.319Z</time></trkpt><trkpt lat="39.34357" lon="8.4626516"><ele>523.0</ele><time>2026-04-22T11:25:55.319Z</time></trkpt><trkpt lat="39.3434881" lon="8.462668"><ele>523.0</ele><time>2026-04-22T11:25:56.319Z</time></trkpt><trkpt lat="39.343408" lon="8.4626845"><ele>523.0</ele><time>2026-04-22T11:25:57.319Z</time></trkpt><trkpt lat="39.3433285" lon="8.4626915"><ele>523.0</ele><time>2026-04-22T11:25:58.319Z</time></trkpt><trkpt lat="39.3432462" lon="8.4627001"><ele>523.0</ele><time>2026-04-22T11:25:59.319Z</time></trkpt><trkpt lat="39.3431639" lon="8.4627155"><ele>523.0</ele><time>2026-04-22T11:26:00.318Z</time></trkpt><trkpt lat="39.3430732" lon="8.4627335"><ele>523.0</ele><time>2026-04-22T11:26:01.319Z</time></trkpt><trkpt lat="39.3429874" lon="8.4627575"><ele>523.0</ele><time>2026-04-22T11:26:02.319Z</time></trkpt><trkpt lat="39.3428983" lon="8.4627764"><ele>523.0</ele><time>2026-04-22T11:26:03.319Z</time></trkpt><trkpt lat="39.3428113" lon="8.4627908"><ele>523.0</ele><time>2026-04-22T11:26:04.319Z</time></trkpt><trkpt lat="39.3427279" lon="8.4628125"><ele>523.0</ele><time>2026-04-22T11:26:05.319Z</time></trkpt><trkpt lat="39.3426427" lon="8.4628481"><ele>523.8</ele><time>2026-04-22T11:26:06.318Z</time></trkpt><trkpt lat="39.3425656" lon="8.4628917"><ele>524.5999999999999</ele><time>2026-04-22T11:26:07.318Z</time></trkpt><trkpt lat="39.3424908" lon="8.4629512"><ele>525.4000000000001</ele><time>2026-04-22T11:26:08.318Z</time></trkpt><trkpt lat="39.3424202" lon="8.4630179"><ele>526.2</ele><time>2026-04-22T11:26:09.318Z</time></trkpt><trkpt lat="39.3423492" lon="8.4631007"><ele>527.0</ele><time>2026-04-22T11:26:10.319Z</time></trkpt><trkpt lat="39.342279" lon="8.4631865"><ele>525.8000000000001</ele><time>2026-04-22T11:26:11.319Z</time></trkpt><trkpt lat="39.3422122" lon="8.4632687"><ele>524.6</ele><time>2026-04-22T11:26:12.319Z</time></trkpt><trkpt lat="39.3421513" lon="8.4633497"><ele>523.4000000000001</ele><time>2026-04-22T11:26:13.319Z</time></trkpt><trkpt lat="39.3420541" lon="8.4634929"><ele>522.2</ele><time>2026-04-22T11:26:15.318Z</time></trkpt><trkpt lat="39.3419988" lon="8.4636175"><ele>521.0</ele><time>2026-04-22T11:26:17.318Z</time></trkpt><trkpt lat="39.3419807" lon="8.4637519"><ele>519.1666666666666</ele><time>2026-04-22T11:26:19.318Z</time></trkpt><trkpt lat="39.3419533" lon="8.4638762"><ele>517.3333333333333</ele><time>2026-04-22T11:26:21.319Z</time></trkpt><trkpt lat="39.3419614" lon="8.4640114"><ele>515.5</ele><time>2026-04-22T11:26:23.319Z</time></trkpt><trkpt lat="39.3419881" lon="8.4640961"><ele>513.6666666666666</ele><time>2026-04-22T11:26:24.318Z</time></trkpt><trkpt lat="39.3420151" lon="8.4641903"><ele>511.8333333333333</ele><time>2026-04-22T11:26:25.318Z</time></trkpt><trkpt lat="39.3420359" lon="8.4642847"><ele>510.0</ele><time>2026-04-22T11:26:26.319Z</time></trkpt><trkpt lat="39.3420493" lon="8.4643724"><ele>510.0</ele><time>2026-04-22T11:26:27.319Z</time></trkpt><trkpt lat="39.342062" lon="8.4644543"><ele>510.00000000000006</ele><time>2026-04-22T11:26:28.319Z</time></trkpt><trkpt lat="39.3420638" lon="8.4645358"><ele>510.0</ele><time>2026-04-22T11:26:29.319Z</time></trkpt><trkpt lat="39.3420592" lon="8.4646186"><ele>510.0</ele><time>2026-04-22T11:26:30.319Z</time></trkpt><trkpt lat="39.3420532" lon="8.4647073"><ele>510.00000000000006</ele><time>2026-04-22T11:26:31.319Z</time></trkpt><trkpt lat="39.3420404" lon="8.4648059"><ele>510.0</ele><time>2026-04-22T11:26:32.319Z</time></trkpt><trkpt lat="39.342016" lon="8.4649039"><ele>510.0</ele><time>2026-04-22T11:26:33.318Z</time></trkpt><trkpt lat="39.3419774" lon="8.4650963"><ele>509.0</ele><time>2026-04-22T11:26:35.319Z</time></trkpt><trkpt lat="39.3419668" lon="8.4651833"><ele>508.0</ele><time>2026-04-22T11:26:36.318Z</time></trkpt><trkpt lat="39.3419404" lon="8.4653336"><ele>507.0</ele><time>2026-04-22T11:26:38.319Z</time></trkpt><trkpt lat="39.3419064" lon="8.4654045"><ele>506.0</ele><time>2026-04-22T11:26:39.319Z</time></trkpt><trkpt lat="39.3418652" lon="8.4654824"><ele>505.0</ele><time>2026-04-22T11:26:40.319Z</time></trkpt><trkpt lat="39.3418317" lon="8.4655675"><ele>504.0</ele><time>2026-04-22T11:26:41.319Z</time></trkpt><trkpt lat="39.341805" lon="8.4656542"><ele>502.8571428571429</ele><time>2026-04-22T11:26:42.319Z</time></trkpt><trkpt lat="39.3417803" lon="8.4657411"><ele>501.7142857142857</ele><time>2026-04-22T11:26:43.319Z</time></trkpt><trkpt lat="39.3417602" lon="8.4658292"><ele>500.57142857142856</ele><time>2026-04-22T11:26:44.319Z</time></trkpt><trkpt lat="39.341745" lon="8.4659188"><ele>499.42857142857144</ele><time>2026-04-22T11:26:45.318Z</time></trkpt><trkpt lat="39.3417383" lon="8.4660061"><ele>498.28571428571433</ele><time>2026-04-22T11:26:46.318Z</time></trkpt><trkpt lat="39.3417367" lon="8.4660929"><ele>497.14285714285717</ele><time>2026-04-22T11:26:47.319Z</time></trkpt><trkpt lat="39.3417406" lon="8.4661768"><ele>496.0</ele><time>2026-04-22T11:26:48.319Z</time></trkpt><trkpt lat="39.3417446" lon="8.4663252"><ele>493.8</ele><time>2026-04-22T11:26:50.319Z</time></trkpt><trkpt lat="39.3417119" lon="8.4664789"><ele>491.6</ele><time>2026-04-22T11:26:52.319Z</time></trkpt><trkpt lat="39.3416763" lon="8.4665576"><ele>489.4</ele><time>2026-04-22T11:26:53.319Z</time></trkpt><trkpt lat="39.3416299" lon="8.4666424"><ele>487.2</ele><time>2026-04-22T11:26:54.319Z</time></trkpt><trkpt lat="39.3415584" lon="8.4668153"><ele>485.0</ele><time>2026-04-22T11:26:56.319Z</time></trkpt><trkpt lat="39.3415413" lon="8.4669153"><ele>485.0</ele><time>2026-04-22T11:26:57.319Z</time></trkpt><trkpt lat="39.3415264" lon="8.46703"><ele>485.0</ele><time>2026-04-22T11:26:58.319Z</time></trkpt><trkpt lat="39.3415098" lon="8.4671426"><ele>485.0</ele><time>2026-04-22T11:26:59.319Z</time></trkpt><trkpt lat="39.3414945" lon="8.4672323"><ele>485.0</ele><time>2026-04-22T11:27:00.318Z</time></trkpt><trkpt lat="39.3414609" lon="8.4673694"><ele>485.0</ele><time>2026-04-22T11:27:02.319Z</time></trkpt><trkpt lat="39.3414356" lon="8.4674922"><ele>483.99999999999994</ele><time>2026-04-22T11:27:04.319Z</time></trkpt><trkpt lat="39.3414738" lon="8.4676217"><ele>483.0</ele><time>2026-04-22T11:27:06.319Z</time></trkpt><trkpt lat="39.3415311" lon="8.4677049"><ele>482.0</ele><time>2026-04-22T11:27:07.319Z</time></trkpt><trkpt lat="39.3415845" lon="8.4677934"><ele>481.0</ele><time>2026-04-22T11:27:08.318Z</time></trkpt><trkpt lat="39.341613" lon="8.4678799"><ele>479.99999999999994</ele><time>2026-04-22T11:27:09.319Z</time></trkpt><trkpt lat="39.3416302" lon="8.4679638"><ele>479.0</ele><time>2026-04-22T11:27:10.318Z</time></trkpt><trkpt lat="39.3416266" lon="8.4680478"><ele>479.0</ele><time>2026-04-22T11:27:11.319Z</time></trkpt><trkpt lat="39.3415664" lon="8.4681673"><ele>479.0</ele><time>2026-04-22T11:27:13.318Z</time></trkpt><trkpt lat="39.341435" lon="8.4681926"><ele>479.0</ele><time>2026-04-22T11:27:15.319Z</time></trkpt><trkpt lat="39.3412822" lon="8.4681972"><ele>479.0</ele><time>2026-04-22T11:27:17.319Z</time></trkpt><trkpt lat="39.3412178" lon="8.4682112"><ele>478.3333333333333</ele><time>2026-04-22T11:27:18.319Z</time></trkpt><trkpt lat="39.3411535" lon="8.4682351"><ele>477.66666666666663</ele><time>2026-04-22T11:27:19.319Z</time></trkpt><trkpt lat="39.3410856" lon="8.4682761"><ele>477.0</ele><time>2026-04-22T11:27:20.319Z</time></trkpt><trkpt lat="39.3410144" lon="8.4683318"><ele>476.33333333333337</ele><time>2026-04-22T11:27:21.319Z</time></trkpt><trkpt lat="39.3409419" lon="8.4683875"><ele>475.6666666666667</ele><time>2026-04-22T11:27:22.319Z</time></trkpt><trkpt lat="39.3408575" lon="8.468421"><ele>475.0</ele><time>2026-04-22T11:27:23.319Z</time></trkpt><trkpt lat="39.3407704" lon="8.4684361"><ele>475.0</ele><time>2026-04-22T11:27:24.319Z</time></trkpt><trkpt lat="39.3406905" lon="8.4684455"><ele>475.00000000000006</ele><time>2026-04-22T11:27:25.318Z</time></trkpt><trkpt lat="39.3406132" lon="8.4684561"><ele>475.0</ele><time>2026-04-22T11:27:26.319Z</time></trkpt><trkpt lat="39.3405387" lon="8.4684612"><ele>475.0</ele><time>2026-04-22T11:27:27.318Z</time></trkpt><trkpt lat="39.3404697" lon="8.4684724"><ele>475.00000000000006</ele><time>2026-04-22T11:27:28.319Z</time></trkpt><trkpt lat="39.3403991" lon="8.4684863"><ele>475.0</ele><time>2026-04-22T11:27:29.318Z</time></trkpt><trkpt lat="39.3403334" lon="8.4685135"><ele>475.0</ele><time>2026-04-22T11:27:30.319Z</time></trkpt><trkpt lat="39.3402134" lon="8.4686011"><ele>475.0</ele><time>2026-04-22T11:27:32.318Z</time></trkpt><trkpt lat="39.3401429" lon="8.4686466"><ele>475.0</ele><time>2026-04-22T11:27:33.319Z</time></trkpt><trkpt lat="39.3400709" lon="8.4686856"><ele>475.0</ele><time>2026-04-22T11:27:34.319Z</time></trkpt><trkpt lat="39.3399962" lon="8.4687198"><ele>475.0</ele><time>2026-04-22T11:27:35.319Z</time></trkpt><trkpt lat="39.3398457" lon="8.468781"><ele>475.0</ele><time>2026-04-22T11:27:37.319Z</time></trkpt><trkpt lat="39.3397678" lon="8.4688044"><ele>474.14285714285717</ele><time>2026-04-22T11:27:38.319Z</time></trkpt><trkpt lat="39.3396947" lon="8.4688159"><ele>473.28571428571433</ele><time>2026-04-22T11:27:39.319Z</time></trkpt><trkpt lat="39.3396243" lon="8.4688235"><ele>472.42857142857144</ele><time>2026-04-22T11:27:40.319Z</time></trkpt><trkpt lat="39.3395562" lon="8.468827"><ele>471.57142857142856</ele><time>2026-04-22T11:27:41.319Z</time></trkpt><trkpt lat="39.3394891" lon="8.468838"><ele>470.7142857142857</ele><time>2026-04-22T11:27:42.319Z</time></trkpt><trkpt lat="39.3394318" lon="8.4688753"><ele>469.8571428571429</ele><time>2026-04-22T11:27:43.319Z</time></trkpt><trkpt lat="39.339376" lon="8.4689367"><ele>469.0</ele><time>2026-04-22T11:27:44.319Z</time></trkpt><trkpt lat="39.3393183" lon="8.4690007"><ele>469.00000000000006</ele><time>2026-04-22T11:27:45.319Z</time></trkpt><trkpt lat="39.3392562" lon="8.4690605"><ele>469.0</ele><time>2026-04-22T11:27:46.318Z</time></trkpt><trkpt lat="39.3391936" lon="8.469111"><ele>469.0</ele><time>2026-04-22T11:27:47.319Z</time></trkpt><trkpt lat="39.3391149" lon="8.46915"><ele>469.0</ele><time>2026-04-22T11:27:48.319Z</time></trkpt><trkpt lat="39.3390319" lon="8.4691852"><ele>469.00000000000006</ele><time>2026-04-22T11:27:49.319Z</time></trkpt><trkpt lat="39.3389571" lon="8.4692217"><ele>469.0</ele><time>2026-04-22T11:27:50.318Z</time></trkpt><trkpt lat="39.3388887" lon="8.4692526"><ele>467.75</ele><time>2026-04-22T11:27:51.319Z</time></trkpt><trkpt lat="39.3387743" lon="8.4693042"><ele>466.5</ele><time>2026-04-22T11:27:53.319Z</time></trkpt><trkpt lat="39.3386749" lon="8.4693547"><ele>465.25</ele><time>2026-04-22T11:27:55.319Z</time></trkpt><trkpt lat="39.3386041" lon="8.4693599"><ele>464.0</ele><time>2026-04-22T11:27:57.319Z</time></trkpt><trkpt lat="39.3383953" lon="8.4693771"><ele>464.00000000000006</ele><time>2026-04-22T11:28:01.318Z</time></trkpt><trkpt lat="39.3383264" lon="8.4693786"><ele>464.0</ele><time>2026-04-22T11:28:02.318Z</time></trkpt><trkpt lat="39.3382543" lon="8.4693777"><ele>464.00000000000006</ele><time>2026-04-22T11:28:03.318Z</time></trkpt><trkpt lat="39.3381878" lon="8.4693768"><ele>464.00000000000006</ele><time>2026-04-22T11:28:04.319Z</time></trkpt><trkpt lat="39.3381173" lon="8.4693644"><ele>464.0</ele><time>2026-04-22T11:28:05.319Z</time></trkpt><trkpt lat="39.3380506" lon="8.4693452"><ele>464.00000000000006</ele><time>2026-04-22T11:28:06.319Z</time></trkpt><trkpt lat="39.3379863" lon="8.4693303"><ele>464.00000000000006</ele><time>2026-04-22T11:28:07.318Z</time></trkpt><trkpt lat="39.337923" lon="8.469326"><ele>464.79999999999995</ele><time>2026-04-22T11:28:08.318Z</time></trkpt><trkpt lat="39.3378575" lon="8.4693332"><ele>465.59999999999997</ele><time>2026-04-22T11:28:09.319Z</time></trkpt><trkpt lat="39.3377902" lon="8.469345"><ele>466.4</ele><time>2026-04-22T11:28:10.319Z</time></trkpt><trkpt lat="39.3376743" lon="8.4693598"><ele>467.2</ele><time>2026-04-22T11:28:12.319Z</time></trkpt><trkpt lat="39.3375575" lon="8.4693575"><ele>468.0</ele><time>2026-04-22T11:28:14.318Z</time></trkpt><trkpt lat="39.3374507" lon="8.4693285"><ele>468.0</ele><time>2026-04-22T11:28:16.319Z</time></trkpt><trkpt lat="39.3373377" lon="8.4692875"><ele>468.0</ele><time>2026-04-22T11:28:18.318Z</time></trkpt><trkpt lat="39.3371627" lon="8.4693197"><ele>468.0</ele><time>2026-04-22T11:28:22.319Z</time></trkpt><trkpt lat="39.3371316" lon="8.4694265"><ele>468.0</ele><time>2026-04-22T11:28:24.319Z</time></trkpt><trkpt lat="39.3371516" lon="8.4695464"><ele>466.0</ele><time>2026-04-22T11:28:26.319Z</time></trkpt><trkpt lat="39.3371919" lon="8.4696695"><ele>464.0</ele><time>2026-04-22T11:28:28.319Z</time></trkpt><trkpt lat="39.3372189" lon="8.4698167"><ele>462.0</ele><time>2026-04-22T11:28:30.318Z</time></trkpt><trkpt lat="39.3372262" lon="8.4699038"><ele>460.0</ele><time>2026-04-22T11:28:31.318Z</time></trkpt><trkpt lat="39.3372278" lon="8.4699964"><ele>458.0</ele><time>2026-04-22T11:28:32.318Z</time></trkpt><trkpt lat="39.3372275" lon="8.4700956"><ele>456.0</ele><time>2026-04-22T11:28:33.319Z</time></trkpt><trkpt lat="39.3372167" lon="8.4701902"><ele>460.0</ele><time>2026-04-22T11:28:34.319Z</time></trkpt><trkpt lat="39.3372017" lon="8.4702795"><ele>464.0</ele><time>2026-04-22T11:28:35.319Z</time></trkpt><trkpt lat="39.3371784" lon="8.4703662"><ele>468.0</ele><time>2026-04-22T11:28:36.319Z</time></trkpt><trkpt lat="39.3371599" lon="8.4704605"><ele>472.0</ele><time>2026-04-22T11:28:37.319Z</time></trkpt><trkpt lat="39.337141" lon="8.4705584"><ele>476.0</ele><time>2026-04-22T11:28:38.319Z</time></trkpt><trkpt lat="39.3370992" lon="8.4707248"><ele>480.0</ele><time>2026-04-22T11:28:40.318Z</time></trkpt><trkpt lat="39.3370745" lon="8.4707999"><ele>480.0</ele><time>2026-04-22T11:28:41.319Z</time></trkpt><trkpt lat="39.3370374" lon="8.4708881"><ele>480.0</ele><time>2026-04-22T11:28:42.319Z</time></trkpt><trkpt lat="39.3369894" lon="8.4709728"><ele>480.0</ele><time>2026-04-22T11:28:43.318Z</time></trkpt><trkpt lat="39.3369388" lon="8.4710677"><ele>480.0</ele><time>2026-04-22T11:28:44.318Z</time></trkpt><trkpt lat="39.3368916" lon="8.47116"><ele>480.0</ele><time>2026-04-22T11:28:45.318Z</time></trkpt><trkpt lat="39.3368455" lon="8.4712491"><ele>480.0</ele><time>2026-04-22T11:28:46.318Z</time></trkpt><trkpt lat="39.3367998" lon="8.4713348"><ele>477.5</ele><time>2026-04-22T11:28:47.317Z</time></trkpt><trkpt lat="39.3367554" lon="8.4714133"><ele>475.0</ele><time>2026-04-22T11:28:48.318Z</time></trkpt><trkpt lat="39.3367052" lon="8.471488"><ele>472.5</ele><time>2026-04-22T11:28:49.317Z</time></trkpt><trkpt lat="39.3366576" lon="8.4715557"><ele>470.0</ele><time>2026-04-22T11:28:50.318Z</time></trkpt><trkpt lat="39.3365915" lon="8.4716681"><ele>467.5</ele><time>2026-04-22T11:28:52.317Z</time></trkpt><trkpt lat="39.3365484" lon="8.4717556"><ele>465.0</ele><time>2026-04-22T11:28:54.318Z</time></trkpt><trkpt lat="39.3365019" lon="8.4718832"><ele>465.0</ele><time>2026-04-22T11:28:56.317Z</time></trkpt><trkpt lat="39.3364521" lon="8.4720108"><ele>465.0</ele><time>2026-04-22T11:28:58.318Z</time></trkpt><trkpt lat="39.3364256" lon="8.4720868"><ele>465.0</ele><time>2026-04-22T11:28:59.318Z</time></trkpt><trkpt lat="39.3363751" lon="8.4722728"><ele>465.0</ele><time>2026-04-22T11:29:01.317Z</time></trkpt><trkpt lat="39.3363598" lon="8.4723608"><ele>465.0</ele><time>2026-04-22T11:29:02.318Z</time></trkpt><trkpt lat="39.3363457" lon="8.4724436"><ele>466.8</ele><time>2026-04-22T11:29:03.317Z</time></trkpt><trkpt lat="39.3363179" lon="8.4725815"><ele>468.6</ele><time>2026-04-22T11:29:05.318Z</time></trkpt><trkpt lat="39.336309" lon="8.4727133"><ele>470.4</ele><time>2026-04-22T11:29:07.317Z</time></trkpt><trkpt lat="39.3362896" lon="8.4728432"><ele>472.2</ele><time>2026-04-22T11:29:09.318Z</time></trkpt><trkpt lat="39.3362564" lon="8.4729474"><ele>474.0</ele><time>2026-04-22T11:29:11.318Z</time></trkpt><trkpt lat="39.3361836" lon="8.4730418"><ele>474.0</ele><time>2026-04-22T11:29:13.317Z</time></trkpt><trkpt lat="39.3361314" lon="8.4730947"><ele>474.0</ele><time>2026-04-22T11:29:14.318Z</time></trkpt><trkpt lat="39.3360706" lon="8.4731297"><ele>474.0</ele><time>2026-04-22T11:29:15.318Z</time></trkpt><trkpt lat="39.335972" lon="8.4731933"><ele>474.0</ele><time>2026-04-22T11:29:17.317Z</time></trkpt><trkpt lat="39.3358908" lon="8.4732477"><ele>474.0</ele><time>2026-04-22T11:29:19.317Z</time></trkpt><trkpt lat="39.3357722" lon="8.4732711"><ele>474.0</ele><time>2026-04-22T11:29:21.318Z</time></trkpt><trkpt lat="39.3355812" lon="8.4732622"><ele>474.0</ele><time>2026-04-22T11:29:24.318Z</time></trkpt><trkpt lat="39.3354718" lon="8.4732539"><ele>474.0</ele><time>2026-04-22T11:29:26.318Z</time></trkpt><trkpt lat="39.3353614" lon="8.4732592"><ele>474.0</ele><time>2026-04-22T11:29:28.318Z</time></trkpt><trkpt lat="39.3352465" lon="8.4733008"><ele>473.6</ele><time>2026-04-22T11:29:30.318Z</time></trkpt><trkpt lat="39.3351132" lon="8.4733453"><ele>473.2</ele><time>2026-04-22T11:29:32.317Z</time></trkpt><trkpt lat="39.3350464" lon="8.4733712"><ele>472.80000000000007</ele><time>2026-04-22T11:29:33.317Z</time></trkpt><trkpt lat="39.3349806" lon="8.4733925"><ele>472.40000000000003</ele><time>2026-04-22T11:29:34.318Z</time></trkpt><trkpt lat="39.334914" lon="8.4734098"><ele>472.0</ele><time>2026-04-22T11:29:35.318Z</time></trkpt><trkpt lat="39.3347883" lon="8.4734635"><ele>472.0</ele><time>2026-04-22T11:29:37.318Z</time></trkpt><trkpt lat="39.3347263" lon="8.4734902"><ele>472.0</ele><time>2026-04-22T11:29:38.318Z</time></trkpt><trkpt lat="39.3346595" lon="8.4735668"><ele>472.0</ele><time>2026-04-22T11:29:40.318Z</time></trkpt><trkpt lat="39.3346422" lon="8.4736755"><ele>472.0</ele><time>2026-04-22T11:29:42.317Z</time></trkpt><trkpt lat="39.334631" lon="8.4739813"><ele>471.00000000000006</ele><time>2026-04-22T11:29:46.317Z</time></trkpt><trkpt lat="39.3346544" lon="8.4740679"><ele>470.0</ele><time>2026-04-22T11:29:47.318Z</time></trkpt><trkpt lat="39.3346871" lon="8.4741556"><ele>469.0</ele><time>2026-04-22T11:29:48.318Z</time></trkpt><trkpt lat="39.3347163" lon="8.4742421"><ele>468.0</ele><time>2026-04-22T11:29:49.318Z</time></trkpt><trkpt lat="39.334737" lon="8.4743253"><ele>467.00000000000006</ele><time>2026-04-22T11:29:50.318Z</time></trkpt><trkpt lat="39.3347512" lon="8.4744798"><ele>466.0</ele><time>2026-04-22T11:29:52.318Z</time></trkpt><trkpt lat="39.3347354" lon="8.4745714"><ele>462.6666666666667</ele><time>2026-04-22T11:29:53.318Z</time></trkpt><trkpt lat="39.3347048" lon="8.4746726"><ele>459.33333333333337</ele><time>2026-04-22T11:29:54.318Z</time></trkpt><trkpt lat="39.3346739" lon="8.4747767"><ele>456.0</ele><time>2026-04-22T11:29:55.318Z</time></trkpt><trkpt lat="39.3346511" lon="8.4748838"><ele>452.66666666666663</ele><time>2026-04-22T11:29:56.317Z</time></trkpt><trkpt lat="39.3346304" lon="8.474993"><ele>449.3333333333333</ele><time>2026-04-22T11:29:57.318Z</time></trkpt><trkpt lat="39.334609" lon="8.4751076"><ele>446.0</ele><time>2026-04-22T11:29:58.318Z</time></trkpt><trkpt lat="39.3345931" lon="8.4752165"><ele>446.0</ele><time>2026-04-22T11:29:59.318Z</time></trkpt><trkpt lat="39.3345766" lon="8.4753236"><ele>446.0</ele><time>2026-04-22T11:30:00.318Z</time></trkpt><trkpt lat="39.3345602" lon="8.4754274"><ele>446.0</ele><time>2026-04-22T11:30:01.318Z</time></trkpt><trkpt lat="39.3345437" lon="8.4755228"><ele>446.0</ele><time>2026-04-22T11:30:02.317Z</time></trkpt><trkpt lat="39.3345198" lon="8.4756137"><ele>446.0</ele><time>2026-04-22T11:30:03.318Z</time></trkpt><trkpt lat="39.3344319" lon="8.4758079"><ele>444.4</ele><time>2026-04-22T11:30:05.317Z</time></trkpt><trkpt lat="39.3343736" lon="8.4759119"><ele>442.8</ele><time>2026-04-22T11:30:06.318Z</time></trkpt><trkpt lat="39.334314" lon="8.4760095"><ele>441.19999999999993</ele><time>2026-04-22T11:30:07.318Z</time></trkpt><trkpt lat="39.3342545" lon="8.4760942"><ele>439.59999999999997</ele><time>2026-04-22T11:30:08.318Z</time></trkpt><trkpt lat="39.3341992" lon="8.4761784"><ele>438.0</ele><time>2026-04-22T11:30:09.318Z</time></trkpt><trkpt lat="39.3341443" lon="8.4762631"><ele>438.8333333333333</ele><time>2026-04-22T11:30:10.318Z</time></trkpt><trkpt lat="39.3340943" lon="8.4763505"><ele>439.66666666666663</ele><time>2026-04-22T11:30:11.318Z</time></trkpt><trkpt lat="39.334044" lon="8.4764396"><ele>440.5</ele><time>2026-04-22T11:30:12.318Z</time></trkpt><trkpt lat="39.3339861" lon="8.4765251"><ele>441.3333333333333</ele><time>2026-04-22T11:30:13.317Z</time></trkpt><trkpt lat="39.3339319" lon="8.4766098"><ele>442.16666666666663</ele><time>2026-04-22T11:30:14.318Z</time></trkpt><trkpt lat="39.3338792" lon="8.4766967"><ele>443.0</ele><time>2026-04-22T11:30:15.318Z</time></trkpt><trkpt lat="39.3338276" lon="8.4767866"><ele>439.8333333333333</ele><time>2026-04-22T11:30:16.318Z</time></trkpt><trkpt lat="39.3337771" lon="8.4768729"><ele>436.66666666666663</ele><time>2026-04-22T11:30:17.318Z</time></trkpt><trkpt lat="39.3337325" lon="8.4769555"><ele>433.5</ele><time>2026-04-22T11:30:18.318Z</time></trkpt><trkpt lat="39.333688" lon="8.4770387"><ele>430.33333333333337</ele><time>2026-04-22T11:30:19.317Z</time></trkpt><trkpt lat="39.3336444" lon="8.4771215"><ele>427.1666666666667</ele><time>2026-04-22T11:30:20.318Z</time></trkpt><trkpt lat="39.3336006" lon="8.477202"><ele>424.0</ele><time>2026-04-22T11:30:21.317Z</time></trkpt><trkpt lat="39.3335479" lon="8.4772809"><ele>424.0</ele><time>2026-04-22T11:30:22.317Z</time></trkpt><trkpt lat="39.3334985" lon="8.4773621"><ele>424.0</ele><time>2026-04-22T11:30:23.317Z</time></trkpt><trkpt lat="39.3334572" lon="8.4774438"><ele>424.0</ele><time>2026-04-22T11:30:24.318Z</time></trkpt><trkpt lat="39.3333899" lon="8.4775919"><ele>424.0</ele><time>2026-04-22T11:30:26.317Z</time></trkpt><trkpt lat="39.3333496" lon="8.4777049"><ele>424.0</ele><time>2026-04-22T11:30:28.317Z</time></trkpt><trkpt lat="39.3333255" lon="8.4777957"><ele>424.00000000000006</ele><time>2026-04-22T11:30:30.317Z</time></trkpt><trkpt lat="39.3333037" lon="8.4778949"><ele>424.0</ele><time>2026-04-22T11:30:32.317Z</time></trkpt><trkpt lat="39.3332719" lon="8.478038"><ele>424.0</ele><time>2026-04-22T11:30:34.318Z</time></trkpt><trkpt lat="39.3332553" lon="8.4781212"><ele>424.0</ele><time>2026-04-22T11:30:35.318Z</time></trkpt><trkpt lat="39.3332453" lon="8.4782133"><ele>424.00000000000006</ele><time>2026-04-22T11:30:36.318Z</time></trkpt><trkpt lat="39.3332411" lon="8.4782987"><ele>424.0</ele><time>2026-04-22T11:30:37.318Z</time></trkpt><trkpt lat="39.3332407" lon="8.4783805"><ele>423.79999999999995</ele><time>2026-04-22T11:30:38.317Z</time></trkpt><trkpt lat="39.3332287" lon="8.4784971"><ele>423.59999999999997</ele><time>2026-04-22T11:30:40.318Z</time></trkpt><trkpt lat="39.3331879" lon="8.4785962"><ele>423.4</ele><time>2026-04-22T11:30:42.317Z</time></trkpt><trkpt lat="39.3331536" lon="8.4787152"><ele>423.2</ele><time>2026-04-22T11:30:44.318Z</time></trkpt><trkpt lat="39.3331216" lon="8.4788273"><ele>423.0</ele><time>2026-04-22T11:30:46.318Z</time></trkpt><trkpt lat="39.3331484" lon="8.4790445"><ele>422.1666666666667</ele><time>2026-04-22T11:30:50.318Z</time></trkpt><trkpt lat="39.3331931" lon="8.4791087"><ele>421.33333333333337</ele><time>2026-04-22T11:30:51.317Z</time></trkpt><trkpt lat="39.3332509" lon="8.4791907"><ele>420.5</ele><time>2026-04-22T11:30:52.318Z</time></trkpt><trkpt lat="39.3333064" lon="8.4792813"><ele>419.6666666666667</ele><time>2026-04-22T11:30:53.318Z</time></trkpt><trkpt lat="39.3333638" lon="8.4793685"><ele>418.83333333333337</ele><time>2026-04-22T11:30:54.318Z</time></trkpt><trkpt lat="39.3334234" lon="8.4794631"><ele>418.0</ele><time>2026-04-22T11:30:55.317Z</time></trkpt><trkpt lat="39.3334716" lon="8.4795486"><ele>418.79999999999995</ele><time>2026-04-22T11:30:56.318Z</time></trkpt><trkpt lat="39.3335135" lon="8.4796196"><ele>419.6</ele><time>2026-04-22T11:30:57.318Z</time></trkpt><trkpt lat="39.3335917" lon="8.4797379"><ele>420.4</ele><time>2026-04-22T11:30:59.317Z</time></trkpt><trkpt lat="39.3336636" lon="8.4798456"><ele>421.20000000000005</ele><time>2026-04-22T11:31:01.317Z</time></trkpt><trkpt lat="39.3337173" lon="8.4799527"><ele>422.0</ele><time>2026-04-22T11:31:03.318Z</time></trkpt><trkpt lat="39.3337479" lon="8.4800539"><ele>422.0</ele><time>2026-04-22T11:31:05.318Z</time></trkpt><trkpt lat="39.3337745" lon="8.4801636"><ele>422.0</ele><time>2026-04-22T11:31:07.318Z</time></trkpt><trkpt lat="39.3338397" lon="8.4804059"><ele>422.0</ele><time>2026-04-22T11:31:11.317Z</time></trkpt><trkpt lat="39.3338641" lon="8.4805494"><ele>422.0</ele><time>2026-04-22T11:31:13.318Z</time></trkpt><trkpt lat="39.3338897" lon="8.4806956"><ele>419.49999999999994</ele><time>2026-04-22T11:31:15.318Z</time></trkpt><trkpt lat="39.333903" lon="8.4808537"><ele>417.0</ele><time>2026-04-22T11:31:17.318Z</time></trkpt><trkpt lat="39.3339066" lon="8.4809358"><ele>414.5</ele><time>2026-04-22T11:31:18.318Z</time></trkpt><trkpt lat="39.3339171" lon="8.4810193"><ele>412.0</ele><time>2026-04-22T11:31:19.317Z</time></trkpt><trkpt lat="39.3339406" lon="8.4810987"><ele>409.49999999999994</ele><time>2026-04-22T11:31:20.317Z</time></trkpt><trkpt lat="39.3339698" lon="8.4811729"><ele>407.0</ele><time>2026-04-22T11:31:21.318Z</time></trkpt><trkpt lat="39.3340156" lon="8.481309"><ele>406.0</ele><time>2026-04-22T11:31:23.318Z</time></trkpt><trkpt lat="39.3340679" lon="8.4814368"><ele>405.0</ele><time>2026-04-22T11:31:25.318Z</time></trkpt><trkpt lat="39.3340965" lon="8.4815601"><ele>404.0</ele><time>2026-04-22T11:31:27.318Z</time></trkpt><trkpt lat="39.3341174" lon="8.4816613"><ele>403.0</ele><time>2026-04-22T11:31:29.318Z</time></trkpt><trkpt lat="39.3341219" lon="8.4818872"><ele>403.00000000000006</ele><time>2026-04-22T11:31:33.318Z</time></trkpt><trkpt lat="39.3340895" lon="8.4819869"><ele>403.0</ele><time>2026-04-22T11:31:35.317Z</time></trkpt><trkpt lat="39.3340289" lon="8.4820734"><ele>403.0</ele><time>2026-04-22T11:31:37.317Z</time></trkpt><trkpt lat="39.3339651" lon="8.4821345"><ele>403.0</ele><time>2026-04-22T11:31:39.318Z</time></trkpt><trkpt lat="39.3338832" lon="8.4822087"><ele>403.00000000000006</ele><time>2026-04-22T11:31:41.317Z</time></trkpt><trkpt lat="39.3338295" lon="8.4822762"><ele>403.0</ele><time>2026-04-22T11:31:42.318Z</time></trkpt><trkpt lat="39.3337751" lon="8.4823549"><ele>407.2</ele><time>2026-04-22T11:31:43.318Z</time></trkpt><trkpt lat="39.3337207" lon="8.4824272"><ele>411.4</ele><time>2026-04-22T11:31:44.318Z</time></trkpt><trkpt lat="39.3335947" lon="8.4825642"><ele>415.59999999999997</ele><time>2026-04-22T11:31:46.318Z</time></trkpt><trkpt lat="39.333531" lon="8.48262"><ele>419.79999999999995</ele><time>2026-04-22T11:31:47.317Z</time></trkpt><trkpt lat="39.3334749" lon="8.4826618"><ele>424.0</ele><time>2026-04-22T11:31:48.317Z</time></trkpt><trkpt lat="39.3333793" lon="8.4827392"><ele>424.0</ele><time>2026-04-22T11:31:50.318Z</time></trkpt><trkpt lat="39.3331774" lon="8.482856"><ele>424.0</ele><time>2026-04-22T11:31:54.318Z</time></trkpt><trkpt lat="39.3330302" lon="8.4829272"><ele>424.0</ele><time>2026-04-22T11:31:57.318Z</time></trkpt><trkpt lat="39.3329499" lon="8.4829752"><ele>424.5</ele><time>2026-04-22T11:31:59.317Z</time></trkpt><trkpt lat="39.33284" lon="8.4830314"><ele>425.0</ele><time>2026-04-22T11:32:01.318Z</time></trkpt><trkpt lat="39.332651" lon="8.4830906"><ele>425.5</ele><time>2026-04-22T11:32:04.318Z</time></trkpt><trkpt lat="39.3325307" lon="8.4830814"><ele>426.0</ele><time>2026-04-22T11:32:06.318Z</time></trkpt><trkpt lat="39.3324548" lon="8.4830528"><ele>426.0</ele><time>2026-04-22T11:32:08.318Z</time></trkpt><trkpt lat="39.3323935" lon="8.4830205"><ele>426.0</ele><time>2026-04-22T11:32:11.317Z</time></trkpt><trkpt lat="39.3325601" lon="8.483098"><ele>426.0</ele><time>2026-04-22T11:32:18.317Z</time></trkpt><trkpt lat="39.3326501" lon="8.4831261"><ele>426.0</ele><time>2026-04-22T11:32:20.318Z</time></trkpt><trkpt lat="39.3327309" lon="8.4831378"><ele>426.0</ele><time>2026-04-22T11:32:22.318Z</time></trkpt><trkpt lat="39.3328229" lon="8.4831381"><ele>426.0</ele><time>2026-04-22T11:32:24.318Z</time></trkpt><trkpt lat="39.3329108" lon="8.4830841"><ele>426.0</ele><time>2026-04-22T11:32:26.317Z</time></trkpt><trkpt lat="39.3330016" lon="8.4830254"><ele>426.0</ele><time>2026-04-22T11:32:28.318Z</time></trkpt><trkpt lat="39.3331447" lon="8.4829686"><ele>426.0</ele><time>2026-04-22T11:32:31.317Z</time></trkpt><trkpt lat="39.3332516" lon="8.482917"><ele>425.6</ele><time>2026-04-22T11:32:33.317Z</time></trkpt><trkpt lat="39.3333588" lon="8.4828483"><ele>425.20000000000005</ele><time>2026-04-22T11:32:35.318Z</time></trkpt><trkpt lat="39.3334667" lon="8.482754"><ele>424.79999999999995</ele><time>2026-04-22T11:32:37.317Z</time></trkpt><trkpt lat="39.3335204" lon="8.4827071"><ele>424.4</ele><time>2026-04-22T11:32:38.317Z</time></trkpt><trkpt lat="39.3336172" lon="8.482619"><ele>424.0</ele><time>2026-04-22T11:32:40.318Z</time></trkpt><trkpt lat="39.3337053" lon="8.4825233"><ele>424.0</ele><time>2026-04-22T11:32:42.317Z</time></trkpt><trkpt lat="39.3337736" lon="8.482418"><ele>424.0</ele><time>2026-04-22T11:32:44.317Z</time></trkpt><trkpt lat="39.3338446" lon="8.4823033"><ele>424.0</ele><time>2026-04-22T11:32:46.318Z</time></trkpt><trkpt lat="39.3339153" lon="8.4822086"><ele>424.0</ele><time>2026-04-22T11:32:48.318Z</time></trkpt><trkpt lat="39.3339938" lon="8.4821529"><ele>424.0</ele><time>2026-04-22T11:32:50.318Z</time></trkpt><trkpt lat="39.3340543" lon="8.482064"><ele>418.75</ele><time>2026-04-22T11:32:53.317Z</time></trkpt><trkpt lat="39.3340813" lon="8.4819661"><ele>413.5</ele><time>2026-04-22T11:32:55.317Z</time></trkpt><trkpt lat="39.3341132" lon="8.4817059"><ele>408.25</ele><time>2026-04-22T11:32:59.317Z</time></trkpt><trkpt lat="39.3340912" lon="8.481579"><ele>403.0</ele><time>2026-04-22T11:33:01.318Z</time></trkpt><trkpt lat="39.3340648" lon="8.4814248"><ele>403.0</ele><time>2026-04-22T11:33:03.317Z</time></trkpt><trkpt lat="39.3340275" lon="8.4812796"><ele>403.0</ele><time>2026-04-22T11:33:05.318Z</time></trkpt><trkpt lat="39.3339873" lon="8.4811447"><ele>403.0</ele><time>2026-04-22T11:33:07.318Z</time></trkpt><trkpt lat="39.3339488" lon="8.4810038"><ele>403.0</ele><time>2026-04-22T11:33:09.317Z</time></trkpt><trkpt lat="39.3339323" lon="8.4809081"><ele>403.0</ele><time>2026-04-22T11:33:11.317Z</time></trkpt><trkpt lat="39.3339317" lon="8.4808204"><ele>403.79999999999995</ele><time>2026-04-22T11:33:14.318Z</time></trkpt><trkpt lat="39.3339252" lon="8.4807112"><ele>404.6</ele><time>2026-04-22T11:33:17.317Z</time></trkpt><trkpt lat="39.3339279" lon="8.4805081"><ele>405.4</ele><time>2026-04-22T11:33:22.317Z</time></trkpt><trkpt lat="39.3339032" lon="8.4804313"><ele>406.20000000000005</ele><time>2026-04-22T11:33:24.318Z</time></trkpt><trkpt lat="39.3338934" lon="8.480332"><ele>407.0</ele><time>2026-04-22T11:33:37.318Z</time></trkpt><trkpt lat="39.3339455" lon="8.4804191"><ele>407.0</ele><time>2026-04-22T11:33:44.317Z</time></trkpt><trkpt lat="39.3340095" lon="8.4806529"><ele>407.0</ele><time>2026-04-22T11:33:48.317Z</time></trkpt><trkpt lat="39.3340566" lon="8.4807871"><ele>407.0</ele><time>2026-04-22T11:33:50.317Z</time></trkpt><trkpt lat="39.3341083" lon="8.4809125"><ele>407.0</ele><time>2026-04-22T11:33:52.317Z</time></trkpt><trkpt lat="39.3341691" lon="8.481027"><ele>407.0</ele><time>2026-04-22T11:33:54.317Z</time></trkpt><trkpt lat="39.3342411" lon="8.4811534"><ele>407.0</ele><time>2026-04-22T11:33:56.318Z</time></trkpt><trkpt lat="39.3343154" lon="8.4812576"><ele>407.0</ele><time>2026-04-22T11:33:58.318Z</time></trkpt><trkpt lat="39.3343853" lon="8.4813741"><ele>407.0</ele><time>2026-04-22T11:34:00.317Z</time></trkpt><trkpt lat="39.3344342" lon="8.4815042"><ele>405.66666666666663</ele><time>2026-04-22T11:34:02.318Z</time></trkpt><trkpt lat="39.3344918" lon="8.4816411"><ele>404.33333333333337</ele><time>2026-04-22T11:34:04.317Z</time></trkpt><trkpt lat="39.3345409" lon="8.4817835"><ele>403.0</ele><time>2026-04-22T11:34:06.318Z</time></trkpt><trkpt lat="39.3345231" lon="8.4821645"><ele>402.83333333333337</ele><time>2026-04-22T11:34:10.318Z</time></trkpt><trkpt lat="39.3345036" lon="8.4822759"><ele>402.6666666666667</ele><time>2026-04-22T11:34:11.318Z</time></trkpt><trkpt lat="39.3344774" lon="8.4823945"><ele>402.5</ele><time>2026-04-22T11:34:12.318Z</time></trkpt><trkpt lat="39.3344586" lon="8.4825062"><ele>402.33333333333337</ele><time>2026-04-22T11:34:13.318Z</time></trkpt><trkpt lat="39.3344394" lon="8.4826005"><ele>402.1666666666667</ele><time>2026-04-22T11:34:14.318Z</time></trkpt><trkpt lat="39.3344143" lon="8.4826808"><ele>402.0</ele><time>2026-04-22T11:34:15.318Z</time></trkpt><trkpt lat="39.334334" lon="8.4828054"><ele>402.0</ele><time>2026-04-22T11:34:17.317Z</time></trkpt><trkpt lat="39.3342773" lon="8.482859"><ele>402.0</ele><time>2026-04-22T11:34:18.318Z</time></trkpt><trkpt lat="39.3342149" lon="8.4829232"><ele>402.0</ele><time>2026-04-22T11:34:19.318Z</time></trkpt><trkpt lat="39.3341583" lon="8.4829962"><ele>402.0</ele><time>2026-04-22T11:34:20.318Z</time></trkpt><trkpt lat="39.334112" lon="8.4830793"><ele>402.0</ele><time>2026-04-22T11:34:21.317Z</time></trkpt><trkpt lat="39.3340874" lon="8.4831826"><ele>402.0</ele><time>2026-04-22T11:34:22.318Z</time></trkpt><trkpt lat="39.3340802" lon="8.4832875"><ele>401.8</ele><time>2026-04-22T11:34:23.318Z</time></trkpt><trkpt lat="39.334086" lon="8.4833965"><ele>401.6</ele><time>2026-04-22T11:34:24.318Z</time></trkpt><trkpt lat="39.3340998" lon="8.4835011"><ele>401.40000000000003</ele><time>2026-04-22T11:34:25.318Z</time></trkpt><trkpt lat="39.3341209" lon="8.4835997"><ele>401.20000000000005</ele><time>2026-04-22T11:34:26.318Z</time></trkpt><trkpt lat="39.3341634" lon="8.4837753"><ele>401.0</ele><time>2026-04-22T11:34:28.317Z</time></trkpt><trkpt lat="39.3341837" lon="8.483923"><ele>401.0</ele><time>2026-04-22T11:34:30.317Z</time></trkpt><trkpt lat="39.3342111" lon="8.4840603"><ele>401.0</ele><time>2026-04-22T11:34:32.318Z</time></trkpt><trkpt lat="39.3342573" lon="8.4841858"><ele>401.0</ele><time>2026-04-22T11:34:34.318Z</time></trkpt><trkpt lat="39.3343116" lon="8.4843202"><ele>401.0</ele><time>2026-04-22T11:34:36.318Z</time></trkpt><trkpt lat="39.3343412" lon="8.4843965"><ele>401.0</ele><time>2026-04-22T11:34:37.318Z</time></trkpt><trkpt lat="39.3343687" lon="8.4844788"><ele>400.99999999999994</ele><time>2026-04-22T11:34:38.317Z</time></trkpt><trkpt lat="39.3343945" lon="8.4845625"><ele>401.0</ele><time>2026-04-22T11:34:39.318Z</time></trkpt><trkpt lat="39.3344221" lon="8.4846435"><ele>401.0</ele><time>2026-04-22T11:34:40.318Z</time></trkpt><trkpt lat="39.3344599" lon="8.4847906"><ele>401.0</ele><time>2026-04-22T11:34:42.318Z</time></trkpt><trkpt lat="39.3344593" lon="8.4848744"><ele>400.99999999999994</ele><time>2026-04-22T11:34:43.318Z</time></trkpt><trkpt lat="39.3344591" lon="8.4849707"><ele>401.0</ele><time>2026-04-22T11:34:44.318Z</time></trkpt><trkpt lat="39.334456" lon="8.4850638"><ele>401.0</ele><time>2026-04-22T11:34:45.317Z</time></trkpt><trkpt lat="39.3344521" lon="8.4851563"><ele>401.0</ele><time>2026-04-22T11:34:46.317Z</time></trkpt><trkpt lat="39.334442" lon="8.4852526"><ele>401.0</ele><time>2026-04-22T11:34:47.317Z</time></trkpt><trkpt lat="39.3344252" lon="8.4854525"><ele>401.0</ele><time>2026-04-22T11:34:49.317Z</time></trkpt><trkpt lat="39.3344124" lon="8.485546"><ele>401.0</ele><time>2026-04-22T11:34:50.318Z</time></trkpt><trkpt lat="39.3344063" lon="8.4856432"><ele>400.3333333333333</ele><time>2026-04-22T11:34:51.318Z</time></trkpt><trkpt lat="39.3344025" lon="8.4857455"><ele>399.66666666666663</ele><time>2026-04-22T11:34:52.318Z</time></trkpt><trkpt lat="39.334403" lon="8.485845"><ele>399.0</ele><time>2026-04-22T11:34:53.318Z</time></trkpt><trkpt lat="39.3344084" lon="8.4859358"><ele>398.33333333333337</ele><time>2026-04-22T11:34:54.318Z</time></trkpt><trkpt lat="39.3344184" lon="8.4860162"><ele>397.6666666666667</ele><time>2026-04-22T11:34:55.318Z</time></trkpt><trkpt lat="39.3344866" lon="8.4861508"><ele>397.0</ele><time>2026-04-22T11:34:57.318Z</time></trkpt><trkpt lat="39.3345298" lon="8.4862178"><ele>395.6</ele><time>2026-04-22T11:34:58.318Z</time></trkpt><trkpt lat="39.334577" lon="8.4862853"><ele>394.20000000000005</ele><time>2026-04-22T11:34:59.318Z</time></trkpt><trkpt lat="39.334646" lon="8.4863995"><ele>392.8</ele><time>2026-04-22T11:35:01.318Z</time></trkpt><trkpt lat="39.3346679" lon="8.4865059"><ele>391.4</ele><time>2026-04-22T11:35:03.317Z</time></trkpt><trkpt lat="39.3346286" lon="8.4866036"><ele>390.0</ele><time>2026-04-22T11:35:05.318Z</time></trkpt><trkpt lat="39.3345153" lon="8.4866577"><ele>390.0</ele><time>2026-04-22T11:35:07.318Z</time></trkpt><trkpt lat="39.334442" lon="8.4866739"><ele>390.0</ele><time>2026-04-22T11:35:08.317Z</time></trkpt><trkpt lat="39.334291" lon="8.4867414"><ele>390.0</ele><time>2026-04-22T11:35:10.318Z</time></trkpt><trkpt lat="39.3342274" lon="8.4867966"><ele>390.0</ele><time>2026-04-22T11:35:11.318Z</time></trkpt><trkpt lat="39.3341625" lon="8.4868643"><ele>390.0</ele><time>2026-04-22T11:35:12.318Z</time></trkpt><trkpt lat="39.3341052" lon="8.4869375"><ele>390.0</ele><time>2026-04-22T11:35:13.317Z</time></trkpt><trkpt lat="39.3340554" lon="8.4870185"><ele>390.0</ele><time>2026-04-22T11:35:14.318Z</time></trkpt><trkpt lat="39.3340074" lon="8.4871003"><ele>390.0</ele><time>2026-04-22T11:35:15.318Z</time></trkpt><trkpt lat="39.3339613" lon="8.4871833"><ele>390.0</ele><time>2026-04-22T11:35:16.317Z</time></trkpt><trkpt lat="39.3339269" lon="8.4872769"><ele>390.0</ele><time>2026-04-22T11:35:17.318Z</time></trkpt><trkpt lat="39.3338945" lon="8.4873718"><ele>390.0</ele><time>2026-04-22T11:35:18.318Z</time></trkpt><trkpt lat="39.3338699" lon="8.4874702"><ele>393.3333333333333</ele><time>2026-04-22T11:35:19.318Z</time></trkpt><trkpt lat="39.3338565" lon="8.487575"><ele>396.66666666666663</ele><time>2026-04-22T11:35:20.317Z</time></trkpt><trkpt lat="39.3338485" lon="8.4876792"><ele>400.0</ele><time>2026-04-22T11:35:21.318Z</time></trkpt><trkpt lat="39.3338434" lon="8.487782"><ele>403.3333333333333</ele><time>2026-04-22T11:35:22.318Z</time></trkpt><trkpt lat="39.3338421" lon="8.4878802"><ele>406.66666666666663</ele><time>2026-04-22T11:35:23.318Z</time></trkpt><trkpt lat="39.3338402" lon="8.487978"><ele>410.0</ele><time>2026-04-22T11:35:24.317Z</time></trkpt><trkpt lat="39.3338442" lon="8.4880719"><ele>410.0</ele><time>2026-04-22T11:35:25.318Z</time></trkpt><trkpt lat="39.3338539" lon="8.4881652"><ele>410.0</ele><time>2026-04-22T11:35:26.318Z</time></trkpt><trkpt lat="39.3338677" lon="8.4882623"><ele>410.0</ele><time>2026-04-22T11:35:27.318Z</time></trkpt><trkpt lat="39.3338868" lon="8.4883632"><ele>410.0</ele><time>2026-04-22T11:35:28.318Z</time></trkpt><trkpt lat="39.3339155" lon="8.4884639"><ele>410.0</ele><time>2026-04-22T11:35:29.318Z</time></trkpt><trkpt lat="39.3339987" lon="8.4886675"><ele>404.0</ele><time>2026-04-22T11:35:31.317Z</time></trkpt><trkpt lat="39.3340434" lon="8.4887514"><ele>398.0</ele><time>2026-04-22T11:35:32.317Z</time></trkpt><trkpt lat="39.3340775" lon="8.4888282"><ele>392.0</ele><time>2026-04-22T11:35:33.318Z</time></trkpt><trkpt lat="39.3341308" lon="8.4889577"><ele>386.0</ele><time>2026-04-22T11:35:35.318Z</time></trkpt><trkpt lat="39.3341779" lon="8.4891016"><ele>380.0</ele><time>2026-04-22T11:35:37.318Z</time></trkpt><trkpt lat="39.3341991" lon="8.489268"><ele>380.0</ele><time>2026-04-22T11:35:39.318Z</time></trkpt><trkpt lat="39.3342008" lon="8.4893638"><ele>380.0</ele><time>2026-04-22T11:35:40.318Z</time></trkpt><trkpt lat="39.3341987" lon="8.489463"><ele>380.0</ele><time>2026-04-22T11:35:41.317Z</time></trkpt><trkpt lat="39.3341871" lon="8.489571"><ele>380.0</ele><time>2026-04-22T11:35:42.318Z</time></trkpt><trkpt lat="39.3341755" lon="8.4896893"><ele>380.0</ele><time>2026-04-22T11:35:43.317Z</time></trkpt><trkpt lat="39.3341632" lon="8.4898058"><ele>380.0</ele><time>2026-04-22T11:35:44.318Z</time></trkpt><trkpt lat="39.3341442" lon="8.4899067"><ele>378.8</ele><time>2026-04-22T11:35:45.318Z</time></trkpt><trkpt lat="39.3341183" lon="8.4899895"><ele>377.6</ele><time>2026-04-22T11:35:46.318Z</time></trkpt><trkpt lat="39.3340486" lon="8.4901009"><ele>376.4</ele><time>2026-04-22T11:35:48.318Z</time></trkpt><trkpt lat="39.3339971" lon="8.4901502"><ele>375.2</ele><time>2026-04-22T11:35:49.318Z</time></trkpt><trkpt lat="39.3339304" lon="8.4902029"><ele>374.0</ele><time>2026-04-22T11:35:50.318Z</time></trkpt><trkpt lat="39.3338104" lon="8.490355"><ele>378.6666666666667</ele><time>2026-04-22T11:35:52.317Z</time></trkpt><trkpt lat="39.3337715" lon="8.4904445"><ele>383.33333333333337</ele><time>2026-04-22T11:35:53.317Z</time></trkpt><trkpt lat="39.333755" lon="8.4905343"><ele>388.0</ele><time>2026-04-22T11:35:54.317Z</time></trkpt><trkpt lat="39.3337627" lon="8.4906272"><ele>392.6666666666667</ele><time>2026-04-22T11:35:55.318Z</time></trkpt><trkpt lat="39.3337785" lon="8.4907188"><ele>397.3333333333333</ele><time>2026-04-22T11:35:56.318Z</time></trkpt><trkpt lat="39.3337963" lon="8.49082"><ele>402.0</ele><time>2026-04-22T11:35:57.318Z</time></trkpt><trkpt lat="39.3338128" lon="8.4909238"><ele>402.0</ele><time>2026-04-22T11:35:58.318Z</time></trkpt><trkpt lat="39.3338299" lon="8.4910226"><ele>402.0</ele><time>2026-04-22T11:35:59.318Z</time></trkpt><trkpt lat="39.3338591" lon="8.4911168"><ele>402.0</ele><time>2026-04-22T11:36:00.317Z</time></trkpt><trkpt lat="39.3338983" lon="8.4912082"><ele>402.0</ele><time>2026-04-22T11:36:01.318Z</time></trkpt><trkpt lat="39.3339428" lon="8.4912917"><ele>402.0</ele><time>2026-04-22T11:36:02.318Z</time></trkpt><trkpt lat="39.3340047" lon="8.491378"><ele>402.0</ele><time>2026-04-22T11:36:03.318Z</time></trkpt><trkpt lat="39.3340777" lon="8.491458"><ele>398.0</ele><time>2026-04-22T11:36:04.317Z</time></trkpt><trkpt lat="39.3341452" lon="8.4915306"><ele>394.0</ele><time>2026-04-22T11:36:05.318Z</time></trkpt><trkpt lat="39.3342099" lon="8.4915894"><ele>390.0</ele><time>2026-04-22T11:36:06.318Z</time></trkpt><trkpt lat="39.3342673" lon="8.4916422"><ele>386.0</ele><time>2026-04-22T11:36:07.317Z</time></trkpt><trkpt lat="39.3343203" lon="8.4917053"><ele>382.0</ele><time>2026-04-22T11:36:08.317Z</time></trkpt><trkpt lat="39.3343694" lon="8.4917816"><ele>378.0</ele><time>2026-04-22T11:36:09.318Z</time></trkpt><trkpt lat="39.3344124" lon="8.4918729"><ele>378.0</ele><time>2026-04-22T11:36:10.318Z</time></trkpt><trkpt lat="39.3344422" lon="8.4919761"><ele>378.0</ele><time>2026-04-22T11:36:11.317Z</time></trkpt><trkpt lat="39.3344557" lon="8.4922014"><ele>378.0</ele><time>2026-04-22T11:36:13.318Z</time></trkpt><trkpt lat="39.3344723" lon="8.4923047"><ele>378.0</ele><time>2026-04-22T11:36:14.317Z</time></trkpt><trkpt lat="39.3344884" lon="8.4923961"><ele>378.0</ele><time>2026-04-22T11:36:15.317Z</time></trkpt><trkpt lat="39.3345009" lon="8.4924821"><ele>378.2</ele><time>2026-04-22T11:36:16.318Z</time></trkpt><trkpt lat="39.3344953" lon="8.4926491"><ele>378.4</ele><time>2026-04-22T11:36:18.318Z</time></trkpt><trkpt lat="39.334469" lon="8.4927444"><ele>378.59999999999997</ele><time>2026-04-22T11:36:19.318Z</time></trkpt><trkpt lat="39.3344319" lon="8.4928447"><ele>378.79999999999995</ele><time>2026-04-22T11:36:20.318Z</time></trkpt><trkpt lat="39.334384" lon="8.4929539"><ele>379.0</ele><time>2026-04-22T11:36:21.318Z</time></trkpt><trkpt lat="39.33433" lon="8.493059"><ele>379.0</ele><time>2026-04-22T11:36:22.318Z</time></trkpt><trkpt lat="39.3342786" lon="8.4931672"><ele>379.0</ele><time>2026-04-22T11:36:23.318Z</time></trkpt><trkpt lat="39.3342255" lon="8.4932787"><ele>379.0</ele><time>2026-04-22T11:36:24.317Z</time></trkpt><trkpt lat="39.3341818" lon="8.493383"><ele>379.0</ele><time>2026-04-22T11:36:25.317Z</time></trkpt><trkpt lat="39.3341367" lon="8.4934806"><ele>379.0</ele><time>2026-04-22T11:36:26.318Z</time></trkpt><trkpt lat="39.3340915" lon="8.4935918"><ele>379.0</ele><time>2026-04-22T11:36:27.318Z</time></trkpt><trkpt lat="39.3340528" lon="8.4937012"><ele>379.0</ele><time>2026-04-22T11:36:28.317Z</time></trkpt><trkpt lat="39.3340136" lon="8.4938052"><ele>379.0</ele><time>2026-04-22T11:36:29.317Z</time></trkpt><trkpt lat="39.3339744" lon="8.4938979"><ele>379.0</ele><time>2026-04-22T11:36:30.318Z</time></trkpt><trkpt lat="39.3339348" lon="8.49398"><ele>379.0</ele><time>2026-04-22T11:36:31.317Z</time></trkpt><trkpt lat="39.333851" lon="8.4941222"><ele>380.7142857142857</ele><time>2026-04-22T11:36:33.318Z</time></trkpt><trkpt lat="39.333806" lon="8.4941886"><ele>382.42857142857144</ele><time>2026-04-22T11:36:34.317Z</time></trkpt><trkpt lat="39.3337714" lon="8.494273"><ele>384.1428571428571</ele><time>2026-04-22T11:36:35.317Z</time></trkpt><trkpt lat="39.3337441" lon="8.4943665"><ele>385.8571428571429</ele><time>2026-04-22T11:36:36.318Z</time></trkpt><trkpt lat="39.3337117" lon="8.4944553"><ele>387.57142857142856</ele><time>2026-04-22T11:36:37.318Z</time></trkpt><trkpt lat="39.333675" lon="8.4945339"><ele>389.2857142857143</ele><time>2026-04-22T11:36:38.317Z</time></trkpt><trkpt lat="39.3336296" lon="8.4946124"><ele>391.0</ele><time>2026-04-22T11:36:39.317Z</time></trkpt><trkpt lat="39.3335811" lon="8.4946968"><ele>387.00000000000006</ele><time>2026-04-22T11:36:40.318Z</time></trkpt><trkpt lat="39.3335231" lon="8.4947808"><ele>383.0</ele><time>2026-04-22T11:36:41.318Z</time></trkpt><trkpt lat="39.3334656" lon="8.4948653"><ele>379.0</ele><time>2026-04-22T11:36:42.318Z</time></trkpt><trkpt lat="39.3334175" lon="8.4949401"><ele>375.0</ele><time>2026-04-22T11:36:43.317Z</time></trkpt><trkpt lat="39.3333722" lon="8.4950057"><ele>371.0</ele><time>2026-04-22T11:36:44.317Z</time></trkpt><trkpt lat="39.3332726" lon="8.4950812"><ele>367.0</ele><time>2026-04-22T11:36:46.318Z</time></trkpt><trkpt lat="39.3331594" lon="8.4950788"><ele>367.0</ele><time>2026-04-22T11:36:48.317Z</time></trkpt><trkpt lat="39.3330591" lon="8.4949882"><ele>367.0</ele><time>2026-04-22T11:36:50.318Z</time></trkpt><trkpt lat="39.3330279" lon="8.4949157"><ele>367.0</ele><time>2026-04-22T11:36:51.317Z</time></trkpt><trkpt lat="39.3330055" lon="8.4948383"><ele>367.0</ele><time>2026-04-22T11:36:52.318Z</time></trkpt><trkpt lat="39.3329348" lon="8.4946981"><ele>367.0</ele><time>2026-04-22T11:36:54.318Z</time></trkpt><trkpt lat="39.3328305" lon="8.4946046"><ele>369.20000000000005</ele><time>2026-04-22T11:36:56.317Z</time></trkpt><trkpt lat="39.3327319" lon="8.4945283"><ele>371.4</ele><time>2026-04-22T11:36:58.318Z</time></trkpt><trkpt lat="39.3326482" lon="8.4944512"><ele>373.6</ele><time>2026-04-22T11:37:00.317Z</time></trkpt><trkpt lat="39.3325655" lon="8.4943886"><ele>375.79999999999995</ele><time>2026-04-22T11:37:02.318Z</time></trkpt><trkpt lat="39.3324769" lon="8.4943343"><ele>378.0</ele><time>2026-04-22T11:37:04.317Z</time></trkpt><trkpt lat="39.3324" lon="8.4942895"><ele>378.0</ele><time>2026-04-22T11:37:06.318Z</time></trkpt><trkpt lat="39.3323353" lon="8.494236"><ele>378.0</ele><time>2026-04-22T11:37:08.318Z</time></trkpt><trkpt lat="39.3322472" lon="8.4941809"><ele>378.0</ele><time>2026-04-22T11:37:10.317Z</time></trkpt><trkpt lat="39.3321325" lon="8.4941601"><ele>378.0</ele><time>2026-04-22T11:37:12.318Z</time></trkpt><trkpt lat="39.3320636" lon="8.4941597"><ele>378.0</ele><time>2026-04-22T11:37:13.318Z</time></trkpt><trkpt lat="39.3319322" lon="8.4941743"><ele>376.1666666666667</ele><time>2026-04-22T11:37:15.317Z</time></trkpt><trkpt lat="39.3318618" lon="8.4941876"><ele>374.3333333333333</ele><time>2026-04-22T11:37:16.317Z</time></trkpt><trkpt lat="39.3317859" lon="8.4942067"><ele>372.5</ele><time>2026-04-22T11:37:17.318Z</time></trkpt><trkpt lat="39.3317073" lon="8.4942357"><ele>370.66666666666663</ele><time>2026-04-22T11:37:18.317Z</time></trkpt><trkpt lat="39.3316262" lon="8.494268"><ele>368.8333333333333</ele><time>2026-04-22T11:37:19.318Z</time></trkpt><trkpt lat="39.3315483" lon="8.4943006"><ele>367.0</ele><time>2026-04-22T11:37:20.318Z</time></trkpt><trkpt lat="39.3314776" lon="8.4943431"><ele>367.0</ele><time>2026-04-22T11:37:21.318Z</time></trkpt><trkpt lat="39.3314114" lon="8.4943831"><ele>367.0</ele><time>2026-04-22T11:37:22.318Z</time></trkpt><trkpt lat="39.331343" lon="8.4944235"><ele>367.0</ele><time>2026-04-22T11:37:23.318Z</time></trkpt><trkpt lat="39.33128" lon="8.4944646"><ele>367.0</ele><time>2026-04-22T11:37:24.318Z</time></trkpt><trkpt lat="39.3312172" lon="8.4945067"><ele>367.0</ele><time>2026-04-22T11:37:25.318Z</time></trkpt><trkpt lat="39.3311546" lon="8.4945487"><ele>367.0</ele><time>2026-04-22T11:37:26.318Z</time></trkpt><trkpt lat="39.3310906" lon="8.4945982"><ele>367.0</ele><time>2026-04-22T11:37:27.317Z</time></trkpt><trkpt lat="39.3310299" lon="8.4946513"><ele>364.3333333333333</ele><time>2026-04-22T11:37:28.318Z</time></trkpt><trkpt lat="39.3309738" lon="8.4947142"><ele>361.66666666666663</ele><time>2026-04-22T11:37:29.317Z</time></trkpt><trkpt lat="39.3309181" lon="8.4947807"><ele>359.0</ele><time>2026-04-22T11:37:30.317Z</time></trkpt><trkpt lat="39.3308656" lon="8.4948444"><ele>356.3333333333333</ele><time>2026-04-22T11:37:31.317Z</time></trkpt><trkpt lat="39.3308092" lon="8.4949183"><ele>353.6666666666667</ele><time>2026-04-22T11:37:32.318Z</time></trkpt><trkpt lat="39.3307577" lon="8.4949942"><ele>351.0</ele><time>2026-04-22T11:37:33.318Z</time></trkpt><trkpt lat="39.3307064" lon="8.4950722"><ele>351.0</ele><time>2026-04-22T11:37:34.318Z</time></trkpt><trkpt lat="39.330576" lon="8.4952087"><ele>351.0</ele><time>2026-04-22T11:37:36.318Z</time></trkpt><trkpt lat="39.3305115" lon="8.4952657"><ele>351.0</ele><time>2026-04-22T11:37:37.318Z</time></trkpt><trkpt lat="39.3304551" lon="8.4953203"><ele>351.0</ele><time>2026-04-22T11:37:38.317Z</time></trkpt><trkpt lat="39.3304011" lon="8.4953784"><ele>351.0</ele><time>2026-04-22T11:37:39.318Z</time></trkpt><trkpt lat="39.33034" lon="8.4954361"><ele>348.3333333333333</ele><time>2026-04-22T11:37:40.317Z</time></trkpt><trkpt lat="39.3302749" lon="8.4954966"><ele>345.6666666666667</ele><time>2026-04-22T11:37:41.318Z</time></trkpt><trkpt lat="39.3302112" lon="8.4955559"><ele>343.0</ele><time>2026-04-22T11:37:42.317Z</time></trkpt><trkpt lat="39.3301409" lon="8.4956277"><ele>340.33333333333337</ele><time>2026-04-22T11:37:43.317Z</time></trkpt><trkpt lat="39.330064" lon="8.4957081"><ele>337.6666666666667</ele><time>2026-04-22T11:37:44.318Z</time></trkpt><trkpt lat="39.3299871" lon="8.4957688"><ele>335.0</ele><time>2026-04-22T11:37:45.318Z</time></trkpt><trkpt lat="39.3299177" lon="8.4958212"><ele>335.0</ele><time>2026-04-22T11:37:46.318Z</time></trkpt><trkpt lat="39.3298464" lon="8.4958644"><ele>335.0</ele><time>2026-04-22T11:37:47.318Z</time></trkpt><trkpt lat="39.3297697" lon="8.495903"><ele>335.0</ele><time>2026-04-22T11:37:48.318Z</time></trkpt><trkpt lat="39.329693" lon="8.4959339"><ele>335.0</ele><time>2026-04-22T11:37:49.318Z</time></trkpt><trkpt lat="39.3296142" lon="8.4959676"><ele>335.0</ele><time>2026-04-22T11:37:50.317Z</time></trkpt><trkpt lat="39.3295349" lon="8.4959905"><ele>335.0</ele><time>2026-04-22T11:37:51.318Z</time></trkpt><trkpt lat="39.3294619" lon="8.4960247"><ele>335.6</ele><time>2026-04-22T11:37:52.318Z</time></trkpt><trkpt lat="39.3293702" lon="8.496119"><ele>336.2</ele><time>2026-04-22T11:37:54.318Z</time></trkpt><trkpt lat="39.3293216" lon="8.496262"><ele>336.79999999999995</ele><time>2026-04-22T11:37:56.317Z</time></trkpt><trkpt lat="39.3292871" lon="8.4964309"><ele>337.4</ele><time>2026-04-22T11:37:58.318Z</time></trkpt><trkpt lat="39.3292692" lon="8.4965191"><ele>338.0</ele><time>2026-04-22T11:37:59.318Z</time></trkpt><trkpt lat="39.3292425" lon="8.4966097"><ele>337.5</ele><time>2026-04-22T11:38:00.317Z</time></trkpt><trkpt lat="39.3292188" lon="8.496688"><ele>337.0</ele><time>2026-04-22T11:38:01.317Z</time></trkpt><trkpt lat="39.3291836" lon="8.4968037"><ele>336.5</ele><time>2026-04-22T11:38:03.318Z</time></trkpt><trkpt lat="39.3291644" lon="8.4968883"><ele>336.0</ele><time>2026-04-22T11:38:05.318Z</time></trkpt><trkpt lat="39.3291472" lon="8.4969979"><ele>335.5</ele><time>2026-04-22T11:38:08.318Z</time></trkpt><trkpt lat="39.3291063" lon="8.4970619"><ele>335.0</ele><time>2026-04-22T11:39:19.318Z</time></trkpt><trkpt lat="39.3290025" lon="8.497175"><ele>340.5</ele><time>2026-04-22T11:43:20.317Z</time></trkpt><trkpt lat="39.3288885" lon="8.4973806"><ele>346.0</ele><time>2026-04-22T11:43:24.317Z</time></trkpt><trkpt lat="39.3288159" lon="8.4975169"><ele>351.5</ele><time>2026-04-22T11:43:26.318Z</time></trkpt><trkpt lat="39.3287791" lon="8.4975915"><ele>357.0</ele><time>2026-04-22T11:43:27.318Z</time></trkpt><trkpt lat="39.328741" lon="8.4976631"><ele>357.0</ele><time>2026-04-22T11:43:28.318Z</time></trkpt><trkpt lat="39.3287035" lon="8.4977285"><ele>357.0</ele><time>2026-04-22T11:43:29.318Z</time></trkpt><trkpt lat="39.3286649" lon="8.4977975"><ele>357.0</ele><time>2026-04-22T11:43:30.318Z</time></trkpt><trkpt lat="39.3286273" lon="8.4978652"><ele>357.0</ele><time>2026-04-22T11:43:31.317Z</time></trkpt><trkpt lat="39.3285528" lon="8.4980001"><ele>357.0</ele><time>2026-04-22T11:43:33.318Z</time></trkpt><trkpt lat="39.3285145" lon="8.4980712"><ele>357.0</ele><time>2026-04-22T11:43:34.318Z</time></trkpt><trkpt lat="39.3284713" lon="8.4981351"><ele>357.0</ele><time>2026-04-22T11:43:35.318Z</time></trkpt><trkpt lat="39.3284275" lon="8.4981993"><ele>357.0</ele><time>2026-04-22T11:43:36.317Z</time></trkpt><trkpt lat="39.3283794" lon="8.4982671"><ele>357.0</ele><time>2026-04-22T11:43:37.317Z</time></trkpt><trkpt lat="39.3283203" lon="8.4983435"><ele>357.0</ele><time>2026-04-22T11:43:38.318Z</time></trkpt><trkpt lat="39.3282567" lon="8.498421"><ele>357.0</ele><time>2026-04-22T11:43:39.318Z</time></trkpt><trkpt lat="39.3281926" lon="8.498506"><ele>357.0</ele><time>2026-04-22T11:43:40.318Z</time></trkpt><trkpt lat="39.32813" lon="8.4985906"><ele>359.0</ele><time>2026-04-22T11:43:41.317Z</time></trkpt><trkpt lat="39.328019" lon="8.4987666"><ele>361.0</ele><time>2026-04-22T11:43:43.317Z</time></trkpt><trkpt lat="39.327966" lon="8.4988621"><ele>363.0</ele><time>2026-04-22T11:43:44.318Z</time></trkpt><trkpt lat="39.3279217" lon="8.4989512"><ele>365.0</ele><time>2026-04-22T11:43:45.318Z</time></trkpt><trkpt lat="39.3278698" lon="8.4990262"><ele>367.0</ele><time>2026-04-22T11:43:46.318Z</time></trkpt><trkpt lat="39.327814" lon="8.4990887"><ele>367.0</ele><time>2026-04-22T11:43:47.318Z</time></trkpt><trkpt lat="39.327749" lon="8.4991519"><ele>367.0</ele><time>2026-04-22T11:43:48.317Z</time></trkpt><trkpt lat="39.3276791" lon="8.4992291"><ele>367.0</ele><time>2026-04-22T11:43:49.318Z</time></trkpt><trkpt lat="39.3276096" lon="8.4993276"><ele>367.0</ele><time>2026-04-22T11:43:50.317Z</time></trkpt><trkpt lat="39.327548" lon="8.4994529"><ele>367.0</ele><time>2026-04-22T11:43:51.318Z</time></trkpt><trkpt lat="39.3275008" lon="8.4995732"><ele>367.8</ele><time>2026-04-22T11:43:52.318Z</time></trkpt><trkpt lat="39.3274709" lon="8.4997014"><ele>368.6</ele><time>2026-04-22T11:43:53.318Z</time></trkpt><trkpt lat="39.3274483" lon="8.4998349"><ele>369.40000000000003</ele><time>2026-04-22T11:43:54.318Z</time></trkpt><trkpt lat="39.3274319" lon="8.4999697"><ele>370.20000000000005</ele><time>2026-04-22T11:43:55.318Z</time></trkpt><trkpt lat="39.3274291" lon="8.5000968"><ele>371.0</ele><time>2026-04-22T11:43:56.318Z</time></trkpt><trkpt lat="39.3274397" lon="8.5002183"><ele>371.0</ele><time>2026-04-22T11:43:57.317Z</time></trkpt><trkpt lat="39.3274505" lon="8.5003282"><ele>371.0</ele><time>2026-04-22T11:43:58.317Z</time></trkpt><trkpt lat="39.3274644" lon="8.5004227"><ele>371.0</ele><time>2026-04-22T11:43:59.318Z</time></trkpt><trkpt lat="39.3274929" lon="8.5005003"><ele>371.0</ele><time>2026-04-22T11:44:00.317Z</time></trkpt><trkpt lat="39.3275323" lon="8.50057"><ele>371.0</ele><time>2026-04-22T11:44:01.318Z</time></trkpt><trkpt lat="39.3275801" lon="8.5006255"><ele>371.0</ele><time>2026-04-22T11:44:02.318Z</time></trkpt><trkpt lat="39.3277008" lon="8.5007168"><ele>371.1666666666667</ele><time>2026-04-22T11:44:04.318Z</time></trkpt><trkpt lat="39.3277603" lon="8.5007693"><ele>371.33333333333337</ele><time>2026-04-22T11:44:05.318Z</time></trkpt><trkpt lat="39.3278134" lon="8.5008352"><ele>371.5</ele><time>2026-04-22T11:44:06.317Z</time></trkpt><trkpt lat="39.3278606" lon="8.5009145"><ele>371.6666666666667</ele><time>2026-04-22T11:44:07.318Z</time></trkpt><trkpt lat="39.3279011" lon="8.5010008"><ele>371.8333333333333</ele><time>2026-04-22T11:44:08.317Z</time></trkpt><trkpt lat="39.3279337" lon="8.5010903"><ele>372.0</ele><time>2026-04-22T11:44:09.318Z</time></trkpt><trkpt lat="39.3279613" lon="8.5011854"><ele>372.00000000000006</ele><time>2026-04-22T11:44:10.318Z</time></trkpt><trkpt lat="39.3279848" lon="8.5012748"><ele>372.0</ele><time>2026-04-22T11:44:11.318Z</time></trkpt><trkpt lat="39.3280091" lon="8.5013616"><ele>372.0</ele><time>2026-04-22T11:44:12.318Z</time></trkpt><trkpt lat="39.328039" lon="8.5014465"><ele>372.0</ele><time>2026-04-22T11:44:13.318Z</time></trkpt><trkpt lat="39.3280692" lon="8.5015262"><ele>372.0</ele><time>2026-04-22T11:44:14.317Z</time></trkpt><trkpt lat="39.3281086" lon="8.501611"><ele>372.00000000000006</ele><time>2026-04-22T11:44:15.318Z</time></trkpt><trkpt lat="39.3281516" lon="8.5016923"><ele>372.0</ele><time>2026-04-22T11:44:16.318Z</time></trkpt><trkpt lat="39.3281915" lon="8.5017736"><ele>369.6666666666667</ele><time>2026-04-22T11:44:17.318Z</time></trkpt><trkpt lat="39.328229" lon="8.5018536"><ele>367.3333333333333</ele><time>2026-04-22T11:44:18.318Z</time></trkpt><trkpt lat="39.3282667" lon="8.5019349"><ele>365.0</ele><time>2026-04-22T11:44:19.318Z</time></trkpt><trkpt lat="39.3282978" lon="8.5020163"><ele>362.66666666666663</ele><time>2026-04-22T11:44:20.317Z</time></trkpt><trkpt lat="39.3283258" lon="8.5021003"><ele>360.3333333333333</ele><time>2026-04-22T11:44:21.317Z</time></trkpt><trkpt lat="39.3283527" lon="8.5021892"><ele>358.0</ele><time>2026-04-22T11:44:22.318Z</time></trkpt><trkpt lat="39.3283774" lon="8.5023657"><ele>356.5714285714286</ele><time>2026-04-22T11:44:24.317Z</time></trkpt><trkpt lat="39.3283737" lon="8.5024505"><ele>355.14285714285717</ele><time>2026-04-22T11:44:25.318Z</time></trkpt><trkpt lat="39.3283639" lon="8.5025338"><ele>353.7142857142857</ele><time>2026-04-22T11:44:26.318Z</time></trkpt><trkpt lat="39.3283504" lon="8.5026161"><ele>352.28571428571433</ele><time>2026-04-22T11:44:27.317Z</time></trkpt><trkpt lat="39.3283298" lon="8.5026958"><ele>350.8571428571429</ele><time>2026-04-22T11:44:28.318Z</time></trkpt><trkpt lat="39.3283072" lon="8.5027887"><ele>349.42857142857144</ele><time>2026-04-22T11:44:29.318Z</time></trkpt><trkpt lat="39.3282834" lon="8.5028875"><ele>348.0</ele><time>2026-04-22T11:44:30.317Z</time></trkpt><trkpt lat="39.328268" lon="8.5029801"><ele>346.0</ele><time>2026-04-22T11:44:31.317Z</time></trkpt><trkpt lat="39.3282558" lon="8.5030676"><ele>344.0</ele><time>2026-04-22T11:44:32.318Z</time></trkpt><trkpt lat="39.3282273" lon="8.5032204"><ele>342.0</ele><time>2026-04-22T11:44:34.317Z</time></trkpt><trkpt lat="39.3281942" lon="8.5033739"><ele>340.0</ele><time>2026-04-22T11:44:36.317Z</time></trkpt><trkpt lat="39.3281901" lon="8.5034595"><ele>338.0</ele><time>2026-04-22T11:44:37.318Z</time></trkpt><trkpt lat="39.3282032" lon="8.503551"><ele>338.0</ele><time>2026-04-22T11:44:38.318Z</time></trkpt><trkpt lat="39.3282293" lon="8.5036376"><ele>338.0</ele><time>2026-04-22T11:44:39.318Z</time></trkpt><trkpt lat="39.3282798" lon="8.5037056"><ele>338.0</ele><time>2026-04-22T11:44:40.317Z</time></trkpt><trkpt lat="39.3283392" lon="8.5037609"><ele>338.0</ele><time>2026-04-22T11:44:41.318Z</time></trkpt><trkpt lat="39.3284059" lon="8.5038203"><ele>338.0</ele><time>2026-04-22T11:44:42.317Z</time></trkpt><trkpt lat="39.3284641" lon="8.503874"><ele>338.0</ele><time>2026-04-22T11:44:43.318Z</time></trkpt><trkpt lat="39.3285743" lon="8.5039945"><ele>337.5</ele><time>2026-04-22T11:44:45.318Z</time></trkpt><trkpt lat="39.3286101" lon="8.5040792"><ele>337.0</ele><time>2026-04-22T11:44:46.317Z</time></trkpt><trkpt lat="39.3286396" lon="8.5041823"><ele>336.5</ele><time>2026-04-22T11:44:47.318Z</time></trkpt><trkpt lat="39.3286756" lon="8.5042769"><ele>336.0</ele><time>2026-04-22T11:44:48.318Z</time></trkpt><trkpt lat="39.328729" lon="8.504362"><ele>335.5</ele><time>2026-04-22T11:44:49.318Z</time></trkpt><trkpt lat="39.3287925" lon="8.504443"><ele>335.0</ele><time>2026-04-22T11:44:50.318Z</time></trkpt><trkpt lat="39.3288606" lon="8.5045179"><ele>334.6666666666667</ele><time>2026-04-22T11:44:51.317Z</time></trkpt><trkpt lat="39.3289291" lon="8.5045804"><ele>334.33333333333337</ele><time>2026-04-22T11:44:52.318Z</time></trkpt><trkpt lat="39.3290039" lon="8.504622"><ele>334.0</ele><time>2026-04-22T11:44:53.318Z</time></trkpt><trkpt lat="39.329087" lon="8.5046377"><ele>333.6666666666667</ele><time>2026-04-22T11:44:54.317Z</time></trkpt><trkpt lat="39.3291652" lon="8.5046333"><ele>333.3333333333333</ele><time>2026-04-22T11:44:55.318Z</time></trkpt><trkpt lat="39.3292392" lon="8.5045988"><ele>333.0</ele><time>2026-04-22T11:44:56.318Z</time></trkpt><trkpt lat="39.3293177" lon="8.5045416"><ele>332.3333333333333</ele><time>2026-04-22T11:44:57.318Z</time></trkpt><trkpt lat="39.3293999" lon="8.5044755"><ele>331.6666666666667</ele><time>2026-04-22T11:44:58.317Z</time></trkpt><trkpt lat="39.3294713" lon="8.504415"><ele>331.0</ele><time>2026-04-22T11:44:59.318Z</time></trkpt><trkpt lat="39.329535" lon="8.5043677"><ele>330.33333333333337</ele><time>2026-04-22T11:45:00.318Z</time></trkpt><trkpt lat="39.3295969" lon="8.5043393"><ele>329.6666666666667</ele><time>2026-04-22T11:45:01.317Z</time></trkpt><trkpt lat="39.3296636" lon="8.5043315"><ele>329.0</ele><time>2026-04-22T11:45:02.318Z</time></trkpt><trkpt lat="39.3297385" lon="8.5043394"><ele>328.25</ele><time>2026-04-22T11:45:03.318Z</time></trkpt><trkpt lat="39.3298311" lon="8.5043655"><ele>327.5</ele><time>2026-04-22T11:45:04.317Z</time></trkpt><trkpt lat="39.3300315" lon="8.5044412"><ele>326.75</ele><time>2026-04-22T11:45:06.318Z</time></trkpt><trkpt lat="39.3301307" lon="8.5044656"><ele>326.0</ele><time>2026-04-22T11:45:07.317Z</time></trkpt><trkpt lat="39.3302341" lon="8.5044695"><ele>326.0</ele><time>2026-04-22T11:45:08.318Z</time></trkpt><trkpt lat="39.330334" lon="8.5044669"><ele>326.0</ele><time>2026-04-22T11:45:09.318Z</time></trkpt><trkpt lat="39.3304233" lon="8.5044563"><ele>326.0</ele><time>2026-04-22T11:45:10.318Z</time></trkpt><trkpt lat="39.3305046" lon="8.5044449"><ele>326.0</ele><time>2026-04-22T11:45:11.318Z</time></trkpt><trkpt lat="39.3305841" lon="8.504425"><ele>326.0</ele><time>2026-04-22T11:45:12.318Z</time></trkpt><trkpt lat="39.3306616" lon="8.5043843"><ele>326.0</ele><time>2026-04-22T11:45:13.318Z</time></trkpt><trkpt lat="39.3307363" lon="8.5043302"><ele>325.0</ele><time>2026-04-22T11:45:14.317Z</time></trkpt><trkpt lat="39.3308105" lon="8.504271"><ele>324.0</ele><time>2026-04-22T11:45:15.318Z</time></trkpt><trkpt lat="39.3308865" lon="8.5042091"><ele>323.0</ele><time>2026-04-22T11:45:16.318Z</time></trkpt><trkpt lat="39.3309727" lon="8.5041576"><ele>322.0</ele><time>2026-04-22T11:45:17.318Z</time></trkpt><trkpt lat="39.3310692" lon="8.5041138"><ele>321.0</ele><time>2026-04-22T11:45:18.318Z</time></trkpt><trkpt lat="39.3311697" lon="8.5040659"><ele>321.0</ele><time>2026-04-22T11:45:19.318Z</time></trkpt><trkpt lat="39.3312693" lon="8.5040083"><ele>321.0</ele><time>2026-04-22T11:45:20.317Z</time></trkpt><trkpt lat="39.3313605" lon="8.5039421"><ele>321.0</ele><time>2026-04-22T11:45:21.318Z</time></trkpt><trkpt lat="39.3314454" lon="8.5038763"><ele>321.0</ele><time>2026-04-22T11:45:22.318Z</time></trkpt><trkpt lat="39.3315322" lon="8.503816"><ele>321.0</ele><time>2026-04-22T11:45:23.318Z</time></trkpt><trkpt lat="39.3316099" lon="8.5037609"><ele>322.0</ele><time>2026-04-22T11:45:24.318Z</time></trkpt><trkpt lat="39.3316886" lon="8.5037104"><ele>323.0</ele><time>2026-04-22T11:45:25.318Z</time></trkpt><trkpt lat="39.3318554" lon="8.503642"><ele>324.0</ele><time>2026-04-22T11:45:27.318Z</time></trkpt><trkpt lat="39.3319379" lon="8.5036289"><ele>325.0</ele><time>2026-04-22T11:45:28.317Z</time></trkpt><trkpt lat="39.3320171" lon="8.5036289"><ele>326.0</ele><time>2026-04-22T11:45:29.318Z</time></trkpt><trkpt lat="39.3320885" lon="8.5036238"><ele>326.0</ele><time>2026-04-22T11:45:30.317Z</time></trkpt><trkpt lat="39.3321557" lon="8.5036145"><ele>326.0</ele><time>2026-04-22T11:45:31.317Z</time></trkpt><trkpt lat="39.3322208" lon="8.5035927"><ele>326.0</ele><time>2026-04-22T11:45:32.318Z</time></trkpt><trkpt lat="39.332293" lon="8.5035671"><ele>326.0</ele><time>2026-04-22T11:45:33.318Z</time></trkpt><trkpt lat="39.3323658" lon="8.5035464"><ele>326.0</ele><time>2026-04-22T11:45:34.318Z</time></trkpt><trkpt lat="39.3324364" lon="8.5035318"><ele>326.0</ele><time>2026-04-22T11:45:35.318Z</time></trkpt><trkpt lat="39.3325076" lon="8.5035189"><ele>326.0</ele><time>2026-04-22T11:45:36.317Z</time></trkpt><trkpt lat="39.3325768" lon="8.5035132"><ele>324.42857142857144</ele><time>2026-04-22T11:45:37.318Z</time></trkpt><trkpt lat="39.3326425" lon="8.5035182"><ele>322.85714285714283</ele><time>2026-04-22T11:45:38.318Z</time></trkpt><trkpt lat="39.332706" lon="8.5035421"><ele>321.2857142857143</ele><time>2026-04-22T11:45:39.318Z</time></trkpt><trkpt lat="39.3327681" lon="8.503572"><ele>319.7142857142857</ele><time>2026-04-22T11:45:40.318Z</time></trkpt><trkpt lat="39.3328294" lon="8.5036086"><ele>318.1428571428571</ele><time>2026-04-22T11:45:41.318Z</time></trkpt><trkpt lat="39.3328812" lon="8.5036611"><ele>316.57142857142856</ele><time>2026-04-22T11:45:42.317Z</time></trkpt><trkpt lat="39.3329266" lon="8.5037198"><ele>315.0</ele><time>2026-04-22T11:45:43.318Z</time></trkpt><trkpt lat="39.3329737" lon="8.5037895"><ele>315.0</ele><time>2026-04-22T11:45:44.317Z</time></trkpt><trkpt lat="39.3330284" lon="8.5038638"><ele>315.0</ele><time>2026-04-22T11:45:45.318Z</time></trkpt><trkpt lat="39.3330907" lon="8.5039343"><ele>315.0</ele><time>2026-04-22T11:45:46.317Z</time></trkpt><trkpt lat="39.3332086" lon="8.5040402"><ele>315.0</ele><time>2026-04-22T11:45:48.317Z</time></trkpt><trkpt lat="39.3332725" lon="8.5041256"><ele>315.0</ele><time>2026-04-22T11:45:50.318Z</time></trkpt><trkpt lat="39.3333194" lon="8.5042391"><ele>314.5</ele><time>2026-04-22T11:45:52.318Z</time></trkpt><trkpt lat="39.3333795" lon="8.5043437"><ele>314.0</ele><time>2026-04-22T11:45:54.318Z</time></trkpt><trkpt lat="39.3334689" lon="8.5044053"><ele>313.5</ele><time>2026-04-22T11:45:56.318Z</time></trkpt><trkpt lat="39.3335275" lon="8.5044455"><ele>313.0</ele><time>2026-04-22T11:45:57.318Z</time></trkpt><trkpt lat="39.33359" lon="8.5045034"><ele>312.5</ele><time>2026-04-22T11:45:58.318Z</time></trkpt><trkpt lat="39.3336505" lon="8.5045865"><ele>312.0</ele><time>2026-04-22T11:45:59.317Z</time></trkpt><trkpt lat="39.3337014" lon="8.504681"><ele>312.0</ele><time>2026-04-22T11:46:00.317Z</time></trkpt><trkpt lat="39.3337465" lon="8.5047732"><ele>312.0</ele><time>2026-04-22T11:46:01.318Z</time></trkpt><trkpt lat="39.3337942" lon="8.5048433"><ele>312.0</ele><time>2026-04-22T11:46:02.317Z</time></trkpt><trkpt lat="39.3338502" lon="8.5048809"><ele>312.0</ele><time>2026-04-22T11:46:03.318Z</time></trkpt><trkpt lat="39.3339571" lon="8.5048486"><ele>312.0</ele><time>2026-04-22T11:46:05.318Z</time></trkpt><trkpt lat="39.3340386" lon="8.504739"><ele>312.0</ele><time>2026-04-22T11:46:07.318Z</time></trkpt><trkpt lat="39.334211" lon="8.5046186"><ele>310.6666666666667</ele><time>2026-04-22T11:46:10.318Z</time></trkpt><trkpt lat="39.3342901" lon="8.504595"><ele>309.3333333333333</ele><time>2026-04-22T11:46:11.318Z</time></trkpt><trkpt lat="39.3343657" lon="8.5045787"><ele>308.0</ele><time>2026-04-22T11:46:12.318Z</time></trkpt><trkpt lat="39.3344387" lon="8.5045662"><ele>306.66666666666663</ele><time>2026-04-22T11:46:13.318Z</time></trkpt><trkpt lat="39.3345092" lon="8.5045577"><ele>305.3333333333333</ele><time>2026-04-22T11:46:14.318Z</time></trkpt><trkpt lat="39.3345722" lon="8.5045582"><ele>304.0</ele><time>2026-04-22T11:46:15.317Z</time></trkpt><trkpt lat="39.334683" lon="8.5045675"><ele>304.2</ele><time>2026-04-22T11:46:17.317Z</time></trkpt><trkpt lat="39.3347883" lon="8.5045794"><ele>304.4</ele><time>2026-04-22T11:46:19.318Z</time></trkpt><trkpt lat="39.3348755" lon="8.5046328"><ele>304.6</ele><time>2026-04-22T11:46:21.318Z</time></trkpt><trkpt lat="39.3349262" lon="8.5047528"><ele>304.8</ele><time>2026-04-22T11:46:23.318Z</time></trkpt><trkpt lat="39.3349225" lon="8.5048445"><ele>305.0</ele><time>2026-04-22T11:46:24.318Z</time></trkpt><trkpt lat="39.3348981" lon="8.5049536"><ele>305.0</ele><time>2026-04-22T11:46:25.318Z</time></trkpt><trkpt lat="39.3348539" lon="8.5050807"><ele>305.0</ele><time>2026-04-22T11:46:26.318Z</time></trkpt><trkpt lat="39.3347974" lon="8.5052014"><ele>305.0</ele><time>2026-04-22T11:46:27.318Z</time></trkpt><trkpt lat="39.3347476" lon="8.505307"><ele>305.0</ele><time>2026-04-22T11:46:28.318Z</time></trkpt><trkpt lat="39.3346594" lon="8.5055085"><ele>304.6666666666667</ele><time>2026-04-22T11:46:30.318Z</time></trkpt><trkpt lat="39.3346211" lon="8.5056109"><ele>304.33333333333337</ele><time>2026-04-22T11:46:31.318Z</time></trkpt><trkpt lat="39.3345881" lon="8.5057042"><ele>304.0</ele><time>2026-04-22T11:46:32.318Z</time></trkpt><trkpt lat="39.3345565" lon="8.5058025"><ele>303.6666666666667</ele><time>2026-04-22T11:46:33.317Z</time></trkpt><trkpt lat="39.3345283" lon="8.5058943"><ele>303.3333333333333</ele><time>2026-04-22T11:46:34.317Z</time></trkpt><trkpt lat="39.3345109" lon="8.5059832"><ele>303.0</ele><time>2026-04-22T11:46:35.318Z</time></trkpt><trkpt lat="39.3345036" lon="8.5060709"><ele>303.0</ele><time>2026-04-22T11:46:36.317Z</time></trkpt><trkpt lat="39.3345168" lon="8.5061639"><ele>303.0</ele><time>2026-04-22T11:46:37.318Z</time></trkpt><trkpt lat="39.3345537" lon="8.5062521"><ele>303.0</ele><time>2026-04-22T11:46:38.317Z</time></trkpt><trkpt lat="39.3346149" lon="8.50633"><ele>303.0</ele><time>2026-04-22T11:46:39.318Z</time></trkpt><trkpt lat="39.3346895" lon="8.5063983"><ele>303.0</ele><time>2026-04-22T11:46:40.317Z</time></trkpt><trkpt lat="39.3347558" lon="8.5064637"><ele>303.0</ele><time>2026-04-22T11:46:41.318Z</time></trkpt><trkpt lat="39.3348047" lon="8.5065306"><ele>300.8</ele><time>2026-04-22T11:46:42.318Z</time></trkpt><trkpt lat="39.3348735" lon="8.5066702"><ele>298.6</ele><time>2026-04-22T11:46:44.318Z</time></trkpt><trkpt lat="39.3349091" lon="8.506762"><ele>296.4</ele><time>2026-04-22T11:46:45.317Z</time></trkpt><trkpt lat="39.3349618" lon="8.5068671"><ele>294.2</ele><time>2026-04-22T11:46:46.317Z</time></trkpt><trkpt lat="39.3350175" lon="8.5069669"><ele>292.0</ele><time>2026-04-22T11:46:47.316Z</time></trkpt><trkpt lat="39.3350756" lon="8.5070579"><ele>292.8333333333333</ele><time>2026-04-22T11:46:48.316Z</time></trkpt><trkpt lat="39.3351198" lon="8.5071423"><ele>293.66666666666663</ele><time>2026-04-22T11:46:49.316Z</time></trkpt><trkpt lat="39.3351951" lon="8.5073124"><ele>294.5</ele><time>2026-04-22T11:46:51.316Z</time></trkpt><trkpt lat="39.335226" lon="8.507389"><ele>295.3333333333333</ele><time>2026-04-22T11:46:52.316Z</time></trkpt><trkpt lat="39.3352639" lon="8.5074731"><ele>296.1666666666667</ele><time>2026-04-22T11:46:53.316Z</time></trkpt><trkpt lat="39.3352999" lon="8.5075471"><ele>297.0</ele><time>2026-04-22T11:46:54.317Z</time></trkpt><trkpt lat="39.3353391" lon="8.5076117"><ele>297.0</ele><time>2026-04-22T11:46:55.316Z</time></trkpt><trkpt lat="39.3353849" lon="8.5076877"><ele>297.0</ele><time>2026-04-22T11:46:56.317Z</time></trkpt><trkpt lat="39.3354191" lon="8.5077723"><ele>297.0</ele><time>2026-04-22T11:46:57.317Z</time></trkpt><trkpt lat="39.3354478" lon="8.5078716"><ele>297.0</ele><time>2026-04-22T11:46:58.317Z</time></trkpt><trkpt lat="39.3354677" lon="8.5079859"><ele>297.0</ele><time>2026-04-22T11:46:59.317Z</time></trkpt><trkpt lat="39.3354793" lon="8.5080973"><ele>297.0</ele><time>2026-04-22T11:47:00.317Z</time></trkpt><trkpt lat="39.3354845" lon="8.5082081"><ele>295.8333333333333</ele><time>2026-04-22T11:47:01.317Z</time></trkpt><trkpt lat="39.3355095" lon="8.5083228"><ele>294.6666666666667</ele><time>2026-04-22T11:47:02.317Z</time></trkpt><trkpt lat="39.3355489" lon="8.5084226"><ele>293.5</ele><time>2026-04-22T11:47:03.317Z</time></trkpt><trkpt lat="39.3355898" lon="8.508505"><ele>292.33333333333337</ele><time>2026-04-22T11:47:04.317Z</time></trkpt><trkpt lat="39.3356316" lon="8.5085708"><ele>291.1666666666667</ele><time>2026-04-22T11:47:05.316Z</time></trkpt><trkpt lat="39.3356831" lon="8.5086984"><ele>290.0</ele><time>2026-04-22T11:47:07.316Z</time></trkpt><trkpt lat="39.335708" lon="8.5087751"><ele>288.33333333333337</ele><time>2026-04-22T11:47:08.317Z</time></trkpt><trkpt lat="39.3357384" lon="8.50885"><ele>286.6666666666667</ele><time>2026-04-22T11:47:09.317Z</time></trkpt><trkpt lat="39.3357852" lon="8.5089153"><ele>285.0</ele><time>2026-04-22T11:47:10.317Z</time></trkpt><trkpt lat="39.3358834" lon="8.5090572"><ele>283.3333333333333</ele><time>2026-04-22T11:47:12.317Z</time></trkpt><trkpt lat="39.3359291" lon="8.5091439"><ele>281.66666666666663</ele><time>2026-04-22T11:47:13.317Z</time></trkpt><trkpt lat="39.3359686" lon="8.5092356"><ele>280.0</ele><time>2026-04-22T11:47:14.317Z</time></trkpt><trkpt lat="39.3359951" lon="8.509328"><ele>280.0</ele><time>2026-04-22T11:47:15.317Z</time></trkpt><trkpt lat="39.3360043" lon="8.5094232"><ele>280.0</ele><time>2026-04-22T11:47:16.317Z</time></trkpt><trkpt lat="39.3359971" lon="8.5095241"><ele>280.0</ele><time>2026-04-22T11:47:17.317Z</time></trkpt><trkpt lat="39.3359753" lon="8.5096336"><ele>280.0</ele><time>2026-04-22T11:47:18.316Z</time></trkpt><trkpt lat="39.3359508" lon="8.5097388"><ele>280.0</ele><time>2026-04-22T11:47:19.317Z</time></trkpt><trkpt lat="39.3359179" lon="8.5098488"><ele>280.0</ele><time>2026-04-22T11:47:20.317Z</time></trkpt><trkpt lat="39.3358798" lon="8.509947"><ele>280.5</ele><time>2026-04-22T11:47:21.317Z</time></trkpt><trkpt lat="39.3358358" lon="8.510028"><ele>281.0</ele><time>2026-04-22T11:47:22.317Z</time></trkpt><trkpt lat="39.3357858" lon="8.5100906"><ele>281.5</ele><time>2026-04-22T11:47:23.317Z</time></trkpt><trkpt lat="39.3357295" lon="8.5101416"><ele>282.0</ele><time>2026-04-22T11:47:24.316Z</time></trkpt><trkpt lat="39.3356518" lon="8.510198"><ele>282.5</ele><time>2026-04-22T11:47:25.316Z</time></trkpt><trkpt lat="39.3355641" lon="8.5102448"><ele>283.0</ele><time>2026-04-22T11:47:26.317Z</time></trkpt><trkpt lat="39.3354718" lon="8.5102942"><ele>283.0</ele><time>2026-04-22T11:47:27.317Z</time></trkpt><trkpt lat="39.3353731" lon="8.5103524"><ele>283.0</ele><time>2026-04-22T11:47:28.317Z</time></trkpt><trkpt lat="39.335268" lon="8.5104051"><ele>283.0</ele><time>2026-04-22T11:47:29.316Z</time></trkpt><trkpt lat="39.3351569" lon="8.5104628"><ele>283.0</ele><time>2026-04-22T11:47:30.317Z</time></trkpt><trkpt lat="39.3350606" lon="8.5105233"><ele>283.0</ele><time>2026-04-22T11:47:31.316Z</time></trkpt><trkpt lat="39.3348949" lon="8.5106357"><ele>284.0</ele><time>2026-04-22T11:47:33.316Z</time></trkpt><trkpt lat="39.3348168" lon="8.5106831"><ele>285.0</ele><time>2026-04-22T11:47:34.316Z</time></trkpt><trkpt lat="39.3347404" lon="8.5107218"><ele>286.0</ele><time>2026-04-22T11:47:35.317Z</time></trkpt><trkpt lat="39.3346693" lon="8.5107694"><ele>287.0</ele><time>2026-04-22T11:47:36.317Z</time></trkpt><trkpt lat="39.3345998" lon="8.510831"><ele>288.0</ele><time>2026-04-22T11:47:37.317Z</time></trkpt><trkpt lat="39.3345354" lon="8.5109095"><ele>289.0</ele><time>2026-04-22T11:47:38.316Z</time></trkpt><trkpt lat="39.3344765" lon="8.5109945"><ele>289.0</ele><time>2026-04-22T11:47:39.316Z</time></trkpt><trkpt lat="39.3344186" lon="8.5110864"><ele>289.0</ele><time>2026-04-22T11:47:40.317Z</time></trkpt><trkpt lat="39.3343591" lon="8.5111925"><ele>289.0</ele><time>2026-04-22T11:47:41.316Z</time></trkpt><trkpt lat="39.3343098" lon="8.511286"><ele>289.0</ele><time>2026-04-22T11:47:42.317Z</time></trkpt><trkpt lat="39.3342622" lon="8.5113754"><ele>289.0</ele><time>2026-04-22T11:47:43.316Z</time></trkpt><trkpt lat="39.3342199" lon="8.5114613"><ele>289.0</ele><time>2026-04-22T11:47:44.316Z</time></trkpt><trkpt lat="39.3341835" lon="8.5115421"><ele>287.16666666666663</ele><time>2026-04-22T11:47:45.317Z</time></trkpt><trkpt lat="39.3341599" lon="8.5116218"><ele>285.3333333333333</ele><time>2026-04-22T11:47:46.317Z</time></trkpt><trkpt lat="39.3341745" lon="8.5117629"><ele>283.5</ele><time>2026-04-22T11:47:48.317Z</time></trkpt><trkpt lat="39.3342177" lon="8.5118276"><ele>281.6666666666667</ele><time>2026-04-22T11:47:49.316Z</time></trkpt><trkpt lat="39.3342873" lon="8.5118944"><ele>279.83333333333337</ele><time>2026-04-22T11:47:50.316Z</time></trkpt><trkpt lat="39.3343656" lon="8.5119538"><ele>278.0</ele><time>2026-04-22T11:47:51.317Z</time></trkpt><trkpt lat="39.3344428" lon="8.5120085"><ele>278.0</ele><time>2026-04-22T11:47:52.317Z</time></trkpt><trkpt lat="39.3345995" lon="8.5121431"><ele>278.0</ele><time>2026-04-22T11:47:54.317Z</time></trkpt><trkpt lat="39.3346569" lon="8.5122189"><ele>278.0</ele><time>2026-04-22T11:47:55.317Z</time></trkpt><trkpt lat="39.334705" lon="8.5122946"><ele>278.0</ele><time>2026-04-22T11:47:56.317Z</time></trkpt><trkpt lat="39.3347525" lon="8.5123832"><ele>278.0</ele><time>2026-04-22T11:47:57.316Z</time></trkpt><trkpt lat="39.3348032" lon="8.5124795"><ele>277.5</ele><time>2026-04-22T11:47:58.317Z</time></trkpt><trkpt lat="39.3348512" lon="8.5125828"><ele>277.0</ele><time>2026-04-22T11:47:59.317Z</time></trkpt><trkpt lat="39.3348857" lon="8.5126802"><ele>276.5</ele><time>2026-04-22T11:48:00.317Z</time></trkpt><trkpt lat="39.3349076" lon="8.5127692"><ele>276.0</ele><time>2026-04-22T11:48:01.317Z</time></trkpt><trkpt lat="39.3349135" lon="8.5129332"><ele>275.5</ele><time>2026-04-22T11:48:03.317Z</time></trkpt><trkpt lat="39.3349003" lon="8.5130183"><ele>275.0</ele><time>2026-04-22T11:48:04.317Z</time></trkpt><trkpt lat="39.3348734" lon="8.5131024"><ele>275.0</ele><time>2026-04-22T11:48:05.317Z</time></trkpt><trkpt lat="39.3348432" lon="8.5131795"><ele>275.0</ele><time>2026-04-22T11:48:06.317Z</time></trkpt><trkpt lat="39.3348254" lon="8.5133101"><ele>275.0</ele><time>2026-04-22T11:48:08.316Z</time></trkpt><trkpt lat="39.3348871" lon="8.5134424"><ele>275.0</ele><time>2026-04-22T11:48:10.316Z</time></trkpt><trkpt lat="39.3349703" lon="8.5135552"><ele>275.0</ele><time>2026-04-22T11:48:12.317Z</time></trkpt><trkpt lat="39.3350407" lon="8.5136897"><ele>273.0</ele><time>2026-04-22T11:48:14.317Z</time></trkpt><trkpt lat="39.3351394" lon="8.5138834"><ele>271.0</ele><time>2026-04-22T11:48:17.317Z</time></trkpt><trkpt lat="39.3351607" lon="8.514001"><ele>269.0</ele><time>2026-04-22T11:48:19.317Z</time></trkpt><trkpt lat="39.3351179" lon="8.5141067"><ele>267.0</ele><time>2026-04-22T11:48:21.317Z</time></trkpt><trkpt lat="39.3350747" lon="8.5142083"><ele>267.0</ele><time>2026-04-22T11:48:23.317Z</time></trkpt><trkpt lat="39.3350874" lon="8.5143591"><ele>267.0</ele><time>2026-04-22T11:48:25.317Z</time></trkpt><trkpt lat="39.3351175" lon="8.514455"><ele>267.0</ele><time>2026-04-22T11:48:26.316Z</time></trkpt><trkpt lat="39.3351559" lon="8.5145586"><ele>267.0</ele><time>2026-04-22T11:48:27.316Z</time></trkpt><trkpt lat="39.3351929" lon="8.5146671"><ele>267.0</ele><time>2026-04-22T11:48:28.317Z</time></trkpt><trkpt lat="39.3352227" lon="8.5147717"><ele>267.42857142857144</ele><time>2026-04-22T11:48:29.317Z</time></trkpt><trkpt lat="39.3352478" lon="8.5148618"><ele>267.8571428571429</ele><time>2026-04-22T11:48:30.317Z</time></trkpt><trkpt lat="39.3352639" lon="8.5149513"><ele>268.2857142857143</ele><time>2026-04-22T11:48:31.317Z</time></trkpt><trkpt lat="39.335273" lon="8.5150407"><ele>268.7142857142857</ele><time>2026-04-22T11:48:32.317Z</time></trkpt><trkpt lat="39.3352791" lon="8.5151331"><ele>269.1428571428571</ele><time>2026-04-22T11:48:33.317Z</time></trkpt><trkpt lat="39.3352743" lon="8.515227"><ele>269.57142857142856</ele><time>2026-04-22T11:48:34.317Z</time></trkpt><trkpt lat="39.3352705" lon="8.5153383"><ele>270.0</ele><time>2026-04-22T11:48:35.316Z</time></trkpt><trkpt lat="39.3352576" lon="8.5156027"><ele>270.0</ele><time>2026-04-22T11:48:37.317Z</time></trkpt><trkpt lat="39.3352504" lon="8.5157375"><ele>270.0</ele><time>2026-04-22T11:48:38.317Z</time></trkpt><trkpt lat="39.3352455" lon="8.5158637"><ele>270.0</ele><time>2026-04-22T11:48:39.317Z</time></trkpt><trkpt lat="39.3352387" lon="8.5159808"><ele>270.0</ele><time>2026-04-22T11:48:40.316Z</time></trkpt><trkpt lat="39.335228" lon="8.5160866"><ele>270.0</ele><time>2026-04-22T11:48:41.317Z</time></trkpt><trkpt lat="39.3352152" lon="8.5161894"><ele>269.6666666666667</ele><time>2026-04-22T11:48:42.316Z</time></trkpt><trkpt lat="39.3351915" lon="8.5163"><ele>269.3333333333333</ele><time>2026-04-22T11:48:43.316Z</time></trkpt><trkpt lat="39.3351594" lon="8.5164152"><ele>269.0</ele><time>2026-04-22T11:48:44.317Z</time></trkpt><trkpt lat="39.3351249" lon="8.5165195"><ele>268.66666666666663</ele><time>2026-04-22T11:48:45.317Z</time></trkpt><trkpt lat="39.3350944" lon="8.5166132"><ele>268.3333333333333</ele><time>2026-04-22T11:48:46.317Z</time></trkpt><trkpt lat="39.3350701" lon="8.5167003"><ele>268.0</ele><time>2026-04-22T11:48:47.316Z</time></trkpt><trkpt lat="39.3350424" lon="8.5167847"><ele>268.0</ele><time>2026-04-22T11:48:48.317Z</time></trkpt><trkpt lat="39.3350051" lon="8.5168616"><ele>268.0</ele><time>2026-04-22T11:48:49.316Z</time></trkpt><trkpt lat="39.3349716" lon="8.5169335"><ele>268.0</ele><time>2026-04-22T11:48:50.317Z</time></trkpt><trkpt lat="39.3349036" lon="8.517017"><ele>268.0</ele><time>2026-04-22T11:48:52.317Z</time></trkpt><trkpt lat="39.3348412" lon="8.5170332"><ele>268.0</ele><time>2026-04-22T11:48:53.316Z</time></trkpt><trkpt lat="39.334772" lon="8.5170457"><ele>268.0</ele><time>2026-04-22T11:48:54.317Z</time></trkpt><trkpt lat="39.334696" lon="8.5170547"><ele>268.0</ele><time>2026-04-22T11:48:55.316Z</time></trkpt><trkpt lat="39.3346267" lon="8.5170766"><ele>268.3333333333333</ele><time>2026-04-22T11:48:56.317Z</time></trkpt><trkpt lat="39.3345427" lon="8.517196"><ele>268.66666666666663</ele><time>2026-04-22T11:48:58.317Z</time></trkpt><trkpt lat="39.3345368" lon="8.5172902"><ele>269.0</ele><time>2026-04-22T11:48:59.317Z</time></trkpt><trkpt lat="39.334561" lon="8.5173887"><ele>269.3333333333333</ele><time>2026-04-22T11:49:00.317Z</time></trkpt><trkpt lat="39.3345937" lon="8.517483"><ele>269.6666666666667</ele><time>2026-04-22T11:49:01.317Z</time></trkpt><trkpt lat="39.3346113" lon="8.5175637"><ele>270.0</ele><time>2026-04-22T11:49:02.316Z</time></trkpt><trkpt lat="39.3346059" lon="8.5177023"><ele>270.0</ele><time>2026-04-22T11:49:04.317Z</time></trkpt><trkpt lat="39.3345514" lon="8.5178238"><ele>270.0</ele><time>2026-04-22T11:49:06.317Z</time></trkpt><trkpt lat="39.3344799" lon="8.5178953"><ele>270.0</ele><time>2026-04-22T11:49:08.317Z</time></trkpt><trkpt lat="39.3343918" lon="8.5179336"><ele>270.0</ele><time>2026-04-22T11:49:10.317Z</time></trkpt><trkpt lat="39.3342748" lon="8.5179378"><ele>270.0</ele><time>2026-04-22T11:49:12.317Z</time></trkpt><trkpt lat="39.3342076" lon="8.5179273"><ele>267.8</ele><time>2026-04-22T11:49:13.316Z</time></trkpt><trkpt lat="39.3341267" lon="8.5179175"><ele>265.6</ele><time>2026-04-22T11:49:14.316Z</time></trkpt><trkpt lat="39.3340399" lon="8.5179254"><ele>263.4</ele><time>2026-04-22T11:49:15.316Z</time></trkpt><trkpt lat="39.3339599" lon="8.5179537"><ele>261.2</ele><time>2026-04-22T11:49:16.317Z</time></trkpt><trkpt lat="39.3338974" lon="8.5179979"><ele>259.0</ele><time>2026-04-22T11:49:17.317Z</time></trkpt><trkpt lat="39.3338936" lon="8.5182383"><ele>259.0</ele><time>2026-04-22T11:49:21.316Z</time></trkpt><trkpt lat="39.3339658" lon="8.5183093"><ele>259.0</ele><time>2026-04-22T11:49:23.317Z</time></trkpt><trkpt lat="39.3340438" lon="8.5184009"><ele>259.0</ele><time>2026-04-22T11:49:25.316Z</time></trkpt><trkpt lat="39.3340659" lon="8.5185362"><ele>259.0</ele><time>2026-04-22T11:49:27.317Z</time></trkpt><trkpt lat="39.3340251" lon="8.5186973"><ele>259.0</ele><time>2026-04-22T11:49:29.317Z</time></trkpt><trkpt lat="39.3339807" lon="8.5187981"><ele>258.3333333333333</ele><time>2026-04-22T11:49:30.317Z</time></trkpt><trkpt lat="39.3339465" lon="8.5189105"><ele>257.66666666666663</ele><time>2026-04-22T11:49:31.317Z</time></trkpt><trkpt lat="39.3339283" lon="8.5190316"><ele>257.0</ele><time>2026-04-22T11:49:32.317Z</time></trkpt><trkpt lat="39.3339189" lon="8.5191497"><ele>256.3333333333333</ele><time>2026-04-22T11:49:33.316Z</time></trkpt><trkpt lat="39.3339157" lon="8.5192587"><ele>255.66666666666666</ele><time>2026-04-22T11:49:34.317Z</time></trkpt><trkpt lat="39.3339208" lon="8.5193608"><ele>255.0</ele><time>2026-04-22T11:49:35.316Z</time></trkpt><trkpt lat="39.3339309" lon="8.5194595"><ele>255.0</ele><time>2026-04-22T11:49:36.316Z</time></trkpt><trkpt lat="39.3339447" lon="8.5195561"><ele>255.0</ele><time>2026-04-22T11:49:37.316Z</time></trkpt><trkpt lat="39.3339878" lon="8.5197334"><ele>255.0</ele><time>2026-04-22T11:49:39.317Z</time></trkpt><trkpt lat="39.3340211" lon="8.5198087"><ele>255.0</ele><time>2026-04-22T11:49:40.317Z</time></trkpt><trkpt lat="39.3340743" lon="8.5198873"><ele>255.0</ele><time>2026-04-22T11:49:41.316Z</time></trkpt><trkpt lat="39.3341388" lon="8.5199657"><ele>257.3333333333333</ele><time>2026-04-22T11:49:42.317Z</time></trkpt><trkpt lat="39.334215" lon="8.5200388"><ele>259.6666666666667</ele><time>2026-04-22T11:49:43.316Z</time></trkpt><trkpt lat="39.3342911" lon="8.5200958"><ele>262.0</ele><time>2026-04-22T11:49:44.317Z</time></trkpt><trkpt lat="39.3343698" lon="8.5201551"><ele>264.33333333333337</ele><time>2026-04-22T11:49:45.316Z</time></trkpt><trkpt lat="39.3344415" lon="8.5202205"><ele>266.6666666666667</ele><time>2026-04-22T11:49:46.316Z</time></trkpt><trkpt lat="39.3345016" lon="8.5202841"><ele>269.0</ele><time>2026-04-22T11:49:47.317Z</time></trkpt><trkpt lat="39.3345471" lon="8.5203461"><ele>270.83333333333337</ele><time>2026-04-22T11:49:48.317Z</time></trkpt><trkpt lat="39.3345961" lon="8.5204094"><ele>272.6666666666667</ele><time>2026-04-22T11:49:49.317Z</time></trkpt><trkpt lat="39.3346418" lon="8.5204807"><ele>274.5</ele><time>2026-04-22T11:49:50.316Z</time></trkpt><trkpt lat="39.3346835" lon="8.5205634"><ele>276.3333333333333</ele><time>2026-04-22T11:49:51.317Z</time></trkpt><trkpt lat="39.3347159" lon="8.5206568"><ele>278.16666666666663</ele><time>2026-04-22T11:49:52.317Z</time></trkpt><trkpt lat="39.3347327" lon="8.5207669"><ele>280.0</ele><time>2026-04-22T11:49:53.317Z</time></trkpt><trkpt lat="39.3347315" lon="8.5208888"><ele>280.0</ele><time>2026-04-22T11:49:54.316Z</time></trkpt><trkpt lat="39.3347196" lon="8.5210075"><ele>280.0</ele><time>2026-04-22T11:49:55.317Z</time></trkpt><trkpt lat="39.3347022" lon="8.5211241"><ele>280.0</ele><time>2026-04-22T11:49:56.316Z</time></trkpt><trkpt lat="39.3346844" lon="8.5212357"><ele>280.0</ele><time>2026-04-22T11:49:57.317Z</time></trkpt><trkpt lat="39.3346591" lon="8.5213352"><ele>280.0</ele><time>2026-04-22T11:49:58.317Z</time></trkpt><trkpt lat="39.3345831" lon="8.5214949"><ele>277.6</ele><time>2026-04-22T11:50:00.316Z</time></trkpt><trkpt lat="39.3345382" lon="8.5215676"><ele>275.2</ele><time>2026-04-22T11:50:01.316Z</time></trkpt><trkpt lat="39.3344662" lon="8.5216405"><ele>272.8</ele><time>2026-04-22T11:50:02.316Z</time></trkpt><trkpt lat="39.3343838" lon="8.5217106"><ele>270.4</ele><time>2026-04-22T11:50:03.317Z</time></trkpt><trkpt lat="39.3342947" lon="8.5217762"><ele>268.0</ele><time>2026-04-22T11:50:04.317Z</time></trkpt><trkpt lat="39.3342045" lon="8.5218435"><ele>268.0</ele><time>2026-04-22T11:50:05.316Z</time></trkpt><trkpt lat="39.3341122" lon="8.5219176"><ele>268.0</ele><time>2026-04-22T11:50:06.316Z</time></trkpt><trkpt lat="39.334015" lon="8.5219926"><ele>268.0</ele><time>2026-04-22T11:50:07.316Z</time></trkpt><trkpt lat="39.333921" lon="8.5220693"><ele>268.0</ele><time>2026-04-22T11:50:08.317Z</time></trkpt><trkpt lat="39.3338346" lon="8.5221438"><ele>268.0</ele><time>2026-04-22T11:50:09.317Z</time></trkpt><trkpt lat="39.333748" lon="8.5222163"><ele>267.0</ele><time>2026-04-22T11:50:10.317Z</time></trkpt><trkpt lat="39.3336588" lon="8.5222828"><ele>266.0</ele><time>2026-04-22T11:50:11.316Z</time></trkpt><trkpt lat="39.3335648" lon="8.5223513"><ele>265.0</ele><time>2026-04-22T11:50:12.317Z</time></trkpt><trkpt lat="39.3334661" lon="8.5224232"><ele>264.0</ele><time>2026-04-22T11:50:13.317Z</time></trkpt><trkpt lat="39.3333738" lon="8.5225022"><ele>263.0</ele><time>2026-04-22T11:50:14.317Z</time></trkpt><trkpt lat="39.333275" lon="8.5225712"><ele>263.0</ele><time>2026-04-22T11:50:15.316Z</time></trkpt><trkpt lat="39.3331808" lon="8.5226343"><ele>263.0</ele><time>2026-04-22T11:50:16.316Z</time></trkpt><trkpt lat="39.3331034" lon="8.5226971"><ele>263.0</ele><time>2026-04-22T11:50:17.316Z</time></trkpt><trkpt lat="39.3330372" lon="8.5227713"><ele>263.0</ele><time>2026-04-22T11:50:18.317Z</time></trkpt><trkpt lat="39.3329812" lon="8.5228609"><ele>263.0</ele><time>2026-04-22T11:50:19.317Z</time></trkpt><trkpt lat="39.3328889" lon="8.5230859"><ele>266.4</ele><time>2026-04-22T11:50:21.317Z</time></trkpt><trkpt lat="39.3328435" lon="8.5232063"><ele>269.8</ele><time>2026-04-22T11:50:22.316Z</time></trkpt><trkpt lat="39.3327977" lon="8.523321"><ele>273.2</ele><time>2026-04-22T11:50:23.317Z</time></trkpt><trkpt lat="39.3327528" lon="8.523426"><ele>276.6</ele><time>2026-04-22T11:50:24.316Z</time></trkpt><trkpt lat="39.3327072" lon="8.5235213"><ele>280.0</ele><time>2026-04-22T11:50:25.317Z</time></trkpt><trkpt lat="39.3326724" lon="8.5236142"><ele>280.0</ele><time>2026-04-22T11:50:26.317Z</time></trkpt><trkpt lat="39.3326442" lon="8.5236994"><ele>280.0</ele><time>2026-04-22T11:50:27.317Z</time></trkpt><trkpt lat="39.332627" lon="8.5238003"><ele>280.0</ele><time>2026-04-22T11:50:28.317Z</time></trkpt><trkpt lat="39.3326075" lon="8.523905"><ele>280.0</ele><time>2026-04-22T11:50:29.316Z</time></trkpt><trkpt lat="39.3325935" lon="8.524017"><ele>280.0</ele><time>2026-04-22T11:50:30.317Z</time></trkpt><trkpt lat="39.3325837" lon="8.5241333"><ele>280.0</ele><time>2026-04-22T11:50:31.317Z</time></trkpt><trkpt lat="39.3325816" lon="8.5242471"><ele>278.0</ele><time>2026-04-22T11:50:32.316Z</time></trkpt><trkpt lat="39.332594" lon="8.5243635"><ele>276.0</ele><time>2026-04-22T11:50:33.316Z</time></trkpt><trkpt lat="39.3326052" lon="8.5244779"><ele>274.0</ele><time>2026-04-22T11:50:34.317Z</time></trkpt><trkpt lat="39.3326191" lon="8.5245991"><ele>272.0</ele><time>2026-04-22T11:50:35.317Z</time></trkpt><trkpt lat="39.3326323" lon="8.5247213"><ele>270.0</ele><time>2026-04-22T11:50:36.317Z</time></trkpt><trkpt lat="39.3326492" lon="8.5248365"><ele>270.0</ele><time>2026-04-22T11:50:37.317Z</time></trkpt><trkpt lat="39.3326706" lon="8.5249431"><ele>270.0</ele><time>2026-04-22T11:50:38.316Z</time></trkpt><trkpt lat="39.3326812" lon="8.525048"><ele>270.0</ele><time>2026-04-22T11:50:39.316Z</time></trkpt><trkpt lat="39.3326605" lon="8.5252561"><ele>270.0</ele><time>2026-04-22T11:50:41.317Z</time></trkpt><trkpt lat="39.3326379" lon="8.5253701"><ele>270.0</ele><time>2026-04-22T11:50:42.316Z</time></trkpt><trkpt lat="39.3326207" lon="8.5254846"><ele>270.8</ele><time>2026-04-22T11:50:43.316Z</time></trkpt><trkpt lat="39.3326176" lon="8.5255944"><ele>271.6</ele><time>2026-04-22T11:50:44.316Z</time></trkpt><trkpt lat="39.3326313" lon="8.5257057"><ele>272.4</ele><time>2026-04-22T11:50:45.317Z</time></trkpt><trkpt lat="39.3326497" lon="8.5258234"><ele>273.2</ele><time>2026-04-22T11:50:46.317Z</time></trkpt><trkpt lat="39.3326697" lon="8.5259556"><ele>274.0</ele><time>2026-04-22T11:50:47.317Z</time></trkpt><trkpt lat="39.3326835" lon="8.5261009"><ele>274.4</ele><time>2026-04-22T11:50:48.316Z</time></trkpt><trkpt lat="39.3326903" lon="8.5262481"><ele>274.79999999999995</ele><time>2026-04-22T11:50:49.317Z</time></trkpt><trkpt lat="39.3326928" lon="8.5263959"><ele>275.20000000000005</ele><time>2026-04-22T11:50:50.317Z</time></trkpt><trkpt lat="39.3327021" lon="8.5265369"><ele>275.6</ele><time>2026-04-22T11:50:51.317Z</time></trkpt><trkpt lat="39.3327223" lon="8.5266693"><ele>276.0</ele><time>2026-04-22T11:50:52.316Z</time></trkpt><trkpt lat="39.3327483" lon="8.5267959"><ele>276.0</ele><time>2026-04-22T11:50:53.317Z</time></trkpt><trkpt lat="39.332782" lon="8.5269189"><ele>276.0</ele><time>2026-04-22T11:50:54.317Z</time></trkpt><trkpt lat="39.3328204" lon="8.5270382"><ele>276.0</ele><time>2026-04-22T11:50:55.317Z</time></trkpt><trkpt lat="39.3328556" lon="8.5271668"><ele>276.0</ele><time>2026-04-22T11:50:56.317Z</time></trkpt><trkpt lat="39.3328864" lon="8.527305"><ele>276.0</ele><time>2026-04-22T11:50:57.317Z</time></trkpt><trkpt lat="39.3329078" lon="8.5274523"><ele>279.0</ele><time>2026-04-22T11:50:58.317Z</time></trkpt><trkpt lat="39.3329259" lon="8.5276018"><ele>282.0</ele><time>2026-04-22T11:50:59.317Z</time></trkpt><trkpt lat="39.3329427" lon="8.527749"><ele>285.0</ele><time>2026-04-22T11:51:00.317Z</time></trkpt><trkpt lat="39.3329743" lon="8.5280128"><ele>288.0</ele><time>2026-04-22T11:51:02.317Z</time></trkpt><trkpt lat="39.332994" lon="8.5281319"><ele>289.0</ele><time>2026-04-22T11:51:03.316Z</time></trkpt><trkpt lat="39.3330145" lon="8.528248"><ele>290.0</ele><time>2026-04-22T11:51:04.316Z</time></trkpt><trkpt lat="39.3330392" lon="8.5283573"><ele>291.0</ele><time>2026-04-22T11:51:05.317Z</time></trkpt><trkpt lat="39.3330745" lon="8.5284581"><ele>292.0</ele><time>2026-04-22T11:51:06.316Z</time></trkpt><trkpt lat="39.333106" lon="8.5285422"><ele>293.0</ele><time>2026-04-22T11:51:07.317Z</time></trkpt><trkpt lat="39.3331586" lon="8.5286701"><ele>290.6</ele><time>2026-04-22T11:51:09.316Z</time></trkpt><trkpt lat="39.3331884" lon="8.528743"><ele>288.20000000000005</ele><time>2026-04-22T11:51:11.317Z</time></trkpt><trkpt lat="39.3332007" lon="8.5288329"><ele>285.8</ele><time>2026-04-22T11:51:13.317Z</time></trkpt><trkpt lat="39.3331951" lon="8.5289473"><ele>283.40000000000003</ele><time>2026-04-22T11:51:15.317Z</time></trkpt><trkpt lat="39.3331115" lon="8.5290993"><ele>281.0</ele><time>2026-04-22T11:51:17.317Z</time></trkpt><trkpt lat="39.3330366" lon="8.5292011"><ele>281.0</ele><time>2026-04-22T11:51:18.316Z</time></trkpt><trkpt lat="39.3329507" lon="8.5293265"><ele>281.0</ele><time>2026-04-22T11:51:19.316Z</time></trkpt><trkpt lat="39.3328642" lon="8.52946"><ele>281.0</ele><time>2026-04-22T11:51:20.317Z</time></trkpt><trkpt lat="39.3327859" lon="8.5295849"><ele>281.0</ele><time>2026-04-22T11:51:21.316Z</time></trkpt><trkpt lat="39.3326257" lon="8.5298689"><ele>275.25</ele><time>2026-04-22T11:51:23.317Z</time></trkpt><trkpt lat="39.3325452" lon="8.5300323"><ele>269.5</ele><time>2026-04-22T11:51:24.316Z</time></trkpt><trkpt lat="39.3324678" lon="8.5301785"><ele>263.75</ele><time>2026-04-22T11:51:25.316Z</time></trkpt><trkpt lat="39.3323828" lon="8.5303084"><ele>258.0</ele><time>2026-04-22T11:51:26.316Z</time></trkpt><trkpt lat="39.3322858" lon="8.5304144"><ele>258.0</ele><time>2026-04-22T11:51:27.317Z</time></trkpt><trkpt lat="39.3321855" lon="8.5304962"><ele>258.0</ele><time>2026-04-22T11:51:28.317Z</time></trkpt><trkpt lat="39.3320776" lon="8.5305518"><ele>258.0</ele><time>2026-04-22T11:51:29.316Z</time></trkpt><trkpt lat="39.3319557" lon="8.5305762"><ele>258.0</ele><time>2026-04-22T11:51:30.317Z</time></trkpt><trkpt lat="39.3318214" lon="8.5305867"><ele>258.0</ele><time>2026-04-22T11:51:31.317Z</time></trkpt><trkpt lat="39.331685" lon="8.5306125"><ele>258.0</ele><time>2026-04-22T11:51:32.317Z</time></trkpt><trkpt lat="39.3315439" lon="8.5306852"><ele>258.0</ele><time>2026-04-22T11:51:33.316Z</time></trkpt><trkpt lat="39.3314082" lon="8.5307966"><ele>258.6666666666667</ele><time>2026-04-22T11:51:34.317Z</time></trkpt><trkpt lat="39.3312831" lon="8.5309379"><ele>259.33333333333337</ele><time>2026-04-22T11:51:35.317Z</time></trkpt><trkpt lat="39.3311756" lon="8.5310881"><ele>260.0</ele><time>2026-04-22T11:51:36.317Z</time></trkpt><trkpt lat="39.3310826" lon="8.5312313"><ele>260.0</ele><time>2026-04-22T11:51:37.317Z</time></trkpt><trkpt lat="39.3309921" lon="8.5313543"><ele>260.0</ele><time>2026-04-22T11:51:38.316Z</time></trkpt><trkpt lat="39.3308941" lon="8.5314377"><ele>260.0</ele><time>2026-04-22T11:51:39.317Z</time></trkpt><trkpt lat="39.3307753" lon="8.5314945"><ele>260.0</ele><time>2026-04-22T11:51:40.317Z</time></trkpt><trkpt lat="39.3306458" lon="8.5315331"><ele>267.5</ele><time>2026-04-22T11:51:41.317Z</time></trkpt><trkpt lat="39.3304984" lon="8.5315641"><ele>275.0</ele><time>2026-04-22T11:51:42.316Z</time></trkpt><trkpt lat="39.3301728" lon="8.5316328"><ele>275.0</ele><time>2026-04-22T11:51:44.317Z</time></trkpt><trkpt lat="39.3299928" lon="8.5316692"><ele>275.0</ele><time>2026-04-22T11:51:45.316Z</time></trkpt><trkpt lat="39.3298199" lon="8.5317094"><ele>275.0</ele><time>2026-04-22T11:51:46.317Z</time></trkpt><trkpt lat="39.3296503" lon="8.5317507"><ele>278.0</ele><time>2026-04-22T11:51:47.317Z</time></trkpt><trkpt lat="39.3294881" lon="8.5317911"><ele>281.0</ele><time>2026-04-22T11:51:48.316Z</time></trkpt><trkpt lat="39.329327" lon="8.5318307"><ele>284.0</ele><time>2026-04-22T11:51:49.317Z</time></trkpt><trkpt lat="39.329172" lon="8.5318397"><ele>284.0</ele><time>2026-04-22T11:51:50.317Z</time></trkpt><trkpt lat="39.3290135" lon="8.5318419"><ele>284.0</ele><time>2026-04-22T11:51:51.317Z</time></trkpt><trkpt lat="39.3288472" lon="8.5318446"><ele>284.0</ele><time>2026-04-22T11:51:52.316Z</time></trkpt><trkpt lat="39.3286917" lon="8.5318777"><ele>285.0</ele><time>2026-04-22T11:51:53.317Z</time></trkpt><trkpt lat="39.328549" lon="8.5319331"><ele>286.0</ele><time>2026-04-22T11:51:54.316Z</time></trkpt><trkpt lat="39.3284128" lon="8.5319758"><ele>287.0</ele><time>2026-04-22T11:51:55.316Z</time></trkpt><trkpt lat="39.3282675" lon="8.5319981"><ele>288.0</ele><time>2026-04-22T11:51:56.316Z</time></trkpt><trkpt lat="39.3281106" lon="8.5319787"><ele>287.25</ele><time>2026-04-22T11:51:57.316Z</time></trkpt><trkpt lat="39.3279564" lon="8.5319377"><ele>286.5</ele><time>2026-04-22T11:51:58.316Z</time></trkpt><trkpt lat="39.3278176" lon="8.531894"><ele>285.75</ele><time>2026-04-22T11:51:59.317Z</time></trkpt><trkpt lat="39.3276994" lon="8.5318546"><ele>285.0</ele><time>2026-04-22T11:52:00.317Z</time></trkpt><trkpt lat="39.3275951" lon="8.5318249"><ele>285.0</ele><time>2026-04-22T11:52:01.317Z</time></trkpt><trkpt lat="39.3274963" lon="8.5318084"><ele>285.0</ele><time>2026-04-22T11:52:02.317Z</time></trkpt><trkpt lat="39.327407" lon="8.5318002"><ele>285.0</ele><time>2026-04-22T11:52:03.317Z</time></trkpt><trkpt lat="39.3272376" lon="8.5318161"><ele>285.0</ele><time>2026-04-22T11:52:05.316Z</time></trkpt><trkpt lat="39.3271553" lon="8.5318387"><ele>285.0</ele><time>2026-04-22T11:52:06.317Z</time></trkpt><trkpt lat="39.327077" lon="8.5318689"><ele>285.0</ele><time>2026-04-22T11:52:07.317Z</time></trkpt><trkpt lat="39.3270055" lon="8.5319064"><ele>285.0</ele><time>2026-04-22T11:52:08.317Z</time></trkpt><trkpt lat="39.3269385" lon="8.5319502"><ele>285.0</ele><time>2026-04-22T11:52:09.317Z</time></trkpt><trkpt lat="39.3268703" lon="8.531988"><ele>285.0</ele><time>2026-04-22T11:52:10.317Z</time></trkpt><trkpt lat="39.326774" lon="8.5320416"><ele>285.0</ele><time>2026-04-22T11:52:12.317Z</time></trkpt><trkpt lat="39.3267149" lon="8.5320065"><ele>285.0</ele><time>2026-04-22T11:52:15.317Z</time></trkpt><trkpt lat="39.3266575" lon="8.5321002"><ele>285.0</ele><time>2026-04-22T11:52:44.317Z</time></trkpt><trkpt lat="39.3265171" lon="8.5322133"><ele>285.0</ele><time>2026-04-22T11:52:47.317Z</time></trkpt><trkpt lat="39.3264367" lon="8.532257"><ele>285.0</ele><time>2026-04-22T11:52:48.317Z</time></trkpt><trkpt lat="39.3263417" lon="8.5323121"><ele>285.0</ele><time>2026-04-22T11:52:49.317Z</time></trkpt><trkpt lat="39.3262415" lon="8.5323767"><ele>281.0</ele><time>2026-04-22T11:52:50.316Z</time></trkpt><trkpt lat="39.3261344" lon="8.5324453"><ele>277.0</ele><time>2026-04-22T11:52:51.317Z</time></trkpt><trkpt lat="39.3260215" lon="8.5325078"><ele>273.0</ele><time>2026-04-22T11:52:52.316Z</time></trkpt><trkpt lat="39.3259018" lon="8.5325589"><ele>269.0</ele><time>2026-04-22T11:52:53.316Z</time></trkpt><trkpt lat="39.3257787" lon="8.5326023"><ele>269.0</ele><time>2026-04-22T11:52:54.317Z</time></trkpt><trkpt lat="39.3256529" lon="8.5326388"><ele>269.0</ele><time>2026-04-22T11:52:55.317Z</time></trkpt><trkpt lat="39.3255277" lon="8.5326726"><ele>269.0</ele><time>2026-04-22T11:52:56.316Z</time></trkpt><trkpt lat="39.3254054" lon="8.5327096"><ele>269.0</ele><time>2026-04-22T11:52:57.317Z</time></trkpt><trkpt lat="39.3252826" lon="8.532763"><ele>267.25</ele><time>2026-04-22T11:52:58.317Z</time></trkpt><trkpt lat="39.325167" lon="8.5328324"><ele>265.5</ele><time>2026-04-22T11:52:59.316Z</time></trkpt><trkpt lat="39.3250552" lon="8.5329057"><ele>263.75</ele><time>2026-04-22T11:53:00.317Z</time></trkpt><trkpt lat="39.324952" lon="8.5329804"><ele>262.0</ele><time>2026-04-22T11:53:01.316Z</time></trkpt><trkpt lat="39.324861" lon="8.533054"><ele>262.0</ele><time>2026-04-22T11:53:02.317Z</time></trkpt><trkpt lat="39.3247843" lon="8.5331415"><ele>262.0</ele><time>2026-04-22T11:53:03.317Z</time></trkpt><trkpt lat="39.3247322" lon="8.5332514"><ele>262.0</ele><time>2026-04-22T11:53:04.317Z</time></trkpt><trkpt lat="39.3247098" lon="8.5333798"><ele>262.0</ele><time>2026-04-22T11:53:05.317Z</time></trkpt><trkpt lat="39.3247609" lon="8.5336367"><ele>260.6</ele><time>2026-04-22T11:53:07.316Z</time></trkpt><trkpt lat="39.3248338" lon="8.5337367"><ele>259.2</ele><time>2026-04-22T11:53:08.317Z</time></trkpt><trkpt lat="39.3249226" lon="8.5338049"><ele>257.8</ele><time>2026-04-22T11:53:09.316Z</time></trkpt><trkpt lat="39.3250125" lon="8.533853"><ele>256.4</ele><time>2026-04-22T11:53:10.317Z</time></trkpt><trkpt lat="39.3250901" lon="8.5339042"><ele>255.0</ele><time>2026-04-22T11:53:11.317Z</time></trkpt><trkpt lat="39.3251435" lon="8.5339807"><ele>255.0</ele><time>2026-04-22T11:53:12.317Z</time></trkpt><trkpt lat="39.3251678" lon="8.5340754"><ele>255.0</ele><time>2026-04-22T11:53:13.317Z</time></trkpt><trkpt lat="39.3251559" lon="8.5341845"><ele>255.0</ele><time>2026-04-22T11:53:14.317Z</time></trkpt><trkpt lat="39.325101" lon="8.5343027"><ele>255.0</ele><time>2026-04-22T11:53:15.317Z</time></trkpt><trkpt lat="39.325" lon="8.5344148"><ele>255.0</ele><time>2026-04-22T11:53:16.317Z</time></trkpt><trkpt lat="39.3248892" lon="8.5345118"><ele>255.0</ele><time>2026-04-22T11:53:17.317Z</time></trkpt><trkpt lat="39.3247914" lon="8.5346009"><ele>255.0</ele><time>2026-04-22T11:53:18.317Z</time></trkpt><trkpt lat="39.3247057" lon="8.5346917"><ele>255.0</ele><time>2026-04-22T11:53:19.317Z</time></trkpt><trkpt lat="39.32463" lon="8.5347757"><ele>255.0</ele><time>2026-04-22T11:53:20.317Z</time></trkpt><trkpt lat="39.3245571" lon="8.5348412"><ele>255.0</ele><time>2026-04-22T11:53:21.317Z</time></trkpt><trkpt lat="39.3244801" lon="8.5348821"><ele>255.0</ele><time>2026-04-22T11:53:22.317Z</time></trkpt><trkpt lat="39.3243996" lon="8.5349045"><ele>255.0</ele><time>2026-04-22T11:53:23.316Z</time></trkpt><trkpt lat="39.3243229" lon="8.5348658"><ele>255.0</ele><time>2026-04-22T11:53:24.317Z</time></trkpt><trkpt lat="39.3242471" lon="8.5347387"><ele>255.0</ele><time>2026-04-22T11:53:25.317Z</time></trkpt><trkpt lat="39.3241699" lon="8.5345861"><ele>255.0</ele><time>2026-04-22T11:53:26.317Z</time></trkpt><trkpt lat="39.324003" lon="8.534294"><ele>254.5</ele><time>2026-04-22T11:53:28.317Z</time></trkpt><trkpt lat="39.3239132" lon="8.5341589"><ele>254.0</ele><time>2026-04-22T11:53:29.316Z</time></trkpt><trkpt lat="39.3238297" lon="8.5340296"><ele>253.5</ele><time>2026-04-22T11:53:30.316Z</time></trkpt><trkpt lat="39.3237517" lon="8.5339078"><ele>253.0</ele><time>2026-04-22T11:53:31.317Z</time></trkpt><trkpt lat="39.3236737" lon="8.5337948"><ele>248.5</ele><time>2026-04-22T11:53:32.317Z</time></trkpt><trkpt lat="39.3235873" lon="8.5336897"><ele>244.0</ele><time>2026-04-22T11:53:33.317Z</time></trkpt><trkpt lat="39.3234897" lon="8.5335976"><ele>239.5</ele><time>2026-04-22T11:53:34.316Z</time></trkpt><trkpt lat="39.3233766" lon="8.5335197"><ele>235.0</ele><time>2026-04-22T11:53:35.317Z</time></trkpt><trkpt lat="39.3232461" lon="8.5334489"><ele>235.0</ele><time>2026-04-22T11:53:36.317Z</time></trkpt><trkpt lat="39.3231151" lon="8.5333827"><ele>235.0</ele><time>2026-04-22T11:53:37.317Z</time></trkpt><trkpt lat="39.3229811" lon="8.5333178"><ele>235.0</ele><time>2026-04-22T11:53:38.317Z</time></trkpt><trkpt lat="39.3228487" lon="8.5332522"><ele>235.0</ele><time>2026-04-22T11:53:39.316Z</time></trkpt><trkpt lat="39.3227222" lon="8.5331887"><ele>234.0</ele><time>2026-04-22T11:53:40.317Z</time></trkpt><trkpt lat="39.3225908" lon="8.5331219"><ele>233.0</ele><time>2026-04-22T11:53:41.317Z</time></trkpt><trkpt lat="39.3224649" lon="8.5330504"><ele>232.0</ele><time>2026-04-22T11:53:42.317Z</time></trkpt><trkpt lat="39.3223343" lon="8.5329858"><ele>231.0</ele><time>2026-04-22T11:53:43.316Z</time></trkpt><trkpt lat="39.3222018" lon="8.5329499"><ele>230.0</ele><time>2026-04-22T11:53:44.316Z</time></trkpt><trkpt lat="39.3220628" lon="8.532931"><ele>229.0</ele><time>2026-04-22T11:53:45.317Z</time></trkpt><trkpt lat="39.3219225" lon="8.5329194"><ele>228.0</ele><time>2026-04-22T11:53:46.317Z</time></trkpt><trkpt lat="39.3217818" lon="8.5329124"><ele>227.0</ele><time>2026-04-22T11:53:47.317Z</time></trkpt><trkpt lat="39.3214958" lon="8.5328829"><ele>228.0</ele><time>2026-04-22T11:53:49.317Z</time></trkpt><trkpt lat="39.3213494" lon="8.5328701"><ele>229.0</ele><time>2026-04-22T11:53:50.317Z</time></trkpt><trkpt lat="39.3212052" lon="8.5328569"><ele>230.0</ele><time>2026-04-22T11:53:51.317Z</time></trkpt><trkpt lat="39.3210619" lon="8.5328467"><ele>231.0</ele><time>2026-04-22T11:53:52.316Z</time></trkpt><trkpt lat="39.3209228" lon="8.5328346"><ele>231.0</ele><time>2026-04-22T11:53:53.316Z</time></trkpt><trkpt lat="39.3207892" lon="8.532819"><ele>231.0</ele><time>2026-04-22T11:53:54.316Z</time></trkpt><trkpt lat="39.3206644" lon="8.5328049"><ele>231.0</ele><time>2026-04-22T11:53:55.317Z</time></trkpt><trkpt lat="39.3205433" lon="8.532795"><ele>231.0</ele><time>2026-04-22T11:53:56.317Z</time></trkpt><trkpt lat="39.3204259" lon="8.5327831"><ele>228.20000000000002</ele><time>2026-04-22T11:53:57.317Z</time></trkpt><trkpt lat="39.3203156" lon="8.5327756"><ele>225.40000000000003</ele><time>2026-04-22T11:53:58.317Z</time></trkpt><trkpt lat="39.3202095" lon="8.5327665"><ele>222.6</ele><time>2026-04-22T11:53:59.317Z</time></trkpt><trkpt lat="39.3201035" lon="8.5327577"><ele>219.8</ele><time>2026-04-22T11:54:00.317Z</time></trkpt><trkpt lat="39.3199942" lon="8.5327594"><ele>217.0</ele><time>2026-04-22T11:54:01.317Z</time></trkpt><trkpt lat="39.3198894" lon="8.532765"><ele>217.0</ele><time>2026-04-22T11:54:02.317Z</time></trkpt><trkpt lat="39.3197845" lon="8.5327795"><ele>217.0</ele><time>2026-04-22T11:54:03.317Z</time></trkpt><trkpt lat="39.319678" lon="8.5327896"><ele>217.0</ele><time>2026-04-22T11:54:04.317Z</time></trkpt><trkpt lat="39.3195763" lon="8.532811"><ele>217.0</ele><time>2026-04-22T11:54:05.317Z</time></trkpt><trkpt lat="39.3194702" lon="8.5328265"><ele>217.0</ele><time>2026-04-22T11:54:06.316Z</time></trkpt><trkpt lat="39.3193638" lon="8.5328524"><ele>216.66666666666666</ele><time>2026-04-22T11:54:07.317Z</time></trkpt><trkpt lat="39.3192611" lon="8.5328965"><ele>216.33333333333331</ele><time>2026-04-22T11:54:08.317Z</time></trkpt><trkpt lat="39.3190533" lon="8.5329893"><ele>216.0</ele><time>2026-04-22T11:54:10.316Z</time></trkpt><trkpt lat="39.3189386" lon="8.5330469"><ele>213.25</ele><time>2026-04-22T11:54:11.316Z</time></trkpt><trkpt lat="39.3188233" lon="8.5331049"><ele>210.5</ele><time>2026-04-22T11:54:12.317Z</time></trkpt><trkpt lat="39.3187051" lon="8.5331598"><ele>207.75</ele><time>2026-04-22T11:54:13.317Z</time></trkpt><trkpt lat="39.3185905" lon="8.5332112"><ele>205.0</ele><time>2026-04-22T11:54:14.317Z</time></trkpt><trkpt lat="39.3184753" lon="8.5332683"><ele>205.0</ele><time>2026-04-22T11:54:15.316Z</time></trkpt><trkpt lat="39.318359" lon="8.533331"><ele>205.0</ele><time>2026-04-22T11:54:16.316Z</time></trkpt><trkpt lat="39.3182399" lon="8.5333994"><ele>205.0</ele><time>2026-04-22T11:54:17.317Z</time></trkpt><trkpt lat="39.3181273" lon="8.5334667"><ele>205.0</ele><time>2026-04-22T11:54:18.317Z</time></trkpt><trkpt lat="39.3180094" lon="8.53353"><ele>205.5</ele><time>2026-04-22T11:54:19.317Z</time></trkpt><trkpt lat="39.3178987" lon="8.5335835"><ele>206.0</ele><time>2026-04-22T11:54:20.317Z</time></trkpt><trkpt lat="39.3177885" lon="8.5336431"><ele>206.5</ele><time>2026-04-22T11:54:21.317Z</time></trkpt><trkpt lat="39.3176695" lon="8.5336969"><ele>207.0</ele><time>2026-04-22T11:54:22.317Z</time></trkpt><trkpt lat="39.3175558" lon="8.5337434"><ele>207.0</ele><time>2026-04-22T11:54:23.317Z</time></trkpt><trkpt lat="39.3174452" lon="8.5337907"><ele>207.0</ele><time>2026-04-22T11:54:24.317Z</time></trkpt><trkpt lat="39.3173294" lon="8.5338323"><ele>207.0</ele><time>2026-04-22T11:54:25.316Z</time></trkpt><trkpt lat="39.3172182" lon="8.5338678"><ele>207.0</ele><time>2026-04-22T11:54:26.317Z</time></trkpt><trkpt lat="39.3171109" lon="8.5338979"><ele>207.0</ele><time>2026-04-22T11:54:27.317Z</time></trkpt><trkpt lat="39.317007" lon="8.5339231"><ele>207.0</ele><time>2026-04-22T11:54:28.317Z</time></trkpt><trkpt lat="39.316909" lon="8.5339471"><ele>207.0</ele><time>2026-04-22T11:54:29.316Z</time></trkpt><trkpt lat="39.3167117" lon="8.5339807"><ele>207.0</ele><time>2026-04-22T11:54:31.317Z</time></trkpt><trkpt lat="39.3166175" lon="8.5340083"><ele>207.0</ele><time>2026-04-22T11:54:32.317Z</time></trkpt><trkpt lat="39.3165222" lon="8.5340278"><ele>207.0</ele><time>2026-04-22T11:54:33.316Z</time></trkpt><trkpt lat="39.3164325" lon="8.5340304"><ele>207.0</ele><time>2026-04-22T11:54:34.317Z</time></trkpt><trkpt lat="39.3163415" lon="8.5340381"><ele>207.0</ele><time>2026-04-22T11:54:35.316Z</time></trkpt><trkpt lat="39.3162472" lon="8.534053"><ele>207.0</ele><time>2026-04-22T11:54:36.317Z</time></trkpt><trkpt lat="39.3161573" lon="8.5340747"><ele>206.0</ele><time>2026-04-22T11:54:37.316Z</time></trkpt><trkpt lat="39.3160704" lon="8.5341005"><ele>205.0</ele><time>2026-04-22T11:54:38.317Z</time></trkpt><trkpt lat="39.315974" lon="8.534127"><ele>204.0</ele><time>2026-04-22T11:54:39.317Z</time></trkpt><trkpt lat="39.3158844" lon="8.5341519"><ele>203.0</ele><time>2026-04-22T11:54:40.316Z</time></trkpt><trkpt lat="39.3157894" lon="8.5341864"><ele>202.0</ele><time>2026-04-22T11:54:41.316Z</time></trkpt><trkpt lat="39.3157008" lon="8.5342221"><ele>201.99999999999997</ele><time>2026-04-22T11:54:42.317Z</time></trkpt><trkpt lat="39.3156242" lon="8.5342571"><ele>202.0</ele><time>2026-04-22T11:54:43.316Z</time></trkpt><trkpt lat="39.3155484" lon="8.5342838"><ele>202.0</ele><time>2026-04-22T11:54:44.317Z</time></trkpt><trkpt lat="39.315466" lon="8.5342931"><ele>202.0</ele><time>2026-04-22T11:54:45.317Z</time></trkpt><trkpt lat="39.3153841" lon="8.5342875"><ele>201.99999999999997</ele><time>2026-04-22T11:54:46.316Z</time></trkpt><trkpt lat="39.3153088" lon="8.5342588"><ele>202.0</ele><time>2026-04-22T11:54:47.317Z</time></trkpt><trkpt lat="39.3152276" lon="8.5342365"><ele>202.2</ele><time>2026-04-22T11:54:48.316Z</time></trkpt><trkpt lat="39.3151472" lon="8.5342139"><ele>202.39999999999998</ele><time>2026-04-22T11:54:49.317Z</time></trkpt><trkpt lat="39.3150638" lon="8.5341961"><ele>202.60000000000002</ele><time>2026-04-22T11:54:50.317Z</time></trkpt><trkpt lat="39.3149009" lon="8.5341811"><ele>202.8</ele><time>2026-04-22T11:54:52.317Z</time></trkpt><trkpt lat="39.3148224" lon="8.5341971"><ele>203.0</ele><time>2026-04-22T11:54:53.317Z</time></trkpt><trkpt lat="39.3147463" lon="8.5342393"><ele>202.66666666666669</ele><time>2026-04-22T11:54:54.317Z</time></trkpt><trkpt lat="39.3146722" lon="8.5342726"><ele>202.33333333333334</ele><time>2026-04-22T11:54:55.316Z</time></trkpt><trkpt lat="39.3145927" lon="8.5343036"><ele>202.0</ele><time>2026-04-22T11:54:56.316Z</time></trkpt><trkpt lat="39.3145159" lon="8.5343404"><ele>201.66666666666669</ele><time>2026-04-22T11:54:57.317Z</time></trkpt><trkpt lat="39.31444" lon="8.5343803"><ele>201.33333333333334</ele><time>2026-04-22T11:54:58.316Z</time></trkpt><trkpt lat="39.3143821" lon="8.5344149"><ele>201.0</ele><time>2026-04-22T11:54:59.317Z</time></trkpt><trkpt lat="39.314316" lon="8.5344968"><ele>201.0</ele><time>2026-04-22T11:55:01.317Z</time></trkpt><trkpt lat="39.3142561" lon="8.5345503"><ele>201.0</ele><time>2026-04-22T11:55:03.317Z</time></trkpt><trkpt lat="39.314201" lon="8.5346074"><ele>201.0</ele><time>2026-04-22T11:55:05.317Z</time></trkpt><trkpt lat="39.3141401" lon="8.5347047"><ele>201.0</ele><time>2026-04-22T11:55:07.316Z</time></trkpt><trkpt lat="39.3140677" lon="8.5348328"><ele>201.0</ele><time>2026-04-22T11:55:09.317Z</time></trkpt><trkpt lat="39.314019" lon="8.5349124"><ele>201.0</ele><time>2026-04-22T11:55:10.317Z</time></trkpt><trkpt lat="39.3139592" lon="8.5350063"><ele>200.33333333333331</ele><time>2026-04-22T11:55:11.316Z</time></trkpt><trkpt lat="39.3138246" lon="8.5352315"><ele>199.66666666666666</ele><time>2026-04-22T11:55:13.317Z</time></trkpt><trkpt lat="39.3137659" lon="8.5353662"><ele>199.0</ele><time>2026-04-22T11:55:14.317Z</time></trkpt><trkpt lat="39.3137104" lon="8.5354918"><ele>198.6</ele><time>2026-04-22T11:55:15.317Z</time></trkpt><trkpt lat="39.313667" lon="8.5356184"><ele>198.2</ele><time>2026-04-22T11:55:16.316Z</time></trkpt><trkpt lat="39.3136257" lon="8.5357288"><ele>197.79999999999998</ele><time>2026-04-22T11:55:17.316Z</time></trkpt><trkpt lat="39.3135812" lon="8.5358295"><ele>197.39999999999998</ele><time>2026-04-22T11:55:18.317Z</time></trkpt><trkpt lat="39.313534" lon="8.5359289"><ele>197.0</ele><time>2026-04-22T11:55:19.317Z</time></trkpt><trkpt lat="39.3134826" lon="8.5360254"><ele>197.00000000000003</ele><time>2026-04-22T11:55:20.317Z</time></trkpt><trkpt lat="39.3134374" lon="8.5361149"><ele>197.0</ele><time>2026-04-22T11:55:21.317Z</time></trkpt><trkpt lat="39.3133862" lon="8.5361834"><ele>197.0</ele><time>2026-04-22T11:55:22.317Z</time></trkpt><trkpt lat="39.3133317" lon="8.5362433"><ele>197.0</ele><time>2026-04-22T11:55:23.316Z</time></trkpt><trkpt lat="39.3132765" lon="8.5362918"><ele>197.00000000000003</ele><time>2026-04-22T11:55:24.317Z</time></trkpt><trkpt lat="39.3131859" lon="8.5363448"><ele>197.0</ele><time>2026-04-22T11:55:26.316Z</time></trkpt><trkpt lat="39.3130935" lon="8.5363481"><ele>196.6</ele><time>2026-04-22T11:55:28.317Z</time></trkpt><trkpt lat="39.313014" lon="8.536298"><ele>196.2</ele><time>2026-04-22T11:55:30.317Z</time></trkpt><trkpt lat="39.3129559" lon="8.5362072"><ele>195.8</ele><time>2026-04-22T11:55:32.317Z</time></trkpt><trkpt lat="39.312872" lon="8.536083"><ele>195.4</ele><time>2026-04-22T11:55:36.316Z</time></trkpt><trkpt lat="39.3128095" lon="8.5360017"><ele>195.0</ele><time>2026-04-22T11:55:38.317Z</time></trkpt><trkpt lat="39.3127318" lon="8.5359255"><ele>195.0</ele><time>2026-04-22T11:55:40.317Z</time></trkpt><trkpt lat="39.312644" lon="8.5358516"><ele>195.0</ele><time>2026-04-22T11:55:42.317Z</time></trkpt><trkpt lat="39.3125522" lon="8.5357727"><ele>195.0</ele><time>2026-04-22T11:55:44.316Z</time></trkpt><trkpt lat="39.3124904" lon="8.5356866"><ele>195.0</ele><time>2026-04-22T11:55:46.316Z</time></trkpt><trkpt lat="39.3124311" lon="8.5356054"><ele>195.0</ele><time>2026-04-22T11:55:48.316Z</time></trkpt><trkpt lat="39.3123736" lon="8.5355275"><ele>195.0</ele><time>2026-04-22T11:55:50.316Z</time></trkpt><trkpt lat="39.3122852" lon="8.5354518"><ele>195.0</ele><time>2026-04-22T11:55:52.317Z</time></trkpt><trkpt lat="39.3122305" lon="8.5354091"><ele>195.0</ele><time>2026-04-22T11:55:53.316Z</time></trkpt><trkpt lat="39.3121101" lon="8.5352984"><ele>195.0</ele><time>2026-04-22T11:55:55.316Z</time></trkpt><trkpt lat="39.3120453" lon="8.5352263"><ele>195.0</ele><time>2026-04-22T11:55:56.316Z</time></trkpt><trkpt lat="39.3119816" lon="8.5351501"><ele>195.66666666666666</ele><time>2026-04-22T11:55:57.317Z</time></trkpt><trkpt lat="39.3119274" lon="8.5350699"><ele>196.33333333333331</ele><time>2026-04-22T11:55:58.317Z</time></trkpt><trkpt lat="39.3118827" lon="8.5349984"><ele>197.0</ele><time>2026-04-22T11:55:59.316Z</time></trkpt><trkpt lat="39.3118277" lon="8.5348996"><ele>197.66666666666666</ele><time>2026-04-22T11:56:01.317Z</time></trkpt><trkpt lat="39.3118028" lon="8.5348024"><ele>198.33333333333331</ele><time>2026-04-22T11:56:04.317Z</time></trkpt><trkpt lat="39.3117807" lon="8.5347101"><ele>199.0</ele><time>2026-04-22T11:56:06.317Z</time></trkpt><trkpt lat="39.3117443" lon="8.5345985"><ele>199.79999999999998</ele><time>2026-04-22T11:56:08.316Z</time></trkpt><trkpt lat="39.3117122" lon="8.5344706"><ele>200.6</ele><time>2026-04-22T11:56:10.316Z</time></trkpt><trkpt lat="39.3116769" lon="8.5343205"><ele>201.4</ele><time>2026-04-22T11:56:12.317Z</time></trkpt><trkpt lat="39.3116586" lon="8.5342344"><ele>202.2</ele><time>2026-04-22T11:56:13.317Z</time></trkpt><trkpt lat="39.3116403" lon="8.534144"><ele>203.0</ele><time>2026-04-22T11:56:14.316Z</time></trkpt><trkpt lat="39.3116054" lon="8.5339473"><ele>203.00000000000003</ele><time>2026-04-22T11:56:16.316Z</time></trkpt><trkpt lat="39.3115911" lon="8.5338502"><ele>203.0</ele><time>2026-04-22T11:56:17.316Z</time></trkpt><trkpt lat="39.3115799" lon="8.5337567"><ele>203.0</ele><time>2026-04-22T11:56:18.317Z</time></trkpt><trkpt lat="39.3115379" lon="8.5336144"><ele>203.0</ele><time>2026-04-22T11:56:20.316Z</time></trkpt><trkpt lat="39.311504" lon="8.5335236"><ele>203.00000000000003</ele><time>2026-04-22T11:56:22.317Z</time></trkpt><trkpt lat="39.3114728" lon="8.5334325"><ele>203.0</ele><time>2026-04-22T11:56:25.316Z</time></trkpt><trkpt lat="39.3114582" lon="8.5333527"><ele>203.60000000000002</ele><time>2026-04-22T11:56:27.316Z</time></trkpt><trkpt lat="39.3114265" lon="8.5332693"><ele>204.20000000000002</ele><time>2026-04-22T11:56:29.316Z</time></trkpt><trkpt lat="39.3113922" lon="8.5331779"><ele>204.8</ele><time>2026-04-22T11:56:31.317Z</time></trkpt><trkpt lat="39.3113614" lon="8.5330976"><ele>205.4</ele><time>2026-04-22T11:56:33.317Z</time></trkpt><trkpt lat="39.3113336" lon="8.5329981"><ele>206.0</ele><time>2026-04-22T11:56:35.317Z</time></trkpt><trkpt lat="39.3113577" lon="8.5327575"><ele>205.16666666666669</ele><time>2026-04-22T11:56:38.317Z</time></trkpt><trkpt lat="39.3113708" lon="8.5326712"><ele>204.33333333333334</ele><time>2026-04-22T11:56:39.316Z</time></trkpt><trkpt lat="39.311378" lon="8.5325439"><ele>203.5</ele><time>2026-04-22T11:56:41.316Z</time></trkpt><trkpt lat="39.3113892" lon="8.5324431"><ele>202.66666666666669</ele><time>2026-04-22T11:56:43.317Z</time></trkpt><trkpt lat="39.3114318" lon="8.5323443"><ele>201.83333333333334</ele><time>2026-04-22T11:56:45.316Z</time></trkpt><trkpt lat="39.3114989" lon="8.5322353"><ele>201.0</ele><time>2026-04-22T11:56:47.316Z</time></trkpt><trkpt lat="39.3115911" lon="8.5321228"><ele>201.0</ele><time>2026-04-22T11:56:49.317Z</time></trkpt><trkpt lat="39.3116382" lon="8.5320659"><ele>201.0</ele><time>2026-04-22T11:56:50.316Z</time></trkpt><trkpt lat="39.3116874" lon="8.5319924"><ele>201.0</ele><time>2026-04-22T11:56:51.317Z</time></trkpt><trkpt lat="39.3117383" lon="8.5319266"><ele>201.0</ele><time>2026-04-22T11:56:52.316Z</time></trkpt><trkpt lat="39.3117935" lon="8.5318535"><ele>201.0</ele><time>2026-04-22T11:56:53.316Z</time></trkpt><trkpt lat="39.3118531" lon="8.5317753"><ele>201.0</ele><time>2026-04-22T11:56:54.317Z</time></trkpt><trkpt lat="39.3119183" lon="8.5316945"><ele>201.0</ele><time>2026-04-22T11:56:55.317Z</time></trkpt><trkpt lat="39.3120499" lon="8.5315254"><ele>201.0</ele><time>2026-04-22T11:56:57.317Z</time></trkpt><trkpt lat="39.3121247" lon="8.5314388"><ele>201.0</ele><time>2026-04-22T11:56:58.317Z</time></trkpt><trkpt lat="39.3122063" lon="8.5313433"><ele>201.0</ele><time>2026-04-22T11:56:59.316Z</time></trkpt><trkpt lat="39.3122829" lon="8.5312461"><ele>202.8</ele><time>2026-04-22T11:57:00.316Z</time></trkpt><trkpt lat="39.3123566" lon="8.5311493"><ele>204.60000000000002</ele><time>2026-04-22T11:57:01.317Z</time></trkpt><trkpt lat="39.3124304" lon="8.5310466"><ele>206.4</ele><time>2026-04-22T11:57:02.317Z</time></trkpt><trkpt lat="39.3125067" lon="8.530945"><ele>208.2</ele><time>2026-04-22T11:57:03.316Z</time></trkpt><trkpt lat="39.3125821" lon="8.5308456"><ele>210.0</ele><time>2026-04-22T11:57:04.317Z</time></trkpt><trkpt lat="39.3126642" lon="8.530745"><ele>210.0</ele><time>2026-04-22T11:57:05.317Z</time></trkpt><trkpt lat="39.3127433" lon="8.5306565"><ele>210.0</ele><time>2026-04-22T11:57:06.317Z</time></trkpt><trkpt lat="39.3128142" lon="8.5305705"><ele>210.0</ele><time>2026-04-22T11:57:07.317Z</time></trkpt><trkpt lat="39.3128826" lon="8.5304928"><ele>210.0</ele><time>2026-04-22T11:57:08.317Z</time></trkpt><trkpt lat="39.3129374" lon="8.5304309"><ele>210.0</ele><time>2026-04-22T11:57:09.317Z</time></trkpt><trkpt lat="39.3129862" lon="8.5303594"><ele>210.0</ele><time>2026-04-22T11:57:10.317Z</time></trkpt><trkpt lat="39.3130184" lon="8.5302839"><ele>210.0</ele><time>2026-04-22T11:57:11.317Z</time></trkpt><trkpt lat="39.3130021" lon="8.5301252"><ele>210.0</ele><time>2026-04-22T11:57:13.316Z</time></trkpt><trkpt lat="39.3129651" lon="8.530032"><ele>210.0</ele><time>2026-04-22T11:57:14.316Z</time></trkpt><trkpt lat="39.3129052" lon="8.5299326"><ele>210.0</ele><time>2026-04-22T11:57:15.316Z</time></trkpt><trkpt lat="39.3128521" lon="8.5298211"><ele>210.0</ele><time>2026-04-22T11:57:16.317Z</time></trkpt><trkpt lat="39.3127686" lon="8.529604"><ele>209.66666666666666</ele><time>2026-04-22T11:57:18.317Z</time></trkpt><trkpt lat="39.3127306" lon="8.5295015"><ele>209.33333333333331</ele><time>2026-04-22T11:57:19.317Z</time></trkpt><trkpt lat="39.3126901" lon="8.5293974"><ele>209.0</ele><time>2026-04-22T11:57:20.317Z</time></trkpt><trkpt lat="39.3126394" lon="8.5292969"><ele>208.66666666666666</ele><time>2026-04-22T11:57:21.317Z</time></trkpt><trkpt lat="39.31259" lon="8.529197"><ele>208.33333333333331</ele><time>2026-04-22T11:57:22.317Z</time></trkpt><trkpt lat="39.3125463" lon="8.5291005"><ele>208.0</ele><time>2026-04-22T11:57:23.317Z</time></trkpt><trkpt lat="39.3125083" lon="8.5290109"><ele>208.0</ele><time>2026-04-22T11:57:24.316Z</time></trkpt><trkpt lat="39.3124715" lon="8.5289181"><ele>208.0</ele><time>2026-04-22T11:57:25.317Z</time></trkpt><trkpt lat="39.3124339" lon="8.5288122"><ele>208.0</ele><time>2026-04-22T11:57:26.317Z</time></trkpt><trkpt lat="39.3123932" lon="8.5286927"><ele>208.0</ele><time>2026-04-22T11:57:27.317Z</time></trkpt><trkpt lat="39.3123455" lon="8.5285656"><ele>208.0</ele><time>2026-04-22T11:57:28.316Z</time></trkpt><trkpt lat="39.3122893" lon="8.5284309"><ele>207.5</ele><time>2026-04-22T11:57:29.316Z</time></trkpt><trkpt lat="39.3122321" lon="8.5282837"><ele>207.0</ele><time>2026-04-22T11:57:30.317Z</time></trkpt><trkpt lat="39.3121713" lon="8.5281328"><ele>206.5</ele><time>2026-04-22T11:57:31.316Z</time></trkpt><trkpt lat="39.312115" lon="8.5279819"><ele>206.0</ele><time>2026-04-22T11:57:32.316Z</time></trkpt><trkpt lat="39.3120599" lon="8.5278359"><ele>205.75</ele><time>2026-04-22T11:57:33.316Z</time></trkpt><trkpt lat="39.3120088" lon="8.5276967"><ele>205.5</ele><time>2026-04-22T11:57:34.317Z</time></trkpt><trkpt lat="39.311959" lon="8.5275612"><ele>205.25</ele><time>2026-04-22T11:57:35.316Z</time></trkpt><trkpt lat="39.3119117" lon="8.5274279"><ele>205.0</ele><time>2026-04-22T11:57:36.317Z</time></trkpt><trkpt lat="39.3118612" lon="8.5272979"><ele>204.5</ele><time>2026-04-22T11:57:37.316Z</time></trkpt><trkpt lat="39.3117675" lon="8.5270468"><ele>204.0</ele><time>2026-04-22T11:57:39.317Z</time></trkpt><trkpt lat="39.3117245" lon="8.5269275"><ele>203.5</ele><time>2026-04-22T11:57:40.317Z</time></trkpt><trkpt lat="39.3116766" lon="8.5268106"><ele>203.0</ele><time>2026-04-22T11:57:41.317Z</time></trkpt><trkpt lat="39.3116247" lon="8.5266962"><ele>203.00000000000003</ele><time>2026-04-22T11:57:42.316Z</time></trkpt><trkpt lat="39.3115799" lon="8.5265878"><ele>203.0</ele><time>2026-04-22T11:57:43.317Z</time></trkpt><trkpt lat="39.3115398" lon="8.5264872"><ele>203.0</ele><time>2026-04-22T11:57:44.316Z</time></trkpt><trkpt lat="39.3115017" lon="8.5263944"><ele>203.0</ele><time>2026-04-22T11:57:45.316Z</time></trkpt><trkpt lat="39.3114605" lon="8.5263054"><ele>203.00000000000003</ele><time>2026-04-22T11:57:46.317Z</time></trkpt><trkpt lat="39.3114155" lon="8.5262096"><ele>203.0</ele><time>2026-04-22T11:57:47.316Z</time></trkpt><trkpt lat="39.3113756" lon="8.5261056"><ele>202.33333333333334</ele><time>2026-04-22T11:57:48.316Z</time></trkpt><trkpt lat="39.3113391" lon="8.5260044"><ele>201.66666666666669</ele><time>2026-04-22T11:57:49.316Z</time></trkpt><trkpt lat="39.3113075" lon="8.5259053"><ele>201.0</ele><time>2026-04-22T11:57:50.316Z</time></trkpt><trkpt lat="39.3112738" lon="8.5258122"><ele>200.33333333333331</ele><time>2026-04-22T11:57:51.317Z</time></trkpt><trkpt lat="39.3112394" lon="8.5257115"><ele>199.66666666666666</ele><time>2026-04-22T11:57:52.316Z</time></trkpt><trkpt lat="39.3112037" lon="8.5256043"><ele>199.0</ele><time>2026-04-22T11:57:53.317Z</time></trkpt><trkpt lat="39.3111616" lon="8.5254934"><ele>200.0</ele><time>2026-04-22T11:57:54.316Z</time></trkpt><trkpt lat="39.3111116" lon="8.5253769"><ele>201.0</ele><time>2026-04-22T11:57:55.317Z</time></trkpt><trkpt lat="39.3110643" lon="8.5252579"><ele>202.0</ele><time>2026-04-22T11:57:56.317Z</time></trkpt><trkpt lat="39.3110111" lon="8.5251318"><ele>203.0</ele><time>2026-04-22T11:57:57.317Z</time></trkpt><trkpt lat="39.310961" lon="8.5250023"><ele>204.0</ele><time>2026-04-22T11:57:58.317Z</time></trkpt><trkpt lat="39.3108608" lon="8.5247716"><ele>204.0</ele><time>2026-04-22T11:58:00.317Z</time></trkpt><trkpt lat="39.3108232" lon="8.5246738"><ele>204.0</ele><time>2026-04-22T11:58:01.316Z</time></trkpt><trkpt lat="39.3107875" lon="8.5245856"><ele>204.0</ele><time>2026-04-22T11:58:02.317Z</time></trkpt><trkpt lat="39.3107485" lon="8.5245102"><ele>204.0</ele><time>2026-04-22T11:58:03.317Z</time></trkpt><trkpt lat="39.3106937" lon="8.5243946"><ele>204.0</ele><time>2026-04-22T11:58:05.316Z</time></trkpt><trkpt lat="39.3106261" lon="8.5243003"><ele>204.0</ele><time>2026-04-22T11:58:07.317Z</time></trkpt><trkpt lat="39.3105426" lon="8.5241852"><ele>204.16666666666666</ele><time>2026-04-22T11:58:09.316Z</time></trkpt><trkpt lat="39.3104911" lon="8.5241149"><ele>204.33333333333331</ele><time>2026-04-22T11:58:10.317Z</time></trkpt><trkpt lat="39.3104342" lon="8.5240397"><ele>204.5</ele><time>2026-04-22T11:58:11.317Z</time></trkpt><trkpt lat="39.3103725" lon="8.523957"><ele>204.66666666666666</ele><time>2026-04-22T11:58:12.317Z</time></trkpt><trkpt lat="39.3103074" lon="8.5238712"><ele>204.83333333333331</ele><time>2026-04-22T11:58:13.317Z</time></trkpt><trkpt lat="39.3102432" lon="8.5237916"><ele>205.0</ele><time>2026-04-22T11:58:14.317Z</time></trkpt><trkpt lat="39.3101787" lon="8.523725"><ele>205.0</ele><time>2026-04-22T11:58:15.317Z</time></trkpt><trkpt lat="39.3101191" lon="8.523673"><ele>205.0</ele><time>2026-04-22T11:58:16.316Z</time></trkpt><trkpt lat="39.3100575" lon="8.523622"><ele>205.0</ele><time>2026-04-22T11:58:17.317Z</time></trkpt><trkpt lat="39.3099942" lon="8.523567"><ele>205.0</ele><time>2026-04-22T11:58:18.316Z</time></trkpt><trkpt lat="39.3099292" lon="8.5235065"><ele>205.0</ele><time>2026-04-22T11:58:19.317Z</time></trkpt><trkpt lat="39.3097782" lon="8.5233927"><ele>204.4</ele><time>2026-04-22T11:58:21.316Z</time></trkpt><trkpt lat="39.3096916" lon="8.5233403"><ele>203.8</ele><time>2026-04-22T11:58:22.317Z</time></trkpt><trkpt lat="39.3096027" lon="8.5232849"><ele>203.2</ele><time>2026-04-22T11:58:23.317Z</time></trkpt><trkpt lat="39.309507" lon="8.5232363"><ele>202.6</ele><time>2026-04-22T11:58:24.317Z</time></trkpt><trkpt lat="39.3094105" lon="8.5231823"><ele>202.0</ele><time>2026-04-22T11:58:25.317Z</time></trkpt><trkpt lat="39.309309" lon="8.5231163"><ele>202.0</ele><time>2026-04-22T11:58:26.317Z</time></trkpt><trkpt lat="39.3092061" lon="8.5230469"><ele>202.0</ele><time>2026-04-22T11:58:27.317Z</time></trkpt><trkpt lat="39.3091044" lon="8.52298"><ele>202.0</ele><time>2026-04-22T11:58:28.317Z</time></trkpt><trkpt lat="39.3089968" lon="8.5229156"><ele>202.0</ele><time>2026-04-22T11:58:29.316Z</time></trkpt><trkpt lat="39.308882" lon="8.5228457"><ele>201.66666666666666</ele><time>2026-04-22T11:58:30.316Z</time></trkpt><trkpt lat="39.3087454" lon="8.5227795"><ele>201.33333333333331</ele><time>2026-04-22T11:58:31.317Z</time></trkpt><trkpt lat="39.3085941" lon="8.5227014"><ele>201.0</ele><time>2026-04-22T11:58:32.316Z</time></trkpt><trkpt lat="39.3084536" lon="8.5226071"><ele>201.0</ele><time>2026-04-22T11:58:33.317Z</time></trkpt><trkpt lat="39.3083276" lon="8.5225102"><ele>201.0</ele><time>2026-04-22T11:58:34.317Z</time></trkpt><trkpt lat="39.3082159" lon="8.5224042"><ele>201.0</ele><time>2026-04-22T11:58:35.316Z</time></trkpt><trkpt lat="39.3081212" lon="8.5222932"><ele>201.0</ele><time>2026-04-22T11:58:36.316Z</time></trkpt><trkpt lat="39.3080419" lon="8.5221839"><ele>201.0</ele><time>2026-04-22T11:58:37.317Z</time></trkpt><trkpt lat="39.3079728" lon="8.5220825"><ele>201.0</ele><time>2026-04-22T11:58:38.317Z</time></trkpt><trkpt lat="39.3079101" lon="8.5219939"><ele>201.0</ele><time>2026-04-22T11:58:39.316Z</time></trkpt><trkpt lat="39.3077955" lon="8.5218273"><ele>201.0</ele><time>2026-04-22T11:58:42.317Z</time></trkpt><trkpt lat="39.3077395" lon="8.5217665"><ele>201.0</ele><time>2026-04-22T11:58:45.317Z</time></trkpt><trkpt lat="39.307696" lon="8.5217049"><ele>201.0</ele><time>2026-04-22T11:58:49.317Z</time></trkpt><trkpt lat="39.3076508" lon="8.5216221"><ele>201.0</ele><time>2026-04-22T11:58:50.316Z</time></trkpt><trkpt lat="39.3075901" lon="8.5215271"><ele>201.0</ele><time>2026-04-22T11:58:51.317Z</time></trkpt><trkpt lat="39.3075188" lon="8.5214174"><ele>201.0</ele><time>2026-04-22T11:58:52.316Z</time></trkpt><trkpt lat="39.3074388" lon="8.5212872"><ele>201.0</ele><time>2026-04-22T11:58:53.316Z</time></trkpt><trkpt lat="39.3073535" lon="8.5211595"><ele>201.75</ele><time>2026-04-22T11:58:54.316Z</time></trkpt><trkpt lat="39.3072682" lon="8.5210429"><ele>202.5</ele><time>2026-04-22T11:58:55.317Z</time></trkpt><trkpt lat="39.3071857" lon="8.5209231"><ele>203.25</ele><time>2026-04-22T11:58:56.316Z</time></trkpt><trkpt lat="39.3071103" lon="8.5208073"><ele>204.0</ele><time>2026-04-22T11:58:57.316Z</time></trkpt><trkpt lat="39.3070362" lon="8.5207063"><ele>202.5</ele><time>2026-04-22T11:58:58.317Z</time></trkpt><trkpt lat="39.3069583" lon="8.5206215"><ele>201.0</ele><time>2026-04-22T11:58:59.317Z</time></trkpt><trkpt lat="39.3068791" lon="8.520547"><ele>199.5</ele><time>2026-04-22T11:59:00.316Z</time></trkpt><trkpt lat="39.3067222" lon="8.5204485"><ele>198.0</ele><time>2026-04-22T11:59:02.317Z</time></trkpt><trkpt lat="39.3066459" lon="8.5204171"><ele>197.5</ele><time>2026-04-22T11:59:03.317Z</time></trkpt><trkpt lat="39.3065732" lon="8.5203927"><ele>197.0</ele><time>2026-04-22T11:59:04.316Z</time></trkpt><trkpt lat="39.3065107" lon="8.5203705"><ele>196.5</ele><time>2026-04-22T11:59:05.317Z</time></trkpt><trkpt lat="39.3064053" lon="8.5203266"><ele>196.0</ele><time>2026-04-22T11:59:07.317Z</time></trkpt><trkpt lat="39.3063249" lon="8.5202925"><ele>195.5</ele><time>2026-04-22T11:59:09.316Z</time></trkpt><trkpt lat="39.3062539" lon="8.520256"><ele>195.0</ele><time>2026-04-22T11:59:11.316Z</time></trkpt><trkpt lat="39.3061842" lon="8.5202182"><ele>195.0</ele><time>2026-04-22T11:59:13.317Z</time></trkpt><trkpt lat="39.3060957" lon="8.5201833"><ele>195.0</ele><time>2026-04-22T11:59:15.317Z</time></trkpt><trkpt lat="39.3059681" lon="8.5201427"><ele>195.0</ele><time>2026-04-22T11:59:17.317Z</time></trkpt><trkpt lat="39.3058989" lon="8.5201051"><ele>195.0</ele><time>2026-04-22T11:59:18.317Z</time></trkpt><trkpt lat="39.3058226" lon="8.5200558"><ele>195.0</ele><time>2026-04-22T11:59:19.317Z</time></trkpt><trkpt lat="39.3057377" lon="8.5199877"><ele>191.75</ele><time>2026-04-22T11:59:20.317Z</time></trkpt><trkpt lat="39.3055585" lon="8.5198345"><ele>188.5</ele><time>2026-04-22T11:59:22.316Z</time></trkpt><trkpt lat="39.3054737" lon="8.5197698"><ele>185.25</ele><time>2026-04-22T11:59:23.317Z</time></trkpt><trkpt lat="39.3053909" lon="8.5197152"><ele>182.0</ele><time>2026-04-22T11:59:24.317Z</time></trkpt><trkpt lat="39.3053143" lon="8.5196597"><ele>182.0</ele><time>2026-04-22T11:59:25.316Z</time></trkpt><trkpt lat="39.3052382" lon="8.5196077"><ele>182.0</ele><time>2026-04-22T11:59:26.317Z</time></trkpt><trkpt lat="39.3051658" lon="8.5195506"><ele>182.0</ele><time>2026-04-22T11:59:27.317Z</time></trkpt><trkpt lat="39.3051021" lon="8.5194831"><ele>182.0</ele><time>2026-04-22T11:59:28.317Z</time></trkpt><trkpt lat="39.3050485" lon="8.5194033"><ele>182.0</ele><time>2026-04-22T11:59:29.316Z</time></trkpt><trkpt lat="39.3050066" lon="8.5193095"><ele>182.0</ele><time>2026-04-22T11:59:30.316Z</time></trkpt><trkpt lat="39.3049709" lon="8.519193"><ele>181.8</ele><time>2026-04-22T11:59:31.317Z</time></trkpt><trkpt lat="39.3049352" lon="8.5190739"><ele>181.6</ele><time>2026-04-22T11:59:32.317Z</time></trkpt><trkpt lat="39.3048969" lon="8.5189607"><ele>181.4</ele><time>2026-04-22T11:59:33.316Z</time></trkpt><trkpt lat="39.3048483" lon="8.5188579"><ele>181.20000000000002</ele><time>2026-04-22T11:59:34.317Z</time></trkpt><trkpt lat="39.3047911" lon="8.5187678"><ele>181.0</ele><time>2026-04-22T11:59:35.316Z</time></trkpt><trkpt lat="39.3047259" lon="8.5186932"><ele>181.0</ele><time>2026-04-22T11:59:36.317Z</time></trkpt><trkpt lat="39.3046493" lon="8.5186325"><ele>181.0</ele><time>2026-04-22T11:59:37.317Z</time></trkpt><trkpt lat="39.3045646" lon="8.5185834"><ele>181.0</ele><time>2026-04-22T11:59:38.317Z</time></trkpt><trkpt lat="39.3044825" lon="8.5185368"><ele>181.0</ele><time>2026-04-22T11:59:39.316Z</time></trkpt><trkpt lat="39.304399" lon="8.518486"><ele>181.0</ele><time>2026-04-22T11:59:40.317Z</time></trkpt><trkpt lat="39.3043196" lon="8.5184184"><ele>181.0</ele><time>2026-04-22T11:59:41.317Z</time></trkpt><trkpt lat="39.3041814" lon="8.5182436"><ele>181.0</ele><time>2026-04-22T11:59:43.317Z</time></trkpt><trkpt lat="39.3041255" lon="8.5181316"><ele>181.0</ele><time>2026-04-22T11:59:44.317Z</time></trkpt><trkpt lat="39.3040746" lon="8.5180048"><ele>181.0</ele><time>2026-04-22T11:59:45.317Z</time></trkpt><trkpt lat="39.3040297" lon="8.5178765"><ele>181.60000000000002</ele><time>2026-04-22T11:59:46.317Z</time></trkpt><trkpt lat="39.3039808" lon="8.5177589"><ele>182.2</ele><time>2026-04-22T11:59:47.316Z</time></trkpt><trkpt lat="39.3039281" lon="8.5176527"><ele>182.8</ele><time>2026-04-22T11:59:48.317Z</time></trkpt><trkpt lat="39.3038758" lon="8.5175595"><ele>183.39999999999998</ele><time>2026-04-22T11:59:49.316Z</time></trkpt><trkpt lat="39.3038234" lon="8.5174739"><ele>184.0</ele><time>2026-04-22T11:59:50.316Z</time></trkpt><trkpt lat="39.3037658" lon="8.5173949"><ele>184.0</ele><time>2026-04-22T11:59:51.316Z</time></trkpt><trkpt lat="39.3037013" lon="8.517335"><ele>184.0</ele><time>2026-04-22T11:59:52.316Z</time></trkpt><trkpt lat="39.3036367" lon="8.517285"><ele>184.0</ele><time>2026-04-22T11:59:53.316Z</time></trkpt><trkpt lat="39.3035696" lon="8.5172458"><ele>184.0</ele><time>2026-04-22T11:59:54.316Z</time></trkpt><trkpt lat="39.3034983" lon="8.5172211"><ele>184.0</ele><time>2026-04-22T11:59:55.316Z</time></trkpt><trkpt lat="39.3034285" lon="8.5172254"><ele>184.0</ele><time>2026-04-22T11:59:56.315Z</time></trkpt><trkpt lat="39.3033553" lon="8.5172507"><ele>184.0</ele><time>2026-04-22T11:59:57.316Z</time></trkpt><trkpt lat="39.3032852" lon="8.5172819"><ele>184.0</ele><time>2026-04-22T11:59:58.316Z</time></trkpt><trkpt lat="39.3032197" lon="8.5173196"><ele>184.0</ele><time>2026-04-22T11:59:59.316Z</time></trkpt><trkpt lat="39.3031113" lon="8.5173548"><ele>184.0</ele><time>2026-04-22T12:00:01.316Z</time></trkpt><trkpt lat="39.3029994" lon="8.5173392"><ele>184.0</ele><time>2026-04-22T12:00:03.316Z</time></trkpt><trkpt lat="39.3028701" lon="8.5172636"><ele>184.0</ele><time>2026-04-22T12:00:11.315Z</time></trkpt><trkpt lat="39.3028157" lon="8.5172218"><ele>183.6</ele><time>2026-04-22T12:00:13.316Z</time></trkpt><trkpt lat="39.3027366" lon="8.5171493"><ele>183.2</ele><time>2026-04-22T12:00:16.316Z</time></trkpt><trkpt lat="39.3026695" lon="8.5170985"><ele>182.79999999999998</ele><time>2026-04-22T12:00:18.315Z</time></trkpt><trkpt lat="39.3026016" lon="8.5170491"><ele>182.39999999999998</ele><time>2026-04-22T12:00:21.316Z</time></trkpt><trkpt lat="39.3025283" lon="8.5170287"><ele>182.0</ele><time>2026-04-22T12:00:29.316Z</time></trkpt><trkpt lat="39.3023566" lon="8.5169836"><ele>181.0</ele><time>2026-04-22T12:00:33.316Z</time></trkpt><trkpt lat="39.302238" lon="8.5169667"><ele>180.0</ele><time>2026-04-22T12:00:35.315Z</time></trkpt><trkpt lat="39.3021229" lon="8.5169827"><ele>179.0</ele><time>2026-04-22T12:00:37.316Z</time></trkpt><trkpt lat="39.3020316" lon="8.5169815"><ele>178.0</ele><time>2026-04-22T12:00:39.316Z</time></trkpt><trkpt lat="39.3019594" lon="8.5169627"><ele>177.0</ele><time>2026-04-22T12:00:42.316Z</time></trkpt><trkpt lat="39.3018679" lon="8.5169405"><ele>177.0</ele><time>2026-04-22T12:00:45.315Z</time></trkpt><trkpt lat="39.3017739" lon="8.5169424"><ele>177.0</ele><time>2026-04-22T12:00:47.316Z</time></trkpt><trkpt lat="39.3016684" lon="8.5168935"><ele>177.0</ele><time>2026-04-22T12:00:49.315Z</time></trkpt><trkpt lat="39.3016076" lon="8.5168507"><ele>177.0</ele><time>2026-04-22T12:00:50.316Z</time></trkpt><trkpt lat="39.30147" lon="8.5167298"><ele>177.0</ele><time>2026-04-22T12:00:52.315Z</time></trkpt><trkpt lat="39.301399" lon="8.5166408"><ele>176.2</ele><time>2026-04-22T12:00:53.316Z</time></trkpt><trkpt lat="39.30133" lon="8.5165438"><ele>175.39999999999998</ele><time>2026-04-22T12:00:54.315Z</time></trkpt><trkpt lat="39.3012646" lon="8.5164342"><ele>174.60000000000002</ele><time>2026-04-22T12:00:55.315Z</time></trkpt><trkpt lat="39.3012078" lon="8.5163236"><ele>173.8</ele><time>2026-04-22T12:00:56.316Z</time></trkpt><trkpt lat="39.3011669" lon="8.516207"><ele>173.0</ele><time>2026-04-22T12:00:57.315Z</time></trkpt><trkpt lat="39.3011412" lon="8.5160801"><ele>173.0</ele><time>2026-04-22T12:00:58.316Z</time></trkpt><trkpt lat="39.3011306" lon="8.5159495"><ele>173.0</ele><time>2026-04-22T12:00:59.316Z</time></trkpt><trkpt lat="39.3011298" lon="8.5158198"><ele>173.0</ele><time>2026-04-22T12:01:00.316Z</time></trkpt><trkpt lat="39.3011318" lon="8.5156917"><ele>173.0</ele><time>2026-04-22T12:01:01.316Z</time></trkpt><trkpt lat="39.3011369" lon="8.5155758"><ele>173.0</ele><time>2026-04-22T12:01:02.316Z</time></trkpt><trkpt lat="39.3011365" lon="8.5154696"><ele>171.66666666666666</ele><time>2026-04-22T12:01:03.316Z</time></trkpt><trkpt lat="39.3011208" lon="8.5153714"><ele>170.33333333333331</ele><time>2026-04-22T12:01:04.315Z</time></trkpt><trkpt lat="39.3010862" lon="8.5152817"><ele>169.0</ele><time>2026-04-22T12:01:05.316Z</time></trkpt><trkpt lat="39.3010386" lon="8.5152051"><ele>167.66666666666666</ele><time>2026-04-22T12:01:06.316Z</time></trkpt><trkpt lat="39.3009634" lon="8.5151529"><ele>166.33333333333334</ele><time>2026-04-22T12:01:07.315Z</time></trkpt><trkpt lat="39.3008776" lon="8.5151237"><ele>165.0</ele><time>2026-04-22T12:01:08.315Z</time></trkpt><trkpt lat="39.3007952" lon="8.5151054"><ele>165.0</ele><time>2026-04-22T12:01:09.316Z</time></trkpt><trkpt lat="39.300717" lon="8.515074"><ele>165.0</ele><time>2026-04-22T12:01:10.315Z</time></trkpt><trkpt lat="39.3006509" lon="8.5150205"><ele>165.0</ele><time>2026-04-22T12:01:11.316Z</time></trkpt><trkpt lat="39.3005443" lon="8.5148484"><ele>165.0</ele><time>2026-04-22T12:01:13.316Z</time></trkpt><trkpt lat="39.300507" lon="8.5147259"><ele>165.0</ele><time>2026-04-22T12:01:14.316Z</time></trkpt><trkpt lat="39.3004614" lon="8.5145892"><ele>163.6</ele><time>2026-04-22T12:01:15.316Z</time></trkpt><trkpt lat="39.3004143" lon="8.514456"><ele>162.2</ele><time>2026-04-22T12:01:16.315Z</time></trkpt><trkpt lat="39.3003604" lon="8.51433"><ele>160.8</ele><time>2026-04-22T12:01:17.316Z</time></trkpt><trkpt lat="39.3003036" lon="8.5142187"><ele>159.4</ele><time>2026-04-22T12:01:18.315Z</time></trkpt><trkpt lat="39.3002458" lon="8.514112"><ele>158.0</ele><time>2026-04-22T12:01:19.315Z</time></trkpt><trkpt lat="39.3001761" lon="8.5140187"><ele>158.0</ele><time>2026-04-22T12:01:20.316Z</time></trkpt><trkpt lat="39.3000991" lon="8.5139376"><ele>158.0</ele><time>2026-04-22T12:01:21.316Z</time></trkpt><trkpt lat="39.3000227" lon="8.5138729"><ele>158.0</ele><time>2026-04-22T12:01:22.315Z</time></trkpt><trkpt lat="39.2999482" lon="8.5138232"><ele>158.0</ele><time>2026-04-22T12:01:23.316Z</time></trkpt><trkpt lat="39.2998791" lon="8.5137789"><ele>158.0</ele><time>2026-04-22T12:01:24.315Z</time></trkpt><trkpt lat="39.2998196" lon="8.5137276"><ele>158.0</ele><time>2026-04-22T12:01:25.316Z</time></trkpt><trkpt lat="39.2997734" lon="8.5136583"><ele>156.85714285714286</ele><time>2026-04-22T12:01:26.316Z</time></trkpt><trkpt lat="39.2997357" lon="8.5135823"><ele>155.71428571428572</ele><time>2026-04-22T12:01:27.315Z</time></trkpt><trkpt lat="39.2997061" lon="8.5135096"><ele>154.57142857142856</ele><time>2026-04-22T12:01:28.315Z</time></trkpt><trkpt lat="39.299656" lon="8.5134546"><ele>153.42857142857144</ele><time>2026-04-22T12:01:29.316Z</time></trkpt><trkpt lat="39.2995923" lon="8.5134253"><ele>152.28571428571428</ele><time>2026-04-22T12:01:30.316Z</time></trkpt><trkpt lat="39.2995191" lon="8.5134242"><ele>151.14285714285714</ele><time>2026-04-22T12:01:31.316Z</time></trkpt><trkpt lat="39.2994496" lon="8.5134411"><ele>150.0</ele><time>2026-04-22T12:01:32.316Z</time></trkpt><trkpt lat="39.2992783" lon="8.51343"><ele>150.0</ele><time>2026-04-22T12:01:35.316Z</time></trkpt><trkpt lat="39.2992089" lon="8.5132916"><ele>150.0</ele><time>2026-04-22T12:01:37.316Z</time></trkpt><trkpt lat="39.2991862" lon="8.5131904"><ele>150.0</ele><time>2026-04-22T12:01:38.316Z</time></trkpt><trkpt lat="39.2991569" lon="8.5130835"><ele>150.0</ele><time>2026-04-22T12:01:39.315Z</time></trkpt><trkpt lat="39.2991243" lon="8.5129717"><ele>150.0</ele><time>2026-04-22T12:01:40.316Z</time></trkpt><trkpt lat="39.299091" lon="8.5128581"><ele>149.6</ele><time>2026-04-22T12:01:41.316Z</time></trkpt><trkpt lat="39.2990588" lon="8.5127413"><ele>149.2</ele><time>2026-04-22T12:01:42.316Z</time></trkpt><trkpt lat="39.2990169" lon="8.5126243"><ele>148.8</ele><time>2026-04-22T12:01:43.316Z</time></trkpt><trkpt lat="39.2989635" lon="8.5125141"><ele>148.4</ele><time>2026-04-22T12:01:44.315Z</time></trkpt><trkpt lat="39.298898" lon="8.5124114"><ele>148.0</ele><time>2026-04-22T12:01:45.315Z</time></trkpt><trkpt lat="39.2988226" lon="8.5123179"><ele>148.0</ele><time>2026-04-22T12:01:46.316Z</time></trkpt><trkpt lat="39.2987399" lon="8.5122287"><ele>148.0</ele><time>2026-04-22T12:01:47.316Z</time></trkpt><trkpt lat="39.2986541" lon="8.5121368"><ele>148.0</ele><time>2026-04-22T12:01:48.315Z</time></trkpt><trkpt lat="39.2985656" lon="8.5120383"><ele>148.0</ele><time>2026-04-22T12:01:49.316Z</time></trkpt><trkpt lat="39.2984743" lon="8.5119343"><ele>147.5</ele><time>2026-04-22T12:01:50.316Z</time></trkpt><trkpt lat="39.2983902" lon="8.5118423"><ele>147.0</ele><time>2026-04-22T12:01:51.315Z</time></trkpt><trkpt lat="39.298319" lon="8.5117606"><ele>146.5</ele><time>2026-04-22T12:01:52.315Z</time></trkpt><trkpt lat="39.298259" lon="8.5116845"><ele>146.0</ele><time>2026-04-22T12:01:53.316Z</time></trkpt><trkpt lat="39.298117" lon="8.5115688"><ele>145.66666666666666</ele><time>2026-04-22T12:01:56.316Z</time></trkpt><trkpt lat="39.2980289" lon="8.5116109"><ele>145.33333333333331</ele><time>2026-04-22T12:01:58.316Z</time></trkpt><trkpt lat="39.2979963" lon="8.511682"><ele>145.0</ele><time>2026-04-22T12:01:59.316Z</time></trkpt><trkpt lat="39.2979645" lon="8.5117735"><ele>144.66666666666666</ele><time>2026-04-22T12:02:00.316Z</time></trkpt><trkpt lat="39.2979308" lon="8.5118687"><ele>144.33333333333334</ele><time>2026-04-22T12:02:01.315Z</time></trkpt><trkpt lat="39.2978947" lon="8.5119588"><ele>144.0</ele><time>2026-04-22T12:02:02.316Z</time></trkpt><trkpt lat="39.2978591" lon="8.5120412"><ele>144.5</ele><time>2026-04-22T12:02:03.316Z</time></trkpt><trkpt lat="39.2978305" lon="8.5121248"><ele>145.0</ele><time>2026-04-22T12:02:04.316Z</time></trkpt><trkpt lat="39.297802" lon="8.512217"><ele>145.5</ele><time>2026-04-22T12:02:05.316Z</time></trkpt><trkpt lat="39.2977772" lon="8.5123194"><ele>146.0</ele><time>2026-04-22T12:02:06.316Z</time></trkpt><trkpt lat="39.2977578" lon="8.5124276"><ele>146.5</ele><time>2026-04-22T12:02:07.315Z</time></trkpt><trkpt lat="39.2977345" lon="8.5125306"><ele>147.0</ele><time>2026-04-22T12:02:08.316Z</time></trkpt><trkpt lat="39.2977053" lon="8.5126162"><ele>147.0</ele><time>2026-04-22T12:02:09.316Z</time></trkpt><trkpt lat="39.2976669" lon="8.5126871"><ele>147.0</ele><time>2026-04-22T12:02:10.316Z</time></trkpt><trkpt lat="39.2975759" lon="8.5127731"><ele>147.0</ele><time>2026-04-22T12:02:12.316Z</time></trkpt><trkpt lat="39.2975" lon="8.5127933"><ele>147.0</ele><time>2026-04-22T12:02:13.316Z</time></trkpt><trkpt lat="39.2974074" lon="8.5128079"><ele>147.0</ele><time>2026-04-22T12:02:14.316Z</time></trkpt><trkpt lat="39.2972188" lon="8.5128293"><ele>147.33333333333334</ele><time>2026-04-22T12:02:16.315Z</time></trkpt><trkpt lat="39.2971407" lon="8.5128515"><ele>147.66666666666666</ele><time>2026-04-22T12:02:17.316Z</time></trkpt><trkpt lat="39.2970701" lon="8.5128787"><ele>148.0</ele><time>2026-04-22T12:02:18.316Z</time></trkpt><trkpt lat="39.2969993" lon="8.5128967"><ele>148.33333333333331</ele><time>2026-04-22T12:02:19.316Z</time></trkpt><trkpt lat="39.2969232" lon="8.512894"><ele>148.66666666666666</ele><time>2026-04-22T12:02:20.316Z</time></trkpt><trkpt lat="39.2968367" lon="8.5128769"><ele>149.0</ele><time>2026-04-22T12:02:21.316Z</time></trkpt><trkpt lat="39.2967449" lon="8.5128558"><ele>149.0</ele><time>2026-04-22T12:02:22.316Z</time></trkpt><trkpt lat="39.2966508" lon="8.51285"><ele>149.0</ele><time>2026-04-22T12:02:23.316Z</time></trkpt><trkpt lat="39.2965498" lon="8.5128587"><ele>149.0</ele><time>2026-04-22T12:02:24.315Z</time></trkpt><trkpt lat="39.296438" lon="8.5128868"><ele>149.0</ele><time>2026-04-22T12:02:25.315Z</time></trkpt><trkpt lat="39.2963195" lon="8.5129176"><ele>149.0</ele><time>2026-04-22T12:02:26.316Z</time></trkpt><trkpt lat="39.296195" lon="8.5129538"><ele>147.25</ele><time>2026-04-22T12:02:27.316Z</time></trkpt><trkpt lat="39.2960611" lon="8.5129963"><ele>145.5</ele><time>2026-04-22T12:02:28.316Z</time></trkpt><trkpt lat="39.2959287" lon="8.5130428"><ele>143.75</ele><time>2026-04-22T12:02:29.316Z</time></trkpt><trkpt lat="39.2958028" lon="8.5130882"><ele>142.0</ele><time>2026-04-22T12:02:30.316Z</time></trkpt><trkpt lat="39.2956888" lon="8.5131318"><ele>140.79999999999998</ele><time>2026-04-22T12:02:31.315Z</time></trkpt><trkpt lat="39.2955842" lon="8.5131722"><ele>139.6</ele><time>2026-04-22T12:02:32.316Z</time></trkpt><trkpt lat="39.2954859" lon="8.5132063"><ele>138.39999999999998</ele><time>2026-04-22T12:02:33.315Z</time></trkpt><trkpt lat="39.2953936" lon="8.5132405"><ele>137.2</ele><time>2026-04-22T12:02:34.316Z</time></trkpt><trkpt lat="39.2953169" lon="8.513273"><ele>136.0</ele><time>2026-04-22T12:02:35.316Z</time></trkpt><trkpt lat="39.2951197" lon="8.5132112"><ele>136.0</ele><time>2026-04-22T12:02:39.316Z</time></trkpt><trkpt lat="39.2951371" lon="8.5130429"><ele>136.0</ele><time>2026-04-22T12:02:41.315Z</time></trkpt><trkpt lat="39.295159" lon="8.5129594"><ele>136.0</ele><time>2026-04-22T12:02:42.316Z</time></trkpt><trkpt lat="39.295161" lon="8.5128132"><ele>136.0</ele><time>2026-04-22T12:02:44.315Z</time></trkpt><trkpt lat="39.2950672" lon="8.5127514"><ele>136.0</ele><time>2026-04-22T12:02:46.315Z</time></trkpt><trkpt lat="39.295003" lon="8.5127694"><ele>136.0</ele><time>2026-04-22T12:02:47.315Z</time></trkpt><trkpt lat="39.2949456" lon="8.5128152"><ele>136.0</ele><time>2026-04-22T12:02:48.315Z</time></trkpt><trkpt lat="39.2948943" lon="8.5128907"><ele>136.0</ele><time>2026-04-22T12:02:49.316Z</time></trkpt><trkpt lat="39.2948497" lon="8.512972"><ele>136.0</ele><time>2026-04-22T12:02:50.316Z</time></trkpt><trkpt lat="39.2948047" lon="8.5130346"><ele>136.0</ele><time>2026-04-22T12:02:51.316Z</time></trkpt><trkpt lat="39.2946876" lon="8.513079"><ele>136.0</ele><time>2026-04-22T12:02:53.316Z</time></trkpt><trkpt lat="39.2946147" lon="8.5130789"><ele>135.33333333333334</ele><time>2026-04-22T12:02:54.316Z</time></trkpt><trkpt lat="39.2945446" lon="8.5130752"><ele>134.66666666666669</ele><time>2026-04-22T12:02:55.316Z</time></trkpt><trkpt lat="39.2944798" lon="8.5130817"><ele>134.0</ele><time>2026-04-22T12:02:56.315Z</time></trkpt><trkpt lat="39.2943541" lon="8.513161"><ele>133.33333333333334</ele><time>2026-04-22T12:02:58.316Z</time></trkpt><trkpt lat="39.294297" lon="8.5132429"><ele>132.66666666666666</ele><time>2026-04-22T12:02:59.316Z</time></trkpt><trkpt lat="39.2942473" lon="8.513338"><ele>132.0</ele><time>2026-04-22T12:03:00.316Z</time></trkpt><trkpt lat="39.2942074" lon="8.5134321"><ele>132.0</ele><time>2026-04-22T12:03:01.316Z</time></trkpt><trkpt lat="39.2941786" lon="8.5135363"><ele>132.0</ele><time>2026-04-22T12:03:02.315Z</time></trkpt><trkpt lat="39.2941519" lon="8.5136424"><ele>132.0</ele><time>2026-04-22T12:03:03.315Z</time></trkpt><trkpt lat="39.2941255" lon="8.5137489"><ele>132.0</ele><time>2026-04-22T12:03:04.316Z</time></trkpt><trkpt lat="39.2940974" lon="8.5138499"><ele>132.0</ele><time>2026-04-22T12:03:05.316Z</time></trkpt><trkpt lat="39.2940628" lon="8.5139418"><ele>132.0</ele><time>2026-04-22T12:03:06.316Z</time></trkpt><trkpt lat="39.2940299" lon="8.5140191"><ele>131.6</ele><time>2026-04-22T12:03:07.316Z</time></trkpt><trkpt lat="39.2939474" lon="8.5141279"><ele>131.2</ele><time>2026-04-22T12:03:09.316Z</time></trkpt><trkpt lat="39.293867" lon="8.5141203"><ele>130.8</ele><time>2026-04-22T12:03:11.316Z</time></trkpt><trkpt lat="39.2938259" lon="8.5139908"><ele>130.4</ele><time>2026-04-22T12:03:13.316Z</time></trkpt><trkpt lat="39.2937962" lon="8.5138538"><ele>130.0</ele><time>2026-04-22T12:03:15.316Z</time></trkpt><trkpt lat="39.2937027" lon="8.5138171"><ele>129.6</ele><time>2026-04-22T12:03:17.315Z</time></trkpt><trkpt lat="39.293584" lon="8.5139045"><ele>129.2</ele><time>2026-04-22T12:03:19.316Z</time></trkpt><trkpt lat="39.2935275" lon="8.5139658"><ele>128.8</ele><time>2026-04-22T12:03:20.315Z</time></trkpt><trkpt lat="39.293415" lon="8.5140207"><ele>128.4</ele><time>2026-04-22T12:03:22.315Z</time></trkpt><trkpt lat="39.2933222" lon="8.5139919"><ele>128.0</ele><time>2026-04-22T12:03:24.316Z</time></trkpt><trkpt lat="39.2932733" lon="8.5138748"><ele>128.0</ele><time>2026-04-22T12:03:26.315Z</time></trkpt><trkpt lat="39.2932355" lon="8.5137591"><ele>128.0</ele><time>2026-04-22T12:03:28.316Z</time></trkpt><trkpt lat="39.2931494" lon="8.5137457"><ele>128.0</ele><time>2026-04-22T12:03:30.315Z</time></trkpt><trkpt lat="39.2930383" lon="8.5138369"><ele>128.0</ele><time>2026-04-22T12:03:32.316Z</time></trkpt><trkpt lat="39.2929913" lon="8.5138969"><ele>128.0</ele><time>2026-04-22T12:03:33.315Z</time></trkpt><trkpt lat="39.2929191" lon="8.5140107"><ele>127.75</ele><time>2026-04-22T12:03:35.315Z</time></trkpt><trkpt lat="39.2928691" lon="8.5141213"><ele>127.5</ele><time>2026-04-22T12:03:37.315Z</time></trkpt><trkpt lat="39.2928358" lon="8.5142655"><ele>127.25</ele><time>2026-04-22T12:03:39.316Z</time></trkpt><trkpt lat="39.2927378" lon="8.5144625"><ele>127.0</ele><time>2026-04-22T12:03:42.316Z</time></trkpt><trkpt lat="39.2926399" lon="8.514573"><ele>126.71428571428572</ele><time>2026-04-22T12:03:44.316Z</time></trkpt><trkpt lat="39.2925908" lon="8.5146276"><ele>126.42857142857142</ele><time>2026-04-22T12:03:45.315Z</time></trkpt><trkpt lat="39.2925436" lon="8.5146829"><ele>126.14285714285714</ele><time>2026-04-22T12:03:46.316Z</time></trkpt><trkpt lat="39.2924958" lon="8.5147475"><ele>125.85714285714286</ele><time>2026-04-22T12:03:47.316Z</time></trkpt><trkpt lat="39.2924531" lon="8.514822"><ele>125.57142857142858</ele><time>2026-04-22T12:03:48.315Z</time></trkpt><trkpt lat="39.2924188" lon="8.514901"><ele>125.28571428571428</ele><time>2026-04-22T12:03:49.315Z</time></trkpt><trkpt lat="39.2923841" lon="8.5149771"><ele>125.0</ele><time>2026-04-22T12:03:50.316Z</time></trkpt><trkpt lat="39.2923467" lon="8.5150479"><ele>125.0</ele><time>2026-04-22T12:03:51.315Z</time></trkpt><trkpt lat="39.2923018" lon="8.5151122"><ele>125.0</ele><time>2026-04-22T12:03:52.315Z</time></trkpt><trkpt lat="39.2922504" lon="8.5151626"><ele>125.0</ele><time>2026-04-22T12:03:53.316Z</time></trkpt><trkpt lat="39.2921887" lon="8.5151946"><ele>125.0</ele><time>2026-04-22T12:03:54.315Z</time></trkpt><trkpt lat="39.2921186" lon="8.5152025"><ele>125.0</ele><time>2026-04-22T12:03:55.316Z</time></trkpt><trkpt lat="39.2920336" lon="8.5152007"><ele>125.0</ele><time>2026-04-22T12:03:56.315Z</time></trkpt><trkpt lat="39.2919447" lon="8.5152017"><ele>125.0</ele><time>2026-04-22T12:03:57.315Z</time></trkpt><trkpt lat="39.2918494" lon="8.5152018"><ele>124.25</ele><time>2026-04-22T12:03:58.315Z</time></trkpt><trkpt lat="39.2917463" lon="8.5151983"><ele>123.5</ele><time>2026-04-22T12:03:59.316Z</time></trkpt><trkpt lat="39.2916408" lon="8.5152044"><ele>122.75</ele><time>2026-04-22T12:04:00.316Z</time></trkpt><trkpt lat="39.2914124" lon="8.515208"><ele>122.0</ele><time>2026-04-22T12:04:02.316Z</time></trkpt><trkpt lat="39.2913065" lon="8.5152127"><ele>121.39999999999999</ele><time>2026-04-22T12:04:03.316Z</time></trkpt><trkpt lat="39.291201" lon="8.5152119"><ele>120.79999999999998</ele><time>2026-04-22T12:04:04.315Z</time></trkpt><trkpt lat="39.2911083" lon="8.5152111"><ele>120.2</ele><time>2026-04-22T12:04:05.315Z</time></trkpt><trkpt lat="39.2910176" lon="8.5151935"><ele>119.6</ele><time>2026-04-22T12:04:06.315Z</time></trkpt><trkpt lat="39.2909277" lon="8.5151651"><ele>119.0</ele><time>2026-04-22T12:04:07.315Z</time></trkpt><trkpt lat="39.2908336" lon="8.5151293"><ele>119.0</ele><time>2026-04-22T12:04:08.316Z</time></trkpt><trkpt lat="39.2907384" lon="8.5150901"><ele>119.0</ele><time>2026-04-22T12:04:09.315Z</time></trkpt><trkpt lat="39.2906461" lon="8.5150603"><ele>119.0</ele><time>2026-04-22T12:04:10.316Z</time></trkpt><trkpt lat="39.2905558" lon="8.5150432"><ele>119.0</ele><time>2026-04-22T12:04:11.315Z</time></trkpt><trkpt lat="39.2904607" lon="8.5150377"><ele>119.0</ele><time>2026-04-22T12:04:12.316Z</time></trkpt><trkpt lat="39.2903712" lon="8.5150371"><ele>118.66666666666666</ele><time>2026-04-22T12:04:13.316Z</time></trkpt><trkpt lat="39.2902833" lon="8.5150335"><ele>118.33333333333333</ele><time>2026-04-22T12:04:14.316Z</time></trkpt><trkpt lat="39.2901913" lon="8.5150246"><ele>118.0</ele><time>2026-04-22T12:04:15.315Z</time></trkpt><trkpt lat="39.290106" lon="8.5150137"><ele>117.66666666666666</ele><time>2026-04-22T12:04:16.316Z</time></trkpt><trkpt lat="39.2900272" lon="8.5150025"><ele>117.33333333333333</ele><time>2026-04-22T12:04:17.315Z</time></trkpt><trkpt lat="39.2899549" lon="8.5149905"><ele>117.0</ele><time>2026-04-22T12:04:18.315Z</time></trkpt><trkpt lat="39.2898776" lon="8.5149834"><ele>117.0</ele><time>2026-04-22T12:04:19.315Z</time></trkpt><trkpt lat="39.2897852" lon="8.5149741"><ele>117.0</ele><time>2026-04-22T12:04:20.316Z</time></trkpt><trkpt lat="39.2896818" lon="8.5149738"><ele>117.0</ele><time>2026-04-22T12:04:21.316Z</time></trkpt><trkpt lat="39.2894454" lon="8.5149558"><ele>117.0</ele><time>2026-04-22T12:04:23.315Z</time></trkpt><trkpt lat="39.2893149" lon="8.5149473"><ele>117.25</ele><time>2026-04-22T12:04:24.316Z</time></trkpt><trkpt lat="39.2891839" lon="8.5149401"><ele>117.5</ele><time>2026-04-22T12:04:25.315Z</time></trkpt><trkpt lat="39.2890657" lon="8.5149299"><ele>117.75</ele><time>2026-04-22T12:04:26.315Z</time></trkpt><trkpt lat="39.288948" lon="8.5149275"><ele>118.0</ele><time>2026-04-22T12:04:27.315Z</time></trkpt><trkpt lat="39.2888264" lon="8.5149447"><ele>119.25</ele><time>2026-04-22T12:04:28.315Z</time></trkpt><trkpt lat="39.2887058" lon="8.5149714"><ele>120.5</ele><time>2026-04-22T12:04:29.315Z</time></trkpt><trkpt lat="39.2885893" lon="8.5150011"><ele>121.75</ele><time>2026-04-22T12:04:30.316Z</time></trkpt><trkpt lat="39.2884647" lon="8.5150297"><ele>123.0</ele><time>2026-04-22T12:04:31.316Z</time></trkpt><trkpt lat="39.2883351" lon="8.5150589"><ele>123.0</ele><time>2026-04-22T12:04:32.316Z</time></trkpt><trkpt lat="39.2882085" lon="8.5150845"><ele>123.0</ele><time>2026-04-22T12:04:33.315Z</time></trkpt><trkpt lat="39.2880801" lon="8.5151054"><ele>123.0</ele><time>2026-04-22T12:04:34.315Z</time></trkpt><trkpt lat="39.28795" lon="8.5151276"><ele>123.0</ele><time>2026-04-22T12:04:35.316Z</time></trkpt><trkpt lat="39.2878182" lon="8.5151528"><ele>125.0</ele><time>2026-04-22T12:04:36.316Z</time></trkpt><trkpt lat="39.2876854" lon="8.5151849"><ele>127.0</ele><time>2026-04-22T12:04:37.316Z</time></trkpt><trkpt lat="39.2875511" lon="8.5152326"><ele>129.0</ele><time>2026-04-22T12:04:38.315Z</time></trkpt><trkpt lat="39.2874266" lon="8.5152995"><ele>131.0</ele><time>2026-04-22T12:04:39.315Z</time></trkpt><trkpt lat="39.2873039" lon="8.5153805"><ele>131.66666666666666</ele><time>2026-04-22T12:04:40.316Z</time></trkpt><trkpt lat="39.2871743" lon="8.5154628"><ele>132.33333333333334</ele><time>2026-04-22T12:04:41.316Z</time></trkpt><trkpt lat="39.2870463" lon="8.5155413"><ele>133.0</ele><time>2026-04-22T12:04:42.315Z</time></trkpt><trkpt lat="39.2868064" lon="8.5156735"><ele>133.0</ele><time>2026-04-22T12:04:44.316Z</time></trkpt><trkpt lat="39.2866991" lon="8.5157318"><ele>133.0</ele><time>2026-04-22T12:04:45.316Z</time></trkpt><trkpt lat="39.2865979" lon="8.5157826"><ele>133.0</ele><time>2026-04-22T12:04:46.315Z</time></trkpt><trkpt lat="39.2865002" lon="8.5158225"><ele>133.0</ele><time>2026-04-22T12:04:47.316Z</time></trkpt><trkpt lat="39.2864013" lon="8.5158391"><ele>133.0</ele><time>2026-04-22T12:04:48.316Z</time></trkpt><trkpt lat="39.2862972" lon="8.5158501"><ele>133.0</ele><time>2026-04-22T12:04:49.316Z</time></trkpt><trkpt lat="39.2861894" lon="8.5158494"><ele>133.0</ele><time>2026-04-22T12:04:50.316Z</time></trkpt><trkpt lat="39.2860828" lon="8.5158328"><ele>133.0</ele><time>2026-04-22T12:04:51.315Z</time></trkpt><trkpt lat="39.2859802" lon="8.5158012"><ele>133.0</ele><time>2026-04-22T12:04:52.315Z</time></trkpt><trkpt lat="39.285877" lon="8.5157572"><ele>133.0</ele><time>2026-04-22T12:04:53.316Z</time></trkpt><trkpt lat="39.2857712" lon="8.5157054"><ele>133.0</ele><time>2026-04-22T12:04:54.315Z</time></trkpt><trkpt lat="39.2856701" lon="8.5156548"><ele>133.0</ele><time>2026-04-22T12:04:55.316Z</time></trkpt><trkpt lat="39.285575" lon="8.5156041"><ele>133.0</ele><time>2026-04-22T12:04:56.315Z</time></trkpt><trkpt lat="39.2854816" lon="8.5155515"><ele>133.0</ele><time>2026-04-22T12:04:57.316Z</time></trkpt><trkpt lat="39.2853811" lon="8.5154979"><ele>133.0</ele><time>2026-04-22T12:04:58.316Z</time></trkpt><trkpt lat="39.2852864" lon="8.5154453"><ele>133.6</ele><time>2026-04-22T12:04:59.315Z</time></trkpt><trkpt lat="39.2852005" lon="8.5153847"><ele>134.20000000000002</ele><time>2026-04-22T12:05:00.316Z</time></trkpt><trkpt lat="39.2851241" lon="8.5153111"><ele>134.8</ele><time>2026-04-22T12:05:01.315Z</time></trkpt><trkpt lat="39.2850484" lon="8.5152265"><ele>135.4</ele><time>2026-04-22T12:05:02.316Z</time></trkpt><trkpt lat="39.2849748" lon="8.5151302"><ele>136.0</ele><time>2026-04-22T12:05:03.315Z</time></trkpt><trkpt lat="39.2848156" lon="8.5149408"><ele>138.0</ele><time>2026-04-22T12:05:05.316Z</time></trkpt><trkpt lat="39.2847282" lon="8.5148548"><ele>140.0</ele><time>2026-04-22T12:05:06.315Z</time></trkpt><trkpt lat="39.2846445" lon="8.514772"><ele>142.0</ele><time>2026-04-22T12:05:07.316Z</time></trkpt><trkpt lat="39.284561" lon="8.5147018"><ele>144.0</ele><time>2026-04-22T12:05:08.316Z</time></trkpt><trkpt lat="39.2844741" lon="8.5146516"><ele>146.0</ele><time>2026-04-22T12:05:09.316Z</time></trkpt><trkpt lat="39.2843804" lon="8.5146184"><ele>146.0</ele><time>2026-04-22T12:05:10.316Z</time></trkpt><trkpt lat="39.2842788" lon="8.5145975"><ele>146.0</ele><time>2026-04-22T12:05:11.315Z</time></trkpt><trkpt lat="39.2841703" lon="8.514586"><ele>146.0</ele><time>2026-04-22T12:05:12.315Z</time></trkpt><trkpt lat="39.2840584" lon="8.5145821"><ele>146.0</ele><time>2026-04-22T12:05:13.316Z</time></trkpt><trkpt lat="39.2839537" lon="8.5145743"><ele>146.0</ele><time>2026-04-22T12:05:14.316Z</time></trkpt><trkpt lat="39.283848" lon="8.5145628"><ele>147.0</ele><time>2026-04-22T12:05:15.315Z</time></trkpt><trkpt lat="39.2837538" lon="8.5145441"><ele>148.0</ele><time>2026-04-22T12:05:16.316Z</time></trkpt><trkpt lat="39.2836729" lon="8.5145238"><ele>149.0</ele><time>2026-04-22T12:05:17.315Z</time></trkpt><trkpt lat="39.2836079" lon="8.5144975"><ele>150.0</ele><time>2026-04-22T12:05:18.315Z</time></trkpt><trkpt lat="39.2835419" lon="8.5144147"><ele>151.0</ele><time>2026-04-22T12:05:20.316Z</time></trkpt><trkpt lat="39.2835625" lon="8.5142937"><ele>152.0</ele><time>2026-04-22T12:05:22.316Z</time></trkpt><trkpt lat="39.2836653" lon="8.514189"><ele>152.0</ele><time>2026-04-22T12:05:24.316Z</time></trkpt><trkpt lat="39.2837758" lon="8.5140687"><ele>152.0</ele><time>2026-04-22T12:05:26.316Z</time></trkpt><trkpt lat="39.2838017" lon="8.5139928"><ele>152.0</ele><time>2026-04-22T12:05:27.316Z</time></trkpt><trkpt lat="39.2837916" lon="8.5139089"><ele>152.0</ele><time>2026-04-22T12:05:28.316Z</time></trkpt><trkpt lat="39.2837537" lon="8.5138333"><ele>152.0</ele><time>2026-04-22T12:05:29.316Z</time></trkpt><trkpt lat="39.2836891" lon="8.5137807"><ele>152.0</ele><time>2026-04-22T12:05:30.315Z</time></trkpt><trkpt lat="39.2836132" lon="8.5137573"><ele>152.0</ele><time>2026-04-22T12:05:31.316Z</time></trkpt><trkpt lat="39.2835253" lon="8.5137487"><ele>152.0</ele><time>2026-04-22T12:05:32.315Z</time></trkpt><trkpt lat="39.2834415" lon="8.513746"><ele>152.0</ele><time>2026-04-22T12:05:33.315Z</time></trkpt><trkpt lat="39.2833679" lon="8.5137341"><ele>152.0</ele><time>2026-04-22T12:05:34.316Z</time></trkpt><trkpt lat="39.283292" lon="8.5136436"><ele>152.0</ele><time>2026-04-22T12:05:36.315Z</time></trkpt><trkpt lat="39.2833187" lon="8.5134772"><ele>152.0</ele><time>2026-04-22T12:05:38.316Z</time></trkpt><trkpt lat="39.283353" lon="8.5133753"><ele>152.0</ele><time>2026-04-22T12:05:39.316Z</time></trkpt><trkpt lat="39.2833844" lon="8.5132681"><ele>152.0</ele><time>2026-04-22T12:05:40.316Z</time></trkpt><trkpt lat="39.2834054" lon="8.5131666"><ele>152.0</ele><time>2026-04-22T12:05:41.315Z</time></trkpt><trkpt lat="39.283408" lon="8.5130732"><ele>152.0</ele><time>2026-04-22T12:05:42.316Z</time></trkpt><trkpt lat="39.2833982" lon="8.5129912"><ele>152.0</ele><time>2026-04-22T12:05:43.315Z</time></trkpt><trkpt lat="39.2833486" lon="8.51289"><ele>152.0</ele><time>2026-04-22T12:05:45.315Z</time></trkpt><trkpt lat="39.2832536" lon="8.5129961"><ele>152.0</ele><time>2026-04-22T12:05:49.316Z</time></trkpt><trkpt lat="39.2832834" lon="8.5131427"><ele>152.0</ele><time>2026-04-22T12:05:51.316Z</time></trkpt><trkpt lat="39.2832494" lon="8.5133039"><ele>152.0</ele><time>2026-04-22T12:05:53.316Z</time></trkpt><trkpt lat="39.2832094" lon="8.5133849"><ele>152.0</ele><time>2026-04-22T12:05:54.316Z</time></trkpt><trkpt lat="39.2831672" lon="8.5134643"><ele>152.0</ele><time>2026-04-22T12:05:55.315Z</time></trkpt><trkpt lat="39.2831272" lon="8.5135326"><ele>152.0</ele><time>2026-04-22T12:05:56.316Z</time></trkpt><trkpt lat="39.2830664" lon="8.5136391"><ele>152.0</ele><time>2026-04-22T12:05:58.315Z</time></trkpt><trkpt lat="39.282998" lon="8.5137419"><ele>152.0</ele><time>2026-04-22T12:06:00.316Z</time></trkpt><trkpt lat="39.2829585" lon="8.5138088"><ele>152.0</ele><time>2026-04-22T12:06:01.316Z</time></trkpt><trkpt lat="39.2829283" lon="8.5138875"><ele>152.0</ele><time>2026-04-22T12:06:02.315Z</time></trkpt><trkpt lat="39.2829112" lon="8.5139734"><ele>156.2</ele><time>2026-04-22T12:06:03.315Z</time></trkpt><trkpt lat="39.2829031" lon="8.5140599"><ele>160.39999999999998</ele><time>2026-04-22T12:06:04.316Z</time></trkpt><trkpt lat="39.2828914" lon="8.5141413"><ele>164.60000000000002</ele><time>2026-04-22T12:06:05.316Z</time></trkpt><trkpt lat="39.2828302" lon="8.514283"><ele>168.8</ele><time>2026-04-22T12:06:07.316Z</time></trkpt><trkpt lat="39.2827204" lon="8.514423"><ele>173.0</ele><time>2026-04-22T12:06:09.316Z</time></trkpt><trkpt lat="39.2826521" lon="8.5144905"><ele>173.0</ele><time>2026-04-22T12:06:10.316Z</time></trkpt><trkpt lat="39.2825824" lon="8.5145544"><ele>173.0</ele><time>2026-04-22T12:06:11.315Z</time></trkpt><trkpt lat="39.2825186" lon="8.5146204"><ele>173.0</ele><time>2026-04-22T12:06:12.315Z</time></trkpt><trkpt lat="39.2824635" lon="8.5146991"><ele>173.0</ele><time>2026-04-22T12:06:13.315Z</time></trkpt><trkpt lat="39.2824097" lon="8.5147839"><ele>173.0</ele><time>2026-04-22T12:06:14.316Z</time></trkpt><trkpt lat="39.2823621" lon="8.5148695"><ele>173.0</ele><time>2026-04-22T12:06:15.315Z</time></trkpt><trkpt lat="39.2823079" lon="8.5149485"><ele>176.16666666666666</ele><time>2026-04-22T12:06:16.316Z</time></trkpt><trkpt lat="39.2822472" lon="8.5150258"><ele>179.33333333333331</ele><time>2026-04-22T12:06:17.315Z</time></trkpt><trkpt lat="39.2821925" lon="8.5151103"><ele>182.5</ele><time>2026-04-22T12:06:18.316Z</time></trkpt><trkpt lat="39.2821354" lon="8.5151888"><ele>185.66666666666666</ele><time>2026-04-22T12:06:19.316Z</time></trkpt><trkpt lat="39.2820813" lon="8.5152544"><ele>188.83333333333334</ele><time>2026-04-22T12:06:20.316Z</time></trkpt><trkpt lat="39.2820251" lon="8.5153107"><ele>192.0</ele><time>2026-04-22T12:06:21.315Z</time></trkpt><trkpt lat="39.2819713" lon="8.5153584"><ele>191.0</ele><time>2026-04-22T12:06:22.316Z</time></trkpt><trkpt lat="39.2819011" lon="8.5154531"><ele>190.0</ele><time>2026-04-22T12:06:24.316Z</time></trkpt><trkpt lat="39.2819055" lon="8.5155773"><ele>189.0</ele><time>2026-04-22T12:06:26.316Z</time></trkpt><trkpt lat="39.2820038" lon="8.5156741"><ele>188.0</ele><time>2026-04-22T12:06:28.315Z</time></trkpt><trkpt lat="39.2821221" lon="8.5158107"><ele>188.0</ele><time>2026-04-22T12:06:31.315Z</time></trkpt><trkpt lat="39.2821222" lon="8.5159547"><ele>188.0</ele><time>2026-04-22T12:06:33.316Z</time></trkpt><trkpt lat="39.2821053" lon="8.5160489"><ele>188.0</ele><time>2026-04-22T12:06:34.315Z</time></trkpt><trkpt lat="39.2820828" lon="8.5161466"><ele>188.0</ele><time>2026-04-22T12:06:35.316Z</time></trkpt><trkpt lat="39.2820586" lon="8.5162528"><ele>188.0</ele><time>2026-04-22T12:06:36.316Z</time></trkpt><trkpt lat="39.2820292" lon="8.5163606"><ele>188.0</ele><time>2026-04-22T12:06:37.315Z</time></trkpt><trkpt lat="39.2820009" lon="8.516463"><ele>188.83333333333331</ele><time>2026-04-22T12:06:38.315Z</time></trkpt><trkpt lat="39.2819748" lon="8.51657"><ele>189.66666666666666</ele><time>2026-04-22T12:06:39.316Z</time></trkpt><trkpt lat="39.2819585" lon="8.5166675"><ele>190.5</ele><time>2026-04-22T12:06:40.316Z</time></trkpt><trkpt lat="39.2819497" lon="8.5167553"><ele>191.33333333333331</ele><time>2026-04-22T12:06:41.315Z</time></trkpt><trkpt lat="39.2819374" lon="8.5168822"><ele>192.16666666666666</ele><time>2026-04-22T12:06:43.315Z</time></trkpt><trkpt lat="39.2818882" lon="8.5169515"><ele>193.0</ele><time>2026-04-22T12:06:45.316Z</time></trkpt><trkpt lat="39.2818218" lon="8.5168929"><ele>193.0</ele><time>2026-04-22T12:06:48.316Z</time></trkpt><trkpt lat="39.2818376" lon="8.5167264"><ele>193.0</ele><time>2026-04-22T12:06:50.316Z</time></trkpt><trkpt lat="39.2818967" lon="8.5165276"><ele>193.0</ele><time>2026-04-22T12:06:52.316Z</time></trkpt><trkpt lat="39.2819174" lon="8.5164164"><ele>193.0</ele><time>2026-04-22T12:06:53.315Z</time></trkpt><trkpt lat="39.2819229" lon="8.5163013"><ele>192.16666666666666</ele><time>2026-04-22T12:06:54.316Z</time></trkpt><trkpt lat="39.2819313" lon="8.5161913"><ele>191.33333333333331</ele><time>2026-04-22T12:06:55.316Z</time></trkpt><trkpt lat="39.2819303" lon="8.5160916"><ele>190.5</ele><time>2026-04-22T12:06:56.315Z</time></trkpt><trkpt lat="39.2819183" lon="8.5160025"><ele>189.66666666666666</ele><time>2026-04-22T12:06:57.316Z</time></trkpt><trkpt lat="39.2818389" lon="8.5158876"><ele>188.83333333333331</ele><time>2026-04-22T12:06:59.316Z</time></trkpt><trkpt lat="39.2817722" lon="8.5158574"><ele>188.0</ele><time>2026-04-22T12:07:00.316Z</time></trkpt><trkpt lat="39.2817022" lon="8.5158525"><ele>188.0</ele><time>2026-04-22T12:07:01.316Z</time></trkpt><trkpt lat="39.2816284" lon="8.5158687"><ele>188.0</ele><time>2026-04-22T12:07:02.316Z</time></trkpt><trkpt lat="39.2815541" lon="8.515899"><ele>188.0</ele><time>2026-04-22T12:07:03.316Z</time></trkpt><trkpt lat="39.2814811" lon="8.5159265"><ele>188.0</ele><time>2026-04-22T12:07:04.316Z</time></trkpt><trkpt lat="39.2814117" lon="8.5159356"><ele>188.0</ele><time>2026-04-22T12:07:05.315Z</time></trkpt><trkpt lat="39.2813174" lon="8.5158961"><ele>188.0</ele><time>2026-04-22T12:07:07.316Z</time></trkpt><trkpt lat="39.28129" lon="8.5157491"><ele>188.8</ele><time>2026-04-22T12:07:09.316Z</time></trkpt><trkpt lat="39.2813128" lon="8.5156343"><ele>189.60000000000002</ele><time>2026-04-22T12:07:10.316Z</time></trkpt><trkpt lat="39.2813293" lon="8.5155163"><ele>190.39999999999998</ele><time>2026-04-22T12:07:11.316Z</time></trkpt><trkpt lat="39.2813778" lon="8.5153335"><ele>191.2</ele><time>2026-04-22T12:07:13.315Z</time></trkpt><trkpt lat="39.2814197" lon="8.5152553"><ele>192.0</ele><time>2026-04-22T12:07:14.316Z</time></trkpt><trkpt lat="39.2814735" lon="8.5151786"><ele>192.0</ele><time>2026-04-22T12:07:15.316Z</time></trkpt><trkpt lat="39.2815303" lon="8.5150895"><ele>192.0</ele><time>2026-04-22T12:07:16.315Z</time></trkpt><trkpt lat="39.2815906" lon="8.5149902"><ele>192.0</ele><time>2026-04-22T12:07:17.316Z</time></trkpt><trkpt lat="39.2816557" lon="8.5148827"><ele>192.0</ele><time>2026-04-22T12:07:18.315Z</time></trkpt><trkpt lat="39.2817282" lon="8.5147831"><ele>192.0</ele><time>2026-04-22T12:07:19.316Z</time></trkpt><trkpt lat="39.281795" lon="8.5146971"><ele>192.0</ele><time>2026-04-22T12:07:20.316Z</time></trkpt><trkpt lat="39.2818534" lon="8.514601"><ele>192.0</ele><time>2026-04-22T12:07:21.316Z</time></trkpt><trkpt lat="39.2819039" lon="8.5144925"><ele>192.0</ele><time>2026-04-22T12:07:22.316Z</time></trkpt><trkpt lat="39.2819447" lon="8.5143748"><ele>192.0</ele><time>2026-04-22T12:07:23.316Z</time></trkpt><trkpt lat="39.2819781" lon="8.5142662"><ele>192.0</ele><time>2026-04-22T12:07:24.316Z</time></trkpt><trkpt lat="39.281999" lon="8.5141731"><ele>193.6</ele><time>2026-04-22T12:07:25.315Z</time></trkpt><trkpt lat="39.2820087" lon="8.5140859"><ele>195.2</ele><time>2026-04-22T12:07:26.315Z</time></trkpt><trkpt lat="39.2820017" lon="8.5139654"><ele>196.8</ele><time>2026-04-22T12:07:28.316Z</time></trkpt><trkpt lat="39.2819614" lon="8.5138687"><ele>198.4</ele><time>2026-04-22T12:07:30.316Z</time></trkpt><trkpt lat="39.2818938" lon="8.5137492"><ele>200.0</ele><time>2026-04-22T12:07:32.316Z</time></trkpt><trkpt lat="39.2817816" lon="8.513608"><ele>200.00000000000003</ele><time>2026-04-22T12:07:34.316Z</time></trkpt><trkpt lat="39.281713" lon="8.5135312"><ele>200.0</ele><time>2026-04-22T12:07:35.316Z</time></trkpt><trkpt lat="39.2816394" lon="8.5134508"><ele>200.0</ele><time>2026-04-22T12:07:36.315Z</time></trkpt><trkpt lat="39.2815737" lon="8.5133732"><ele>200.0</ele><time>2026-04-22T12:07:37.315Z</time></trkpt><trkpt lat="39.2815172" lon="8.513291"><ele>200.00000000000003</ele><time>2026-04-22T12:07:38.316Z</time></trkpt><trkpt lat="39.2814681" lon="8.5132114"><ele>200.0</ele><time>2026-04-22T12:07:39.315Z</time></trkpt><trkpt lat="39.2813951" lon="8.5130997"><ele>201.5</ele><time>2026-04-22T12:07:41.315Z</time></trkpt><trkpt lat="39.2813455" lon="8.5130326"><ele>203.0</ele><time>2026-04-22T12:11:20.315Z</time></trkpt><trkpt lat="39.2813491" lon="8.5128515"><ele>204.5</ele><time>2026-04-22T12:11:24.315Z</time></trkpt><trkpt lat="39.2814206" lon="8.5127423"><ele>206.0</ele><time>2026-04-22T12:11:26.315Z</time></trkpt><trkpt lat="39.2815149" lon="8.5126313"><ele>205.99999999999997</ele><time>2026-04-22T12:11:28.315Z</time></trkpt><trkpt lat="39.2815672" lon="8.5125687"><ele>206.0</ele><time>2026-04-22T12:11:29.314Z</time></trkpt><trkpt lat="39.2816202" lon="8.5124999"><ele>206.0</ele><time>2026-04-22T12:11:30.314Z</time></trkpt><trkpt lat="39.2816763" lon="8.5124332"><ele>206.0</ele><time>2026-04-22T12:11:31.315Z</time></trkpt><trkpt lat="39.2817248" lon="8.5123662"><ele>206.0</ele><time>2026-04-22T12:11:32.315Z</time></trkpt><trkpt lat="39.2817671" lon="8.5122872"><ele>205.99999999999997</ele><time>2026-04-22T12:11:33.314Z</time></trkpt><trkpt lat="39.2817985" lon="8.5121986"><ele>206.0</ele><time>2026-04-22T12:11:34.314Z</time></trkpt><trkpt lat="39.2818173" lon="8.5121105"><ele>207.0</ele><time>2026-04-22T12:11:35.315Z</time></trkpt><trkpt lat="39.2818263" lon="8.512026"><ele>208.0</ele><time>2026-04-22T12:11:36.315Z</time></trkpt><trkpt lat="39.2818164" lon="8.5118756"><ele>209.0</ele><time>2026-04-22T12:11:38.315Z</time></trkpt><trkpt lat="39.2817738" lon="8.5117503"><ele>210.0</ele><time>2026-04-22T12:11:40.314Z</time></trkpt><trkpt lat="39.2816787" lon="8.5116276"><ele>211.0</ele><time>2026-04-22T12:11:42.315Z</time></trkpt><trkpt lat="39.2815368" lon="8.5114973"><ele>211.0</ele><time>2026-04-22T12:11:44.315Z</time></trkpt><trkpt lat="39.2814507" lon="8.5114375"><ele>211.0</ele><time>2026-04-22T12:11:45.315Z</time></trkpt><trkpt lat="39.2813647" lon="8.511388"><ele>211.0</ele><time>2026-04-22T12:11:46.314Z</time></trkpt><trkpt lat="39.2812721" lon="8.5113485"><ele>211.0</ele><time>2026-04-22T12:11:47.315Z</time></trkpt><trkpt lat="39.2811746" lon="8.5113144"><ele>211.0</ele><time>2026-04-22T12:11:48.314Z</time></trkpt><trkpt lat="39.2810757" lon="8.5112763"><ele>212.0</ele><time>2026-04-22T12:11:49.315Z</time></trkpt><trkpt lat="39.2809832" lon="8.5112339"><ele>213.0</ele><time>2026-04-22T12:11:50.315Z</time></trkpt><trkpt lat="39.2808864" lon="8.5111842"><ele>214.00000000000003</ele><time>2026-04-22T12:11:51.314Z</time></trkpt><trkpt lat="39.2807841" lon="8.5111306"><ele>215.0</ele><time>2026-04-22T12:11:52.315Z</time></trkpt><trkpt lat="39.2806815" lon="8.51107"><ele>216.0</ele><time>2026-04-22T12:11:53.314Z</time></trkpt><trkpt lat="39.280574" lon="8.5110082"><ele>220.0</ele><time>2026-04-22T12:11:54.315Z</time></trkpt><trkpt lat="39.2804718" lon="8.510951"><ele>224.00000000000003</ele><time>2026-04-22T12:11:55.315Z</time></trkpt><trkpt lat="39.2803862" lon="8.5108968"><ele>228.00000000000003</ele><time>2026-04-22T12:11:56.315Z</time></trkpt><trkpt lat="39.2803057" lon="8.5108496"><ele>232.0</ele><time>2026-04-22T12:11:57.315Z</time></trkpt><trkpt lat="39.2802253" lon="8.5108125"><ele>236.0</ele><time>2026-04-22T12:11:58.315Z</time></trkpt><trkpt lat="39.2801415" lon="8.5107903"><ele>236.0</ele><time>2026-04-22T12:11:59.315Z</time></trkpt><trkpt lat="39.2800576" lon="8.5107851"><ele>236.00000000000003</ele><time>2026-04-22T12:12:00.315Z</time></trkpt><trkpt lat="39.2799661" lon="8.5107922"><ele>236.00000000000003</ele><time>2026-04-22T12:12:01.314Z</time></trkpt><trkpt lat="39.2798711" lon="8.5108133"><ele>236.0</ele><time>2026-04-22T12:12:02.315Z</time></trkpt><trkpt lat="39.27977" lon="8.5108458"><ele>236.0</ele><time>2026-04-22T12:12:03.315Z</time></trkpt><trkpt lat="39.2795852" lon="8.5109177"><ele>238.8</ele><time>2026-04-22T12:12:05.314Z</time></trkpt><trkpt lat="39.2795095" lon="8.5109331"><ele>241.60000000000002</ele><time>2026-04-22T12:12:06.314Z</time></trkpt><trkpt lat="39.2794027" lon="8.5108924"><ele>244.4</ele><time>2026-04-22T12:12:08.315Z</time></trkpt><trkpt lat="39.2793921" lon="8.5107567"><ele>247.2</ele><time>2026-04-22T12:12:10.315Z</time></trkpt><trkpt lat="39.2794135" lon="8.5106608"><ele>250.0</ele><time>2026-04-22T12:12:11.314Z</time></trkpt><trkpt lat="39.2794376" lon="8.510558"><ele>249.99999999999997</ele><time>2026-04-22T12:12:12.315Z</time></trkpt><trkpt lat="39.2794615" lon="8.510455"><ele>250.0</ele><time>2026-04-22T12:12:13.314Z</time></trkpt><trkpt lat="39.2794792" lon="8.5103537"><ele>250.0</ele><time>2026-04-22T12:12:14.314Z</time></trkpt><trkpt lat="39.279496" lon="8.510257"><ele>250.0</ele><time>2026-04-22T12:12:15.314Z</time></trkpt><trkpt lat="39.2795003" lon="8.5101606"><ele>249.99999999999997</ele><time>2026-04-22T12:12:16.315Z</time></trkpt><trkpt lat="39.2794939" lon="8.5100744"><ele>250.0</ele><time>2026-04-22T12:12:17.315Z</time></trkpt><trkpt lat="39.2794755" lon="8.5099847"><ele>250.2</ele><time>2026-04-22T12:12:18.315Z</time></trkpt><trkpt lat="39.2794559" lon="8.5098973"><ele>250.4</ele><time>2026-04-22T12:12:19.315Z</time></trkpt><trkpt lat="39.2794469" lon="8.5098158"><ele>250.60000000000002</ele><time>2026-04-22T12:12:20.315Z</time></trkpt><trkpt lat="39.2794477" lon="8.5096588"><ele>250.8</ele><time>2026-04-22T12:12:22.314Z</time></trkpt><trkpt lat="39.2794263" lon="8.5095297"><ele>251.0</ele><time>2026-04-22T12:12:24.315Z</time></trkpt><trkpt lat="39.279298" lon="8.5095544"><ele>251.0</ele><time>2026-04-22T12:12:28.314Z</time></trkpt><trkpt lat="39.2792741" lon="8.5096991"><ele>251.00000000000003</ele><time>2026-04-22T12:12:30.315Z</time></trkpt><trkpt lat="39.2792467" lon="8.5098572"><ele>251.00000000000003</ele><time>2026-04-22T12:12:32.314Z</time></trkpt><trkpt lat="39.2792189" lon="8.5099346"><ele>251.0</ele><time>2026-04-22T12:12:33.315Z</time></trkpt><trkpt lat="39.2791821" lon="8.5100115"><ele>251.0</ele><time>2026-04-22T12:12:34.315Z</time></trkpt><trkpt lat="39.279136" lon="8.5100909"><ele>251.00000000000003</ele><time>2026-04-22T12:12:35.315Z</time></trkpt><trkpt lat="39.2790829" lon="8.5101669"><ele>251.0</ele><time>2026-04-22T12:12:36.314Z</time></trkpt><trkpt lat="39.2790241" lon="8.5102332"><ele>251.0</ele><time>2026-04-22T12:12:37.314Z</time></trkpt><trkpt lat="39.2789605" lon="8.5102886"><ele>251.0</ele><time>2026-04-22T12:12:38.314Z</time></trkpt><trkpt lat="39.2788904" lon="8.5103356"><ele>251.00000000000003</ele><time>2026-04-22T12:12:39.315Z</time></trkpt><trkpt lat="39.2788167" lon="8.5103838"><ele>251.0</ele><time>2026-04-22T12:12:40.314Z</time></trkpt><trkpt lat="39.2787455" lon="8.5104258"><ele>253.20000000000002</ele><time>2026-04-22T12:12:41.315Z</time></trkpt><trkpt lat="39.2786697" lon="8.5104651"><ele>255.40000000000003</ele><time>2026-04-22T12:12:42.314Z</time></trkpt><trkpt lat="39.2785984" lon="8.5104994"><ele>257.6</ele><time>2026-04-22T12:12:43.315Z</time></trkpt><trkpt lat="39.2785369" lon="8.5105293"><ele>259.8</ele><time>2026-04-22T12:12:44.314Z</time></trkpt><trkpt lat="39.2784482" lon="8.5105814"><ele>262.0</ele><time>2026-04-22T12:12:46.315Z</time></trkpt><trkpt lat="39.2782915" lon="8.5107224"><ele>262.0</ele><time>2026-04-22T12:12:49.314Z</time></trkpt><trkpt lat="39.2782243" lon="8.5107841"><ele>262.0</ele><time>2026-04-22T12:12:50.315Z</time></trkpt><trkpt lat="39.278158" lon="8.5108338"><ele>262.0</ele><time>2026-04-22T12:12:51.314Z</time></trkpt><trkpt lat="39.2780897" lon="8.5108681"><ele>262.0</ele><time>2026-04-22T12:12:52.315Z</time></trkpt><trkpt lat="39.278024" lon="8.510877"><ele>262.0</ele><time>2026-04-22T12:12:53.315Z</time></trkpt><trkpt lat="39.2779501" lon="8.5108409"><ele>262.0</ele><time>2026-04-22T12:12:55.314Z</time></trkpt><trkpt lat="39.2779163" lon="8.5107444"><ele>260.0</ele><time>2026-04-22T12:12:58.314Z</time></trkpt></trkseg><trkseg><trkpt lat="39.2778959" lon="8.5106549"><ele>260.0</ele><time>2026-04-22T12:49:10.304Z</time></trkpt><trkpt lat="39.277906" lon="8.5105566"><ele>260.0</ele><time>2026-04-22T12:49:12.304Z</time></trkpt><trkpt lat="39.2779102" lon="8.51047"><ele>260.0</ele><time>2026-04-22T12:49:14.305Z</time></trkpt><trkpt lat="39.2778297" lon="8.5102929"><ele>260.0</ele><time>2026-04-22T12:49:19.305Z</time></trkpt><trkpt lat="39.277752" lon="8.5102326"><ele>260.0</ele><time>2026-04-22T12:49:21.305Z</time></trkpt><trkpt lat="39.2776526" lon="8.5101657"><ele>261.2</ele><time>2026-04-22T12:49:23.305Z</time></trkpt><trkpt lat="39.2775537" lon="8.5100922"><ele>262.4</ele><time>2026-04-22T12:49:25.305Z</time></trkpt><trkpt lat="39.2774684" lon="8.509996"><ele>263.6</ele><time>2026-04-22T12:49:27.304Z</time></trkpt><trkpt lat="39.277393" lon="8.5098568"><ele>264.8</ele><time>2026-04-22T12:49:29.305Z</time></trkpt><trkpt lat="39.2773542" lon="8.5097808"><ele>266.0</ele><time>2026-04-22T12:49:30.305Z</time></trkpt><trkpt lat="39.2773097" lon="8.5096984"><ele>266.40000000000003</ele><time>2026-04-22T12:49:31.305Z</time></trkpt><trkpt lat="39.2772602" lon="8.5096088"><ele>266.8</ele><time>2026-04-22T12:49:32.305Z</time></trkpt><trkpt lat="39.2772097" lon="8.5095179"><ele>267.20000000000005</ele><time>2026-04-22T12:49:33.305Z</time></trkpt><trkpt lat="39.2771597" lon="8.5094285"><ele>267.6</ele><time>2026-04-22T12:49:34.304Z</time></trkpt><trkpt lat="39.2771184" lon="8.5093332"><ele>268.0</ele><time>2026-04-22T12:49:35.304Z</time></trkpt><trkpt lat="39.2770533" lon="8.5091283"><ele>268.0</ele><time>2026-04-22T12:49:37.305Z</time></trkpt><trkpt lat="39.2770233" lon="8.509035"><ele>268.0</ele><time>2026-04-22T12:49:38.304Z</time></trkpt><trkpt lat="39.277005" lon="8.5089483"><ele>268.0</ele><time>2026-04-22T12:49:39.305Z</time></trkpt><trkpt lat="39.2769967" lon="8.5088583"><ele>268.0</ele><time>2026-04-22T12:49:40.305Z</time></trkpt><trkpt lat="39.277" lon="8.5087667"><ele>268.0</ele><time>2026-04-22T12:49:41.305Z</time></trkpt><trkpt lat="39.277005" lon="8.5086683"><ele>268.0</ele><time>2026-04-22T12:49:42.304Z</time></trkpt><trkpt lat="39.2770183" lon="8.5085767"><ele>268.0</ele><time>2026-04-22T12:49:43.305Z</time></trkpt><trkpt lat="39.2770283" lon="8.5084717"><ele>268.6</ele><time>2026-04-22T12:49:44.305Z</time></trkpt><trkpt lat="39.2770333" lon="8.50836"><ele>269.20000000000005</ele><time>2026-04-22T12:49:45.305Z</time></trkpt><trkpt lat="39.27703" lon="8.508235"><ele>269.8</ele><time>2026-04-22T12:49:46.305Z</time></trkpt><trkpt lat="39.2770217" lon="8.5081083"><ele>270.40000000000003</ele><time>2026-04-22T12:49:47.305Z</time></trkpt><trkpt lat="39.2770083" lon="8.5079867"><ele>271.0</ele><time>2026-04-22T12:49:48.305Z</time></trkpt><trkpt lat="39.277" lon="8.50787"><ele>271.0</ele><time>2026-04-22T12:49:49.305Z</time></trkpt><trkpt lat="39.2769883" lon="8.5077583"><ele>271.0</ele><time>2026-04-22T12:49:50.304Z</time></trkpt><trkpt lat="39.2769733" lon="8.507645"><ele>271.0</ele><time>2026-04-22T12:49:51.304Z</time></trkpt><trkpt lat="39.2769533" lon="8.5075333"><ele>271.0</ele><time>2026-04-22T12:49:52.305Z</time></trkpt><trkpt lat="39.2769283" lon="8.5074267"><ele>271.0</ele><time>2026-04-22T12:49:53.304Z</time></trkpt><trkpt lat="39.27689" lon="8.5073183"><ele>271.0</ele><time>2026-04-22T12:49:54.305Z</time></trkpt><trkpt lat="39.2768483" lon="8.50722"><ele>271.0</ele><time>2026-04-22T12:49:55.305Z</time></trkpt><trkpt lat="39.2768067" lon="8.507115"><ele>271.0</ele><time>2026-04-22T12:49:56.304Z</time></trkpt><trkpt lat="39.276715" lon="8.50692"><ele>271.0</ele><time>2026-04-22T12:49:58.305Z</time></trkpt><trkpt lat="39.2766717" lon="8.5068367"><ele>271.0</ele><time>2026-04-22T12:49:59.305Z</time></trkpt><trkpt lat="39.27663" lon="8.5067667"><ele>271.0</ele><time>2026-04-22T12:50:00.305Z</time></trkpt><trkpt lat="39.2765867" lon="8.5066883"><ele>270.40000000000003</ele><time>2026-04-22T12:50:01.304Z</time></trkpt><trkpt lat="39.27654" lon="8.5065917"><ele>269.8</ele><time>2026-04-22T12:50:02.305Z</time></trkpt><trkpt lat="39.27649" lon="8.5064867"><ele>269.20000000000005</ele><time>2026-04-22T12:50:03.305Z</time></trkpt><trkpt lat="39.2764467" lon="8.506375"><ele>268.6</ele><time>2026-04-22T12:50:04.304Z</time></trkpt><trkpt lat="39.2764183" lon="8.5062667"><ele>268.0</ele><time>2026-04-22T12:50:05.305Z</time></trkpt><trkpt lat="39.27641" lon="8.5061517"><ele>267.6</ele><time>2026-04-22T12:50:06.305Z</time></trkpt><trkpt lat="39.276405" lon="8.5060283"><ele>267.20000000000005</ele><time>2026-04-22T12:50:07.305Z</time></trkpt><trkpt lat="39.276395" lon="8.5059"><ele>266.8</ele><time>2026-04-22T12:50:08.304Z</time></trkpt><trkpt lat="39.2763683" lon="8.50578"><ele>266.40000000000003</ele><time>2026-04-22T12:50:09.305Z</time></trkpt><trkpt lat="39.2763333" lon="8.5056617"><ele>266.0</ele><time>2026-04-22T12:50:10.305Z</time></trkpt><trkpt lat="39.2762933" lon="8.505545"><ele>266.0</ele><time>2026-04-22T12:50:11.305Z</time></trkpt><trkpt lat="39.27625" lon="8.50543"><ele>266.0</ele><time>2026-04-22T12:50:12.304Z</time></trkpt><trkpt lat="39.27621" lon="8.505325"><ele>266.0</ele><time>2026-04-22T12:50:13.305Z</time></trkpt><trkpt lat="39.2761717" lon="8.5052217"><ele>266.0</ele><time>2026-04-22T12:50:14.305Z</time></trkpt><trkpt lat="39.276135" lon="8.5051217"><ele>266.0</ele><time>2026-04-22T12:50:15.304Z</time></trkpt><trkpt lat="39.2760967" lon="8.5049983"><ele>264.75</ele><time>2026-04-22T12:50:16.305Z</time></trkpt><trkpt lat="39.2760517" lon="8.5048867"><ele>263.5</ele><time>2026-04-22T12:50:17.305Z</time></trkpt><trkpt lat="39.2759667" lon="8.5046733"><ele>262.25</ele><time>2026-04-22T12:50:19.304Z</time></trkpt><trkpt lat="39.275925" lon="8.504565"><ele>261.0</ele><time>2026-04-22T12:50:20.305Z</time></trkpt><trkpt lat="39.275885" lon="8.50446"><ele>260.3333333333333</ele><time>2026-04-22T12:50:21.304Z</time></trkpt><trkpt lat="39.275845" lon="8.5043583"><ele>259.6666666666667</ele><time>2026-04-22T12:50:22.305Z</time></trkpt><trkpt lat="39.2758083" lon="8.5042717"><ele>259.0</ele><time>2026-04-22T12:50:23.305Z</time></trkpt><trkpt lat="39.275775" lon="8.5041867"><ele>258.33333333333337</ele><time>2026-04-22T12:50:24.304Z</time></trkpt><trkpt lat="39.275745" lon="8.5041017"><ele>257.6666666666667</ele><time>2026-04-22T12:50:25.304Z</time></trkpt><trkpt lat="39.275705" lon="8.5039667"><ele>257.0</ele><time>2026-04-22T12:50:27.305Z</time></trkpt><trkpt lat="39.27569" lon="8.5038683"><ele>257.0</ele><time>2026-04-22T12:50:29.305Z</time></trkpt><trkpt lat="39.2756983" lon="8.5037833"><ele>257.0</ele><time>2026-04-22T12:50:31.305Z</time></trkpt><trkpt lat="39.2757133" lon="8.5036967"><ele>257.0</ele><time>2026-04-22T12:50:34.304Z</time></trkpt><trkpt lat="39.275765" lon="8.50362"><ele>257.0</ele><time>2026-04-22T12:50:37.304Z</time></trkpt><trkpt lat="39.2758267" lon="8.503565"><ele>257.0</ele><time>2026-04-22T12:50:39.304Z</time></trkpt><trkpt lat="39.2759617" lon="8.5034667"><ele>257.0</ele><time>2026-04-22T12:50:43.305Z</time></trkpt><trkpt lat="39.2760133" lon="8.5034083"><ele>257.0</ele><time>2026-04-22T12:50:45.305Z</time></trkpt><trkpt lat="39.2759417" lon="8.5033933"><ele>257.0</ele><time>2026-04-22T12:51:01.304Z</time></trkpt><trkpt lat="39.2758083" lon="8.5035833"><ele>257.0</ele><time>2026-04-22T12:51:05.304Z</time></trkpt><trkpt lat="39.2757483" lon="8.5036383"><ele>257.0</ele><time>2026-04-22T12:51:08.304Z</time></trkpt><trkpt lat="39.2756933" lon="8.5037333"><ele>257.0</ele><time>2026-04-22T12:52:50.303Z</time></trkpt><trkpt lat="39.2756867" lon="8.5039833"><ele>257.0</ele><time>2026-04-22T12:52:54.304Z</time></trkpt><trkpt lat="39.2757233" lon="8.504115"><ele>257.0</ele><time>2026-04-22T12:52:56.304Z</time></trkpt><trkpt lat="39.2757817" lon="8.5042467"><ele>257.0</ele><time>2026-04-22T12:52:58.304Z</time></trkpt><trkpt lat="39.2758783" lon="8.5044967"><ele>257.0</ele><time>2026-04-22T12:53:01.304Z</time></trkpt><trkpt lat="39.275915" lon="8.504595"><ele>257.6666666666667</ele><time>2026-04-22T12:53:02.303Z</time></trkpt><trkpt lat="39.275955" lon="8.5046983"><ele>258.33333333333337</ele><time>2026-04-22T12:53:03.303Z</time></trkpt><trkpt lat="39.2759967" lon="8.5047967"><ele>259.0</ele><time>2026-04-22T12:53:04.303Z</time></trkpt><trkpt lat="39.276035" lon="8.5048883"><ele>259.6666666666667</ele><time>2026-04-22T12:53:05.304Z</time></trkpt><trkpt lat="39.2760683" lon="8.5049683"><ele>260.3333333333333</ele><time>2026-04-22T12:53:06.304Z</time></trkpt><trkpt lat="39.2761133" lon="8.5050867"><ele>261.0</ele><time>2026-04-22T12:53:08.303Z</time></trkpt><trkpt lat="39.2761133" lon="8.5051867"><ele>261.0</ele><time>2026-04-22T12:53:10.304Z</time></trkpt><trkpt lat="39.2760683" lon="8.50528"><ele>261.0</ele><time>2026-04-22T12:53:12.304Z</time></trkpt><trkpt lat="39.2759317" lon="8.5054883"><ele>261.0</ele><time>2026-04-22T12:53:16.304Z</time></trkpt><trkpt lat="39.2758533" lon="8.5055733"><ele>261.0</ele><time>2026-04-22T12:53:18.304Z</time></trkpt><trkpt lat="39.2757917" lon="8.5056483"><ele>260.0</ele><time>2026-04-22T12:53:20.304Z</time></trkpt><trkpt lat="39.2756167" lon="8.5057267"><ele>259.0</ele><time>2026-04-22T12:53:26.304Z</time></trkpt><trkpt lat="39.2755567" lon="8.5057533"><ele>258.0</ele><time>2026-04-22T12:53:44.303Z</time></trkpt><trkpt lat="39.2754133" lon="8.5056817"><ele>257.0</ele><time>2026-04-22T12:53:48.303Z</time></trkpt><trkpt lat="39.2753383" lon="8.5056267"><ele>257.0</ele><time>2026-04-22T12:53:51.304Z</time></trkpt><trkpt lat="39.2753167" lon="8.50552"><ele>257.0</ele><time>2026-04-22T12:53:55.304Z</time></trkpt><trkpt lat="39.2752817" lon="8.505415"><ele>257.0</ele><time>2026-04-22T12:53:58.304Z</time></trkpt><trkpt lat="39.2752583" lon="8.5053"><ele>257.0</ele><time>2026-04-22T12:54:01.304Z</time></trkpt><trkpt lat="39.2752133" lon="8.5052233"><ele>257.0</ele><time>2026-04-22T12:54:04.304Z</time></trkpt><trkpt lat="39.2751583" lon="8.5051767"><ele>257.0</ele><time>2026-04-22T12:54:06.304Z</time></trkpt><trkpt lat="39.2749967" lon="8.5050817"><ele>256.8</ele><time>2026-04-22T12:54:12.304Z</time></trkpt><trkpt lat="39.274915" lon="8.5050467"><ele>256.6</ele><time>2026-04-22T12:54:15.304Z</time></trkpt><trkpt lat="39.2748567" lon="8.5050067"><ele>256.40000000000003</ele><time>2026-04-22T12:54:17.304Z</time></trkpt><trkpt lat="39.27478" lon="8.5049183"><ele>256.2</ele><time>2026-04-22T12:54:20.303Z</time></trkpt><trkpt lat="39.274685" lon="8.50484"><ele>256.0</ele><time>2026-04-22T12:54:24.302Z</time></trkpt><trkpt lat="39.2746033" lon="8.5048067"><ele>254.8</ele><time>2026-04-22T12:54:27.302Z</time></trkpt><trkpt lat="39.2744783" lon="8.5047033"><ele>253.60000000000002</ele><time>2026-04-22T12:54:33.303Z</time></trkpt><trkpt lat="39.2744583" lon="8.50462"><ele>252.4</ele><time>2026-04-22T12:54:35.302Z</time></trkpt><trkpt lat="39.2744483" lon="8.5045183"><ele>251.2</ele><time>2026-04-22T12:54:37.302Z</time></trkpt><trkpt lat="39.2744217" lon="8.5043983"><ele>250.0</ele><time>2026-04-22T12:54:39.303Z</time></trkpt><trkpt lat="39.2743917" lon="8.5042867"><ele>249.0</ele><time>2026-04-22T12:54:41.303Z</time></trkpt><trkpt lat="39.27437" lon="8.5041917"><ele>248.0</ele><time>2026-04-22T12:54:43.303Z</time></trkpt><trkpt lat="39.2743517" lon="8.5040817"><ele>247.0</ele><time>2026-04-22T12:55:01.303Z</time></trkpt><trkpt lat="39.27442" lon="8.5044167"><ele>246.0</ele><time>2026-04-22T12:55:30.302Z</time></trkpt><trkpt lat="39.2744483" lon="8.504565"><ele>246.66666666666666</ele><time>2026-04-22T12:55:32.303Z</time></trkpt><trkpt lat="39.2744667" lon="8.5046867"><ele>247.33333333333331</ele><time>2026-04-22T12:55:34.303Z</time></trkpt><trkpt lat="39.27451" lon="8.5047683"><ele>248.0</ele><time>2026-04-22T12:55:36.302Z</time></trkpt><trkpt lat="39.2745817" lon="8.5048183"><ele>248.66666666666666</ele><time>2026-04-22T12:55:38.303Z</time></trkpt><trkpt lat="39.2746683" lon="8.5048283"><ele>249.33333333333331</ele><time>2026-04-22T12:55:41.302Z</time></trkpt><trkpt lat="39.2747317" lon="8.5048767"><ele>250.0</ele><time>2026-04-22T12:55:43.303Z</time></trkpt><trkpt lat="39.2748833" lon="8.5050367"><ele>251.5</ele><time>2026-04-22T12:55:47.302Z</time></trkpt><trkpt lat="39.2750783" lon="8.5051067"><ele>253.0</ele><time>2026-04-22T12:55:51.303Z</time></trkpt><trkpt lat="39.2751483" lon="8.505175"><ele>254.5</ele><time>2026-04-22T12:55:53.302Z</time></trkpt><trkpt lat="39.27522" lon="8.5052617"><ele>256.0</ele><time>2026-04-22T12:55:55.303Z</time></trkpt><trkpt lat="39.2752517" lon="8.5053467"><ele>256.16666666666663</ele><time>2026-04-22T12:55:57.302Z</time></trkpt><trkpt lat="39.275275" lon="8.5054433"><ele>256.3333333333333</ele><time>2026-04-22T12:55:59.303Z</time></trkpt><trkpt lat="39.2752967" lon="8.5055317"><ele>256.5</ele><time>2026-04-22T12:56:01.302Z</time></trkpt><trkpt lat="39.27533" lon="8.5056167"><ele>256.6666666666667</ele><time>2026-04-22T12:56:03.303Z</time></trkpt><trkpt lat="39.2753817" lon="8.505675"><ele>256.83333333333337</ele><time>2026-04-22T12:56:06.303Z</time></trkpt><trkpt lat="39.275485" lon="8.505705"><ele>257.0</ele><time>2026-04-22T12:56:09.303Z</time></trkpt><trkpt lat="39.2755167" lon="8.50584"><ele>257.0</ele><time>2026-04-22T12:56:27.302Z</time></trkpt><trkpt lat="39.27547" lon="8.5058983"><ele>257.0</ele><time>2026-04-22T12:56:29.303Z</time></trkpt><trkpt lat="39.2753483" lon="8.5060583"><ele>257.0</ele><time>2026-04-22T12:56:34.303Z</time></trkpt><trkpt lat="39.2752867" lon="8.506145"><ele>257.0</ele><time>2026-04-22T12:56:36.303Z</time></trkpt><trkpt lat="39.2752167" lon="8.5062333"><ele>257.0</ele><time>2026-04-22T12:56:38.303Z</time></trkpt><trkpt lat="39.2751317" lon="8.5063217"><ele>255.5</ele><time>2026-04-22T12:56:40.303Z</time></trkpt><trkpt lat="39.2750433" lon="8.506405"><ele>254.0</ele><time>2026-04-22T12:56:42.303Z</time></trkpt><trkpt lat="39.2749467" lon="8.5064483"><ele>252.5</ele><time>2026-04-22T12:56:44.303Z</time></trkpt><trkpt lat="39.2748067" lon="8.5065283"><ele>251.0</ele><time>2026-04-22T12:56:47.302Z</time></trkpt><trkpt lat="39.274725" lon="8.506565"><ele>248.25</ele><time>2026-04-22T12:56:49.303Z</time></trkpt><trkpt lat="39.2746533" lon="8.5066033"><ele>245.5</ele><time>2026-04-22T12:56:51.303Z</time></trkpt><trkpt lat="39.2744883" lon="8.5066383"><ele>242.75</ele><time>2026-04-22T12:56:55.302Z</time></trkpt><trkpt lat="39.274365" lon="8.506705"><ele>240.0</ele><time>2026-04-22T12:56:58.302Z</time></trkpt><trkpt lat="39.27429" lon="8.5067583"><ele>240.0</ele><time>2026-04-22T12:57:00.303Z</time></trkpt><trkpt lat="39.2741867" lon="8.5068367"><ele>240.0</ele><time>2026-04-22T12:57:02.302Z</time></trkpt><trkpt lat="39.274085" lon="8.5069067"><ele>240.0</ele><time>2026-04-22T12:57:04.302Z</time></trkpt><trkpt lat="39.2739467" lon="8.5070017"><ele>240.0</ele><time>2026-04-22T12:57:07.302Z</time></trkpt><trkpt lat="39.2738567" lon="8.5070583"><ele>236.25</ele><time>2026-04-22T12:57:09.302Z</time></trkpt><trkpt lat="39.2737983" lon="8.507095"><ele>232.5</ele><time>2026-04-22T12:57:11.303Z</time></trkpt><trkpt lat="39.273735" lon="8.5071333"><ele>228.75</ele><time>2026-04-22T12:57:30.303Z</time></trkpt><trkpt lat="39.273535" lon="8.50719"><ele>225.0</ele><time>2026-04-22T12:57:35.302Z</time></trkpt><trkpt lat="39.2733383" lon="8.5072433"><ele>225.0</ele><time>2026-04-22T12:57:38.303Z</time></trkpt><trkpt lat="39.27327" lon="8.507275"><ele>225.0</ele><time>2026-04-22T12:57:39.302Z</time></trkpt><trkpt lat="39.2732067" lon="8.5073017"><ele>225.0</ele><time>2026-04-22T12:57:40.303Z</time></trkpt><trkpt lat="39.2731" lon="8.5073183"><ele>225.0</ele><time>2026-04-22T12:57:42.302Z</time></trkpt><trkpt lat="39.2730033" lon="8.5073117"><ele>225.0</ele><time>2026-04-22T12:57:44.303Z</time></trkpt><trkpt lat="39.2728933" lon="8.5072817"><ele>221.66666666666669</ele><time>2026-04-22T12:57:46.303Z</time></trkpt><trkpt lat="39.2726783" lon="8.5073467"><ele>218.33333333333334</ele><time>2026-04-22T12:57:50.303Z</time></trkpt><trkpt lat="39.2725767" lon="8.5073817"><ele>215.0</ele><time>2026-04-22T12:57:52.302Z</time></trkpt><trkpt lat="39.2723767" lon="8.5074017"><ele>215.00000000000003</ele><time>2026-04-22T12:57:56.302Z</time></trkpt><trkpt lat="39.2722983" lon="8.50746"><ele>215.0</ele><time>2026-04-22T12:57:58.301Z</time></trkpt><trkpt lat="39.2722267" lon="8.5074833"><ele>215.0</ele><time>2026-04-22T12:58:01.302Z</time></trkpt><trkpt lat="39.2722" lon="8.507385"><ele>215.0</ele><time>2026-04-22T12:58:05.301Z</time></trkpt><trkpt lat="39.27219" lon="8.5072767"><ele>215.00000000000003</ele><time>2026-04-22T12:58:07.302Z</time></trkpt><trkpt lat="39.2721517" lon="8.50716"><ele>215.0</ele><time>2026-04-22T12:58:09.302Z</time></trkpt><trkpt lat="39.2720933" lon="8.5070317"><ele>214.75</ele><time>2026-04-22T12:58:11.302Z</time></trkpt><trkpt lat="39.2720567" lon="8.5068867"><ele>214.5</ele><time>2026-04-22T12:58:13.301Z</time></trkpt><trkpt lat="39.2719183" lon="8.506655"><ele>214.25</ele><time>2026-04-22T12:58:17.302Z</time></trkpt><trkpt lat="39.2718767" lon="8.5065933"><ele>214.0</ele><time>2026-04-22T12:58:18.302Z</time></trkpt><trkpt lat="39.2718267" lon="8.5065367"><ele>214.0</ele><time>2026-04-22T12:58:19.302Z</time></trkpt><trkpt lat="39.2717383" lon="8.5064067"><ele>213.99999999999997</ele><time>2026-04-22T12:58:21.302Z</time></trkpt><trkpt lat="39.2716967" lon="8.5063267"><ele>213.99999999999997</ele><time>2026-04-22T12:58:22.301Z</time></trkpt><trkpt lat="39.2716067" lon="8.5061717"><ele>214.0</ele><time>2026-04-22T12:58:24.301Z</time></trkpt><trkpt lat="39.2715567" lon="8.5061067"><ele>214.0</ele><time>2026-04-22T12:58:25.301Z</time></trkpt><trkpt lat="39.2714" lon="8.50589"><ele>214.39999999999998</ele><time>2026-04-22T12:58:28.302Z</time></trkpt><trkpt lat="39.2713583" lon="8.505815"><ele>214.79999999999998</ele><time>2026-04-22T12:58:29.302Z</time></trkpt><trkpt lat="39.271325" lon="8.5057417"><ele>215.20000000000002</ele><time>2026-04-22T12:58:30.302Z</time></trkpt><trkpt lat="39.27127" lon="8.505615"><ele>215.60000000000002</ele><time>2026-04-22T12:58:32.302Z</time></trkpt><trkpt lat="39.2712083" lon="8.5055083"><ele>216.0</ele><time>2026-04-22T12:58:34.301Z</time></trkpt><trkpt lat="39.271095" lon="8.5052217"><ele>213.8</ele><time>2026-04-22T12:58:38.302Z</time></trkpt><trkpt lat="39.2710583" lon="8.5051467"><ele>211.60000000000002</ele><time>2026-04-22T12:58:39.302Z</time></trkpt><trkpt lat="39.2710283" lon="8.50507"><ele>209.4</ele><time>2026-04-22T12:58:40.301Z</time></trkpt><trkpt lat="39.270985" lon="8.5049283"><ele>207.2</ele><time>2026-04-22T12:58:42.302Z</time></trkpt><trkpt lat="39.2709633" lon="8.5048517"><ele>205.0</ele><time>2026-04-22T12:58:43.302Z</time></trkpt><trkpt lat="39.27093" lon="8.5046333"><ele>203.8</ele><time>2026-04-22T12:58:46.302Z</time></trkpt><trkpt lat="39.2708717" lon="8.5043833"><ele>202.6</ele><time>2026-04-22T12:58:49.302Z</time></trkpt><trkpt lat="39.2708367" lon="8.5043033"><ele>201.39999999999998</ele><time>2026-04-22T12:58:50.302Z</time></trkpt><trkpt lat="39.2707917" lon="8.5042183"><ele>200.2</ele><time>2026-04-22T12:58:51.302Z</time></trkpt><trkpt lat="39.2707433" lon="8.5041283"><ele>199.0</ele><time>2026-04-22T12:58:52.302Z</time></trkpt><trkpt lat="39.2706983" lon="8.50404"><ele>199.0</ele><time>2026-04-22T12:58:53.301Z</time></trkpt><trkpt lat="39.2706183" lon="8.50387"><ele>199.0</ele><time>2026-04-22T12:58:55.302Z</time></trkpt><trkpt lat="39.2705483" lon="8.503615"><ele>199.0</ele><time>2026-04-22T12:58:58.302Z</time></trkpt><trkpt lat="39.2704867" lon="8.50349"><ele>197.39999999999998</ele><time>2026-04-22T12:59:00.301Z</time></trkpt><trkpt lat="39.2704017" lon="8.5033933"><ele>195.8</ele><time>2026-04-22T12:59:02.302Z</time></trkpt><trkpt lat="39.2703583" lon="8.5033317"><ele>194.2</ele><time>2026-04-22T12:59:03.301Z</time></trkpt><trkpt lat="39.2703083" lon="8.5032067"><ele>192.60000000000002</ele><time>2026-04-22T12:59:05.302Z</time></trkpt><trkpt lat="39.2702483" lon="8.5030967"><ele>191.0</ele><time>2026-04-22T12:59:07.301Z</time></trkpt><trkpt lat="39.270115" lon="8.5029583"><ele>191.0</ele><time>2026-04-22T12:59:10.302Z</time></trkpt><trkpt lat="39.2700567" lon="8.5029183"><ele>191.0</ele><time>2026-04-22T12:59:11.301Z</time></trkpt><trkpt lat="39.27" lon="8.502865"><ele>191.0</ele><time>2026-04-22T12:59:12.302Z</time></trkpt><trkpt lat="39.2699417" lon="8.502825"><ele>191.0</ele><time>2026-04-22T12:59:13.301Z</time></trkpt><trkpt lat="39.26989" lon="8.5027517"><ele>191.0</ele><time>2026-04-22T12:59:14.302Z</time></trkpt><trkpt lat="39.269845" lon="8.5026733"><ele>191.0</ele><time>2026-04-22T12:59:15.302Z</time></trkpt><trkpt lat="39.26981" lon="8.50259"><ele>191.0</ele><time>2026-04-22T12:59:16.302Z</time></trkpt><trkpt lat="39.26974" lon="8.50243"><ele>191.0</ele><time>2026-04-22T12:59:18.301Z</time></trkpt><trkpt lat="39.2696983" lon="8.5023467"><ele>191.0</ele><time>2026-04-22T12:59:19.302Z</time></trkpt><trkpt lat="39.26966" lon="8.5022683"><ele>191.0</ele><time>2026-04-22T12:59:20.301Z</time></trkpt><trkpt lat="39.2696183" lon="8.502195"><ele>191.0</ele><time>2026-04-22T12:59:21.301Z</time></trkpt><trkpt lat="39.2695217" lon="8.5020817"><ele>191.0</ele><time>2026-04-22T12:59:23.302Z</time></trkpt><trkpt lat="39.2694783" lon="8.502005"><ele>191.0</ele><time>2026-04-22T12:59:24.302Z</time></trkpt><trkpt lat="39.2694367" lon="8.5019333"><ele>189.2857142857143</ele><time>2026-04-22T12:59:25.302Z</time></trkpt><trkpt lat="39.269385" lon="8.5018717"><ele>187.57142857142856</ele><time>2026-04-22T12:59:26.302Z</time></trkpt><trkpt lat="39.26933" lon="8.5018017"><ele>185.85714285714286</ele><time>2026-04-22T12:59:27.301Z</time></trkpt><trkpt lat="39.2692783" lon="8.50173"><ele>184.14285714285717</ele><time>2026-04-22T12:59:28.302Z</time></trkpt><trkpt lat="39.2692233" lon="8.50167"><ele>182.42857142857144</ele><time>2026-04-22T12:59:29.302Z</time></trkpt><trkpt lat="39.2691667" lon="8.5016167"><ele>180.71428571428572</ele><time>2026-04-22T12:59:30.302Z</time></trkpt><trkpt lat="39.2691167" lon="8.5015617"><ele>179.0</ele><time>2026-04-22T12:59:31.302Z</time></trkpt><trkpt lat="39.26906" lon="8.5015133"><ele>179.0</ele><time>2026-04-22T12:59:32.302Z</time></trkpt><trkpt lat="39.2689517" lon="8.5013883"><ele>179.0</ele><time>2026-04-22T12:59:34.302Z</time></trkpt><trkpt lat="39.26889" lon="8.5013283"><ele>179.0</ele><time>2026-04-22T12:59:35.301Z</time></trkpt><trkpt lat="39.2687817" lon="8.5012483"><ele>179.0</ele><time>2026-04-22T12:59:37.302Z</time></trkpt><trkpt lat="39.26861" lon="8.5011417"><ele>179.39999999999998</ele><time>2026-04-22T12:59:41.301Z</time></trkpt><trkpt lat="39.2685117" lon="8.5011217"><ele>179.8</ele><time>2026-04-22T12:59:43.302Z</time></trkpt><trkpt lat="39.2684" lon="8.50114"><ele>180.2</ele><time>2026-04-22T12:59:45.302Z</time></trkpt><trkpt lat="39.2683" lon="8.5012117"><ele>180.60000000000002</ele><time>2026-04-22T12:59:47.301Z</time></trkpt><trkpt lat="39.268255" lon="8.5012867"><ele>181.0</ele><time>2026-04-22T12:59:48.301Z</time></trkpt><trkpt lat="39.2682083" lon="8.5013667"><ele>181.0</ele><time>2026-04-22T12:59:49.302Z</time></trkpt><trkpt lat="39.2681717" lon="8.5014517"><ele>181.0</ele><time>2026-04-22T12:59:50.302Z</time></trkpt><trkpt lat="39.2681367" lon="8.5015267"><ele>181.0</ele><time>2026-04-22T12:59:51.302Z</time></trkpt><trkpt lat="39.268065" lon="8.5016483"><ele>181.0</ele><time>2026-04-22T12:59:53.301Z</time></trkpt><trkpt lat="39.2680117" lon="8.5016933"><ele>181.0</ele><time>2026-04-22T12:59:54.302Z</time></trkpt><trkpt lat="39.2679" lon="8.501765"><ele>181.5</ele><time>2026-04-22T12:59:56.302Z</time></trkpt><trkpt lat="39.2678133" lon="8.5018417"><ele>182.0</ele><time>2026-04-22T12:59:58.302Z</time></trkpt><trkpt lat="39.2677367" lon="8.5021067"><ele>182.5</ele><time>2026-04-22T13:00:02.302Z</time></trkpt><trkpt lat="39.26771" lon="8.5021917"><ele>183.0</ele><time>2026-04-22T13:00:03.301Z</time></trkpt><trkpt lat="39.2676583" lon="8.502275"><ele>183.60000000000002</ele><time>2026-04-22T13:00:04.301Z</time></trkpt><trkpt lat="39.2675983" lon="8.5023567"><ele>184.20000000000002</ele><time>2026-04-22T13:00:05.302Z</time></trkpt><trkpt lat="39.2675483" lon="8.5024317"><ele>184.8</ele><time>2026-04-22T13:00:06.301Z</time></trkpt><trkpt lat="39.26748" lon="8.50255"><ele>185.4</ele><time>2026-04-22T13:00:08.301Z</time></trkpt><trkpt lat="39.26742" lon="8.5027"><ele>186.0</ele><time>2026-04-22T13:00:10.301Z</time></trkpt><trkpt lat="39.2673883" lon="8.5027933"><ele>187.20000000000002</ele><time>2026-04-22T13:00:11.302Z</time></trkpt><trkpt lat="39.2673433" lon="8.5029267"><ele>188.4</ele><time>2026-04-22T13:00:13.302Z</time></trkpt><trkpt lat="39.2673217" lon="8.50309"><ele>189.6</ele><time>2026-04-22T13:00:15.302Z</time></trkpt><trkpt lat="39.2673267" lon="8.5031967"><ele>190.8</ele><time>2026-04-22T13:00:16.302Z</time></trkpt><trkpt lat="39.2673283" lon="8.5033133"><ele>192.0</ele><time>2026-04-22T13:00:17.302Z</time></trkpt><trkpt lat="39.2673183" lon="8.50342"><ele>192.0</ele><time>2026-04-22T13:00:18.301Z</time></trkpt><trkpt lat="39.2673" lon="8.503515"><ele>192.0</ele><time>2026-04-22T13:00:19.301Z</time></trkpt><trkpt lat="39.26728" lon="8.503705"><ele>192.0</ele><time>2026-04-22T13:00:21.301Z</time></trkpt><trkpt lat="39.2672817" lon="8.5037933"><ele>192.0</ele><time>2026-04-22T13:00:22.301Z</time></trkpt><trkpt lat="39.2672883" lon="8.503875"><ele>192.0</ele><time>2026-04-22T13:00:23.301Z</time></trkpt><trkpt lat="39.2672917" lon="8.50402"><ele>192.16666666666666</ele><time>2026-04-22T13:00:25.302Z</time></trkpt><trkpt lat="39.2672817" lon="8.5041083"><ele>192.33333333333331</ele><time>2026-04-22T13:00:26.302Z</time></trkpt><trkpt lat="39.267275" lon="8.5042067"><ele>192.5</ele><time>2026-04-22T13:00:27.301Z</time></trkpt><trkpt lat="39.267265" lon="8.5043033"><ele>192.66666666666666</ele><time>2026-04-22T13:00:28.302Z</time></trkpt><trkpt lat="39.267245" lon="8.5044383"><ele>192.83333333333331</ele><time>2026-04-22T13:00:30.302Z</time></trkpt><trkpt lat="39.2672433" lon="8.5045767"><ele>193.0</ele><time>2026-04-22T13:00:32.301Z</time></trkpt><trkpt lat="39.2672467" lon="8.50467"><ele>195.33333333333331</ele><time>2026-04-22T13:00:33.302Z</time></trkpt><trkpt lat="39.2672483" lon="8.5047767"><ele>197.66666666666666</ele><time>2026-04-22T13:00:34.301Z</time></trkpt><trkpt lat="39.26725" lon="8.5048917"><ele>200.0</ele><time>2026-04-22T13:00:35.302Z</time></trkpt><trkpt lat="39.2672483" lon="8.5050067"><ele>202.33333333333331</ele><time>2026-04-22T13:00:36.302Z</time></trkpt><trkpt lat="39.267235" lon="8.50512"><ele>204.66666666666666</ele><time>2026-04-22T13:00:37.301Z</time></trkpt><trkpt lat="39.267215" lon="8.5052333"><ele>207.0</ele><time>2026-04-22T13:00:38.302Z</time></trkpt><trkpt lat="39.267185" lon="8.5053433"><ele>206.0</ele><time>2026-04-22T13:00:39.302Z</time></trkpt><trkpt lat="39.2671583" lon="8.5054583"><ele>205.0</ele><time>2026-04-22T13:00:40.302Z</time></trkpt><trkpt lat="39.2671317" lon="8.5056967"><ele>204.0</ele><time>2026-04-22T13:00:42.302Z</time></trkpt><trkpt lat="39.2671183" lon="8.5058133"><ele>203.0</ele><time>2026-04-22T13:00:43.302Z</time></trkpt><trkpt lat="39.26711" lon="8.5059267"><ele>203.00000000000003</ele><time>2026-04-22T13:00:44.302Z</time></trkpt><trkpt lat="39.2671017" lon="8.50604"><ele>203.0</ele><time>2026-04-22T13:00:45.302Z</time></trkpt><trkpt lat="39.2670917" lon="8.5061467"><ele>203.0</ele><time>2026-04-22T13:00:46.302Z</time></trkpt><trkpt lat="39.2670767" lon="8.50625"><ele>203.0</ele><time>2026-04-22T13:00:47.302Z</time></trkpt><trkpt lat="39.2670533" lon="8.5063383"><ele>203.00000000000003</ele><time>2026-04-22T13:00:48.302Z</time></trkpt><trkpt lat="39.2670067" lon="8.5064617"><ele>203.0</ele><time>2026-04-22T13:00:50.302Z</time></trkpt><trkpt lat="39.2669767" lon="8.5065517"><ele>203.0</ele><time>2026-04-22T13:00:53.302Z</time></trkpt><trkpt lat="39.267015" lon="8.50646"><ele>203.0</ele><time>2026-04-22T13:01:57.301Z</time></trkpt><trkpt lat="39.2670683" lon="8.5062567"><ele>203.0</ele><time>2026-04-22T13:02:00.301Z</time></trkpt><trkpt lat="39.267095" lon="8.5061817"><ele>203.0</ele><time>2026-04-22T13:02:01.301Z</time></trkpt><trkpt lat="39.2671267" lon="8.5059317"><ele>203.0</ele><time>2026-04-22T13:02:04.3Z</time></trkpt><trkpt lat="39.26713" lon="8.5058417"><ele>203.0</ele><time>2026-04-22T13:02:05.301Z</time></trkpt><trkpt lat="39.2671367" lon="8.5057517"><ele>203.0</ele><time>2026-04-22T13:02:06.301Z</time></trkpt><trkpt lat="39.267145" lon="8.5056567"><ele>203.0</ele><time>2026-04-22T13:02:07.301Z</time></trkpt><trkpt lat="39.2671567" lon="8.5055583"><ele>203.0</ele><time>2026-04-22T13:02:08.301Z</time></trkpt><trkpt lat="39.2671933" lon="8.505285"><ele>203.57142857142858</ele><time>2026-04-22T13:02:11.301Z</time></trkpt><trkpt lat="39.2672083" lon="8.5051917"><ele>204.14285714285714</ele><time>2026-04-22T13:02:12.301Z</time></trkpt><trkpt lat="39.26722" lon="8.5050967"><ele>204.71428571428572</ele><time>2026-04-22T13:02:13.3Z</time></trkpt><trkpt lat="39.26723" lon="8.50501"><ele>205.28571428571428</ele><time>2026-04-22T13:02:14.301Z</time></trkpt><trkpt lat="39.267235" lon="8.5049267"><ele>205.85714285714286</ele><time>2026-04-22T13:02:15.3Z</time></trkpt><trkpt lat="39.2672383" lon="8.504835"><ele>206.42857142857144</ele><time>2026-04-22T13:02:16.301Z</time></trkpt><trkpt lat="39.2672383" lon="8.50474"><ele>207.0</ele><time>2026-04-22T13:02:17.301Z</time></trkpt><trkpt lat="39.2672367" lon="8.5046567"><ele>207.0</ele><time>2026-04-22T13:02:18.301Z</time></trkpt><trkpt lat="39.2671717" lon="8.504605"><ele>207.0</ele><time>2026-04-22T13:02:28.301Z</time></trkpt><trkpt lat="39.2671333" lon="8.5047117"><ele>207.0</ele><time>2026-04-22T13:02:30.301Z</time></trkpt><trkpt lat="39.2670917" lon="8.50484"><ele>207.0</ele><time>2026-04-22T13:02:32.301Z</time></trkpt><trkpt lat="39.2670517" lon="8.5049817"><ele>207.0</ele><time>2026-04-22T13:02:34.301Z</time></trkpt><trkpt lat="39.2670133" lon="8.505125"><ele>207.0</ele><time>2026-04-22T13:02:36.3Z</time></trkpt><trkpt lat="39.266985" lon="8.5052567"><ele>207.0</ele><time>2026-04-22T13:02:38.301Z</time></trkpt><trkpt lat="39.2669533" lon="8.50539"><ele>207.0</ele><time>2026-04-22T13:02:40.301Z</time></trkpt><trkpt lat="39.2668767" lon="8.50563"><ele>207.0</ele><time>2026-04-22T13:02:44.3Z</time></trkpt><trkpt lat="39.2668567" lon="8.5057383"><ele>206.2</ele><time>2026-04-22T13:02:46.3Z</time></trkpt><trkpt lat="39.2668117" lon="8.5058267"><ele>205.39999999999998</ele><time>2026-04-22T13:02:48.301Z</time></trkpt><trkpt lat="39.266725" lon="8.5058733"><ele>204.60000000000002</ele><time>2026-04-22T13:02:50.301Z</time></trkpt><trkpt lat="39.2666367" lon="8.505975"><ele>203.8</ele><time>2026-04-22T13:02:53.301Z</time></trkpt><trkpt lat="39.26665" lon="8.5060867"><ele>203.0</ele><time>2026-04-22T13:02:55.301Z</time></trkpt><trkpt lat="39.2666633" lon="8.5061883"><ele>203.2</ele><time>2026-04-22T13:02:57.301Z</time></trkpt><trkpt lat="39.266645" lon="8.5062667"><ele>203.4</ele><time>2026-04-22T13:02:59.301Z</time></trkpt><trkpt lat="39.2666217" lon="8.506345"><ele>203.6</ele><time>2026-04-22T13:03:01.301Z</time></trkpt><trkpt lat="39.26655" lon="8.5065967"><ele>203.79999999999998</ele><time>2026-04-22T13:03:05.301Z</time></trkpt><trkpt lat="39.2665167" lon="8.50672"><ele>204.0</ele><time>2026-04-22T13:03:07.301Z</time></trkpt><trkpt lat="39.26649" lon="8.5068333"><ele>204.0</ele><time>2026-04-22T13:03:09.3Z</time></trkpt><trkpt lat="39.266445" lon="8.5069567"><ele>204.0</ele><time>2026-04-22T13:03:11.3Z</time></trkpt><trkpt lat="39.2663933" lon="8.507095"><ele>204.0</ele><time>2026-04-22T13:03:13.301Z</time></trkpt><trkpt lat="39.2663483" lon="8.5072183"><ele>204.0</ele><time>2026-04-22T13:03:15.301Z</time></trkpt><trkpt lat="39.2663317" lon="8.507345"><ele>204.0</ele><time>2026-04-22T13:03:17.301Z</time></trkpt><trkpt lat="39.26632" lon="8.50748"><ele>211.75</ele><time>2026-04-22T13:03:19.301Z</time></trkpt><trkpt lat="39.2662933" lon="8.5076217"><ele>219.5</ele><time>2026-04-22T13:03:21.301Z</time></trkpt><trkpt lat="39.2662633" lon="8.5077733"><ele>227.25</ele><time>2026-04-22T13:03:23.301Z</time></trkpt><trkpt lat="39.2662267" lon="8.5079917"><ele>235.0</ele><time>2026-04-22T13:03:26.301Z</time></trkpt><trkpt lat="39.2662467" lon="8.5081083"><ele>235.0</ele><time>2026-04-22T13:03:28.301Z</time></trkpt><trkpt lat="39.2662717" lon="8.5082183"><ele>235.0</ele><time>2026-04-22T13:03:30.301Z</time></trkpt><trkpt lat="39.2662983" lon="8.50833"><ele>235.0</ele><time>2026-04-22T13:03:32.3Z</time></trkpt><trkpt lat="39.2663083" lon="8.5084517"><ele>235.0</ele><time>2026-04-22T13:03:42.3Z</time></trkpt><trkpt lat="39.2662667" lon="8.5085583"><ele>235.0</ele><time>2026-04-22T13:03:44.3Z</time></trkpt><trkpt lat="39.266105" lon="8.508745"><ele>235.16666666666666</ele><time>2026-04-22T13:03:47.301Z</time></trkpt><trkpt lat="39.2660367" lon="8.5088167"><ele>235.33333333333331</ele><time>2026-04-22T13:03:48.301Z</time></trkpt><trkpt lat="39.2659667" lon="8.50889"><ele>235.5</ele><time>2026-04-22T13:03:49.3Z</time></trkpt><trkpt lat="39.2659017" lon="8.5089533"><ele>235.66666666666669</ele><time>2026-04-22T13:03:50.301Z</time></trkpt><trkpt lat="39.2658483" lon="8.5090083"><ele>235.83333333333334</ele><time>2026-04-22T13:03:51.301Z</time></trkpt><trkpt lat="39.26577" lon="8.509065"><ele>236.0</ele><time>2026-04-22T13:03:53.301Z</time></trkpt><trkpt lat="39.2657033" lon="8.50908"><ele>236.00000000000003</ele><time>2026-04-22T13:03:55.301Z</time></trkpt><trkpt lat="39.2656317" lon="8.509055"><ele>236.0</ele><time>2026-04-22T13:03:57.301Z</time></trkpt><trkpt lat="39.265525" lon="8.5090433"><ele>236.0</ele><time>2026-04-22T13:03:59.301Z</time></trkpt><trkpt lat="39.26546" lon="8.5090383"><ele>236.0</ele><time>2026-04-22T13:04:00.301Z</time></trkpt><trkpt lat="39.2653933" lon="8.5090417"><ele>236.00000000000003</ele><time>2026-04-22T13:04:01.3Z</time></trkpt><trkpt lat="39.2653167" lon="8.5090383"><ele>236.0</ele><time>2026-04-22T13:04:02.301Z</time></trkpt><trkpt lat="39.26524" lon="8.509035"><ele>239.75</ele><time>2026-04-22T13:04:03.3Z</time></trkpt><trkpt lat="39.2651683" lon="8.5090333"><ele>243.5</ele><time>2026-04-22T13:04:04.301Z</time></trkpt><trkpt lat="39.2651017" lon="8.5090317"><ele>247.25</ele><time>2026-04-22T13:04:05.301Z</time></trkpt><trkpt lat="39.264865" lon="8.509"><ele>251.0</ele><time>2026-04-22T13:04:09.3Z</time></trkpt><trkpt lat="39.26478" lon="8.5089883"><ele>254.8</ele><time>2026-04-22T13:04:11.301Z</time></trkpt><trkpt lat="39.26468" lon="8.5089933"><ele>258.6</ele><time>2026-04-22T13:04:20.3Z</time></trkpt><trkpt lat="39.2645617" lon="8.5089817"><ele>262.4</ele><time>2026-04-22T13:04:22.301Z</time></trkpt><trkpt lat="39.2644433" lon="8.5089767"><ele>266.2</ele><time>2026-04-22T13:04:24.3Z</time></trkpt><trkpt lat="39.2643417" lon="8.508975"><ele>270.0</ele><time>2026-04-22T13:04:26.301Z</time></trkpt><trkpt lat="39.2641167" lon="8.509015"><ele>270.0</ele><time>2026-04-22T13:04:30.3Z</time></trkpt><trkpt lat="39.2640183" lon="8.5090483"><ele>270.0</ele><time>2026-04-22T13:04:32.3Z</time></trkpt><trkpt lat="39.2639683" lon="8.50912"><ele>270.0</ele><time>2026-04-22T13:04:34.3Z</time></trkpt><trkpt lat="39.26395" lon="8.5092183"><ele>270.0</ele><time>2026-04-22T13:04:36.301Z</time></trkpt><trkpt lat="39.2639767" lon="8.5093033"><ele>270.0</ele><time>2026-04-22T13:04:39.301Z</time></trkpt><trkpt lat="39.26405" lon="8.5093633"><ele>270.0</ele><time>2026-04-22T13:04:42.3Z</time></trkpt><trkpt lat="39.2640983" lon="8.5094317"><ele>270.0</ele><time>2026-04-22T13:04:45.301Z</time></trkpt><trkpt lat="39.2641583" lon="8.5095117"><ele>270.0</ele><time>2026-04-22T13:04:48.301Z</time></trkpt><trkpt lat="39.2642533" lon="8.5096667"><ele>270.0</ele><time>2026-04-22T13:04:53.3Z</time></trkpt><trkpt lat="39.26432" lon="8.5097867"><ele>270.0</ele><time>2026-04-22T13:04:55.301Z</time></trkpt><trkpt lat="39.264385" lon="8.5099167"><ele>269.6666666666667</ele><time>2026-04-22T13:04:57.301Z</time></trkpt><trkpt lat="39.26445" lon="8.5100383"><ele>269.3333333333333</ele><time>2026-04-22T13:04:59.301Z</time></trkpt><trkpt lat="39.26449" lon="8.5101083"><ele>269.0</ele><time>2026-04-22T13:05:00.301Z</time></trkpt><trkpt lat="39.2645267" lon="8.5101917"><ele>268.66666666666663</ele><time>2026-04-22T13:05:01.301Z</time></trkpt><trkpt lat="39.2645667" lon="8.51027"><ele>268.3333333333333</ele><time>2026-04-22T13:05:02.301Z</time></trkpt><trkpt lat="39.26461" lon="8.51034"><ele>268.0</ele><time>2026-04-22T13:05:03.3Z</time></trkpt><trkpt lat="39.264695" lon="8.5104467"><ele>270.0</ele><time>2026-04-22T13:05:05.3Z</time></trkpt><trkpt lat="39.2648133" lon="8.5104967"><ele>272.0</ele><time>2026-04-22T13:05:07.301Z</time></trkpt><trkpt lat="39.2648967" lon="8.510515"><ele>274.0</ele><time>2026-04-22T13:05:08.301Z</time></trkpt><trkpt lat="39.2649917" lon="8.5105433"><ele>276.0</ele><time>2026-04-22T13:05:09.3Z</time></trkpt><trkpt lat="39.2651567" lon="8.5106033"><ele>276.0</ele><time>2026-04-22T13:05:11.301Z</time></trkpt><trkpt lat="39.265215" lon="8.5106367"><ele>276.0</ele><time>2026-04-22T13:05:12.3Z</time></trkpt><trkpt lat="39.2653217" lon="8.510735"><ele>276.0</ele><time>2026-04-22T13:05:14.301Z</time></trkpt><trkpt lat="39.2653767" lon="8.5108067"><ele>276.0</ele><time>2026-04-22T13:05:15.3Z</time></trkpt><trkpt lat="39.26543" lon="8.51088"><ele>276.0</ele><time>2026-04-22T13:05:16.301Z</time></trkpt><trkpt lat="39.2654767" lon="8.5109567"><ele>276.0</ele><time>2026-04-22T13:05:17.3Z</time></trkpt><trkpt lat="39.2655133" lon="8.5110417"><ele>276.0</ele><time>2026-04-22T13:05:18.3Z</time></trkpt><trkpt lat="39.26554" lon="8.5111333"><ele>276.0</ele><time>2026-04-22T13:05:19.3Z</time></trkpt><trkpt lat="39.2655517" lon="8.511225"><ele>276.0</ele><time>2026-04-22T13:05:20.3Z</time></trkpt><trkpt lat="39.2655533" lon="8.5113067"><ele>276.0</ele><time>2026-04-22T13:05:21.3Z</time></trkpt><trkpt lat="39.26555" lon="8.5114033"><ele>276.0</ele><time>2026-04-22T13:05:22.301Z</time></trkpt><trkpt lat="39.26554" lon="8.5115017"><ele>276.0</ele><time>2026-04-22T13:05:23.3Z</time></trkpt><trkpt lat="39.2655317" lon="8.5115983"><ele>276.0</ele><time>2026-04-22T13:05:24.301Z</time></trkpt><trkpt lat="39.2655267" lon="8.5116967"><ele>276.5</ele><time>2026-04-22T13:05:25.301Z</time></trkpt><trkpt lat="39.2655283" lon="8.5117967"><ele>277.0</ele><time>2026-04-22T13:05:26.301Z</time></trkpt><trkpt lat="39.26553" lon="8.5118933"><ele>277.5</ele><time>2026-04-22T13:05:27.301Z</time></trkpt><trkpt lat="39.26553" lon="8.512"><ele>278.0</ele><time>2026-04-22T13:05:28.301Z</time></trkpt><trkpt lat="39.26553" lon="8.5121017"><ele>278.5</ele><time>2026-04-22T13:05:29.301Z</time></trkpt><trkpt lat="39.2655217" lon="8.5122033"><ele>279.0</ele><time>2026-04-22T13:05:30.3Z</time></trkpt><trkpt lat="39.2654983" lon="8.512405"><ele>279.0</ele><time>2026-04-22T13:05:32.301Z</time></trkpt><trkpt lat="39.2654933" lon="8.5125067"><ele>279.0</ele><time>2026-04-22T13:05:33.301Z</time></trkpt><trkpt lat="39.2654867" lon="8.512605"><ele>279.0</ele><time>2026-04-22T13:05:34.301Z</time></trkpt><trkpt lat="39.26549" lon="8.5127083"><ele>279.0</ele><time>2026-04-22T13:05:35.301Z</time></trkpt><trkpt lat="39.2654933" lon="8.5128267"><ele>279.0</ele><time>2026-04-22T13:05:36.301Z</time></trkpt><trkpt lat="39.2654917" lon="8.512935"><ele>279.0</ele><time>2026-04-22T13:05:37.3Z</time></trkpt><trkpt lat="39.2654883" lon="8.513035"><ele>278.2</ele><time>2026-04-22T13:05:38.3Z</time></trkpt><trkpt lat="39.2654817" lon="8.513125"><ele>277.4</ele><time>2026-04-22T13:05:39.301Z</time></trkpt><trkpt lat="39.2655017" lon="8.51327"><ele>276.6</ele><time>2026-04-22T13:05:41.3Z</time></trkpt><trkpt lat="39.2655683" lon="8.513395"><ele>275.8</ele><time>2026-04-22T13:05:43.3Z</time></trkpt><trkpt lat="39.2656283" lon="8.5135117"><ele>275.0</ele><time>2026-04-22T13:05:45.3Z</time></trkpt><trkpt lat="39.265685" lon="8.5136417"><ele>277.0</ele><time>2026-04-22T13:05:47.301Z</time></trkpt><trkpt lat="39.2657533" lon="8.5137533"><ele>279.0</ele><time>2026-04-22T13:05:49.301Z</time></trkpt><trkpt lat="39.2658083" lon="8.5138483"><ele>281.0</ele><time>2026-04-22T13:05:51.3Z</time></trkpt><trkpt lat="39.265855" lon="8.5140667"><ele>283.0</ele><time>2026-04-22T13:05:55.301Z</time></trkpt><trkpt lat="39.2658783" lon="8.51421"><ele>283.0</ele><time>2026-04-22T13:05:57.3Z</time></trkpt><trkpt lat="39.2659283" lon="8.5143067"><ele>283.0</ele><time>2026-04-22T13:05:59.301Z</time></trkpt><trkpt lat="39.2660167" lon="8.5144117"><ele>283.0</ele><time>2026-04-22T13:06:01.3Z</time></trkpt><trkpt lat="39.2660733" lon="8.5144767"><ele>283.0</ele><time>2026-04-22T13:06:02.301Z</time></trkpt><trkpt lat="39.2661317" lon="8.514545"><ele>283.0</ele><time>2026-04-22T13:06:03.3Z</time></trkpt><trkpt lat="39.2661883" lon="8.5146217"><ele>283.0</ele><time>2026-04-22T13:06:04.301Z</time></trkpt><trkpt lat="39.26624" lon="8.5147083"><ele>281.8333333333333</ele><time>2026-04-22T13:06:05.301Z</time></trkpt><trkpt lat="39.2662867" lon="8.5147917"><ele>280.66666666666663</ele><time>2026-04-22T13:06:06.3Z</time></trkpt><trkpt lat="39.2663283" lon="8.5148717"><ele>279.5</ele><time>2026-04-22T13:06:07.301Z</time></trkpt><trkpt lat="39.2663767" lon="8.5149567"><ele>278.3333333333333</ele><time>2026-04-22T13:06:08.301Z</time></trkpt><trkpt lat="39.2664217" lon="8.5150433"><ele>277.1666666666667</ele><time>2026-04-22T13:06:09.301Z</time></trkpt><trkpt lat="39.2664633" lon="8.5151283"><ele>276.0</ele><time>2026-04-22T13:06:10.301Z</time></trkpt><trkpt lat="39.2665167" lon="8.5152117"><ele>277.40000000000003</ele><time>2026-04-22T13:06:11.301Z</time></trkpt><trkpt lat="39.2665717" lon="8.5152917"><ele>278.8</ele><time>2026-04-22T13:06:12.3Z</time></trkpt><trkpt lat="39.2666833" lon="8.5154617"><ele>280.20000000000005</ele><time>2026-04-22T13:06:14.301Z</time></trkpt><trkpt lat="39.266725" lon="8.515545"><ele>281.6</ele><time>2026-04-22T13:06:15.301Z</time></trkpt><trkpt lat="39.2667733" lon="8.5156183"><ele>283.0</ele><time>2026-04-22T13:06:16.3Z</time></trkpt><trkpt lat="39.2668267" lon="8.5156833"><ele>283.0</ele><time>2026-04-22T13:06:17.301Z</time></trkpt><trkpt lat="39.266885" lon="8.5157417"><ele>283.0</ele><time>2026-04-22T13:06:18.301Z</time></trkpt><trkpt lat="39.2669517" lon="8.5157883"><ele>283.0</ele><time>2026-04-22T13:06:19.301Z</time></trkpt><trkpt lat="39.267025" lon="8.51583"><ele>283.0</ele><time>2026-04-22T13:06:20.3Z</time></trkpt><trkpt lat="39.2670933" lon="8.5158683"><ele>283.0</ele><time>2026-04-22T13:06:21.301Z</time></trkpt><trkpt lat="39.267155" lon="8.5159"><ele>283.0</ele><time>2026-04-22T13:06:22.301Z</time></trkpt><trkpt lat="39.2672433" lon="8.5159267"><ele>284.0</ele><time>2026-04-22T13:06:24.3Z</time></trkpt><trkpt lat="39.267335" lon="8.5159267"><ele>285.0</ele><time>2026-04-22T13:06:26.301Z</time></trkpt><trkpt lat="39.2674483" lon="8.5159183"><ele>286.0</ele><time>2026-04-22T13:06:28.301Z</time></trkpt><trkpt lat="39.267515" lon="8.515905"><ele>287.0</ele><time>2026-04-22T13:06:29.301Z</time></trkpt><trkpt lat="39.2675767" lon="8.5158833"><ele>288.0</ele><time>2026-04-22T13:06:30.301Z</time></trkpt><trkpt lat="39.26765" lon="8.5158467"><ele>289.0</ele><time>2026-04-22T13:06:31.301Z</time></trkpt><trkpt lat="39.26772" lon="8.5158083"><ele>289.0</ele><time>2026-04-22T13:06:32.301Z</time></trkpt><trkpt lat="39.2678033" lon="8.5157817"><ele>289.0</ele><time>2026-04-22T13:06:33.301Z</time></trkpt><trkpt lat="39.267985" lon="8.51572"><ele>289.0</ele><time>2026-04-22T13:06:35.3Z</time></trkpt><trkpt lat="39.268075" lon="8.5156817"><ele>289.0</ele><time>2026-04-22T13:06:36.299Z</time></trkpt><trkpt lat="39.268165" lon="8.5156283"><ele>287.8</ele><time>2026-04-22T13:06:37.3Z</time></trkpt><trkpt lat="39.268255" lon="8.51557"><ele>286.59999999999997</ele><time>2026-04-22T13:06:38.3Z</time></trkpt><trkpt lat="39.2683467" lon="8.5155183"><ele>285.4</ele><time>2026-04-22T13:06:39.299Z</time></trkpt><trkpt lat="39.26844" lon="8.5154617"><ele>284.2</ele><time>2026-04-22T13:06:40.299Z</time></trkpt><trkpt lat="39.268525" lon="8.5154117"><ele>283.0</ele><time>2026-04-22T13:06:41.299Z</time></trkpt><trkpt lat="39.26861" lon="8.51537"><ele>283.0</ele><time>2026-04-22T13:06:42.3Z</time></trkpt><trkpt lat="39.2686867" lon="8.5153367"><ele>283.0</ele><time>2026-04-22T13:06:43.3Z</time></trkpt><trkpt lat="39.26875" lon="8.5152983"><ele>283.0</ele><time>2026-04-22T13:06:44.3Z</time></trkpt><trkpt lat="39.2688167" lon="8.5152683"><ele>283.0</ele><time>2026-04-22T13:06:45.299Z</time></trkpt><trkpt lat="39.2688883" lon="8.5152467"><ele>283.0</ele><time>2026-04-22T13:06:46.3Z</time></trkpt><trkpt lat="39.2689617" lon="8.5152367"><ele>283.0</ele><time>2026-04-22T13:06:47.299Z</time></trkpt><trkpt lat="39.2690283" lon="8.515235"><ele>283.0</ele><time>2026-04-22T13:06:48.3Z</time></trkpt><trkpt lat="39.26915" lon="8.5152567"><ele>284.0</ele><time>2026-04-22T13:06:50.299Z</time></trkpt><trkpt lat="39.2692233" lon="8.515275"><ele>285.0</ele><time>2026-04-22T13:06:51.299Z</time></trkpt><trkpt lat="39.26929" lon="8.5152983"><ele>286.0</ele><time>2026-04-22T13:06:52.299Z</time></trkpt><trkpt lat="39.2693617" lon="8.51533"><ele>287.0</ele><time>2026-04-22T13:06:53.3Z</time></trkpt><trkpt lat="39.2694367" lon="8.515365"><ele>288.0</ele><time>2026-04-22T13:06:54.3Z</time></trkpt><trkpt lat="39.2695867" lon="8.5154417"><ele>288.1666666666667</ele><time>2026-04-22T13:06:56.299Z</time></trkpt><trkpt lat="39.2696633" lon="8.5154783"><ele>288.3333333333333</ele><time>2026-04-22T13:06:57.3Z</time></trkpt><trkpt lat="39.2697317" lon="8.5155283"><ele>288.5</ele><time>2026-04-22T13:06:58.3Z</time></trkpt><trkpt lat="39.2698033" lon="8.5155833"><ele>288.66666666666663</ele><time>2026-04-22T13:06:59.3Z</time></trkpt><trkpt lat="39.2698767" lon="8.5156483"><ele>288.8333333333333</ele><time>2026-04-22T13:07:00.3Z</time></trkpt><trkpt lat="39.26995" lon="8.51572"><ele>289.0</ele><time>2026-04-22T13:07:01.3Z</time></trkpt><trkpt lat="39.2700183" lon="8.5157933"><ele>289.0</ele><time>2026-04-22T13:07:02.3Z</time></trkpt><trkpt lat="39.2700917" lon="8.5158683"><ele>289.0</ele><time>2026-04-22T13:07:03.299Z</time></trkpt><trkpt lat="39.2701667" lon="8.5159383"><ele>289.0</ele><time>2026-04-22T13:07:04.3Z</time></trkpt><trkpt lat="39.2702333" lon="8.5160033"><ele>289.0</ele><time>2026-04-22T13:07:05.3Z</time></trkpt><trkpt lat="39.2702933" lon="8.5160517"><ele>289.0</ele><time>2026-04-22T13:07:06.3Z</time></trkpt><trkpt lat="39.2703467" lon="8.5160983"><ele>289.0</ele><time>2026-04-22T13:07:07.3Z</time></trkpt><trkpt lat="39.270435" lon="8.516185"><ele>287.66666666666663</ele><time>2026-04-22T13:07:09.299Z</time></trkpt><trkpt lat="39.270535" lon="8.516285"><ele>286.3333333333333</ele><time>2026-04-22T13:07:11.299Z</time></trkpt><trkpt lat="39.2705867" lon="8.5163367"><ele>285.0</ele><time>2026-04-22T13:07:12.3Z</time></trkpt><trkpt lat="39.270645" lon="8.5163867"><ele>283.6666666666667</ele><time>2026-04-22T13:07:13.3Z</time></trkpt><trkpt lat="39.2707017" lon="8.51644"><ele>282.33333333333337</ele><time>2026-04-22T13:07:14.3Z</time></trkpt><trkpt lat="39.2707567" lon="8.5165033"><ele>281.0</ele><time>2026-04-22T13:07:15.3Z</time></trkpt><trkpt lat="39.2708433" lon="8.5166567"><ele>281.0</ele><time>2026-04-22T13:07:17.3Z</time></trkpt><trkpt lat="39.2708733" lon="8.5167283"><ele>281.0</ele><time>2026-04-22T13:07:18.299Z</time></trkpt><trkpt lat="39.2709117" lon="8.5168"><ele>281.0</ele><time>2026-04-22T13:07:19.3Z</time></trkpt><trkpt lat="39.2709983" lon="8.5169117"><ele>281.0</ele><time>2026-04-22T13:07:21.3Z</time></trkpt><trkpt lat="39.2710483" lon="8.5169617"><ele>281.0</ele><time>2026-04-22T13:07:22.3Z</time></trkpt><trkpt lat="39.271095" lon="8.517025"><ele>281.0</ele><time>2026-04-22T13:07:23.3Z</time></trkpt><trkpt lat="39.27113" lon="8.5171"><ele>278.83333333333337</ele><time>2026-04-22T13:07:24.3Z</time></trkpt><trkpt lat="39.2711683" lon="8.5171833"><ele>276.6666666666667</ele><time>2026-04-22T13:07:25.299Z</time></trkpt><trkpt lat="39.2712083" lon="8.5172667"><ele>274.5</ele><time>2026-04-22T13:07:26.3Z</time></trkpt><trkpt lat="39.27125" lon="8.5173383"><ele>272.3333333333333</ele><time>2026-04-22T13:07:27.3Z</time></trkpt><trkpt lat="39.2712967" lon="8.5174117"><ele>270.16666666666663</ele><time>2026-04-22T13:07:28.3Z</time></trkpt><trkpt lat="39.2713483" lon="8.5174833"><ele>268.0</ele><time>2026-04-22T13:07:29.299Z</time></trkpt><trkpt lat="39.27141" lon="8.51755"><ele>269.0</ele><time>2026-04-22T13:07:30.3Z</time></trkpt><trkpt lat="39.2714767" lon="8.5176083"><ele>270.0</ele><time>2026-04-22T13:07:31.3Z</time></trkpt><trkpt lat="39.2715467" lon="8.5176633"><ele>271.0</ele><time>2026-04-22T13:07:32.299Z</time></trkpt><trkpt lat="39.2716217" lon="8.51772"><ele>272.0</ele><time>2026-04-22T13:07:33.3Z</time></trkpt><trkpt lat="39.2717033" lon="8.5177717"><ele>273.0</ele><time>2026-04-22T13:07:34.3Z</time></trkpt><trkpt lat="39.2717833" lon="8.517825"><ele>274.0</ele><time>2026-04-22T13:07:35.3Z</time></trkpt><trkpt lat="39.2718567" lon="8.5178833"><ele>274.8</ele><time>2026-04-22T13:07:36.3Z</time></trkpt><trkpt lat="39.2719867" lon="8.5179883"><ele>275.59999999999997</ele><time>2026-04-22T13:07:38.3Z</time></trkpt><trkpt lat="39.2720717" lon="8.518095"><ele>276.4</ele><time>2026-04-22T13:07:40.3Z</time></trkpt><trkpt lat="39.2720983" lon="8.5181733"><ele>277.2</ele><time>2026-04-22T13:07:41.299Z</time></trkpt><trkpt lat="39.27213" lon="8.51826"><ele>278.0</ele><time>2026-04-22T13:07:42.299Z</time></trkpt><trkpt lat="39.272175" lon="8.5183467"><ele>278.0</ele><time>2026-04-22T13:07:43.3Z</time></trkpt><trkpt lat="39.2722333" lon="8.5184333"><ele>278.0</ele><time>2026-04-22T13:07:44.3Z</time></trkpt><trkpt lat="39.2722817" lon="8.518515"><ele>278.0</ele><time>2026-04-22T13:07:45.299Z</time></trkpt><trkpt lat="39.2723283" lon="8.5186083"><ele>278.0</ele><time>2026-04-22T13:07:46.299Z</time></trkpt><trkpt lat="39.272375" lon="8.5187083"><ele>278.0</ele><time>2026-04-22T13:07:47.3Z</time></trkpt><trkpt lat="39.2724283" lon="8.5188083"><ele>278.0</ele><time>2026-04-22T13:07:48.3Z</time></trkpt><trkpt lat="39.2724883" lon="8.5189083"><ele>278.8</ele><time>2026-04-22T13:07:49.3Z</time></trkpt><trkpt lat="39.2725517" lon="8.5190133"><ele>279.6</ele><time>2026-04-22T13:07:50.3Z</time></trkpt><trkpt lat="39.2726133" lon="8.5191217"><ele>280.4</ele><time>2026-04-22T13:07:51.299Z</time></trkpt><trkpt lat="39.2726717" lon="8.519235"><ele>281.2</ele><time>2026-04-22T13:07:52.3Z</time></trkpt><trkpt lat="39.2727167" lon="8.5193417"><ele>282.0</ele><time>2026-04-22T13:07:53.3Z</time></trkpt><trkpt lat="39.2727567" lon="8.5194467"><ele>282.0</ele><time>2026-04-22T13:07:54.3Z</time></trkpt><trkpt lat="39.2727983" lon="8.519555"><ele>282.0</ele><time>2026-04-22T13:07:55.3Z</time></trkpt><trkpt lat="39.2728367" lon="8.5196633"><ele>282.0</ele><time>2026-04-22T13:07:56.3Z</time></trkpt><trkpt lat="39.2728667" lon="8.5197567"><ele>282.0</ele><time>2026-04-22T13:07:57.299Z</time></trkpt><trkpt lat="39.272975" lon="8.519925"><ele>282.0</ele><time>2026-04-22T13:08:00.3Z</time></trkpt><trkpt lat="39.2730817" lon="8.5200133"><ele>282.4</ele><time>2026-04-22T13:08:31.3Z</time></trkpt><trkpt lat="39.2732317" lon="8.52007"><ele>282.79999999999995</ele><time>2026-04-22T13:08:33.299Z</time></trkpt><trkpt lat="39.273315" lon="8.5200833"><ele>283.2</ele><time>2026-04-22T13:08:34.3Z</time></trkpt><trkpt lat="39.2733983" lon="8.5200817"><ele>283.59999999999997</ele><time>2026-04-22T13:08:35.299Z</time></trkpt><trkpt lat="39.2734767" lon="8.520075"><ele>284.0</ele><time>2026-04-22T13:08:36.3Z</time></trkpt><trkpt lat="39.2735583" lon="8.5200617"><ele>284.0</ele><time>2026-04-22T13:08:37.299Z</time></trkpt><trkpt lat="39.27364" lon="8.52005"><ele>284.0</ele><time>2026-04-22T13:08:38.3Z</time></trkpt><trkpt lat="39.27371" lon="8.5200367"><ele>284.0</ele><time>2026-04-22T13:08:39.3Z</time></trkpt><trkpt lat="39.273825" lon="8.5200067"><ele>284.0</ele><time>2026-04-22T13:08:41.3Z</time></trkpt><trkpt lat="39.273945" lon="8.5200117"><ele>284.0</ele><time>2026-04-22T13:08:43.3Z</time></trkpt><trkpt lat="39.2740117" lon="8.520015"><ele>285.1666666666667</ele><time>2026-04-22T13:08:44.3Z</time></trkpt><trkpt lat="39.2740883" lon="8.5200217"><ele>286.33333333333337</ele><time>2026-04-22T13:08:45.3Z</time></trkpt><trkpt lat="39.2741683" lon="8.5200233"><ele>287.5</ele><time>2026-04-22T13:08:46.3Z</time></trkpt><trkpt lat="39.2742517" lon="8.5200233"><ele>288.6666666666667</ele><time>2026-04-22T13:08:47.299Z</time></trkpt><trkpt lat="39.2743383" lon="8.5200233"><ele>289.8333333333333</ele><time>2026-04-22T13:08:48.3Z</time></trkpt><trkpt lat="39.2744267" lon="8.5200267"><ele>291.0</ele><time>2026-04-22T13:08:49.3Z</time></trkpt><trkpt lat="39.27451" lon="8.5200367"><ele>291.0</ele><time>2026-04-22T13:08:50.299Z</time></trkpt><trkpt lat="39.27459" lon="8.5200467"><ele>291.0</ele><time>2026-04-22T13:08:51.3Z</time></trkpt><trkpt lat="39.2746617" lon="8.5200417"><ele>291.0</ele><time>2026-04-22T13:08:52.299Z</time></trkpt><trkpt lat="39.2748433" lon="8.5199817"><ele>291.0</ele><time>2026-04-22T13:08:55.3Z</time></trkpt><trkpt lat="39.2749467" lon="8.5199617"><ele>291.0</ele><time>2026-04-22T13:08:57.3Z</time></trkpt><trkpt lat="39.2750533" lon="8.52"><ele>290.8333333333333</ele><time>2026-04-22T13:08:59.3Z</time></trkpt><trkpt lat="39.2751617" lon="8.5200617"><ele>290.6666666666667</ele><time>2026-04-22T13:09:02.3Z</time></trkpt><trkpt lat="39.2752133" lon="8.5201267"><ele>290.5</ele><time>2026-04-22T13:09:05.299Z</time></trkpt><trkpt lat="39.275245" lon="8.5202"><ele>290.33333333333337</ele><time>2026-04-22T13:09:08.3Z</time></trkpt><trkpt lat="39.2752783" lon="8.52029"><ele>290.1666666666667</ele><time>2026-04-22T13:09:11.3Z</time></trkpt><trkpt lat="39.2753017" lon="8.52038"><ele>290.0</ele><time>2026-04-22T13:09:13.3Z</time></trkpt><trkpt lat="39.2753583" lon="8.5205983"><ele>290.0</ele><time>2026-04-22T13:09:17.299Z</time></trkpt><trkpt lat="39.275385" lon="8.5207133"><ele>290.0</ele><time>2026-04-22T13:09:19.3Z</time></trkpt><trkpt lat="39.2754117" lon="8.5207983"><ele>290.0</ele><time>2026-04-22T13:09:21.3Z</time></trkpt><trkpt lat="39.2754883" lon="8.5209"><ele>290.0</ele><time>2026-04-22T13:09:24.3Z</time></trkpt><trkpt lat="39.2755583" lon="8.5209567"><ele>290.0</ele><time>2026-04-22T13:09:26.299Z</time></trkpt><trkpt lat="39.275595" lon="8.521125"><ele>290.0</ele><time>2026-04-22T13:09:30.299Z</time></trkpt><trkpt lat="39.2755933" lon="8.5212233"><ele>290.0</ele><time>2026-04-22T13:09:32.299Z</time></trkpt><trkpt lat="39.27562" lon="8.5213267"><ele>290.0</ele><time>2026-04-22T13:09:34.3Z</time></trkpt><trkpt lat="39.2757333" lon="8.521555"><ele>290.0</ele><time>2026-04-22T13:09:38.299Z</time></trkpt><trkpt lat="39.2757833" lon="8.5216533"><ele>290.33333333333337</ele><time>2026-04-22T13:09:40.3Z</time></trkpt><trkpt lat="39.2758167" lon="8.52173"><ele>290.6666666666667</ele><time>2026-04-22T13:09:42.299Z</time></trkpt><trkpt lat="39.2758617" lon="8.5218583"><ele>291.0</ele><time>2026-04-22T13:09:45.3Z</time></trkpt><trkpt lat="39.2758917" lon="8.521975"><ele>291.3333333333333</ele><time>2026-04-22T13:09:48.3Z</time></trkpt><trkpt lat="39.2759267" lon="8.5220533"><ele>291.66666666666663</ele><time>2026-04-22T13:09:50.3Z</time></trkpt><trkpt lat="39.275955" lon="8.5221433"><ele>292.0</ele><time>2026-04-22T13:09:53.3Z</time></trkpt><trkpt lat="39.27593" lon="8.5222183"><ele>292.0</ele><time>2026-04-22T13:09:56.299Z</time></trkpt><trkpt lat="39.2758183" lon="8.522125"><ele>292.0</ele><time>2026-04-22T13:14:51.299Z</time></trkpt><trkpt lat="39.275805" lon="8.522255"><ele>292.0</ele><time>2026-04-22T13:15:12.299Z</time></trkpt><trkpt lat="39.2756283" lon="8.522165"><ele>292.0</ele><time>2026-04-22T13:15:16.299Z</time></trkpt><trkpt lat="39.2755783" lon="8.5221033"><ele>292.5</ele><time>2026-04-22T13:15:18.299Z</time></trkpt><trkpt lat="39.2755583" lon="8.5220183"><ele>293.0</ele><time>2026-04-22T13:15:20.298Z</time></trkpt><trkpt lat="39.27551" lon="8.5219167"><ele>293.5</ele><time>2026-04-22T13:15:23.299Z</time></trkpt><trkpt lat="39.2754783" lon="8.52182"><ele>294.0</ele><time>2026-04-22T13:15:25.298Z</time></trkpt><trkpt lat="39.2754417" lon="8.521735"><ele>294.5</ele><time>2026-04-22T13:15:27.298Z</time></trkpt><trkpt lat="39.2754183" lon="8.5216483"><ele>295.0</ele><time>2026-04-22T13:15:29.299Z</time></trkpt><trkpt lat="39.27536" lon="8.52154"><ele>295.0</ele><time>2026-04-22T13:15:31.299Z</time></trkpt><trkpt lat="39.27532" lon="8.52146"><ele>295.0</ele><time>2026-04-22T13:15:32.298Z</time></trkpt><trkpt lat="39.2752817" lon="8.5213717"><ele>295.0</ele><time>2026-04-22T13:15:33.298Z</time></trkpt><trkpt lat="39.2751967" lon="8.5211683"><ele>295.0</ele><time>2026-04-22T13:15:36.299Z</time></trkpt><trkpt lat="39.2751783" lon="8.521085"><ele>295.0</ele><time>2026-04-22T13:15:37.299Z</time></trkpt><trkpt lat="39.27516" lon="8.5209983"><ele>294.16666666666663</ele><time>2026-04-22T13:15:38.298Z</time></trkpt><trkpt lat="39.275135" lon="8.5209167"><ele>293.3333333333333</ele><time>2026-04-22T13:15:39.299Z</time></trkpt><trkpt lat="39.2751133" lon="8.5207783"><ele>292.5</ele><time>2026-04-22T13:15:41.299Z</time></trkpt><trkpt lat="39.2750967" lon="8.5206283"><ele>291.6666666666667</ele><time>2026-04-22T13:15:43.299Z</time></trkpt><trkpt lat="39.2750867" lon="8.520535"><ele>290.83333333333337</ele><time>2026-04-22T13:15:44.298Z</time></trkpt><trkpt lat="39.2750733" lon="8.5204433"><ele>290.0</ele><time>2026-04-22T13:15:45.299Z</time></trkpt><trkpt lat="39.2750683" lon="8.5203567"><ele>289.8</ele><time>2026-04-22T13:15:46.299Z</time></trkpt><trkpt lat="39.2750767" lon="8.520275"><ele>289.6</ele><time>2026-04-22T13:15:47.299Z</time></trkpt><trkpt lat="39.2751167" lon="8.5201583"><ele>289.4</ele><time>2026-04-22T13:15:49.299Z</time></trkpt><trkpt lat="39.2751883" lon="8.52013"><ele>289.2</ele><time>2026-04-22T13:15:51.299Z</time></trkpt><trkpt lat="39.27526" lon="8.5201983"><ele>289.0</ele><time>2026-04-22T13:15:53.299Z</time></trkpt><trkpt lat="39.2753017" lon="8.52035"><ele>289.2</ele><time>2026-04-22T13:15:55.299Z</time></trkpt><trkpt lat="39.2753517" lon="8.5205283"><ele>289.4</ele><time>2026-04-22T13:15:57.299Z</time></trkpt><trkpt lat="39.275375" lon="8.52062"><ele>289.6</ele><time>2026-04-22T13:15:58.299Z</time></trkpt><trkpt lat="39.2753917" lon="8.5207033"><ele>289.8</ele><time>2026-04-22T13:15:59.298Z</time></trkpt><trkpt lat="39.275435" lon="8.5208283"><ele>290.0</ele><time>2026-04-22T13:16:01.299Z</time></trkpt><trkpt lat="39.2755217" lon="8.5209133"><ele>290.0</ele><time>2026-04-22T13:16:03.299Z</time></trkpt><trkpt lat="39.2755833" lon="8.5209883"><ele>290.0</ele><time>2026-04-22T13:16:05.299Z</time></trkpt><trkpt lat="39.275595" lon="8.521085"><ele>290.0</ele><time>2026-04-22T13:16:07.298Z</time></trkpt><trkpt lat="39.2756033" lon="8.52131"><ele>290.0</ele><time>2026-04-22T13:16:11.299Z</time></trkpt><trkpt lat="39.27567" lon="8.5214317"><ele>289.0</ele><time>2026-04-22T13:16:13.299Z</time></trkpt><trkpt lat="39.27573" lon="8.52155"><ele>288.0</ele><time>2026-04-22T13:16:15.299Z</time></trkpt><trkpt lat="39.27577" lon="8.521655"><ele>287.0</ele><time>2026-04-22T13:16:17.299Z</time></trkpt><trkpt lat="39.27568" lon="8.5217533"><ele>286.0</ele><time>2026-04-22T13:16:23.299Z</time></trkpt><trkpt lat="39.2757483" lon="8.5217217"><ele>285.0</ele><time>2026-04-22T13:16:29.299Z</time></trkpt><trkpt lat="39.2758033" lon="8.5217883"><ele>285.0</ele><time>2026-04-22T13:16:31.298Z</time></trkpt><trkpt lat="39.275855" lon="8.5218833"><ele>285.0</ele><time>2026-04-22T13:16:33.298Z</time></trkpt><trkpt lat="39.2758883" lon="8.5219683"><ele>285.0</ele><time>2026-04-22T13:16:35.299Z</time></trkpt><trkpt lat="39.2759033" lon="8.522055"><ele>285.0</ele><time>2026-04-22T13:16:38.298Z</time></trkpt><trkpt lat="39.2758767" lon="8.5222033"><ele>285.0</ele><time>2026-04-22T13:25:03.298Z</time></trkpt><trkpt lat="39.2756683" lon="8.5221583"><ele>287.0</ele><time>2026-04-22T13:25:07.298Z</time></trkpt><trkpt lat="39.275585" lon="8.522085"><ele>289.0</ele><time>2026-04-22T13:25:09.298Z</time></trkpt><trkpt lat="39.2755333" lon="8.5219267"><ele>291.0</ele><time>2026-04-22T13:25:11.298Z</time></trkpt><trkpt lat="39.2755033" lon="8.5218333"><ele>293.0</ele><time>2026-04-22T13:25:12.298Z</time></trkpt><trkpt lat="39.275465" lon="8.521745"><ele>295.0</ele><time>2026-04-22T13:25:13.298Z</time></trkpt><trkpt lat="39.2754233" lon="8.52165"><ele>295.0</ele><time>2026-04-22T13:25:14.298Z</time></trkpt><trkpt lat="39.2753817" lon="8.5215483"><ele>295.0</ele><time>2026-04-22T13:25:15.298Z</time></trkpt><trkpt lat="39.275335" lon="8.521455"><ele>295.0</ele><time>2026-04-22T13:25:16.298Z</time></trkpt><trkpt lat="39.2752917" lon="8.5213717"><ele>295.0</ele><time>2026-04-22T13:25:17.297Z</time></trkpt><trkpt lat="39.2752567" lon="8.5212983"><ele>295.0</ele><time>2026-04-22T13:25:18.297Z</time></trkpt><trkpt lat="39.2752217" lon="8.5212283"><ele>295.0</ele><time>2026-04-22T13:25:19.298Z</time></trkpt><trkpt lat="39.2751933" lon="8.52115"><ele>293.75</ele><time>2026-04-22T13:25:20.298Z</time></trkpt><trkpt lat="39.27517" lon="8.521065"><ele>292.5</ele><time>2026-04-22T13:25:21.298Z</time></trkpt><trkpt lat="39.2751483" lon="8.52098"><ele>291.25</ele><time>2026-04-22T13:25:22.298Z</time></trkpt><trkpt lat="39.27512" lon="8.5208283"><ele>290.0</ele><time>2026-04-22T13:25:24.298Z</time></trkpt><trkpt lat="39.2750767" lon="8.5205417"><ele>289.8</ele><time>2026-04-22T13:25:28.298Z</time></trkpt><trkpt lat="39.2750633" lon="8.5203833"><ele>289.6</ele><time>2026-04-22T13:25:30.297Z</time></trkpt><trkpt lat="39.2750683" lon="8.52029"><ele>289.4</ele><time>2026-04-22T13:25:31.298Z</time></trkpt><trkpt lat="39.2751167" lon="8.5201517"><ele>289.2</ele><time>2026-04-22T13:25:33.298Z</time></trkpt><trkpt lat="39.2751533" lon="8.520055"><ele>289.0</ele><time>2026-04-22T13:25:35.298Z</time></trkpt><trkpt lat="39.2750917" lon="8.5199783"><ele>289.0</ele><time>2026-04-22T13:25:38.298Z</time></trkpt><trkpt lat="39.2749867" lon="8.5199567"><ele>289.0</ele><time>2026-04-22T13:25:40.298Z</time></trkpt><trkpt lat="39.2748583" lon="8.5199467"><ele>289.0</ele><time>2026-04-22T13:25:42.298Z</time></trkpt><trkpt lat="39.2747967" lon="8.5199717"><ele>289.0</ele><time>2026-04-22T13:25:43.298Z</time></trkpt><trkpt lat="39.27473" lon="8.52"><ele>289.0</ele><time>2026-04-22T13:25:44.298Z</time></trkpt><trkpt lat="39.2746683" lon="8.52002"><ele>289.0</ele><time>2026-04-22T13:25:45.298Z</time></trkpt><trkpt lat="39.2744267" lon="8.5200067"><ele>289.4</ele><time>2026-04-22T13:25:49.298Z</time></trkpt><trkpt lat="39.2743517" lon="8.5199967"><ele>289.79999999999995</ele><time>2026-04-22T13:25:50.297Z</time></trkpt><trkpt lat="39.27427" lon="8.5199967"><ele>290.20000000000005</ele><time>2026-04-22T13:25:51.298Z</time></trkpt><trkpt lat="39.274105" lon="8.52001"><ele>290.6</ele><time>2026-04-22T13:25:53.297Z</time></trkpt><trkpt lat="39.2740317" lon="8.5200133"><ele>291.0</ele><time>2026-04-22T13:25:54.297Z</time></trkpt><trkpt lat="39.2739633" lon="8.5200017"><ele>289.25</ele><time>2026-04-22T13:25:55.297Z</time></trkpt><trkpt lat="39.2738567" lon="8.5199833"><ele>287.5</ele><time>2026-04-22T13:25:57.298Z</time></trkpt><trkpt lat="39.2737867" lon="8.5199917"><ele>285.75</ele><time>2026-04-22T13:25:59.298Z</time></trkpt><trkpt lat="39.2737117" lon="8.5200283"><ele>284.0</ele><time>2026-04-22T13:26:18.297Z</time></trkpt><trkpt lat="39.2734567" lon="8.5200683"><ele>284.0</ele><time>2026-04-22T13:26:24.298Z</time></trkpt><trkpt lat="39.2733933" lon="8.5200767"><ele>284.0</ele><time>2026-04-22T13:26:25.297Z</time></trkpt><trkpt lat="39.2733283" lon="8.5200783"><ele>284.0</ele><time>2026-04-22T13:26:26.296Z</time></trkpt><trkpt lat="39.273215" lon="8.5200617"><ele>284.0</ele><time>2026-04-22T13:26:28.297Z</time></trkpt><trkpt lat="39.2731067" lon="8.5200267"><ele>284.0</ele><time>2026-04-22T13:26:30.297Z</time></trkpt><trkpt lat="39.2730233" lon="8.52003"><ele>284.0</ele><time>2026-04-22T13:26:32.296Z</time></trkpt><trkpt lat="39.27295" lon="8.5200983"><ele>283.8</ele><time>2026-04-22T13:26:34.296Z</time></trkpt><trkpt lat="39.2728917" lon="8.520215"><ele>283.59999999999997</ele><time>2026-04-22T13:26:36.297Z</time></trkpt><trkpt lat="39.27287" lon="8.5203217"><ele>283.4</ele><time>2026-04-22T13:26:38.297Z</time></trkpt><trkpt lat="39.2728817" lon="8.5204183"><ele>283.2</ele><time>2026-04-22T13:26:40.297Z</time></trkpt><trkpt lat="39.2729867" lon="8.5205967"><ele>283.0</ele><time>2026-04-22T13:26:43.297Z</time></trkpt><trkpt lat="39.273035" lon="8.52072"><ele>281.0</ele><time>2026-04-22T13:26:45.296Z</time></trkpt><trkpt lat="39.2730333" lon="8.5208283"><ele>279.0</ele><time>2026-04-22T13:26:47.296Z</time></trkpt><trkpt lat="39.2729783" lon="8.5209517"><ele>277.0</ele><time>2026-04-22T13:26:49.297Z</time></trkpt><trkpt lat="39.2729267" lon="8.5210067"><ele>275.0</ele><time>2026-04-22T13:26:50.297Z</time></trkpt><trkpt lat="39.2728367" lon="8.5211083"><ele>273.0</ele><time>2026-04-22T13:26:52.296Z</time></trkpt><trkpt lat="39.2727917" lon="8.521245"><ele>272.6666666666667</ele><time>2026-04-22T13:26:54.296Z</time></trkpt><trkpt lat="39.272775" lon="8.5213433"><ele>272.3333333333333</ele><time>2026-04-22T13:26:55.297Z</time></trkpt><trkpt lat="39.272755" lon="8.52145"><ele>272.0</ele><time>2026-04-22T13:26:56.296Z</time></trkpt><trkpt lat="39.2727333" lon="8.5215633"><ele>271.66666666666663</ele><time>2026-04-22T13:26:57.296Z</time></trkpt><trkpt lat="39.2727083" lon="8.5216817"><ele>271.3333333333333</ele><time>2026-04-22T13:26:58.296Z</time></trkpt><trkpt lat="39.2726883" lon="8.5218033"><ele>271.0</ele><time>2026-04-22T13:26:59.297Z</time></trkpt><trkpt lat="39.2726717" lon="8.5219383"><ele>271.0</ele><time>2026-04-22T13:27:00.297Z</time></trkpt><trkpt lat="39.27265" lon="8.5220633"><ele>271.0</ele><time>2026-04-22T13:27:01.297Z</time></trkpt><trkpt lat="39.2726033" lon="8.5222967"><ele>271.0</ele><time>2026-04-22T13:27:03.296Z</time></trkpt><trkpt lat="39.272575" lon="8.522405"><ele>271.0</ele><time>2026-04-22T13:27:04.296Z</time></trkpt><trkpt lat="39.2725467" lon="8.5225067"><ele>270.66666666666663</ele><time>2026-04-22T13:27:05.297Z</time></trkpt><trkpt lat="39.2725167" lon="8.52261"><ele>270.3333333333333</ele><time>2026-04-22T13:27:06.297Z</time></trkpt><trkpt lat="39.27249" lon="8.5227083"><ele>270.0</ele><time>2026-04-22T13:27:07.297Z</time></trkpt><trkpt lat="39.272475" lon="8.5228033"><ele>269.6666666666667</ele><time>2026-04-22T13:27:08.297Z</time></trkpt><trkpt lat="39.2724667" lon="8.522905"><ele>269.33333333333337</ele><time>2026-04-22T13:27:09.296Z</time></trkpt><trkpt lat="39.2724667" lon="8.5229983"><ele>269.0</ele><time>2026-04-22T13:27:10.297Z</time></trkpt><trkpt lat="39.272455" lon="8.5230833"><ele>269.8</ele><time>2026-04-22T13:27:11.296Z</time></trkpt><trkpt lat="39.2723833" lon="8.5232167"><ele>270.59999999999997</ele><time>2026-04-22T13:27:13.297Z</time></trkpt><trkpt lat="39.27233" lon="8.5232617"><ele>271.4</ele><time>2026-04-22T13:27:14.297Z</time></trkpt><trkpt lat="39.2722167" lon="8.5232983"><ele>272.2</ele><time>2026-04-22T13:27:16.297Z</time></trkpt><trkpt lat="39.272105" lon="8.5232383"><ele>273.0</ele><time>2026-04-22T13:27:18.297Z</time></trkpt><trkpt lat="39.2720383" lon="8.5231883"><ele>275.0</ele><time>2026-04-22T13:27:19.296Z</time></trkpt><trkpt lat="39.2719683" lon="8.5231317"><ele>277.0</ele><time>2026-04-22T13:27:20.296Z</time></trkpt><trkpt lat="39.2719" lon="8.5230817"><ele>279.0</ele><time>2026-04-22T13:27:21.297Z</time></trkpt><trkpt lat="39.27183" lon="8.5230433"><ele>281.0</ele><time>2026-04-22T13:27:22.296Z</time></trkpt><trkpt lat="39.27168" lon="8.5229717"><ele>283.0</ele><time>2026-04-22T13:27:24.296Z</time></trkpt><trkpt lat="39.2716" lon="8.52294"><ele>283.0</ele><time>2026-04-22T13:27:25.297Z</time></trkpt><trkpt lat="39.2715183" lon="8.52292"><ele>283.0</ele><time>2026-04-22T13:27:26.297Z</time></trkpt><trkpt lat="39.2714383" lon="8.522905"><ele>283.0</ele><time>2026-04-22T13:27:27.297Z</time></trkpt><trkpt lat="39.2713633" lon="8.522885"><ele>283.0</ele><time>2026-04-22T13:27:28.297Z</time></trkpt><trkpt lat="39.2712883" lon="8.5228483"><ele>283.0</ele><time>2026-04-22T13:27:29.297Z</time></trkpt><trkpt lat="39.2712167" lon="8.522815"><ele>283.0</ele><time>2026-04-22T13:27:30.297Z</time></trkpt><trkpt lat="39.27115" lon="8.5227833"><ele>283.6</ele><time>2026-04-22T13:27:31.297Z</time></trkpt><trkpt lat="39.2710417" lon="8.5227317"><ele>284.20000000000005</ele><time>2026-04-22T13:27:33.297Z</time></trkpt><trkpt lat="39.2709533" lon="8.5227083"><ele>284.8</ele><time>2026-04-22T13:27:35.296Z</time></trkpt><trkpt lat="39.270865" lon="8.5227217"><ele>285.40000000000003</ele><time>2026-04-22T13:27:37.297Z</time></trkpt><trkpt lat="39.27081" lon="8.5227933"><ele>286.0</ele><time>2026-04-22T13:27:39.296Z</time></trkpt><trkpt lat="39.2707933" lon="8.5229117"><ele>286.0</ele><time>2026-04-22T13:27:41.297Z</time></trkpt><trkpt lat="39.2708117" lon="8.5230633"><ele>286.0</ele><time>2026-04-22T13:27:43.296Z</time></trkpt><trkpt lat="39.2708917" lon="8.5233567"><ele>286.0</ele><time>2026-04-22T13:27:47.297Z</time></trkpt><trkpt lat="39.2709417" lon="8.5234717"><ele>286.0</ele><time>2026-04-22T13:27:49.296Z</time></trkpt><trkpt lat="39.270895" lon="8.52337"><ele>286.0</ele><time>2026-04-22T13:28:05.297Z</time></trkpt><trkpt lat="39.2708317" lon="8.5231317"><ele>286.0</ele><time>2026-04-22T13:28:09.296Z</time></trkpt><trkpt lat="39.2708167" lon="8.523005"><ele>286.0</ele><time>2026-04-22T13:28:11.297Z</time></trkpt><trkpt lat="39.27082" lon="8.5228833"><ele>286.0</ele><time>2026-04-22T13:28:13.297Z</time></trkpt><trkpt lat="39.2707983" lon="8.522765"><ele>286.0</ele><time>2026-04-22T13:28:15.297Z</time></trkpt><trkpt lat="39.2707467" lon="8.52269"><ele>286.0</ele><time>2026-04-22T13:28:17.297Z</time></trkpt><trkpt lat="39.2706783" lon="8.5226733"><ele>286.0</ele><time>2026-04-22T13:28:19.296Z</time></trkpt><trkpt lat="39.2705867" lon="8.5227317"><ele>286.0</ele><time>2026-04-22T13:28:21.296Z</time></trkpt><trkpt lat="39.2704867" lon="8.52281"><ele>281.25</ele><time>2026-04-22T13:28:23.296Z</time></trkpt><trkpt lat="39.2703983" lon="8.5229017"><ele>276.5</ele><time>2026-04-22T13:28:25.297Z</time></trkpt><trkpt lat="39.27032" lon="8.5230017"><ele>271.75</ele><time>2026-04-22T13:28:27.297Z</time></trkpt><trkpt lat="39.2701733" lon="8.523205"><ele>267.0</ele><time>2026-04-22T13:28:31.296Z</time></trkpt><trkpt lat="39.270105" lon="8.523295"><ele>267.0</ele><time>2026-04-22T13:28:33.297Z</time></trkpt><trkpt lat="39.2700417" lon="8.523405"><ele>267.0</ele><time>2026-04-22T13:28:35.297Z</time></trkpt><trkpt lat="39.27002" lon="8.5235233"><ele>267.0</ele><time>2026-04-22T13:28:37.297Z</time></trkpt><trkpt lat="39.270015" lon="8.523625"><ele>267.0</ele><time>2026-04-22T13:28:39.297Z</time></trkpt><trkpt lat="39.27" lon="8.5237317"><ele>267.0</ele><time>2026-04-22T13:28:41.297Z</time></trkpt><trkpt lat="39.26998" lon="8.5238417"><ele>265.25</ele><time>2026-04-22T13:28:43.297Z</time></trkpt><trkpt lat="39.2699483" lon="8.5239683"><ele>263.5</ele><time>2026-04-22T13:28:45.296Z</time></trkpt><trkpt lat="39.26991" lon="8.5241167"><ele>261.75</ele><time>2026-04-22T13:28:47.297Z</time></trkpt><trkpt lat="39.2698883" lon="8.5241933"><ele>260.0</ele><time>2026-04-22T13:28:48.297Z</time></trkpt><trkpt lat="39.2698233" lon="8.5244367"><ele>256.6</ele><time>2026-04-22T13:28:52.297Z</time></trkpt><trkpt lat="39.269775" lon="8.5245267"><ele>253.2</ele><time>2026-04-22T13:28:54.296Z</time></trkpt><trkpt lat="39.2696883" lon="8.52463"><ele>249.8</ele><time>2026-04-22T13:28:56.296Z</time></trkpt><trkpt lat="39.2696217" lon="8.5247333"><ele>246.4</ele><time>2026-04-22T13:28:58.297Z</time></trkpt><trkpt lat="39.26956" lon="8.5248633"><ele>243.0</ele><time>2026-04-22T13:29:00.297Z</time></trkpt><trkpt lat="39.269495" lon="8.5249867"><ele>243.4</ele><time>2026-04-22T13:29:02.296Z</time></trkpt><trkpt lat="39.2694483" lon="8.525095"><ele>243.8</ele><time>2026-04-22T13:29:04.297Z</time></trkpt><trkpt lat="39.2694317" lon="8.5251817"><ele>244.2</ele><time>2026-04-22T13:29:07.297Z</time></trkpt><trkpt lat="39.269445" lon="8.5252967"><ele>244.6</ele><time>2026-04-22T13:29:23.297Z</time></trkpt><trkpt lat="39.2694867" lon="8.5255283"><ele>245.0</ele><time>2026-04-22T13:29:26.297Z</time></trkpt><trkpt lat="39.2695267" lon="8.525645"><ele>245.00000000000003</ele><time>2026-04-22T13:29:28.297Z</time></trkpt><trkpt lat="39.269565" lon="8.525715"><ele>245.0</ele><time>2026-04-22T13:29:30.297Z</time></trkpt><trkpt lat="39.2695317" lon="8.5257867"><ele>245.0</ele><time>2026-04-22T13:29:33.297Z</time></trkpt><trkpt lat="39.2694617" lon="8.5257217"><ele>245.0</ele><time>2026-04-22T13:29:36.296Z</time></trkpt><trkpt lat="39.2693933" lon="8.5256283"><ele>245.00000000000003</ele><time>2026-04-22T13:29:38.296Z</time></trkpt><trkpt lat="39.269305" lon="8.5255217"><ele>245.0</ele><time>2026-04-22T13:29:40.297Z</time></trkpt><trkpt lat="39.26926" lon="8.5254517"><ele>243.83333333333334</ele><time>2026-04-22T13:29:41.296Z</time></trkpt><trkpt lat="39.269215" lon="8.5253783"><ele>242.66666666666669</ele><time>2026-04-22T13:29:42.296Z</time></trkpt><trkpt lat="39.2691633" lon="8.5253067"><ele>241.5</ele><time>2026-04-22T13:29:43.297Z</time></trkpt><trkpt lat="39.2691133" lon="8.5252267"><ele>240.33333333333331</ele><time>2026-04-22T13:29:44.297Z</time></trkpt><trkpt lat="39.26903" lon="8.525085"><ele>239.16666666666666</ele><time>2026-04-22T13:29:46.297Z</time></trkpt><trkpt lat="39.2690017" lon="8.52501"><ele>238.0</ele><time>2026-04-22T13:29:47.297Z</time></trkpt><trkpt lat="39.2689667" lon="8.5248917"><ele>237.99999999999997</ele><time>2026-04-22T13:29:49.296Z</time></trkpt><trkpt lat="39.2689483" lon="8.52481"><ele>238.0</ele><time>2026-04-22T13:29:50.296Z</time></trkpt><trkpt lat="39.2689317" lon="8.5247"><ele>238.0</ele><time>2026-04-22T13:29:51.297Z</time></trkpt><trkpt lat="39.268915" lon="8.5245817"><ele>238.0</ele><time>2026-04-22T13:29:52.296Z</time></trkpt><trkpt lat="39.2688933" lon="8.524455"><ele>237.99999999999997</ele><time>2026-04-22T13:29:53.296Z</time></trkpt><trkpt lat="39.26887" lon="8.5243283"><ele>238.0</ele><time>2026-04-22T13:29:54.296Z</time></trkpt><trkpt lat="39.2688583" lon="8.524215"><ele>238.28571428571428</ele><time>2026-04-22T13:29:55.297Z</time></trkpt><trkpt lat="39.2688517" lon="8.524115"><ele>238.57142857142856</ele><time>2026-04-22T13:29:56.297Z</time></trkpt><trkpt lat="39.268835" lon="8.524025"><ele>238.85714285714286</ele><time>2026-04-22T13:29:57.296Z</time></trkpt><trkpt lat="39.268805" lon="8.5239317"><ele>239.14285714285714</ele><time>2026-04-22T13:29:58.296Z</time></trkpt><trkpt lat="39.2687767" lon="8.52384"><ele>239.42857142857142</ele><time>2026-04-22T13:29:59.296Z</time></trkpt><trkpt lat="39.26876" lon="8.5237483"><ele>239.71428571428572</ele><time>2026-04-22T13:30:00.297Z</time></trkpt><trkpt lat="39.2687517" lon="8.5236617"><ele>240.0</ele><time>2026-04-22T13:30:01.296Z</time></trkpt><trkpt lat="39.2687233" lon="8.523525"><ele>239.2</ele><time>2026-04-22T13:30:03.297Z</time></trkpt><trkpt lat="39.26868" lon="8.5234517"><ele>238.4</ele><time>2026-04-22T13:30:04.297Z</time></trkpt><trkpt lat="39.2686267" lon="8.5233733"><ele>237.60000000000002</ele><time>2026-04-22T13:30:05.296Z</time></trkpt><trkpt lat="39.2685467" lon="8.523225"><ele>236.8</ele><time>2026-04-22T13:30:07.296Z</time></trkpt><trkpt lat="39.2684767" lon="8.523095"><ele>236.0</ele><time>2026-04-22T13:30:09.297Z</time></trkpt><trkpt lat="39.268395" lon="8.522995"><ele>234.60000000000002</ele><time>2026-04-22T13:30:11.297Z</time></trkpt><trkpt lat="39.2683083" lon="8.5228867"><ele>233.20000000000002</ele><time>2026-04-22T13:30:13.297Z</time></trkpt><trkpt lat="39.2682533" lon="8.5228367"><ele>231.79999999999998</ele><time>2026-04-22T13:30:14.296Z</time></trkpt><trkpt lat="39.2682" lon="8.522785"><ele>230.39999999999998</ele><time>2026-04-22T13:30:15.297Z</time></trkpt><trkpt lat="39.2680967" lon="8.52272"><ele>229.0</ele><time>2026-04-22T13:30:17.297Z</time></trkpt><trkpt lat="39.267995" lon="8.5227017"><ele>229.0</ele><time>2026-04-22T13:30:19.297Z</time></trkpt><trkpt lat="39.2678917" lon="8.5226867"><ele>228.99999999999997</ele><time>2026-04-22T13:30:21.296Z</time></trkpt><trkpt lat="39.2678117" lon="8.522675"><ele>228.99999999999997</ele><time>2026-04-22T13:30:23.297Z</time></trkpt><trkpt lat="39.2677433" lon="8.5226633"><ele>229.0</ele><time>2026-04-22T13:30:25.297Z</time></trkpt><trkpt lat="39.2676633" lon="8.522605"><ele>229.0</ele><time>2026-04-22T13:30:27.296Z</time></trkpt><trkpt lat="39.2674717" lon="8.5224733"><ele>228.99999999999997</ele><time>2026-04-22T13:30:30.297Z</time></trkpt><trkpt lat="39.2674033" lon="8.5224267"><ele>229.0</ele><time>2026-04-22T13:30:31.296Z</time></trkpt><trkpt lat="39.2673417" lon="8.5223867"><ele>229.0</ele><time>2026-04-22T13:30:32.297Z</time></trkpt><trkpt lat="39.2672567" lon="8.522305"><ele>229.0</ele><time>2026-04-22T13:30:34.297Z</time></trkpt><trkpt lat="39.2672067" lon="8.5222233"><ele>228.99999999999997</ele><time>2026-04-22T13:30:36.296Z</time></trkpt><trkpt lat="39.2671717" lon="8.5221333"><ele>229.0</ele><time>2026-04-22T13:30:38.296Z</time></trkpt><trkpt lat="39.2671267" lon="8.5220217"><ele>229.0</ele><time>2026-04-22T13:30:40.297Z</time></trkpt><trkpt lat="39.2670583" lon="8.5219267"><ele>228.99999999999997</ele><time>2026-04-22T13:30:42.297Z</time></trkpt><trkpt lat="39.2669567" lon="8.52185"><ele>228.99999999999997</ele><time>2026-04-22T13:30:44.297Z</time></trkpt><trkpt lat="39.26689" lon="8.5218333"><ele>229.0</ele><time>2026-04-22T13:30:45.297Z</time></trkpt><trkpt lat="39.2668267" lon="8.52183"><ele>229.0</ele><time>2026-04-22T13:30:46.297Z</time></trkpt><trkpt lat="39.2667083" lon="8.52185"><ele>229.0</ele><time>2026-04-22T13:30:48.297Z</time></trkpt><trkpt lat="39.2665367" lon="8.5219017"><ele>228.99999999999997</ele><time>2026-04-22T13:30:52.297Z</time></trkpt><trkpt lat="39.266465" lon="8.5219383"><ele>228.99999999999997</ele><time>2026-04-22T13:30:54.297Z</time></trkpt><trkpt lat="39.266395" lon="8.5219633"><ele>229.0</ele><time>2026-04-22T13:30:56.297Z</time></trkpt><trkpt lat="39.2663417" lon="8.5220217"><ele>229.0</ele><time>2026-04-22T13:30:58.296Z</time></trkpt><trkpt lat="39.2662883" lon="8.522115"><ele>230.49999999999997</ele><time>2026-04-22T13:31:00.297Z</time></trkpt><trkpt lat="39.266205" lon="8.5221217"><ele>232.0</ele><time>2026-04-22T13:31:02.297Z</time></trkpt><trkpt lat="39.2661467" lon="8.5220833"><ele>233.5</ele><time>2026-04-22T13:31:03.297Z</time></trkpt><trkpt lat="39.2660617" lon="8.522035"><ele>235.0</ele><time>2026-04-22T13:31:04.297Z</time></trkpt><trkpt lat="39.265975" lon="8.5219933"><ele>236.49999999999997</ele><time>2026-04-22T13:31:05.297Z</time></trkpt><trkpt lat="39.2658883" lon="8.5219567"><ele>238.0</ele><time>2026-04-22T13:31:06.297Z</time></trkpt><trkpt lat="39.2658017" lon="8.5219233"><ele>236.8</ele><time>2026-04-22T13:31:07.297Z</time></trkpt><trkpt lat="39.2657217" lon="8.5218867"><ele>235.60000000000002</ele><time>2026-04-22T13:31:08.297Z</time></trkpt><trkpt lat="39.2656467" lon="8.52184"><ele>234.39999999999998</ele><time>2026-04-22T13:31:09.297Z</time></trkpt><trkpt lat="39.2655167" lon="8.5217017"><ele>233.2</ele><time>2026-04-22T13:31:11.296Z</time></trkpt><trkpt lat="39.265445" lon="8.521615"><ele>232.0</ele><time>2026-04-22T13:31:12.297Z</time></trkpt><trkpt lat="39.2653833" lon="8.52154"><ele>231.99999999999997</ele><time>2026-04-22T13:31:13.297Z</time></trkpt><trkpt lat="39.2653283" lon="8.5214667"><ele>232.0</ele><time>2026-04-22T13:31:14.297Z</time></trkpt><trkpt lat="39.2652783" lon="8.52138"><ele>232.0</ele><time>2026-04-22T13:31:15.296Z</time></trkpt><trkpt lat="39.2652367" lon="8.5212917"><ele>232.0</ele><time>2026-04-22T13:31:16.296Z</time></trkpt><trkpt lat="39.2652033" lon="8.521195"><ele>231.99999999999997</ele><time>2026-04-22T13:31:17.297Z</time></trkpt><trkpt lat="39.26518" lon="8.521105"><ele>232.0</ele><time>2026-04-22T13:31:18.296Z</time></trkpt><trkpt lat="39.2651567" lon="8.5210217"><ele>229.39999999999998</ele><time>2026-04-22T13:31:19.297Z</time></trkpt><trkpt lat="39.2651417" lon="8.5208667"><ele>226.79999999999998</ele><time>2026-04-22T13:31:21.297Z</time></trkpt><trkpt lat="39.26513" lon="8.52073"><ele>224.2</ele><time>2026-04-22T13:31:23.297Z</time></trkpt><trkpt lat="39.2651" lon="8.5206267"><ele>221.6</ele><time>2026-04-22T13:31:25.296Z</time></trkpt><trkpt lat="39.2650383" lon="8.5205217"><ele>219.0</ele><time>2026-04-22T13:31:27.296Z</time></trkpt><trkpt lat="39.2649967" lon="8.5204083"><ele>217.25</ele><time>2026-04-22T13:31:29.297Z</time></trkpt><trkpt lat="39.2649433" lon="8.5202833"><ele>215.5</ele><time>2026-04-22T13:31:31.297Z</time></trkpt><trkpt lat="39.2648983" lon="8.5200317"><ele>213.75</ele><time>2026-04-22T13:31:35.296Z</time></trkpt><trkpt lat="39.2649283" lon="8.519905"><ele>212.0</ele><time>2026-04-22T13:31:37.297Z</time></trkpt><trkpt lat="39.2649733" lon="8.519795"><ele>212.0</ele><time>2026-04-22T13:31:39.296Z</time></trkpt><trkpt lat="39.2649867" lon="8.5196417"><ele>212.0</ele><time>2026-04-22T13:31:41.297Z</time></trkpt><trkpt lat="39.2649683" lon="8.519555"><ele>212.0</ele><time>2026-04-22T13:31:42.297Z</time></trkpt><trkpt lat="39.2649283" lon="8.519415"><ele>212.0</ele><time>2026-04-22T13:31:44.297Z</time></trkpt><trkpt lat="39.264885" lon="8.51931"><ele>212.0</ele><time>2026-04-22T13:31:46.297Z</time></trkpt><trkpt lat="39.2647867" lon="8.5192033"><ele>212.2</ele><time>2026-04-22T13:31:48.296Z</time></trkpt><trkpt lat="39.264725" lon="8.5191383"><ele>212.39999999999998</ele><time>2026-04-22T13:31:49.297Z</time></trkpt><trkpt lat="39.2646667" lon="8.51908"><ele>212.60000000000002</ele><time>2026-04-22T13:31:50.297Z</time></trkpt><trkpt lat="39.2646117" lon="8.5190267"><ele>212.8</ele><time>2026-04-22T13:31:51.297Z</time></trkpt><trkpt lat="39.2645417" lon="8.5189233"><ele>213.0</ele><time>2026-04-22T13:31:53.297Z</time></trkpt><trkpt lat="39.264445" lon="8.5187167"><ele>211.8</ele><time>2026-04-22T13:31:56.296Z</time></trkpt><trkpt lat="39.2644067" lon="8.5185817"><ele>210.60000000000002</ele><time>2026-04-22T13:31:58.297Z</time></trkpt><trkpt lat="39.2643983" lon="8.51843"><ele>209.39999999999998</ele><time>2026-04-22T13:32:00.297Z</time></trkpt><trkpt lat="39.2644117" lon="8.5182767"><ele>208.2</ele><time>2026-04-22T13:32:02.297Z</time></trkpt><trkpt lat="39.264415" lon="8.51815"><ele>207.0</ele><time>2026-04-22T13:32:04.296Z</time></trkpt><trkpt lat="39.2643867" lon="8.51806"><ele>207.0</ele><time>2026-04-22T13:32:06.297Z</time></trkpt><trkpt lat="39.26431" lon="8.5179917"><ele>207.0</ele><time>2026-04-22T13:32:08.297Z</time></trkpt><trkpt lat="39.2642" lon="8.5179517"><ele>207.0</ele><time>2026-04-22T13:32:10.297Z</time></trkpt><trkpt lat="39.2641267" lon="8.5179383"><ele>207.0</ele><time>2026-04-22T13:32:11.296Z</time></trkpt><trkpt lat="39.26404" lon="8.51793"><ele>207.0</ele><time>2026-04-22T13:32:12.296Z</time></trkpt><trkpt lat="39.2639583" lon="8.5179217"><ele>206.0</ele><time>2026-04-22T13:32:13.297Z</time></trkpt><trkpt lat="39.2638833" lon="8.5179233"><ele>205.0</ele><time>2026-04-22T13:32:14.296Z</time></trkpt><trkpt lat="39.2637383" lon="8.5179"><ele>204.0</ele><time>2026-04-22T13:32:16.297Z</time></trkpt><trkpt lat="39.2636667" lon="8.51788"><ele>203.0</ele><time>2026-04-22T13:32:17.297Z</time></trkpt><trkpt lat="39.2635983" lon="8.5178483"><ele>202.0</ele><time>2026-04-22T13:32:18.297Z</time></trkpt><trkpt lat="39.2635267" lon="8.5178217"><ele>201.0</ele><time>2026-04-22T13:32:19.297Z</time></trkpt><trkpt lat="39.2634633" lon="8.5177967"><ele>201.0</ele><time>2026-04-22T13:32:20.296Z</time></trkpt><trkpt lat="39.263405" lon="8.517755"><ele>201.0</ele><time>2026-04-22T13:32:21.297Z</time></trkpt><trkpt lat="39.2633483" lon="8.5176917"><ele>201.0</ele><time>2026-04-22T13:32:22.297Z</time></trkpt><trkpt lat="39.2632983" lon="8.517615"><ele>201.0</ele><time>2026-04-22T13:32:23.297Z</time></trkpt><trkpt lat="39.2632567" lon="8.5175367"><ele>201.0</ele><time>2026-04-22T13:32:24.297Z</time></trkpt><trkpt lat="39.2632267" lon="8.517455"><ele>201.0</ele><time>2026-04-22T13:32:25.296Z</time></trkpt><trkpt lat="39.2632017" lon="8.5173483"><ele>201.0</ele><time>2026-04-22T13:32:26.297Z</time></trkpt><trkpt lat="39.2631817" lon="8.5172317"><ele>201.0</ele><time>2026-04-22T13:32:27.297Z</time></trkpt><trkpt lat="39.2631567" lon="8.517105"><ele>201.0</ele><time>2026-04-22T13:32:28.297Z</time></trkpt><trkpt lat="39.26314" lon="8.5169867"><ele>201.0</ele><time>2026-04-22T13:32:29.297Z</time></trkpt><trkpt lat="39.2631117" lon="8.5168817"><ele>201.0</ele><time>2026-04-22T13:32:30.297Z</time></trkpt><trkpt lat="39.263075" lon="8.5167783"><ele>201.0</ele><time>2026-04-22T13:32:31.297Z</time></trkpt><trkpt lat="39.2630267" lon="8.5166783"><ele>201.5</ele><time>2026-04-22T13:32:32.297Z</time></trkpt><trkpt lat="39.262975" lon="8.5165717"><ele>202.0</ele><time>2026-04-22T13:32:33.297Z</time></trkpt><trkpt lat="39.262935" lon="8.5164667"><ele>202.5</ele><time>2026-04-22T13:32:34.297Z</time></trkpt><trkpt lat="39.2628917" lon="8.5163533"><ele>203.0</ele><time>2026-04-22T13:32:35.297Z</time></trkpt><trkpt lat="39.2628217" lon="8.5161383"><ele>202.14285714285714</ele><time>2026-04-22T13:32:37.297Z</time></trkpt><trkpt lat="39.2627917" lon="8.5160383"><ele>201.28571428571428</ele><time>2026-04-22T13:32:38.297Z</time></trkpt><trkpt lat="39.262765" lon="8.51595"><ele>200.42857142857144</ele><time>2026-04-22T13:32:39.296Z</time></trkpt><trkpt lat="39.262735" lon="8.5158733"><ele>199.57142857142856</ele><time>2026-04-22T13:32:40.297Z</time></trkpt><trkpt lat="39.2626917" lon="8.5157983"><ele>198.71428571428572</ele><time>2026-04-22T13:32:41.297Z</time></trkpt><trkpt lat="39.2626433" lon="8.5157133"><ele>197.85714285714286</ele><time>2026-04-22T13:32:42.297Z</time></trkpt><trkpt lat="39.26261" lon="8.515635"><ele>197.0</ele><time>2026-04-22T13:32:43.296Z</time></trkpt><trkpt lat="39.2625833" lon="8.5155567"><ele>197.00000000000003</ele><time>2026-04-22T13:32:44.297Z</time></trkpt><trkpt lat="39.262505" lon="8.5154433"><ele>197.0</ele><time>2026-04-22T13:32:46.296Z</time></trkpt><trkpt lat="39.262445" lon="8.5154033"><ele>197.0</ele><time>2026-04-22T13:32:47.297Z</time></trkpt><trkpt lat="39.2623817" lon="8.515375"><ele>197.0</ele><time>2026-04-22T13:32:48.297Z</time></trkpt><trkpt lat="39.2623183" lon="8.5153483"><ele>197.00000000000003</ele><time>2026-04-22T13:32:49.297Z</time></trkpt><trkpt lat="39.262215" lon="8.5152783"><ele>197.0</ele><time>2026-04-22T13:32:51.297Z</time></trkpt><trkpt lat="39.2621333" lon="8.515135"><ele>197.00000000000003</ele><time>2026-04-22T13:32:53.297Z</time></trkpt><trkpt lat="39.2620867" lon="8.5150567"><ele>197.0</ele><time>2026-04-22T13:32:54.296Z</time></trkpt><trkpt lat="39.2620483" lon="8.5149767"><ele>197.0</ele><time>2026-04-22T13:32:55.296Z</time></trkpt><trkpt lat="39.2620183" lon="8.5148933"><ele>197.0</ele><time>2026-04-22T13:32:56.296Z</time></trkpt><trkpt lat="39.26199" lon="8.5147233"><ele>197.00000000000003</ele><time>2026-04-22T13:32:58.296Z</time></trkpt><trkpt lat="39.2619917" lon="8.514625"><ele>197.0</ele><time>2026-04-22T13:32:59.297Z</time></trkpt><trkpt lat="39.262" lon="8.5145267"><ele>197.00000000000003</ele><time>2026-04-22T13:33:00.297Z</time></trkpt><trkpt lat="39.2620083" lon="8.5144383"><ele>197.0</ele><time>2026-04-22T13:33:01.297Z</time></trkpt><trkpt lat="39.261995" lon="8.5143417"><ele>197.0</ele><time>2026-04-22T13:33:02.297Z</time></trkpt><trkpt lat="39.2619683" lon="8.514235"><ele>197.0</ele><time>2026-04-22T13:33:03.296Z</time></trkpt><trkpt lat="39.2619233" lon="8.5141217"><ele>197.00000000000003</ele><time>2026-04-22T13:33:04.296Z</time></trkpt><trkpt lat="39.261885" lon="8.51402"><ele>197.0</ele><time>2026-04-22T13:33:05.296Z</time></trkpt><trkpt lat="39.261855" lon="8.513925"><ele>197.00000000000003</ele><time>2026-04-22T13:33:06.297Z</time></trkpt><trkpt lat="39.2618317" lon="8.5138217"><ele>197.0</ele><time>2026-04-22T13:33:07.296Z</time></trkpt><trkpt lat="39.2618133" lon="8.5137117"><ele>197.0</ele><time>2026-04-22T13:33:08.297Z</time></trkpt><trkpt lat="39.2617983" lon="8.5136017"><ele>197.0</ele><time>2026-04-22T13:33:09.297Z</time></trkpt><trkpt lat="39.26177" lon="8.5135067"><ele>197.00000000000003</ele><time>2026-04-22T13:33:10.296Z</time></trkpt><trkpt lat="39.2617283" lon="8.513425"><ele>197.0</ele><time>2026-04-22T13:33:11.296Z</time></trkpt><trkpt lat="39.2616733" lon="8.513335"><ele>198.0</ele><time>2026-04-22T13:33:12.297Z</time></trkpt><trkpt lat="39.26161" lon="8.5132467"><ele>199.0</ele><time>2026-04-22T13:33:13.296Z</time></trkpt><trkpt lat="39.2615333" lon="8.5131483"><ele>200.0</ele><time>2026-04-22T13:33:14.296Z</time></trkpt><trkpt lat="39.261455" lon="8.5130517"><ele>201.0</ele><time>2026-04-22T13:33:15.297Z</time></trkpt><trkpt lat="39.2613767" lon="8.512945"><ele>202.0</ele><time>2026-04-22T13:33:16.297Z</time></trkpt><trkpt lat="39.2613067" lon="8.5128567"><ele>198.8</ele><time>2026-04-22T13:33:17.296Z</time></trkpt><trkpt lat="39.2611733" lon="8.512715"><ele>195.6</ele><time>2026-04-22T13:33:19.297Z</time></trkpt><trkpt lat="39.2611133" lon="8.51267"><ele>192.4</ele><time>2026-04-22T13:33:20.297Z</time></trkpt><trkpt lat="39.2610417" lon="8.5126433"><ele>189.20000000000002</ele><time>2026-04-22T13:33:21.297Z</time></trkpt><trkpt lat="39.2609717" lon="8.5126267"><ele>186.0</ele><time>2026-04-22T13:33:22.297Z</time></trkpt><trkpt lat="39.260905" lon="8.512605"><ele>186.0</ele><time>2026-04-22T13:33:23.297Z</time></trkpt><trkpt lat="39.260785" lon="8.5125383"><ele>186.0</ele><time>2026-04-22T13:33:25.297Z</time></trkpt><trkpt lat="39.2606917" lon="8.512435"><ele>186.0</ele><time>2026-04-22T13:33:27.296Z</time></trkpt><trkpt lat="39.2606417" lon="8.512365"><ele>186.0</ele><time>2026-04-22T13:33:28.297Z</time></trkpt><trkpt lat="39.26058" lon="8.5122817"><ele>186.0</ele><time>2026-04-22T13:33:29.297Z</time></trkpt><trkpt lat="39.2605167" lon="8.51221"><ele>187.33333333333334</ele><time>2026-04-22T13:33:30.296Z</time></trkpt><trkpt lat="39.260465" lon="8.5121383"><ele>188.66666666666669</ele><time>2026-04-22T13:33:31.297Z</time></trkpt><trkpt lat="39.2604167" lon="8.5120617"><ele>190.0</ele><time>2026-04-22T13:33:32.297Z</time></trkpt><trkpt lat="39.2603733" lon="8.5119783"><ele>191.33333333333334</ele><time>2026-04-22T13:33:33.296Z</time></trkpt><trkpt lat="39.2603383" lon="8.511895"><ele>192.66666666666669</ele><time>2026-04-22T13:33:34.296Z</time></trkpt><trkpt lat="39.2603017" lon="8.511755"><ele>194.0</ele><time>2026-04-22T13:33:36.297Z</time></trkpt><trkpt lat="39.2603067" lon="8.51163"><ele>194.0</ele><time>2026-04-22T13:33:38.297Z</time></trkpt><trkpt lat="39.2603167" lon="8.51133"><ele>194.0</ele><time>2026-04-22T13:33:42.297Z</time></trkpt><trkpt lat="39.2602817" lon="8.5112433"><ele>194.0</ele><time>2026-04-22T13:33:43.297Z</time></trkpt><trkpt lat="39.2602283" lon="8.51113"><ele>194.0</ele><time>2026-04-22T13:33:45.296Z</time></trkpt><trkpt lat="39.2601417" lon="8.511035"><ele>193.50000000000003</ele><time>2026-04-22T13:33:47.297Z</time></trkpt><trkpt lat="39.2600383" lon="8.5109383"><ele>193.0</ele><time>2026-04-22T13:33:49.297Z</time></trkpt><trkpt lat="39.2599817" lon="8.5108883"><ele>192.5</ele><time>2026-04-22T13:33:50.297Z</time></trkpt><trkpt lat="39.2599217" lon="8.5108367"><ele>192.0</ele><time>2026-04-22T13:33:51.296Z</time></trkpt><trkpt lat="39.2598667" lon="8.5107817"><ele>191.5</ele><time>2026-04-22T13:33:52.297Z</time></trkpt><trkpt lat="39.2598083" lon="8.510725"><ele>191.0</ele><time>2026-04-22T13:33:53.296Z</time></trkpt><trkpt lat="39.259745" lon="8.5106683"><ele>191.0</ele><time>2026-04-22T13:33:54.297Z</time></trkpt><trkpt lat="39.2596767" lon="8.5106017"><ele>191.0</ele><time>2026-04-22T13:33:55.296Z</time></trkpt><trkpt lat="39.2596033" lon="8.5105383"><ele>191.0</ele><time>2026-04-22T13:33:56.297Z</time></trkpt><trkpt lat="39.2595267" lon="8.5104817"><ele>191.0</ele><time>2026-04-22T13:33:57.297Z</time></trkpt><trkpt lat="39.2594483" lon="8.5104333"><ele>191.0</ele><time>2026-04-22T13:33:58.297Z</time></trkpt><trkpt lat="39.2593633" lon="8.5104067"><ele>191.0</ele><time>2026-04-22T13:33:59.297Z</time></trkpt><trkpt lat="39.25918" lon="8.5103733"><ele>189.0</ele><time>2026-04-22T13:34:01.297Z</time></trkpt><trkpt lat="39.25908" lon="8.51037"><ele>187.0</ele><time>2026-04-22T13:34:02.297Z</time></trkpt><trkpt lat="39.2589783" lon="8.5103817"><ele>185.0</ele><time>2026-04-22T13:34:03.296Z</time></trkpt><trkpt lat="39.2588717" lon="8.5103967"><ele>183.0</ele><time>2026-04-22T13:34:04.297Z</time></trkpt><trkpt lat="39.25876" lon="8.510415"><ele>181.0</ele><time>2026-04-22T13:34:05.296Z</time></trkpt><trkpt lat="39.25864" lon="8.5104283"><ele>181.0</ele><time>2026-04-22T13:34:06.297Z</time></trkpt><trkpt lat="39.2585333" lon="8.5104567"><ele>181.0</ele><time>2026-04-22T13:34:07.297Z</time></trkpt><trkpt lat="39.25843" lon="8.5104917"><ele>181.0</ele><time>2026-04-22T13:34:08.296Z</time></trkpt><trkpt lat="39.2583333" lon="8.5105133"><ele>181.0</ele><time>2026-04-22T13:34:09.297Z</time></trkpt><trkpt lat="39.2582367" lon="8.5105283"><ele>181.0</ele><time>2026-04-22T13:34:10.297Z</time></trkpt><trkpt lat="39.2581383" lon="8.51054"><ele>180.66666666666669</ele><time>2026-04-22T13:34:11.297Z</time></trkpt><trkpt lat="39.2580383" lon="8.510555"><ele>180.33333333333334</ele><time>2026-04-22T13:34:12.297Z</time></trkpt><trkpt lat="39.2579483" lon="8.51057"><ele>180.0</ele><time>2026-04-22T13:34:13.297Z</time></trkpt><trkpt lat="39.2578717" lon="8.5105883"><ele>179.66666666666666</ele><time>2026-04-22T13:34:14.297Z</time></trkpt><trkpt lat="39.257795" lon="8.51058"><ele>179.33333333333331</ele><time>2026-04-22T13:34:15.296Z</time></trkpt><trkpt lat="39.25773" lon="8.5105483"><ele>179.0</ele><time>2026-04-22T13:34:16.297Z</time></trkpt><trkpt lat="39.25767" lon="8.5105083"><ele>179.0</ele><time>2026-04-22T13:34:17.296Z</time></trkpt><trkpt lat="39.25761" lon="8.510435"><ele>179.0</ele><time>2026-04-22T13:34:18.296Z</time></trkpt><trkpt lat="39.25752" lon="8.5103817"><ele>179.0</ele><time>2026-04-22T13:34:20.297Z</time></trkpt><trkpt lat="39.2575967" lon="8.5105967"><ele>179.0</ele><time>2026-04-22T13:34:25.296Z</time></trkpt><trkpt lat="39.2576583" lon="8.5106733"><ele>179.0</ele><time>2026-04-22T13:34:26.297Z</time></trkpt><trkpt lat="39.2577283" lon="8.5107767"><ele>179.0</ele><time>2026-04-22T13:34:27.297Z</time></trkpt><trkpt lat="39.25779" lon="8.5108933"><ele>179.0</ele><time>2026-04-22T13:34:28.297Z</time></trkpt><trkpt lat="39.25784" lon="8.5110317"><ele>179.0</ele><time>2026-04-22T13:34:29.296Z</time></trkpt><trkpt lat="39.2578633" lon="8.5111933"><ele>181.25</ele><time>2026-04-22T13:34:30.297Z</time></trkpt><trkpt lat="39.2578667" lon="8.5113617"><ele>183.5</ele><time>2026-04-22T13:34:31.297Z</time></trkpt><trkpt lat="39.25784" lon="8.51154"><ele>185.75</ele><time>2026-04-22T13:34:32.297Z</time></trkpt><trkpt lat="39.2577983" lon="8.511735"><ele>188.0</ele><time>2026-04-22T13:34:33.296Z</time></trkpt><trkpt lat="39.257755" lon="8.5119067"><ele>188.5</ele><time>2026-04-22T13:34:34.297Z</time></trkpt><trkpt lat="39.2577" lon="8.5120733"><ele>189.0</ele><time>2026-04-22T13:34:35.296Z</time></trkpt><trkpt lat="39.25764" lon="8.5122383"><ele>189.5</ele><time>2026-04-22T13:34:36.297Z</time></trkpt><trkpt lat="39.25756" lon="8.512395"><ele>190.0</ele><time>2026-04-22T13:34:37.297Z</time></trkpt><trkpt lat="39.2574783" lon="8.5125483"><ele>190.0</ele><time>2026-04-22T13:34:38.297Z</time></trkpt><trkpt lat="39.2574" lon="8.5126833"><ele>190.0</ele><time>2026-04-22T13:34:39.297Z</time></trkpt><trkpt lat="39.2573267" lon="8.5128117"><ele>190.0</ele><time>2026-04-22T13:34:40.296Z</time></trkpt><trkpt lat="39.2572567" lon="8.51292"><ele>190.0</ele><time>2026-04-22T13:34:41.296Z</time></trkpt><trkpt lat="39.257085" lon="8.5130683"><ele>192.25</ele><time>2026-04-22T13:34:43.297Z</time></trkpt><trkpt lat="39.2569717" lon="8.5131167"><ele>194.5</ele><time>2026-04-22T13:34:44.297Z</time></trkpt><trkpt lat="39.2568433" lon="8.5131617"><ele>196.75</ele><time>2026-04-22T13:34:45.296Z</time></trkpt><trkpt lat="39.2567067" lon="8.5132183"><ele>199.0</ele><time>2026-04-22T13:34:46.296Z</time></trkpt><trkpt lat="39.2565683" lon="8.5132867"><ele>204.33333333333331</ele><time>2026-04-22T13:34:47.297Z</time></trkpt><trkpt lat="39.2564267" lon="8.5133617"><ele>209.66666666666669</ele><time>2026-04-22T13:34:48.297Z</time></trkpt><trkpt lat="39.2562833" lon="8.5134567"><ele>215.0</ele><time>2026-04-22T13:34:49.297Z</time></trkpt><trkpt lat="39.2561483" lon="8.5135633"><ele>215.0</ele><time>2026-04-22T13:34:50.296Z</time></trkpt><trkpt lat="39.25602" lon="8.5136733"><ele>215.0</ele><time>2026-04-22T13:34:51.297Z</time></trkpt><trkpt lat="39.255895" lon="8.51377"><ele>215.0</ele><time>2026-04-22T13:34:52.297Z</time></trkpt><trkpt lat="39.255765" lon="8.513865"><ele>215.0</ele><time>2026-04-22T13:34:53.296Z</time></trkpt><trkpt lat="39.2556467" lon="8.5139433"><ele>214.8</ele><time>2026-04-22T13:34:54.297Z</time></trkpt><trkpt lat="39.255535" lon="8.5140183"><ele>214.6</ele><time>2026-04-22T13:34:55.297Z</time></trkpt><trkpt lat="39.255435" lon="8.514085"><ele>214.39999999999998</ele><time>2026-04-22T13:34:56.296Z</time></trkpt><trkpt lat="39.2553583" lon="8.5141467"><ele>214.2</ele><time>2026-04-22T13:34:57.296Z</time></trkpt><trkpt lat="39.2553017" lon="8.5142283"><ele>214.0</ele><time>2026-04-22T13:34:58.296Z</time></trkpt><trkpt lat="39.255275" lon="8.5143217"><ele>214.0</ele><time>2026-04-22T13:34:59.295Z</time></trkpt><trkpt lat="39.255275" lon="8.5144267"><ele>213.99999999999997</ele><time>2026-04-22T13:35:00.296Z</time></trkpt><trkpt lat="39.2552867" lon="8.5145317"><ele>213.99999999999997</ele><time>2026-04-22T13:35:01.296Z</time></trkpt><trkpt lat="39.2552983" lon="8.5146283"><ele>214.0</ele><time>2026-04-22T13:35:02.296Z</time></trkpt><trkpt lat="39.2553017" lon="8.514835"><ele>214.0</ele><time>2026-04-22T13:35:04.295Z</time></trkpt><trkpt lat="39.2552867" lon="8.5149467"><ele>213.79999999999998</ele><time>2026-04-22T13:35:05.295Z</time></trkpt><trkpt lat="39.2552517" lon="8.5150567"><ele>213.59999999999997</ele><time>2026-04-22T13:35:06.296Z</time></trkpt><trkpt lat="39.255195" lon="8.5151667"><ele>213.4</ele><time>2026-04-22T13:35:07.296Z</time></trkpt><trkpt lat="39.2551233" lon="8.5152767"><ele>213.2</ele><time>2026-04-22T13:35:08.296Z</time></trkpt><trkpt lat="39.2550333" lon="8.5153783"><ele>213.0</ele><time>2026-04-22T13:35:09.295Z</time></trkpt><trkpt lat="39.25493" lon="8.5154633"><ele>213.0</ele><time>2026-04-22T13:35:10.296Z</time></trkpt><trkpt lat="39.254845" lon="8.515555"><ele>213.0</ele><time>2026-04-22T13:35:11.296Z</time></trkpt><trkpt lat="39.2547917" lon="8.5156533"><ele>213.0</ele><time>2026-04-22T13:35:12.296Z</time></trkpt><trkpt lat="39.254765" lon="8.515765"><ele>213.0</ele><time>2026-04-22T13:35:13.295Z</time></trkpt><trkpt lat="39.2547367" lon="8.515875"><ele>213.0</ele><time>2026-04-22T13:35:14.295Z</time></trkpt><trkpt lat="39.2546933" lon="8.5159717"><ele>214.33333333333334</ele><time>2026-04-22T13:35:15.295Z</time></trkpt><trkpt lat="39.2546433" lon="8.516055"><ele>215.66666666666669</ele><time>2026-04-22T13:35:16.295Z</time></trkpt><trkpt lat="39.254595" lon="8.51613"><ele>217.0</ele><time>2026-04-22T13:35:17.296Z</time></trkpt><trkpt lat="39.25454" lon="8.51622"><ele>218.33333333333334</ele><time>2026-04-22T13:35:19.296Z</time></trkpt><trkpt lat="39.2545167" lon="8.5163017"><ele>219.66666666666669</ele><time>2026-04-22T13:35:21.296Z</time></trkpt><trkpt lat="39.2545167" lon="8.5164683"><ele>221.0</ele><time>2026-04-22T13:35:23.295Z</time></trkpt><trkpt lat="39.254555" lon="8.51672"><ele>221.0</ele><time>2026-04-22T13:35:25.296Z</time></trkpt><trkpt lat="39.2545833" lon="8.51687"><ele>221.00000000000003</ele><time>2026-04-22T13:35:26.296Z</time></trkpt><trkpt lat="39.254615" lon="8.5170183"><ele>221.00000000000003</ele><time>2026-04-22T13:35:27.296Z</time></trkpt><trkpt lat="39.2546633" lon="8.5171333"><ele>221.0</ele><time>2026-04-22T13:35:28.295Z</time></trkpt><trkpt lat="39.25472" lon="8.5172283"><ele>221.0</ele><time>2026-04-22T13:35:29.295Z</time></trkpt><trkpt lat="39.25478" lon="8.5172967"><ele>222.60000000000002</ele><time>2026-04-22T13:35:30.296Z</time></trkpt><trkpt lat="39.2548517" lon="8.5173567"><ele>224.20000000000002</ele><time>2026-04-22T13:35:31.295Z</time></trkpt><trkpt lat="39.25493" lon="8.5173983"><ele>225.79999999999998</ele><time>2026-04-22T13:35:32.296Z</time></trkpt><trkpt lat="39.2550217" lon="8.51742"><ele>227.39999999999998</ele><time>2026-04-22T13:35:33.295Z</time></trkpt><trkpt lat="39.2551183" lon="8.5174283"><ele>229.0</ele><time>2026-04-22T13:35:34.296Z</time></trkpt><trkpt lat="39.2552117" lon="8.517425"><ele>229.0</ele><time>2026-04-22T13:35:35.296Z</time></trkpt><trkpt lat="39.2553033" lon="8.5174033"><ele>228.99999999999997</ele><time>2026-04-22T13:35:36.295Z</time></trkpt><trkpt lat="39.255395" lon="8.5173667"><ele>228.99999999999997</ele><time>2026-04-22T13:35:37.296Z</time></trkpt><trkpt lat="39.25548" lon="8.517325"><ele>229.0</ele><time>2026-04-22T13:35:38.295Z</time></trkpt><trkpt lat="39.2555717" lon="8.5172767"><ele>229.0</ele><time>2026-04-22T13:35:39.296Z</time></trkpt><trkpt lat="39.2556617" lon="8.5172567"><ele>229.39999999999998</ele><time>2026-04-22T13:35:40.296Z</time></trkpt><trkpt lat="39.2557467" lon="8.517265"><ele>229.79999999999998</ele><time>2026-04-22T13:35:41.295Z</time></trkpt><trkpt lat="39.2558333" lon="8.5173167"><ele>230.20000000000002</ele><time>2026-04-22T13:35:42.295Z</time></trkpt><trkpt lat="39.25592" lon="8.5173917"><ele>230.60000000000002</ele><time>2026-04-22T13:35:43.296Z</time></trkpt><trkpt lat="39.2559983" lon="8.5174683"><ele>231.0</ele><time>2026-04-22T13:35:44.296Z</time></trkpt><trkpt lat="39.2561033" lon="8.517655"><ele>231.0</ele><time>2026-04-22T13:35:46.296Z</time></trkpt><trkpt lat="39.256115" lon="8.5177683"><ele>231.00000000000003</ele><time>2026-04-22T13:35:47.296Z</time></trkpt><trkpt lat="39.2560933" lon="8.5178933"><ele>231.00000000000003</ele><time>2026-04-22T13:35:48.296Z</time></trkpt><trkpt lat="39.2560467" lon="8.5180333"><ele>231.0</ele><time>2026-04-22T13:35:49.295Z</time></trkpt><trkpt lat="39.2559867" lon="8.5181833"><ele>231.0</ele><time>2026-04-22T13:35:50.296Z</time></trkpt><trkpt lat="39.2559233" lon="8.518345"><ele>231.25</ele><time>2026-04-22T13:35:51.296Z</time></trkpt><trkpt lat="39.255875" lon="8.5185117"><ele>231.5</ele><time>2026-04-22T13:35:52.296Z</time></trkpt><trkpt lat="39.2558267" lon="8.518685"><ele>231.75</ele><time>2026-04-22T13:35:53.296Z</time></trkpt><trkpt lat="39.25579" lon="8.5188633"><ele>232.0</ele><time>2026-04-22T13:35:54.295Z</time></trkpt><trkpt lat="39.2557617" lon="8.5190267"><ele>233.75</ele><time>2026-04-22T13:35:55.296Z</time></trkpt><trkpt lat="39.2557417" lon="8.5191917"><ele>235.5</ele><time>2026-04-22T13:35:56.296Z</time></trkpt><trkpt lat="39.2557333" lon="8.5193717"><ele>237.25</ele><time>2026-04-22T13:35:57.296Z</time></trkpt><trkpt lat="39.2557317" lon="8.5195583"><ele>239.0</ele><time>2026-04-22T13:35:58.296Z</time></trkpt><trkpt lat="39.2557317" lon="8.5197383"><ele>239.0</ele><time>2026-04-22T13:35:59.296Z</time></trkpt><trkpt lat="39.2557333" lon="8.5199317"><ele>239.0</ele><time>2026-04-22T13:36:00.296Z</time></trkpt><trkpt lat="39.2557333" lon="8.5201167"><ele>239.0</ele><time>2026-04-22T13:36:01.295Z</time></trkpt><trkpt lat="39.2557383" lon="8.520305"><ele>239.0</ele><time>2026-04-22T13:36:02.296Z</time></trkpt><trkpt lat="39.2557467" lon="8.5205"><ele>239.0</ele><time>2026-04-22T13:36:03.296Z</time></trkpt><trkpt lat="39.2557517" lon="8.5206833"><ele>239.0</ele><time>2026-04-22T13:36:04.296Z</time></trkpt><trkpt lat="39.2557633" lon="8.5208467"><ele>239.0</ele><time>2026-04-22T13:36:05.296Z</time></trkpt><trkpt lat="39.2557883" lon="8.5211733"><ele>239.0</ele><time>2026-04-22T13:36:07.296Z</time></trkpt><trkpt lat="39.255805" lon="8.5213383"><ele>239.0</ele><time>2026-04-22T13:36:08.296Z</time></trkpt><trkpt lat="39.2558033" lon="8.5215"><ele>239.0</ele><time>2026-04-22T13:36:09.295Z</time></trkpt><trkpt lat="39.2558" lon="8.52167"><ele>239.0</ele><time>2026-04-22T13:36:10.296Z</time></trkpt><trkpt lat="39.2557933" lon="8.52184"><ele>239.0</ele><time>2026-04-22T13:36:11.296Z</time></trkpt><trkpt lat="39.25578" lon="8.5219933"><ele>239.0</ele><time>2026-04-22T13:36:12.296Z</time></trkpt><trkpt lat="39.2557683" lon="8.5221467"><ele>239.0</ele><time>2026-04-22T13:36:13.295Z</time></trkpt><trkpt lat="39.2557533" lon="8.5223133"><ele>239.0</ele><time>2026-04-22T13:36:14.296Z</time></trkpt><trkpt lat="39.2557267" lon="8.5224867"><ele>240.33333333333334</ele><time>2026-04-22T13:36:15.296Z</time></trkpt><trkpt lat="39.2556983" lon="8.522675"><ele>241.66666666666669</ele><time>2026-04-22T13:36:16.296Z</time></trkpt><trkpt lat="39.2556683" lon="8.5228767"><ele>243.0</ele><time>2026-04-22T13:36:17.295Z</time></trkpt><trkpt lat="39.2556383" lon="8.523085"><ele>232.66666666666669</ele><time>2026-04-22T13:36:18.295Z</time></trkpt><trkpt lat="39.2556067" lon="8.5232917"><ele>222.33333333333334</ele><time>2026-04-22T13:36:19.296Z</time></trkpt><trkpt lat="39.2555733" lon="8.52349"><ele>212.0</ele><time>2026-04-22T13:36:20.296Z</time></trkpt><trkpt lat="39.2555333" lon="8.5236817"><ele>213.75</ele><time>2026-04-22T13:36:21.296Z</time></trkpt><trkpt lat="39.2554983" lon="8.5238533"><ele>215.5</ele><time>2026-04-22T13:36:22.296Z</time></trkpt><trkpt lat="39.25546" lon="8.5240217"><ele>217.25</ele><time>2026-04-22T13:36:23.295Z</time></trkpt><trkpt lat="39.2554183" lon="8.52419"><ele>219.0</ele><time>2026-04-22T13:36:24.296Z</time></trkpt><trkpt lat="39.255365" lon="8.5243533"><ele>219.0</ele><time>2026-04-22T13:36:25.296Z</time></trkpt><trkpt lat="39.25531" lon="8.5245117"><ele>219.0</ele><time>2026-04-22T13:36:26.296Z</time></trkpt><trkpt lat="39.2551883" lon="8.5248283"><ele>219.0</ele><time>2026-04-22T13:36:28.296Z</time></trkpt><trkpt lat="39.255135" lon="8.5249833"><ele>220.25</ele><time>2026-04-22T13:36:29.296Z</time></trkpt><trkpt lat="39.255085" lon="8.52514"><ele>221.5</ele><time>2026-04-22T13:36:30.296Z</time></trkpt><trkpt lat="39.255035" lon="8.5252933"><ele>222.75</ele><time>2026-04-22T13:36:31.296Z</time></trkpt><trkpt lat="39.254985" lon="8.5254433"><ele>224.0</ele><time>2026-04-22T13:36:32.296Z</time></trkpt><trkpt lat="39.254935" lon="8.5255933"><ele>224.0</ele><time>2026-04-22T13:36:33.296Z</time></trkpt><trkpt lat="39.254885" lon="8.52575"><ele>224.0</ele><time>2026-04-22T13:36:34.296Z</time></trkpt><trkpt lat="39.2548233" lon="8.52591"><ele>224.0</ele><time>2026-04-22T13:36:35.296Z</time></trkpt><trkpt lat="39.2547517" lon="8.5260667"><ele>224.0</ele><time>2026-04-22T13:36:36.295Z</time></trkpt><trkpt lat="39.2546733" lon="8.5262083"><ele>217.25</ele><time>2026-04-22T13:36:37.296Z</time></trkpt><trkpt lat="39.2545867" lon="8.5263467"><ele>210.5</ele><time>2026-04-22T13:36:38.296Z</time></trkpt><trkpt lat="39.2545133" lon="8.5264783"><ele>203.75</ele><time>2026-04-22T13:36:39.296Z</time></trkpt><trkpt lat="39.2544517" lon="8.52661"><ele>197.0</ele><time>2026-04-22T13:36:40.295Z</time></trkpt><trkpt lat="39.254395" lon="8.5267483"><ele>197.0</ele><time>2026-04-22T13:36:41.296Z</time></trkpt><trkpt lat="39.2543383" lon="8.5268833"><ele>197.0</ele><time>2026-04-22T13:36:42.296Z</time></trkpt><trkpt lat="39.25428" lon="8.5270267"><ele>197.0</ele><time>2026-04-22T13:36:43.296Z</time></trkpt><trkpt lat="39.2542317" lon="8.52717"><ele>197.0</ele><time>2026-04-22T13:36:44.296Z</time></trkpt><trkpt lat="39.25418" lon="8.5273217"><ele>197.0</ele><time>2026-04-22T13:36:45.296Z</time></trkpt><trkpt lat="39.2541217" lon="8.5274667"><ele>197.0</ele><time>2026-04-22T13:36:46.296Z</time></trkpt><trkpt lat="39.2540667" lon="8.527605"><ele>197.0</ele><time>2026-04-22T13:36:47.296Z</time></trkpt><trkpt lat="39.25394" lon="8.5278917"><ele>192.0</ele><time>2026-04-22T13:36:49.296Z</time></trkpt><trkpt lat="39.253875" lon="8.5280433"><ele>187.0</ele><time>2026-04-22T13:36:50.296Z</time></trkpt><trkpt lat="39.2538183" lon="8.5281967"><ele>182.0</ele><time>2026-04-22T13:36:51.296Z</time></trkpt><trkpt lat="39.2537733" lon="8.5283583"><ele>177.0</ele><time>2026-04-22T13:36:52.296Z</time></trkpt><trkpt lat="39.2537317" lon="8.5285167"><ele>177.0</ele><time>2026-04-22T13:36:53.295Z</time></trkpt><trkpt lat="39.2536817" lon="8.52867"><ele>177.0</ele><time>2026-04-22T13:36:54.295Z</time></trkpt><trkpt lat="39.2536217" lon="8.528825"><ele>177.0</ele><time>2026-04-22T13:36:55.295Z</time></trkpt><trkpt lat="39.2535583" lon="8.5289567"><ele>177.0</ele><time>2026-04-22T13:36:56.296Z</time></trkpt><trkpt lat="39.25348" lon="8.5290867"><ele>176.0</ele><time>2026-04-22T13:36:57.296Z</time></trkpt><trkpt lat="39.2533833" lon="8.5292167"><ele>175.0</ele><time>2026-04-22T13:36:58.296Z</time></trkpt><trkpt lat="39.2532817" lon="8.529345"><ele>174.0</ele><time>2026-04-22T13:36:59.296Z</time></trkpt><trkpt lat="39.2531833" lon="8.5294683"><ele>173.0</ele><time>2026-04-22T13:37:00.296Z</time></trkpt><trkpt lat="39.2530967" lon="8.52959"><ele>171.0</ele><time>2026-04-22T13:37:01.296Z</time></trkpt><trkpt lat="39.2530267" lon="8.5297267"><ele>169.0</ele><time>2026-04-22T13:37:02.296Z</time></trkpt><trkpt lat="39.2529817" lon="8.5298633"><ele>167.0</ele><time>2026-04-22T13:37:03.295Z</time></trkpt><trkpt lat="39.252965" lon="8.5299967"><ele>165.0</ele><time>2026-04-22T13:37:04.295Z</time></trkpt><trkpt lat="39.252975" lon="8.5301267"><ele>163.0</ele><time>2026-04-22T13:37:05.295Z</time></trkpt><trkpt lat="39.253005" lon="8.53025"><ele>163.0</ele><time>2026-04-22T13:37:06.296Z</time></trkpt><trkpt lat="39.2530383" lon="8.5303717"><ele>163.0</ele><time>2026-04-22T13:37:07.295Z</time></trkpt><trkpt lat="39.2530667" lon="8.530485"><ele>163.0</ele><time>2026-04-22T13:37:08.295Z</time></trkpt><trkpt lat="39.253095" lon="8.5306883"><ele>163.0</ele><time>2026-04-22T13:37:10.295Z</time></trkpt><trkpt lat="39.2530967" lon="8.530805"><ele>163.0</ele><time>2026-04-22T13:37:11.295Z</time></trkpt><trkpt lat="39.2530933" lon="8.5309283"><ele>162.4</ele><time>2026-04-22T13:37:12.295Z</time></trkpt><trkpt lat="39.2530717" lon="8.5310467"><ele>161.8</ele><time>2026-04-22T13:37:13.295Z</time></trkpt><trkpt lat="39.2530467" lon="8.5311733"><ele>161.2</ele><time>2026-04-22T13:37:14.296Z</time></trkpt><trkpt lat="39.2530183" lon="8.5313"><ele>160.6</ele><time>2026-04-22T13:37:15.295Z</time></trkpt><trkpt lat="39.2529833" lon="8.5314283"><ele>160.0</ele><time>2026-04-22T13:37:16.296Z</time></trkpt><trkpt lat="39.25295" lon="8.5315583"><ele>159.8</ele><time>2026-04-22T13:37:17.296Z</time></trkpt><trkpt lat="39.25292" lon="8.5316883"><ele>159.6</ele><time>2026-04-22T13:37:18.296Z</time></trkpt><trkpt lat="39.2529" lon="8.5318183"><ele>159.4</ele><time>2026-04-22T13:37:19.296Z</time></trkpt><trkpt lat="39.252885" lon="8.5319567"><ele>159.2</ele><time>2026-04-22T13:37:20.296Z</time></trkpt><trkpt lat="39.2528733" lon="8.5320967"><ele>159.0</ele><time>2026-04-22T13:37:21.295Z</time></trkpt><trkpt lat="39.25287" lon="8.5322217"><ele>158.83333333333334</ele><time>2026-04-22T13:37:22.295Z</time></trkpt><trkpt lat="39.25287" lon="8.5323417"><ele>158.66666666666666</ele><time>2026-04-22T13:37:23.296Z</time></trkpt><trkpt lat="39.2528783" lon="8.53245"><ele>158.5</ele><time>2026-04-22T13:37:24.296Z</time></trkpt><trkpt lat="39.2528883" lon="8.5325417"><ele>158.33333333333331</ele><time>2026-04-22T13:37:25.296Z</time></trkpt><trkpt lat="39.2528983" lon="8.5326417"><ele>158.16666666666666</ele><time>2026-04-22T13:37:26.296Z</time></trkpt><trkpt lat="39.2529017" lon="8.5327383"><ele>158.0</ele><time>2026-04-22T13:37:27.295Z</time></trkpt><trkpt lat="39.2529033" lon="8.5328333"><ele>157.6</ele><time>2026-04-22T13:37:28.296Z</time></trkpt><trkpt lat="39.2529017" lon="8.53293"><ele>157.20000000000002</ele><time>2026-04-22T13:37:29.296Z</time></trkpt><trkpt lat="39.252905" lon="8.5331133"><ele>156.8</ele><time>2026-04-22T13:37:31.296Z</time></trkpt><trkpt lat="39.252905" lon="8.5332167"><ele>156.4</ele><time>2026-04-22T13:37:32.295Z</time></trkpt><trkpt lat="39.2529033" lon="8.533325"><ele>156.0</ele><time>2026-04-22T13:37:33.296Z</time></trkpt><trkpt lat="39.2529083" lon="8.5334383"><ele>156.0</ele><time>2026-04-22T13:37:34.295Z</time></trkpt><trkpt lat="39.2529017" lon="8.53355"><ele>156.0</ele><time>2026-04-22T13:37:35.296Z</time></trkpt><trkpt lat="39.2528983" lon="8.5336633"><ele>156.0</ele><time>2026-04-22T13:37:36.296Z</time></trkpt><trkpt lat="39.25289" lon="8.5337817"><ele>156.0</ele><time>2026-04-22T13:37:37.295Z</time></trkpt><trkpt lat="39.2528733" lon="8.5338867"><ele>156.0</ele><time>2026-04-22T13:37:38.295Z</time></trkpt><trkpt lat="39.2528517" lon="8.53399"><ele>156.0</ele><time>2026-04-22T13:37:39.295Z</time></trkpt><trkpt lat="39.25282" lon="8.5340917"><ele>155.83333333333334</ele><time>2026-04-22T13:37:40.296Z</time></trkpt><trkpt lat="39.2527867" lon="8.5341883"><ele>155.66666666666666</ele><time>2026-04-22T13:37:41.295Z</time></trkpt><trkpt lat="39.2527517" lon="8.534285"><ele>155.5</ele><time>2026-04-22T13:37:42.295Z</time></trkpt><trkpt lat="39.2527083" lon="8.5343867"><ele>155.33333333333331</ele><time>2026-04-22T13:37:43.296Z</time></trkpt><trkpt lat="39.2526633" lon="8.5344917"><ele>155.16666666666666</ele><time>2026-04-22T13:37:44.295Z</time></trkpt><trkpt lat="39.252615" lon="8.5346067"><ele>155.0</ele><time>2026-04-22T13:37:45.295Z</time></trkpt><trkpt lat="39.2525733" lon="8.5347217"><ele>154.8</ele><time>2026-04-22T13:37:46.296Z</time></trkpt><trkpt lat="39.2525367" lon="8.53484"><ele>154.6</ele><time>2026-04-22T13:37:47.295Z</time></trkpt><trkpt lat="39.2524983" lon="8.534945"><ele>154.4</ele><time>2026-04-22T13:37:48.295Z</time></trkpt><trkpt lat="39.2524617" lon="8.5350417"><ele>154.2</ele><time>2026-04-22T13:37:49.295Z</time></trkpt><trkpt lat="39.2524267" lon="8.53513"><ele>154.0</ele><time>2026-04-22T13:37:50.295Z</time></trkpt><trkpt lat="39.2523667" lon="8.5352867"><ele>154.0</ele><time>2026-04-22T13:37:52.296Z</time></trkpt><trkpt lat="39.252335" lon="8.5353583"><ele>154.0</ele><time>2026-04-22T13:37:53.296Z</time></trkpt><trkpt lat="39.252305" lon="8.535435"><ele>154.0</ele><time>2026-04-22T13:37:54.296Z</time></trkpt><trkpt lat="39.2522717" lon="8.5355083"><ele>154.0</ele><time>2026-04-22T13:37:55.295Z</time></trkpt><trkpt lat="39.2522333" lon="8.535585"><ele>154.0</ele><time>2026-04-22T13:37:56.295Z</time></trkpt><trkpt lat="39.2522017" lon="8.5356667"><ele>154.0</ele><time>2026-04-22T13:37:57.296Z</time></trkpt><trkpt lat="39.252165" lon="8.5357367"><ele>154.0</ele><time>2026-04-22T13:37:58.296Z</time></trkpt><trkpt lat="39.25212" lon="8.53581"><ele>153.0</ele><time>2026-04-22T13:37:59.296Z</time></trkpt><trkpt lat="39.2520317" lon="8.53592"><ele>152.0</ele><time>2026-04-22T13:38:01.296Z</time></trkpt><trkpt lat="39.2519317" lon="8.5360083"><ele>151.0</ele><time>2026-04-22T13:38:03.296Z</time></trkpt><trkpt lat="39.2518683" lon="8.5360467"><ele>150.0</ele><time>2026-04-22T13:38:04.296Z</time></trkpt><trkpt lat="39.2518067" lon="8.5360783"><ele>149.0</ele><time>2026-04-22T13:38:05.296Z</time></trkpt><trkpt lat="39.2516967" lon="8.5361367"><ele>149.0</ele><time>2026-04-22T13:38:07.296Z</time></trkpt><trkpt lat="39.25164" lon="8.5361733"><ele>149.0</ele><time>2026-04-22T13:38:08.295Z</time></trkpt><trkpt lat="39.2515533" lon="8.5362317"><ele>149.0</ele><time>2026-04-22T13:38:10.296Z</time></trkpt><trkpt lat="39.2514783" lon="8.5362767"><ele>149.0</ele><time>2026-04-22T13:38:12.295Z</time></trkpt><trkpt lat="39.251295" lon="8.5363967"><ele>149.0</ele><time>2026-04-22T13:38:16.296Z</time></trkpt><trkpt lat="39.2512133" lon="8.5364583"><ele>146.75</ele><time>2026-04-22T13:38:18.296Z</time></trkpt><trkpt lat="39.2511383" lon="8.5365633"><ele>144.5</ele><time>2026-04-22T13:38:20.296Z</time></trkpt><trkpt lat="39.2510683" lon="8.5366617"><ele>142.25</ele><time>2026-04-22T13:38:22.296Z</time></trkpt><trkpt lat="39.2509817" lon="8.536755"><ele>140.0</ele><time>2026-04-22T13:38:24.296Z</time></trkpt><trkpt lat="39.2508583" lon="8.5368183"><ele>140.0</ele><time>2026-04-22T13:38:26.295Z</time></trkpt><trkpt lat="39.2507783" lon="8.5368383"><ele>140.0</ele><time>2026-04-22T13:38:27.296Z</time></trkpt><trkpt lat="39.2506867" lon="8.5368517"><ele>140.0</ele><time>2026-04-22T13:38:28.296Z</time></trkpt><trkpt lat="39.2505917" lon="8.536865"><ele>140.0</ele><time>2026-04-22T13:38:29.296Z</time></trkpt><trkpt lat="39.2504883" lon="8.53688"><ele>140.0</ele><time>2026-04-22T13:38:30.296Z</time></trkpt><trkpt lat="39.2503867" lon="8.5368917"><ele>138.0</ele><time>2026-04-22T13:38:31.296Z</time></trkpt><trkpt lat="39.2502867" lon="8.5369033"><ele>136.0</ele><time>2026-04-22T13:38:32.295Z</time></trkpt><trkpt lat="39.2501867" lon="8.5369183"><ele>134.0</ele><time>2026-04-22T13:38:33.296Z</time></trkpt><trkpt lat="39.25" lon="8.5369683"><ele>132.0</ele><time>2026-04-22T13:38:35.296Z</time></trkpt><trkpt lat="39.2499083" lon="8.5370067"><ele>132.4</ele><time>2026-04-22T13:38:36.296Z</time></trkpt><trkpt lat="39.24983" lon="8.5370533"><ele>132.79999999999998</ele><time>2026-04-22T13:38:37.295Z</time></trkpt><trkpt lat="39.2497567" lon="8.537135"><ele>133.2</ele><time>2026-04-22T13:38:38.295Z</time></trkpt><trkpt lat="39.2496817" lon="8.5372283"><ele>133.6</ele><time>2026-04-22T13:38:39.296Z</time></trkpt><trkpt lat="39.249605" lon="8.537335"><ele>134.0</ele><time>2026-04-22T13:38:40.296Z</time></trkpt><trkpt lat="39.2495367" lon="8.5374367"><ele>133.8</ele><time>2026-04-22T13:38:41.296Z</time></trkpt><trkpt lat="39.2494583" lon="8.537535"><ele>133.60000000000002</ele><time>2026-04-22T13:38:42.296Z</time></trkpt><trkpt lat="39.2493833" lon="8.5376333"><ele>133.4</ele><time>2026-04-22T13:38:43.295Z</time></trkpt><trkpt lat="39.2493133" lon="8.537745"><ele>133.20000000000002</ele><time>2026-04-22T13:38:44.296Z</time></trkpt><trkpt lat="39.2492483" lon="8.537865"><ele>133.0</ele><time>2026-04-22T13:38:45.296Z</time></trkpt><trkpt lat="39.2491817" lon="8.53799"><ele>133.0</ele><time>2026-04-22T13:38:46.295Z</time></trkpt><trkpt lat="39.2491067" lon="8.5381"><ele>133.0</ele><time>2026-04-22T13:38:47.296Z</time></trkpt><trkpt lat="39.2490383" lon="8.5381933"><ele>133.0</ele><time>2026-04-22T13:38:48.295Z</time></trkpt><trkpt lat="39.2489717" lon="8.5382783"><ele>133.0</ele><time>2026-04-22T13:38:49.296Z</time></trkpt><trkpt lat="39.2488867" lon="8.53836"><ele>133.0</ele><time>2026-04-22T13:38:50.296Z</time></trkpt><trkpt lat="39.2487917" lon="8.538445"><ele>131.25</ele><time>2026-04-22T13:38:51.295Z</time></trkpt><trkpt lat="39.2486967" lon="8.5385233"><ele>129.5</ele><time>2026-04-22T13:38:52.296Z</time></trkpt><trkpt lat="39.248615" lon="8.5386133"><ele>127.75</ele><time>2026-04-22T13:38:53.295Z</time></trkpt><trkpt lat="39.2485383" lon="8.5387133"><ele>126.0</ele><time>2026-04-22T13:38:54.295Z</time></trkpt><trkpt lat="39.2484117" lon="8.5389683"><ele>126.0</ele><time>2026-04-22T13:38:56.296Z</time></trkpt><trkpt lat="39.248365" lon="8.5391167"><ele>126.0</ele><time>2026-04-22T13:38:57.295Z</time></trkpt><trkpt lat="39.2483283" lon="8.539275"><ele>126.0</ele><time>2026-04-22T13:38:58.296Z</time></trkpt><trkpt lat="39.2482917" lon="8.5394267"><ele>126.0</ele><time>2026-04-22T13:38:59.296Z</time></trkpt><trkpt lat="39.2482517" lon="8.539575"><ele>125.5</ele><time>2026-04-22T13:39:00.295Z</time></trkpt><trkpt lat="39.2481983" lon="8.53972"><ele>125.0</ele><time>2026-04-22T13:39:01.295Z</time></trkpt><trkpt lat="39.2481333" lon="8.53986"><ele>124.5</ele><time>2026-04-22T13:39:02.295Z</time></trkpt><trkpt lat="39.2480533" lon="8.5400033"><ele>124.0</ele><time>2026-04-22T13:39:03.295Z</time></trkpt><trkpt lat="39.247975" lon="8.5401483"><ele>124.0</ele><time>2026-04-22T13:39:04.296Z</time></trkpt><trkpt lat="39.2478917" lon="8.5402883"><ele>124.0</ele><time>2026-04-22T13:39:05.296Z</time></trkpt><trkpt lat="39.2478217" lon="8.5404183"><ele>124.0</ele><time>2026-04-22T13:39:06.295Z</time></trkpt><trkpt lat="39.2477433" lon="8.5405433"><ele>124.0</ele><time>2026-04-22T13:39:07.296Z</time></trkpt><trkpt lat="39.2476717" lon="8.540665"><ele>125.0</ele><time>2026-04-22T13:39:08.296Z</time></trkpt><trkpt lat="39.2476033" lon="8.5407717"><ele>126.0</ele><time>2026-04-22T13:39:09.296Z</time></trkpt><trkpt lat="39.247545" lon="8.5408717"><ele>127.0</ele><time>2026-04-22T13:39:10.296Z</time></trkpt><trkpt lat="39.2474817" lon="8.540965"><ele>128.0</ele><time>2026-04-22T13:39:11.295Z</time></trkpt><trkpt lat="39.2474183" lon="8.5410533"><ele>129.0</ele><time>2026-04-22T13:39:12.296Z</time></trkpt><trkpt lat="39.2473533" lon="8.5411367"><ele>128.0</ele><time>2026-04-22T13:39:13.295Z</time></trkpt><trkpt lat="39.24729" lon="8.541215"><ele>127.0</ele><time>2026-04-22T13:39:14.295Z</time></trkpt><trkpt lat="39.2472117" lon="8.5412867"><ele>126.0</ele><time>2026-04-22T13:39:15.295Z</time></trkpt><trkpt lat="39.2470517" lon="8.5413667"><ele>125.0</ele><time>2026-04-22T13:39:17.295Z</time></trkpt><trkpt lat="39.2469783" lon="8.5413883"><ele>124.0</ele><time>2026-04-22T13:39:18.296Z</time></trkpt><trkpt lat="39.246875" lon="8.5414167"><ele>124.0</ele><time>2026-04-22T13:39:20.296Z</time></trkpt><trkpt lat="39.2468183" lon="8.5413633"><ele>124.0</ele><time>2026-04-22T13:39:22.295Z</time></trkpt><trkpt lat="39.2467967" lon="8.541185"><ele>124.0</ele><time>2026-04-22T13:39:24.296Z</time></trkpt><trkpt lat="39.246795" lon="8.5410667"><ele>124.0</ele><time>2026-04-22T13:39:25.296Z</time></trkpt><trkpt lat="39.2468017" lon="8.5409333"><ele>124.0</ele><time>2026-04-22T13:39:26.296Z</time></trkpt><trkpt lat="39.2468067" lon="8.5407817"><ele>123.75</ele><time>2026-04-22T13:39:27.296Z</time></trkpt><trkpt lat="39.246805" lon="8.540615"><ele>123.5</ele><time>2026-04-22T13:39:28.296Z</time></trkpt><trkpt lat="39.2467967" lon="8.5404383"><ele>123.25</ele><time>2026-04-22T13:39:29.296Z</time></trkpt><trkpt lat="39.2467833" lon="8.540265"><ele>123.0</ele><time>2026-04-22T13:39:30.295Z</time></trkpt><trkpt lat="39.2467867" lon="8.5401083"><ele>122.75</ele><time>2026-04-22T13:39:31.295Z</time></trkpt><trkpt lat="39.2468017" lon="8.5399533"><ele>122.5</ele><time>2026-04-22T13:39:32.296Z</time></trkpt><trkpt lat="39.246805" lon="8.5398017"><ele>122.25</ele><time>2026-04-22T13:39:33.296Z</time></trkpt><trkpt lat="39.2467983" lon="8.539635"><ele>122.0</ele><time>2026-04-22T13:39:34.296Z</time></trkpt><trkpt lat="39.2467867" lon="8.5394633"><ele>121.0</ele><time>2026-04-22T13:39:35.295Z</time></trkpt><trkpt lat="39.2467667" lon="8.5392933"><ele>120.0</ele><time>2026-04-22T13:39:36.296Z</time></trkpt><trkpt lat="39.2467317" lon="8.538985"><ele>119.0</ele><time>2026-04-22T13:39:38.296Z</time></trkpt><trkpt lat="39.246715" lon="8.5388433"><ele>118.25</ele><time>2026-04-22T13:39:39.296Z</time></trkpt><trkpt lat="39.2466917" lon="8.5386933"><ele>117.5</ele><time>2026-04-22T13:39:40.296Z</time></trkpt><trkpt lat="39.2466717" lon="8.5385433"><ele>116.75</ele><time>2026-04-22T13:39:41.296Z</time></trkpt><trkpt lat="39.2466517" lon="8.538395"><ele>116.0</ele><time>2026-04-22T13:39:42.296Z</time></trkpt><trkpt lat="39.2466217" lon="8.5382467"><ele>116.0</ele><time>2026-04-22T13:39:43.296Z</time></trkpt><trkpt lat="39.246585" lon="8.5381017"><ele>116.0</ele><time>2026-04-22T13:39:44.296Z</time></trkpt><trkpt lat="39.2465467" lon="8.5379683"><ele>116.0</ele><time>2026-04-22T13:39:45.296Z</time></trkpt><trkpt lat="39.2465133" lon="8.5378483"><ele>116.0</ele><time>2026-04-22T13:39:46.295Z</time></trkpt><trkpt lat="39.2464817" lon="8.5377333"><ele>116.0</ele><time>2026-04-22T13:39:47.296Z</time></trkpt><trkpt lat="39.2464467" lon="8.5376083"><ele>116.0</ele><time>2026-04-22T13:39:48.295Z</time></trkpt><trkpt lat="39.2464167" lon="8.5374767"><ele>116.0</ele><time>2026-04-22T13:39:49.296Z</time></trkpt><trkpt lat="39.246385" lon="8.5373317"><ele>116.0</ele><time>2026-04-22T13:39:50.296Z</time></trkpt><trkpt lat="39.2463533" lon="8.5371983"><ele>116.0</ele><time>2026-04-22T13:39:51.296Z</time></trkpt><trkpt lat="39.24633" lon="8.5370733"><ele>116.0</ele><time>2026-04-22T13:39:52.296Z</time></trkpt><trkpt lat="39.2463183" lon="8.5369567"><ele>116.19999999999999</ele><time>2026-04-22T13:39:53.296Z</time></trkpt><trkpt lat="39.24632" lon="8.536835"><ele>116.39999999999999</ele><time>2026-04-22T13:39:54.296Z</time></trkpt><trkpt lat="39.2463267" lon="8.5367083"><ele>116.6</ele><time>2026-04-22T13:39:55.296Z</time></trkpt><trkpt lat="39.2463333" lon="8.536565"><ele>116.8</ele><time>2026-04-22T13:39:56.295Z</time></trkpt><trkpt lat="39.2463417" lon="8.5364117"><ele>117.0</ele><time>2026-04-22T13:39:57.296Z</time></trkpt><trkpt lat="39.2463583" lon="8.536125"><ele>117.19999999999999</ele><time>2026-04-22T13:39:59.296Z</time></trkpt><trkpt lat="39.2463567" lon="8.5360017"><ele>117.39999999999999</ele><time>2026-04-22T13:40:00.295Z</time></trkpt><trkpt lat="39.2463533" lon="8.53587"><ele>117.60000000000001</ele><time>2026-04-22T13:40:01.295Z</time></trkpt><trkpt lat="39.2463417" lon="8.53573"><ele>117.80000000000001</ele><time>2026-04-22T13:40:02.295Z</time></trkpt><trkpt lat="39.2463283" lon="8.5355733"><ele>118.0</ele><time>2026-04-22T13:40:03.295Z</time></trkpt><trkpt lat="39.2463167" lon="8.5354033"><ele>118.25</ele><time>2026-04-22T13:40:04.295Z</time></trkpt><trkpt lat="39.2462967" lon="8.5352367"><ele>118.5</ele><time>2026-04-22T13:40:05.295Z</time></trkpt><trkpt lat="39.2462817" lon="8.53506"><ele>118.75</ele><time>2026-04-22T13:40:06.296Z</time></trkpt><trkpt lat="39.2462567" lon="8.53489"><ele>119.0</ele><time>2026-04-22T13:40:07.296Z</time></trkpt><trkpt lat="39.24623" lon="8.5347267"><ele>119.0</ele><time>2026-04-22T13:40:08.296Z</time></trkpt><trkpt lat="39.2461983" lon="8.5345467"><ele>119.0</ele><time>2026-04-22T13:40:09.296Z</time></trkpt><trkpt lat="39.246165" lon="8.5343633"><ele>119.0</ele><time>2026-04-22T13:40:10.296Z</time></trkpt><trkpt lat="39.2461317" lon="8.5341917"><ele>119.0</ele><time>2026-04-22T13:40:11.295Z</time></trkpt><trkpt lat="39.2460933" lon="8.5340233"><ele>119.0</ele><time>2026-04-22T13:40:12.296Z</time></trkpt><trkpt lat="39.24607" lon="8.5338717"><ele>119.0</ele><time>2026-04-22T13:40:13.296Z</time></trkpt><trkpt lat="39.246055" lon="8.5337383"><ele>119.0</ele><time>2026-04-22T13:40:14.295Z</time></trkpt><trkpt lat="39.246035" lon="8.53363"><ele>119.0</ele><time>2026-04-22T13:40:15.295Z</time></trkpt><trkpt lat="39.2460167" lon="8.5335483"><ele>119.0</ele><time>2026-04-22T13:40:16.296Z</time></trkpt><trkpt lat="39.2459967" lon="8.5334567"><ele>118.75</ele><time>2026-04-22T13:40:18.296Z</time></trkpt><trkpt lat="39.2458383" lon="8.5334467"><ele>118.5</ele><time>2026-04-22T13:40:22.295Z</time></trkpt><trkpt lat="39.2457467" lon="8.5334633"><ele>118.25</ele><time>2026-04-22T13:40:24.295Z</time></trkpt><trkpt lat="39.245645" lon="8.53338"><ele>118.0</ele><time>2026-04-22T13:40:26.296Z</time></trkpt><trkpt lat="39.2455817" lon="8.5333183"><ele>118.00000000000001</ele><time>2026-04-22T13:40:27.295Z</time></trkpt><trkpt lat="39.245505" lon="8.5332667"><ele>118.0</ele><time>2026-04-22T13:40:28.296Z</time></trkpt><trkpt lat="39.2454167" lon="8.5332317"><ele>118.0</ele><time>2026-04-22T13:40:29.296Z</time></trkpt><trkpt lat="39.24533" lon="8.5332083"><ele>118.0</ele><time>2026-04-22T13:40:30.295Z</time></trkpt><trkpt lat="39.2452567" lon="8.5331883"><ele>118.00000000000001</ele><time>2026-04-22T13:40:31.295Z</time></trkpt><trkpt lat="39.2451933" lon="8.5331617"><ele>118.0</ele><time>2026-04-22T13:40:32.295Z</time></trkpt><trkpt lat="39.2451167" lon="8.5331117"><ele>118.0</ele><time>2026-04-22T13:40:33.296Z</time></trkpt><trkpt lat="39.2450317" lon="8.53304"><ele>118.00000000000001</ele><time>2026-04-22T13:40:34.296Z</time></trkpt><trkpt lat="39.24494" lon="8.5329767"><ele>118.00000000000001</ele><time>2026-04-22T13:40:35.295Z</time></trkpt><trkpt lat="39.2448433" lon="8.5329167"><ele>118.0</ele><time>2026-04-22T13:40:36.296Z</time></trkpt><trkpt lat="39.2447517" lon="8.5328683"><ele>118.0</ele><time>2026-04-22T13:40:37.296Z</time></trkpt><trkpt lat="39.2446633" lon="8.5328233"><ele>116.60000000000001</ele><time>2026-04-22T13:40:38.295Z</time></trkpt><trkpt lat="39.244575" lon="8.5327983"><ele>115.20000000000002</ele><time>2026-04-22T13:40:39.296Z</time></trkpt><trkpt lat="39.2444133" lon="8.5327633"><ele>113.8</ele><time>2026-04-22T13:40:41.296Z</time></trkpt><trkpt lat="39.2443483" lon="8.5327433"><ele>112.4</ele><time>2026-04-22T13:40:42.295Z</time></trkpt><trkpt lat="39.244285" lon="8.5327067"><ele>111.0</ele><time>2026-04-22T13:40:43.296Z</time></trkpt><trkpt lat="39.24421" lon="8.5326717"><ele>111.0</ele><time>2026-04-22T13:40:44.296Z</time></trkpt><trkpt lat="39.2441233" lon="8.5326333"><ele>111.0</ele><time>2026-04-22T13:40:45.295Z</time></trkpt><trkpt lat="39.2440383" lon="8.5325867"><ele>111.0</ele><time>2026-04-22T13:40:46.296Z</time></trkpt><trkpt lat="39.24396" lon="8.53253"><ele>111.0</ele><time>2026-04-22T13:40:47.295Z</time></trkpt><trkpt lat="39.2438883" lon="8.53247"><ele>111.0</ele><time>2026-04-22T13:40:48.295Z</time></trkpt><trkpt lat="39.24381" lon="8.5324183"><ele>111.0</ele><time>2026-04-22T13:40:49.296Z</time></trkpt><trkpt lat="39.2437317" lon="8.5323867"><ele>110.4</ele><time>2026-04-22T13:40:50.295Z</time></trkpt><trkpt lat="39.2436417" lon="8.532355"><ele>109.8</ele><time>2026-04-22T13:40:51.296Z</time></trkpt><trkpt lat="39.24354" lon="8.5323217"><ele>109.20000000000002</ele><time>2026-04-22T13:40:52.296Z</time></trkpt><trkpt lat="39.2434283" lon="8.53229"><ele>108.60000000000001</ele><time>2026-04-22T13:40:53.296Z</time></trkpt><trkpt lat="39.243315" lon="8.5322633"><ele>108.0</ele><time>2026-04-22T13:40:54.296Z</time></trkpt><trkpt lat="39.2432033" lon="8.5322333"><ele>108.16666666666667</ele><time>2026-04-22T13:40:55.296Z</time></trkpt><trkpt lat="39.2430983" lon="8.5322133"><ele>108.33333333333334</ele><time>2026-04-22T13:40:56.295Z</time></trkpt><trkpt lat="39.243005" lon="8.5321933"><ele>108.5</ele><time>2026-04-22T13:40:57.296Z</time></trkpt><trkpt lat="39.2429233" lon="8.5321783"><ele>108.66666666666667</ele><time>2026-04-22T13:40:58.296Z</time></trkpt><trkpt lat="39.2428617" lon="8.5321583"><ele>108.83333333333334</ele><time>2026-04-22T13:40:59.295Z</time></trkpt><trkpt lat="39.2427783" lon="8.532085"><ele>109.0</ele><time>2026-04-22T13:41:01.296Z</time></trkpt><trkpt lat="39.24271" lon="8.5318417"><ele>108.25</ele><time>2026-04-22T13:41:04.295Z</time></trkpt><trkpt lat="39.242685" lon="8.5317233"><ele>107.5</ele><time>2026-04-22T13:41:05.295Z</time></trkpt><trkpt lat="39.2426517" lon="8.5315967"><ele>106.75</ele><time>2026-04-22T13:41:06.296Z</time></trkpt><trkpt lat="39.242605" lon="8.53144"><ele>106.0</ele><time>2026-04-22T13:41:07.295Z</time></trkpt><trkpt lat="39.242565" lon="8.5312783"><ele>106.5</ele><time>2026-04-22T13:41:08.295Z</time></trkpt><trkpt lat="39.2425067" lon="8.5311167"><ele>107.0</ele><time>2026-04-22T13:41:09.295Z</time></trkpt><trkpt lat="39.2424533" lon="8.5309517"><ele>107.5</ele><time>2026-04-22T13:41:10.295Z</time></trkpt><trkpt lat="39.2423967" lon="8.5308083"><ele>108.0</ele><time>2026-04-22T13:41:11.296Z</time></trkpt><trkpt lat="39.2423483" lon="8.53068"><ele>108.0</ele><time>2026-04-22T13:41:12.296Z</time></trkpt><trkpt lat="39.2423" lon="8.5305567"><ele>108.00000000000001</ele><time>2026-04-22T13:41:13.296Z</time></trkpt><trkpt lat="39.2422433" lon="8.5304317"><ele>108.00000000000001</ele><time>2026-04-22T13:41:14.296Z</time></trkpt><trkpt lat="39.2421867" lon="8.5302967"><ele>108.0</ele><time>2026-04-22T13:41:15.296Z</time></trkpt><trkpt lat="39.24212" lon="8.5301817"><ele>108.0</ele><time>2026-04-22T13:41:16.296Z</time></trkpt><trkpt lat="39.2420667" lon="8.5300567"><ele>108.2</ele><time>2026-04-22T13:41:17.296Z</time></trkpt><trkpt lat="39.2420233" lon="8.5299417"><ele>108.4</ele><time>2026-04-22T13:41:18.295Z</time></trkpt><trkpt lat="39.2419917" lon="8.529845"><ele>108.60000000000001</ele><time>2026-04-22T13:41:19.296Z</time></trkpt><trkpt lat="39.2419783" lon="8.529765"><ele>108.80000000000001</ele><time>2026-04-22T13:41:20.296Z</time></trkpt><trkpt lat="39.241955" lon="8.5296833"><ele>109.0</ele><time>2026-04-22T13:41:22.295Z</time></trkpt><trkpt lat="39.2416583" lon="8.529965"><ele>109.0</ele><time>2026-04-22T13:43:16.295Z</time></trkpt><trkpt lat="39.24159" lon="8.530065"><ele>109.0</ele><time>2026-04-22T13:43:59.296Z</time></trkpt><trkpt lat="39.241495" lon="8.5301967"><ele>109.0</ele><time>2026-04-22T13:44:01.295Z</time></trkpt><trkpt lat="39.241435" lon="8.53027"><ele>109.0</ele><time>2026-04-22T13:44:02.296Z</time></trkpt><trkpt lat="39.24138" lon="8.53035"><ele>109.0</ele><time>2026-04-22T13:44:03.296Z</time></trkpt><trkpt lat="39.241325" lon="8.5304233"><ele>108.80000000000001</ele><time>2026-04-22T13:44:04.296Z</time></trkpt><trkpt lat="39.2412717" lon="8.5304867"><ele>108.60000000000001</ele><time>2026-04-22T13:44:05.295Z</time></trkpt><trkpt lat="39.24119" lon="8.53059"><ele>108.4</ele><time>2026-04-22T13:44:07.296Z</time></trkpt><trkpt lat="39.2411067" lon="8.5306833"><ele>108.2</ele><time>2026-04-22T13:44:09.296Z</time></trkpt><trkpt lat="39.2410417" lon="8.5307533"><ele>108.0</ele><time>2026-04-22T13:44:10.295Z</time></trkpt><trkpt lat="39.2409833" lon="8.5308283"><ele>108.0</ele><time>2026-04-22T13:44:11.295Z</time></trkpt><trkpt lat="39.2409217" lon="8.530905"><ele>108.0</ele><time>2026-04-22T13:44:12.296Z</time></trkpt><trkpt lat="39.2408667" lon="8.5309733"><ele>108.0</ele><time>2026-04-22T13:44:13.295Z</time></trkpt><trkpt lat="39.2407933" lon="8.531055"><ele>108.0</ele><time>2026-04-22T13:44:15.296Z</time></trkpt><trkpt lat="39.24069" lon="8.5310933"><ele>108.0</ele><time>2026-04-22T13:44:17.295Z</time></trkpt><trkpt lat="39.240625" lon="8.5311083"><ele>108.0</ele><time>2026-04-22T13:44:18.296Z</time></trkpt><trkpt lat="39.24055" lon="8.5311167"><ele>107.75</ele><time>2026-04-22T13:44:19.296Z</time></trkpt><trkpt lat="39.2404667" lon="8.5311167"><ele>107.5</ele><time>2026-04-22T13:44:20.295Z</time></trkpt><trkpt lat="39.24027" lon="8.531045"><ele>107.25</ele><time>2026-04-22T13:44:23.294Z</time></trkpt><trkpt lat="39.2401967" lon="8.5309833"><ele>107.0</ele><time>2026-04-22T13:44:24.295Z</time></trkpt><trkpt lat="39.2401233" lon="8.5309133"><ele>107.0</ele><time>2026-04-22T13:44:25.294Z</time></trkpt><trkpt lat="39.2400433" lon="8.530855"><ele>106.99999999999999</ele><time>2026-04-22T13:44:26.295Z</time></trkpt><trkpt lat="39.2399533" lon="8.5308083"><ele>106.99999999999999</ele><time>2026-04-22T13:44:27.294Z</time></trkpt><trkpt lat="39.2398533" lon="8.5307733"><ele>107.0</ele><time>2026-04-22T13:44:28.295Z</time></trkpt><trkpt lat="39.2397517" lon="8.5307383"><ele>107.0</ele><time>2026-04-22T13:44:29.295Z</time></trkpt><trkpt lat="39.2396567" lon="8.5307083"><ele>106.39999999999999</ele><time>2026-04-22T13:44:30.295Z</time></trkpt><trkpt lat="39.23957" lon="8.5306767"><ele>105.79999999999998</ele><time>2026-04-22T13:44:31.294Z</time></trkpt><trkpt lat="39.23948" lon="8.5306283"><ele>105.2</ele><time>2026-04-22T13:44:32.295Z</time></trkpt><trkpt lat="39.2393883" lon="8.5305767"><ele>104.6</ele><time>2026-04-22T13:44:33.295Z</time></trkpt><trkpt lat="39.2393067" lon="8.5305233"><ele>104.0</ele><time>2026-04-22T13:44:34.294Z</time></trkpt><trkpt lat="39.23923" lon="8.53046"><ele>103.99999999999999</ele><time>2026-04-22T13:44:35.295Z</time></trkpt><trkpt lat="39.2391583" lon="8.5303883"><ele>104.0</ele><time>2026-04-22T13:44:36.294Z</time></trkpt><trkpt lat="39.239095" lon="8.5303133"><ele>104.0</ele><time>2026-04-22T13:44:37.294Z</time></trkpt><trkpt lat="39.2390333" lon="8.53023"><ele>104.0</ele><time>2026-04-22T13:44:38.295Z</time></trkpt><trkpt lat="39.2389733" lon="8.5301367"><ele>103.99999999999999</ele><time>2026-04-22T13:44:39.294Z</time></trkpt><trkpt lat="39.2389267" lon="8.5300467"><ele>104.0</ele><time>2026-04-22T13:44:40.295Z</time></trkpt><trkpt lat="39.2388833" lon="8.52997"><ele>104.0</ele><time>2026-04-22T13:44:41.294Z</time></trkpt><trkpt lat="39.23878" lon="8.529805"><ele>104.0</ele><time>2026-04-22T13:44:43.295Z</time></trkpt><trkpt lat="39.2387267" lon="8.5297133"><ele>104.0</ele><time>2026-04-22T13:44:44.295Z</time></trkpt><trkpt lat="39.2386733" lon="8.5296117"><ele>104.0</ele><time>2026-04-22T13:44:45.294Z</time></trkpt><trkpt lat="39.2386067" lon="8.5294917"><ele>104.5</ele><time>2026-04-22T13:44:46.295Z</time></trkpt><trkpt lat="39.2385383" lon="8.529365"><ele>105.0</ele><time>2026-04-22T13:44:47.295Z</time></trkpt><trkpt lat="39.2384567" lon="8.5292333"><ele>105.5</ele><time>2026-04-22T13:44:48.294Z</time></trkpt><trkpt lat="39.2383617" lon="8.5290833"><ele>106.0</ele><time>2026-04-22T13:44:49.295Z</time></trkpt><trkpt lat="39.23827" lon="8.5289383"><ele>106.0</ele><time>2026-04-22T13:44:50.295Z</time></trkpt><trkpt lat="39.2381717" lon="8.5288067"><ele>106.0</ele><time>2026-04-22T13:44:51.295Z</time></trkpt><trkpt lat="39.2380767" lon="8.5286717"><ele>106.0</ele><time>2026-04-22T13:44:52.295Z</time></trkpt><trkpt lat="39.2379933" lon="8.52856"><ele>106.0</ele><time>2026-04-22T13:44:53.295Z</time></trkpt><trkpt lat="39.237905" lon="8.5284467"><ele>105.25</ele><time>2026-04-22T13:44:54.294Z</time></trkpt><trkpt lat="39.2378217" lon="8.5283383"><ele>104.5</ele><time>2026-04-22T13:44:55.295Z</time></trkpt><trkpt lat="39.237745" lon="8.5282233"><ele>103.75</ele><time>2026-04-22T13:44:56.295Z</time></trkpt><trkpt lat="39.23768" lon="8.528105"><ele>103.0</ele><time>2026-04-22T13:44:57.295Z</time></trkpt><trkpt lat="39.2376033" lon="8.527975"><ele>102.5</ele><time>2026-04-22T13:44:58.295Z</time></trkpt><trkpt lat="39.2375333" lon="8.5278517"><ele>102.0</ele><time>2026-04-22T13:44:59.294Z</time></trkpt><trkpt lat="39.2374683" lon="8.5277267"><ele>101.5</ele><time>2026-04-22T13:45:00.295Z</time></trkpt><trkpt lat="39.2374033" lon="8.5276033"><ele>101.0</ele><time>2026-04-22T13:45:01.295Z</time></trkpt><trkpt lat="39.2373317" lon="8.5274917"><ele>101.0</ele><time>2026-04-22T13:45:02.295Z</time></trkpt><trkpt lat="39.23715" lon="8.527265"><ele>101.0</ele><time>2026-04-22T13:45:04.295Z</time></trkpt><trkpt lat="39.23706" lon="8.5271683"><ele>101.0</ele><time>2026-04-22T13:45:05.295Z</time></trkpt><trkpt lat="39.23698" lon="8.52708"><ele>100.66666666666666</ele><time>2026-04-22T13:45:06.295Z</time></trkpt><trkpt lat="39.23692" lon="8.5270033"><ele>100.33333333333333</ele><time>2026-04-22T13:45:07.295Z</time></trkpt><trkpt lat="39.23687" lon="8.5269267"><ele>100.0</ele><time>2026-04-22T13:45:08.294Z</time></trkpt><trkpt lat="39.236825" lon="8.5268383"><ele>99.66666666666666</ele><time>2026-04-22T13:45:09.295Z</time></trkpt><trkpt lat="39.2367867" lon="8.5267283"><ele>99.33333333333333</ele><time>2026-04-22T13:45:10.295Z</time></trkpt><trkpt lat="39.2367533" lon="8.5266017"><ele>99.0</ele><time>2026-04-22T13:45:11.295Z</time></trkpt><trkpt lat="39.2367117" lon="8.5264583"><ele>99.0</ele><time>2026-04-22T13:45:12.294Z</time></trkpt><trkpt lat="39.2366633" lon="8.5263033"><ele>99.0</ele><time>2026-04-22T13:45:13.295Z</time></trkpt><trkpt lat="39.236615" lon="8.5261433"><ele>99.0</ele><time>2026-04-22T13:45:14.294Z</time></trkpt><trkpt lat="39.2365633" lon="8.52599"><ele>99.0</ele><time>2026-04-22T13:45:15.295Z</time></trkpt><trkpt lat="39.23652" lon="8.5258467"><ele>98.80000000000001</ele><time>2026-04-22T13:45:16.295Z</time></trkpt><trkpt lat="39.2364783" lon="8.5257067"><ele>98.60000000000001</ele><time>2026-04-22T13:45:17.294Z</time></trkpt><trkpt lat="39.2364433" lon="8.5256067"><ele>98.4</ele><time>2026-04-22T13:45:18.295Z</time></trkpt><trkpt lat="39.23641" lon="8.525495"><ele>98.2</ele><time>2026-04-22T13:45:19.294Z</time></trkpt><trkpt lat="39.2363833" lon="8.52539"><ele>98.0</ele><time>2026-04-22T13:45:20.295Z</time></trkpt><trkpt lat="39.2363467" lon="8.5252783"><ele>98.60000000000001</ele><time>2026-04-22T13:45:21.295Z</time></trkpt><trkpt lat="39.2363017" lon="8.525175"><ele>99.2</ele><time>2026-04-22T13:45:22.295Z</time></trkpt><trkpt lat="39.236255" lon="8.5250783"><ele>99.8</ele><time>2026-04-22T13:45:23.295Z</time></trkpt><trkpt lat="39.2361767" lon="8.5249267"><ele>100.4</ele><time>2026-04-22T13:45:25.295Z</time></trkpt><trkpt lat="39.23615" lon="8.5248517"><ele>101.0</ele><time>2026-04-22T13:45:26.295Z</time></trkpt><trkpt lat="39.2361" lon="8.52473"><ele>101.0</ele><time>2026-04-22T13:45:28.294Z</time></trkpt><trkpt lat="39.2360217" lon="8.52459"><ele>101.0</ele><time>2026-04-22T13:45:30.294Z</time></trkpt><trkpt lat="39.2359717" lon="8.5245"><ele>101.0</ele><time>2026-04-22T13:45:31.294Z</time></trkpt><trkpt lat="39.235915" lon="8.5244"><ele>101.0</ele><time>2026-04-22T13:45:32.295Z</time></trkpt><trkpt lat="39.235855" lon="8.5243117"><ele>101.0</ele><time>2026-04-22T13:45:33.295Z</time></trkpt><trkpt lat="39.2358" lon="8.5242333"><ele>101.16666666666666</ele><time>2026-04-22T13:45:34.294Z</time></trkpt><trkpt lat="39.2357517" lon="8.5241633"><ele>101.33333333333333</ele><time>2026-04-22T13:45:35.294Z</time></trkpt><trkpt lat="39.2357083" lon="8.52409"><ele>101.5</ele><time>2026-04-22T13:45:36.294Z</time></trkpt><trkpt lat="39.2356417" lon="8.5239883"><ele>101.66666666666666</ele><time>2026-04-22T13:45:38.295Z</time></trkpt><trkpt lat="39.2355817" lon="8.52393"><ele>101.83333333333333</ele><time>2026-04-22T13:45:40.295Z</time></trkpt><trkpt lat="39.2355367" lon="8.5238433"><ele>102.0</ele><time>2026-04-22T13:45:42.295Z</time></trkpt><trkpt lat="39.2354733" lon="8.5237567"><ele>101.6</ele><time>2026-04-22T13:45:44.295Z</time></trkpt><trkpt lat="39.23533" lon="8.52361"><ele>101.19999999999999</ele><time>2026-04-22T13:45:47.295Z</time></trkpt><trkpt lat="39.235265" lon="8.52356"><ele>100.8</ele><time>2026-04-22T13:45:48.295Z</time></trkpt><trkpt lat="39.2351933" lon="8.5234967"><ele>100.4</ele><time>2026-04-22T13:45:49.295Z</time></trkpt><trkpt lat="39.23511" lon="8.5234283"><ele>100.0</ele><time>2026-04-22T13:45:50.295Z</time></trkpt><trkpt lat="39.2350167" lon="8.5233417"><ele>100.0</ele><time>2026-04-22T13:45:51.295Z</time></trkpt><trkpt lat="39.2349283" lon="8.5232517"><ele>100.0</ele><time>2026-04-22T13:45:52.294Z</time></trkpt><trkpt lat="39.2348467" lon="8.5231583"><ele>100.0</ele><time>2026-04-22T13:45:53.295Z</time></trkpt><trkpt lat="39.2347783" lon="8.5230717"><ele>100.0</ele><time>2026-04-22T13:45:54.294Z</time></trkpt><trkpt lat="39.2347133" lon="8.5229867"><ele>100.0</ele><time>2026-04-22T13:45:55.295Z</time></trkpt><trkpt lat="39.2346567" lon="8.5229083"><ele>99.6</ele><time>2026-04-22T13:45:56.295Z</time></trkpt><trkpt lat="39.2345983" lon="8.522835"><ele>99.2</ele><time>2026-04-22T13:45:57.295Z</time></trkpt><trkpt lat="39.23455" lon="8.5227717"><ele>98.80000000000001</ele><time>2026-04-22T13:45:58.295Z</time></trkpt><trkpt lat="39.2344917" lon="8.5227017"><ele>98.4</ele><time>2026-04-22T13:46:00.294Z</time></trkpt><trkpt lat="39.23444" lon="8.52262"><ele>98.0</ele><time>2026-04-22T13:46:08.295Z</time></trkpt><trkpt lat="39.2343383" lon="8.522465"><ele>97.99999999999999</ele><time>2026-04-22T13:46:13.295Z</time></trkpt><trkpt lat="39.23429" lon="8.5223683"><ele>98.0</ele><time>2026-04-22T13:46:16.294Z</time></trkpt><trkpt lat="39.2342317" lon="8.522265"><ele>98.0</ele><time>2026-04-22T13:46:18.294Z</time></trkpt><trkpt lat="39.2341933" lon="8.5221883"><ele>98.0</ele><time>2026-04-22T13:46:19.295Z</time></trkpt><trkpt lat="39.2341483" lon="8.522095"><ele>97.99999999999999</ele><time>2026-04-22T13:46:20.295Z</time></trkpt><trkpt lat="39.234105" lon="8.5220167"><ele>98.0</ele><time>2026-04-22T13:46:21.295Z</time></trkpt><trkpt lat="39.2340317" lon="8.52196"><ele>97.2</ele><time>2026-04-22T13:46:23.295Z</time></trkpt><trkpt lat="39.2339483" lon="8.5219583"><ele>96.4</ele><time>2026-04-22T13:46:25.295Z</time></trkpt><trkpt lat="39.233885" lon="8.5219833"><ele>95.60000000000001</ele><time>2026-04-22T13:46:27.295Z</time></trkpt><trkpt lat="39.23382" lon="8.5219933"><ele>94.80000000000001</ele><time>2026-04-22T13:46:29.294Z</time></trkpt><trkpt lat="39.2336533" lon="8.5220317"><ele>94.0</ele><time>2026-04-22T13:46:33.295Z</time></trkpt><trkpt lat="39.2335883" lon="8.5220383"><ele>94.0</ele><time>2026-04-22T13:46:34.294Z</time></trkpt><trkpt lat="39.233525" lon="8.5220517"><ele>94.0</ele><time>2026-04-22T13:46:35.294Z</time></trkpt><trkpt lat="39.2334583" lon="8.5220617"><ele>94.0</ele><time>2026-04-22T13:46:36.295Z</time></trkpt><trkpt lat="39.23335" lon="8.5220933"><ele>94.0</ele><time>2026-04-22T13:46:38.295Z</time></trkpt><trkpt lat="39.2332417" lon="8.522105"><ele>94.0</ele><time>2026-04-22T13:46:40.295Z</time></trkpt><trkpt lat="39.23311" lon="8.5221117"><ele>94.16666666666666</ele><time>2026-04-22T13:46:42.295Z</time></trkpt><trkpt lat="39.233035" lon="8.5221167"><ele>94.33333333333333</ele><time>2026-04-22T13:46:43.295Z</time></trkpt><trkpt lat="39.23296" lon="8.5221167"><ele>94.5</ele><time>2026-04-22T13:46:44.294Z</time></trkpt><trkpt lat="39.2328817" lon="8.5221067"><ele>94.66666666666667</ele><time>2026-04-22T13:46:45.294Z</time></trkpt><trkpt lat="39.2327917" lon="8.5220883"><ele>94.83333333333334</ele><time>2026-04-22T13:46:46.295Z</time></trkpt><trkpt lat="39.2327017" lon="8.5220683"><ele>95.0</ele><time>2026-04-22T13:46:47.295Z</time></trkpt><trkpt lat="39.23262" lon="8.5220483"><ele>95.0</ele><time>2026-04-22T13:46:48.295Z</time></trkpt><trkpt lat="39.2325283" lon="8.5220217"><ele>95.0</ele><time>2026-04-22T13:46:49.294Z</time></trkpt><trkpt lat="39.2324267" lon="8.52199"><ele>95.0</ele><time>2026-04-22T13:46:50.295Z</time></trkpt><trkpt lat="39.2322517" lon="8.5219317"><ele>95.0</ele><time>2026-04-22T13:46:52.295Z</time></trkpt><trkpt lat="39.23217" lon="8.5219067"><ele>95.2</ele><time>2026-04-22T13:46:53.295Z</time></trkpt><trkpt lat="39.232085" lon="8.521895"><ele>95.4</ele><time>2026-04-22T13:46:54.294Z</time></trkpt><trkpt lat="39.2319933" lon="8.521865"><ele>95.6</ele><time>2026-04-22T13:46:55.295Z</time></trkpt><trkpt lat="39.2319033" lon="8.52183"><ele>95.8</ele><time>2026-04-22T13:46:56.294Z</time></trkpt><trkpt lat="39.2318133" lon="8.5218083"><ele>96.0</ele><time>2026-04-22T13:46:57.295Z</time></trkpt><trkpt lat="39.2317217" lon="8.5217783"><ele>96.0</ele><time>2026-04-22T13:46:58.295Z</time></trkpt><trkpt lat="39.2316433" lon="8.52174"><ele>96.0</ele><time>2026-04-22T13:46:59.294Z</time></trkpt><trkpt lat="39.231565" lon="8.5216817"><ele>96.0</ele><time>2026-04-22T13:47:00.295Z</time></trkpt><trkpt lat="39.2314683" lon="8.5216117"><ele>96.0</ele><time>2026-04-22T13:47:01.294Z</time></trkpt><trkpt lat="39.2313567" lon="8.5215133"><ele>96.0</ele><time>2026-04-22T13:47:02.294Z</time></trkpt><trkpt lat="39.231225" lon="8.5214167"><ele>95.25</ele><time>2026-04-22T13:47:03.295Z</time></trkpt><trkpt lat="39.2311033" lon="8.521325"><ele>94.5</ele><time>2026-04-22T13:47:04.294Z</time></trkpt><trkpt lat="39.230995" lon="8.521235"><ele>93.75</ele><time>2026-04-22T13:47:05.294Z</time></trkpt><trkpt lat="39.230895" lon="8.52115"><ele>93.0</ele><time>2026-04-22T13:47:06.295Z</time></trkpt><trkpt lat="39.2308" lon="8.521085"><ele>93.0</ele><time>2026-04-22T13:47:07.294Z</time></trkpt><trkpt lat="39.2307133" lon="8.5210267"><ele>93.0</ele><time>2026-04-22T13:47:08.295Z</time></trkpt><trkpt lat="39.23062" lon="8.52097"><ele>93.0</ele><time>2026-04-22T13:47:09.295Z</time></trkpt><trkpt lat="39.2305133" lon="8.5209333"><ele>93.0</ele><time>2026-04-22T13:47:10.295Z</time></trkpt><trkpt lat="39.230395" lon="8.520905"><ele>93.0</ele><time>2026-04-22T13:47:11.294Z</time></trkpt><trkpt lat="39.2301117" lon="8.52083"><ele>93.66666666666667</ele><time>2026-04-22T13:47:13.294Z</time></trkpt><trkpt lat="39.2299433" lon="8.52078"><ele>94.33333333333334</ele><time>2026-04-22T13:47:14.295Z</time></trkpt><trkpt lat="39.2297733" lon="8.5207283"><ele>95.0</ele><time>2026-04-22T13:47:15.295Z</time></trkpt><trkpt lat="39.2296233" lon="8.5206833"><ele>95.0</ele><time>2026-04-22T13:47:16.294Z</time></trkpt><trkpt lat="39.2294817" lon="8.5206467"><ele>95.0</ele><time>2026-04-22T13:47:17.295Z</time></trkpt><trkpt lat="39.229355" lon="8.52061"><ele>95.0</ele><time>2026-04-22T13:47:18.295Z</time></trkpt><trkpt lat="39.22924" lon="8.5205867"><ele>95.0</ele><time>2026-04-22T13:47:19.295Z</time></trkpt><trkpt lat="39.2291283" lon="8.5205583"><ele>95.0</ele><time>2026-04-22T13:47:20.294Z</time></trkpt><trkpt lat="39.2290317" lon="8.520535"><ele>95.0</ele><time>2026-04-22T13:47:21.295Z</time></trkpt><trkpt lat="39.2289483" lon="8.52051"><ele>95.0</ele><time>2026-04-22T13:47:22.295Z</time></trkpt><trkpt lat="39.2288783" lon="8.5204833"><ele>95.0</ele><time>2026-04-22T13:47:23.295Z</time></trkpt><trkpt lat="39.2288217" lon="8.520445"><ele>95.0</ele><time>2026-04-22T13:47:24.295Z</time></trkpt><trkpt lat="39.2287567" lon="8.5203983"><ele>95.0</ele><time>2026-04-22T13:47:25.295Z</time></trkpt><trkpt lat="39.2286917" lon="8.5203333"><ele>94.6</ele><time>2026-04-22T13:47:26.295Z</time></trkpt><trkpt lat="39.2286233" lon="8.5202517"><ele>94.2</ele><time>2026-04-22T13:47:27.295Z</time></trkpt><trkpt lat="39.228555" lon="8.5201667"><ele>93.80000000000001</ele><time>2026-04-22T13:47:28.295Z</time></trkpt><trkpt lat="39.2284883" lon="8.520065"><ele>93.4</ele><time>2026-04-22T13:47:29.295Z</time></trkpt><trkpt lat="39.22842" lon="8.5199783"><ele>93.0</ele><time>2026-04-22T13:47:30.295Z</time></trkpt><trkpt lat="39.228365" lon="8.519895"><ele>93.0</ele><time>2026-04-22T13:47:31.295Z</time></trkpt><trkpt lat="39.2283133" lon="8.5198117"><ele>93.0</ele><time>2026-04-22T13:47:32.295Z</time></trkpt><trkpt lat="39.228215" lon="8.5196617"><ele>93.0</ele><time>2026-04-22T13:47:34.295Z</time></trkpt><trkpt lat="39.2281683" lon="8.51957"><ele>93.0</ele><time>2026-04-22T13:47:35.295Z</time></trkpt><trkpt lat="39.2281317" lon="8.5194817"><ele>93.0</ele><time>2026-04-22T13:47:36.295Z</time></trkpt><trkpt lat="39.228095" lon="8.5193883"><ele>95.2</ele><time>2026-04-22T13:47:37.295Z</time></trkpt><trkpt lat="39.2280683" lon="8.5192883"><ele>97.4</ele><time>2026-04-22T13:47:38.295Z</time></trkpt><trkpt lat="39.2280417" lon="8.5191633"><ele>99.60000000000001</ele><time>2026-04-22T13:47:39.295Z</time></trkpt><trkpt lat="39.2280233" lon="8.5190383"><ele>101.80000000000001</ele><time>2026-04-22T13:47:40.295Z</time></trkpt><trkpt lat="39.22801" lon="8.5188933"><ele>104.0</ele><time>2026-04-22T13:47:41.295Z</time></trkpt><trkpt lat="39.2280067" lon="8.5187467"><ele>102.2</ele><time>2026-04-22T13:47:42.294Z</time></trkpt><trkpt lat="39.2280083" lon="8.5186067"><ele>100.4</ele><time>2026-04-22T13:47:43.295Z</time></trkpt><trkpt lat="39.2280017" lon="8.5184783"><ele>98.6</ele><time>2026-04-22T13:47:44.295Z</time></trkpt><trkpt lat="39.2279967" lon="8.51835"><ele>96.8</ele><time>2026-04-22T13:47:45.295Z</time></trkpt><trkpt lat="39.227985" lon="8.5182233"><ele>95.0</ele><time>2026-04-22T13:47:46.295Z</time></trkpt><trkpt lat="39.2279633" lon="8.51811"><ele>95.0</ele><time>2026-04-22T13:47:47.294Z</time></trkpt><trkpt lat="39.2279367" lon="8.5180033"><ele>95.0</ele><time>2026-04-22T13:47:48.295Z</time></trkpt><trkpt lat="39.2279033" lon="8.5178967"><ele>95.0</ele><time>2026-04-22T13:47:49.295Z</time></trkpt><trkpt lat="39.2278833" lon="8.5178"><ele>95.0</ele><time>2026-04-22T13:47:50.295Z</time></trkpt><trkpt lat="39.22786" lon="8.5177233"><ele>95.0</ele><time>2026-04-22T13:47:51.294Z</time></trkpt><trkpt lat="39.2278217" lon="8.5176533"><ele>95.0</ele><time>2026-04-22T13:47:52.295Z</time></trkpt><trkpt lat="39.2277617" lon="8.5175967"><ele>94.2</ele><time>2026-04-22T13:47:53.295Z</time></trkpt><trkpt lat="39.2276433" lon="8.51747"><ele>93.4</ele><time>2026-04-22T13:47:55.295Z</time></trkpt><trkpt lat="39.227585" lon="8.5174233"><ele>92.6</ele><time>2026-04-22T13:47:56.295Z</time></trkpt><trkpt lat="39.2275317" lon="8.51738"><ele>91.8</ele><time>2026-04-22T13:47:57.294Z</time></trkpt><trkpt lat="39.2274233" lon="8.51734"><ele>91.0</ele><time>2026-04-22T13:47:59.295Z</time></trkpt><trkpt lat="39.2273183" lon="8.517355"><ele>91.6</ele><time>2026-04-22T13:48:01.294Z</time></trkpt><trkpt lat="39.2271933" lon="8.5173883"><ele>92.19999999999999</ele><time>2026-04-22T13:48:03.295Z</time></trkpt><trkpt lat="39.2271217" lon="8.517405"><ele>92.80000000000001</ele><time>2026-04-22T13:48:04.294Z</time></trkpt><trkpt lat="39.227045" lon="8.5174217"><ele>93.4</ele><time>2026-04-22T13:48:05.294Z</time></trkpt><trkpt lat="39.226955" lon="8.5174367"><ele>94.0</ele><time>2026-04-22T13:48:06.295Z</time></trkpt><trkpt lat="39.2268667" lon="8.517455"><ele>94.0</ele><time>2026-04-22T13:48:07.294Z</time></trkpt><trkpt lat="39.2267817" lon="8.517465"><ele>94.0</ele><time>2026-04-22T13:48:08.295Z</time></trkpt><trkpt lat="39.2266983" lon="8.517465"><ele>94.0</ele><time>2026-04-22T13:48:09.295Z</time></trkpt><trkpt lat="39.226625" lon="8.5174617"><ele>94.0</ele><time>2026-04-22T13:48:10.295Z</time></trkpt><trkpt lat="39.2265583" lon="8.5174583"><ele>94.0</ele><time>2026-04-22T13:48:11.295Z</time></trkpt><trkpt lat="39.2264667" lon="8.5174533"><ele>94.0</ele><time>2026-04-22T13:48:13.295Z</time></trkpt><trkpt lat="39.2264" lon="8.5174567"><ele>96.0</ele><time>2026-04-22T13:48:14.295Z</time></trkpt><trkpt lat="39.226225" lon="8.5174617"><ele>98.0</ele><time>2026-04-22T13:48:16.295Z</time></trkpt><trkpt lat="39.2261183" lon="8.5174717"><ele>100.0</ele><time>2026-04-22T13:48:17.295Z</time></trkpt><trkpt lat="39.2260067" lon="8.5174817"><ele>102.0</ele><time>2026-04-22T13:48:18.294Z</time></trkpt><trkpt lat="39.2258867" lon="8.5174933"><ele>102.0</ele><time>2026-04-22T13:48:19.294Z</time></trkpt><trkpt lat="39.2257617" lon="8.5175067"><ele>102.0</ele><time>2026-04-22T13:48:20.295Z</time></trkpt><trkpt lat="39.2256267" lon="8.517525"><ele>102.0</ele><time>2026-04-22T13:48:21.294Z</time></trkpt><trkpt lat="39.2255017" lon="8.5175467"><ele>102.0</ele><time>2026-04-22T13:48:22.295Z</time></trkpt><trkpt lat="39.2254067" lon="8.5175733"><ele>102.83333333333333</ele><time>2026-04-22T13:48:23.294Z</time></trkpt><trkpt lat="39.2253367" lon="8.5176"><ele>103.66666666666666</ele><time>2026-04-22T13:48:24.294Z</time></trkpt><trkpt lat="39.2252733" lon="8.5176483"><ele>104.5</ele><time>2026-04-22T13:48:25.295Z</time></trkpt><trkpt lat="39.2252117" lon="8.5177167"><ele>105.33333333333333</ele><time>2026-04-22T13:48:26.295Z</time></trkpt><trkpt lat="39.2251583" lon="8.5178017"><ele>106.16666666666666</ele><time>2026-04-22T13:48:27.295Z</time></trkpt><trkpt lat="39.2250933" lon="8.5178983"><ele>107.0</ele><time>2026-04-22T13:48:28.295Z</time></trkpt><trkpt lat="39.225015" lon="8.5179983"><ele>110.0</ele><time>2026-04-22T13:48:29.295Z</time></trkpt><trkpt lat="39.2249217" lon="8.518095"><ele>113.0</ele><time>2026-04-22T13:48:30.295Z</time></trkpt><trkpt lat="39.2248167" lon="8.5181867"><ele>116.0</ele><time>2026-04-22T13:48:31.295Z</time></trkpt><trkpt lat="39.22471" lon="8.518285"><ele>119.0</ele><time>2026-04-22T13:48:32.295Z</time></trkpt><trkpt lat="39.2246117" lon="8.5183767"><ele>120.0</ele><time>2026-04-22T13:48:33.295Z</time></trkpt><trkpt lat="39.2245233" lon="8.5184833"><ele>121.0</ele><time>2026-04-22T13:48:34.295Z</time></trkpt><trkpt lat="39.22444" lon="8.5185883"><ele>122.0</ele><time>2026-04-22T13:48:35.295Z</time></trkpt><trkpt lat="39.22429" lon="8.5187783"><ele>123.0</ele><time>2026-04-22T13:48:37.294Z</time></trkpt><trkpt lat="39.22422" lon="8.5188767"><ele>124.4</ele><time>2026-04-22T13:48:38.295Z</time></trkpt><trkpt lat="39.2241633" lon="8.51898"><ele>125.80000000000001</ele><time>2026-04-22T13:48:39.295Z</time></trkpt><trkpt lat="39.2241233" lon="8.519085"><ele>127.2</ele><time>2026-04-22T13:48:40.295Z</time></trkpt><trkpt lat="39.2240967" lon="8.5191983"><ele>128.6</ele><time>2026-04-22T13:48:41.294Z</time></trkpt><trkpt lat="39.2240983" lon="8.519315"><ele>130.0</ele><time>2026-04-22T13:48:42.295Z</time></trkpt><trkpt lat="39.224105" lon="8.5194317"><ele>130.0</ele><time>2026-04-22T13:48:43.294Z</time></trkpt><trkpt lat="39.2241083" lon="8.51955"><ele>130.0</ele><time>2026-04-22T13:48:44.295Z</time></trkpt><trkpt lat="39.22409" lon="8.51968"><ele>130.0</ele><time>2026-04-22T13:48:45.295Z</time></trkpt><trkpt lat="39.22407" lon="8.5198"><ele>130.0</ele><time>2026-04-22T13:48:46.295Z</time></trkpt><trkpt lat="39.224065" lon="8.5199083"><ele>130.0</ele><time>2026-04-22T13:48:47.295Z</time></trkpt><trkpt lat="39.2240733" lon="8.520055"><ele>131.0</ele><time>2026-04-22T13:48:49.295Z</time></trkpt><trkpt lat="39.2241167" lon="8.5201683"><ele>132.0</ele><time>2026-04-22T13:48:51.294Z</time></trkpt><trkpt lat="39.2240967" lon="8.5202483"><ele>133.0</ele><time>2026-04-22T13:48:53.295Z</time></trkpt><trkpt lat="39.2240217" lon="8.5202883"><ele>134.0</ele><time>2026-04-22T13:48:55.295Z</time></trkpt><trkpt lat="39.2239817" lon="8.5203883"><ele>135.0</ele><time>2026-04-22T13:48:58.294Z</time></trkpt><trkpt lat="39.22403" lon="8.52055"><ele>135.0</ele><time>2026-04-22T13:49:02.295Z</time></trkpt><trkpt lat="39.2240017" lon="8.5206383"><ele>135.0</ele><time>2026-04-22T13:49:05.294Z</time></trkpt><trkpt lat="39.22395" lon="8.5207017"><ele>135.0</ele><time>2026-04-22T13:49:07.294Z</time></trkpt><trkpt lat="39.223865" lon="8.5207333"><ele>135.0</ele><time>2026-04-22T13:49:09.295Z</time></trkpt><trkpt lat="39.22378" lon="8.5206767"><ele>135.0</ele><time>2026-04-22T13:49:11.294Z</time></trkpt><trkpt lat="39.2237283" lon="8.52062"><ele>135.0</ele><time>2026-04-22T13:49:12.295Z</time></trkpt><trkpt lat="39.2236717" lon="8.5205567"><ele>134.33333333333334</ele><time>2026-04-22T13:49:13.294Z</time></trkpt><trkpt lat="39.22361" lon="8.520515"><ele>133.66666666666666</ele><time>2026-04-22T13:49:14.295Z</time></trkpt><trkpt lat="39.2235517" lon="8.52048"><ele>133.0</ele><time>2026-04-22T13:49:15.295Z</time></trkpt><trkpt lat="39.2234467" lon="8.5204033"><ele>132.33333333333331</ele><time>2026-04-22T13:49:17.295Z</time></trkpt><trkpt lat="39.2233817" lon="8.5203567"><ele>131.66666666666666</ele><time>2026-04-22T13:49:18.295Z</time></trkpt><trkpt lat="39.2233267" lon="8.520295"><ele>131.0</ele><time>2026-04-22T13:49:19.295Z</time></trkpt><trkpt lat="39.2231967" lon="8.520215"><ele>130.0</ele><time>2026-04-22T13:49:21.294Z</time></trkpt><trkpt lat="39.2231283" lon="8.520185"><ele>129.0</ele><time>2026-04-22T13:49:22.295Z</time></trkpt><trkpt lat="39.2230533" lon="8.520155"><ele>128.0</ele><time>2026-04-22T13:49:23.294Z</time></trkpt><trkpt lat="39.22298" lon="8.5201133"><ele>127.0</ele><time>2026-04-22T13:49:24.295Z</time></trkpt><trkpt lat="39.2229083" lon="8.5200633"><ele>125.99999999999999</ele><time>2026-04-22T13:49:25.295Z</time></trkpt><trkpt lat="39.2228317" lon="8.520025"><ele>125.0</ele><time>2026-04-22T13:49:26.295Z</time></trkpt><trkpt lat="39.2227433" lon="8.5199833"><ele>124.99999999999999</ele><time>2026-04-22T13:49:27.295Z</time></trkpt><trkpt lat="39.2226617" lon="8.5199317"><ele>125.0</ele><time>2026-04-22T13:49:28.294Z</time></trkpt><trkpt lat="39.2225883" lon="8.5198967"><ele>125.0</ele><time>2026-04-22T13:49:29.295Z</time></trkpt><trkpt lat="39.222515" lon="8.519855"><ele>125.0</ele><time>2026-04-22T13:49:30.295Z</time></trkpt><trkpt lat="39.2224433" lon="8.5198033"><ele>124.99999999999999</ele><time>2026-04-22T13:49:31.295Z</time></trkpt><trkpt lat="39.222365" lon="8.5197567"><ele>125.0</ele><time>2026-04-22T13:49:32.294Z</time></trkpt><trkpt lat="39.2222867" lon="8.5197067"><ele>124.99999999999999</ele><time>2026-04-22T13:49:33.295Z</time></trkpt><trkpt lat="39.2222017" lon="8.519665"><ele>125.0</ele><time>2026-04-22T13:49:34.294Z</time></trkpt><trkpt lat="39.22212" lon="8.51964"><ele>125.0</ele><time>2026-04-22T13:49:35.294Z</time></trkpt><trkpt lat="39.22205" lon="8.519605"><ele>125.0</ele><time>2026-04-22T13:49:36.295Z</time></trkpt><trkpt lat="39.2219817" lon="8.519555"><ele>124.99999999999999</ele><time>2026-04-22T13:49:37.295Z</time></trkpt><trkpt lat="39.2219167" lon="8.5195"><ele>125.0</ele><time>2026-04-22T13:49:38.294Z</time></trkpt><trkpt lat="39.2218383" lon="8.5194517"><ele>125.0</ele><time>2026-04-22T13:49:39.294Z</time></trkpt><trkpt lat="39.22176" lon="8.5193983"><ele>125.0</ele><time>2026-04-22T13:49:40.294Z</time></trkpt><trkpt lat="39.2215933" lon="8.51933"><ele>125.0</ele><time>2026-04-22T13:49:42.295Z</time></trkpt><trkpt lat="39.2215117" lon="8.5193017"><ele>125.0</ele><time>2026-04-22T13:49:43.295Z</time></trkpt><trkpt lat="39.2214283" lon="8.51927"><ele>125.0</ele><time>2026-04-22T13:49:44.294Z</time></trkpt><trkpt lat="39.221335" lon="8.5192483"><ele>123.42857142857142</ele><time>2026-04-22T13:49:45.295Z</time></trkpt><trkpt lat="39.22126" lon="8.51923"><ele>121.85714285714286</ele><time>2026-04-22T13:49:46.295Z</time></trkpt><trkpt lat="39.2211867" lon="8.5192167"><ele>120.28571428571428</ele><time>2026-04-22T13:49:47.295Z</time></trkpt><trkpt lat="39.2211183" lon="8.5192083"><ele>118.71428571428571</ele><time>2026-04-22T13:49:48.294Z</time></trkpt><trkpt lat="39.22105" lon="8.519195"><ele>117.14285714285714</ele><time>2026-04-22T13:49:49.294Z</time></trkpt><trkpt lat="39.2209833" lon="8.5191817"><ele>115.57142857142857</ele><time>2026-04-22T13:49:50.295Z</time></trkpt><trkpt lat="39.22092" lon="8.519155"><ele>114.0</ele><time>2026-04-22T13:49:51.294Z</time></trkpt><trkpt lat="39.22085" lon="8.5191133"><ele>114.0</ele><time>2026-04-22T13:49:52.295Z</time></trkpt><trkpt lat="39.22077" lon="8.5190617"><ele>114.0</ele><time>2026-04-22T13:49:53.295Z</time></trkpt><trkpt lat="39.2206833" lon="8.519005"><ele>114.0</ele><time>2026-04-22T13:49:54.294Z</time></trkpt><trkpt lat="39.2206133" lon="8.51895"><ele>114.0</ele><time>2026-04-22T13:49:55.295Z</time></trkpt><trkpt lat="39.2205333" lon="8.5189017"><ele>114.0</ele><time>2026-04-22T13:49:56.294Z</time></trkpt><trkpt lat="39.2204667" lon="8.5188567"><ele>114.0</ele><time>2026-04-22T13:49:57.295Z</time></trkpt><trkpt lat="39.220385" lon="8.5188067"><ele>112.75</ele><time>2026-04-22T13:49:58.294Z</time></trkpt><trkpt lat="39.2203" lon="8.5187433"><ele>111.5</ele><time>2026-04-22T13:49:59.295Z</time></trkpt><trkpt lat="39.2202083" lon="8.51868"><ele>110.25</ele><time>2026-04-22T13:50:00.295Z</time></trkpt><trkpt lat="39.2201233" lon="8.51863"><ele>109.0</ele><time>2026-04-22T13:50:01.295Z</time></trkpt><trkpt lat="39.2199217" lon="8.5185533"><ele>108.83333333333334</ele><time>2026-04-22T13:50:03.295Z</time></trkpt><trkpt lat="39.2198183" lon="8.518505"><ele>108.66666666666667</ele><time>2026-04-22T13:50:04.294Z</time></trkpt><trkpt lat="39.2197233" lon="8.518455"><ele>108.5</ele><time>2026-04-22T13:50:05.295Z</time></trkpt><trkpt lat="39.219635" lon="8.5184183"><ele>108.33333333333334</ele><time>2026-04-22T13:50:06.295Z</time></trkpt><trkpt lat="39.2195683" lon="8.5183917"><ele>108.16666666666667</ele><time>2026-04-22T13:50:07.295Z</time></trkpt><trkpt lat="39.2194983" lon="8.5183917"><ele>108.0</ele><time>2026-04-22T13:50:08.295Z</time></trkpt><trkpt lat="39.219415" lon="8.518425"><ele>108.0</ele><time>2026-04-22T13:50:09.294Z</time></trkpt><trkpt lat="39.2193267" lon="8.51846"><ele>108.00000000000001</ele><time>2026-04-22T13:50:10.295Z</time></trkpt><trkpt lat="39.2192417" lon="8.51849"><ele>108.00000000000001</ele><time>2026-04-22T13:50:11.294Z</time></trkpt><trkpt lat="39.21916" lon="8.5185217"><ele>108.0</ele><time>2026-04-22T13:50:12.295Z</time></trkpt><trkpt lat="39.2190767" lon="8.5185633"><ele>108.0</ele><time>2026-04-22T13:50:13.294Z</time></trkpt><trkpt lat="39.2189917" lon="8.5186267"><ele>107.75</ele><time>2026-04-22T13:50:14.294Z</time></trkpt><trkpt lat="39.21889" lon="8.5187017"><ele>107.5</ele><time>2026-04-22T13:50:15.294Z</time></trkpt><trkpt lat="39.2187933" lon="8.5187817"><ele>107.25</ele><time>2026-04-22T13:50:16.294Z</time></trkpt><trkpt lat="39.21868" lon="8.5188783"><ele>107.0</ele><time>2026-04-22T13:50:17.294Z</time></trkpt><trkpt lat="39.2185533" lon="8.51898"><ele>106.75</ele><time>2026-04-22T13:50:18.295Z</time></trkpt><trkpt lat="39.2184433" lon="8.5190783"><ele>106.5</ele><time>2026-04-22T13:50:19.295Z</time></trkpt><trkpt lat="39.21835" lon="8.5191633"><ele>106.25</ele><time>2026-04-22T13:50:20.294Z</time></trkpt><trkpt lat="39.2182517" lon="8.5192383"><ele>106.0</ele><time>2026-04-22T13:50:21.295Z</time></trkpt><trkpt lat="39.2181583" lon="8.51932"><ele>106.33333333333334</ele><time>2026-04-22T13:50:22.295Z</time></trkpt><trkpt lat="39.2179433" lon="8.51948"><ele>106.66666666666666</ele><time>2026-04-22T13:50:24.294Z</time></trkpt><trkpt lat="39.2178433" lon="8.5195467"><ele>107.0</ele><time>2026-04-22T13:50:25.294Z</time></trkpt><trkpt lat="39.21774" lon="8.519605"><ele>106.99999999999999</ele><time>2026-04-22T13:50:26.295Z</time></trkpt><trkpt lat="39.2176617" lon="8.5196483"><ele>107.0</ele><time>2026-04-22T13:50:27.295Z</time></trkpt><trkpt lat="39.2176" lon="8.51968"><ele>107.0</ele><time>2026-04-22T13:50:28.295Z</time></trkpt><trkpt lat="39.2175" lon="8.5196883"><ele>107.0</ele><time>2026-04-22T13:50:30.295Z</time></trkpt><trkpt lat="39.2174433" lon="8.5196433"><ele>106.99999999999999</ele><time>2026-04-22T13:50:33.295Z</time></trkpt><trkpt lat="39.2173883" lon="8.5195883"><ele>107.0</ele><time>2026-04-22T13:50:36.295Z</time></trkpt><trkpt lat="39.2173267" lon="8.5195267"><ele>107.5</ele><time>2026-04-22T13:50:38.294Z</time></trkpt><trkpt lat="39.217255" lon="8.51947"><ele>108.0</ele><time>2026-04-22T13:50:40.295Z</time></trkpt><trkpt lat="39.21718" lon="8.519435"><ele>108.5</ele><time>2026-04-22T13:50:42.295Z</time></trkpt><trkpt lat="39.21709" lon="8.51941"><ele>109.0</ele><time>2026-04-22T13:50:44.294Z</time></trkpt><trkpt lat="39.2168633" lon="8.51933"><ele>109.00000000000001</ele><time>2026-04-22T13:50:48.294Z</time></trkpt><trkpt lat="39.216795" lon="8.5193383"><ele>109.0</ele><time>2026-04-22T13:50:49.294Z</time></trkpt><trkpt lat="39.2167317" lon="8.5193433"><ele>109.0</ele><time>2026-04-22T13:50:50.294Z</time></trkpt><trkpt lat="39.2166067" lon="8.5193133"><ele>109.0</ele><time>2026-04-22T13:50:52.295Z</time></trkpt><trkpt lat="39.2165383" lon="8.51928"><ele>109.00000000000001</ele><time>2026-04-22T13:50:53.294Z</time></trkpt><trkpt lat="39.2164683" lon="8.5192367"><ele>109.0</ele><time>2026-04-22T13:50:54.295Z</time></trkpt><trkpt lat="39.2163967" lon="8.5192017"><ele>108.66666666666667</ele><time>2026-04-22T13:50:55.295Z</time></trkpt><trkpt lat="39.216335" lon="8.5191633"><ele>108.33333333333334</ele><time>2026-04-22T13:50:56.295Z</time></trkpt><trkpt lat="39.2162783" lon="8.5191267"><ele>108.0</ele><time>2026-04-22T13:50:57.295Z</time></trkpt><trkpt lat="39.2162217" lon="8.51908"><ele>107.66666666666666</ele><time>2026-04-22T13:50:58.295Z</time></trkpt><trkpt lat="39.2161567" lon="8.5190183"><ele>107.33333333333333</ele><time>2026-04-22T13:50:59.294Z</time></trkpt><trkpt lat="39.216085" lon="8.5189567"><ele>107.0</ele><time>2026-04-22T13:51:00.295Z</time></trkpt><trkpt lat="39.216015" lon="8.518895"><ele>106.99999999999999</ele><time>2026-04-22T13:51:01.295Z</time></trkpt><trkpt lat="39.2159483" lon="8.5188467"><ele>107.0</ele><time>2026-04-22T13:51:02.294Z</time></trkpt><trkpt lat="39.2158833" lon="8.518805"><ele>107.0</ele><time>2026-04-22T13:51:03.294Z</time></trkpt><trkpt lat="39.215815" lon="8.5187767"><ele>107.0</ele><time>2026-04-22T13:51:04.294Z</time></trkpt><trkpt lat="39.2157383" lon="8.5187467"><ele>106.99999999999999</ele><time>2026-04-22T13:51:05.295Z</time></trkpt><trkpt lat="39.2156133" lon="8.5186633"><ele>107.0</ele><time>2026-04-22T13:51:07.295Z</time></trkpt><trkpt lat="39.215525" lon="8.518585"><ele>107.16666666666666</ele><time>2026-04-22T13:51:09.295Z</time></trkpt><trkpt lat="39.2154517" lon="8.5184617"><ele>107.33333333333333</ele><time>2026-04-22T13:51:11.294Z</time></trkpt><trkpt lat="39.2154083" lon="8.51838"><ele>107.5</ele><time>2026-04-22T13:51:12.295Z</time></trkpt><trkpt lat="39.215365" lon="8.5182967"><ele>107.66666666666666</ele><time>2026-04-22T13:51:13.294Z</time></trkpt><trkpt lat="39.2153233" lon="8.5181983"><ele>107.83333333333333</ele><time>2026-04-22T13:51:14.295Z</time></trkpt><trkpt lat="39.2152817" lon="8.5181033"><ele>108.0</ele><time>2026-04-22T13:51:15.295Z</time></trkpt><trkpt lat="39.2152417" lon="8.51802"><ele>108.0</ele><time>2026-04-22T13:51:16.294Z</time></trkpt><trkpt lat="39.2152" lon="8.5179433"><ele>108.0</ele><time>2026-04-22T13:51:17.294Z</time></trkpt><trkpt lat="39.2151567" lon="8.5178533"><ele>108.0</ele><time>2026-04-22T13:51:18.295Z</time></trkpt><trkpt lat="39.2151083" lon="8.5177583"><ele>108.0</ele><time>2026-04-22T13:51:19.295Z</time></trkpt><trkpt lat="39.2150517" lon="8.5176583"><ele>108.0</ele><time>2026-04-22T13:51:20.295Z</time></trkpt><trkpt lat="39.2150083" lon="8.51756"><ele>108.0</ele><time>2026-04-22T13:51:21.295Z</time></trkpt><trkpt lat="39.214965" lon="8.517485"><ele>107.80000000000001</ele><time>2026-04-22T13:51:22.295Z</time></trkpt><trkpt lat="39.2149133" lon="8.51742"><ele>107.60000000000001</ele><time>2026-04-22T13:51:23.295Z</time></trkpt><trkpt lat="39.2148533" lon="8.5173633"><ele>107.39999999999999</ele><time>2026-04-22T13:51:24.294Z</time></trkpt><trkpt lat="39.2147833" lon="8.517315"><ele>107.19999999999999</ele><time>2026-04-22T13:51:25.295Z</time></trkpt><trkpt lat="39.2147117" lon="8.5172467"><ele>107.0</ele><time>2026-04-22T13:51:26.295Z</time></trkpt><trkpt lat="39.21459" lon="8.5171367"><ele>106.66666666666666</ele><time>2026-04-22T13:51:28.294Z</time></trkpt><trkpt lat="39.2145" lon="8.5170417"><ele>106.33333333333333</ele><time>2026-04-22T13:51:30.294Z</time></trkpt><trkpt lat="39.214465" lon="8.5169717"><ele>106.0</ele><time>2026-04-22T13:51:31.295Z</time></trkpt><trkpt lat="39.21443" lon="8.51689"><ele>105.66666666666666</ele><time>2026-04-22T13:51:32.295Z</time></trkpt><trkpt lat="39.2143883" lon="8.516815"><ele>105.33333333333333</ele><time>2026-04-22T13:51:33.295Z</time></trkpt><trkpt lat="39.2143483" lon="8.5167467"><ele>105.0</ele><time>2026-04-22T13:51:34.295Z</time></trkpt><trkpt lat="39.2143033" lon="8.5166683"><ele>105.0</ele><time>2026-04-22T13:51:35.295Z</time></trkpt><trkpt lat="39.2142533" lon="8.5166"><ele>105.0</ele><time>2026-04-22T13:51:36.295Z</time></trkpt><trkpt lat="39.2141967" lon="8.5165283"><ele>105.0</ele><time>2026-04-22T13:51:37.295Z</time></trkpt><trkpt lat="39.2141117" lon="8.5164767"><ele>105.0</ele><time>2026-04-22T13:51:38.295Z</time></trkpt><trkpt lat="39.2140117" lon="8.5164217"><ele>105.0</ele><time>2026-04-22T13:51:39.295Z</time></trkpt><trkpt lat="39.213895" lon="8.5163583"><ele>104.5</ele><time>2026-04-22T13:51:40.295Z</time></trkpt><trkpt lat="39.21377" lon="8.516285"><ele>104.0</ele><time>2026-04-22T13:51:41.295Z</time></trkpt><trkpt lat="39.213645" lon="8.5162167"><ele>103.5</ele><time>2026-04-22T13:51:42.295Z</time></trkpt><trkpt lat="39.21353" lon="8.5161483"><ele>103.0</ele><time>2026-04-22T13:51:43.295Z</time></trkpt><trkpt lat="39.21342" lon="8.516095"><ele>102.25</ele><time>2026-04-22T13:51:44.294Z</time></trkpt><trkpt lat="39.2133067" lon="8.5160433"><ele>101.5</ele><time>2026-04-22T13:51:45.295Z</time></trkpt><trkpt lat="39.2132033" lon="8.5160017"><ele>100.75</ele><time>2026-04-22T13:51:46.294Z</time></trkpt><trkpt lat="39.2130983" lon="8.515975"><ele>100.0</ele><time>2026-04-22T13:51:47.295Z</time></trkpt><trkpt lat="39.21292" lon="8.5159517"><ele>99.83333333333334</ele><time>2026-04-22T13:51:49.295Z</time></trkpt><trkpt lat="39.212825" lon="8.515965"><ele>99.66666666666667</ele><time>2026-04-22T13:51:50.294Z</time></trkpt><trkpt lat="39.2127417" lon="8.5159767"><ele>99.5</ele><time>2026-04-22T13:51:51.295Z</time></trkpt><trkpt lat="39.2126567" lon="8.515985"><ele>99.33333333333334</ele><time>2026-04-22T13:51:52.295Z</time></trkpt><trkpt lat="39.2125667" lon="8.51598"><ele>99.16666666666667</ele><time>2026-04-22T13:51:53.294Z</time></trkpt><trkpt lat="39.2124833" lon="8.515965"><ele>99.0</ele><time>2026-04-22T13:51:54.294Z</time></trkpt><trkpt lat="39.2124183" lon="8.5159517"><ele>99.0</ele><time>2026-04-22T13:51:55.294Z</time></trkpt><trkpt lat="39.2123417" lon="8.5159417"><ele>99.0</ele><time>2026-04-22T13:51:56.295Z</time></trkpt><trkpt lat="39.2122633" lon="8.5159333"><ele>99.0</ele><time>2026-04-22T13:51:57.294Z</time></trkpt><trkpt lat="39.2121833" lon="8.51591"><ele>99.0</ele><time>2026-04-22T13:51:58.295Z</time></trkpt><trkpt lat="39.2121" lon="8.5158833"><ele>99.0</ele><time>2026-04-22T13:51:59.295Z</time></trkpt><trkpt lat="39.21202" lon="8.5158483"><ele>99.0</ele><time>2026-04-22T13:52:00.295Z</time></trkpt><trkpt lat="39.2119417" lon="8.51581"><ele>99.0</ele><time>2026-04-22T13:52:01.294Z</time></trkpt><trkpt lat="39.2118817" lon="8.5157783"><ele>99.0</ele><time>2026-04-22T13:52:02.295Z</time></trkpt><trkpt lat="39.2118067" lon="8.5157217"><ele>99.0</ele><time>2026-04-22T13:52:04.294Z</time></trkpt><trkpt lat="39.2117817" lon="8.515635"><ele>99.0</ele><time>2026-04-22T13:52:06.295Z</time></trkpt><trkpt lat="39.2117683" lon="8.5155083"><ele>99.0</ele><time>2026-04-22T13:52:08.294Z</time></trkpt><trkpt lat="39.21163" lon="8.5152467"><ele>99.16666666666667</ele><time>2026-04-22T13:52:12.295Z</time></trkpt><trkpt lat="39.21157" lon="8.5151883"><ele>99.33333333333334</ele><time>2026-04-22T13:52:13.294Z</time></trkpt><trkpt lat="39.2115017" lon="8.5151267"><ele>99.5</ele><time>2026-04-22T13:52:14.295Z</time></trkpt><trkpt lat="39.2114367" lon="8.5150617"><ele>99.66666666666667</ele><time>2026-04-22T13:52:15.295Z</time></trkpt><trkpt lat="39.2113667" lon="8.5149983"><ele>99.83333333333334</ele><time>2026-04-22T13:52:16.295Z</time></trkpt><trkpt lat="39.2112917" lon="8.51493"><ele>100.0</ele><time>2026-04-22T13:52:17.295Z</time></trkpt><trkpt lat="39.2112017" lon="8.5148733"><ele>101.25</ele><time>2026-04-22T13:52:18.294Z</time></trkpt><trkpt lat="39.21111" lon="8.51483"><ele>102.5</ele><time>2026-04-22T13:52:19.294Z</time></trkpt><trkpt lat="39.2110017" lon="8.51478"><ele>103.75</ele><time>2026-04-22T13:52:20.295Z</time></trkpt><trkpt lat="39.2109017" lon="8.5147183"><ele>105.0</ele><time>2026-04-22T13:52:21.295Z</time></trkpt><trkpt lat="39.2107833" lon="8.5146333"><ele>105.25</ele><time>2026-04-22T13:52:22.295Z</time></trkpt><trkpt lat="39.2106767" lon="8.51454"><ele>105.5</ele><time>2026-04-22T13:52:23.295Z</time></trkpt><trkpt lat="39.21058" lon="8.5144533"><ele>105.75</ele><time>2026-04-22T13:52:24.295Z</time></trkpt><trkpt lat="39.210495" lon="8.51436"><ele>106.0</ele><time>2026-04-22T13:52:25.295Z</time></trkpt><trkpt lat="39.2104117" lon="8.5142783"><ele>106.8</ele><time>2026-04-22T13:52:26.294Z</time></trkpt><trkpt lat="39.210335" lon="8.5141767"><ele>107.6</ele><time>2026-04-22T13:52:27.295Z</time></trkpt><trkpt lat="39.2102683" lon="8.51408"><ele>108.4</ele><time>2026-04-22T13:52:28.295Z</time></trkpt><trkpt lat="39.21021" lon="8.513985"><ele>109.2</ele><time>2026-04-22T13:52:29.294Z</time></trkpt><trkpt lat="39.2101183" lon="8.51384"><ele>110.0</ele><time>2026-04-22T13:52:31.295Z</time></trkpt><trkpt lat="39.2100633" lon="8.51374"><ele>109.4</ele><time>2026-04-22T13:52:33.294Z</time></trkpt><trkpt lat="39.2101083" lon="8.513605"><ele>108.8</ele><time>2026-04-22T13:52:36.294Z</time></trkpt><trkpt lat="39.210165" lon="8.5135317"><ele>108.19999999999999</ele><time>2026-04-22T13:52:37.295Z</time></trkpt><trkpt lat="39.2102183" lon="8.513445"><ele>107.6</ele><time>2026-04-22T13:52:38.295Z</time></trkpt><trkpt lat="39.2102583" lon="8.5133333"><ele>107.0</ele><time>2026-04-22T13:52:39.295Z</time></trkpt><trkpt lat="39.2102817" lon="8.5132033"><ele>107.0</ele><time>2026-04-22T13:52:40.294Z</time></trkpt><trkpt lat="39.2102883" lon="8.5130667"><ele>106.99999999999999</ele><time>2026-04-22T13:52:41.294Z</time></trkpt><trkpt lat="39.2102983" lon="8.512925"><ele>106.99999999999999</ele><time>2026-04-22T13:52:42.295Z</time></trkpt><trkpt lat="39.210305" lon="8.5127817"><ele>107.0</ele><time>2026-04-22T13:52:43.294Z</time></trkpt><trkpt lat="39.2103133" lon="8.5126317"><ele>107.0</ele><time>2026-04-22T13:52:44.294Z</time></trkpt><trkpt lat="39.210325" lon="8.5124767"><ele>107.25</ele><time>2026-04-22T13:52:45.295Z</time></trkpt><trkpt lat="39.210335" lon="8.51232"><ele>107.5</ele><time>2026-04-22T13:52:46.295Z</time></trkpt><trkpt lat="39.2103517" lon="8.5121667"><ele>107.75</ele><time>2026-04-22T13:52:47.294Z</time></trkpt><trkpt lat="39.21037" lon="8.51202"><ele>108.0</ele><time>2026-04-22T13:52:48.294Z</time></trkpt><trkpt lat="39.2103767" lon="8.5118917"><ele>107.25</ele><time>2026-04-22T13:52:49.295Z</time></trkpt><trkpt lat="39.2103917" lon="8.5117583"><ele>106.5</ele><time>2026-04-22T13:52:50.294Z</time></trkpt><trkpt lat="39.2103683" lon="8.5114917"><ele>105.75</ele><time>2026-04-22T13:52:52.295Z</time></trkpt><trkpt lat="39.21032" lon="8.5113617"><ele>105.0</ele><time>2026-04-22T13:52:53.295Z</time></trkpt><trkpt lat="39.21025" lon="8.5112417"><ele>103.8</ele><time>2026-04-22T13:52:54.295Z</time></trkpt><trkpt lat="39.2101667" lon="8.5111433"><ele>102.6</ele><time>2026-04-22T13:52:55.294Z</time></trkpt><trkpt lat="39.2100733" lon="8.5110667"><ele>101.4</ele><time>2026-04-22T13:52:56.295Z</time></trkpt><trkpt lat="39.2099717" lon="8.511015"><ele>100.2</ele><time>2026-04-22T13:52:57.294Z</time></trkpt><trkpt lat="39.209865" lon="8.5109817"><ele>99.0</ele><time>2026-04-22T13:52:58.295Z</time></trkpt><trkpt lat="39.2097617" lon="8.5109467"><ele>99.0</ele><time>2026-04-22T13:52:59.294Z</time></trkpt><trkpt lat="39.2096417" lon="8.5109117"><ele>99.0</ele><time>2026-04-22T13:53:00.295Z</time></trkpt><trkpt lat="39.2095183" lon="8.51088"><ele>99.0</ele><time>2026-04-22T13:53:01.294Z</time></trkpt><trkpt lat="39.20939" lon="8.5108433"><ele>99.0</ele><time>2026-04-22T13:53:02.294Z</time></trkpt><trkpt lat="39.2092567" lon="8.51081"><ele>99.0</ele><time>2026-04-22T13:53:03.294Z</time></trkpt><trkpt lat="39.20913" lon="8.5107767"><ele>99.0</ele><time>2026-04-22T13:53:04.294Z</time></trkpt><trkpt lat="39.2090133" lon="8.5107433"><ele>99.0</ele><time>2026-04-22T13:53:05.294Z</time></trkpt><trkpt lat="39.2089133" lon="8.51072"><ele>99.0</ele><time>2026-04-22T13:53:06.293Z</time></trkpt><trkpt lat="39.20882" lon="8.5106917"><ele>99.0</ele><time>2026-04-22T13:53:07.294Z</time></trkpt><trkpt lat="39.2087467" lon="8.5106667"><ele>99.80000000000001</ele><time>2026-04-22T13:53:08.294Z</time></trkpt><trkpt lat="39.2086683" lon="8.5106317"><ele>100.60000000000001</ele><time>2026-04-22T13:53:10.294Z</time></trkpt><trkpt lat="39.20857" lon="8.5106267"><ele>101.4</ele><time>2026-04-22T13:53:12.294Z</time></trkpt><trkpt lat="39.2084183" lon="8.5106733"><ele>102.2</ele><time>2026-04-22T13:53:14.294Z</time></trkpt><trkpt lat="39.2083517" lon="8.5106617"><ele>103.0</ele><time>2026-04-22T13:53:15.293Z</time></trkpt><trkpt lat="39.2082867" lon="8.5106233"><ele>103.0</ele><time>2026-04-22T13:53:16.293Z</time></trkpt><trkpt lat="39.2082267" lon="8.5105283"><ele>103.0</ele><time>2026-04-22T13:53:17.294Z</time></trkpt><trkpt lat="39.2081667" lon="8.5104083"><ele>103.0</ele><time>2026-04-22T13:53:18.294Z</time></trkpt><trkpt lat="39.2081033" lon="8.5102867"><ele>103.0</ele><time>2026-04-22T13:53:19.294Z</time></trkpt><trkpt lat="39.2080517" lon="8.5101883"><ele>103.0</ele><time>2026-04-22T13:53:20.294Z</time></trkpt><trkpt lat="39.2080217" lon="8.5101133"><ele>103.60000000000001</ele><time>2026-04-22T13:53:21.293Z</time></trkpt><trkpt lat="39.2079567" lon="8.51004"><ele>104.2</ele><time>2026-04-22T13:53:24.294Z</time></trkpt><trkpt lat="39.2078617" lon="8.510095"><ele>104.8</ele><time>2026-04-22T13:53:26.294Z</time></trkpt><trkpt lat="39.207795" lon="8.5101733"><ele>105.4</ele><time>2026-04-22T13:53:27.294Z</time></trkpt><trkpt lat="39.207725" lon="8.510255"><ele>106.0</ele><time>2026-04-22T13:53:28.294Z</time></trkpt><trkpt lat="39.20765" lon="8.51034"><ele>106.0</ele><time>2026-04-22T13:53:29.294Z</time></trkpt><trkpt lat="39.2075567" lon="8.51044"><ele>106.0</ele><time>2026-04-22T13:53:30.294Z</time></trkpt><trkpt lat="39.2074783" lon="8.5105217"><ele>106.0</ele><time>2026-04-22T13:53:31.293Z</time></trkpt><trkpt lat="39.2074133" lon="8.51059"><ele>106.0</ele><time>2026-04-22T13:53:32.294Z</time></trkpt><trkpt lat="39.207355" lon="8.5106533"><ele>106.0</ele><time>2026-04-22T13:53:33.294Z</time></trkpt><trkpt lat="39.20729" lon="8.5108233"><ele>106.33333333333334</ele><time>2026-04-22T13:53:35.294Z</time></trkpt><trkpt lat="39.2072817" lon="8.5109417"><ele>106.66666666666667</ele><time>2026-04-22T13:53:36.293Z</time></trkpt><trkpt lat="39.2072783" lon="8.5110483"><ele>107.0</ele><time>2026-04-22T13:53:37.294Z</time></trkpt><trkpt lat="39.2072817" lon="8.51115"><ele>107.33333333333334</ele><time>2026-04-22T13:53:38.294Z</time></trkpt><trkpt lat="39.207275" lon="8.51125"><ele>107.66666666666667</ele><time>2026-04-22T13:53:39.293Z</time></trkpt><trkpt lat="39.207265" lon="8.5113533"><ele>108.0</ele><time>2026-04-22T13:53:40.294Z</time></trkpt><trkpt lat="39.207235" lon="8.5114433"><ele>109.0</ele><time>2026-04-22T13:53:41.294Z</time></trkpt><trkpt lat="39.2071833" lon="8.5115567"><ele>110.00000000000001</ele><time>2026-04-22T13:53:43.294Z</time></trkpt><trkpt lat="39.207145" lon="8.5116583"><ele>111.00000000000001</ele><time>2026-04-22T13:53:46.294Z</time></trkpt><trkpt lat="39.2071033" lon="8.5117533"><ele>112.0</ele><time>2026-04-22T13:53:48.293Z</time></trkpt><trkpt lat="39.207035" lon="8.5118867"><ele>113.0</ele><time>2026-04-22T13:53:50.294Z</time></trkpt><trkpt lat="39.2069833" lon="8.51196"><ele>113.0</ele><time>2026-04-22T13:53:51.294Z</time></trkpt><trkpt lat="39.2069133" lon="8.5120283"><ele>113.0</ele><time>2026-04-22T13:53:52.293Z</time></trkpt><trkpt lat="39.20683" lon="8.5120967"><ele>113.0</ele><time>2026-04-22T13:53:53.293Z</time></trkpt><trkpt lat="39.20674" lon="8.5121733"><ele>113.0</ele><time>2026-04-22T13:53:54.294Z</time></trkpt><trkpt lat="39.206545" lon="8.5123083"><ele>115.99999999999999</ele><time>2026-04-22T13:53:56.294Z</time></trkpt><trkpt lat="39.2064567" lon="8.5123717"><ele>119.0</ele><time>2026-04-22T13:53:57.294Z</time></trkpt><trkpt lat="39.2063817" lon="8.5124167"><ele>122.0</ele><time>2026-04-22T13:53:58.294Z</time></trkpt><trkpt lat="39.2063133" lon="8.5124683"><ele>125.0</ele><time>2026-04-22T13:53:59.294Z</time></trkpt><trkpt lat="39.2062517" lon="8.5125217"><ele>127.99999999999999</ele><time>2026-04-22T13:54:00.294Z</time></trkpt><trkpt lat="39.2062033" lon="8.512575"><ele>131.0</ele><time>2026-04-22T13:54:01.293Z</time></trkpt><trkpt lat="39.2061467" lon="8.512665"><ele>131.0</ele><time>2026-04-22T13:54:03.294Z</time></trkpt><trkpt lat="39.206105" lon="8.5127433"><ele>131.0</ele><time>2026-04-22T13:54:05.293Z</time></trkpt><trkpt lat="39.2060683" lon="8.5128617"><ele>131.0</ele><time>2026-04-22T13:54:07.293Z</time></trkpt><trkpt lat="39.2060267" lon="8.512985"><ele>131.0</ele><time>2026-04-22T13:54:09.294Z</time></trkpt><trkpt lat="39.20599" lon="8.513095"><ele>131.0</ele><time>2026-04-22T13:54:11.294Z</time></trkpt><trkpt lat="39.206005" lon="8.5132217"><ele>130.8</ele><time>2026-04-22T13:54:22.293Z</time></trkpt><trkpt lat="39.20601" lon="8.5134333"><ele>130.6</ele><time>2026-04-22T13:54:26.294Z</time></trkpt><trkpt lat="39.205995" lon="8.51354"><ele>130.4</ele><time>2026-04-22T13:54:28.294Z</time></trkpt><trkpt lat="39.205955" lon="8.5136283"><ele>130.2</ele><time>2026-04-22T13:54:30.294Z</time></trkpt><trkpt lat="39.2058817" lon="8.5137433"><ele>130.0</ele><time>2026-04-22T13:54:32.293Z</time></trkpt><trkpt lat="39.205835" lon="8.5138117"><ele>130.0</ele><time>2026-04-22T13:54:33.294Z</time></trkpt><trkpt lat="39.205785" lon="8.5138717"><ele>130.0</ele><time>2026-04-22T13:54:34.294Z</time></trkpt><trkpt lat="39.2057333" lon="8.5139333"><ele>130.0</ele><time>2026-04-22T13:54:35.294Z</time></trkpt><trkpt lat="39.2056867" lon="8.5140033"><ele>130.0</ele><time>2026-04-22T13:54:36.294Z</time></trkpt><trkpt lat="39.2056417" lon="8.5140917"><ele>130.0</ele><time>2026-04-22T13:54:37.293Z</time></trkpt><trkpt lat="39.2055983" lon="8.5141867"><ele>130.0</ele><time>2026-04-22T13:54:38.294Z</time></trkpt><trkpt lat="39.205555" lon="8.5142817"><ele>132.0</ele><time>2026-04-22T13:54:39.294Z</time></trkpt><trkpt lat="39.205505" lon="8.51439"><ele>134.0</ele><time>2026-04-22T13:54:40.293Z</time></trkpt><trkpt lat="39.20546" lon="8.5144967"><ele>136.0</ele><time>2026-04-22T13:54:41.294Z</time></trkpt><trkpt lat="39.2054067" lon="8.5145883"><ele>138.0</ele><time>2026-04-22T13:54:42.294Z</time></trkpt><trkpt lat="39.2053567" lon="8.5146683"><ele>140.0</ele><time>2026-04-22T13:54:43.293Z</time></trkpt><trkpt lat="39.2052817" lon="8.514895"><ele>140.0</ele><time>2026-04-22T13:54:46.294Z</time></trkpt><trkpt lat="39.2052683" lon="8.514985"><ele>140.0</ele><time>2026-04-22T13:54:47.294Z</time></trkpt><trkpt lat="39.2052517" lon="8.5150917"><ele>140.0</ele><time>2026-04-22T13:54:48.294Z</time></trkpt><trkpt lat="39.2052333" lon="8.5152033"><ele>140.0</ele><time>2026-04-22T13:54:49.293Z</time></trkpt><trkpt lat="39.20522" lon="8.5153133"><ele>140.0</ele><time>2026-04-22T13:54:50.294Z</time></trkpt><trkpt lat="39.2052117" lon="8.51542"><ele>140.0</ele><time>2026-04-22T13:54:51.293Z</time></trkpt><trkpt lat="39.2052133" lon="8.515525"><ele>139.83333333333331</ele><time>2026-04-22T13:54:52.294Z</time></trkpt><trkpt lat="39.20522" lon="8.5156283"><ele>139.66666666666666</ele><time>2026-04-22T13:54:53.294Z</time></trkpt><trkpt lat="39.20523" lon="8.5157317"><ele>139.5</ele><time>2026-04-22T13:54:54.293Z</time></trkpt><trkpt lat="39.20524" lon="8.51583"><ele>139.33333333333334</ele><time>2026-04-22T13:54:55.294Z</time></trkpt><trkpt lat="39.205265" lon="8.5159333"><ele>139.16666666666669</ele><time>2026-04-22T13:54:56.293Z</time></trkpt><trkpt lat="39.2053" lon="8.5160417"><ele>139.0</ele><time>2026-04-22T13:54:57.294Z</time></trkpt><trkpt lat="39.2053233" lon="8.5161583"><ele>138.6</ele><time>2026-04-22T13:54:58.293Z</time></trkpt><trkpt lat="39.2053383" lon="8.5162783"><ele>138.2</ele><time>2026-04-22T13:54:59.293Z</time></trkpt><trkpt lat="39.2053417" lon="8.5164033"><ele>137.79999999999998</ele><time>2026-04-22T13:55:00.293Z</time></trkpt><trkpt lat="39.2053433" lon="8.5165333"><ele>137.4</ele><time>2026-04-22T13:55:01.294Z</time></trkpt><trkpt lat="39.2053333" lon="8.51667"><ele>137.0</ele><time>2026-04-22T13:55:02.294Z</time></trkpt><trkpt lat="39.2053133" lon="8.516805"><ele>137.0</ele><time>2026-04-22T13:55:03.294Z</time></trkpt><trkpt lat="39.2052917" lon="8.5169383"><ele>137.0</ele><time>2026-04-22T13:55:04.294Z</time></trkpt><trkpt lat="39.205225" lon="8.51721"><ele>137.0</ele><time>2026-04-22T13:55:06.294Z</time></trkpt><trkpt lat="39.2051883" lon="8.5173283"><ele>137.0</ele><time>2026-04-22T13:55:07.293Z</time></trkpt><trkpt lat="39.2051417" lon="8.517455"><ele>137.6</ele><time>2026-04-22T13:55:08.294Z</time></trkpt><trkpt lat="39.2051033" lon="8.5175733"><ele>138.2</ele><time>2026-04-22T13:55:09.294Z</time></trkpt><trkpt lat="39.2050717" lon="8.5176967"><ele>138.8</ele><time>2026-04-22T13:55:10.294Z</time></trkpt><trkpt lat="39.205045" lon="8.51783"><ele>139.4</ele><time>2026-04-22T13:55:11.293Z</time></trkpt><trkpt lat="39.20503" lon="8.5179533"><ele>140.0</ele><time>2026-04-22T13:55:12.293Z</time></trkpt><trkpt lat="39.20503" lon="8.518075"><ele>140.33333333333331</ele><time>2026-04-22T13:55:13.294Z</time></trkpt><trkpt lat="39.2050333" lon="8.51819"><ele>140.66666666666666</ele><time>2026-04-22T13:55:14.293Z</time></trkpt><trkpt lat="39.205055" lon="8.518305"><ele>141.0</ele><time>2026-04-22T13:55:15.294Z</time></trkpt><trkpt lat="39.20509" lon="8.5184117"><ele>141.33333333333334</ele><time>2026-04-22T13:55:16.293Z</time></trkpt><trkpt lat="39.2051333" lon="8.51851"><ele>141.66666666666669</ele><time>2026-04-22T13:55:17.294Z</time></trkpt><trkpt lat="39.20517" lon="8.518605"><ele>142.0</ele><time>2026-04-22T13:55:18.293Z</time></trkpt><trkpt lat="39.2052083" lon="8.5187"><ele>142.16666666666669</ele><time>2026-04-22T13:55:19.293Z</time></trkpt><trkpt lat="39.2052483" lon="8.5187867"><ele>142.33333333333334</ele><time>2026-04-22T13:55:20.294Z</time></trkpt><trkpt lat="39.2052833" lon="8.5188667"><ele>142.5</ele><time>2026-04-22T13:55:21.294Z</time></trkpt><trkpt lat="39.2053233" lon="8.5189467"><ele>142.66666666666666</ele><time>2026-04-22T13:55:22.294Z</time></trkpt><trkpt lat="39.2053583" lon="8.519035"><ele>142.83333333333331</ele><time>2026-04-22T13:55:23.294Z</time></trkpt><trkpt lat="39.2053967" lon="8.5191217"><ele>143.0</ele><time>2026-04-22T13:55:24.294Z</time></trkpt><trkpt lat="39.205425" lon="8.5192117"><ele>143.0</ele><time>2026-04-22T13:55:25.293Z</time></trkpt><trkpt lat="39.2054717" lon="8.5193817"><ele>143.0</ele><time>2026-04-22T13:55:27.294Z</time></trkpt><trkpt lat="39.2055017" lon="8.519465"><ele>143.0</ele><time>2026-04-22T13:55:28.293Z</time></trkpt><trkpt lat="39.2055283" lon="8.5195517"><ele>143.0</ele><time>2026-04-22T13:55:29.293Z</time></trkpt><trkpt lat="39.2055683" lon="8.5196233"><ele>143.0</ele><time>2026-04-22T13:55:30.293Z</time></trkpt><trkpt lat="39.2056167" lon="8.5196867"><ele>143.0</ele><time>2026-04-22T13:55:31.293Z</time></trkpt><trkpt lat="39.2056683" lon="8.51975"><ele>145.0</ele><time>2026-04-22T13:55:32.294Z</time></trkpt><trkpt lat="39.2057183" lon="8.5198017"><ele>147.0</ele><time>2026-04-22T13:55:33.294Z</time></trkpt><trkpt lat="39.2058067" lon="8.519885"><ele>149.0</ele><time>2026-04-22T13:55:35.294Z</time></trkpt><trkpt lat="39.205885" lon="8.519985"><ele>151.0</ele><time>2026-04-22T13:55:37.294Z</time></trkpt><trkpt lat="39.2059183" lon="8.5200633"><ele>153.0</ele><time>2026-04-22T13:55:38.294Z</time></trkpt><trkpt lat="39.2059517" lon="8.5201467"><ele>155.0</ele><time>2026-04-22T13:55:39.294Z</time></trkpt><trkpt lat="39.2059717" lon="8.5202383"><ele>155.0</ele><time>2026-04-22T13:55:40.293Z</time></trkpt><trkpt lat="39.2059833" lon="8.5203267"><ele>155.0</ele><time>2026-04-22T13:55:41.293Z</time></trkpt><trkpt lat="39.2059967" lon="8.5204717"><ele>155.0</ele><time>2026-04-22T13:55:43.294Z</time></trkpt><trkpt lat="39.20599" lon="8.5206083"><ele>155.0</ele><time>2026-04-22T13:55:45.293Z</time></trkpt><trkpt lat="39.2059633" lon="8.52076"><ele>155.0</ele><time>2026-04-22T13:55:47.293Z</time></trkpt><trkpt lat="39.20595" lon="8.5209433"><ele>156.4</ele><time>2026-04-22T13:55:49.294Z</time></trkpt><trkpt lat="39.2059567" lon="8.5210317"><ele>157.8</ele><time>2026-04-22T13:55:50.294Z</time></trkpt><trkpt lat="39.2059533" lon="8.5211867"><ele>159.2</ele><time>2026-04-22T13:55:52.294Z</time></trkpt><trkpt lat="39.2059783" lon="8.5213317"><ele>160.6</ele><time>2026-04-22T13:55:54.293Z</time></trkpt><trkpt lat="39.20599" lon="8.521455"><ele>162.0</ele><time>2026-04-22T13:55:56.294Z</time></trkpt><trkpt lat="39.206005" lon="8.521605"><ele>162.0</ele><time>2026-04-22T13:55:58.294Z</time></trkpt><trkpt lat="39.2060633" lon="8.5217267"><ele>162.0</ele><time>2026-04-22T13:56:00.294Z</time></trkpt><trkpt lat="39.20613" lon="8.5218333"><ele>162.0</ele><time>2026-04-22T13:56:02.294Z</time></trkpt><trkpt lat="39.20617" lon="8.5219717"><ele>162.0</ele><time>2026-04-22T13:56:04.293Z</time></trkpt><trkpt lat="39.2061767" lon="8.5221117"><ele>162.0</ele><time>2026-04-22T13:56:06.294Z</time></trkpt><trkpt lat="39.2061667" lon="8.5222517"><ele>162.39999999999998</ele><time>2026-04-22T13:56:08.294Z</time></trkpt><trkpt lat="39.2060633" lon="8.5225133"><ele>162.79999999999998</ele><time>2026-04-22T13:56:12.293Z</time></trkpt><trkpt lat="39.20603" lon="8.5225867"><ele>163.2</ele><time>2026-04-22T13:56:13.293Z</time></trkpt><trkpt lat="39.20599" lon="8.5226517"><ele>163.6</ele><time>2026-04-22T13:56:14.294Z</time></trkpt><trkpt lat="39.2059433" lon="8.522715"><ele>164.0</ele><time>2026-04-22T13:56:15.294Z</time></trkpt><trkpt lat="39.2058333" lon="8.5228033"><ele>164.0</ele><time>2026-04-22T13:56:17.294Z</time></trkpt><trkpt lat="39.2057683" lon="8.522855"><ele>164.0</ele><time>2026-04-22T13:56:18.293Z</time></trkpt><trkpt lat="39.2057067" lon="8.5229117"><ele>164.0</ele><time>2026-04-22T13:56:19.294Z</time></trkpt><trkpt lat="39.2056467" lon="8.5229667"><ele>164.0</ele><time>2026-04-22T13:56:20.294Z</time></trkpt><trkpt lat="39.2055867" lon="8.5230217"><ele>164.0</ele><time>2026-04-22T13:56:21.294Z</time></trkpt><trkpt lat="39.2055167" lon="8.5230683"><ele>164.0</ele><time>2026-04-22T13:56:22.293Z</time></trkpt><trkpt lat="39.2054517" lon="8.523115"><ele>168.0</ele><time>2026-04-22T13:56:23.294Z</time></trkpt><trkpt lat="39.2053683" lon="8.5232267"><ele>172.0</ele><time>2026-04-22T13:56:25.293Z</time></trkpt><trkpt lat="39.2053517" lon="8.5233817"><ele>176.0</ele><time>2026-04-22T13:56:27.294Z</time></trkpt><trkpt lat="39.2053883" lon="8.5235417"><ele>180.0</ele><time>2026-04-22T13:56:29.294Z</time></trkpt><trkpt lat="39.2054583" lon="8.5237183"><ele>179.16666666666666</ele><time>2026-04-22T13:56:31.294Z</time></trkpt><trkpt lat="39.2055017" lon="8.5238067"><ele>178.33333333333334</ele><time>2026-04-22T13:56:32.294Z</time></trkpt><trkpt lat="39.2055517" lon="8.5239017"><ele>177.5</ele><time>2026-04-22T13:56:33.294Z</time></trkpt><trkpt lat="39.2056033" lon="8.5239933"><ele>176.66666666666669</ele><time>2026-04-22T13:56:34.294Z</time></trkpt><trkpt lat="39.2056433" lon="8.5240767"><ele>175.83333333333334</ele><time>2026-04-22T13:56:35.293Z</time></trkpt><trkpt lat="39.20568" lon="8.5241617"><ele>175.0</ele><time>2026-04-22T13:56:36.293Z</time></trkpt><trkpt lat="39.2057183" lon="8.5242467"><ele>175.0</ele><time>2026-04-22T13:56:37.293Z</time></trkpt><trkpt lat="39.20576" lon="8.524325"><ele>175.0</ele><time>2026-04-22T13:56:38.293Z</time></trkpt><trkpt lat="39.2058033" lon="8.5243883"><ele>175.0</ele><time>2026-04-22T13:56:39.293Z</time></trkpt><trkpt lat="39.2058583" lon="8.5244483"><ele>175.0</ele><time>2026-04-22T13:56:40.293Z</time></trkpt><trkpt lat="39.2059167" lon="8.524515"><ele>175.0</ele><time>2026-04-22T13:56:41.293Z</time></trkpt><trkpt lat="39.2059683" lon="8.524595"><ele>175.0</ele><time>2026-04-22T13:56:42.294Z</time></trkpt><trkpt lat="39.2060217" lon="8.5246817"><ele>175.16666666666669</ele><time>2026-04-22T13:56:43.293Z</time></trkpt><trkpt lat="39.2060633" lon="8.5247567"><ele>175.33333333333334</ele><time>2026-04-22T13:56:44.294Z</time></trkpt><trkpt lat="39.206105" lon="8.52482"><ele>175.5</ele><time>2026-04-22T13:56:45.294Z</time></trkpt><trkpt lat="39.20614" lon="8.5249633"><ele>175.66666666666666</ele><time>2026-04-22T13:56:47.294Z</time></trkpt><trkpt lat="39.2061317" lon="8.5250483"><ele>175.83333333333331</ele><time>2026-04-22T13:56:48.294Z</time></trkpt><trkpt lat="39.2061117" lon="8.525135"><ele>176.0</ele><time>2026-04-22T13:56:49.294Z</time></trkpt><trkpt lat="39.206105" lon="8.5252233"><ele>176.8</ele><time>2026-04-22T13:56:50.294Z</time></trkpt><trkpt lat="39.2060967" lon="8.5254067"><ele>177.60000000000002</ele><time>2026-04-22T13:56:52.293Z</time></trkpt><trkpt lat="39.206085" lon="8.5255033"><ele>178.4</ele><time>2026-04-22T13:56:53.294Z</time></trkpt><trkpt lat="39.2060633" lon="8.525615"><ele>179.2</ele><time>2026-04-22T13:56:54.292Z</time></trkpt><trkpt lat="39.20604" lon="8.5257317"><ele>180.0</ele><time>2026-04-22T13:56:55.294Z</time></trkpt><trkpt lat="39.2060167" lon="8.5258417"><ele>180.0</ele><time>2026-04-22T13:56:56.294Z</time></trkpt><trkpt lat="39.2060033" lon="8.5259583"><ele>180.0</ele><time>2026-04-22T13:56:57.294Z</time></trkpt><trkpt lat="39.2059983" lon="8.526075"><ele>180.0</ele><time>2026-04-22T13:56:58.293Z</time></trkpt><trkpt lat="39.2059983" lon="8.5261933"><ele>180.0</ele><time>2026-04-22T13:56:59.293Z</time></trkpt><trkpt lat="39.2060017" lon="8.526305"><ele>180.0</ele><time>2026-04-22T13:57:00.293Z</time></trkpt><trkpt lat="39.206015" lon="8.5264233"><ele>180.0</ele><time>2026-04-22T13:57:01.294Z</time></trkpt><trkpt lat="39.2060383" lon="8.5265317"><ele>180.0</ele><time>2026-04-22T13:57:02.293Z</time></trkpt><trkpt lat="39.2060567" lon="8.5266367"><ele>180.0</ele><time>2026-04-22T13:57:03.294Z</time></trkpt><trkpt lat="39.2060583" lon="8.52674"><ele>180.0</ele><time>2026-04-22T13:57:04.294Z</time></trkpt><trkpt lat="39.2060517" lon="8.526855"><ele>180.0</ele><time>2026-04-22T13:57:05.294Z</time></trkpt><trkpt lat="39.2060417" lon="8.5269667"><ele>180.0</ele><time>2026-04-22T13:57:06.293Z</time></trkpt><trkpt lat="39.20603" lon="8.5270717"><ele>179.6</ele><time>2026-04-22T13:57:07.294Z</time></trkpt><trkpt lat="39.2060117" lon="8.5271733"><ele>179.2</ele><time>2026-04-22T13:57:08.294Z</time></trkpt><trkpt lat="39.2059783" lon="8.5272717"><ele>178.8</ele><time>2026-04-22T13:57:09.293Z</time></trkpt><trkpt lat="39.2059433" lon="8.5273733"><ele>178.4</ele><time>2026-04-22T13:57:10.294Z</time></trkpt><trkpt lat="39.20591" lon="8.5274717"><ele>178.0</ele><time>2026-04-22T13:57:11.294Z</time></trkpt><trkpt lat="39.205825" lon="8.5276833"><ele>178.0</ele><time>2026-04-22T13:57:13.294Z</time></trkpt><trkpt lat="39.2057733" lon="8.5277883"><ele>178.0</ele><time>2026-04-22T13:57:14.294Z</time></trkpt><trkpt lat="39.2057183" lon="8.527895"><ele>178.0</ele><time>2026-04-22T13:57:15.294Z</time></trkpt><trkpt lat="39.2056633" lon="8.5279917"><ele>178.0</ele><time>2026-04-22T13:57:16.294Z</time></trkpt><trkpt lat="39.2056083" lon="8.5280867"><ele>178.0</ele><time>2026-04-22T13:57:17.294Z</time></trkpt><trkpt lat="39.20557" lon="8.5281917"><ele>178.83333333333334</ele><time>2026-04-22T13:57:18.294Z</time></trkpt><trkpt lat="39.2055333" lon="8.5282983"><ele>179.66666666666669</ele><time>2026-04-22T13:57:19.293Z</time></trkpt><trkpt lat="39.2055" lon="8.5283933"><ele>180.5</ele><time>2026-04-22T13:57:20.294Z</time></trkpt><trkpt lat="39.2054567" lon="8.5284833"><ele>181.33333333333334</ele><time>2026-04-22T13:57:21.293Z</time></trkpt><trkpt lat="39.205405" lon="8.528575"><ele>182.16666666666666</ele><time>2026-04-22T13:57:22.293Z</time></trkpt><trkpt lat="39.2053317" lon="8.5286717"><ele>183.0</ele><time>2026-04-22T13:57:23.294Z</time></trkpt><trkpt lat="39.2052667" lon="8.52879"><ele>183.0</ele><time>2026-04-22T13:57:24.294Z</time></trkpt><trkpt lat="39.2052067" lon="8.52891"><ele>183.0</ele><time>2026-04-22T13:57:25.294Z</time></trkpt><trkpt lat="39.20516" lon="8.5290167"><ele>183.0</ele><time>2026-04-22T13:57:26.294Z</time></trkpt><trkpt lat="39.2051217" lon="8.529105"><ele>183.0</ele><time>2026-04-22T13:57:27.293Z</time></trkpt><trkpt lat="39.20509" lon="8.5291983"><ele>183.0</ele><time>2026-04-22T13:57:28.293Z</time></trkpt><trkpt lat="39.2050717" lon="8.5292867"><ele>183.0</ele><time>2026-04-22T13:57:29.294Z</time></trkpt><trkpt lat="39.20506" lon="8.5294417"><ele>183.0</ele><time>2026-04-22T13:57:31.294Z</time></trkpt><trkpt lat="39.2050633" lon="8.5295233"><ele>183.0</ele><time>2026-04-22T13:57:32.294Z</time></trkpt><trkpt lat="39.20513" lon="8.5297333"><ele>183.0</ele><time>2026-04-22T13:57:35.294Z</time></trkpt><trkpt lat="39.2051867" lon="8.5298133"><ele>183.0</ele><time>2026-04-22T13:57:36.293Z</time></trkpt><trkpt lat="39.2052483" lon="8.5298983"><ele>183.0</ele><time>2026-04-22T13:57:37.294Z</time></trkpt><trkpt lat="39.2053083" lon="8.53"><ele>183.33333333333334</ele><time>2026-04-22T13:57:38.293Z</time></trkpt><trkpt lat="39.20536" lon="8.5300933"><ele>183.66666666666666</ele><time>2026-04-22T13:57:39.293Z</time></trkpt><trkpt lat="39.20541" lon="8.5301933"><ele>184.0</ele><time>2026-04-22T13:57:40.293Z</time></trkpt><trkpt lat="39.2054533" lon="8.5302833"><ele>184.33333333333331</ele><time>2026-04-22T13:57:41.293Z</time></trkpt><trkpt lat="39.205485" lon="8.5303783"><ele>184.66666666666666</ele><time>2026-04-22T13:57:42.294Z</time></trkpt><trkpt lat="39.2054983" lon="8.5304767"><ele>185.0</ele><time>2026-04-22T13:57:43.294Z</time></trkpt><trkpt lat="39.2055067" lon="8.53057"><ele>186.83333333333331</ele><time>2026-04-22T13:57:44.294Z</time></trkpt><trkpt lat="39.2055083" lon="8.53066"><ele>188.66666666666666</ele><time>2026-04-22T13:57:45.293Z</time></trkpt><trkpt lat="39.2054817" lon="8.53079"><ele>190.5</ele><time>2026-04-22T13:57:47.293Z</time></trkpt><trkpt lat="39.20546" lon="8.5308667"><ele>192.33333333333331</ele><time>2026-04-22T13:57:48.294Z</time></trkpt><trkpt lat="39.2054433" lon="8.53096"><ele>194.16666666666666</ele><time>2026-04-22T13:57:49.293Z</time></trkpt><trkpt lat="39.2054267" lon="8.53106"><ele>196.0</ele><time>2026-04-22T13:57:50.293Z</time></trkpt><trkpt lat="39.2054083" lon="8.531165"><ele>196.75</ele><time>2026-04-22T13:57:51.294Z</time></trkpt><trkpt lat="39.2053933" lon="8.5312617"><ele>197.5</ele><time>2026-04-22T13:57:52.293Z</time></trkpt><trkpt lat="39.20537" lon="8.5313917"><ele>198.25</ele><time>2026-04-22T13:57:54.293Z</time></trkpt><trkpt lat="39.2053367" lon="8.5315817"><ele>199.0</ele><time>2026-04-22T13:57:58.294Z</time></trkpt><trkpt lat="39.20537" lon="8.5317433"><ele>199.0</ele><time>2026-04-22T13:58:00.294Z</time></trkpt><trkpt lat="39.2054167" lon="8.5318717"><ele>199.0</ele><time>2026-04-22T13:58:02.293Z</time></trkpt><trkpt lat="39.2054983" lon="8.5319417"><ele>199.0</ele><time>2026-04-22T13:58:04.294Z</time></trkpt><trkpt lat="39.2056133" lon="8.531975"><ele>199.0</ele><time>2026-04-22T13:58:06.293Z</time></trkpt><trkpt lat="39.2057133" lon="8.53198"><ele>199.0</ele><time>2026-04-22T13:58:08.293Z</time></trkpt><trkpt lat="39.2058367" lon="8.5319633"><ele>197.0</ele><time>2026-04-22T13:58:10.293Z</time></trkpt><trkpt lat="39.2059483" lon="8.5319133"><ele>195.0</ele><time>2026-04-22T13:58:12.294Z</time></trkpt><trkpt lat="39.206025" lon="8.5318583"><ele>193.0</ele><time>2026-04-22T13:58:14.294Z</time></trkpt><trkpt lat="39.2061017" lon="8.53181"><ele>191.0</ele><time>2026-04-22T13:58:17.294Z</time></trkpt><trkpt lat="39.20625" lon="8.531785"><ele>189.0</ele><time>2026-04-22T13:58:22.293Z</time></trkpt><trkpt lat="39.2063333" lon="8.5317983"><ele>189.0</ele><time>2026-04-22T13:58:25.293Z</time></trkpt><trkpt lat="39.206405" lon="8.5318317"><ele>189.0</ele><time>2026-04-22T13:58:29.294Z</time></trkpt><trkpt lat="39.2064433" lon="8.5319517"><ele>189.0</ele><time>2026-04-22T13:58:32.294Z</time></trkpt><trkpt lat="39.2064967" lon="8.532085"><ele>189.0</ele><time>2026-04-22T13:58:34.293Z</time></trkpt><trkpt lat="39.2065583" lon="8.5321933"><ele>189.0</ele><time>2026-04-22T13:58:36.293Z</time></trkpt><trkpt lat="39.2065883" lon="8.5322967"><ele>190.5</ele><time>2026-04-22T13:58:38.293Z</time></trkpt><trkpt lat="39.2065533" lon="8.5325033"><ele>192.0</ele><time>2026-04-22T13:58:42.294Z</time></trkpt><trkpt lat="39.206515" lon="8.5326283"><ele>193.5</ele><time>2026-04-22T13:58:44.293Z</time></trkpt><trkpt lat="39.2065017" lon="8.5327433"><ele>195.0</ele><time>2026-04-22T13:58:46.294Z</time></trkpt><trkpt lat="39.2064417" lon="8.5328417"><ele>196.4</ele><time>2026-04-22T13:58:48.293Z</time></trkpt><trkpt lat="39.2063483" lon="8.5329"><ele>197.8</ele><time>2026-04-22T13:58:50.294Z</time></trkpt><trkpt lat="39.2062467" lon="8.532935"><ele>199.2</ele><time>2026-04-22T13:58:52.293Z</time></trkpt><trkpt lat="39.2061833" lon="8.5329533"><ele>200.6</ele><time>2026-04-22T13:58:53.293Z</time></trkpt><trkpt lat="39.20607" lon="8.5329767"><ele>202.0</ele><time>2026-04-22T13:58:55.293Z</time></trkpt><trkpt lat="39.2059667" lon="8.5329817"><ele>202.0</ele><time>2026-04-22T13:58:57.293Z</time></trkpt><trkpt lat="39.2058533" lon="8.532975"><ele>202.0</ele><time>2026-04-22T13:58:59.294Z</time></trkpt><trkpt lat="39.2056583" lon="8.5330433"><ele>202.0</ele><time>2026-04-22T13:59:03.293Z</time></trkpt><trkpt lat="39.2055933" lon="8.5331483"><ele>202.0</ele><time>2026-04-22T13:59:05.293Z</time></trkpt><trkpt lat="39.2055517" lon="8.5332817"><ele>205.0</ele><time>2026-04-22T13:59:07.293Z</time></trkpt><trkpt lat="39.205515" lon="8.5333917"><ele>208.0</ele><time>2026-04-22T13:59:09.293Z</time></trkpt><trkpt lat="39.2055017" lon="8.5335033"><ele>211.0</ele><time>2026-04-22T13:59:11.294Z</time></trkpt><trkpt lat="39.2055317" lon="8.53361"><ele>214.0</ele><time>2026-04-22T13:59:13.293Z</time></trkpt><trkpt lat="39.2055883" lon="8.533725"><ele>217.0</ele><time>2026-04-22T13:59:15.294Z</time></trkpt><trkpt lat="39.2056333" lon="8.533845"><ele>214.5</ele><time>2026-04-22T13:59:17.293Z</time></trkpt><trkpt lat="39.2056683" lon="8.53397"><ele>212.0</ele><time>2026-04-22T13:59:19.294Z</time></trkpt><trkpt lat="39.205695" lon="8.5340467"><ele>209.5</ele><time>2026-04-22T13:59:20.294Z</time></trkpt><trkpt lat="39.2057933" lon="8.5342483"><ele>207.0</ele><time>2026-04-22T13:59:23.294Z</time></trkpt><trkpt lat="39.2058833" lon="8.53434"><ele>207.0</ele><time>2026-04-22T13:59:25.293Z</time></trkpt><trkpt lat="39.2059833" lon="8.534395"><ele>207.0</ele><time>2026-04-22T13:59:27.294Z</time></trkpt><trkpt lat="39.2060667" lon="8.5344233"><ele>207.0</ele><time>2026-04-22T13:59:29.294Z</time></trkpt><trkpt lat="39.20617" lon="8.5344833"><ele>207.0</ele><time>2026-04-22T13:59:31.294Z</time></trkpt><trkpt lat="39.20625" lon="8.5345533"><ele>207.0</ele><time>2026-04-22T13:59:33.293Z</time></trkpt><trkpt lat="39.2062883" lon="8.5346683"><ele>207.25</ele><time>2026-04-22T13:59:35.293Z</time></trkpt><trkpt lat="39.2062767" lon="8.5348117"><ele>207.5</ele><time>2026-04-22T13:59:37.293Z</time></trkpt><trkpt lat="39.2062567" lon="8.534945"><ele>207.75</ele><time>2026-04-22T13:59:39.294Z</time></trkpt><trkpt lat="39.20619" lon="8.53503"><ele>208.0</ele><time>2026-04-22T13:59:41.293Z</time></trkpt><trkpt lat="39.20602" lon="8.53501"><ele>207.99999999999997</ele><time>2026-04-22T13:59:44.293Z</time></trkpt><trkpt lat="39.205955" lon="8.5349817"><ele>208.0</ele><time>2026-04-22T13:59:45.293Z</time></trkpt><trkpt lat="39.20589" lon="8.5349583"><ele>208.0</ele><time>2026-04-22T13:59:46.294Z</time></trkpt><trkpt lat="39.2058233" lon="8.5349317"><ele>208.0</ele><time>2026-04-22T13:59:47.293Z</time></trkpt><trkpt lat="39.2057583" lon="8.5349133"><ele>207.99999999999997</ele><time>2026-04-22T13:59:48.293Z</time></trkpt><trkpt lat="39.20565" lon="8.53488"><ele>208.0</ele><time>2026-04-22T13:59:50.293Z</time></trkpt><trkpt lat="39.2055833" lon="8.53488"><ele>210.99999999999997</ele><time>2026-04-22T13:59:51.294Z</time></trkpt><trkpt lat="39.2054833" lon="8.5349033"><ele>214.0</ele><time>2026-04-22T13:59:53.294Z</time></trkpt><trkpt lat="39.2054283" lon="8.53497"><ele>217.0</ele><time>2026-04-22T13:59:55.294Z</time></trkpt><trkpt lat="39.20544" lon="8.5350983"><ele>220.0</ele><time>2026-04-22T13:59:58.294Z</time></trkpt><trkpt lat="39.2054717" lon="8.53519"><ele>222.99999999999997</ele><time>2026-04-22T14:00:00.293Z</time></trkpt><trkpt lat="39.2055167" lon="8.5352567"><ele>226.0</ele><time>2026-04-22T14:00:03.293Z</time></trkpt><trkpt lat="39.2056567" lon="8.5356017"><ele>224.2857142857143</ele><time>2026-04-22T14:00:49.294Z</time></trkpt><trkpt lat="39.2056983" lon="8.53569"><ele>222.57142857142856</ele><time>2026-04-22T14:00:51.294Z</time></trkpt><trkpt lat="39.2057467" lon="8.5357467"><ele>220.85714285714286</ele><time>2026-04-22T14:00:53.294Z</time></trkpt><trkpt lat="39.2057867" lon="8.5358183"><ele>219.14285714285717</ele><time>2026-04-22T14:00:55.294Z</time></trkpt><trkpt lat="39.2058367" lon="8.5358917"><ele>217.42857142857144</ele><time>2026-04-22T14:00:57.294Z</time></trkpt><trkpt lat="39.2058783" lon="8.5359533"><ele>215.71428571428572</ele><time>2026-04-22T14:00:59.293Z</time></trkpt><trkpt lat="39.2059617" lon="8.535995"><ele>214.0</ele><time>2026-04-22T14:01:02.294Z</time></trkpt><trkpt lat="39.206025" lon="8.535985"><ele>214.0</ele><time>2026-04-22T14:01:04.294Z</time></trkpt><trkpt lat="39.206105" lon="8.5359683"><ele>213.99999999999997</ele><time>2026-04-22T14:01:06.293Z</time></trkpt><trkpt lat="39.206325" lon="8.5359333"><ele>213.99999999999997</ele><time>2026-04-22T14:01:10.293Z</time></trkpt><trkpt lat="39.20639" lon="8.5359367"><ele>214.0</ele><time>2026-04-22T14:01:11.293Z</time></trkpt><trkpt lat="39.206455" lon="8.53593"><ele>214.0</ele><time>2026-04-22T14:01:12.292Z</time></trkpt><trkpt lat="39.2065717" lon="8.535895"><ele>214.2</ele><time>2026-04-22T14:01:14.293Z</time></trkpt><trkpt lat="39.2066483" lon="8.53593"><ele>214.39999999999998</ele><time>2026-04-22T14:01:16.293Z</time></trkpt><trkpt lat="39.2066833" lon="8.536025"><ele>214.6</ele><time>2026-04-22T14:01:18.293Z</time></trkpt><trkpt lat="39.2066917" lon="8.5361517"><ele>214.8</ele><time>2026-04-22T14:01:20.293Z</time></trkpt><trkpt lat="39.2066717" lon="8.5363117"><ele>215.0</ele><time>2026-04-22T14:01:22.293Z</time></trkpt><trkpt lat="39.2066833" lon="8.5364683"><ele>216.6</ele><time>2026-04-22T14:01:24.292Z</time></trkpt><trkpt lat="39.206735" lon="8.5365933"><ele>218.2</ele><time>2026-04-22T14:01:26.293Z</time></trkpt><trkpt lat="39.2068067" lon="8.53668"><ele>219.8</ele><time>2026-04-22T14:01:28.292Z</time></trkpt><trkpt lat="39.2069" lon="8.5367933"><ele>221.4</ele><time>2026-04-22T14:01:30.293Z</time></trkpt><trkpt lat="39.206955" lon="8.5368467"><ele>223.0</ele><time>2026-04-22T14:01:31.293Z</time></trkpt><trkpt lat="39.2070617" lon="8.5369233"><ele>222.99999999999997</ele><time>2026-04-22T14:01:33.293Z</time></trkpt><trkpt lat="39.2071183" lon="8.5369617"><ele>223.0</ele><time>2026-04-22T14:01:34.293Z</time></trkpt><trkpt lat="39.2072267" lon="8.53704"><ele>223.0</ele><time>2026-04-22T14:01:36.293Z</time></trkpt><trkpt lat="39.2072783" lon="8.53709"><ele>223.0</ele><time>2026-04-22T14:01:37.293Z</time></trkpt><trkpt lat="39.2073333" lon="8.53714"><ele>222.99999999999997</ele><time>2026-04-22T14:01:38.293Z</time></trkpt><trkpt lat="39.2073867" lon="8.5371917"><ele>223.0</ele><time>2026-04-22T14:01:39.292Z</time></trkpt><trkpt lat="39.207435" lon="8.53725"><ele>223.16666666666666</ele><time>2026-04-22T14:01:40.293Z</time></trkpt><trkpt lat="39.20748" lon="8.5373133"><ele>223.33333333333331</ele><time>2026-04-22T14:01:41.293Z</time></trkpt><trkpt lat="39.2075167" lon="8.537385"><ele>223.5</ele><time>2026-04-22T14:01:42.293Z</time></trkpt><trkpt lat="39.2075517" lon="8.5374567"><ele>223.66666666666669</ele><time>2026-04-22T14:01:43.293Z</time></trkpt><trkpt lat="39.207605" lon="8.537605"><ele>223.83333333333334</ele><time>2026-04-22T14:01:45.293Z</time></trkpt><trkpt lat="39.2076333" lon="8.5377583"><ele>224.0</ele><time>2026-04-22T14:01:47.292Z</time></trkpt><trkpt lat="39.207655" lon="8.5379"><ele>224.2</ele><time>2026-04-22T14:01:49.293Z</time></trkpt><trkpt lat="39.2076567" lon="8.5381433"><ele>224.39999999999998</ele><time>2026-04-22T14:01:52.293Z</time></trkpt><trkpt lat="39.2076517" lon="8.5382467"><ele>224.6</ele><time>2026-04-22T14:01:53.292Z</time></trkpt><trkpt lat="39.2076383" lon="8.5383517"><ele>224.8</ele><time>2026-04-22T14:01:54.293Z</time></trkpt><trkpt lat="39.2076333" lon="8.5384617"><ele>225.0</ele><time>2026-04-22T14:01:55.293Z</time></trkpt><trkpt lat="39.2076317" lon="8.5385667"><ele>225.0</ele><time>2026-04-22T14:01:56.292Z</time></trkpt><trkpt lat="39.2076317" lon="8.5386683"><ele>225.0</ele><time>2026-04-22T14:01:57.293Z</time></trkpt><trkpt lat="39.207635" lon="8.5387733"><ele>225.0</ele><time>2026-04-22T14:01:58.293Z</time></trkpt><trkpt lat="39.2076433" lon="8.53887"><ele>225.0</ele><time>2026-04-22T14:01:59.293Z</time></trkpt><trkpt lat="39.2076617" lon="8.5389717"><ele>225.0</ele><time>2026-04-22T14:02:00.293Z</time></trkpt><trkpt lat="39.2076917" lon="8.53907"><ele>225.0</ele><time>2026-04-22T14:02:01.293Z</time></trkpt><trkpt lat="39.2077183" lon="8.5391667"><ele>226.5714285714286</ele><time>2026-04-22T14:02:02.293Z</time></trkpt><trkpt lat="39.207745" lon="8.5392533"><ele>228.14285714285717</ele><time>2026-04-22T14:02:03.293Z</time></trkpt><trkpt lat="39.2077767" lon="8.5393333"><ele>229.71428571428572</ele><time>2026-04-22T14:02:04.292Z</time></trkpt><trkpt lat="39.2078167" lon="8.539405"><ele>231.2857142857143</ele><time>2026-04-22T14:02:05.293Z</time></trkpt><trkpt lat="39.207865" lon="8.53947"><ele>232.8571428571429</ele><time>2026-04-22T14:02:06.293Z</time></trkpt><trkpt lat="39.20793" lon="8.5395367"><ele>234.42857142857142</ele><time>2026-04-22T14:02:07.293Z</time></trkpt><trkpt lat="39.2079967" lon="8.5395967"><ele>236.0</ele><time>2026-04-22T14:02:08.292Z</time></trkpt><trkpt lat="39.2080633" lon="8.5396533"><ele>234.60000000000002</ele><time>2026-04-22T14:02:09.292Z</time></trkpt><trkpt lat="39.2081383" lon="8.5397067"><ele>233.20000000000002</ele><time>2026-04-22T14:02:10.293Z</time></trkpt><trkpt lat="39.208275" lon="8.5398217"><ele>231.79999999999998</ele><time>2026-04-22T14:02:12.293Z</time></trkpt><trkpt lat="39.208345" lon="8.5398783"><ele>230.39999999999998</ele><time>2026-04-22T14:02:13.292Z</time></trkpt><trkpt lat="39.2084067" lon="8.53993"><ele>229.0</ele><time>2026-04-22T14:02:14.293Z</time></trkpt><trkpt lat="39.2084633" lon="8.5399767"><ele>229.0</ele><time>2026-04-22T14:02:15.292Z</time></trkpt><trkpt lat="39.2085483" lon="8.5400767"><ele>229.0</ele><time>2026-04-22T14:02:17.293Z</time></trkpt><trkpt lat="39.2086017" lon="8.5402117"><ele>229.0</ele><time>2026-04-22T14:02:19.293Z</time></trkpt><trkpt lat="39.20862" lon="8.5403617"><ele>229.0</ele><time>2026-04-22T14:02:21.293Z</time></trkpt><trkpt lat="39.2086017" lon="8.5404983"><ele>229.2</ele><time>2026-04-22T14:02:23.293Z</time></trkpt><trkpt lat="39.20854" lon="8.5406467"><ele>229.39999999999998</ele><time>2026-04-22T14:02:25.293Z</time></trkpt><trkpt lat="39.20849" lon="8.5407517"><ele>229.6</ele><time>2026-04-22T14:02:26.293Z</time></trkpt><trkpt lat="39.20844" lon="8.5408483"><ele>229.8</ele><time>2026-04-22T14:02:27.293Z</time></trkpt><trkpt lat="39.2084017" lon="8.5409233"><ele>230.0</ele><time>2026-04-22T14:02:28.292Z</time></trkpt><trkpt lat="39.208355" lon="8.5410583"><ele>230.0</ele><time>2026-04-22T14:02:30.293Z</time></trkpt><trkpt lat="39.2083217" lon="8.54119"><ele>230.0</ele><time>2026-04-22T14:02:32.293Z</time></trkpt><trkpt lat="39.2083133" lon="8.5414167"><ele>230.0</ele><time>2026-04-22T14:02:35.293Z</time></trkpt><trkpt lat="39.2083283" lon="8.5415067"><ele>230.0</ele><time>2026-04-22T14:02:36.293Z</time></trkpt><trkpt lat="39.2083417" lon="8.5416017"><ele>230.0</ele><time>2026-04-22T14:02:37.292Z</time></trkpt><trkpt lat="39.2083617" lon="8.5416867"><ele>230.50000000000003</ele><time>2026-04-22T14:02:38.293Z</time></trkpt><trkpt lat="39.2083867" lon="8.5417667"><ele>231.0</ele><time>2026-04-22T14:02:39.293Z</time></trkpt><trkpt lat="39.2084483" lon="8.54191"><ele>231.5</ele><time>2026-04-22T14:02:41.293Z</time></trkpt><trkpt lat="39.2084767" lon="8.5419833"><ele>232.0</ele><time>2026-04-22T14:02:42.293Z</time></trkpt><trkpt lat="39.2085083" lon="8.54211"><ele>232.50000000000003</ele><time>2026-04-22T14:02:44.293Z</time></trkpt><trkpt lat="39.20851" lon="8.5422183"><ele>233.0</ele><time>2026-04-22T14:02:46.293Z</time></trkpt><trkpt lat="39.2084917" lon="8.54232"><ele>233.5</ele><time>2026-04-22T14:02:48.293Z</time></trkpt><trkpt lat="39.20844" lon="8.5424117"><ele>234.0</ele><time>2026-04-22T14:02:50.293Z</time></trkpt><trkpt lat="39.2083683" lon="8.5425467"><ele>234.5</ele><time>2026-04-22T14:02:52.292Z</time></trkpt><trkpt lat="39.2083233" lon="8.5426267"><ele>235.0</ele><time>2026-04-22T14:02:53.292Z</time></trkpt><trkpt lat="39.2082167" lon="8.5428383"><ele>235.66666666666666</ele><time>2026-04-22T14:02:55.292Z</time></trkpt><trkpt lat="39.2081633" lon="8.5429433"><ele>236.33333333333331</ele><time>2026-04-22T14:02:56.293Z</time></trkpt><trkpt lat="39.2081117" lon="8.54304"><ele>237.0</ele><time>2026-04-22T14:02:57.293Z</time></trkpt><trkpt lat="39.2080667" lon="8.5431367"><ele>237.66666666666669</ele><time>2026-04-22T14:02:58.293Z</time></trkpt><trkpt lat="39.2080283" lon="8.543215"><ele>238.33333333333334</ele><time>2026-04-22T14:02:59.292Z</time></trkpt><trkpt lat="39.20799" lon="8.5432867"><ele>239.0</ele><time>2026-04-22T14:03:00.293Z</time></trkpt><trkpt lat="39.2079433" lon="8.5433417"><ele>239.50000000000003</ele><time>2026-04-22T14:03:01.292Z</time></trkpt><trkpt lat="39.2078367" lon="8.5434233"><ele>240.0</ele><time>2026-04-22T14:03:03.293Z</time></trkpt><trkpt lat="39.2077783" lon="8.54346"><ele>240.5</ele><time>2026-04-22T14:03:04.292Z</time></trkpt><trkpt lat="39.2077133" lon="8.5435067"><ele>241.0</ele><time>2026-04-22T14:03:05.292Z</time></trkpt><trkpt lat="39.20764" lon="8.5435583"><ele>241.50000000000003</ele><time>2026-04-22T14:03:06.293Z</time></trkpt><trkpt lat="39.2075817" lon="8.543605"><ele>242.0</ele><time>2026-04-22T14:03:07.293Z</time></trkpt><trkpt lat="39.207515" lon="8.5436633"><ele>241.33333333333334</ele><time>2026-04-22T14:03:08.293Z</time></trkpt><trkpt lat="39.2074617" lon="8.5437183"><ele>240.66666666666669</ele><time>2026-04-22T14:03:09.292Z</time></trkpt><trkpt lat="39.2074017" lon="8.5437817"><ele>240.0</ele><time>2026-04-22T14:03:10.293Z</time></trkpt><trkpt lat="39.2073483" lon="8.5438633"><ele>239.33333333333331</ele><time>2026-04-22T14:03:11.293Z</time></trkpt><trkpt lat="39.2072983" lon="8.543955"><ele>238.66666666666666</ele><time>2026-04-22T14:03:12.293Z</time></trkpt><trkpt lat="39.207255" lon="8.5440383"><ele>238.0</ele><time>2026-04-22T14:03:13.293Z</time></trkpt><trkpt lat="39.2072283" lon="8.544115"><ele>240.0</ele><time>2026-04-22T14:03:14.293Z</time></trkpt><trkpt lat="39.2071817" lon="8.54432"><ele>242.0</ele><time>2026-04-22T14:03:16.293Z</time></trkpt><trkpt lat="39.2071617" lon="8.5444267"><ele>244.0</ele><time>2026-04-22T14:03:17.293Z</time></trkpt><trkpt lat="39.2071517" lon="8.5445167"><ele>246.0</ele><time>2026-04-22T14:03:18.293Z</time></trkpt><trkpt lat="39.20714" lon="8.5446"><ele>248.0</ele><time>2026-04-22T14:03:19.293Z</time></trkpt><trkpt lat="39.20715" lon="8.5447683"><ele>249.33333333333334</ele><time>2026-04-22T14:03:21.293Z</time></trkpt><trkpt lat="39.20717" lon="8.544855"><ele>250.66666666666669</ele><time>2026-04-22T14:03:22.293Z</time></trkpt><trkpt lat="39.2071983" lon="8.544945"><ele>252.0</ele><time>2026-04-22T14:03:23.293Z</time></trkpt><trkpt lat="39.20723" lon="8.545045"><ele>253.33333333333331</ele><time>2026-04-22T14:03:24.293Z</time></trkpt><trkpt lat="39.2072667" lon="8.54515"><ele>254.66666666666666</ele><time>2026-04-22T14:03:25.293Z</time></trkpt><trkpt lat="39.2073083" lon="8.5452483"><ele>256.0</ele><time>2026-04-22T14:03:26.292Z</time></trkpt><trkpt lat="39.2073483" lon="8.54535"><ele>253.99999999999997</ele><time>2026-04-22T14:03:27.293Z</time></trkpt><trkpt lat="39.207385" lon="8.5454533"><ele>252.0</ele><time>2026-04-22T14:03:28.292Z</time></trkpt><trkpt lat="39.2074233" lon="8.5455617"><ele>250.0</ele><time>2026-04-22T14:03:29.293Z</time></trkpt><trkpt lat="39.2074633" lon="8.5456617"><ele>248.0</ele><time>2026-04-22T14:03:30.293Z</time></trkpt><trkpt lat="39.2074967" lon="8.54576"><ele>245.99999999999997</ele><time>2026-04-22T14:03:31.292Z</time></trkpt><trkpt lat="39.2075217" lon="8.5458583"><ele>244.0</ele><time>2026-04-22T14:03:32.293Z</time></trkpt><trkpt lat="39.207545" lon="8.54595"><ele>244.0</ele><time>2026-04-22T14:03:33.293Z</time></trkpt><trkpt lat="39.207565" lon="8.5460933"><ele>244.0</ele><time>2026-04-22T14:03:35.293Z</time></trkpt><trkpt lat="39.2075633" lon="8.5463117"><ele>244.0</ele><time>2026-04-22T14:03:39.293Z</time></trkpt><trkpt lat="39.207515" lon="8.5464067"><ele>244.0</ele><time>2026-04-22T14:03:41.292Z</time></trkpt><trkpt lat="39.2074383" lon="8.5464783"><ele>243.66666666666666</ele><time>2026-04-22T14:03:43.292Z</time></trkpt><trkpt lat="39.20736" lon="8.5464933"><ele>243.33333333333331</ele><time>2026-04-22T14:03:45.292Z</time></trkpt><trkpt lat="39.2072833" lon="8.546525"><ele>243.0</ele><time>2026-04-22T14:03:47.293Z</time></trkpt><trkpt lat="39.20722" lon="8.546555"><ele>242.66666666666669</ele><time>2026-04-22T14:03:49.293Z</time></trkpt><trkpt lat="39.207145" lon="8.5465867"><ele>242.33333333333334</ele><time>2026-04-22T14:03:51.292Z</time></trkpt><trkpt lat="39.2070467" lon="8.5466183"><ele>242.0</ele><time>2026-04-22T14:03:53.293Z</time></trkpt><trkpt lat="39.206985" lon="8.546655"><ele>244.0</ele><time>2026-04-22T14:03:54.293Z</time></trkpt><trkpt lat="39.2068967" lon="8.5467217"><ele>246.0</ele><time>2026-04-22T14:03:56.292Z</time></trkpt><trkpt lat="39.206785" lon="8.5469183"><ele>248.0</ele><time>2026-04-22T14:04:00.292Z</time></trkpt><trkpt lat="39.206785" lon="8.5470617"><ele>250.0</ele><time>2026-04-22T14:04:02.293Z</time></trkpt><trkpt lat="39.2068117" lon="8.5472033"><ele>249.99999999999997</ele><time>2026-04-22T14:04:04.292Z</time></trkpt><trkpt lat="39.2068567" lon="8.5473033"><ele>250.0</ele><time>2026-04-22T14:04:06.293Z</time></trkpt><trkpt lat="39.2069067" lon="8.5474"><ele>250.0</ele><time>2026-04-22T14:04:08.292Z</time></trkpt><trkpt lat="39.20699" lon="8.5474883"><ele>250.0</ele><time>2026-04-22T14:04:10.293Z</time></trkpt><trkpt lat="39.2070733" lon="8.5475467"><ele>249.99999999999997</ele><time>2026-04-22T14:04:12.292Z</time></trkpt><trkpt lat="39.2071317" lon="8.54758"><ele>250.0</ele><time>2026-04-22T14:04:13.293Z</time></trkpt><trkpt lat="39.2071917" lon="8.5476233"><ele>249.99999999999997</ele><time>2026-04-22T14:04:14.292Z</time></trkpt><trkpt lat="39.2072567" lon="8.5476683"><ele>250.0</ele><time>2026-04-22T14:04:15.293Z</time></trkpt><trkpt lat="39.207325" lon="8.5477117"><ele>250.0</ele><time>2026-04-22T14:04:16.293Z</time></trkpt><trkpt lat="39.2073867" lon="8.5477533"><ele>250.0</ele><time>2026-04-22T14:04:17.293Z</time></trkpt><trkpt lat="39.2075233" lon="8.5478183"><ele>249.99999999999997</ele><time>2026-04-22T14:04:19.292Z</time></trkpt><trkpt lat="39.2075817" lon="8.54785"><ele>250.0</ele><time>2026-04-22T14:04:20.293Z</time></trkpt><trkpt lat="39.2076417" lon="8.5478833"><ele>251.83333333333331</ele><time>2026-04-22T14:04:21.293Z</time></trkpt><trkpt lat="39.2077533" lon="8.5479367"><ele>253.66666666666666</ele><time>2026-04-22T14:04:23.293Z</time></trkpt><trkpt lat="39.2078167" lon="8.547965"><ele>255.5</ele><time>2026-04-22T14:04:24.293Z</time></trkpt><trkpt lat="39.2078783" lon="8.5479983"><ele>257.3333333333333</ele><time>2026-04-22T14:04:25.293Z</time></trkpt><trkpt lat="39.20793" lon="8.5480467"><ele>259.1666666666667</ele><time>2026-04-22T14:04:26.292Z</time></trkpt><trkpt lat="39.2080283" lon="8.548145"><ele>261.0</ele><time>2026-04-22T14:04:28.293Z</time></trkpt><trkpt lat="39.20809" lon="8.5481717"><ele>261.0</ele><time>2026-04-22T14:04:29.292Z</time></trkpt><trkpt lat="39.2081483" lon="8.548205"><ele>261.0</ele><time>2026-04-22T14:04:30.293Z</time></trkpt><trkpt lat="39.2082083" lon="8.54825"><ele>261.0</ele><time>2026-04-22T14:04:31.292Z</time></trkpt><trkpt lat="39.2082717" lon="8.5482967"><ele>261.0</ele><time>2026-04-22T14:04:32.293Z</time></trkpt><trkpt lat="39.2083367" lon="8.5483467"><ele>261.0</ele><time>2026-04-22T14:04:33.293Z</time></trkpt><trkpt lat="39.2083983" lon="8.5484167"><ele>261.0</ele><time>2026-04-22T14:04:34.293Z</time></trkpt><trkpt lat="39.2084533" lon="8.5484933"><ele>261.0</ele><time>2026-04-22T14:04:35.292Z</time></trkpt><trkpt lat="39.208505" lon="8.54855"><ele>262.0</ele><time>2026-04-22T14:04:36.293Z</time></trkpt><trkpt lat="39.20856" lon="8.548615"><ele>263.0</ele><time>2026-04-22T14:04:37.293Z</time></trkpt><trkpt lat="39.2086183" lon="8.5486833"><ele>264.0</ele><time>2026-04-22T14:04:38.293Z</time></trkpt><trkpt lat="39.208705" lon="8.5488183"><ele>265.0</ele><time>2026-04-22T14:04:40.292Z</time></trkpt><trkpt lat="39.20878" lon="8.5489267"><ele>266.0</ele><time>2026-04-22T14:04:42.293Z</time></trkpt><trkpt lat="39.2088367" lon="8.5490333"><ele>266.0</ele><time>2026-04-22T14:04:44.293Z</time></trkpt><trkpt lat="39.2089217" lon="8.5491133"><ele>266.0</ele><time>2026-04-22T14:04:46.293Z</time></trkpt><trkpt lat="39.208975" lon="8.5491633"><ele>266.0</ele><time>2026-04-22T14:04:47.292Z</time></trkpt><trkpt lat="39.2090233" lon="8.5492333"><ele>266.0</ele><time>2026-04-22T14:04:48.293Z</time></trkpt><trkpt lat="39.2090683" lon="8.5493083"><ele>266.0</ele><time>2026-04-22T14:04:49.292Z</time></trkpt><trkpt lat="39.20911" lon="8.549375"><ele>266.0</ele><time>2026-04-22T14:04:50.292Z</time></trkpt><trkpt lat="39.2091533" lon="8.5494367"><ele>266.0</ele><time>2026-04-22T14:04:51.292Z</time></trkpt><trkpt lat="39.2092" lon="8.5494967"><ele>264.0</ele><time>2026-04-22T14:04:52.293Z</time></trkpt><trkpt lat="39.2092467" lon="8.5495517"><ele>262.0</ele><time>2026-04-22T14:04:53.293Z</time></trkpt><trkpt lat="39.2092983" lon="8.5496133"><ele>260.0</ele><time>2026-04-22T14:04:54.292Z</time></trkpt><trkpt lat="39.2093417" lon="8.5496767"><ele>258.0</ele><time>2026-04-22T14:04:55.293Z</time></trkpt><trkpt lat="39.20942" lon="8.54978"><ele>256.0</ele><time>2026-04-22T14:04:57.293Z</time></trkpt><trkpt lat="39.2094917" lon="8.5498617"><ele>254.0</ele><time>2026-04-22T14:04:59.293Z</time></trkpt><trkpt lat="39.2095733" lon="8.55012"><ele>254.0</ele><time>2026-04-22T14:05:03.293Z</time></trkpt><trkpt lat="39.209585" lon="8.55025"><ele>253.99999999999997</ele><time>2026-04-22T14:05:05.293Z</time></trkpt><trkpt lat="39.2095783" lon="8.5503633"><ele>253.99999999999997</ele><time>2026-04-22T14:05:07.293Z</time></trkpt><trkpt lat="39.209545" lon="8.550455"><ele>254.0</ele><time>2026-04-22T14:05:09.293Z</time></trkpt><trkpt lat="39.2094733" lon="8.550525"><ele>254.0</ele><time>2026-04-22T14:05:11.292Z</time></trkpt><trkpt lat="39.209385" lon="8.5505967"><ele>255.2</ele><time>2026-04-22T14:05:13.293Z</time></trkpt><trkpt lat="39.209315" lon="8.5506367"><ele>256.4</ele><time>2026-04-22T14:05:15.293Z</time></trkpt><trkpt lat="39.2092233" lon="8.5506483"><ele>257.6</ele><time>2026-04-22T14:05:17.292Z</time></trkpt><trkpt lat="39.2091383" lon="8.5507"><ele>258.8</ele><time>2026-04-22T14:05:19.292Z</time></trkpt><trkpt lat="39.20904" lon="8.5507417"><ele>260.0</ele><time>2026-04-22T14:05:21.293Z</time></trkpt><trkpt lat="39.2088367" lon="8.550825"><ele>262.0</ele><time>2026-04-22T14:05:25.292Z</time></trkpt><trkpt lat="39.2087383" lon="8.5508883"><ele>264.0</ele><time>2026-04-22T14:05:27.293Z</time></trkpt><trkpt lat="39.208625" lon="8.5509433"><ele>266.0</ele><time>2026-04-22T14:05:29.293Z</time></trkpt><trkpt lat="39.2085133" lon="8.5509967"><ele>268.0</ele><time>2026-04-22T14:05:31.293Z</time></trkpt><trkpt lat="39.2084033" lon="8.5510617"><ele>268.0</ele><time>2026-04-22T14:05:33.293Z</time></trkpt><trkpt lat="39.2083433" lon="8.5510967"><ele>268.0</ele><time>2026-04-22T14:05:34.292Z</time></trkpt><trkpt lat="39.2082383" lon="8.5511967"><ele>268.0</ele><time>2026-04-22T14:05:36.292Z</time></trkpt><trkpt lat="39.20815" lon="8.5513117"><ele>268.0</ele><time>2026-04-22T14:05:38.292Z</time></trkpt><trkpt lat="39.2081017" lon="8.551375"><ele>268.0</ele><time>2026-04-22T14:05:39.293Z</time></trkpt><trkpt lat="39.208015" lon="8.5515"><ele>267.4</ele><time>2026-04-22T14:05:41.293Z</time></trkpt><trkpt lat="39.2079683" lon="8.5515683"><ele>266.8</ele><time>2026-04-22T14:05:42.293Z</time></trkpt><trkpt lat="39.20787" lon="8.5516967"><ele>266.2</ele><time>2026-04-22T14:05:44.293Z</time></trkpt><trkpt lat="39.2078133" lon="8.551755"><ele>265.6</ele><time>2026-04-22T14:05:45.293Z</time></trkpt><trkpt lat="39.2077083" lon="8.5518567"><ele>265.0</ele><time>2026-04-22T14:05:47.292Z</time></trkpt><trkpt lat="39.20761" lon="8.5519433"><ele>265.0</ele><time>2026-04-22T14:05:49.293Z</time></trkpt><trkpt lat="39.2075117" lon="8.55203"><ele>265.0</ele><time>2026-04-22T14:05:51.292Z</time></trkpt><trkpt lat="39.2073983" lon="8.5520933"><ele>265.0</ele><time>2026-04-22T14:05:53.292Z</time></trkpt><trkpt lat="39.2073317" lon="8.5521183"><ele>265.0</ele><time>2026-04-22T14:05:54.292Z</time></trkpt><trkpt lat="39.2072633" lon="8.55214"><ele>265.0</ele><time>2026-04-22T14:05:55.293Z</time></trkpt><trkpt lat="39.2071383" lon="8.55216"><ele>263.57142857142856</ele><time>2026-04-22T14:05:57.292Z</time></trkpt><trkpt lat="39.20707" lon="8.5521667"><ele>262.1428571428571</ele><time>2026-04-22T14:05:58.292Z</time></trkpt><trkpt lat="39.2069967" lon="8.5521717"><ele>260.7142857142857</ele><time>2026-04-22T14:05:59.293Z</time></trkpt><trkpt lat="39.2069283" lon="8.55217"><ele>259.2857142857143</ele><time>2026-04-22T14:06:00.292Z</time></trkpt><trkpt lat="39.2068517" lon="8.552175"><ele>257.8571428571429</ele><time>2026-04-22T14:06:01.293Z</time></trkpt><trkpt lat="39.2067783" lon="8.552185"><ele>256.42857142857144</ele><time>2026-04-22T14:06:02.292Z</time></trkpt><trkpt lat="39.2067117" lon="8.5521967"><ele>255.0</ele><time>2026-04-22T14:06:03.293Z</time></trkpt><trkpt lat="39.2065333" lon="8.55227"><ele>257.0</ele><time>2026-04-22T14:06:06.293Z</time></trkpt><trkpt lat="39.2064667" lon="8.5523167"><ele>259.0</ele><time>2026-04-22T14:06:07.293Z</time></trkpt><trkpt lat="39.206395" lon="8.5523617"><ele>261.0</ele><time>2026-04-22T14:06:08.293Z</time></trkpt><trkpt lat="39.2063217" lon="8.5524317"><ele>263.0</ele><time>2026-04-22T14:06:09.293Z</time></trkpt><trkpt lat="39.2062483" lon="8.552485"><ele>265.0</ele><time>2026-04-22T14:06:10.293Z</time></trkpt><trkpt lat="39.2061783" lon="8.552535"><ele>267.0</ele><time>2026-04-22T14:06:11.293Z</time></trkpt><trkpt lat="39.2061017" lon="8.5525883"><ele>267.0</ele><time>2026-04-22T14:06:12.292Z</time></trkpt><trkpt lat="39.2060317" lon="8.5526483"><ele>267.0</ele><time>2026-04-22T14:06:13.293Z</time></trkpt><trkpt lat="39.2059633" lon="8.55271"><ele>267.0</ele><time>2026-04-22T14:06:14.293Z</time></trkpt><trkpt lat="39.2058833" lon="8.552775"><ele>267.0</ele><time>2026-04-22T14:06:15.293Z</time></trkpt><trkpt lat="39.2058117" lon="8.5528467"><ele>267.0</ele><time>2026-04-22T14:06:16.292Z</time></trkpt><trkpt lat="39.2057483" lon="8.552905"><ele>267.0</ele><time>2026-04-22T14:06:17.293Z</time></trkpt><trkpt lat="39.2056867" lon="8.5529517"><ele>267.1666666666667</ele><time>2026-04-22T14:06:18.293Z</time></trkpt><trkpt lat="39.205625" lon="8.552995"><ele>267.3333333333333</ele><time>2026-04-22T14:06:19.292Z</time></trkpt><trkpt lat="39.2055067" lon="8.553075"><ele>267.5</ele><time>2026-04-22T14:06:21.293Z</time></trkpt><trkpt lat="39.20544" lon="8.55312"><ele>267.66666666666663</ele><time>2026-04-22T14:06:22.293Z</time></trkpt><trkpt lat="39.2053717" lon="8.5531683"><ele>267.8333333333333</ele><time>2026-04-22T14:06:23.293Z</time></trkpt><trkpt lat="39.2053067" lon="8.5532217"><ele>268.0</ele><time>2026-04-22T14:06:24.293Z</time></trkpt><trkpt lat="39.205185" lon="8.5533117"><ele>268.0</ele><time>2026-04-22T14:06:26.292Z</time></trkpt><trkpt lat="39.2051017" lon="8.5533817"><ele>268.0</ele><time>2026-04-22T14:06:28.292Z</time></trkpt><trkpt lat="39.2050517" lon="8.5534567"><ele>268.0</ele><time>2026-04-22T14:06:30.293Z</time></trkpt><trkpt lat="39.205065" lon="8.5535483"><ele>268.0</ele><time>2026-04-22T14:06:56.293Z</time></trkpt><trkpt lat="39.2052133" lon="8.5536417"><ele>268.0</ele><time>2026-04-22T14:28:05.291Z</time></trkpt><trkpt lat="39.2053883" lon="8.5538217"><ele>268.66666666666663</ele><time>2026-04-22T14:28:09.291Z</time></trkpt><trkpt lat="39.2054417" lon="8.5538833"><ele>269.3333333333333</ele><time>2026-04-22T14:28:10.291Z</time></trkpt><trkpt lat="39.2054967" lon="8.55394"><ele>270.0</ele><time>2026-04-22T14:28:11.291Z</time></trkpt><trkpt lat="39.20555" lon="8.5539983"><ele>270.6666666666667</ele><time>2026-04-22T14:28:12.291Z</time></trkpt><trkpt lat="39.2056067" lon="8.5540567"><ele>271.33333333333337</ele><time>2026-04-22T14:28:13.291Z</time></trkpt><trkpt lat="39.2056583" lon="8.554105"><ele>272.0</ele><time>2026-04-22T14:28:14.291Z</time></trkpt><trkpt lat="39.20576" lon="8.5541767"><ele>269.8</ele><time>2026-04-22T14:28:16.29Z</time></trkpt><trkpt lat="39.2058617" lon="8.5542417"><ele>267.6</ele><time>2026-04-22T14:28:18.291Z</time></trkpt><trkpt lat="39.2059583" lon="8.5542733"><ele>265.40000000000003</ele><time>2026-04-22T14:28:20.291Z</time></trkpt><trkpt lat="39.2060367" lon="8.554305"><ele>263.2</ele><time>2026-04-22T14:28:22.291Z</time></trkpt><trkpt lat="39.20612" lon="8.5543567"><ele>261.0</ele><time>2026-04-22T14:28:25.291Z</time></trkpt><trkpt lat="39.206215" lon="8.5544083"><ele>261.0</ele><time>2026-04-22T14:28:27.29Z</time></trkpt><trkpt lat="39.20635" lon="8.5544683"><ele>261.0</ele><time>2026-04-22T14:28:29.29Z</time></trkpt><trkpt lat="39.2064233" lon="8.5545083"><ele>261.0</ele><time>2026-04-22T14:28:30.291Z</time></trkpt><trkpt lat="39.2064967" lon="8.5545467"><ele>261.0</ele><time>2026-04-22T14:28:31.291Z</time></trkpt><trkpt lat="39.20658" lon="8.5546033"><ele>261.0</ele><time>2026-04-22T14:28:32.29Z</time></trkpt><trkpt lat="39.2066733" lon="8.554655"><ele>261.8</ele><time>2026-04-22T14:28:33.291Z</time></trkpt><trkpt lat="39.2067633" lon="8.5547083"><ele>262.6</ele><time>2026-04-22T14:28:34.291Z</time></trkpt><trkpt lat="39.2068483" lon="8.5547567"><ele>263.4</ele><time>2026-04-22T14:28:35.291Z</time></trkpt><trkpt lat="39.206925" lon="8.5547983"><ele>264.2</ele><time>2026-04-22T14:28:36.291Z</time></trkpt><trkpt lat="39.20699" lon="8.5548333"><ele>265.0</ele><time>2026-04-22T14:28:37.291Z</time></trkpt><trkpt lat="39.207085" lon="8.5549017"><ele>265.0</ele><time>2026-04-22T14:28:39.29Z</time></trkpt><trkpt lat="39.2071483" lon="8.554945"><ele>265.0</ele><time>2026-04-22T14:28:41.29Z</time></trkpt><trkpt lat="39.2072067" lon="8.5549917"><ele>265.0</ele><time>2026-04-22T14:28:43.291Z</time></trkpt><trkpt lat="39.2072717" lon="8.5550417"><ele>265.0</ele><time>2026-04-22T14:28:52.291Z</time></trkpt><trkpt lat="39.207435" lon="8.555165"><ele>265.0</ele><time>2026-04-22T14:28:56.29Z</time></trkpt><trkpt lat="39.207515" lon="8.5552367"><ele>265.0</ele><time>2026-04-22T14:28:58.291Z</time></trkpt><trkpt lat="39.2076033" lon="8.555335"><ele>265.0</ele><time>2026-04-22T14:29:00.291Z</time></trkpt><trkpt lat="39.2076533" lon="8.5553883"><ele>265.0</ele><time>2026-04-22T14:29:01.291Z</time></trkpt><trkpt lat="39.2077" lon="8.55545"><ele>265.0</ele><time>2026-04-22T14:29:02.291Z</time></trkpt><trkpt lat="39.2077417" lon="8.5555183"><ele>265.0</ele><time>2026-04-22T14:29:03.29Z</time></trkpt><trkpt lat="39.20778" lon="8.555595"><ele>265.0</ele><time>2026-04-22T14:29:04.29Z</time></trkpt><trkpt lat="39.2078217" lon="8.5556783"><ele>265.16666666666663</ele><time>2026-04-22T14:29:05.291Z</time></trkpt><trkpt lat="39.2078667" lon="8.55577"><ele>265.3333333333333</ele><time>2026-04-22T14:29:06.29Z</time></trkpt><trkpt lat="39.2079083" lon="8.555875"><ele>265.5</ele><time>2026-04-22T14:29:07.291Z</time></trkpt><trkpt lat="39.207945" lon="8.5559767"><ele>265.6666666666667</ele><time>2026-04-22T14:29:08.29Z</time></trkpt><trkpt lat="39.2079833" lon="8.5560767"><ele>265.83333333333337</ele><time>2026-04-22T14:29:09.291Z</time></trkpt><trkpt lat="39.20801" lon="8.5561833"><ele>266.0</ele><time>2026-04-22T14:29:10.291Z</time></trkpt><trkpt lat="39.2080383" lon="8.5562917"><ele>264.6</ele><time>2026-04-22T14:29:11.291Z</time></trkpt><trkpt lat="39.2080683" lon="8.5563983"><ele>263.20000000000005</ele><time>2026-04-22T14:29:12.291Z</time></trkpt><trkpt lat="39.2080983" lon="8.5565017"><ele>261.79999999999995</ele><time>2026-04-22T14:29:13.29Z</time></trkpt><trkpt lat="39.2081483" lon="8.5567167"><ele>260.4</ele><time>2026-04-22T14:29:15.291Z</time></trkpt><trkpt lat="39.2081767" lon="8.55681"><ele>259.0</ele><time>2026-04-22T14:29:16.291Z</time></trkpt><trkpt lat="39.2082183" lon="8.5569167"><ele>259.0</ele><time>2026-04-22T14:29:17.29Z</time></trkpt><trkpt lat="39.2082683" lon="8.5570233"><ele>259.0</ele><time>2026-04-22T14:29:18.289Z</time></trkpt><trkpt lat="39.20832" lon="8.5571467"><ele>259.0</ele><time>2026-04-22T14:29:19.289Z</time></trkpt><trkpt lat="39.208375" lon="8.5572683"><ele>259.0</ele><time>2026-04-22T14:29:20.29Z</time></trkpt><trkpt lat="39.2084367" lon="8.5573967"><ele>259.0</ele><time>2026-04-22T14:29:21.29Z</time></trkpt><trkpt lat="39.20849" lon="8.5575183"><ele>259.0</ele><time>2026-04-22T14:29:22.29Z</time></trkpt><trkpt lat="39.208535" lon="8.55762"><ele>259.0</ele><time>2026-04-22T14:29:23.289Z</time></trkpt><trkpt lat="39.2085833" lon="8.5577083"><ele>259.0</ele><time>2026-04-22T14:29:24.289Z</time></trkpt><trkpt lat="39.20863" lon="8.5577883"><ele>259.0</ele><time>2026-04-22T14:29:25.29Z</time></trkpt><trkpt lat="39.2086717" lon="8.5578617"><ele>259.0</ele><time>2026-04-22T14:29:26.29Z</time></trkpt><trkpt lat="39.2087117" lon="8.5579367"><ele>259.0</ele><time>2026-04-22T14:29:27.289Z</time></trkpt><trkpt lat="39.20875" lon="8.55803"><ele>259.0</ele><time>2026-04-22T14:29:28.29Z</time></trkpt><trkpt lat="39.2087983" lon="8.5581217"><ele>259.0</ele><time>2026-04-22T14:29:29.29Z</time></trkpt><trkpt lat="39.208835" lon="8.5582183"><ele>259.0</ele><time>2026-04-22T14:29:30.29Z</time></trkpt><trkpt lat="39.2088733" lon="8.5583133"><ele>259.0</ele><time>2026-04-22T14:29:31.29Z</time></trkpt><trkpt lat="39.2089133" lon="8.558405"><ele>259.0</ele><time>2026-04-22T14:29:32.29Z</time></trkpt><trkpt lat="39.20894" lon="8.5584967"><ele>259.0</ele><time>2026-04-22T14:29:33.29Z</time></trkpt><trkpt lat="39.208965" lon="8.5585833"><ele>260.4</ele><time>2026-04-22T14:29:34.29Z</time></trkpt><trkpt lat="39.2090183" lon="8.5587767"><ele>261.79999999999995</ele><time>2026-04-22T14:29:36.29Z</time></trkpt><trkpt lat="39.20905" lon="8.5588833"><ele>263.20000000000005</ele><time>2026-04-22T14:29:37.29Z</time></trkpt><trkpt lat="39.2090733" lon="8.55899"><ele>264.6</ele><time>2026-04-22T14:29:38.29Z</time></trkpt><trkpt lat="39.2091" lon="8.559095"><ele>266.0</ele><time>2026-04-22T14:29:39.29Z</time></trkpt><trkpt lat="39.2091233" lon="8.5592"><ele>266.0</ele><time>2026-04-22T14:29:40.289Z</time></trkpt><trkpt lat="39.209155" lon="8.5593017"><ele>266.0</ele><time>2026-04-22T14:29:41.289Z</time></trkpt><trkpt lat="39.209175" lon="8.5594017"><ele>266.0</ele><time>2026-04-22T14:29:42.289Z</time></trkpt><trkpt lat="39.2092017" lon="8.5595"><ele>266.0</ele><time>2026-04-22T14:29:43.29Z</time></trkpt><trkpt lat="39.209225" lon="8.5596067"><ele>266.0</ele><time>2026-04-22T14:29:44.29Z</time></trkpt><trkpt lat="39.2092533" lon="8.5597"><ele>266.0</ele><time>2026-04-22T14:29:45.29Z</time></trkpt><trkpt lat="39.2092817" lon="8.5597983"><ele>266.1666666666667</ele><time>2026-04-22T14:29:46.29Z</time></trkpt><trkpt lat="39.2093167" lon="8.5598983"><ele>266.33333333333337</ele><time>2026-04-22T14:29:47.289Z</time></trkpt><trkpt lat="39.2093483" lon="8.5599967"><ele>266.5</ele><time>2026-04-22T14:29:48.289Z</time></trkpt><trkpt lat="39.2093767" lon="8.5600933"><ele>266.6666666666667</ele><time>2026-04-22T14:29:49.29Z</time></trkpt><trkpt lat="39.20941" lon="8.5601783"><ele>266.8333333333333</ele><time>2026-04-22T14:29:50.29Z</time></trkpt><trkpt lat="39.2094517" lon="8.5602583"><ele>267.0</ele><time>2026-04-22T14:29:51.29Z</time></trkpt><trkpt lat="39.2095033" lon="8.5603317"><ele>266.8</ele><time>2026-04-22T14:29:52.29Z</time></trkpt><trkpt lat="39.2095567" lon="8.5603933"><ele>266.6</ele><time>2026-04-22T14:29:53.29Z</time></trkpt><trkpt lat="39.2096083" lon="8.5604583"><ele>266.40000000000003</ele><time>2026-04-22T14:29:54.289Z</time></trkpt><trkpt lat="39.2096583" lon="8.5605317"><ele>266.2</ele><time>2026-04-22T14:29:55.29Z</time></trkpt><trkpt lat="39.2097783" lon="8.56069"><ele>266.0</ele><time>2026-04-22T14:29:57.29Z</time></trkpt><trkpt lat="39.2098517" lon="8.5607767"><ele>265.83333333333337</ele><time>2026-04-22T14:29:58.289Z</time></trkpt><trkpt lat="39.2099267" lon="8.5608567"><ele>265.6666666666667</ele><time>2026-04-22T14:29:59.289Z</time></trkpt><trkpt lat="39.2100017" lon="8.5609217"><ele>265.5</ele><time>2026-04-22T14:30:00.289Z</time></trkpt><trkpt lat="39.210075" lon="8.5609883"><ele>265.3333333333333</ele><time>2026-04-22T14:30:01.289Z</time></trkpt><trkpt lat="39.2101383" lon="8.5610583"><ele>265.16666666666663</ele><time>2026-04-22T14:30:02.29Z</time></trkpt><trkpt lat="39.2102083" lon="8.5611167"><ele>265.0</ele><time>2026-04-22T14:30:03.289Z</time></trkpt><trkpt lat="39.2102883" lon="8.5611917"><ele>265.3333333333333</ele><time>2026-04-22T14:30:04.289Z</time></trkpt><trkpt lat="39.2103733" lon="8.5612617"><ele>265.66666666666663</ele><time>2026-04-22T14:30:05.289Z</time></trkpt><trkpt lat="39.2104517" lon="8.5613267"><ele>266.0</ele><time>2026-04-22T14:30:06.289Z</time></trkpt><trkpt lat="39.210525" lon="8.56138"><ele>266.3333333333333</ele><time>2026-04-22T14:30:07.29Z</time></trkpt><trkpt lat="39.210595" lon="8.5614217"><ele>266.6666666666667</ele><time>2026-04-22T14:30:08.29Z</time></trkpt><trkpt lat="39.210655" lon="8.5614567"><ele>267.0</ele><time>2026-04-22T14:30:09.29Z</time></trkpt><trkpt lat="39.2107167" lon="8.5615"><ele>267.0</ele><time>2026-04-22T14:30:10.29Z</time></trkpt><trkpt lat="39.2107733" lon="8.5615517"><ele>267.0</ele><time>2026-04-22T14:30:11.289Z</time></trkpt><trkpt lat="39.2108617" lon="8.5616167"><ele>267.0</ele><time>2026-04-22T14:30:13.29Z</time></trkpt><trkpt lat="39.2108767" lon="8.5617"><ele>267.0</ele><time>2026-04-22T14:30:17.289Z</time></trkpt><trkpt lat="39.2106917" lon="8.5616883"><ele>267.0</ele><time>2026-04-22T14:30:22.29Z</time></trkpt><trkpt lat="39.2105917" lon="8.5616733"><ele>267.2</ele><time>2026-04-22T14:30:24.29Z</time></trkpt><trkpt lat="39.2104833" lon="8.5616617"><ele>267.4</ele><time>2026-04-22T14:30:26.29Z</time></trkpt><trkpt lat="39.2103567" lon="8.561625"><ele>267.6</ele><time>2026-04-22T14:30:28.29Z</time></trkpt><trkpt lat="39.21028" lon="8.5616067"><ele>267.8</ele><time>2026-04-22T14:30:29.29Z</time></trkpt><trkpt lat="39.2102067" lon="8.561595"><ele>268.0</ele><time>2026-04-22T14:30:30.29Z</time></trkpt><trkpt lat="39.2101383" lon="8.5615983"><ele>268.0</ele><time>2026-04-22T14:30:31.29Z</time></trkpt><trkpt lat="39.21007" lon="8.5616067"><ele>268.0</ele><time>2026-04-22T14:30:32.289Z</time></trkpt><trkpt lat="39.2100067" lon="8.5616183"><ele>268.0</ele><time>2026-04-22T14:30:33.29Z</time></trkpt><trkpt lat="39.2099433" lon="8.561645"><ele>268.0</ele><time>2026-04-22T14:30:34.29Z</time></trkpt><trkpt lat="39.2098833" lon="8.56168"><ele>268.0</ele><time>2026-04-22T14:30:35.289Z</time></trkpt><trkpt lat="39.2098267" lon="8.5617183"><ele>268.0</ele><time>2026-04-22T14:30:36.289Z</time></trkpt><trkpt lat="39.2097367" lon="8.5617917"><ele>268.0</ele><time>2026-04-22T14:30:38.289Z</time></trkpt><trkpt lat="39.2095333" lon="8.56192"><ele>268.0</ele><time>2026-04-22T14:30:42.29Z</time></trkpt><trkpt lat="39.2094333" lon="8.56199"><ele>268.0</ele><time>2026-04-22T14:30:44.289Z</time></trkpt><trkpt lat="39.20932" lon="8.5620717"><ele>268.0</ele><time>2026-04-22T14:30:46.289Z</time></trkpt><trkpt lat="39.2092583" lon="8.5621067"><ele>268.0</ele><time>2026-04-22T14:30:47.29Z</time></trkpt><trkpt lat="39.2092033" lon="8.5621517"><ele>268.0</ele><time>2026-04-22T14:30:48.29Z</time></trkpt><trkpt lat="39.209155" lon="8.5622183"><ele>268.0</ele><time>2026-04-22T14:30:49.29Z</time></trkpt><trkpt lat="39.2091033" lon="8.5622817"><ele>269.66666666666663</ele><time>2026-04-22T14:30:50.29Z</time></trkpt><trkpt lat="39.20905" lon="8.562345"><ele>271.3333333333333</ele><time>2026-04-22T14:30:51.29Z</time></trkpt><trkpt lat="39.2090083" lon="8.5624167"><ele>273.0</ele><time>2026-04-22T14:30:52.29Z</time></trkpt><trkpt lat="39.2089733" lon="8.5624917"><ele>274.6666666666667</ele><time>2026-04-22T14:30:53.29Z</time></trkpt><trkpt lat="39.208915" lon="8.562595"><ele>276.33333333333337</ele><time>2026-04-22T14:30:55.29Z</time></trkpt><trkpt lat="39.2088667" lon="8.5626633"><ele>278.0</ele><time>2026-04-22T14:30:57.29Z</time></trkpt><trkpt lat="39.208795" lon="8.562775"><ele>278.6</ele><time>2026-04-22T14:30:59.289Z</time></trkpt><trkpt lat="39.2087083" lon="8.56294"><ele>279.20000000000005</ele><time>2026-04-22T14:31:01.29Z</time></trkpt><trkpt lat="39.2086533" lon="8.5630317"><ele>279.8</ele><time>2026-04-22T14:31:02.29Z</time></trkpt><trkpt lat="39.2085967" lon="8.5631217"><ele>280.40000000000003</ele><time>2026-04-22T14:31:03.29Z</time></trkpt><trkpt lat="39.2085417" lon="8.5632117"><ele>281.0</ele><time>2026-04-22T14:31:04.289Z</time></trkpt><trkpt lat="39.2084833" lon="8.5632867"><ele>281.00000000000006</ele><time>2026-04-22T14:31:05.289Z</time></trkpt><trkpt lat="39.2084233" lon="8.5633583"><ele>281.0</ele><time>2026-04-22T14:31:06.29Z</time></trkpt><trkpt lat="39.20837" lon="8.5634183"><ele>281.0</ele><time>2026-04-22T14:31:07.289Z</time></trkpt><trkpt lat="39.2083083" lon="8.5634667"><ele>281.0</ele><time>2026-04-22T14:31:08.29Z</time></trkpt><trkpt lat="39.208245" lon="8.5635067"><ele>281.0</ele><time>2026-04-22T14:31:09.29Z</time></trkpt><trkpt lat="39.2081767" lon="8.56354"><ele>281.00000000000006</ele><time>2026-04-22T14:31:10.29Z</time></trkpt><trkpt lat="39.208105" lon="8.5635717"><ele>281.0</ele><time>2026-04-22T14:31:11.289Z</time></trkpt><trkpt lat="39.2080367" lon="8.5636017"><ele>282.0</ele><time>2026-04-22T14:31:12.29Z</time></trkpt><trkpt lat="39.207975" lon="8.5636367"><ele>283.0</ele><time>2026-04-22T14:31:13.289Z</time></trkpt><trkpt lat="39.2078683" lon="8.5637333"><ele>284.0</ele><time>2026-04-22T14:31:15.29Z</time></trkpt><trkpt lat="39.2078117" lon="8.5637867"><ele>285.0</ele><time>2026-04-22T14:31:16.29Z</time></trkpt><trkpt lat="39.20775" lon="8.5638433"><ele>286.0</ele><time>2026-04-22T14:31:17.289Z</time></trkpt><trkpt lat="39.2076967" lon="8.5638983"><ele>287.0</ele><time>2026-04-22T14:31:18.29Z</time></trkpt><trkpt lat="39.2076133" lon="8.5640067"><ele>287.0</ele><time>2026-04-22T14:31:20.29Z</time></trkpt><trkpt lat="39.2074517" lon="8.5641917"><ele>287.0</ele><time>2026-04-22T14:31:24.29Z</time></trkpt><trkpt lat="39.2073933" lon="8.5643083"><ele>287.0</ele><time>2026-04-22T14:31:26.289Z</time></trkpt><trkpt lat="39.2073533" lon="8.56445"><ele>287.0</ele><time>2026-04-22T14:31:28.29Z</time></trkpt><trkpt lat="39.2073267" lon="8.56458"><ele>289.0</ele><time>2026-04-22T14:31:30.29Z</time></trkpt><trkpt lat="39.2072617" lon="8.5646917"><ele>291.0</ele><time>2026-04-22T14:31:32.29Z</time></trkpt><trkpt lat="39.2072033" lon="8.5648133"><ele>293.0</ele><time>2026-04-22T14:31:34.29Z</time></trkpt><trkpt lat="39.2071517" lon="8.564955"><ele>295.0</ele><time>2026-04-22T14:31:36.29Z</time></trkpt><trkpt lat="39.2071233" lon="8.5650317"><ele>297.0</ele><time>2026-04-22T14:31:37.29Z</time></trkpt><trkpt lat="39.2070567" lon="8.565155"><ele>297.0</ele><time>2026-04-22T14:31:39.29Z</time></trkpt><trkpt lat="39.2069967" lon="8.5652733"><ele>297.0</ele><time>2026-04-22T14:31:41.29Z</time></trkpt><trkpt lat="39.20688" lon="8.5655117"><ele>297.0</ele><time>2026-04-22T14:31:45.29Z</time></trkpt><trkpt lat="39.2067967" lon="8.565635"><ele>296.3333333333333</ele><time>2026-04-22T14:31:47.289Z</time></trkpt><trkpt lat="39.2067533" lon="8.5657033"><ele>295.6666666666667</ele><time>2026-04-22T14:31:48.289Z</time></trkpt><trkpt lat="39.2067033" lon="8.5657767"><ele>295.0</ele><time>2026-04-22T14:31:49.29Z</time></trkpt><trkpt lat="39.2066433" lon="8.56585"><ele>294.33333333333337</ele><time>2026-04-22T14:31:50.29Z</time></trkpt><trkpt lat="39.2065817" lon="8.565925"><ele>293.6666666666667</ele><time>2026-04-22T14:31:51.29Z</time></trkpt><trkpt lat="39.2065233" lon="8.566"><ele>293.0</ele><time>2026-04-22T14:31:52.29Z</time></trkpt><trkpt lat="39.2064667" lon="8.5660733"><ele>294.2</ele><time>2026-04-22T14:31:53.29Z</time></trkpt><trkpt lat="39.2064" lon="8.5661433"><ele>295.4</ele><time>2026-04-22T14:31:54.29Z</time></trkpt><trkpt lat="39.2063233" lon="8.5662083"><ele>296.59999999999997</ele><time>2026-04-22T14:31:55.29Z</time></trkpt><trkpt lat="39.2062483" lon="8.5662783"><ele>297.8</ele><time>2026-04-22T14:31:56.289Z</time></trkpt><trkpt lat="39.2061683" lon="8.566345"><ele>299.0</ele><time>2026-04-22T14:31:57.29Z</time></trkpt><trkpt lat="39.206095" lon="8.56641"><ele>299.0</ele><time>2026-04-22T14:31:58.29Z</time></trkpt><trkpt lat="39.2060283" lon="8.5664667"><ele>299.0</ele><time>2026-04-22T14:31:59.289Z</time></trkpt><trkpt lat="39.2059633" lon="8.566515"><ele>299.0</ele><time>2026-04-22T14:32:00.29Z</time></trkpt><trkpt lat="39.2059083" lon="8.5665667"><ele>299.0</ele><time>2026-04-22T14:32:01.29Z</time></trkpt><trkpt lat="39.2058483" lon="8.5666133"><ele>299.0</ele><time>2026-04-22T14:32:02.29Z</time></trkpt><trkpt lat="39.2057233" lon="8.5667167"><ele>299.0</ele><time>2026-04-22T14:32:04.289Z</time></trkpt><trkpt lat="39.2056617" lon="8.566775"><ele>299.33333333333337</ele><time>2026-04-22T14:32:05.29Z</time></trkpt><trkpt lat="39.2056083" lon="8.5668383"><ele>299.6666666666667</ele><time>2026-04-22T14:32:06.29Z</time></trkpt><trkpt lat="39.2055567" lon="8.5669117"><ele>300.0</ele><time>2026-04-22T14:32:07.29Z</time></trkpt><trkpt lat="39.2055017" lon="8.56699"><ele>300.3333333333333</ele><time>2026-04-22T14:32:08.29Z</time></trkpt><trkpt lat="39.2054533" lon="8.56707"><ele>300.66666666666663</ele><time>2026-04-22T14:32:09.29Z</time></trkpt><trkpt lat="39.2054067" lon="8.5671533"><ele>301.0</ele><time>2026-04-22T14:32:10.29Z</time></trkpt><trkpt lat="39.2053617" lon="8.5672433"><ele>301.0</ele><time>2026-04-22T14:32:11.289Z</time></trkpt><trkpt lat="39.2053133" lon="8.5673333"><ele>301.0</ele><time>2026-04-22T14:32:12.289Z</time></trkpt><trkpt lat="39.205265" lon="8.5674167"><ele>301.0</ele><time>2026-04-22T14:32:13.29Z</time></trkpt><trkpt lat="39.2052233" lon="8.5674983"><ele>301.0</ele><time>2026-04-22T14:32:14.29Z</time></trkpt><trkpt lat="39.2051867" lon="8.5675783"><ele>301.0</ele><time>2026-04-22T14:32:15.289Z</time></trkpt><trkpt lat="39.205155" lon="8.5676533"><ele>301.0</ele><time>2026-04-22T14:32:16.289Z</time></trkpt><trkpt lat="39.2050767" lon="8.5677833"><ele>301.0</ele><time>2026-04-22T14:32:18.289Z</time></trkpt><trkpt lat="39.20503" lon="8.5678517"><ele>301.0</ele><time>2026-04-22T14:32:19.29Z</time></trkpt><trkpt lat="39.2049867" lon="8.5679217"><ele>301.0</ele><time>2026-04-22T14:32:20.29Z</time></trkpt><trkpt lat="39.2049433" lon="8.5680067"><ele>301.0</ele><time>2026-04-22T14:32:21.289Z</time></trkpt><trkpt lat="39.2049" lon="8.5680983"><ele>301.0</ele><time>2026-04-22T14:32:22.29Z</time></trkpt><trkpt lat="39.20487" lon="8.5681867"><ele>301.0</ele><time>2026-04-22T14:32:23.29Z</time></trkpt><trkpt lat="39.204755" lon="8.56842"><ele>303.16666666666663</ele><time>2026-04-22T14:32:27.289Z</time></trkpt><trkpt lat="39.204715" lon="8.5685133"><ele>305.3333333333333</ele><time>2026-04-22T14:32:29.29Z</time></trkpt><trkpt lat="39.2046667" lon="8.568605"><ele>307.5</ele><time>2026-04-22T14:32:31.29Z</time></trkpt><trkpt lat="39.20462" lon="8.5687083"><ele>309.6666666666667</ele><time>2026-04-22T14:32:33.29Z</time></trkpt><trkpt lat="39.2045817" lon="8.5687733"><ele>311.83333333333337</ele><time>2026-04-22T14:32:34.29Z</time></trkpt><trkpt lat="39.204515" lon="8.5688983"><ele>314.0</ele><time>2026-04-22T14:32:36.289Z</time></trkpt><trkpt lat="39.2044333" lon="8.569015"><ele>314.0</ele><time>2026-04-22T14:32:38.29Z</time></trkpt><trkpt lat="39.2043817" lon="8.56909"><ele>314.0</ele><time>2026-04-22T14:32:39.29Z</time></trkpt><trkpt lat="39.2043267" lon="8.5691817"><ele>314.0</ele><time>2026-04-22T14:32:40.289Z</time></trkpt><trkpt lat="39.20428" lon="8.56927"><ele>314.0</ele><time>2026-04-22T14:32:41.29Z</time></trkpt><trkpt lat="39.204235" lon="8.5693483"><ele>314.0</ele><time>2026-04-22T14:32:42.29Z</time></trkpt><trkpt lat="39.2041967" lon="8.5694267"><ele>314.0</ele><time>2026-04-22T14:32:43.29Z</time></trkpt><trkpt lat="39.2041433" lon="8.5695617"><ele>315.79999999999995</ele><time>2026-04-22T14:32:45.289Z</time></trkpt><trkpt lat="39.2039533" lon="8.5696833"><ele>317.59999999999997</ele><time>2026-04-22T14:32:49.29Z</time></trkpt><trkpt lat="39.2038833" lon="8.5696933"><ele>319.4</ele><time>2026-04-22T14:32:50.289Z</time></trkpt><trkpt lat="39.2038183" lon="8.569705"><ele>321.2</ele><time>2026-04-22T14:32:51.29Z</time></trkpt><trkpt lat="39.2037483" lon="8.5697183"><ele>323.0</ele><time>2026-04-22T14:32:52.29Z</time></trkpt><trkpt lat="39.2036833" lon="8.569725"><ele>323.0</ele><time>2026-04-22T14:32:53.29Z</time></trkpt><trkpt lat="39.2036183" lon="8.569715"><ele>323.0</ele><time>2026-04-22T14:32:54.289Z</time></trkpt><trkpt lat="39.2035533" lon="8.5697017"><ele>323.0</ele><time>2026-04-22T14:32:55.29Z</time></trkpt><trkpt lat="39.20348" lon="8.5696867"><ele>323.0</ele><time>2026-04-22T14:32:56.289Z</time></trkpt><trkpt lat="39.2034067" lon="8.569675"><ele>323.0</ele><time>2026-04-22T14:32:57.29Z</time></trkpt><trkpt lat="39.2033417" lon="8.5696733"><ele>323.0</ele><time>2026-04-22T14:32:58.289Z</time></trkpt><trkpt lat="39.2032217" lon="8.56973"><ele>323.1666666666667</ele><time>2026-04-22T14:33:00.29Z</time></trkpt><trkpt lat="39.20316" lon="8.5697733"><ele>323.33333333333337</ele><time>2026-04-22T14:33:01.29Z</time></trkpt><trkpt lat="39.2030933" lon="8.5698233"><ele>323.5</ele><time>2026-04-22T14:33:02.29Z</time></trkpt><trkpt lat="39.20303" lon="8.5698783"><ele>323.6666666666667</ele><time>2026-04-22T14:33:03.289Z</time></trkpt><trkpt lat="39.2029567" lon="8.5699417"><ele>323.8333333333333</ele><time>2026-04-22T14:33:04.289Z</time></trkpt><trkpt lat="39.20289" lon="8.569995"><ele>324.0</ele><time>2026-04-22T14:33:05.29Z</time></trkpt><trkpt lat="39.2028383" lon="8.5700417"><ele>324.0</ele><time>2026-04-22T14:33:06.29Z</time></trkpt><trkpt lat="39.2027" lon="8.5702117"><ele>324.0</ele><time>2026-04-22T14:33:09.289Z</time></trkpt><trkpt lat="39.2026517" lon="8.5702717"><ele>324.0</ele><time>2026-04-22T14:33:10.29Z</time></trkpt><trkpt lat="39.2025783" lon="8.5704"><ele>324.0</ele><time>2026-04-22T14:33:12.29Z</time></trkpt><trkpt lat="39.202535" lon="8.5704767"><ele>324.8571428571429</ele><time>2026-04-22T14:33:13.289Z</time></trkpt><trkpt lat="39.2024883" lon="8.5705483"><ele>325.7142857142857</ele><time>2026-04-22T14:33:14.29Z</time></trkpt><trkpt lat="39.202435" lon="8.57061"><ele>326.57142857142856</ele><time>2026-04-22T14:33:15.29Z</time></trkpt><trkpt lat="39.20239" lon="8.5706717"><ele>327.42857142857144</ele><time>2026-04-22T14:33:16.29Z</time></trkpt><trkpt lat="39.2023517" lon="8.570745"><ele>328.2857142857143</ele><time>2026-04-22T14:33:17.29Z</time></trkpt><trkpt lat="39.2023117" lon="8.5708133"><ele>329.14285714285717</ele><time>2026-04-22T14:33:18.289Z</time></trkpt><trkpt lat="39.2022733" lon="8.5708817"><ele>330.0</ele><time>2026-04-22T14:33:19.29Z</time></trkpt><trkpt lat="39.2022267" lon="8.5709417"><ele>331.3333333333333</ele><time>2026-04-22T14:33:20.29Z</time></trkpt><trkpt lat="39.2021633" lon="8.5709917"><ele>332.6666666666667</ele><time>2026-04-22T14:33:21.289Z</time></trkpt><trkpt lat="39.2021" lon="8.57103"><ele>334.0</ele><time>2026-04-22T14:33:22.29Z</time></trkpt><trkpt lat="39.2020433" lon="8.57107"><ele>335.33333333333337</ele><time>2026-04-22T14:33:23.29Z</time></trkpt><trkpt lat="39.2019833" lon="8.5711333"><ele>336.6666666666667</ele><time>2026-04-22T14:33:24.29Z</time></trkpt><trkpt lat="39.2019383" lon="8.5711983"><ele>338.0</ele><time>2026-04-22T14:33:25.289Z</time></trkpt><trkpt lat="39.2018767" lon="8.5713517"><ele>338.6666666666667</ele><time>2026-04-22T14:33:27.289Z</time></trkpt><trkpt lat="39.2017783" lon="8.5715"><ele>339.33333333333337</ele><time>2026-04-22T14:33:29.29Z</time></trkpt><trkpt lat="39.20172" lon="8.571565"><ele>340.0</ele><time>2026-04-22T14:33:30.29Z</time></trkpt><trkpt lat="39.201665" lon="8.57161"><ele>340.6666666666667</ele><time>2026-04-22T14:33:31.289Z</time></trkpt><trkpt lat="39.20161" lon="8.5716583"><ele>341.3333333333333</ele><time>2026-04-22T14:33:32.29Z</time></trkpt><trkpt lat="39.2015533" lon="8.571715"><ele>342.0</ele><time>2026-04-22T14:33:33.29Z</time></trkpt><trkpt lat="39.2014917" lon="8.5717867"><ele>343.1666666666667</ele><time>2026-04-22T14:33:34.289Z</time></trkpt><trkpt lat="39.2014217" lon="8.5718633"><ele>344.3333333333333</ele><time>2026-04-22T14:33:35.29Z</time></trkpt><trkpt lat="39.2013533" lon="8.5719467"><ele>345.5</ele><time>2026-04-22T14:33:36.289Z</time></trkpt><trkpt lat="39.2012917" lon="8.57202"><ele>346.66666666666663</ele><time>2026-04-22T14:33:37.29Z</time></trkpt><trkpt lat="39.2012333" lon="8.5720817"><ele>347.8333333333333</ele><time>2026-04-22T14:33:38.29Z</time></trkpt><trkpt lat="39.20118" lon="8.572145"><ele>349.0</ele><time>2026-04-22T14:33:39.29Z</time></trkpt><trkpt lat="39.2011333" lon="8.5722133"><ele>349.16666666666663</ele><time>2026-04-22T14:33:40.29Z</time></trkpt><trkpt lat="39.20109" lon="8.5722917"><ele>349.3333333333333</ele><time>2026-04-22T14:33:41.29Z</time></trkpt><trkpt lat="39.2010517" lon="8.572385"><ele>349.5</ele><time>2026-04-22T14:33:42.289Z</time></trkpt><trkpt lat="39.201005" lon="8.5724767"><ele>349.6666666666667</ele><time>2026-04-22T14:33:43.29Z</time></trkpt><trkpt lat="39.2009633" lon="8.5725667"><ele>349.83333333333337</ele><time>2026-04-22T14:33:44.29Z</time></trkpt><trkpt lat="39.2009217" lon="8.5726567"><ele>350.0</ele><time>2026-04-22T14:33:45.29Z</time></trkpt><trkpt lat="39.20087" lon="8.572765"><ele>350.0</ele><time>2026-04-22T14:33:47.289Z</time></trkpt><trkpt lat="39.2008517" lon="8.5728433"><ele>350.0</ele><time>2026-04-22T14:33:50.29Z</time></trkpt><trkpt lat="39.2010883" lon="8.57304"><ele>350.0</ele><time>2026-04-22T14:42:45.289Z</time></trkpt><trkpt lat="39.2011517" lon="8.5730667"><ele>350.0</ele><time>2026-04-22T14:42:46.289Z</time></trkpt><trkpt lat="39.2012633" lon="8.5731067"><ele>350.4</ele><time>2026-04-22T14:42:48.289Z</time></trkpt><trkpt lat="39.2013883" lon="8.5731433"><ele>350.8</ele><time>2026-04-22T14:42:50.289Z</time></trkpt><trkpt lat="39.2014617" lon="8.57317"><ele>351.20000000000005</ele><time>2026-04-22T14:42:51.289Z</time></trkpt><trkpt lat="39.201535" lon="8.5731967"><ele>351.6</ele><time>2026-04-22T14:42:52.289Z</time></trkpt><trkpt lat="39.2016" lon="8.57322"><ele>352.0</ele><time>2026-04-22T14:42:53.288Z</time></trkpt><trkpt lat="39.2017133" lon="8.5732417"><ele>352.40000000000003</ele><time>2026-04-22T14:42:55.288Z</time></trkpt><trkpt lat="39.2018383" lon="8.573215"><ele>352.8</ele><time>2026-04-22T14:42:57.289Z</time></trkpt><trkpt lat="39.2018983" lon="8.5731883"><ele>353.2</ele><time>2026-04-22T14:42:58.288Z</time></trkpt><trkpt lat="39.2020117" lon="8.5731583"><ele>353.6</ele><time>2026-04-22T14:43:00.289Z</time></trkpt><trkpt lat="39.2021083" lon="8.5731483"><ele>354.0</ele><time>2026-04-22T14:43:02.288Z</time></trkpt><trkpt lat="39.2022067" lon="8.5731833"><ele>354.0</ele><time>2026-04-22T14:43:04.288Z</time></trkpt><trkpt lat="39.20233" lon="8.573235"><ele>354.0</ele><time>2026-04-22T14:43:06.289Z</time></trkpt><trkpt lat="39.202445" lon="8.573265"><ele>354.0</ele><time>2026-04-22T14:43:08.289Z</time></trkpt><trkpt lat="39.202555" lon="8.5732483"><ele>354.0</ele><time>2026-04-22T14:43:10.289Z</time></trkpt><trkpt lat="39.2026733" lon="8.573255"><ele>353.8333333333333</ele><time>2026-04-22T14:43:12.288Z</time></trkpt><trkpt lat="39.20274" lon="8.57327"><ele>353.6666666666667</ele><time>2026-04-22T14:43:13.289Z</time></trkpt><trkpt lat="39.2028083" lon="8.5732883"><ele>353.5</ele><time>2026-04-22T14:43:14.289Z</time></trkpt><trkpt lat="39.2028917" lon="8.5733083"><ele>353.33333333333337</ele><time>2026-04-22T14:43:15.289Z</time></trkpt><trkpt lat="39.2029717" lon="8.573335"><ele>353.1666666666667</ele><time>2026-04-22T14:43:16.289Z</time></trkpt><trkpt lat="39.203055" lon="8.57337"><ele>353.0</ele><time>2026-04-22T14:43:17.289Z</time></trkpt><trkpt lat="39.203145" lon="8.57341"><ele>354.2</ele><time>2026-04-22T14:43:18.289Z</time></trkpt><trkpt lat="39.2032417" lon="8.5734517"><ele>355.4</ele><time>2026-04-22T14:43:19.288Z</time></trkpt><trkpt lat="39.2033383" lon="8.5734917"><ele>356.59999999999997</ele><time>2026-04-22T14:43:20.289Z</time></trkpt><trkpt lat="39.203435" lon="8.573525"><ele>357.79999999999995</ele><time>2026-04-22T14:43:21.289Z</time></trkpt><trkpt lat="39.20353" lon="8.57357"><ele>359.0</ele><time>2026-04-22T14:43:22.289Z</time></trkpt><trkpt lat="39.2036317" lon="8.573625"><ele>359.0</ele><time>2026-04-22T14:43:23.289Z</time></trkpt><trkpt lat="39.2037333" lon="8.57368"><ele>359.0</ele><time>2026-04-22T14:43:24.288Z</time></trkpt><trkpt lat="39.2038283" lon="8.5737317"><ele>359.0</ele><time>2026-04-22T14:43:25.288Z</time></trkpt><trkpt lat="39.204005" lon="8.57382"><ele>359.0</ele><time>2026-04-22T14:43:27.289Z</time></trkpt><trkpt lat="39.2040867" lon="8.5738567"><ele>359.6</ele><time>2026-04-22T14:43:28.289Z</time></trkpt><trkpt lat="39.2041633" lon="8.573885"><ele>360.2</ele><time>2026-04-22T14:43:29.289Z</time></trkpt><trkpt lat="39.2042267" lon="8.573895"><ele>360.8</ele><time>2026-04-22T14:43:30.288Z</time></trkpt><trkpt lat="39.204345" lon="8.5739217"><ele>361.40000000000003</ele><time>2026-04-22T14:43:32.289Z</time></trkpt><trkpt lat="39.2044583" lon="8.5739583"><ele>362.0</ele><time>2026-04-22T14:43:34.289Z</time></trkpt><trkpt lat="39.2045733" lon="8.574005"><ele>362.0</ele><time>2026-04-22T14:43:36.288Z</time></trkpt><trkpt lat="39.2046933" lon="8.574025"><ele>362.0</ele><time>2026-04-22T14:43:38.289Z</time></trkpt><trkpt lat="39.20479" lon="8.5740517"><ele>362.0</ele><time>2026-04-22T14:43:40.288Z</time></trkpt><trkpt lat="39.204865" lon="8.5741083"><ele>362.0</ele><time>2026-04-22T14:43:42.289Z</time></trkpt><trkpt lat="39.2049583" lon="8.5742"><ele>362.0</ele><time>2026-04-22T14:43:44.289Z</time></trkpt><trkpt lat="39.2050117" lon="8.5742583"><ele>361.8</ele><time>2026-04-22T14:43:45.289Z</time></trkpt><trkpt lat="39.20507" lon="8.5743317"><ele>361.6</ele><time>2026-04-22T14:43:46.288Z</time></trkpt><trkpt lat="39.2051933" lon="8.5744717"><ele>361.40000000000003</ele><time>2026-04-22T14:43:48.289Z</time></trkpt><trkpt lat="39.205265" lon="8.5745283"><ele>361.20000000000005</ele><time>2026-04-22T14:43:49.288Z</time></trkpt><trkpt lat="39.2053417" lon="8.5745783"><ele>361.0</ele><time>2026-04-22T14:43:50.289Z</time></trkpt><trkpt lat="39.2054283" lon="8.574625"><ele>360.3333333333333</ele><time>2026-04-22T14:43:51.288Z</time></trkpt><trkpt lat="39.2055033" lon="8.574665"><ele>359.66666666666663</ele><time>2026-04-22T14:43:52.288Z</time></trkpt><trkpt lat="39.2055733" lon="8.5747033"><ele>359.0</ele><time>2026-04-22T14:43:53.288Z</time></trkpt><trkpt lat="39.20565" lon="8.57474"><ele>358.3333333333333</ele><time>2026-04-22T14:43:54.288Z</time></trkpt><trkpt lat="39.2057333" lon="8.5747717"><ele>357.6666666666667</ele><time>2026-04-22T14:43:55.287Z</time></trkpt><trkpt lat="39.2058117" lon="8.5747967"><ele>357.0</ele><time>2026-04-22T14:43:56.288Z</time></trkpt><trkpt lat="39.2058833" lon="8.5748117"><ele>359.8</ele><time>2026-04-22T14:43:57.287Z</time></trkpt><trkpt lat="39.2059717" lon="8.5748033"><ele>362.6</ele><time>2026-04-22T14:43:59.287Z</time></trkpt><trkpt lat="39.2060467" lon="8.5747967"><ele>365.40000000000003</ele><time>2026-04-22T14:44:07.287Z</time></trkpt><trkpt lat="39.2061917" lon="8.5748583"><ele>368.20000000000005</ele><time>2026-04-22T14:44:10.288Z</time></trkpt><trkpt lat="39.2062583" lon="8.5748967"><ele>371.0</ele><time>2026-04-22T14:44:11.288Z</time></trkpt><trkpt lat="39.2063317" lon="8.574935"><ele>371.0</ele><time>2026-04-22T14:44:12.288Z</time></trkpt><trkpt lat="39.2064133" lon="8.5749717"><ele>371.0</ele><time>2026-04-22T14:44:13.287Z</time></trkpt><trkpt lat="39.20649" lon="8.5750117"><ele>371.0</ele><time>2026-04-22T14:44:14.288Z</time></trkpt><trkpt lat="39.2066483" lon="8.5751"><ele>371.0</ele><time>2026-04-22T14:44:16.288Z</time></trkpt><trkpt lat="39.2067267" lon="8.5751583"><ele>371.0</ele><time>2026-04-22T14:44:17.288Z</time></trkpt><trkpt lat="39.2067983" lon="8.575225"><ele>371.6</ele><time>2026-04-22T14:44:18.287Z</time></trkpt><trkpt lat="39.206865" lon="8.5752983"><ele>372.20000000000005</ele><time>2026-04-22T14:44:19.288Z</time></trkpt><trkpt lat="39.2069317" lon="8.5753717"><ele>372.79999999999995</ele><time>2026-04-22T14:44:20.287Z</time></trkpt><trkpt lat="39.2069933" lon="8.5754517"><ele>373.4</ele><time>2026-04-22T14:44:21.288Z</time></trkpt><trkpt lat="39.2071017" lon="8.5755817"><ele>374.0</ele><time>2026-04-22T14:44:23.288Z</time></trkpt><trkpt lat="39.20719" lon="8.57569"><ele>375.0</ele><time>2026-04-22T14:44:25.288Z</time></trkpt><trkpt lat="39.207285" lon="8.5758367"><ele>376.0</ele><time>2026-04-22T14:44:27.288Z</time></trkpt><trkpt lat="39.2073383" lon="8.5759033"><ele>377.0</ele><time>2026-04-22T14:44:28.287Z</time></trkpt><trkpt lat="39.20744" lon="8.5761033"><ele>378.0</ele><time>2026-04-22T14:44:31.288Z</time></trkpt><trkpt lat="39.2074533" lon="8.5761933"><ele>379.4</ele><time>2026-04-22T14:44:32.288Z</time></trkpt><trkpt lat="39.2075133" lon="8.5763167"><ele>380.79999999999995</ele><time>2026-04-22T14:44:34.288Z</time></trkpt><trkpt lat="39.2075533" lon="8.576385"><ele>382.2</ele><time>2026-04-22T14:44:35.288Z</time></trkpt><trkpt lat="39.2075933" lon="8.576475"><ele>383.6</ele><time>2026-04-22T14:44:36.287Z</time></trkpt><trkpt lat="39.207635" lon="8.5765633"><ele>385.0</ele><time>2026-04-22T14:44:37.288Z</time></trkpt><trkpt lat="39.2076867" lon="8.5767383"><ele>385.0</ele><time>2026-04-22T14:44:39.288Z</time></trkpt><trkpt lat="39.2077067" lon="8.5768267"><ele>385.0</ele><time>2026-04-22T14:44:40.287Z</time></trkpt><trkpt lat="39.20772" lon="8.576965"><ele>385.0</ele><time>2026-04-22T14:44:42.287Z</time></trkpt><trkpt lat="39.2077067" lon="8.57714"><ele>385.0</ele><time>2026-04-22T14:44:45.288Z</time></trkpt><trkpt lat="39.2076833" lon="8.577285"><ele>385.0</ele><time>2026-04-22T14:44:47.288Z</time></trkpt><trkpt lat="39.207655" lon="8.5773683"><ele>385.0</ele><time>2026-04-22T14:44:48.287Z</time></trkpt><trkpt lat="39.2076283" lon="8.57746"><ele>385.0</ele><time>2026-04-22T14:44:49.288Z</time></trkpt><trkpt lat="39.207555" lon="8.577645"><ele>385.0</ele><time>2026-04-22T14:44:51.287Z</time></trkpt><trkpt lat="39.207515" lon="8.5777117"><ele>385.0</ele><time>2026-04-22T14:44:52.287Z</time></trkpt><trkpt lat="39.207435" lon="8.57785"><ele>385.0</ele><time>2026-04-22T14:44:54.288Z</time></trkpt><trkpt lat="39.207405" lon="8.5779467"><ele>384.5</ele><time>2026-04-22T14:44:55.287Z</time></trkpt><trkpt lat="39.20737" lon="8.578055"><ele>384.0</ele><time>2026-04-22T14:44:56.288Z</time></trkpt><trkpt lat="39.20734" lon="8.578175"><ele>383.5</ele><time>2026-04-22T14:44:57.287Z</time></trkpt><trkpt lat="39.2073067" lon="8.5783017"><ele>383.0</ele><time>2026-04-22T14:44:58.287Z</time></trkpt><trkpt lat="39.2072417" lon="8.5785217"><ele>382.85714285714283</ele><time>2026-04-22T14:45:00.288Z</time></trkpt><trkpt lat="39.20721" lon="8.5786067"><ele>382.71428571428567</ele><time>2026-04-22T14:45:01.288Z</time></trkpt><trkpt lat="39.2071783" lon="8.5786917"><ele>382.57142857142856</ele><time>2026-04-22T14:45:02.288Z</time></trkpt><trkpt lat="39.2071467" lon="8.5787767"><ele>382.42857142857144</ele><time>2026-04-22T14:45:03.287Z</time></trkpt><trkpt lat="39.2071133" lon="8.578855"><ele>382.2857142857143</ele><time>2026-04-22T14:45:04.288Z</time></trkpt><trkpt lat="39.2070783" lon="8.5789267"><ele>382.14285714285717</ele><time>2026-04-22T14:45:05.288Z</time></trkpt><trkpt lat="39.2070467" lon="8.579"><ele>382.0</ele><time>2026-04-22T14:45:06.288Z</time></trkpt><trkpt lat="39.207015" lon="8.5790733"><ele>382.0</ele><time>2026-04-22T14:45:07.287Z</time></trkpt><trkpt lat="39.2069383" lon="8.5791867"><ele>382.0</ele><time>2026-04-22T14:45:09.288Z</time></trkpt><trkpt lat="39.2068683" lon="8.57935"><ele>382.0</ele><time>2026-04-22T14:45:14.288Z</time></trkpt><trkpt lat="39.2068817" lon="8.5794317"><ele>382.0</ele><time>2026-04-22T14:45:22.288Z</time></trkpt><trkpt lat="39.2068767" lon="8.5795283"><ele>382.0</ele><time>2026-04-22T14:45:24.287Z</time></trkpt><trkpt lat="39.2068683" lon="8.5796317"><ele>381.20000000000005</ele><time>2026-04-22T14:45:26.287Z</time></trkpt><trkpt lat="39.206855" lon="8.57974"><ele>380.4</ele><time>2026-04-22T14:45:28.288Z</time></trkpt><trkpt lat="39.2068433" lon="8.5798367"><ele>379.6</ele><time>2026-04-22T14:45:30.288Z</time></trkpt><trkpt lat="39.2068183" lon="8.580055"><ele>378.79999999999995</ele><time>2026-04-22T14:45:34.288Z</time></trkpt><trkpt lat="39.2067983" lon="8.5801667"><ele>378.0</ele><time>2026-04-22T14:45:36.288Z</time></trkpt><trkpt lat="39.206785" lon="8.580285"><ele>378.0</ele><time>2026-04-22T14:45:38.287Z</time></trkpt><trkpt lat="39.2067683" lon="8.5804117"><ele>378.0</ele><time>2026-04-22T14:45:40.287Z</time></trkpt><trkpt lat="39.2067517" lon="8.5805517"><ele>378.0</ele><time>2026-04-22T14:45:42.288Z</time></trkpt><trkpt lat="39.20674" lon="8.580645"><ele>378.0</ele><time>2026-04-22T14:45:43.288Z</time></trkpt><trkpt lat="39.2067267" lon="8.5807667"><ele>378.0</ele><time>2026-04-22T14:45:44.288Z</time></trkpt><trkpt lat="39.20671" lon="8.5809117"><ele>378.0</ele><time>2026-04-22T14:45:45.288Z</time></trkpt><trkpt lat="39.20669" lon="8.5810517"><ele>378.0</ele><time>2026-04-22T14:45:46.287Z</time></trkpt><trkpt lat="39.20667" lon="8.5811833"><ele>378.0</ele><time>2026-04-22T14:45:47.288Z</time></trkpt><trkpt lat="39.2066467" lon="8.5813333"><ele>378.0</ele><time>2026-04-22T14:45:48.288Z</time></trkpt><trkpt lat="39.206625" lon="8.5814833"><ele>378.59999999999997</ele><time>2026-04-22T14:45:49.288Z</time></trkpt><trkpt lat="39.2066083" lon="8.58163"><ele>379.2</ele><time>2026-04-22T14:45:50.288Z</time></trkpt><trkpt lat="39.2066017" lon="8.5817533"><ele>379.8</ele><time>2026-04-22T14:45:51.288Z</time></trkpt><trkpt lat="39.2065933" lon="8.5819333"><ele>380.4</ele><time>2026-04-22T14:45:53.288Z</time></trkpt><trkpt lat="39.2065917" lon="8.5820183"><ele>381.0</ele><time>2026-04-22T14:45:54.287Z</time></trkpt><trkpt lat="39.2065833" lon="8.5821167"><ele>381.0</ele><time>2026-04-22T14:45:55.288Z</time></trkpt><trkpt lat="39.20656" lon="8.5822267"><ele>381.0</ele><time>2026-04-22T14:45:56.288Z</time></trkpt><trkpt lat="39.2065367" lon="8.5823283"><ele>381.0</ele><time>2026-04-22T14:45:57.287Z</time></trkpt><trkpt lat="39.206515" lon="8.58243"><ele>381.0</ele><time>2026-04-22T14:45:58.288Z</time></trkpt><trkpt lat="39.2064917" lon="8.582535"><ele>381.0</ele><time>2026-04-22T14:45:59.287Z</time></trkpt><trkpt lat="39.2064783" lon="8.5826617"><ele>381.0</ele><time>2026-04-22T14:46:00.287Z</time></trkpt><trkpt lat="39.2064717" lon="8.582795"><ele>379.8333333333333</ele><time>2026-04-22T14:46:01.288Z</time></trkpt><trkpt lat="39.2064667" lon="8.58292"><ele>378.6666666666667</ele><time>2026-04-22T14:46:02.288Z</time></trkpt><trkpt lat="39.2064567" lon="8.583035"><ele>377.5</ele><time>2026-04-22T14:46:03.288Z</time></trkpt><trkpt lat="39.20645" lon="8.5831383"><ele>376.33333333333337</ele><time>2026-04-22T14:46:04.288Z</time></trkpt><trkpt lat="39.20644" lon="8.583235"><ele>375.1666666666667</ele><time>2026-04-22T14:46:05.288Z</time></trkpt><trkpt lat="39.2064267" lon="8.5833317"><ele>374.0</ele><time>2026-04-22T14:46:06.288Z</time></trkpt><trkpt lat="39.2063967" lon="8.583415"><ele>374.0</ele><time>2026-04-22T14:46:07.288Z</time></trkpt><trkpt lat="39.2063533" lon="8.5834867"><ele>374.0</ele><time>2026-04-22T14:46:08.288Z</time></trkpt><trkpt lat="39.20625" lon="8.58359"><ele>374.0</ele><time>2026-04-22T14:46:10.288Z</time></trkpt><trkpt lat="39.206195" lon="8.58363"><ele>374.0</ele><time>2026-04-22T14:46:11.288Z</time></trkpt><trkpt lat="39.2061233" lon="8.5837317"><ele>374.0</ele><time>2026-04-22T14:46:13.287Z</time></trkpt><trkpt lat="39.2060367" lon="8.5838633"><ele>374.0</ele><time>2026-04-22T14:46:15.287Z</time></trkpt><trkpt lat="39.2059833" lon="8.5839283"><ele>374.0</ele><time>2026-04-22T14:46:16.288Z</time></trkpt><trkpt lat="39.2059333" lon="8.584005"><ele>374.0</ele><time>2026-04-22T14:46:17.287Z</time></trkpt><trkpt lat="39.2058983" lon="8.58408"><ele>374.0</ele><time>2026-04-22T14:46:18.287Z</time></trkpt><trkpt lat="39.2058583" lon="8.5842233"><ele>374.0</ele><time>2026-04-22T14:46:20.288Z</time></trkpt><trkpt lat="39.205815" lon="8.5843583"><ele>374.0</ele><time>2026-04-22T14:46:22.288Z</time></trkpt><trkpt lat="39.2057567" lon="8.584465"><ele>374.0</ele><time>2026-04-22T14:46:24.287Z</time></trkpt><trkpt lat="39.2057217" lon="8.584545"><ele>374.0</ele><time>2026-04-22T14:46:26.288Z</time></trkpt><trkpt lat="39.2056783" lon="8.5846333"><ele>374.0</ele><time>2026-04-22T14:46:30.288Z</time></trkpt><trkpt lat="39.20565" lon="8.5847183"><ele>374.0</ele><time>2026-04-22T14:47:39.288Z</time></trkpt><trkpt lat="39.2055483" lon="8.5849083"><ele>373.7142857142857</ele><time>2026-04-22T14:47:42.288Z</time></trkpt><trkpt lat="39.2055" lon="8.5849717"><ele>373.42857142857144</ele><time>2026-04-22T14:47:43.288Z</time></trkpt><trkpt lat="39.2054483" lon="8.5850333"><ele>373.14285714285717</ele><time>2026-04-22T14:47:44.287Z</time></trkpt><trkpt lat="39.2053883" lon="8.5851033"><ele>372.8571428571429</ele><time>2026-04-22T14:47:45.288Z</time></trkpt><trkpt lat="39.205325" lon="8.5851683"><ele>372.57142857142856</ele><time>2026-04-22T14:47:46.288Z</time></trkpt><trkpt lat="39.2052667" lon="8.585225"><ele>372.28571428571433</ele><time>2026-04-22T14:47:47.288Z</time></trkpt><trkpt lat="39.2052167" lon="8.585285"><ele>372.0</ele><time>2026-04-22T14:47:48.288Z</time></trkpt><trkpt lat="39.2051667" lon="8.5853383"><ele>368.75</ele><time>2026-04-22T14:47:49.287Z</time></trkpt><trkpt lat="39.2050717" lon="8.5854333"><ele>365.5</ele><time>2026-04-22T14:47:51.288Z</time></trkpt><trkpt lat="39.204985" lon="8.5855167"><ele>362.25</ele><time>2026-04-22T14:47:53.288Z</time></trkpt><trkpt lat="39.20489" lon="8.5856067"><ele>359.0</ele><time>2026-04-22T14:47:55.287Z</time></trkpt><trkpt lat="39.204785" lon="8.5856717"><ele>359.0</ele><time>2026-04-22T14:47:57.288Z</time></trkpt><trkpt lat="39.20468" lon="8.5856967"><ele>359.0</ele><time>2026-04-22T14:47:59.288Z</time></trkpt><trkpt lat="39.204515" lon="8.585875"><ele>359.0</ele><time>2026-04-22T14:48:03.287Z</time></trkpt><trkpt lat="39.2043533" lon="8.5860617"><ele>359.0</ele><time>2026-04-22T14:48:07.288Z</time></trkpt><trkpt lat="39.204295" lon="8.586155"><ele>359.0</ele><time>2026-04-22T14:48:09.287Z</time></trkpt><trkpt lat="39.2043317" lon="8.5862367"><ele>359.0</ele><time>2026-04-22T14:48:11.288Z</time></trkpt><trkpt lat="39.20446" lon="8.586295"><ele>359.0</ele><time>2026-04-22T14:48:14.288Z</time></trkpt><trkpt lat="39.2045417" lon="8.5862933"><ele>359.0</ele><time>2026-04-22T14:48:16.287Z</time></trkpt><trkpt lat="39.20464" lon="8.5863167"><ele>355.79999999999995</ele><time>2026-04-22T14:48:18.288Z</time></trkpt><trkpt lat="39.20476" lon="8.5863633"><ele>352.59999999999997</ele><time>2026-04-22T14:48:20.287Z</time></trkpt><trkpt lat="39.2048217" lon="8.5863883"><ele>349.4</ele><time>2026-04-22T14:48:21.288Z</time></trkpt><trkpt lat="39.204885" lon="8.5864117"><ele>346.2</ele><time>2026-04-22T14:48:22.287Z</time></trkpt><trkpt lat="39.2050433" lon="8.58646"><ele>343.0</ele><time>2026-04-22T14:48:25.288Z</time></trkpt><trkpt lat="39.2052117" lon="8.5866117"><ele>343.0</ele><time>2026-04-22T14:48:29.287Z</time></trkpt><trkpt lat="39.2052883" lon="8.5866933"><ele>343.0</ele><time>2026-04-22T14:48:31.288Z</time></trkpt><trkpt lat="39.2053467" lon="8.5867733"><ele>343.0</ele><time>2026-04-22T14:48:33.288Z</time></trkpt><trkpt lat="39.2053733" lon="8.58686"><ele>343.0</ele><time>2026-04-22T14:48:35.287Z</time></trkpt><trkpt lat="39.2053383" lon="8.586965"><ele>343.0</ele><time>2026-04-22T14:48:37.288Z</time></trkpt><trkpt lat="39.2052933" lon="8.5870483"><ele>343.0</ele><time>2026-04-22T14:48:39.288Z</time></trkpt><trkpt lat="39.2052517" lon="8.5871583"><ele>343.0</ele><time>2026-04-22T14:48:41.287Z</time></trkpt><trkpt lat="39.2052" lon="8.5872833"><ele>343.0</ele><time>2026-04-22T14:48:43.288Z</time></trkpt><trkpt lat="39.2051567" lon="8.58735"><ele>343.0</ele><time>2026-04-22T14:48:44.288Z</time></trkpt><trkpt lat="39.2051083" lon="8.58742"><ele>343.0</ele><time>2026-04-22T14:48:45.288Z</time></trkpt><trkpt lat="39.2050517" lon="8.5875017"><ele>343.0</ele><time>2026-04-22T14:48:46.287Z</time></trkpt><trkpt lat="39.2049667" lon="8.5876933"><ele>343.0</ele><time>2026-04-22T14:48:48.288Z</time></trkpt><trkpt lat="39.2049317" lon="8.587795"><ele>343.0</ele><time>2026-04-22T14:48:49.288Z</time></trkpt><trkpt lat="39.2049" lon="8.587885"><ele>343.0</ele><time>2026-04-22T14:48:50.287Z</time></trkpt><trkpt lat="39.2048767" lon="8.587985"><ele>343.0</ele><time>2026-04-22T14:48:51.288Z</time></trkpt><trkpt lat="39.2048483" lon="8.5880717"><ele>343.0</ele><time>2026-04-22T14:48:52.287Z</time></trkpt><trkpt lat="39.2048333" lon="8.5881533"><ele>343.0</ele><time>2026-04-22T14:48:53.288Z</time></trkpt><trkpt lat="39.2048333" lon="8.5882483"><ele>344.0</ele><time>2026-04-22T14:48:54.288Z</time></trkpt><trkpt lat="39.2048267" lon="8.5883483"><ele>345.0</ele><time>2026-04-22T14:48:55.288Z</time></trkpt><trkpt lat="39.2048183" lon="8.58845"><ele>346.0</ele><time>2026-04-22T14:48:56.288Z</time></trkpt><trkpt lat="39.2048183" lon="8.5885467"><ele>347.0</ele><time>2026-04-22T14:48:57.288Z</time></trkpt><trkpt lat="39.2048217" lon="8.5886417"><ele>348.0</ele><time>2026-04-22T14:48:58.288Z</time></trkpt><trkpt lat="39.2048333" lon="8.58873"><ele>349.0</ele><time>2026-04-22T14:48:59.288Z</time></trkpt><trkpt lat="39.20484" lon="8.5888183"><ele>350.0</ele><time>2026-04-22T14:49:00.288Z</time></trkpt><trkpt lat="39.2048317" lon="8.58891"><ele>351.42857142857144</ele><time>2026-04-22T14:49:01.288Z</time></trkpt><trkpt lat="39.2048233" lon="8.5890083"><ele>352.8571428571429</ele><time>2026-04-22T14:49:02.288Z</time></trkpt><trkpt lat="39.2048217" lon="8.5891017"><ele>354.2857142857143</ele><time>2026-04-22T14:49:03.288Z</time></trkpt><trkpt lat="39.20482" lon="8.5891933"><ele>355.7142857142857</ele><time>2026-04-22T14:49:04.287Z</time></trkpt><trkpt lat="39.2048067" lon="8.5892867"><ele>357.14285714285717</ele><time>2026-04-22T14:49:05.288Z</time></trkpt><trkpt lat="39.2047967" lon="8.589385"><ele>358.57142857142856</ele><time>2026-04-22T14:49:06.288Z</time></trkpt><trkpt lat="39.20478" lon="8.5894783"><ele>360.0</ele><time>2026-04-22T14:49:07.288Z</time></trkpt><trkpt lat="39.2047283" lon="8.5896567"><ele>360.7142857142857</ele><time>2026-04-22T14:49:09.288Z</time></trkpt><trkpt lat="39.2047033" lon="8.58974"><ele>361.42857142857144</ele><time>2026-04-22T14:49:10.287Z</time></trkpt><trkpt lat="39.2046783" lon="8.5898167"><ele>362.14285714285717</ele><time>2026-04-22T14:49:11.287Z</time></trkpt><trkpt lat="39.2046517" lon="8.5898983"><ele>362.8571428571429</ele><time>2026-04-22T14:49:12.288Z</time></trkpt><trkpt lat="39.2046233" lon="8.5899783"><ele>363.57142857142856</ele><time>2026-04-22T14:49:13.287Z</time></trkpt><trkpt lat="39.2045833" lon="8.5900617"><ele>364.28571428571433</ele><time>2026-04-22T14:49:14.288Z</time></trkpt><trkpt lat="39.2045433" lon="8.5901483"><ele>365.0</ele><time>2026-04-22T14:49:15.287Z</time></trkpt><trkpt lat="39.2045083" lon="8.590245"><ele>365.5</ele><time>2026-04-22T14:49:16.288Z</time></trkpt><trkpt lat="39.2044683" lon="8.59035"><ele>366.0</ele><time>2026-04-22T14:49:17.288Z</time></trkpt><trkpt lat="39.2044317" lon="8.5904433"><ele>366.5</ele><time>2026-04-22T14:49:18.288Z</time></trkpt><trkpt lat="39.204395" lon="8.59055"><ele>367.0</ele><time>2026-04-22T14:49:19.287Z</time></trkpt><trkpt lat="39.2043533" lon="8.590665"><ele>367.5</ele><time>2026-04-22T14:49:20.288Z</time></trkpt><trkpt lat="39.2043167" lon="8.5907683"><ele>368.0</ele><time>2026-04-22T14:49:21.288Z</time></trkpt><trkpt lat="39.20428" lon="8.590855"><ele>368.0</ele><time>2026-04-22T14:49:22.288Z</time></trkpt><trkpt lat="39.20425" lon="8.59094"><ele>368.0</ele><time>2026-04-22T14:49:23.288Z</time></trkpt><trkpt lat="39.2042267" lon="8.5910217"><ele>368.0</ele><time>2026-04-22T14:49:24.288Z</time></trkpt><trkpt lat="39.2042033" lon="8.5911083"><ele>368.0</ele><time>2026-04-22T14:49:25.288Z</time></trkpt><trkpt lat="39.2041717" lon="8.5911883"><ele>368.0</ele><time>2026-04-22T14:49:26.287Z</time></trkpt><trkpt lat="39.2041333" lon="8.591265"><ele>368.0</ele><time>2026-04-22T14:49:27.287Z</time></trkpt><trkpt lat="39.20404" lon="8.591385"><ele>367.79999999999995</ele><time>2026-04-22T14:49:29.287Z</time></trkpt><trkpt lat="39.2039467" lon="8.5915083"><ele>367.6</ele><time>2026-04-22T14:49:31.287Z</time></trkpt><trkpt lat="39.20389" lon="8.5916417"><ele>367.4</ele><time>2026-04-22T14:49:33.288Z</time></trkpt><trkpt lat="39.2038767" lon="8.5917233"><ele>367.20000000000005</ele><time>2026-04-22T14:49:34.288Z</time></trkpt><trkpt lat="39.2038567" lon="8.5918667"><ele>367.0</ele><time>2026-04-22T14:49:36.288Z</time></trkpt><trkpt lat="39.2037933" lon="8.5919967"><ele>366.0</ele><time>2026-04-22T14:49:38.287Z</time></trkpt><trkpt lat="39.2037367" lon="8.592065"><ele>365.0</ele><time>2026-04-22T14:49:39.288Z</time></trkpt><trkpt lat="39.2036717" lon="8.5921317"><ele>364.0</ele><time>2026-04-22T14:49:40.287Z</time></trkpt><trkpt lat="39.2036117" lon="8.5922083"><ele>363.0</ele><time>2026-04-22T14:49:41.287Z</time></trkpt><trkpt lat="39.203555" lon="8.59229"><ele>362.0</ele><time>2026-04-22T14:49:42.288Z</time></trkpt><trkpt lat="39.2035083" lon="8.5923667"><ele>361.0</ele><time>2026-04-22T14:49:43.288Z</time></trkpt><trkpt lat="39.20347" lon="8.59244"><ele>361.0</ele><time>2026-04-22T14:49:44.288Z</time></trkpt><trkpt lat="39.2033917" lon="8.5925467"><ele>361.0</ele><time>2026-04-22T14:49:46.287Z</time></trkpt><trkpt lat="39.20332" lon="8.592635"><ele>361.0</ele><time>2026-04-22T14:49:48.288Z</time></trkpt><trkpt lat="39.2032417" lon="8.592695"><ele>361.0</ele><time>2026-04-22T14:49:50.286Z</time></trkpt><trkpt lat="39.2031433" lon="8.59281"><ele>361.0</ele><time>2026-04-22T14:49:52.287Z</time></trkpt><trkpt lat="39.2030933" lon="8.59286"><ele>360.0</ele><time>2026-04-22T14:49:53.286Z</time></trkpt><trkpt lat="39.203045" lon="8.5929183"><ele>359.0</ele><time>2026-04-22T14:49:55.286Z</time></trkpt><trkpt lat="39.2029767" lon="8.5930083"><ele>358.0</ele><time>2026-04-22T14:49:58.287Z</time></trkpt><trkpt lat="39.20292" lon="8.59307"><ele>357.0</ele><time>2026-04-22T14:50:01.286Z</time></trkpt><trkpt lat="39.202855" lon="8.5931267"><ele>356.0</ele><time>2026-04-22T14:50:07.287Z</time></trkpt><trkpt lat="39.2028083" lon="8.5932067"><ele>355.0</ele><time>2026-04-22T14:50:10.287Z</time></trkpt><trkpt lat="39.2028583" lon="8.5931117"><ele>355.0</ele><time>2026-04-22T14:50:39.287Z</time></trkpt><trkpt lat="39.203005" lon="8.592985"><ele>355.0</ele><time>2026-04-22T14:50:51.286Z</time></trkpt><trkpt lat="39.2030733" lon="8.5928967"><ele>355.0</ele><time>2026-04-22T14:50:53.286Z</time></trkpt><trkpt lat="39.2031533" lon="8.5928"><ele>355.0</ele><time>2026-04-22T14:50:55.287Z</time></trkpt><trkpt lat="39.203225" lon="8.5927067"><ele>356.2</ele><time>2026-04-22T14:50:57.286Z</time></trkpt><trkpt lat="39.203285" lon="8.59266"><ele>357.4</ele><time>2026-04-22T14:50:59.286Z</time></trkpt><trkpt lat="39.203375" lon="8.59255"><ele>358.6</ele><time>2026-04-22T14:51:03.286Z</time></trkpt><trkpt lat="39.2034667" lon="8.59241"><ele>359.8</ele><time>2026-04-22T14:51:09.287Z</time></trkpt><trkpt lat="39.203505" lon="8.5923283"><ele>361.0</ele><time>2026-04-22T14:51:11.287Z</time></trkpt><trkpt lat="39.2035567" lon="8.5922683"><ele>361.0</ele><time>2026-04-22T14:51:13.287Z</time></trkpt><trkpt lat="39.2036167" lon="8.59222"><ele>361.0</ele><time>2026-04-22T14:51:16.287Z</time></trkpt><trkpt lat="39.20368" lon="8.5922317"><ele>361.0</ele><time>2026-04-22T14:51:20.287Z</time></trkpt><trkpt lat="39.2037367" lon="8.5922883"><ele>361.0</ele><time>2026-04-22T14:51:23.286Z</time></trkpt><trkpt lat="39.2037433" lon="8.59239"><ele>361.0</ele><time>2026-04-22T14:51:26.286Z</time></trkpt><trkpt lat="39.2036867" lon="8.592545"><ele>361.0</ele><time>2026-04-22T14:51:30.286Z</time></trkpt><trkpt lat="39.2036567" lon="8.5926317"><ele>361.0</ele><time>2026-04-22T14:51:32.287Z</time></trkpt><trkpt lat="39.2036283" lon="8.5927417"><ele>361.0</ele><time>2026-04-22T14:51:34.287Z</time></trkpt><trkpt lat="39.2035867" lon="8.5928283"><ele>361.0</ele><time>2026-04-22T14:51:36.287Z</time></trkpt><trkpt lat="39.203555" lon="8.5929333"><ele>361.0</ele><time>2026-04-22T14:51:38.286Z</time></trkpt><trkpt lat="39.2035017" lon="8.59306"><ele>361.0</ele><time>2026-04-22T14:51:40.287Z</time></trkpt><trkpt lat="39.2034617" lon="8.5931233"><ele>361.0</ele><time>2026-04-22T14:51:41.287Z</time></trkpt><trkpt lat="39.2034" lon="8.5932167"><ele>358.0</ele><time>2026-04-22T14:51:43.287Z</time></trkpt><trkpt lat="39.2033467" lon="8.5932983"><ele>355.0</ele><time>2026-04-22T14:51:45.287Z</time></trkpt><trkpt lat="39.2032967" lon="8.5934133"><ele>352.0</ele><time>2026-04-22T14:52:37.287Z</time></trkpt><trkpt lat="39.2031817" lon="8.5935933"><ele>349.0</ele><time>2026-04-22T14:52:40.286Z</time></trkpt><trkpt lat="39.2031133" lon="8.5936883"><ele>347.6</ele><time>2026-04-22T14:52:42.287Z</time></trkpt><trkpt lat="39.2030333" lon="8.59378"><ele>346.2</ele><time>2026-04-22T14:52:44.286Z</time></trkpt><trkpt lat="39.2029633" lon="8.5938717"><ele>344.8</ele><time>2026-04-22T14:52:46.287Z</time></trkpt><trkpt lat="39.2029" lon="8.5939633"><ele>343.40000000000003</ele><time>2026-04-22T14:52:48.286Z</time></trkpt><trkpt lat="39.2028683" lon="8.594085"><ele>342.0</ele><time>2026-04-22T14:52:50.287Z</time></trkpt><trkpt lat="39.202825" lon="8.5941767"><ele>342.0</ele><time>2026-04-22T14:52:52.286Z</time></trkpt><trkpt lat="39.202765" lon="8.5942417"><ele>342.0</ele><time>2026-04-22T14:52:54.287Z</time></trkpt><trkpt lat="39.2027217" lon="8.59433"><ele>342.0</ele><time>2026-04-22T14:52:56.287Z</time></trkpt><trkpt lat="39.2027167" lon="8.5944633"><ele>342.0</ele><time>2026-04-22T14:52:58.287Z</time></trkpt><trkpt lat="39.2026867" lon="8.5946967"><ele>342.0</ele><time>2026-04-22T14:53:02.287Z</time></trkpt><trkpt lat="39.20265" lon="8.5948283"><ele>340.8</ele><time>2026-04-22T14:53:04.287Z</time></trkpt><trkpt lat="39.2026133" lon="8.5949533"><ele>339.6</ele><time>2026-04-22T14:53:06.286Z</time></trkpt><trkpt lat="39.2025583" lon="8.5950783"><ele>338.40000000000003</ele><time>2026-04-22T14:53:08.286Z</time></trkpt><trkpt lat="39.2025133" lon="8.5951883"><ele>337.20000000000005</ele><time>2026-04-22T14:53:10.287Z</time></trkpt><trkpt lat="39.2025" lon="8.5952883"><ele>336.0</ele><time>2026-04-22T14:53:12.286Z</time></trkpt><trkpt lat="39.202485" lon="8.595415"><ele>334.25</ele><time>2026-04-22T14:53:14.287Z</time></trkpt><trkpt lat="39.20243" lon="8.5955483"><ele>332.5</ele><time>2026-04-22T14:53:16.287Z</time></trkpt><trkpt lat="39.2024167" lon="8.59569"><ele>330.75</ele><time>2026-04-22T14:53:18.286Z</time></trkpt><trkpt lat="39.2024083" lon="8.5958333"><ele>329.0</ele><time>2026-04-22T14:53:20.287Z</time></trkpt><trkpt lat="39.2023517" lon="8.5960533"><ele>327.4</ele><time>2026-04-22T14:53:23.287Z</time></trkpt><trkpt lat="39.202345" lon="8.5961917"><ele>325.79999999999995</ele><time>2026-04-22T14:53:25.287Z</time></trkpt><trkpt lat="39.2023467" lon="8.5963417"><ele>324.20000000000005</ele><time>2026-04-22T14:53:27.287Z</time></trkpt><trkpt lat="39.2023467" lon="8.59647"><ele>322.6</ele><time>2026-04-22T14:53:29.287Z</time></trkpt><trkpt lat="39.2023117" lon="8.5965883"><ele>321.0</ele><time>2026-04-22T14:53:31.287Z</time></trkpt><trkpt lat="39.202265" lon="8.59669"><ele>321.0</ele><time>2026-04-22T14:53:33.287Z</time></trkpt><trkpt lat="39.202245" lon="8.5967967"><ele>321.0</ele><time>2026-04-22T14:53:35.287Z</time></trkpt><trkpt lat="39.2022717" lon="8.5968983"><ele>321.0</ele><time>2026-04-22T14:53:37.287Z</time></trkpt><trkpt lat="39.2023133" lon="8.5970017"><ele>321.0</ele><time>2026-04-22T14:53:39.287Z</time></trkpt><trkpt lat="39.2023517" lon="8.5970833"><ele>321.0</ele><time>2026-04-22T14:53:41.287Z</time></trkpt><trkpt lat="39.2024733" lon="8.5971533"><ele>320.5</ele><time>2026-04-22T14:53:45.287Z</time></trkpt><trkpt lat="39.2025617" lon="8.5972183"><ele>320.0</ele><time>2026-04-22T14:53:48.287Z</time></trkpt><trkpt lat="39.2026133" lon="8.5972717"><ele>319.5</ele><time>2026-04-22T14:53:50.286Z</time></trkpt><trkpt lat="39.20269" lon="8.5973483"><ele>319.0</ele><time>2026-04-22T14:53:53.287Z</time></trkpt><trkpt lat="39.2027517" lon="8.5973983"><ele>318.5</ele><time>2026-04-22T14:53:55.286Z</time></trkpt><trkpt lat="39.2028133" lon="8.5974417"><ele>318.0</ele><time>2026-04-22T14:53:57.287Z</time></trkpt><trkpt lat="39.2029083" lon="8.597485"><ele>318.0</ele><time>2026-04-22T14:54:00.287Z</time></trkpt><trkpt lat="39.202995" lon="8.59755"><ele>318.0</ele><time>2026-04-22T14:54:02.286Z</time></trkpt><trkpt lat="39.2031483" lon="8.5976333"><ele>318.0</ele><time>2026-04-22T14:54:06.287Z</time></trkpt><trkpt lat="39.203215" lon="8.5976867"><ele>318.0</ele><time>2026-04-22T14:54:08.286Z</time></trkpt><trkpt lat="39.2033083" lon="8.5977183"><ele>318.0</ele><time>2026-04-22T14:54:10.287Z</time></trkpt><trkpt lat="39.20339" lon="8.597735"><ele>318.2</ele><time>2026-04-22T14:54:12.287Z</time></trkpt><trkpt lat="39.20346" lon="8.59777"><ele>318.4</ele><time>2026-04-22T14:54:14.287Z</time></trkpt><trkpt lat="39.2035033" lon="8.5978617"><ele>318.59999999999997</ele><time>2026-04-22T14:54:17.287Z</time></trkpt><trkpt lat="39.2034867" lon="8.5979717"><ele>318.8</ele><time>2026-04-22T14:54:20.287Z</time></trkpt><trkpt lat="39.2034867" lon="8.598075"><ele>319.0</ele><time>2026-04-22T14:54:23.287Z</time></trkpt><trkpt lat="39.2035417" lon="8.5982617"><ele>318.2</ele><time>2026-04-22T14:54:30.287Z</time></trkpt><trkpt lat="39.20357" lon="8.598375"><ele>317.4</ele><time>2026-04-22T14:54:32.286Z</time></trkpt><trkpt lat="39.2035967" lon="8.5984583"><ele>316.6</ele><time>2026-04-22T14:54:34.287Z</time></trkpt><trkpt lat="39.2036683" lon="8.59855"><ele>315.8</ele><time>2026-04-22T14:54:36.287Z</time></trkpt><trkpt lat="39.2037717" lon="8.5986283"><ele>315.0</ele><time>2026-04-22T14:54:38.287Z</time></trkpt><trkpt lat="39.2038317" lon="8.59867"><ele>315.8</ele><time>2026-04-22T14:54:39.287Z</time></trkpt><trkpt lat="39.2038933" lon="8.5987167"><ele>316.6</ele><time>2026-04-22T14:54:40.287Z</time></trkpt><trkpt lat="39.2039433" lon="8.59877"><ele>317.4</ele><time>2026-04-22T14:54:41.286Z</time></trkpt><trkpt lat="39.2040133" lon="8.5988383"><ele>318.2</ele><time>2026-04-22T14:54:43.286Z</time></trkpt><trkpt lat="39.2040617" lon="8.5988983"><ele>319.0</ele><time>2026-04-22T14:55:13.287Z</time></trkpt><trkpt lat="39.2042083" lon="8.599095"><ele>319.0</ele><time>2026-04-22T14:55:17.286Z</time></trkpt><trkpt lat="39.20427" lon="8.599145"><ele>319.0</ele><time>2026-04-22T14:55:18.287Z</time></trkpt><trkpt lat="39.204335" lon="8.599205"><ele>319.0</ele><time>2026-04-22T14:55:19.286Z</time></trkpt><trkpt lat="39.2043933" lon="8.5992683"><ele>319.0</ele><time>2026-04-22T14:55:20.287Z</time></trkpt><trkpt lat="39.2044367" lon="8.599395"><ele>319.0</ele><time>2026-04-22T14:55:22.286Z</time></trkpt><trkpt lat="39.2043733" lon="8.59949"><ele>319.0</ele><time>2026-04-22T14:55:24.287Z</time></trkpt><trkpt lat="39.20429" lon="8.599515"><ele>321.3333333333333</ele><time>2026-04-22T14:55:25.287Z</time></trkpt><trkpt lat="39.2041833" lon="8.5995183"><ele>323.66666666666663</ele><time>2026-04-22T14:55:26.287Z</time></trkpt><trkpt lat="39.204085" lon="8.5995233"><ele>326.0</ele><time>2026-04-22T14:55:27.287Z</time></trkpt><trkpt lat="39.204015" lon="8.59952"><ele>328.3333333333333</ele><time>2026-04-22T14:55:28.287Z</time></trkpt><trkpt lat="39.203945" lon="8.59953"><ele>330.6666666666667</ele><time>2026-04-22T14:55:29.286Z</time></trkpt><trkpt lat="39.2038833" lon="8.5995617"><ele>333.0</ele><time>2026-04-22T14:55:30.286Z</time></trkpt><trkpt lat="39.2038033" lon="8.5996833"><ele>333.0</ele><time>2026-04-22T14:55:32.286Z</time></trkpt><trkpt lat="39.20377" lon="8.5997967"><ele>333.0</ele><time>2026-04-22T14:55:33.286Z</time></trkpt><trkpt lat="39.2037283" lon="8.5999117"><ele>333.0</ele><time>2026-04-22T14:55:34.287Z</time></trkpt><trkpt lat="39.203605" lon="8.6000567"><ele>333.0</ele><time>2026-04-22T14:55:37.286Z</time></trkpt><trkpt lat="39.20348" lon="8.599985"><ele>333.0</ele><time>2026-04-22T14:55:39.287Z</time></trkpt><trkpt lat="39.2034067" lon="8.599935"><ele>333.0</ele><time>2026-04-22T14:55:40.287Z</time></trkpt><trkpt lat="39.2033417" lon="8.5999033"><ele>333.0</ele><time>2026-04-22T14:55:41.287Z</time></trkpt><trkpt lat="39.2032783" lon="8.599895"><ele>333.0</ele><time>2026-04-22T14:55:42.286Z</time></trkpt><trkpt lat="39.2032067" lon="8.5998933"><ele>333.0</ele><time>2026-04-22T14:55:43.286Z</time></trkpt><trkpt lat="39.20313" lon="8.5998967"><ele>333.0</ele><time>2026-04-22T14:55:44.287Z</time></trkpt><trkpt lat="39.2030483" lon="8.5999083"><ele>333.0</ele><time>2026-04-22T14:55:45.286Z</time></trkpt><trkpt lat="39.2029617" lon="8.5999217"><ele>333.8333333333333</ele><time>2026-04-22T14:55:46.287Z</time></trkpt><trkpt lat="39.2028733" lon="8.5999233"><ele>334.6666666666667</ele><time>2026-04-22T14:55:47.287Z</time></trkpt><trkpt lat="39.202795" lon="8.5999217"><ele>335.5</ele><time>2026-04-22T14:55:48.287Z</time></trkpt><trkpt lat="39.20273" lon="8.599935"><ele>336.33333333333337</ele><time>2026-04-22T14:55:49.287Z</time></trkpt><trkpt lat="39.20265" lon="8.60001"><ele>337.1666666666667</ele><time>2026-04-22T14:55:52.287Z</time></trkpt><trkpt lat="39.2025883" lon="8.60007"><ele>338.0</ele><time>2026-04-22T14:55:54.286Z</time></trkpt><trkpt lat="39.2025067" lon="8.6001517"><ele>335.75</ele><time>2026-04-22T14:55:56.287Z</time></trkpt><trkpt lat="39.2024033" lon="8.6003383"><ele>333.5</ele><time>2026-04-22T14:56:00.286Z</time></trkpt><trkpt lat="39.2023533" lon="8.6004567"><ele>331.25</ele><time>2026-04-22T14:56:02.286Z</time></trkpt><trkpt lat="39.2023183" lon="8.6005833"><ele>329.0</ele><time>2026-04-22T14:56:04.286Z</time></trkpt><trkpt lat="39.20229" lon="8.6007067"><ele>329.0</ele><time>2026-04-22T14:56:06.287Z</time></trkpt><trkpt lat="39.2023" lon="8.6008183"><ele>329.0</ele><time>2026-04-22T14:56:08.287Z</time></trkpt><trkpt lat="39.2023367" lon="8.600925"><ele>329.0</ele><time>2026-04-22T14:56:10.287Z</time></trkpt><trkpt lat="39.2023467" lon="8.6010283"><ele>329.0</ele><time>2026-04-22T14:56:12.287Z</time></trkpt><trkpt lat="39.2022833" lon="8.6010967"><ele>329.0</ele><time>2026-04-22T14:56:14.286Z</time></trkpt><trkpt lat="39.20219" lon="8.6011383"><ele>329.0</ele><time>2026-04-22T14:56:16.287Z</time></trkpt><trkpt lat="39.2020767" lon="8.60121"><ele>325.0</ele><time>2026-04-22T14:56:18.287Z</time></trkpt><trkpt lat="39.2019717" lon="8.6013117"><ele>321.0</ele><time>2026-04-22T14:56:20.286Z</time></trkpt><trkpt lat="39.20192" lon="8.60137"><ele>317.0</ele><time>2026-04-22T14:56:21.287Z</time></trkpt><trkpt lat="39.2018783" lon="8.60144"><ele>313.0</ele><time>2026-04-22T14:56:22.287Z</time></trkpt><trkpt lat="39.201805" lon="8.6015467"><ele>309.0</ele><time>2026-04-22T14:56:24.286Z</time></trkpt><trkpt lat="39.20171" lon="8.601655"><ele>309.00000000000006</ele><time>2026-04-22T14:56:26.287Z</time></trkpt><trkpt lat="39.2016633" lon="8.601715"><ele>309.0</ele><time>2026-04-22T14:56:27.287Z</time></trkpt><trkpt lat="39.201615" lon="8.6017817"><ele>309.0</ele><time>2026-04-22T14:56:28.287Z</time></trkpt><trkpt lat="39.2015583" lon="8.6018417"><ele>309.0</ele><time>2026-04-22T14:56:29.287Z</time></trkpt><trkpt lat="39.201505" lon="8.60189"><ele>309.0</ele><time>2026-04-22T14:56:30.286Z</time></trkpt><trkpt lat="39.2014533" lon="8.6019517"><ele>309.00000000000006</ele><time>2026-04-22T14:56:31.287Z</time></trkpt><trkpt lat="39.2014" lon="8.6020233"><ele>309.0</ele><time>2026-04-22T14:56:32.287Z</time></trkpt><trkpt lat="39.201345" lon="8.6021017"><ele>308.5714285714286</ele><time>2026-04-22T14:56:33.287Z</time></trkpt><trkpt lat="39.2012933" lon="8.6021817"><ele>308.14285714285717</ele><time>2026-04-22T14:56:34.287Z</time></trkpt><trkpt lat="39.2012533" lon="8.60225"><ele>307.7142857142857</ele><time>2026-04-22T14:56:35.287Z</time></trkpt><trkpt lat="39.201215" lon="8.6023233"><ele>307.28571428571433</ele><time>2026-04-22T14:56:36.287Z</time></trkpt><trkpt lat="39.201175" lon="8.6024"><ele>306.8571428571429</ele><time>2026-04-22T14:56:37.286Z</time></trkpt><trkpt lat="39.2011317" lon="8.6024667"><ele>306.42857142857144</ele><time>2026-04-22T14:56:38.287Z</time></trkpt><trkpt lat="39.2010883" lon="8.6025283"><ele>306.0</ele><time>2026-04-22T14:56:39.286Z</time></trkpt><trkpt lat="39.2009717" lon="8.6027617"><ele>303.5</ele><time>2026-04-22T14:56:43.285Z</time></trkpt><trkpt lat="39.2009283" lon="8.6028883"><ele>301.0</ele><time>2026-04-22T14:56:45.286Z</time></trkpt><trkpt lat="39.20088" lon="8.6030267"><ele>298.5</ele><time>2026-04-22T14:56:47.286Z</time></trkpt><trkpt lat="39.2008067" lon="8.60314"><ele>296.0</ele><time>2026-04-22T14:56:49.285Z</time></trkpt><trkpt lat="39.20071" lon="8.6032233"><ele>295.0</ele><time>2026-04-22T14:56:51.285Z</time></trkpt><trkpt lat="39.2006167" lon="8.6033133"><ele>294.0</ele><time>2026-04-22T14:56:53.285Z</time></trkpt><trkpt lat="39.20055" lon="8.6034033"><ele>293.0</ele><time>2026-04-22T14:56:55.286Z</time></trkpt><trkpt lat="39.2004867" lon="8.6035283"><ele>292.0</ele><time>2026-04-22T14:56:57.286Z</time></trkpt><trkpt lat="39.2004567" lon="8.6036033"><ele>291.0</ele><time>2026-04-22T14:56:58.286Z</time></trkpt><trkpt lat="39.20042" lon="8.6037333"><ele>291.0</ele><time>2026-04-22T14:57:00.285Z</time></trkpt><trkpt lat="39.2003433" lon="8.6039767"><ele>291.0</ele><time>2026-04-22T14:57:04.286Z</time></trkpt><trkpt lat="39.2002817" lon="8.6041067"><ele>291.0</ele><time>2026-04-22T14:57:06.286Z</time></trkpt><trkpt lat="39.2002467" lon="8.60418"><ele>291.0</ele><time>2026-04-22T14:57:07.286Z</time></trkpt><trkpt lat="39.2002117" lon="8.6042483"><ele>291.0</ele><time>2026-04-22T14:57:08.285Z</time></trkpt><trkpt lat="39.2001683" lon="8.6043167"><ele>291.0</ele><time>2026-04-22T14:57:09.286Z</time></trkpt><trkpt lat="39.200125" lon="8.604385"><ele>291.0</ele><time>2026-04-22T14:57:10.286Z</time></trkpt><trkpt lat="39.2000783" lon="8.604455"><ele>291.0</ele><time>2026-04-22T14:57:11.286Z</time></trkpt><trkpt lat="39.2000317" lon="8.6045283"><ele>291.0</ele><time>2026-04-22T14:57:12.286Z</time></trkpt><trkpt lat="39.199975" lon="8.604595"><ele>291.0</ele><time>2026-04-22T14:57:13.286Z</time></trkpt><trkpt lat="39.1999117" lon="8.6046617"><ele>291.0</ele><time>2026-04-22T14:57:14.286Z</time></trkpt><trkpt lat="39.1998433" lon="8.60473"><ele>291.5</ele><time>2026-04-22T14:57:15.286Z</time></trkpt><trkpt lat="39.199775" lon="8.6048033"><ele>292.0</ele><time>2026-04-22T14:57:16.286Z</time></trkpt><trkpt lat="39.199705" lon="8.60488"><ele>292.5</ele><time>2026-04-22T14:57:17.286Z</time></trkpt><trkpt lat="39.1996467" lon="8.6049467"><ele>293.0</ele><time>2026-04-22T14:57:18.286Z</time></trkpt><trkpt lat="39.199595" lon="8.6050233"><ele>293.5</ele><time>2026-04-22T14:57:19.285Z</time></trkpt><trkpt lat="39.199545" lon="8.605105"><ele>294.0</ele><time>2026-04-22T14:57:20.286Z</time></trkpt><trkpt lat="39.1994933" lon="8.6052"><ele>293.0</ele><time>2026-04-22T14:57:21.286Z</time></trkpt><trkpt lat="39.1993983" lon="8.6054017"><ele>292.0</ele><time>2026-04-22T14:57:23.286Z</time></trkpt><trkpt lat="39.1993617" lon="8.6055"><ele>291.0</ele><time>2026-04-22T14:57:24.286Z</time></trkpt><trkpt lat="39.1993233" lon="8.6056017"><ele>290.0</ele><time>2026-04-22T14:57:25.285Z</time></trkpt><trkpt lat="39.19929" lon="8.605705"><ele>289.0</ele><time>2026-04-22T14:57:26.286Z</time></trkpt><trkpt lat="39.1992567" lon="8.6058117"><ele>289.0</ele><time>2026-04-22T14:57:27.286Z</time></trkpt><trkpt lat="39.1992283" lon="8.60592"><ele>289.0</ele><time>2026-04-22T14:57:28.286Z</time></trkpt><trkpt lat="39.1992" lon="8.6060317"><ele>289.0</ele><time>2026-04-22T14:57:29.286Z</time></trkpt><trkpt lat="39.199165" lon="8.606135"><ele>289.0</ele><time>2026-04-22T14:57:30.285Z</time></trkpt><trkpt lat="39.19913" lon="8.606235"><ele>289.0</ele><time>2026-04-22T14:57:31.285Z</time></trkpt><trkpt lat="39.1990917" lon="8.6063267"><ele>289.0</ele><time>2026-04-22T14:57:32.286Z</time></trkpt><trkpt lat="39.1990483" lon="8.6064017"><ele>289.0</ele><time>2026-04-22T14:57:33.286Z</time></trkpt><trkpt lat="39.1990083" lon="8.6064667"><ele>289.0</ele><time>2026-04-22T14:57:34.285Z</time></trkpt><trkpt lat="39.1989583" lon="8.6065167"><ele>289.0</ele><time>2026-04-22T14:57:35.286Z</time></trkpt><trkpt lat="39.19889" lon="8.6065717"><ele>289.0</ele><time>2026-04-22T14:57:36.285Z</time></trkpt><trkpt lat="39.1988133" lon="8.60664"><ele>289.0</ele><time>2026-04-22T14:57:37.286Z</time></trkpt><trkpt lat="39.1987383" lon="8.6067117"><ele>289.0</ele><time>2026-04-22T14:57:38.286Z</time></trkpt><trkpt lat="39.1986733" lon="8.6067833"><ele>289.0</ele><time>2026-04-22T14:57:39.285Z</time></trkpt><trkpt lat="39.1986067" lon="8.60685"><ele>289.0</ele><time>2026-04-22T14:57:40.286Z</time></trkpt><trkpt lat="39.1985383" lon="8.6069133"><ele>289.0</ele><time>2026-04-22T14:57:41.285Z</time></trkpt><trkpt lat="39.1984733" lon="8.6069717"><ele>289.0</ele><time>2026-04-22T14:57:42.286Z</time></trkpt><trkpt lat="39.1983267" lon="8.6070633"><ele>289.0</ele><time>2026-04-22T14:57:44.285Z</time></trkpt><trkpt lat="39.1982483" lon="8.6071133"><ele>288.5</ele><time>2026-04-22T14:57:45.286Z</time></trkpt><trkpt lat="39.1981667" lon="8.607155"><ele>288.0</ele><time>2026-04-22T14:57:46.286Z</time></trkpt><trkpt lat="39.198095" lon="8.6072"><ele>287.5</ele><time>2026-04-22T14:57:47.286Z</time></trkpt><trkpt lat="39.1980267" lon="8.6072417"><ele>287.0</ele><time>2026-04-22T14:57:48.285Z</time></trkpt><trkpt lat="39.1979517" lon="8.6072867"><ele>286.5</ele><time>2026-04-22T14:57:49.286Z</time></trkpt><trkpt lat="39.1978767" lon="8.60733"><ele>286.0</ele><time>2026-04-22T14:57:50.285Z</time></trkpt><trkpt lat="39.1978083" lon="8.6073833"><ele>286.0</ele><time>2026-04-22T14:57:51.286Z</time></trkpt><trkpt lat="39.1977417" lon="8.6074283"><ele>286.0</ele><time>2026-04-22T14:57:52.286Z</time></trkpt><trkpt lat="39.1976717" lon="8.60748"><ele>286.0</ele><time>2026-04-22T14:57:53.285Z</time></trkpt><trkpt lat="39.197605" lon="8.6075433"><ele>286.0</ele><time>2026-04-22T14:57:54.286Z</time></trkpt><trkpt lat="39.19755" lon="8.60761"><ele>286.0</ele><time>2026-04-22T14:57:55.286Z</time></trkpt><trkpt lat="39.1975133" lon="8.60768"><ele>286.0</ele><time>2026-04-22T14:57:56.285Z</time></trkpt><trkpt lat="39.1974783" lon="8.6077617"><ele>285.66666666666663</ele><time>2026-04-22T14:57:57.286Z</time></trkpt><trkpt lat="39.1974383" lon="8.6078533"><ele>285.3333333333333</ele><time>2026-04-22T14:57:58.286Z</time></trkpt><trkpt lat="39.1973917" lon="8.6079467"><ele>285.0</ele><time>2026-04-22T14:57:59.285Z</time></trkpt><trkpt lat="39.1973467" lon="8.6080317"><ele>284.6666666666667</ele><time>2026-04-22T14:58:00.286Z</time></trkpt><trkpt lat="39.197305" lon="8.608115"><ele>284.33333333333337</ele><time>2026-04-22T14:58:01.285Z</time></trkpt><trkpt lat="39.1972633" lon="8.60819"><ele>284.0</ele><time>2026-04-22T14:58:02.286Z</time></trkpt><trkpt lat="39.1972217" lon="8.6082567"><ele>286.0</ele><time>2026-04-22T14:58:03.286Z</time></trkpt><trkpt lat="39.1970583" lon="8.6083667"><ele>288.0</ele><time>2026-04-22T14:58:06.286Z</time></trkpt><trkpt lat="39.1969433" lon="8.6084333"><ele>290.0</ele><time>2026-04-22T14:58:08.285Z</time></trkpt><trkpt lat="39.1968983" lon="8.6085083"><ele>292.0</ele><time>2026-04-22T14:58:09.285Z</time></trkpt><trkpt lat="39.1968483" lon="8.60859"><ele>292.0</ele><time>2026-04-22T14:58:10.286Z</time></trkpt><trkpt lat="39.196785" lon="8.6086583"><ele>292.0</ele><time>2026-04-22T14:58:11.286Z</time></trkpt><trkpt lat="39.1967233" lon="8.6087167"><ele>292.0</ele><time>2026-04-22T14:58:12.286Z</time></trkpt><trkpt lat="39.196665" lon="8.60877"><ele>292.0</ele><time>2026-04-22T14:58:13.285Z</time></trkpt><trkpt lat="39.19658" lon="8.608885"><ele>292.0</ele><time>2026-04-22T14:58:15.285Z</time></trkpt><trkpt lat="39.1965083" lon="8.6090317"><ele>292.66666666666663</ele><time>2026-04-22T14:58:17.286Z</time></trkpt><trkpt lat="39.1964717" lon="8.6091217"><ele>293.3333333333333</ele><time>2026-04-22T14:58:18.285Z</time></trkpt><trkpt lat="39.1964317" lon="8.6092"><ele>294.0</ele><time>2026-04-22T14:58:19.286Z</time></trkpt><trkpt lat="39.1963933" lon="8.6092783"><ele>294.6666666666667</ele><time>2026-04-22T14:58:20.286Z</time></trkpt><trkpt lat="39.1963483" lon="8.6093583"><ele>295.33333333333337</ele><time>2026-04-22T14:58:21.286Z</time></trkpt><trkpt lat="39.1962933" lon="8.6094367"><ele>296.0</ele><time>2026-04-22T14:58:22.286Z</time></trkpt><trkpt lat="39.19623" lon="8.609525"><ele>296.0</ele><time>2026-04-22T14:58:23.286Z</time></trkpt><trkpt lat="39.1961567" lon="8.6096133"><ele>296.0</ele><time>2026-04-22T14:58:24.285Z</time></trkpt><trkpt lat="39.1959917" lon="8.6097667"><ele>296.0</ele><time>2026-04-22T14:58:26.286Z</time></trkpt><trkpt lat="39.1959233" lon="8.609825"><ele>296.0</ele><time>2026-04-22T14:58:27.286Z</time></trkpt><trkpt lat="39.1958683" lon="8.6098667"><ele>296.0</ele><time>2026-04-22T14:58:28.285Z</time></trkpt><trkpt lat="39.19579" lon="8.6099417"><ele>296.0</ele><time>2026-04-22T14:58:30.286Z</time></trkpt><trkpt lat="39.1957433" lon="8.610025"><ele>296.0</ele><time>2026-04-22T14:58:32.286Z</time></trkpt><trkpt lat="39.1956833" lon="8.61017"><ele>296.0</ele><time>2026-04-22T14:58:34.286Z</time></trkpt><trkpt lat="39.195665" lon="8.6102517"><ele>296.0</ele><time>2026-04-22T14:58:35.286Z</time></trkpt><trkpt lat="39.195645" lon="8.61033"><ele>296.0</ele><time>2026-04-22T14:58:36.285Z</time></trkpt><trkpt lat="39.1955817" lon="8.6104633"><ele>294.5</ele><time>2026-04-22T14:58:38.286Z</time></trkpt><trkpt lat="39.1955067" lon="8.6105717"><ele>293.0</ele><time>2026-04-22T14:58:40.286Z</time></trkpt><trkpt lat="39.1954067" lon="8.610645"><ele>291.5</ele><time>2026-04-22T14:58:42.285Z</time></trkpt><trkpt lat="39.1952933" lon="8.6106517"><ele>290.0</ele><time>2026-04-22T14:58:44.286Z</time></trkpt><trkpt lat="39.195185" lon="8.6106217"><ele>290.0</ele><time>2026-04-22T14:58:46.285Z</time></trkpt><trkpt lat="39.1949717" lon="8.6105833"><ele>290.0</ele><time>2026-04-22T14:58:50.286Z</time></trkpt><trkpt lat="39.1948717" lon="8.6105867"><ele>290.0</ele><time>2026-04-22T14:58:52.285Z</time></trkpt><trkpt lat="39.1947733" lon="8.6106383"><ele>290.0</ele><time>2026-04-22T14:58:54.286Z</time></trkpt><trkpt lat="39.1946917" lon="8.6107233"><ele>285.0</ele><time>2026-04-22T14:58:56.285Z</time></trkpt><trkpt lat="39.194635" lon="8.6108467"><ele>280.0</ele><time>2026-04-22T14:58:58.285Z</time></trkpt><trkpt lat="39.19456" lon="8.6109317"><ele>275.0</ele><time>2026-04-22T14:59:00.286Z</time></trkpt><trkpt lat="39.1944467" lon="8.61096"><ele>270.0</ele><time>2026-04-22T14:59:02.285Z</time></trkpt><trkpt lat="39.1943367" lon="8.610995"><ele>265.0</ele><time>2026-04-22T14:59:04.286Z</time></trkpt><trkpt lat="39.1942583" lon="8.6110917"><ele>267.0</ele><time>2026-04-22T14:59:06.285Z</time></trkpt><trkpt lat="39.1942383" lon="8.611225"><ele>269.0</ele><time>2026-04-22T14:59:08.285Z</time></trkpt><trkpt lat="39.1941417" lon="8.6114483"><ele>271.0</ele><time>2026-04-22T14:59:12.286Z</time></trkpt><trkpt lat="39.1940117" lon="8.6115"><ele>273.0</ele><time>2026-04-22T14:59:14.286Z</time></trkpt><trkpt lat="39.19394" lon="8.611515"><ele>267.4</ele><time>2026-04-22T14:59:15.286Z</time></trkpt><trkpt lat="39.193875" lon="8.6115217"><ele>261.8</ele><time>2026-04-22T14:59:16.285Z</time></trkpt><trkpt lat="39.1937567" lon="8.6115417"><ele>256.2</ele><time>2026-04-22T14:59:18.286Z</time></trkpt><trkpt lat="39.19365" lon="8.611555"><ele>250.6</ele><time>2026-04-22T14:59:20.285Z</time></trkpt><trkpt lat="39.1935867" lon="8.611625"><ele>245.0</ele><time>2026-04-22T14:59:22.285Z</time></trkpt><trkpt lat="39.1935967" lon="8.6117267"><ele>245.0</ele><time>2026-04-22T14:59:24.286Z</time></trkpt><trkpt lat="39.193685" lon="8.6118517"><ele>245.0</ele><time>2026-04-22T14:59:26.286Z</time></trkpt><trkpt lat="39.19374" lon="8.6119217"><ele>245.0</ele><time>2026-04-22T14:59:27.286Z</time></trkpt><trkpt lat="39.1937933" lon="8.6119883"><ele>245.0</ele><time>2026-04-22T14:59:28.286Z</time></trkpt><trkpt lat="39.1938433" lon="8.61205"><ele>245.0</ele><time>2026-04-22T14:59:29.286Z</time></trkpt><trkpt lat="39.1939567" lon="8.6121817"><ele>245.28571428571428</ele><time>2026-04-22T14:59:31.286Z</time></trkpt><trkpt lat="39.1940033" lon="8.6122467"><ele>245.57142857142856</ele><time>2026-04-22T14:59:32.286Z</time></trkpt><trkpt lat="39.1940483" lon="8.6123183"><ele>245.85714285714286</ele><time>2026-04-22T14:59:33.286Z</time></trkpt><trkpt lat="39.194095" lon="8.6124033"><ele>246.14285714285714</ele><time>2026-04-22T14:59:34.285Z</time></trkpt><trkpt lat="39.1941167" lon="8.6124883"><ele>246.42857142857142</ele><time>2026-04-22T14:59:35.286Z</time></trkpt><trkpt lat="39.1941567" lon="8.6125717"><ele>246.71428571428572</ele><time>2026-04-22T14:59:36.286Z</time></trkpt><trkpt lat="39.1941883" lon="8.6126567"><ele>247.0</ele><time>2026-04-22T14:59:37.286Z</time></trkpt><trkpt lat="39.1942133" lon="8.612735"><ele>248.39999999999998</ele><time>2026-04-22T14:59:38.286Z</time></trkpt><trkpt lat="39.1942367" lon="8.612885"><ele>249.79999999999998</ele><time>2026-04-22T14:59:40.286Z</time></trkpt><trkpt lat="39.1942467" lon="8.612985"><ele>251.2</ele><time>2026-04-22T14:59:42.285Z</time></trkpt><trkpt lat="39.19428" lon="8.6130833"><ele>252.6</ele><time>2026-04-22T14:59:44.286Z</time></trkpt><trkpt lat="39.1943433" lon="8.613165"><ele>254.0</ele><time>2026-04-22T14:59:46.286Z</time></trkpt><trkpt lat="39.1944383" lon="8.6132183"><ele>254.0</ele><time>2026-04-22T14:59:48.286Z</time></trkpt><trkpt lat="39.1945317" lon="8.6132367"><ele>254.0</ele><time>2026-04-22T14:59:50.286Z</time></trkpt><trkpt lat="39.1947867" lon="8.6133183"><ele>254.0</ele><time>2026-04-22T14:59:54.286Z</time></trkpt><trkpt lat="39.19486" lon="8.6133717"><ele>254.0</ele><time>2026-04-22T14:59:55.286Z</time></trkpt><trkpt lat="39.1949667" lon="8.6134683"><ele>255.16666666666669</ele><time>2026-04-22T14:59:57.286Z</time></trkpt><trkpt lat="39.1950583" lon="8.6135167"><ele>256.33333333333337</ele><time>2026-04-22T14:59:59.286Z</time></trkpt><trkpt lat="39.1951317" lon="8.6134967"><ele>257.5</ele><time>2026-04-22T15:00:01.286Z</time></trkpt><trkpt lat="39.195225" lon="8.613415"><ele>258.6666666666667</ele><time>2026-04-22T15:00:03.285Z</time></trkpt><trkpt lat="39.1952817" lon="8.6133583"><ele>259.8333333333333</ele><time>2026-04-22T15:00:04.286Z</time></trkpt><trkpt lat="39.1953417" lon="8.6133067"><ele>261.0</ele><time>2026-04-22T15:00:05.286Z</time></trkpt><trkpt lat="39.1954433" lon="8.6132367"><ele>261.0</ele><time>2026-04-22T15:00:07.286Z</time></trkpt><trkpt lat="39.1955317" lon="8.6132583"><ele>261.0</ele><time>2026-04-22T15:00:09.286Z</time></trkpt><trkpt lat="39.1956183" lon="8.613335"><ele>261.0</ele><time>2026-04-22T15:00:11.285Z</time></trkpt><trkpt lat="39.1956467" lon="8.6135133"><ele>261.0</ele><time>2026-04-22T15:00:16.286Z</time></trkpt><trkpt lat="39.1955817" lon="8.6136233"><ele>261.0</ele><time>2026-04-22T15:00:18.285Z</time></trkpt><trkpt lat="39.1955667" lon="8.6137567"><ele>260.0</ele><time>2026-04-22T15:00:20.285Z</time></trkpt><trkpt lat="39.1956167" lon="8.6138833"><ele>259.0</ele><time>2026-04-22T15:00:22.286Z</time></trkpt><trkpt lat="39.19563" lon="8.6139883"><ele>258.0</ele><time>2026-04-22T15:00:24.286Z</time></trkpt><trkpt lat="39.1956067" lon="8.61409"><ele>257.0</ele><time>2026-04-22T15:00:26.285Z</time></trkpt><trkpt lat="39.1955317" lon="8.6142017"><ele>256.0</ele><time>2026-04-22T15:00:28.285Z</time></trkpt><trkpt lat="39.1954383" lon="8.6143"><ele>255.99999999999997</ele><time>2026-04-22T15:00:30.285Z</time></trkpt><trkpt lat="39.1953833" lon="8.6143433"><ele>256.0</ele><time>2026-04-22T15:00:31.285Z</time></trkpt><trkpt lat="39.19533" lon="8.6143917"><ele>256.0</ele><time>2026-04-22T15:00:32.286Z</time></trkpt><trkpt lat="39.195215" lon="8.6144817"><ele>256.0</ele><time>2026-04-22T15:00:34.285Z</time></trkpt><trkpt lat="39.1951567" lon="8.614525"><ele>255.99999999999997</ele><time>2026-04-22T15:00:35.286Z</time></trkpt><trkpt lat="39.1950917" lon="8.6146383"><ele>256.0</ele><time>2026-04-22T15:00:37.285Z</time></trkpt><trkpt lat="39.195095" lon="8.6147433"><ele>256.6</ele><time>2026-04-22T15:00:39.286Z</time></trkpt><trkpt lat="39.19517" lon="8.6147983"><ele>257.20000000000005</ele><time>2026-04-22T15:00:41.285Z</time></trkpt><trkpt lat="39.1952967" lon="8.6148"><ele>257.79999999999995</ele><time>2026-04-22T15:00:43.286Z</time></trkpt><trkpt lat="39.1953767" lon="8.61479"><ele>258.4</ele><time>2026-04-22T15:00:44.286Z</time></trkpt><trkpt lat="39.1954683" lon="8.6147817"><ele>259.0</ele><time>2026-04-22T15:00:45.286Z</time></trkpt><trkpt lat="39.1955467" lon="8.6147783"><ele>259.0</ele><time>2026-04-22T15:00:46.285Z</time></trkpt><trkpt lat="39.1956317" lon="8.6147767"><ele>259.0</ele><time>2026-04-22T15:00:47.285Z</time></trkpt><trkpt lat="39.1957117" lon="8.61478"><ele>259.0</ele><time>2026-04-22T15:00:48.286Z</time></trkpt><trkpt lat="39.1957817" lon="8.6147683"><ele>259.0</ele><time>2026-04-22T15:00:49.285Z</time></trkpt><trkpt lat="39.195855" lon="8.6147317"><ele>259.0</ele><time>2026-04-22T15:00:50.286Z</time></trkpt><trkpt lat="39.195935" lon="8.6146733"><ele>259.0</ele><time>2026-04-22T15:00:51.286Z</time></trkpt><trkpt lat="39.196015" lon="8.6145983"><ele>260.0</ele><time>2026-04-22T15:00:52.286Z</time></trkpt><trkpt lat="39.19609" lon="8.61452"><ele>261.0</ele><time>2026-04-22T15:00:53.286Z</time></trkpt><trkpt lat="39.1962517" lon="8.6143983"><ele>262.0</ele><time>2026-04-22T15:00:55.286Z</time></trkpt><trkpt lat="39.1963417" lon="8.614345"><ele>263.0</ele><time>2026-04-22T15:00:56.285Z</time></trkpt><trkpt lat="39.196435" lon="8.6142967"><ele>265.2</ele><time>2026-04-22T15:00:57.286Z</time></trkpt><trkpt lat="39.196525" lon="8.6142383"><ele>267.4</ele><time>2026-04-22T15:00:58.286Z</time></trkpt><trkpt lat="39.1966183" lon="8.6141867"><ele>269.59999999999997</ele><time>2026-04-22T15:00:59.286Z</time></trkpt><trkpt lat="39.19671" lon="8.6141383"><ele>271.8</ele><time>2026-04-22T15:01:00.286Z</time></trkpt><trkpt lat="39.1968067" lon="8.6141"><ele>274.0</ele><time>2026-04-22T15:01:01.285Z</time></trkpt><trkpt lat="39.1969" lon="8.6140833"><ele>274.0</ele><time>2026-04-22T15:01:02.286Z</time></trkpt><trkpt lat="39.1969817" lon="8.6140833"><ele>274.0</ele><time>2026-04-22T15:01:03.286Z</time></trkpt><trkpt lat="39.1970683" lon="8.6141033"><ele>274.0</ele><time>2026-04-22T15:01:04.285Z</time></trkpt><trkpt lat="39.1971483" lon="8.6141433"><ele>274.0</ele><time>2026-04-22T15:01:05.285Z</time></trkpt><trkpt lat="39.197235" lon="8.6141867"><ele>274.0</ele><time>2026-04-22T15:01:06.286Z</time></trkpt><trkpt lat="39.197325" lon="8.6142333"><ele>274.0</ele><time>2026-04-22T15:01:07.286Z</time></trkpt><trkpt lat="39.1974183" lon="8.6142567"><ele>274.0</ele><time>2026-04-22T15:01:08.286Z</time></trkpt><trkpt lat="39.1975183" lon="8.614255"><ele>274.0</ele><time>2026-04-22T15:01:09.286Z</time></trkpt><trkpt lat="39.19762" lon="8.6142483"><ele>274.0</ele><time>2026-04-22T15:01:10.285Z</time></trkpt><trkpt lat="39.1977383" lon="8.6142133"><ele>274.0</ele><time>2026-04-22T15:01:11.286Z</time></trkpt><trkpt lat="39.1978567" lon="8.6141733"><ele>274.0</ele><time>2026-04-22T15:01:12.285Z</time></trkpt><trkpt lat="39.19797" lon="8.6141383"><ele>274.0</ele><time>2026-04-22T15:01:13.286Z</time></trkpt><trkpt lat="39.1980767" lon="8.6141183"><ele>274.0</ele><time>2026-04-22T15:01:14.286Z</time></trkpt><trkpt lat="39.1982733" lon="8.614105"><ele>274.0</ele><time>2026-04-22T15:01:16.286Z</time></trkpt><trkpt lat="39.1983667" lon="8.6140883"><ele>274.0</ele><time>2026-04-22T15:01:17.285Z</time></trkpt><trkpt lat="39.1984483" lon="8.6140567"><ele>273.5</ele><time>2026-04-22T15:01:18.285Z</time></trkpt><trkpt lat="39.19852" lon="8.6140167"><ele>273.0</ele><time>2026-04-22T15:01:19.285Z</time></trkpt><trkpt lat="39.1985817" lon="8.6139717"><ele>272.5</ele><time>2026-04-22T15:01:20.286Z</time></trkpt><trkpt lat="39.198635" lon="8.6139033"><ele>272.0</ele><time>2026-04-22T15:01:21.286Z</time></trkpt><trkpt lat="39.1986917" lon="8.613835"><ele>271.5</ele><time>2026-04-22T15:01:22.286Z</time></trkpt><trkpt lat="39.1987533" lon="8.6137617"><ele>271.0</ele><time>2026-04-22T15:01:23.285Z</time></trkpt><trkpt lat="39.1988317" lon="8.6137017"><ele>273.40000000000003</ele><time>2026-04-22T15:01:24.285Z</time></trkpt><trkpt lat="39.1989183" lon="8.6136517"><ele>275.8</ele><time>2026-04-22T15:01:25.285Z</time></trkpt><trkpt lat="39.19901" lon="8.6136117"><ele>278.20000000000005</ele><time>2026-04-22T15:01:26.286Z</time></trkpt><trkpt lat="39.1991017" lon="8.613565"><ele>280.6</ele><time>2026-04-22T15:01:27.285Z</time></trkpt><trkpt lat="39.19919" lon="8.613525"><ele>283.0</ele><time>2026-04-22T15:01:28.286Z</time></trkpt><trkpt lat="39.1992817" lon="8.61349"><ele>283.0</ele><time>2026-04-22T15:01:29.286Z</time></trkpt><trkpt lat="39.1993733" lon="8.6134717"><ele>283.0</ele><time>2026-04-22T15:01:30.286Z</time></trkpt><trkpt lat="39.1994733" lon="8.6134733"><ele>283.0</ele><time>2026-04-22T15:01:31.286Z</time></trkpt><trkpt lat="39.1995717" lon="8.6134967"><ele>283.0</ele><time>2026-04-22T15:01:32.286Z</time></trkpt><trkpt lat="39.1996767" lon="8.613515"><ele>283.0</ele><time>2026-04-22T15:01:33.286Z</time></trkpt><trkpt lat="39.1997817" lon="8.6135483"><ele>284.0</ele><time>2026-04-22T15:01:34.285Z</time></trkpt><trkpt lat="39.199875" lon="8.6136017"><ele>285.0</ele><time>2026-04-22T15:01:35.286Z</time></trkpt><trkpt lat="39.2000517" lon="8.61377"><ele>286.0</ele><time>2026-04-22T15:01:37.286Z</time></trkpt><trkpt lat="39.200125" lon="8.6138517"><ele>287.0</ele><time>2026-04-22T15:01:38.286Z</time></trkpt><trkpt lat="39.2002" lon="8.6139283"><ele>283.6</ele><time>2026-04-22T15:01:39.286Z</time></trkpt><trkpt lat="39.20028" lon="8.6140033"><ele>280.2</ele><time>2026-04-22T15:01:40.286Z</time></trkpt><trkpt lat="39.20035" lon="8.6140817"><ele>276.8</ele><time>2026-04-22T15:01:41.286Z</time></trkpt><trkpt lat="39.2004133" lon="8.6141883"><ele>273.4</ele><time>2026-04-22T15:01:42.286Z</time></trkpt><trkpt lat="39.2004733" lon="8.6143017"><ele>270.0</ele><time>2026-04-22T15:01:43.286Z</time></trkpt><trkpt lat="39.200525" lon="8.614405"><ele>270.3333333333333</ele><time>2026-04-22T15:01:44.286Z</time></trkpt><trkpt lat="39.2005717" lon="8.6145167"><ele>270.6666666666667</ele><time>2026-04-22T15:01:45.286Z</time></trkpt><trkpt lat="39.2006017" lon="8.614615"><ele>271.0</ele><time>2026-04-22T15:01:46.285Z</time></trkpt><trkpt lat="39.2006417" lon="8.6147233"><ele>271.33333333333337</ele><time>2026-04-22T15:01:47.286Z</time></trkpt><trkpt lat="39.200685" lon="8.61481"><ele>271.6666666666667</ele><time>2026-04-22T15:01:48.286Z</time></trkpt><trkpt lat="39.2007367" lon="8.6148783"><ele>272.0</ele><time>2026-04-22T15:01:49.285Z</time></trkpt><trkpt lat="39.20079" lon="8.6149367"><ele>272.0</ele><time>2026-04-22T15:01:50.286Z</time></trkpt><trkpt lat="39.2008417" lon="8.6150067"><ele>272.0</ele><time>2026-04-22T15:01:51.286Z</time></trkpt><trkpt lat="39.200875" lon="8.6150917"><ele>272.0</ele><time>2026-04-22T15:01:52.286Z</time></trkpt><trkpt lat="39.200885" lon="8.6151883"><ele>272.0</ele><time>2026-04-22T15:01:53.286Z</time></trkpt><trkpt lat="39.2008767" lon="8.6152917"><ele>272.0</ele><time>2026-04-22T15:01:54.285Z</time></trkpt><trkpt lat="39.2008633" lon="8.6154067"><ele>272.0</ele><time>2026-04-22T15:01:55.285Z</time></trkpt><trkpt lat="39.2008417" lon="8.6155317"><ele>274.25</ele><time>2026-04-22T15:01:56.285Z</time></trkpt><trkpt lat="39.2007983" lon="8.615795"><ele>276.5</ele><time>2026-04-22T15:01:58.286Z</time></trkpt><trkpt lat="39.200785" lon="8.6159183"><ele>278.75</ele><time>2026-04-22T15:01:59.286Z</time></trkpt><trkpt lat="39.200785" lon="8.6160483"><ele>281.0</ele><time>2026-04-22T15:02:00.286Z</time></trkpt><trkpt lat="39.2008033" lon="8.6161833"><ele>281.25</ele><time>2026-04-22T15:02:01.286Z</time></trkpt><trkpt lat="39.20082" lon="8.616325"><ele>281.5</ele><time>2026-04-22T15:02:02.285Z</time></trkpt><trkpt lat="39.2008367" lon="8.6164783"><ele>281.75</ele><time>2026-04-22T15:02:03.286Z</time></trkpt><trkpt lat="39.20086" lon="8.6166383"><ele>282.0</ele><time>2026-04-22T15:02:04.285Z</time></trkpt><trkpt lat="39.2008817" lon="8.6167983"><ele>282.0</ele><time>2026-04-22T15:02:05.285Z</time></trkpt><trkpt lat="39.200905" lon="8.61695"><ele>282.0</ele><time>2026-04-22T15:02:06.285Z</time></trkpt><trkpt lat="39.200935" lon="8.617105"><ele>282.0</ele><time>2026-04-22T15:02:07.286Z</time></trkpt><trkpt lat="39.2009817" lon="8.6172633"><ele>282.0</ele><time>2026-04-22T15:02:08.286Z</time></trkpt><trkpt lat="39.2010283" lon="8.617405"><ele>282.2</ele><time>2026-04-22T15:02:09.285Z</time></trkpt><trkpt lat="39.201065" lon="8.6175317"><ele>282.4</ele><time>2026-04-22T15:02:10.285Z</time></trkpt><trkpt lat="39.20109" lon="8.617665"><ele>282.6</ele><time>2026-04-22T15:02:11.286Z</time></trkpt><trkpt lat="39.2011117" lon="8.6178067"><ele>282.8</ele><time>2026-04-22T15:02:12.285Z</time></trkpt><trkpt lat="39.2011183" lon="8.6179583"><ele>283.0</ele><time>2026-04-22T15:02:13.285Z</time></trkpt><trkpt lat="39.2011233" lon="8.6181033"><ele>284.25</ele><time>2026-04-22T15:02:14.286Z</time></trkpt><trkpt lat="39.2011233" lon="8.6182533"><ele>285.5</ele><time>2026-04-22T15:02:15.286Z</time></trkpt><trkpt lat="39.201115" lon="8.61841"><ele>286.75</ele><time>2026-04-22T15:02:16.285Z</time></trkpt><trkpt lat="39.2011" lon="8.61856"><ele>288.0</ele><time>2026-04-22T15:02:17.286Z</time></trkpt><trkpt lat="39.2010767" lon="8.6188433"><ele>289.6</ele><time>2026-04-22T15:02:19.286Z</time></trkpt><trkpt lat="39.2010617" lon="8.6189833"><ele>291.20000000000005</ele><time>2026-04-22T15:02:20.286Z</time></trkpt><trkpt lat="39.2010483" lon="8.6191183"><ele>292.8</ele><time>2026-04-22T15:02:21.285Z</time></trkpt><trkpt lat="39.20104" lon="8.6192533"><ele>294.40000000000003</ele><time>2026-04-22T15:02:22.285Z</time></trkpt><trkpt lat="39.2010517" lon="8.6193867"><ele>296.0</ele><time>2026-04-22T15:02:23.286Z</time></trkpt><trkpt lat="39.2010717" lon="8.6195167"><ele>296.6</ele><time>2026-04-22T15:02:24.285Z</time></trkpt><trkpt lat="39.20111" lon="8.61964"><ele>297.20000000000005</ele><time>2026-04-22T15:02:25.286Z</time></trkpt><trkpt lat="39.201165" lon="8.6197517"><ele>297.79999999999995</ele><time>2026-04-22T15:02:26.286Z</time></trkpt><trkpt lat="39.2012183" lon="8.6198433"><ele>298.4</ele><time>2026-04-22T15:02:27.285Z</time></trkpt><trkpt lat="39.2012717" lon="8.6199267"><ele>299.0</ele><time>2026-04-22T15:02:28.286Z</time></trkpt><trkpt lat="39.20132" lon="8.6200033"><ele>299.0</ele><time>2026-04-22T15:02:29.286Z</time></trkpt><trkpt lat="39.2013667" lon="8.6200733"><ele>299.0</ele><time>2026-04-22T15:02:30.286Z</time></trkpt><trkpt lat="39.2014167" lon="8.6201583"><ele>299.0</ele><time>2026-04-22T15:02:31.285Z</time></trkpt><trkpt lat="39.201465" lon="8.6202533"><ele>299.0</ele><time>2026-04-22T15:02:32.285Z</time></trkpt><trkpt lat="39.2015167" lon="8.620365"><ele>299.0</ele><time>2026-04-22T15:02:33.286Z</time></trkpt><trkpt lat="39.2015667" lon="8.6204883"><ele>299.0</ele><time>2026-04-22T15:02:34.285Z</time></trkpt><trkpt lat="39.2016233" lon="8.6206117"><ele>299.0</ele><time>2026-04-22T15:02:35.286Z</time></trkpt><trkpt lat="39.2016567" lon="8.6207383"><ele>299.0</ele><time>2026-04-22T15:02:36.286Z</time></trkpt><trkpt lat="39.2017017" lon="8.6208833"><ele>299.0</ele><time>2026-04-22T15:02:37.286Z</time></trkpt><trkpt lat="39.2017467" lon="8.6210167"><ele>299.0</ele><time>2026-04-22T15:02:38.286Z</time></trkpt><trkpt lat="39.2018433" lon="8.6212583"><ele>299.0</ele><time>2026-04-22T15:02:40.285Z</time></trkpt><trkpt lat="39.2018967" lon="8.6213667"><ele>299.0</ele><time>2026-04-22T15:02:41.285Z</time></trkpt><trkpt lat="39.20195" lon="8.6214767"><ele>299.0</ele><time>2026-04-22T15:02:42.285Z</time></trkpt><trkpt lat="39.202005" lon="8.621595"><ele>299.0</ele><time>2026-04-22T15:02:43.286Z</time></trkpt><trkpt lat="39.20207" lon="8.62172"><ele>299.0</ele><time>2026-04-22T15:02:44.286Z</time></trkpt><trkpt lat="39.202135" lon="8.62185"><ele>299.0</ele><time>2026-04-22T15:02:45.286Z</time></trkpt><trkpt lat="39.2022067" lon="8.62198"><ele>299.0</ele><time>2026-04-22T15:02:46.286Z</time></trkpt><trkpt lat="39.2022783" lon="8.6221083"><ele>299.0</ele><time>2026-04-22T15:02:47.286Z</time></trkpt><trkpt lat="39.2023567" lon="8.6222433"><ele>299.0</ele><time>2026-04-22T15:02:48.286Z</time></trkpt><trkpt lat="39.2024283" lon="8.62236"><ele>299.8</ele><time>2026-04-22T15:02:49.286Z</time></trkpt><trkpt lat="39.2024933" lon="8.622485"><ele>300.59999999999997</ele><time>2026-04-22T15:02:50.285Z</time></trkpt><trkpt lat="39.2025517" lon="8.622605"><ele>301.4</ele><time>2026-04-22T15:02:51.286Z</time></trkpt><trkpt lat="39.2025933" lon="8.6227167"><ele>302.2</ele><time>2026-04-22T15:02:52.286Z</time></trkpt><trkpt lat="39.20262" lon="8.6228317"><ele>303.0</ele><time>2026-04-22T15:02:53.286Z</time></trkpt><trkpt lat="39.2026317" lon="8.622955"><ele>304.25</ele><time>2026-04-22T15:02:54.286Z</time></trkpt><trkpt lat="39.2026267" lon="8.6230867"><ele>305.5</ele><time>2026-04-22T15:02:55.285Z</time></trkpt><trkpt lat="39.2026083" lon="8.6232233"><ele>306.75</ele><time>2026-04-22T15:02:56.286Z</time></trkpt><trkpt lat="39.2025833" lon="8.62337"><ele>308.0</ele><time>2026-04-22T15:02:57.286Z</time></trkpt><trkpt lat="39.2025583" lon="8.623535"><ele>309.6666666666667</ele><time>2026-04-22T15:02:58.286Z</time></trkpt><trkpt lat="39.20254" lon="8.623695"><ele>311.3333333333333</ele><time>2026-04-22T15:02:59.286Z</time></trkpt><trkpt lat="39.2025233" lon="8.6239933"><ele>313.0</ele><time>2026-04-22T15:03:01.286Z</time></trkpt><trkpt lat="39.2025067" lon="8.62413"><ele>313.0</ele><time>2026-04-22T15:03:02.286Z</time></trkpt><trkpt lat="39.2024983" lon="8.62425"><ele>313.0</ele><time>2026-04-22T15:03:03.285Z</time></trkpt><trkpt lat="39.2025033" lon="8.62437"><ele>313.0</ele><time>2026-04-22T15:03:04.286Z</time></trkpt><trkpt lat="39.2025233" lon="8.6244883"><ele>313.0</ele><time>2026-04-22T15:03:05.286Z</time></trkpt><trkpt lat="39.2025567" lon="8.6246117"><ele>313.0</ele><time>2026-04-22T15:03:06.286Z</time></trkpt><trkpt lat="39.2025983" lon="8.6247183"><ele>313.8</ele><time>2026-04-22T15:03:07.286Z</time></trkpt><trkpt lat="39.202645" lon="8.6248083"><ele>314.6</ele><time>2026-04-22T15:03:08.285Z</time></trkpt><trkpt lat="39.202705" lon="8.6248917"><ele>315.4</ele><time>2026-04-22T15:03:09.285Z</time></trkpt><trkpt lat="39.2027717" lon="8.62497"><ele>316.2</ele><time>2026-04-22T15:03:10.285Z</time></trkpt><trkpt lat="39.2028367" lon="8.625065"><ele>317.0</ele><time>2026-04-22T15:03:11.286Z</time></trkpt><trkpt lat="39.2028983" lon="8.62517"><ele>317.0</ele><time>2026-04-22T15:03:12.285Z</time></trkpt><trkpt lat="39.20295" lon="8.6252733"><ele>317.0</ele><time>2026-04-22T15:03:13.286Z</time></trkpt><trkpt lat="39.2030017" lon="8.6253817"><ele>317.0</ele><time>2026-04-22T15:03:14.286Z</time></trkpt><trkpt lat="39.2030533" lon="8.6254867"><ele>317.0</ele><time>2026-04-22T15:03:15.286Z</time></trkpt><trkpt lat="39.2030983" lon="8.62557"><ele>317.0</ele><time>2026-04-22T15:03:16.286Z</time></trkpt><trkpt lat="39.2031533" lon="8.6256417"><ele>317.0</ele><time>2026-04-22T15:03:17.286Z</time></trkpt><trkpt lat="39.20321" lon="8.625695"><ele>319.0</ele><time>2026-04-22T15:03:18.286Z</time></trkpt><trkpt lat="39.2033017" lon="8.6257783"><ele>321.0</ele><time>2026-04-22T15:03:20.286Z</time></trkpt><trkpt lat="39.2034533" lon="8.6259083"><ele>323.0</ele><time>2026-04-22T15:03:36.285Z</time></trkpt><trkpt lat="39.2035" lon="8.6258533"><ele>325.0</ele><time>2026-04-22T15:03:41.286Z</time></trkpt><trkpt lat="39.2034083" lon="8.625975"><ele>325.0</ele><time>2026-04-22T15:03:47.286Z</time></trkpt><trkpt lat="39.203385" lon="8.6260567"><ele>325.0</ele><time>2026-04-22T15:03:49.286Z</time></trkpt><trkpt lat="39.20335" lon="8.6262133"><ele>330.0</ele><time>2026-04-22T15:04:03.286Z</time></trkpt></trkseg></trk></gpx>